<?xml version="1.0" encoding="ISO-8859-1"?>
<gpx xmlns="http://www.topografix.com/GPX/1/1" version="1.1" creator="Sports Tracker" xmlns:xsi="http://www.w3.org/2001/XMLSchema-instance" xsi:schemaLocation="http://www.topografix.com/GPX/1/1 http://www.topografix.com/GPX/1/1/gpx.xsd">
<metadata>
<name><![CDATA[23.10.2010 16:35]]></name>
<desc><![CDATA[Bodosweg]]></desc>
<author><name><![CDATA[Bodosweg]]></name></author>
<time>2010-10-23T16:36:00.69</time>
</metadata>
<trk>
<name><![CDATA[23.10.2010 16:35]]></name>
<trkseg>
<trkpt lat="48.953145" lon="8.646892">
<ele>281.5</ele>
<speed>0.99</speed>
<course>276.2</course>
<desc>Speed 3.6 km/h Distance 0.00 km</desc>
<time>2010-10-23T16:36:04.81</time>
<name>1</name>
</trkpt>
<trkpt lat="48.953147" lon="8.646868">
<ele>282.5</ele>
<speed>1.20</speed>
<course>282.3</course>
<desc>Speed 4.3 km/h Distance 0.00 km</desc>
<time>2010-10-23T16:36:05.80</time>
<name>2</name>
</trkpt>
<trkpt lat="48.953150" lon="8.646845">
<ele>284.5</ele>
<speed>0.98</speed>
<course>297.6</course>
<desc>Speed 3.5 km/h Distance 0.00 km</desc>
<time>2010-10-23T16:36:06.80</time>
<name>3</name>
</trkpt>
<trkpt lat="48.953170" lon="8.646787">
<ele>283.0</ele>
<speed>1.70</speed>
<course>229.7</course>
<desc>Speed 6.1 km/h Distance 0.01 km</desc>
<time>2010-10-23T16:36:08.79</time>
<name>4</name>
</trkpt>
<trkpt lat="48.953162" lon="8.646772">
<ele>283.5</ele>
<speed>1.33</speed>
<course>229.7</course>
<desc>Speed 4.8 km/h Distance 0.01 km</desc>
<time>2010-10-23T16:36:09.78</time>
<name>5</name>
</trkpt>
<trkpt lat="48.953153" lon="8.646757">
<ele>284.0</ele>
<speed>1.39</speed>
<course>243.1</course>
<desc>Speed 5.0 km/h Distance 0.01 km</desc>
<time>2010-10-23T16:36:10.78</time>
<name>6</name>
</trkpt>
<trkpt lat="48.953147" lon="8.646737">
<ele>284.5</ele>
<speed>1.50</speed>
<course>256.8</course>
<desc>Speed 5.4 km/h Distance 0.01 km</desc>
<time>2010-10-23T16:36:11.77</time>
<name>7</name>
</trkpt>
<trkpt lat="48.953143" lon="8.646715">
<ele>285.0</ele>
<speed>1.54</speed>
<course>207.2</course>
<desc>Speed 5.5 km/h Distance 0.01 km</desc>
<time>2010-10-23T16:36:12.76</time>
<name>8</name>
</trkpt>
<trkpt lat="48.953128" lon="8.646703">
<ele>286.5</ele>
<speed>1.37</speed>
<course>210.3</course>
<desc>Speed 4.9 km/h Distance 0.02 km</desc>
<time>2010-10-23T16:36:13.77</time>
<name>9</name>
</trkpt>
<trkpt lat="48.953113" lon="8.646690">
<ele>288.0</ele>
<speed>1.49</speed>
<course>235.3</course>
<desc>Speed 5.4 km/h Distance 0.02 km</desc>
<time>2010-10-23T16:36:14.76</time>
<name>10</name>
</trkpt>
<trkpt lat="48.953105" lon="8.646672">
<ele>289.5</ele>
<speed>1.35</speed>
<course>235.9</course>
<desc>Speed 4.9 km/h Distance 0.02 km</desc>
<time>2010-10-23T16:36:15.76</time>
<name>11</name>
</trkpt>
<trkpt lat="48.953098" lon="8.646657">
<ele>290.0</ele>
<speed>1.35</speed>
<course>229.7</course>
<desc>Speed 4.9 km/h Distance 0.02 km</desc>
<time>2010-10-23T16:36:16.75</time>
<name>12</name>
</trkpt>
<trkpt lat="48.953090" lon="8.646642">
<ele>291.5</ele>
<speed>1.32</speed>
<course>270.0</course>
<desc>Speed 4.8 km/h Distance 0.02 km</desc>
<time>2010-10-23T16:36:17.74</time>
<name>13</name>
</trkpt>
<trkpt lat="48.953090" lon="8.646623">
<ele>291.5</ele>
<speed>1.30</speed>
<course>277.2</course>
<desc>Speed 4.7 km/h Distance 0.02 km</desc>
<time>2010-10-23T16:36:18.74</time>
<name>14</name>
</trkpt>
<trkpt lat="48.953092" lon="8.646603">
<ele>291.5</ele>
<speed>1.30</speed>
<course>262.8</course>
<desc>Speed 4.7 km/h Distance 0.03 km</desc>
<time>2010-10-23T16:36:19.74</time>
<name>15</name>
</trkpt>
<trkpt lat="48.953090" lon="8.646583">
<ele>291.5</ele>
<speed>1.45</speed>
<course>245.4</course>
<desc>Speed 5.2 km/h Distance 0.03 km</desc>
<time>2010-10-23T16:36:20.73</time>
<name>16</name>
</trkpt>
<trkpt lat="48.953085" lon="8.646567">
<ele>291.5</ele>
<speed>1.37</speed>
<course>243.1</course>
<desc>Speed 4.9 km/h Distance 0.03 km</desc>
<time>2010-10-23T16:36:21.72</time>
<name>17</name>
</trkpt>
<trkpt lat="48.953080" lon="8.646552">
<ele>291.5</ele>
<speed>1.25</speed>
<course>240.3</course>
<desc>Speed 4.5 km/h Distance 0.03 km</desc>
<time>2010-10-23T16:36:22.72</time>
<name>18</name>
</trkpt>
<trkpt lat="48.953075" lon="8.646538">
<ele>291.5</ele>
<speed>1.19</speed>
<course>208.6</course>
<desc>Speed 4.3 km/h Distance 0.03 km</desc>
<time>2010-10-23T16:36:23.72</time>
<name>19</name>
</trkpt>
<trkpt lat="48.953065" lon="8.646530">
<ele>291.5</ele>
<speed>1.15</speed>
<course>224.5</course>
<desc>Speed 4.1 km/h Distance 0.03 km</desc>
<time>2010-10-23T16:36:24.71</time>
<name>20</name>
</trkpt>
<trkpt lat="48.953058" lon="8.646520">
<ele>291.0</ele>
<speed>1.04</speed>
<course>228.9</course>
<desc>Speed 3.7 km/h Distance 0.03 km</desc>
<time>2010-10-23T16:36:25.71</time>
<name>21</name>
</trkpt>
<trkpt lat="48.953052" lon="8.646508">
<ele>291.0</ele>
<speed>1.08</speed>
<course>235.9</course>
<desc>Speed 3.9 km/h Distance 0.03 km</desc>
<time>2010-10-23T16:36:26.71</time>
<name>22</name>
</trkpt>
<trkpt lat="48.953045" lon="8.646493">
<ele>290.5</ele>
<speed>1.21</speed>
<course>232.6</course>
<desc>Speed 4.4 km/h Distance 0.04 km</desc>
<time>2010-10-23T16:36:27.70</time>
<name>23</name>
</trkpt>
<trkpt lat="48.953038" lon="8.646480">
<ele>290.5</ele>
<speed>1.04</speed>
<course>230.3</course>
<desc>Speed 3.7 km/h Distance 0.04 km</desc>
<time>2010-10-23T16:36:28.69</time>
<name>24</name>
</trkpt>
<trkpt lat="48.953028" lon="8.646462">
<ele>290.5</ele>
<speed>1.45</speed>
<course>226.4</course>
<desc>Speed 5.2 km/h Distance 0.04 km</desc>
<time>2010-10-23T16:36:29.69</time>
<name>25</name>
</trkpt>
<trkpt lat="48.953020" lon="8.646448">
<ele>290.5</ele>
<speed>1.37</speed>
<course>229.7</course>
<desc>Speed 4.9 km/h Distance 0.04 km</desc>
<time>2010-10-23T16:36:30.69</time>
<name>26</name>
</trkpt>
<trkpt lat="48.953012" lon="8.646433">
<ele>291.0</ele>
<speed>1.35</speed>
<course>235.9</course>
<desc>Speed 4.9 km/h Distance 0.04 km</desc>
<time>2010-10-23T16:36:31.69</time>
<name>27</name>
</trkpt>
<trkpt lat="48.953005" lon="8.646418">
<ele>291.0</ele>
<speed>1.28</speed>
<course>224.5</course>
<desc>Speed 4.6 km/h Distance 0.04 km</desc>
<time>2010-10-23T16:36:32.68</time>
<name>28</name>
</trkpt>
<trkpt lat="48.952995" lon="8.646403">
<ele>291.0</ele>
<speed>1.32</speed>
<course>235.9</course>
<desc>Speed 4.8 km/h Distance 0.04 km</desc>
<time>2010-10-23T16:36:33.68</time>
<name>29</name>
</trkpt>
<trkpt lat="48.952988" lon="8.646388">
<ele>291.0</ele>
<speed>1.25</speed>
<course>219.4</course>
<desc>Speed 4.5 km/h Distance 0.05 km</desc>
<time>2010-10-23T16:36:34.68</time>
<name>30</name>
</trkpt>
<trkpt lat="48.952982" lon="8.646380">
<ele>290.5</ele>
<speed>0.94</speed>
<course>226.5</course>
<desc>Speed 3.4 km/h Distance 0.05 km</desc>
<time>2010-10-23T16:36:35.68</time>
<name>31</name>
</trkpt>
<trkpt lat="48.952973" lon="8.646367">
<ele>290.5</ele>
<speed>1.45</speed>
<course>217.5</course>
<desc>Speed 5.2 km/h Distance 0.05 km</desc>
<time>2010-10-23T16:36:36.68</time>
<name>32</name>
</trkpt>
<trkpt lat="48.952963" lon="8.646355">
<ele>291.0</ele>
<speed>1.34</speed>
<course>221.2</course>
<desc>Speed 4.8 km/h Distance 0.05 km</desc>
<time>2010-10-23T16:36:37.67</time>
<name>33</name>
</trkpt>
<trkpt lat="48.952953" lon="8.646342">
<ele>291.0</ele>
<speed>1.36</speed>
<course>217.5</course>
<desc>Speed 4.9 km/h Distance 0.05 km</desc>
<time>2010-10-23T16:36:38.66</time>
<name>34</name>
</trkpt>
<trkpt lat="48.952943" lon="8.646330">
<ele>291.0</ele>
<speed>1.17</speed>
<course>217.3</course>
<desc>Speed 4.2 km/h Distance 0.05 km</desc>
<time>2010-10-23T16:36:39.66</time>
<name>35</name>
</trkpt>
<trkpt lat="48.952933" lon="8.646318">
<ele>291.0</ele>
<speed>1.20</speed>
<course>206.0</course>
<desc>Speed 4.3 km/h Distance 0.05 km</desc>
<time>2010-10-23T16:36:40.66</time>
<name>36</name>
</trkpt>
<trkpt lat="48.952920" lon="8.646308">
<ele>291.5</ele>
<speed>1.54</speed>
<course>209.4</course>
<desc>Speed 5.5 km/h Distance 0.05 km</desc>
<time>2010-10-23T16:36:41.66</time>
<name>37</name>
</trkpt>
<trkpt lat="48.952908" lon="8.646298">
<ele>291.0</ele>
<speed>1.33</speed>
<course>197.0</course>
<desc>Speed 4.8 km/h Distance 0.06 km</desc>
<time>2010-10-23T16:36:42.65</time>
<name>38</name>
</trkpt>
<trkpt lat="48.952887" lon="8.646288">
<ele>293.0</ele>
<speed>2.44</speed>
<course>220.6</course>
<desc>Speed 8.8 km/h Distance 0.06 km</desc>
<time>2010-10-23T16:36:43.64</time>
<name>39</name>
</trkpt>
<trkpt lat="48.952865" lon="8.646260">
<ele>292.5</ele>
<speed>1.60</speed>
<course>205.7</course>
<desc>Speed 5.8 km/h Distance 0.06 km</desc>
<time>2010-10-23T16:36:45.69</time>
<name>40</name>
</trkpt>
<trkpt lat="48.952840" lon="8.646242">
<ele>292.5</ele>
<speed>1.44</speed>
<course>199.1</course>
<desc>Speed 5.2 km/h Distance 0.07 km</desc>
<time>2010-10-23T16:36:47.65</time>
<name>41</name>
</trkpt>
<trkpt lat="48.952812" lon="8.646227">
<ele>293.0</ele>
<speed>1.49</speed>
<course>206.0</course>
<desc>Speed 5.4 km/h Distance 0.07 km</desc>
<time>2010-10-23T16:36:49.64</time>
<name>42</name>
</trkpt>
<trkpt lat="48.952798" lon="8.646217">
<ele>293.5</ele>
<speed>1.42</speed>
<course>202.1</course>
<desc>Speed 5.1 km/h Distance 0.07 km</desc>
<time>2010-10-23T16:36:50.62</time>
<name>43</name>
</trkpt>
<trkpt lat="48.952785" lon="8.646208">
<ele>293.0</ele>
<speed>1.27</speed>
<course>198.1</course>
<desc>Speed 4.6 km/h Distance 0.07 km</desc>
<time>2010-10-23T16:36:51.62</time>
<name>44</name>
</trkpt>
<trkpt lat="48.952772" lon="8.646202">
<ele>293.0</ele>
<speed>1.28</speed>
<course>189.0</course>
<desc>Speed 4.6 km/h Distance 0.07 km</desc>
<time>2010-10-23T16:36:52.61</time>
<name>45</name>
</trkpt>
<trkpt lat="48.952758" lon="8.646198">
<ele>293.5</ele>
<speed>1.21</speed>
<course>213.3</course>
<desc>Speed 4.4 km/h Distance 0.07 km</desc>
<time>2010-10-23T16:36:53.61</time>
<name>46</name>
</trkpt>
<trkpt lat="48.952743" lon="8.646183">
<ele>293.0</ele>
<speed>1.52</speed>
<course>206.0</course>
<desc>Speed 5.5 km/h Distance 0.08 km</desc>
<time>2010-10-23T16:36:54.60</time>
<name>47</name>
</trkpt>
<trkpt lat="48.952730" lon="8.646173">
<ele>293.0</ele>
<speed>1.50</speed>
<course>216.9</course>
<desc>Speed 5.4 km/h Distance 0.08 km</desc>
<time>2010-10-23T16:36:55.59</time>
<name>48</name>
</trkpt>
<trkpt lat="48.952718" lon="8.646160">
<ele>293.5</ele>
<speed>1.58</speed>
<course>213.2</course>
<desc>Speed 5.7 km/h Distance 0.08 km</desc>
<time>2010-10-23T16:36:56.58</time>
<name>49</name>
</trkpt>
<trkpt lat="48.952708" lon="8.646150">
<ele>292.5</ele>
<speed>1.14</speed>
<course>232.7</course>
<desc>Speed 4.1 km/h Distance 0.08 km</desc>
<time>2010-10-23T16:36:57.58</time>
<name>50</name>
</trkpt>
<trkpt lat="48.952700" lon="8.646133">
<ele>292.0</ele>
<speed>1.35</speed>
<course>253.0</course>
<desc>Speed 4.9 km/h Distance 0.08 km</desc>
<time>2010-10-23T16:36:58.58</time>
<name>51</name>
</trkpt>
<trkpt lat="48.952697" lon="8.646117">
<ele>291.0</ele>
<speed>1.25</speed>
<course>290.9</course>
<desc>Speed 4.5 km/h Distance 0.08 km</desc>
<time>2010-10-23T16:36:59.57</time>
<name>52</name>
</trkpt>
<trkpt lat="48.952700" lon="8.646103">
<ele>290.5</ele>
<speed>0.95</speed>
<course>315.7</course>
<desc>Speed 3.4 km/h Distance 0.09 km</desc>
<time>2010-10-23T16:37:00.57</time>
<name>53</name>
</trkpt>
<trkpt lat="48.952707" lon="8.646093">
<ele>290.5</ele>
<speed>1.22</speed>
<course>313.5</course>
<desc>Speed 4.4 km/h Distance 0.09 km</desc>
<time>2010-10-23T16:37:01.56</time>
<name>54</name>
</trkpt>
<trkpt lat="48.952715" lon="8.646080">
<ele>290.5</ele>
<speed>1.45</speed>
<course>318.8</course>
<desc>Speed 5.2 km/h Distance 0.09 km</desc>
<time>2010-10-23T16:37:02.56</time>
<name>55</name>
</trkpt>
<trkpt lat="48.952725" lon="8.646067">
<ele>290.5</ele>
<speed>1.50</speed>
<course>331.4</course>
<desc>Speed 5.4 km/h Distance 0.09 km</desc>
<time>2010-10-23T16:37:03.56</time>
<name>56</name>
</trkpt>
<trkpt lat="48.952735" lon="8.646058">
<ele>290.5</ele>
<speed>1.38</speed>
<course>344.5</course>
<desc>Speed 5.0 km/h Distance 0.09 km</desc>
<time>2010-10-23T16:37:04.58</time>
<name>57</name>
</trkpt>
<trkpt lat="48.952747" lon="8.646053">
<ele>290.0</ele>
<speed>1.38</speed>
<course>326.8</course>
<desc>Speed 5.0 km/h Distance 0.09 km</desc>
<time>2010-10-23T16:37:05.56</time>
<name>58</name>
</trkpt>
<trkpt lat="48.952755" lon="8.646045">
<ele>290.0</ele>
<speed>1.10</speed>
<course>331.4</course>
<desc>Speed 4.0 km/h Distance 0.09 km</desc>
<time>2010-10-23T16:37:06.55</time>
<name>59</name>
</trkpt>
<trkpt lat="48.952765" lon="8.646037">
<ele>289.5</ele>
<speed>1.26</speed>
<course>355.3</course>
<desc>Speed 4.5 km/h Distance 0.09 km</desc>
<time>2010-10-23T16:37:07.54</time>
<name>60</name>
</trkpt>
<trkpt lat="48.952777" lon="8.646035">
<ele>288.5</ele>
<speed>1.23</speed>
<course>339.4</course>
<desc>Speed 4.4 km/h Distance 0.10 km</desc>
<time>2010-10-23T16:37:08.54</time>
<name>61</name>
</trkpt>
<trkpt lat="48.952788" lon="8.646028">
<ele>288.0</ele>
<speed>1.37</speed>
<course>338.5</course>
<desc>Speed 4.9 km/h Distance 0.10 km</desc>
<time>2010-10-23T16:37:09.54</time>
<name>62</name>
</trkpt>
<trkpt lat="48.952797" lon="8.646023">
<ele>287.5</ele>
<speed>1.15</speed>
<course>11.2</course>
<desc>Speed 4.1 km/h Distance 0.10 km</desc>
<time>2010-10-23T16:37:10.54</time>
<name>63</name>
</trkpt>
<trkpt lat="48.952813" lon="8.646028">
<ele>286.5</ele>
<speed>1.78</speed>
<course>341.8</course>
<desc>Speed 6.4 km/h Distance 0.10 km</desc>
<time>2010-10-23T16:37:11.53</time>
<name>64</name>
</trkpt>
<trkpt lat="48.952823" lon="8.646023">
<ele>286.0</ele>
<speed>1.17</speed>
<course>345.1</course>
<desc>Speed 4.2 km/h Distance 0.10 km</desc>
<time>2010-10-23T16:37:12.52</time>
<name>65</name>
</trkpt>
<trkpt lat="48.952832" lon="8.646020">
<ele>286.0</ele>
<speed>0.95</speed>
<course>349.7</course>
<desc>Speed 3.4 km/h Distance 0.10 km</desc>
<time>2010-10-23T16:37:13.52</time>
<name>66</name>
</trkpt>
<trkpt lat="48.952845" lon="8.646017">
<ele>285.5</ele>
<speed>1.36</speed>
<course>341.8</course>
<desc>Speed 4.9 km/h Distance 0.10 km</desc>
<time>2010-10-23T16:37:14.52</time>
<name>67</name>
</trkpt>
<trkpt lat="48.952855" lon="8.646012">
<ele>284.5</ele>
<speed>1.12</speed>
<course>347.4</course>
<desc>Speed 4.0 km/h Distance 0.10 km</desc>
<time>2010-10-23T16:37:15.52</time>
<name>68</name>
</trkpt>
<trkpt lat="48.952865" lon="8.646008">
<ele>284.0</ele>
<speed>1.04</speed>
<course>0.0</course>
<desc>Speed 3.7 km/h Distance 0.11 km</desc>
<time>2010-10-23T16:37:16.51</time>
<name>69</name>
</trkpt>
<trkpt lat="48.952875" lon="8.646008">
<ele>283.5</ele>
<speed>1.14</speed>
<course>355.3</course>
<desc>Speed 4.1 km/h Distance 0.11 km</desc>
<time>2010-10-23T16:37:17.51</time>
<name>70</name>
</trkpt>
<trkpt lat="48.952887" lon="8.646007">
<ele>283.0</ele>
<speed>1.22</speed>
<course>355.3</course>
<desc>Speed 4.4 km/h Distance 0.11 km</desc>
<time>2010-10-23T16:37:18.50</time>
<name>71</name>
</trkpt>
<trkpt lat="48.952898" lon="8.646005">
<ele>282.5</ele>
<speed>1.19</speed>
<course>349.6</course>
<desc>Speed 4.3 km/h Distance 0.11 km</desc>
<time>2010-10-23T16:37:19.50</time>
<name>72</name>
</trkpt>
<trkpt lat="48.952910" lon="8.646002">
<ele>281.5</ele>
<speed>1.34</speed>
<course>352.9</course>
<desc>Speed 4.8 km/h Distance 0.11 km</desc>
<time>2010-10-23T16:37:20.50</time>
<name>73</name>
</trkpt>
<trkpt lat="48.952927" lon="8.645998">
<ele>282.0</ele>
<speed>1.49</speed>
<course>344.5</course>
<desc>Speed 5.4 km/h Distance 0.11 km</desc>
<time>2010-10-23T16:37:21.50</time>
<name>74</name>
</trkpt>
<trkpt lat="48.952938" lon="8.645993">
<ele>281.5</ele>
<speed>1.36</speed>
<course>344.5</course>
<desc>Speed 4.9 km/h Distance 0.11 km</desc>
<time>2010-10-23T16:37:22.49</time>
<name>75</name>
</trkpt>
<trkpt lat="48.952950" lon="8.645988">
<ele>281.5</ele>
<speed>1.21</speed>
<course>349.6</course>
<desc>Speed 4.4 km/h Distance 0.12 km</desc>
<time>2010-10-23T16:37:23.49</time>
<name>76</name>
</trkpt>
<trkpt lat="48.952962" lon="8.645985">
<ele>281.5</ele>
<speed>1.44</speed>
<course>336.2</course>
<desc>Speed 5.2 km/h Distance 0.12 km</desc>
<time>2010-10-23T16:37:24.49</time>
<name>77</name>
</trkpt>
<trkpt lat="48.952972" lon="8.645978">
<ele>281.5</ele>
<speed>1.32</speed>
<course>343.4</course>
<desc>Speed 4.8 km/h Distance 0.12 km</desc>
<time>2010-10-23T16:37:25.49</time>
<name>78</name>
</trkpt>
<trkpt lat="48.952987" lon="8.645972">
<ele>281.5</ele>
<speed>1.33</speed>
<course>347.4</course>
<desc>Speed 4.8 km/h Distance 0.12 km</desc>
<time>2010-10-23T16:37:26.49</time>
<name>79</name>
</trkpt>
<trkpt lat="48.953002" lon="8.645967">
<ele>281.0</ele>
<speed>1.39</speed>
<course>336.3</course>
<desc>Speed 5.0 km/h Distance 0.12 km</desc>
<time>2010-10-23T16:37:27.48</time>
<name>80</name>
</trkpt>
<trkpt lat="48.953017" lon="8.645957">
<ele>281.5</ele>
<speed>1.28</speed>
<course>336.2</course>
<desc>Speed 4.6 km/h Distance 0.12 km</desc>
<time>2010-10-23T16:37:28.48</time>
<name>81</name>
</trkpt>
<trkpt lat="48.953027" lon="8.645950">
<ele>281.0</ele>
<speed>1.27</speed>
<course>341.8</course>
<desc>Speed 4.6 km/h Distance 0.12 km</desc>
<time>2010-10-23T16:37:29.48</time>
<name>82</name>
</trkpt>
<trkpt lat="48.953037" lon="8.645945">
<ele>281.0</ele>
<speed>1.30</speed>
<course>344.0</course>
<desc>Speed 4.7 km/h Distance 0.13 km</desc>
<time>2010-10-23T16:37:30.47</time>
<name>83</name>
</trkpt>
<trkpt lat="48.953048" lon="8.645940">
<ele>280.5</ele>
<speed>1.27</speed>
<course>341.8</course>
<desc>Speed 4.6 km/h Distance 0.13 km</desc>
<time>2010-10-23T16:37:31.47</time>
<name>84</name>
</trkpt>
<trkpt lat="48.953058" lon="8.645935">
<ele>280.5</ele>
<speed>1.28</speed>
<course>342.4</course>
<desc>Speed 4.6 km/h Distance 0.13 km</desc>
<time>2010-10-23T16:37:32.46</time>
<name>85</name>
</trkpt>
<trkpt lat="48.953068" lon="8.645930">
<ele>280.0</ele>
<speed>1.26</speed>
<course>5.0</course>
<desc>Speed 4.5 km/h Distance 0.13 km</desc>
<time>2010-10-23T16:37:33.46</time>
<name>86</name>
</trkpt>
<trkpt lat="48.953077" lon="8.645930">
<ele>279.5</ele>
<speed>0.81</speed>
<course>355.6</course>
<desc>Speed 2.9 km/h Distance 0.13 km</desc>
<time>2010-10-23T16:37:34.45</time>
<name>87</name>
</trkpt>
<trkpt lat="48.953087" lon="8.645928">
<ele>279.5</ele>
<speed>1.00</speed>
<course>0.0</course>
<desc>Speed 3.6 km/h Distance 0.13 km</desc>
<time>2010-10-23T16:37:35.45</time>
<name>88</name>
</trkpt>
<trkpt lat="48.953103" lon="8.645928">
<ele>279.0</ele>
<speed>1.47</speed>
<course>3.8</course>
<desc>Speed 5.3 km/h Distance 0.13 km</desc>
<time>2010-10-23T16:37:36.44</time>
<name>89</name>
</trkpt>
<trkpt lat="48.953118" lon="8.645928">
<ele>279.0</ele>
<speed>1.42</speed>
<course>0.0</course>
<desc>Speed 5.1 km/h Distance 0.13 km</desc>
<time>2010-10-23T16:37:37.44</time>
<name>90</name>
</trkpt>
<trkpt lat="48.953135" lon="8.645928">
<ele>279.0</ele>
<speed>1.44</speed>
<course>357.2</course>
<desc>Speed 5.2 km/h Distance 0.14 km</desc>
<time>2010-10-23T16:37:38.43</time>
<name>91</name>
</trkpt>
<trkpt lat="48.953152" lon="8.645927">
<ele>278.5</ele>
<speed>1.38</speed>
<course>0.0</course>
<desc>Speed 5.0 km/h Distance 0.14 km</desc>
<time>2010-10-23T16:37:39.43</time>
<name>92</name>
</trkpt>
<trkpt lat="48.953167" lon="8.645927">
<ele>278.5</ele>
<speed>1.35</speed>
<course>0.0</course>
<desc>Speed 4.9 km/h Distance 0.14 km</desc>
<time>2010-10-23T16:37:40.43</time>
<name>93</name>
</trkpt>
<trkpt lat="48.953183" lon="8.645927">
<ele>278.5</ele>
<speed>1.34</speed>
<course>7.0</course>
<desc>Speed 4.8 km/h Distance 0.14 km</desc>
<time>2010-10-23T16:37:41.42</time>
<name>94</name>
</trkpt>
<trkpt lat="48.953202" lon="8.645930">
<ele>278.5</ele>
<speed>1.69</speed>
<course>8.1</course>
<desc>Speed 6.1 km/h Distance 0.14 km</desc>
<time>2010-10-23T16:37:42.41</time>
<name>95</name>
</trkpt>
<trkpt lat="48.953217" lon="8.645933">
<ele>278.0</ele>
<speed>1.50</speed>
<course>0.0</course>
<desc>Speed 5.4 km/h Distance 0.15 km</desc>
<time>2010-10-23T16:37:43.41</time>
<name>96</name>
</trkpt>
<trkpt lat="48.953233" lon="8.645933">
<ele>278.0</ele>
<speed>1.45</speed>
<course>5.0</course>
<desc>Speed 5.2 km/h Distance 0.15 km</desc>
<time>2010-10-23T16:37:44.40</time>
<name>97</name>
</trkpt>
<trkpt lat="48.953250" lon="8.645935">
<ele>278.0</ele>
<speed>1.53</speed>
<course>3.9</course>
<desc>Speed 5.5 km/h Distance 0.15 km</desc>
<time>2010-10-23T16:37:45.39</time>
<name>98</name>
</trkpt>
<trkpt lat="48.953263" lon="8.645937">
<ele>278.0</ele>
<speed>1.42</speed>
<course>3.8</course>
<desc>Speed 5.1 km/h Distance 0.15 km</desc>
<time>2010-10-23T16:37:46.39</time>
<name>99</name>
</trkpt>
<trkpt lat="48.953278" lon="8.645938">
<ele>277.5</ele>
<speed>1.50</speed>
<course>5.0</course>
<desc>Speed 5.4 km/h Distance 0.15 km</desc>
<time>2010-10-23T16:37:47.38</time>
<name>100</name>
</trkpt>
<trkpt lat="48.953293" lon="8.645940">
<ele>277.5</ele>
<speed>1.50</speed>
<course>1.2</course>
<desc>Speed 5.4 km/h Distance 0.15 km</desc>
<time>2010-10-23T16:37:48.38</time>
<name>101</name>
</trkpt>
<trkpt lat="48.953307" lon="8.645940">
<ele>277.0</ele>
<speed>1.37</speed>
<course>9.0</course>
<desc>Speed 4.9 km/h Distance 0.16 km</desc>
<time>2010-10-23T16:37:49.38</time>
<name>102</name>
</trkpt>
<trkpt lat="48.953320" lon="8.645943">
<ele>277.0</ele>
<speed>1.40</speed>
<course>4.7</course>
<desc>Speed 5.0 km/h Distance 0.16 km</desc>
<time>2010-10-23T16:37:50.38</time>
<name>103</name>
</trkpt>
<trkpt lat="48.953332" lon="8.645943">
<ele>277.0</ele>
<speed>1.25</speed>
<course>1.2</course>
<desc>Speed 4.5 km/h Distance 0.16 km</desc>
<time>2010-10-23T16:37:51.37</time>
<name>104</name>
</trkpt>
<trkpt lat="48.953345" lon="8.645943">
<ele>277.0</ele>
<speed>1.26</speed>
<course>4.7</course>
<desc>Speed 4.5 km/h Distance 0.16 km</desc>
<time>2010-10-23T16:37:52.37</time>
<name>105</name>
</trkpt>
<trkpt lat="48.953357" lon="8.645945">
<ele>277.0</ele>
<speed>1.28</speed>
<course>1.2</course>
<desc>Speed 4.6 km/h Distance 0.16 km</desc>
<time>2010-10-23T16:37:53.37</time>
<name>106</name>
</trkpt>
<trkpt lat="48.953370" lon="8.645947">
<ele>277.5</ele>
<speed>1.37</speed>
<course>356.2</course>
<desc>Speed 4.9 km/h Distance 0.16 km</desc>
<time>2010-10-23T16:37:54.36</time>
<name>107</name>
</trkpt>
<trkpt lat="48.953385" lon="8.645945">
<ele>277.5</ele>
<speed>1.45</speed>
<course>356.1</course>
<desc>Speed 5.2 km/h Distance 0.16 km</desc>
<time>2010-10-23T16:37:55.36</time>
<name>108</name>
</trkpt>
<trkpt lat="48.953398" lon="8.645943">
<ele>278.0</ele>
<speed>1.30</speed>
<course>356.2</course>
<desc>Speed 4.7 km/h Distance 0.17 km</desc>
<time>2010-10-23T16:37:56.35</time>
<name>109</name>
</trkpt>
<trkpt lat="48.953413" lon="8.645942">
<ele>278.0</ele>
<speed>1.40</speed>
<course>351.0</course>
<desc>Speed 5.0 km/h Distance 0.17 km</desc>
<time>2010-10-23T16:37:57.35</time>
<name>110</name>
</trkpt>
<trkpt lat="48.953427" lon="8.645938">
<ele>278.0</ele>
<speed>1.30</speed>
<course>3.8</course>
<desc>Speed 4.7 km/h Distance 0.17 km</desc>
<time>2010-10-23T16:37:58.34</time>
<name>111</name>
</trkpt>
<trkpt lat="48.953442" lon="8.645938">
<ele>278.0</ele>
<speed>1.45</speed>
<course>16.0</course>
<desc>Speed 5.2 km/h Distance 0.17 km</desc>
<time>2010-10-23T16:37:59.34</time>
<name>112</name>
</trkpt>
<trkpt lat="48.953453" lon="8.645943">
<ele>278.5</ele>
<speed>1.32</speed>
<course>4.4</course>
<desc>Speed 4.8 km/h Distance 0.17 km</desc>
<time>2010-10-23T16:38:00.33</time>
<name>113</name>
</trkpt>
<trkpt lat="48.953463" lon="8.645945">
<ele>279.0</ele>
<speed>1.25</speed>
<course>12.6</course>
<desc>Speed 4.5 km/h Distance 0.17 km</desc>
<time>2010-10-23T16:38:01.33</time>
<name>114</name>
</trkpt>
<trkpt lat="48.953473" lon="8.645948">
<ele>278.5</ele>
<speed>1.15</speed>
<course>20.9</course>
<desc>Speed 4.1 km/h Distance 0.17 km</desc>
<time>2010-10-23T16:38:02.32</time>
<name>115</name>
</trkpt>
<trkpt lat="48.953485" lon="8.645955">
<ele>278.5</ele>
<speed>1.30</speed>
<course>13.5</course>
<desc>Speed 4.7 km/h Distance 0.18 km</desc>
<time>2010-10-23T16:38:03.32</time>
<name>116</name>
</trkpt>
<trkpt lat="48.953498" lon="8.645960">
<ele>278.5</ele>
<speed>1.40</speed>
<course>16.0</course>
<desc>Speed 5.0 km/h Distance 0.18 km</desc>
<time>2010-10-23T16:38:04.32</time>
<name>117</name>
</trkpt>
<trkpt lat="48.953510" lon="8.645965">
<ele>278.0</ele>
<speed>1.24</speed>
<course>4.7</course>
<desc>Speed 4.5 km/h Distance 0.18 km</desc>
<time>2010-10-23T16:38:05.31</time>
<name>118</name>
</trkpt>
<trkpt lat="48.953522" lon="8.645967">
<ele>278.0</ele>
<speed>1.20</speed>
<course>12.6</course>
<desc>Speed 4.3 km/h Distance 0.18 km</desc>
<time>2010-10-23T16:38:06.30</time>
<name>119</name>
</trkpt>
<trkpt lat="48.953532" lon="8.645970">
<ele>277.5</ele>
<speed>1.01</speed>
<course>20.6</course>
<desc>Speed 3.6 km/h Distance 0.18 km</desc>
<time>2010-10-23T16:38:07.30</time>
<name>120</name>
</trkpt>
<trkpt lat="48.953543" lon="8.645977">
<ele>277.0</ele>
<speed>1.26</speed>
<course>27.9</course>
<desc>Speed 4.5 km/h Distance 0.18 km</desc>
<time>2010-10-23T16:38:08.29</time>
<name>121</name>
</trkpt>
<trkpt lat="48.953552" lon="8.645983">
<ele>276.5</ele>
<speed>0.73</speed>
<course>30.0</course>
<desc>Speed 2.6 km/h Distance 0.18 km</desc>
<time>2010-10-23T16:38:09.29</time>
<name>122</name>
</trkpt>
<trkpt lat="48.953565" lon="8.645995">
<ele>275.5</ele>
<speed>1.26</speed>
<course>33.5</course>
<desc>Speed 4.5 km/h Distance 0.19 km</desc>
<time>2010-10-23T16:38:10.29</time>
<name>123</name>
</trkpt>
<trkpt lat="48.953573" lon="8.646003">
<ele>275.5</ele>
<speed>1.07</speed>
<course>33.2</course>
<desc>Speed 3.9 km/h Distance 0.19 km</desc>
<time>2010-10-23T16:38:11.28</time>
<name>124</name>
</trkpt>
<trkpt lat="48.953582" lon="8.646012">
<ele>275.0</ele>
<speed>0.97</speed>
<course>29.4</course>
<desc>Speed 3.5 km/h Distance 0.19 km</desc>
<time>2010-10-23T16:38:12.28</time>
<name>125</name>
</trkpt>
<trkpt lat="48.953593" lon="8.646022">
<ele>274.5</ele>
<speed>1.32</speed>
<course>27.9</course>
<desc>Speed 4.8 km/h Distance 0.19 km</desc>
<time>2010-10-23T16:38:13.27</time>
<name>126</name>
</trkpt>
<trkpt lat="48.953602" lon="8.646028">
<ele>274.0</ele>
<speed>1.10</speed>
<course>37.5</course>
<desc>Speed 4.0 km/h Distance 0.19 km</desc>
<time>2010-10-23T16:38:14.27</time>
<name>127</name>
</trkpt>
<trkpt lat="48.953612" lon="8.646040">
<ele>273.5</ele>
<speed>1.27</speed>
<course>27.9</course>
<desc>Speed 4.6 km/h Distance 0.19 km</desc>
<time>2010-10-23T16:38:15.27</time>
<name>128</name>
</trkpt>
<trkpt lat="48.953620" lon="8.646047">
<ele>273.5</ele>
<speed>0.87</speed>
<course>38.1</course>
<desc>Speed 3.1 km/h Distance 0.19 km</desc>
<time>2010-10-23T16:38:16.26</time>
<name>129</name>
</trkpt>
<trkpt lat="48.953628" lon="8.646057">
<ele>273.5</ele>
<speed>0.89</speed>
<course>47.8</course>
<desc>Speed 3.2 km/h Distance 0.19 km</desc>
<time>2010-10-23T16:38:17.26</time>
<name>130</name>
</trkpt>
<trkpt lat="48.953633" lon="8.646065">
<ele>273.5</ele>
<speed>0.81</speed>
<course>33.7</course>
<desc>Speed 2.9 km/h Distance 0.19 km</desc>
<time>2010-10-23T16:38:18.25</time>
<name>131</name>
</trkpt>
<trkpt lat="48.953640" lon="8.646072">
<ele>273.5</ele>
<speed>0.81</speed>
<course>39.4</course>
<desc>Speed 2.9 km/h Distance 0.20 km</desc>
<time>2010-10-23T16:38:19.25</time>
<name>132</name>
</trkpt>
<trkpt lat="48.953647" lon="8.646080">
<ele>273.0</ele>
<speed>0.87</speed>
<course>27.5</course>
<desc>Speed 3.1 km/h Distance 0.20 km</desc>
<time>2010-10-23T16:38:20.24</time>
<name>133</name>
</trkpt>
<trkpt lat="48.953655" lon="8.646087">
<ele>273.0</ele>
<speed>0.87</speed>
<course>20.1</course>
<desc>Speed 3.1 km/h Distance 0.20 km</desc>
<time>2010-10-23T16:38:21.24</time>
<name>134</name>
</trkpt>
<trkpt lat="48.953663" lon="8.646092">
<ele>272.5</ele>
<speed>0.89</speed>
<course>23.0</course>
<desc>Speed 3.2 km/h Distance 0.20 km</desc>
<time>2010-10-23T16:38:22.24</time>
<name>135</name>
</trkpt>
<trkpt lat="48.953673" lon="8.646098">
<ele>272.5</ele>
<speed>1.08</speed>
<course>25.2</course>
<desc>Speed 3.9 km/h Distance 0.20 km</desc>
<time>2010-10-23T16:38:23.24</time>
<name>136</name>
</trkpt>
<trkpt lat="48.953685" lon="8.646107">
<ele>272.5</ele>
<speed>1.29</speed>
<course>39.4</course>
<desc>Speed 4.6 km/h Distance 0.20 km</desc>
<time>2010-10-23T16:38:24.23</time>
<name>137</name>
</trkpt>
<trkpt lat="48.953692" lon="8.646115">
<ele>271.5</ele>
<speed>0.88</speed>
<course>28.3</course>
<desc>Speed 3.2 km/h Distance 0.20 km</desc>
<time>2010-10-23T16:38:25.23</time>
<name>138</name>
</trkpt>
<trkpt lat="48.953700" lon="8.646122">
<ele>270.5</ele>
<speed>1.02</speed>
<course>38.1</course>
<desc>Speed 3.7 km/h Distance 0.20 km</desc>
<time>2010-10-23T16:38:26.22</time>
<name>139</name>
</trkpt>
<trkpt lat="48.953708" lon="8.646132">
<ele>270.5</ele>
<speed>1.05</speed>
<course>38.1</course>
<desc>Speed 3.8 km/h Distance 0.20 km</desc>
<time>2010-10-23T16:38:27.23</time>
<name>140</name>
</trkpt>
<trkpt lat="48.953717" lon="8.646142">
<ele>270.5</ele>
<speed>1.11</speed>
<course>28.6</course>
<desc>Speed 4.0 km/h Distance 0.21 km</desc>
<time>2010-10-23T16:38:28.21</time>
<name>141</name>
</trkpt>
<trkpt lat="48.953727" lon="8.646150">
<ele>270.5</ele>
<speed>1.04</speed>
<course>38.1</course>
<desc>Speed 3.7 km/h Distance 0.21 km</desc>
<time>2010-10-23T16:38:29.21</time>
<name>142</name>
</trkpt>
<trkpt lat="48.953735" lon="8.646160">
<ele>270.0</ele>
<speed>0.99</speed>
<course>56.7</course>
<desc>Speed 3.6 km/h Distance 0.21 km</desc>
<time>2010-10-23T16:38:30.21</time>
<name>143</name>
</trkpt>
<trkpt lat="48.953740" lon="8.646172">
<ele>270.5</ele>
<speed>0.69</speed>
<course>39.4</course>
<desc>Speed 2.5 km/h Distance 0.21 km</desc>
<time>2010-10-23T16:38:31.21</time>
<name>144</name>
</trkpt>
<trkpt lat="48.953747" lon="8.646180">
<ele>270.5</ele>
<speed>0.73</speed>
<course>20.6</course>
<desc>Speed 2.6 km/h Distance 0.21 km</desc>
<time>2010-10-23T16:38:32.19</time>
<name>145</name>
</trkpt>
<trkpt lat="48.953758" lon="8.646187">
<ele>271.0</ele>
<speed>0.99</speed>
<course>15.5</course>
<desc>Speed 3.6 km/h Distance 0.21 km</desc>
<time>2010-10-23T16:38:33.19</time>
<name>146</name>
</trkpt>
<trkpt lat="48.953770" lon="8.646192">
<ele>270.5</ele>
<speed>1.15</speed>
<course>2.7</course>
<desc>Speed 4.1 km/h Distance 0.21 km</desc>
<time>2010-10-23T16:38:34.20</time>
<name>147</name>
</trkpt>
<trkpt lat="48.953790" lon="8.646193">
<ele>270.5</ele>
<speed>1.52</speed>
<course>357.3</course>
<desc>Speed 5.5 km/h Distance 0.21 km</desc>
<time>2010-10-23T16:38:35.18</time>
<name>148</name>
</trkpt>
<trkpt lat="48.953810" lon="8.646192">
<ele>270.5</ele>
<speed>1.27</speed>
<course>8.8</course>
<desc>Speed 4.6 km/h Distance 0.22 km</desc>
<time>2010-10-23T16:38:36.17</time>
<name>149</name>
</trkpt>
<trkpt lat="48.953825" lon="8.646195">
<ele>270.5</ele>
<speed>1.29</speed>
<course>2.5</course>
<desc>Speed 4.6 km/h Distance 0.22 km</desc>
<time>2010-10-23T16:38:37.17</time>
<name>150</name>
</trkpt>
<trkpt lat="48.953843" lon="8.646197">
<ele>270.0</ele>
<speed>1.53</speed>
<course>6.5</course>
<desc>Speed 5.5 km/h Distance 0.22 km</desc>
<time>2010-10-23T16:38:38.16</time>
<name>151</name>
</trkpt>
<trkpt lat="48.953860" lon="8.646200">
<ele>270.0</ele>
<speed>1.29</speed>
<course>5.6</course>
<desc>Speed 4.6 km/h Distance 0.22 km</desc>
<time>2010-10-23T16:38:39.15</time>
<name>152</name>
</trkpt>
<trkpt lat="48.953880" lon="8.646203">
<ele>269.5</ele>
<speed>1.41</speed>
<course>13.5</course>
<desc>Speed 5.1 km/h Distance 0.22 km</desc>
<time>2010-10-23T16:38:40.15</time>
<name>153</name>
</trkpt>
<trkpt lat="48.953893" lon="8.646208">
<ele>269.0</ele>
<speed>1.29</speed>
<course>357.2</course>
<desc>Speed 4.6 km/h Distance 0.23 km</desc>
<time>2010-10-23T16:38:41.14</time>
<name>154</name>
</trkpt>
<trkpt lat="48.953910" lon="8.646207">
<ele>269.5</ele>
<speed>1.30</speed>
<course>2.5</course>
<desc>Speed 4.7 km/h Distance 0.23 km</desc>
<time>2010-10-23T16:38:42.13</time>
<name>155</name>
</trkpt>
<trkpt lat="48.953928" lon="8.646208">
<ele>269.0</ele>
<speed>1.38</speed>
<course>292.5</course>
<desc>Speed 5.0 km/h Distance 0.23 km</desc>
<time>2010-10-23T16:38:43.13</time>
<name>156</name>
</trkpt>
<trkpt lat="48.953933" lon="8.646190">
<ele>270.0</ele>
<speed>1.41</speed>
<course>351.6</course>
<desc>Speed 5.1 km/h Distance 0.23 km</desc>
<time>2010-10-23T16:38:44.12</time>
<name>157</name>
</trkpt>
<trkpt lat="48.953955" lon="8.646185">
<ele>270.5</ele>
<speed>1.52</speed>
<course>353.9</course>
<desc>Speed 5.5 km/h Distance 0.23 km</desc>
<time>2010-10-23T16:38:45.12</time>
<name>158</name>
</trkpt>
<trkpt lat="48.953975" lon="8.646182">
<ele>271.0</ele>
<speed>1.25</speed>
<course>355.3</course>
<desc>Speed 4.5 km/h Distance 0.24 km</desc>
<time>2010-10-23T16:38:46.11</time>
<name>159</name>
</trkpt>
<trkpt lat="48.953987" lon="8.646180">
<ele>271.0</ele>
<speed>1.36</speed>
<course>352.9</course>
<desc>Speed 4.9 km/h Distance 0.24 km</desc>
<time>2010-10-23T16:38:47.10</time>
<name>160</name>
</trkpt>
<trkpt lat="48.954003" lon="8.646177">
<ele>270.0</ele>
<speed>1.37</speed>
<course>347.4</course>
<desc>Speed 4.9 km/h Distance 0.24 km</desc>
<time>2010-10-23T16:38:48.10</time>
<name>161</name>
</trkpt>
<trkpt lat="48.954008" lon="8.646175">
<ele>270.0</ele>
<speed>0.56</speed>
<course>2.5</course>
<desc>Speed 2.0 km/h Distance 0.24 km</desc>
<time>2010-10-23T16:38:49.10</time>
<name>162</name>
</trkpt>
<trkpt lat="48.954027" lon="8.646175">
<ele>269.0</ele>
<speed>1.10</speed>
<course>354.7</course>
<desc>Speed 4.0 km/h Distance 0.24 km</desc>
<time>2010-10-23T16:38:50.09</time>
<name>163</name>
</trkpt>
<trkpt lat="48.954040" lon="8.646173">
<ele>268.5</ele>
<speed>1.24</speed>
<course>338.5</course>
<desc>Speed 4.5 km/h Distance 0.24 km</desc>
<time>2010-10-23T16:38:51.08</time>
<name>164</name>
</trkpt>
<trkpt lat="48.954048" lon="8.646168">
<ele>269.0</ele>
<speed>0.82</speed>
<course>4.7</course>
<desc>Speed 3.0 km/h Distance 0.24 km</desc>
<time>2010-10-23T16:38:52.07</time>
<name>165</name>
</trkpt>
<trkpt lat="48.954060" lon="8.646170">
<ele>268.5</ele>
<speed>0.99</speed>
<course>334.8</course>
<desc>Speed 3.6 km/h Distance 0.25 km</desc>
<time>2010-10-23T16:38:53.06</time>
<name>166</name>
</trkpt>
<trkpt lat="48.954072" lon="8.646162">
<ele>269.5</ele>
<speed>0.60</speed>
<course>339.1</course>
<desc>Speed 2.2 km/h Distance 0.25 km</desc>
<time>2010-10-23T16:38:54.06</time>
<name>167</name>
</trkpt>
<trkpt lat="48.954092" lon="8.646150">
<ele>270.0</ele>
<speed>1.23</speed>
<course>351.6</course>
<desc>Speed 4.4 km/h Distance 0.25 km</desc>
<time>2010-10-23T16:38:55.06</time>
<name>168</name>
</trkpt>
<trkpt lat="48.954113" lon="8.646145">
<ele>270.0</ele>
<speed>1.33</speed>
<course>283.2</course>
<desc>Speed 4.8 km/h Distance 0.25 km</desc>
<time>2010-10-23T16:38:56.06</time>
<name>169</name>
</trkpt>
<trkpt lat="48.954117" lon="8.646123">
<ele>272.0</ele>
<speed>1.67</speed>
<course>339.9</course>
<desc>Speed 6.0 km/h Distance 0.25 km</desc>
<time>2010-10-23T16:38:57.06</time>
<name>170</name>
</trkpt>
<trkpt lat="48.954132" lon="8.646115">
<ele>273.0</ele>
<speed>1.10</speed>
<course>326.7</course>
<desc>Speed 4.0 km/h Distance 0.26 km</desc>
<time>2010-10-23T16:38:58.05</time>
<name>171</name>
</trkpt>
<trkpt lat="48.954148" lon="8.646098">
<ele>274.0</ele>
<speed>1.48</speed>
<course>329.4</course>
<desc>Speed 5.3 km/h Distance 0.26 km</desc>
<time>2010-10-23T16:38:59.04</time>
<name>172</name>
</trkpt>
<trkpt lat="48.954165" lon="8.646083">
<ele>274.5</ele>
<speed>1.05</speed>
<course>326.7</course>
<desc>Speed 3.8 km/h Distance 0.26 km</desc>
<time>2010-10-23T16:39:00.03</time>
<name>173</name>
</trkpt>
<trkpt lat="48.954185" lon="8.646063">
<ele>275.0</ele>
<speed>1.41</speed>
<course>347.4</course>
<desc>Speed 5.1 km/h Distance 0.26 km</desc>
<time>2010-10-23T16:39:01.03</time>
<name>174</name>
</trkpt>
<trkpt lat="48.954200" lon="8.646058">
<ele>274.0</ele>
<speed>1.50</speed>
<course>341.8</course>
<desc>Speed 5.4 km/h Distance 0.26 km</desc>
<time>2010-10-23T16:39:02.02</time>
<name>175</name>
</trkpt>
<trkpt lat="48.954210" lon="8.646053">
<ele>273.0</ele>
<speed>0.86</speed>
<course>339.9</course>
<desc>Speed 3.1 km/h Distance 0.27 km</desc>
<time>2010-10-23T16:39:03.02</time>
<name>176</name>
</trkpt>
<trkpt lat="48.954225" lon="8.646045">
<ele>272.5</ele>
<speed>1.41</speed>
<course>341.8</course>
<desc>Speed 5.1 km/h Distance 0.27 km</desc>
<time>2010-10-23T16:39:04.01</time>
<name>177</name>
</trkpt>
<trkpt lat="48.954235" lon="8.646040">
<ele>272.0</ele>
<speed>1.13</speed>
<course>341.9</course>
<desc>Speed 4.1 km/h Distance 0.27 km</desc>
<time>2010-10-23T16:39:05.00</time>
<name>178</name>
</trkpt>
<trkpt lat="48.954248" lon="8.646033">
<ele>271.5</ele>
<speed>1.37</speed>
<course>356.2</course>
<desc>Speed 4.9 km/h Distance 0.27 km</desc>
<time>2010-10-23T16:39:06.00</time>
<name>179</name>
</trkpt>
<trkpt lat="48.954263" lon="8.646032">
<ele>270.0</ele>
<speed>1.50</speed>
<course>330.2</course>
<desc>Speed 5.4 km/h Distance 0.27 km</desc>
<time>2010-10-23T16:39:06.99</time>
<name>180</name>
</trkpt>
<trkpt lat="48.954277" lon="8.646020">
<ele>269.5</ele>
<speed>1.26</speed>
<course>352.3</course>
<desc>Speed 4.5 km/h Distance 0.27 km</desc>
<time>2010-10-23T16:39:07.98</time>
<name>181</name>
</trkpt>
<trkpt lat="48.954293" lon="8.646017">
<ele>268.5</ele>
<speed>1.54</speed>
<course>310.3</course>
<desc>Speed 5.5 km/h Distance 0.28 km</desc>
<time>2010-10-23T16:39:08.98</time>
<name>182</name>
</trkpt>
<trkpt lat="48.954302" lon="8.646002">
<ele>268.5</ele>
<speed>1.26</speed>
<course>5.3</course>
<desc>Speed 4.5 km/h Distance 0.28 km</desc>
<time>2010-10-23T16:39:09.98</time>
<name>183</name>
</trkpt>
<trkpt lat="48.954315" lon="8.646003">
<ele>267.0</ele>
<speed>1.36</speed>
<course>326.8</course>
<desc>Speed 4.9 km/h Distance 0.28 km</desc>
<time>2010-10-23T16:39:10.97</time>
<name>184</name>
</trkpt>
<trkpt lat="48.954325" lon="8.645993">
<ele>267.5</ele>
<speed>1.02</speed>
<course>351.9</course>
<desc>Speed 3.7 km/h Distance 0.28 km</desc>
<time>2010-10-23T16:39:11.96</time>
<name>185</name>
</trkpt>
<trkpt lat="48.954340" lon="8.645990">
<ele>266.0</ele>
<speed>1.25</speed>
<course>356.1</course>
<desc>Speed 4.5 km/h Distance 0.28 km</desc>
<time>2010-10-23T16:39:12.96</time>
<name>186</name>
</trkpt>
<trkpt lat="48.954353" lon="8.645988">
<ele>265.5</ele>
<speed>1.05</speed>
<course>331.4</course>
<desc>Speed 3.8 km/h Distance 0.28 km</desc>
<time>2010-10-23T16:39:13.95</time>
<name>187</name>
</trkpt>
<trkpt lat="48.954363" lon="8.645980">
<ele>265.0</ele>
<speed>1.12</speed>
<course>338.5</course>
<desc>Speed 4.0 km/h Distance 0.28 km</desc>
<time>2010-10-23T16:39:14.95</time>
<name>188</name>
</trkpt>
<trkpt lat="48.954380" lon="8.645970">
<ele>265.5</ele>
<speed>1.00</speed>
<course>335.2</course>
<desc>Speed 3.6 km/h Distance 0.29 km</desc>
<time>2010-10-23T16:39:15.94</time>
<name>189</name>
</trkpt>
<trkpt lat="48.954387" lon="8.645965">
<ele>265.5</ele>
<speed>0.69</speed>
<course>326.8</course>
<desc>Speed 2.5 km/h Distance 0.29 km</desc>
<time>2010-10-23T16:39:16.94</time>
<name>190</name>
</trkpt>
<trkpt lat="48.954395" lon="8.645957">
<ele>266.0</ele>
<speed>1.00</speed>
<course>326.8</course>
<desc>Speed 3.6 km/h Distance 0.29 km</desc>
<time>2010-10-23T16:39:17.94</time>
<name>191</name>
</trkpt>
<trkpt lat="48.954400" lon="8.645952">
<ele>266.0</ele>
<speed>0.73</speed>
<course>336.2</course>
<desc>Speed 2.6 km/h Distance 0.29 km</desc>
<time>2010-10-23T16:39:18.93</time>
<name>192</name>
</trkpt>
<trkpt lat="48.954410" lon="8.645945">
<ele>265.5</ele>
<speed>1.01</speed>
<course>339.8</course>
<desc>Speed 3.6 km/h Distance 0.29 km</desc>
<time>2010-10-23T16:39:19.93</time>
<name>193</name>
</trkpt>
<trkpt lat="48.954422" lon="8.645938">
<ele>265.0</ele>
<speed>1.42</speed>
<course>352.9</course>
<desc>Speed 5.1 km/h Distance 0.29 km</desc>
<time>2010-10-23T16:39:20.93</time>
<name>194</name>
</trkpt>
<trkpt lat="48.954438" lon="8.645935">
<ele>263.5</ele>
<speed>1.54</speed>
<course>316.9</course>
<desc>Speed 5.5 km/h Distance 0.29 km</desc>
<time>2010-10-23T16:39:21.93</time>
<name>195</name>
</trkpt>
<trkpt lat="48.954450" lon="8.645918">
<ele>264.0</ele>
<speed>1.35</speed>
<course>304.1</course>
<desc>Speed 4.9 km/h Distance 0.30 km</desc>
<time>2010-10-23T16:39:22.92</time>
<name>196</name>
</trkpt>
<trkpt lat="48.954457" lon="8.645903">
<ele>264.5</ele>
<speed>1.21</speed>
<course>350.3</course>
<desc>Speed 4.4 km/h Distance 0.30 km</desc>
<time>2010-10-23T16:39:23.92</time>
<name>197</name>
</trkpt>
<trkpt lat="48.954470" lon="8.645900">
<ele>262.5</ele>
<speed>1.19</speed>
<course>326.6</course>
<desc>Speed 4.3 km/h Distance 0.30 km</desc>
<time>2010-10-23T16:39:24.91</time>
<name>198</name>
</trkpt>
<trkpt lat="48.954480" lon="8.645890">
<ele>262.5</ele>
<speed>0.95</speed>
<course>311.6</course>
<desc>Speed 3.4 km/h Distance 0.30 km</desc>
<time>2010-10-23T16:39:25.91</time>
<name>199</name>
</trkpt>
<trkpt lat="48.954492" lon="8.645870">
<ele>263.0</ele>
<speed>1.33</speed>
<course>334.5</course>
<desc>Speed 4.8 km/h Distance 0.30 km</desc>
<time>2010-10-23T16:39:26.91</time>
<name>200</name>
</trkpt>
<trkpt lat="48.954510" lon="8.645857">
<ele>262.5</ele>
<speed>1.33</speed>
<course>334.0</course>
<desc>Speed 4.8 km/h Distance 0.30 km</desc>
<time>2010-10-23T16:39:27.90</time>
<name>201</name>
</trkpt>
<trkpt lat="48.954523" lon="8.645847">
<ele>261.0</ele>
<speed>1.33</speed>
<course>329.7</course>
<desc>Speed 4.8 km/h Distance 0.31 km</desc>
<time>2010-10-23T16:39:28.89</time>
<name>202</name>
</trkpt>
<trkpt lat="48.954538" lon="8.645833">
<ele>261.0</ele>
<speed>1.32</speed>
<course>346.4</course>
<desc>Speed 4.8 km/h Distance 0.31 km</desc>
<time>2010-10-23T16:39:29.89</time>
<name>203</name>
</trkpt>
<trkpt lat="48.954557" lon="8.645827">
<ele>260.0</ele>
<speed>1.22</speed>
<course>343.3</course>
<desc>Speed 4.4 km/h Distance 0.31 km</desc>
<time>2010-10-23T16:39:30.89</time>
<name>204</name>
</trkpt>
<trkpt lat="48.954578" lon="8.645817">
<ele>259.0</ele>
<speed>1.37</speed>
<course>333.1</course>
<desc>Speed 4.9 km/h Distance 0.31 km</desc>
<time>2010-10-23T16:39:31.88</time>
<name>205</name>
</trkpt>
<trkpt lat="48.954593" lon="8.645805">
<ele>259.0</ele>
<speed>1.03</speed>
<course>340.2</course>
<desc>Speed 3.7 km/h Distance 0.31 km</desc>
<time>2010-10-23T16:39:32.87</time>
<name>206</name>
</trkpt>
<trkpt lat="48.954612" lon="8.645795">
<ele>258.0</ele>
<speed>1.12</speed>
<course>319.5</course>
<desc>Speed 4.0 km/h Distance 0.32 km</desc>
<time>2010-10-23T16:39:33.87</time>
<name>207</name>
</trkpt>
<trkpt lat="48.954628" lon="8.645773">
<ele>258.0</ele>
<speed>1.32</speed>
<course>5.3</course>
<desc>Speed 4.8 km/h Distance 0.32 km</desc>
<time>2010-10-23T16:39:34.87</time>
<name>208</name>
</trkpt>
<trkpt lat="48.954642" lon="8.645775">
<ele>256.5</ele>
<speed>0.94</speed>
<course>341.0</course>
<desc>Speed 3.4 km/h Distance 0.32 km</desc>
<time>2010-10-23T16:39:35.86</time>
<name>209</name>
</trkpt>
<trkpt lat="48.954677" lon="8.645757">
<ele>257.5</ele>
<speed>0.30</speed>
<course>310.3</course>
<desc>Speed 1.1 km/h Distance 0.32 km</desc>
<time>2010-10-23T16:39:52.86</time>
<name>210</name>
</trkpt>
<trkpt lat="48.954685" lon="8.645742">
<ele>257.0</ele>
<speed>0.50</speed>
<course>307.3</course>
<desc>Speed 1.8 km/h Distance 0.33 km</desc>
<time>2010-10-23T16:39:57.86</time>
<name>211</name>
</trkpt>
<trkpt lat="48.954695" lon="8.645722">
<ele>257.0</ele>
<speed>1.26</speed>
<course>314.1</course>
<desc>Speed 4.5 km/h Distance 0.33 km</desc>
<time>2010-10-23T16:39:58.85</time>
<name>212</name>
</trkpt>
<trkpt lat="48.954707" lon="8.645703">
<ele>256.5</ele>
<speed>1.12</speed>
<course>309.7</course>
<desc>Speed 4.0 km/h Distance 0.33 km</desc>
<time>2010-10-23T16:39:59.85</time>
<name>213</name>
</trkpt>
<trkpt lat="48.954717" lon="8.645685">
<ele>256.0</ele>
<speed>1.28</speed>
<course>318.7</course>
<desc>Speed 4.6 km/h Distance 0.33 km</desc>
<time>2010-10-23T16:40:00.85</time>
<name>214</name>
</trkpt>
<trkpt lat="48.954727" lon="8.645672">
<ele>256.0</ele>
<speed>1.24</speed>
<course>326.7</course>
<desc>Speed 4.5 km/h Distance 0.33 km</desc>
<time>2010-10-23T16:40:01.84</time>
<name>215</name>
</trkpt>
<trkpt lat="48.954740" lon="8.645658">
<ele>256.0</ele>
<speed>1.23</speed>
<course>346.4</course>
<desc>Speed 4.4 km/h Distance 0.33 km</desc>
<time>2010-10-23T16:40:02.84</time>
<name>216</name>
</trkpt>
<trkpt lat="48.954758" lon="8.645652">
<ele>254.5</ele>
<speed>1.22</speed>
<course>321.7</course>
<desc>Speed 4.4 km/h Distance 0.34 km</desc>
<time>2010-10-23T16:40:03.83</time>
<name>217</name>
</trkpt>
<trkpt lat="48.954775" lon="8.645632">
<ele>254.5</ele>
<speed>1.38</speed>
<course>324.4</course>
<desc>Speed 5.0 km/h Distance 0.34 km</desc>
<time>2010-10-23T16:40:04.83</time>
<name>218</name>
</trkpt>
<trkpt lat="48.954793" lon="8.645612">
<ele>255.0</ele>
<speed>1.51</speed>
<course>326.7</course>
<desc>Speed 5.4 km/h Distance 0.34 km</desc>
<time>2010-10-23T16:40:05.83</time>
<name>219</name>
</trkpt>
<trkpt lat="48.954807" lon="8.645598">
<ele>254.5</ele>
<speed>1.50</speed>
<course>346.7</course>
<desc>Speed 5.4 km/h Distance 0.34 km</desc>
<time>2010-10-23T16:40:06.83</time>
<name>220</name>
</trkpt>
<trkpt lat="48.954825" lon="8.645592">
<ele>253.5</ele>
<speed>1.57</speed>
<course>329.8</course>
<desc>Speed 5.7 km/h Distance 0.34 km</desc>
<time>2010-10-23T16:40:07.83</time>
<name>221</name>
</trkpt>
<trkpt lat="48.954840" lon="8.645578">
<ele>253.5</ele>
<speed>1.36</speed>
<course>339.9</course>
<desc>Speed 4.9 km/h Distance 0.35 km</desc>
<time>2010-10-23T16:40:08.83</time>
<name>222</name>
</trkpt>
<trkpt lat="48.954855" lon="8.645570">
<ele>254.0</ele>
<speed>1.23</speed>
<course>332.3</course>
<desc>Speed 4.4 km/h Distance 0.35 km</desc>
<time>2010-10-23T16:40:09.83</time>
<name>223</name>
</trkpt>
<trkpt lat="48.954872" lon="8.645557">
<ele>254.0</ele>
<speed>1.36</speed>
<course>318.8</course>
<desc>Speed 4.9 km/h Distance 0.35 km</desc>
<time>2010-10-23T16:40:10.82</time>
<name>224</name>
</trkpt>
<trkpt lat="48.954882" lon="8.645543">
<ele>254.5</ele>
<speed>1.25</speed>
<course>1.2</course>
<desc>Speed 4.5 km/h Distance 0.35 km</desc>
<time>2010-10-23T16:40:11.81</time>
<name>225</name>
</trkpt>
<trkpt lat="48.954895" lon="8.645543">
<ele>254.5</ele>
<speed>1.07</speed>
<course>347.4</course>
<desc>Speed 3.9 km/h Distance 0.35 km</desc>
<time>2010-10-23T16:40:12.80</time>
<name>226</name>
</trkpt>
<trkpt lat="48.954910" lon="8.645538">
<ele>254.5</ele>
<speed>1.33</speed>
<course>330.6</course>
<desc>Speed 4.8 km/h Distance 0.36 km</desc>
<time>2010-10-23T16:40:13.80</time>
<name>227</name>
</trkpt>
<trkpt lat="48.954922" lon="8.645528">
<ele>254.5</ele>
<speed>1.34</speed>
<course>344.5</course>
<desc>Speed 4.8 km/h Distance 0.36 km</desc>
<time>2010-10-23T16:40:14.80</time>
<name>228</name>
</trkpt>
<trkpt lat="48.954933" lon="8.645523">
<ele>254.5</ele>
<speed>1.12</speed>
<course>315.5</course>
<desc>Speed 4.0 km/h Distance 0.36 km</desc>
<time>2010-10-23T16:40:15.79</time>
<name>229</name>
</trkpt>
<trkpt lat="48.954940" lon="8.645513">
<ele>254.5</ele>
<speed>0.88</speed>
<course>315.5</course>
<desc>Speed 3.2 km/h Distance 0.36 km</desc>
<time>2010-10-23T16:40:16.79</time>
<name>230</name>
</trkpt>
<trkpt lat="48.954947" lon="8.645503">
<ele>255.0</ele>
<speed>0.99</speed>
<course>331.4</course>
<desc>Speed 3.6 km/h Distance 0.36 km</desc>
<time>2010-10-23T16:40:17.78</time>
<name>231</name>
</trkpt>
<trkpt lat="48.954957" lon="8.645495">
<ele>255.0</ele>
<speed>1.02</speed>
<course>331.1</course>
<desc>Speed 3.7 km/h Distance 0.36 km</desc>
<time>2010-10-23T16:40:18.78</time>
<name>232</name>
</trkpt>
<trkpt lat="48.954967" lon="8.645487">
<ele>255.5</ele>
<speed>1.01</speed>
<course>294.5</course>
<desc>Speed 3.6 km/h Distance 0.36 km</desc>
<time>2010-10-23T16:40:19.77</time>
<name>233</name>
</trkpt>
<trkpt lat="48.954972" lon="8.645470">
<ele>256.5</ele>
<speed>0.94</speed>
<course>318.8</course>
<desc>Speed 3.4 km/h Distance 0.36 km</desc>
<time>2010-10-23T16:40:20.77</time>
<name>234</name>
</trkpt>
<trkpt lat="48.954982" lon="8.645457">
<ele>256.5</ele>
<speed>1.30</speed>
<course>295.1</course>
<desc>Speed 4.7 km/h Distance 0.37 km</desc>
<time>2010-10-23T16:40:21.77</time>
<name>235</name>
</trkpt>
<trkpt lat="48.954988" lon="8.645435">
<ele>256.5</ele>
<speed>1.59</speed>
<course>266.9</course>
<desc>Speed 5.7 km/h Distance 0.37 km</desc>
<time>2010-10-23T16:40:22.77</time>
<name>236</name>
</trkpt>
<trkpt lat="48.954987" lon="8.645388">
<ele>259.5</ele>
<speed>1.41</speed>
<course>317.4</course>
<desc>Speed 5.1 km/h Distance 0.37 km</desc>
<time>2010-10-23T16:40:23.76</time>
<name>237</name>
</trkpt>
<trkpt lat="48.954995" lon="8.645377">
<ele>260.0</ele>
<speed>0.99</speed>
<course>262.8</course>
<desc>Speed 3.6 km/h Distance 0.37 km</desc>
<time>2010-10-23T16:40:24.75</time>
<name>238</name>
</trkpt>
<trkpt lat="48.954993" lon="8.645357">
<ele>260.0</ele>
<speed>1.50</speed>
<course>307.3</course>
<desc>Speed 5.4 km/h Distance 0.37 km</desc>
<time>2010-10-23T16:40:25.74</time>
<name>239</name>
</trkpt>
<trkpt lat="48.955000" lon="8.645343">
<ele>260.0</ele>
<speed>1.02</speed>
<course>294.5</course>
<desc>Speed 3.7 km/h Distance 0.37 km</desc>
<time>2010-10-23T16:40:26.74</time>
<name>240</name>
</trkpt>
<trkpt lat="48.955005" lon="8.645327">
<ele>260.0</ele>
<speed>1.03</speed>
<course>344.0</course>
<desc>Speed 3.7 km/h Distance 0.38 km</desc>
<time>2010-10-23T16:40:27.73</time>
<name>241</name>
</trkpt>
<trkpt lat="48.955017" lon="8.645322">
<ele>259.5</ele>
<speed>1.04</speed>
<course>330.0</course>
<desc>Speed 3.7 km/h Distance 0.38 km</desc>
<time>2010-10-23T16:40:28.73</time>
<name>242</name>
</trkpt>
<trkpt lat="48.955030" lon="8.645310">
<ele>259.0</ele>
<speed>0.91</speed>
<course>341.9</course>
<desc>Speed 3.3 km/h Distance 0.38 km</desc>
<time>2010-10-23T16:40:29.73</time>
<name>243</name>
</trkpt>
<trkpt lat="48.955047" lon="8.645302">
<ele>257.5</ele>
<speed>1.07</speed>
<course>304.1</course>
<desc>Speed 3.9 km/h Distance 0.38 km</desc>
<time>2010-10-23T16:40:30.74</time>
<name>244</name>
</trkpt>
<trkpt lat="48.955053" lon="8.645287">
<ele>257.5</ele>
<speed>1.15</speed>
<course>286.9</course>
<desc>Speed 4.1 km/h Distance 0.38 km</desc>
<time>2010-10-23T16:40:31.72</time>
<name>245</name>
</trkpt>
<trkpt lat="48.955057" lon="8.645270">
<ele>257.5</ele>
<speed>0.79</speed>
<course>333.8</course>
<desc>Speed 2.8 km/h Distance 0.38 km</desc>
<time>2010-10-23T16:40:32.72</time>
<name>246</name>
</trkpt>
<trkpt lat="48.955070" lon="8.645260">
<ele>257.5</ele>
<speed>1.12</speed>
<course>354.7</course>
<desc>Speed 4.0 km/h Distance 0.39 km</desc>
<time>2010-10-23T16:40:33.71</time>
<name>247</name>
</trkpt>
<trkpt lat="48.955083" lon="8.645258">
<ele>257.0</ele>
<speed>1.16</speed>
<course>348.8</course>
<desc>Speed 4.2 km/h Distance 0.39 km</desc>
<time>2010-10-23T16:40:34.70</time>
<name>248</name>
</trkpt>
<trkpt lat="48.955095" lon="8.645255">
<ele>256.5</ele>
<speed>1.17</speed>
<course>1.2</course>
<desc>Speed 4.2 km/h Distance 0.39 km</desc>
<time>2010-10-23T16:40:35.70</time>
<name>249</name>
</trkpt>
<trkpt lat="48.955108" lon="8.645255">
<ele>256.5</ele>
<speed>1.27</speed>
<course>356.2</course>
<desc>Speed 4.6 km/h Distance 0.39 km</desc>
<time>2010-10-23T16:40:36.69</time>
<name>250</name>
</trkpt>
<trkpt lat="48.955123" lon="8.645253">
<ele>257.0</ele>
<speed>1.37</speed>
<course>356.2</course>
<desc>Speed 4.9 km/h Distance 0.39 km</desc>
<time>2010-10-23T16:40:37.69</time>
<name>251</name>
</trkpt>
<trkpt lat="48.955138" lon="8.645252">
<ele>257.5</ele>
<speed>1.38</speed>
<course>4.1</course>
<desc>Speed 5.0 km/h Distance 0.39 km</desc>
<time>2010-10-23T16:40:38.68</time>
<name>252</name>
</trkpt>
<trkpt lat="48.955155" lon="8.645253">
<ele>257.5</ele>
<speed>1.50</speed>
<course>3.8</course>
<desc>Speed 5.4 km/h Distance 0.39 km</desc>
<time>2010-10-23T16:40:39.68</time>
<name>253</name>
</trkpt>
<trkpt lat="48.955170" lon="8.645255">
<ele>257.0</ele>
<speed>1.39</speed>
<course>4.7</course>
<desc>Speed 5.0 km/h Distance 0.40 km</desc>
<time>2010-10-23T16:40:40.67</time>
<name>254</name>
</trkpt>
<trkpt lat="48.955182" lon="8.645257">
<ele>257.5</ele>
<speed>1.00</speed>
<course>332.1</course>
<desc>Speed 3.6 km/h Distance 0.40 km</desc>
<time>2010-10-23T16:40:41.67</time>
<name>255</name>
</trkpt>
<trkpt lat="48.955190" lon="8.645250">
<ele>258.0</ele>
<speed>1.12</speed>
<course>345.1</course>
<desc>Speed 4.0 km/h Distance 0.40 km</desc>
<time>2010-10-23T16:40:42.66</time>
<name>256</name>
</trkpt>
<trkpt lat="48.955198" lon="8.645247">
<ele>259.5</ele>
<speed>1.22</speed>
<course>341.8</course>
<desc>Speed 4.4 km/h Distance 0.40 km</desc>
<time>2010-10-23T16:40:43.66</time>
<name>257</name>
</trkpt>
<trkpt lat="48.955208" lon="8.645242">
<ele>260.0</ele>
<speed>1.11</speed>
<course>334.4</course>
<desc>Speed 4.0 km/h Distance 0.40 km</desc>
<time>2010-10-23T16:40:44.66</time>
<name>258</name>
</trkpt>
<trkpt lat="48.955215" lon="8.645237">
<ele>260.5</ele>
<speed>1.08</speed>
<course>355.3</course>
<desc>Speed 3.9 km/h Distance 0.40 km</desc>
<time>2010-10-23T16:40:45.66</time>
<name>259</name>
</trkpt>
<trkpt lat="48.955227" lon="8.645235">
<ele>260.5</ele>
<speed>1.10</speed>
<course>355.3</course>
<desc>Speed 4.0 km/h Distance 0.40 km</desc>
<time>2010-10-23T16:40:46.65</time>
<name>260</name>
</trkpt>
<trkpt lat="48.955238" lon="8.645233">
<ele>260.5</ele>
<speed>1.21</speed>
<course>352.5</course>
<desc>Speed 4.4 km/h Distance 0.40 km</desc>
<time>2010-10-23T16:40:47.65</time>
<name>261</name>
</trkpt>
<trkpt lat="48.955253" lon="8.645230">
<ele>261.5</ele>
<speed>1.11</speed>
<course>12.6</course>
<desc>Speed 4.0 km/h Distance 0.41 km</desc>
<time>2010-10-23T16:40:48.65</time>
<name>262</name>
</trkpt>
<trkpt lat="48.955263" lon="8.645233">
<ele>261.5</ele>
<speed>0.91</speed>
<course>17.5</course>
<desc>Speed 3.3 km/h Distance 0.41 km</desc>
<time>2010-10-23T16:40:49.65</time>
<name>263</name>
</trkpt>
<trkpt lat="48.955270" lon="8.645237">
<ele>261.0</ele>
<speed>0.92</speed>
<course>7.4</course>
<desc>Speed 3.3 km/h Distance 0.41 km</desc>
<time>2010-10-23T16:40:50.64</time>
<name>264</name>
</trkpt>
<trkpt lat="48.955277" lon="8.645238">
<ele>261.0</ele>
<speed>0.76</speed>
<course>18.8</course>
<desc>Speed 2.7 km/h Distance 0.41 km</desc>
<time>2010-10-23T16:40:51.64</time>
<name>265</name>
</trkpt>
<trkpt lat="48.955283" lon="8.645242">
<ele>261.0</ele>
<speed>0.81</speed>
<course>4.7</course>
<desc>Speed 2.9 km/h Distance 0.41 km</desc>
<time>2010-10-23T16:40:52.63</time>
<name>266</name>
</trkpt>
<trkpt lat="48.955295" lon="8.645243">
<ele>261.0</ele>
<speed>1.03</speed>
<course>18.8</course>
<desc>Speed 3.7 km/h Distance 0.41 km</desc>
<time>2010-10-23T16:40:53.63</time>
<name>267</name>
</trkpt>
<trkpt lat="48.955302" lon="8.645247">
<ele>260.5</ele>
<speed>0.69</speed>
<course>33.7</course>
<desc>Speed 2.5 km/h Distance 0.41 km</desc>
<time>2010-10-23T16:40:54.63</time>
<name>268</name>
</trkpt>
<trkpt lat="48.955305" lon="8.645250">
<ele>260.5</ele>
<speed>0.58</speed>
<course>41.4</course>
<desc>Speed 2.1 km/h Distance 0.41 km</desc>
<time>2010-10-23T16:40:55.63</time>
<name>269</name>
</trkpt>
<trkpt lat="48.955310" lon="8.645257">
<ele>260.0</ele>
<speed>0.66</speed>
<course>33.2</course>
<desc>Speed 2.4 km/h Distance 0.41 km</desc>
<time>2010-10-23T16:40:56.63</time>
<name>270</name>
</trkpt>
<trkpt lat="48.955318" lon="8.645265">
<ele>259.5</ele>
<speed>1.13</speed>
<course>25.2</course>
<desc>Speed 4.1 km/h Distance 0.41 km</desc>
<time>2010-10-23T16:40:57.63</time>
<name>271</name>
</trkpt>
<trkpt lat="48.955330" lon="8.645273">
<ele>260.0</ele>
<speed>1.47</speed>
<course>18.2</course>
<desc>Speed 5.3 km/h Distance 0.42 km</desc>
<time>2010-10-23T16:40:58.63</time>
<name>272</name>
</trkpt>
<trkpt lat="48.955340" lon="8.645278">
<ele>259.5</ele>
<speed>1.15</speed>
<course>28.6</course>
<desc>Speed 4.1 km/h Distance 0.42 km</desc>
<time>2010-10-23T16:40:59.63</time>
<name>273</name>
</trkpt>
<trkpt lat="48.955350" lon="8.645287">
<ele>259.5</ele>
<speed>1.13</speed>
<course>33.7</course>
<desc>Speed 4.1 km/h Distance 0.42 km</desc>
<time>2010-10-23T16:41:00.62</time>
<name>274</name>
</trkpt>
<trkpt lat="48.955357" lon="8.645293">
<ele>259.5</ele>
<speed>0.83</speed>
<course>33.2</course>
<desc>Speed 3.0 km/h Distance 0.42 km</desc>
<time>2010-10-23T16:41:01.61</time>
<name>275</name>
</trkpt>
<trkpt lat="48.955365" lon="8.645302">
<ele>259.5</ele>
<speed>1.12</speed>
<course>41.2</course>
<desc>Speed 4.0 km/h Distance 0.42 km</desc>
<time>2010-10-23T16:41:02.61</time>
<name>276</name>
</trkpt>
<trkpt lat="48.955375" lon="8.645315">
<ele>259.5</ele>
<speed>1.37</speed>
<course>56.7</course>
<desc>Speed 4.9 km/h Distance 0.42 km</desc>
<time>2010-10-23T16:41:03.61</time>
<name>277</name>
</trkpt>
<trkpt lat="48.955380" lon="8.645327">
<ele>259.5</ele>
<speed>1.05</speed>
<course>37.3</course>
<desc>Speed 3.8 km/h Distance 0.42 km</desc>
<time>2010-10-23T16:41:04.61</time>
<name>278</name>
</trkpt>
<trkpt lat="48.955390" lon="8.645338">
<ele>259.5</ele>
<speed>1.28</speed>
<course>29.2</course>
<desc>Speed 4.6 km/h Distance 0.42 km</desc>
<time>2010-10-23T16:41:05.61</time>
<name>279</name>
</trkpt>
<trkpt lat="48.955402" lon="8.645348">
<ele>259.5</ele>
<speed>1.21</speed>
<course>69.1</course>
<desc>Speed 4.4 km/h Distance 0.43 km</desc>
<time>2010-10-23T16:41:06.61</time>
<name>280</name>
</trkpt>
<trkpt lat="48.955405" lon="8.645362">
<ele>259.0</ele>
<speed>0.87</speed>
<course>77.7</course>
<desc>Speed 3.1 km/h Distance 0.43 km</desc>
<time>2010-10-23T16:41:07.61</time>
<name>281</name>
</trkpt>
<trkpt lat="48.955407" lon="8.645373">
<ele>259.0</ele>
<speed>0.70</speed>
<course>33.2</course>
<desc>Speed 2.5 km/h Distance 0.43 km</desc>
<time>2010-10-23T16:41:08.61</time>
<name>282</name>
</trkpt>
<trkpt lat="48.955417" lon="8.645383">
<ele>258.5</ele>
<speed>1.08</speed>
<course>38.1</course>
<desc>Speed 3.9 km/h Distance 0.43 km</desc>
<time>2010-10-23T16:41:09.60</time>
<name>283</name>
</trkpt>
<trkpt lat="48.955425" lon="8.645393">
<ele>258.5</ele>
<speed>1.01</speed>
<course>52.7</course>
<desc>Speed 3.6 km/h Distance 0.43 km</desc>
<time>2010-10-23T16:41:10.60</time>
<name>284</name>
</trkpt>
<trkpt lat="48.955432" lon="8.645407">
<ele>258.5</ele>
<speed>0.97</speed>
<course>75.6</course>
<desc>Speed 3.5 km/h Distance 0.43 km</desc>
<time>2010-10-23T16:41:11.59</time>
<name>285</name>
</trkpt>
<trkpt lat="48.955433" lon="8.645417">
<ele>257.5</ele>
<speed>0.72</speed>
<course>20.1</course>
<desc>Speed 2.6 km/h Distance 0.43 km</desc>
<time>2010-10-23T16:41:12.59</time>
<name>286</name>
</trkpt>
<trkpt lat="48.955448" lon="8.645425">
<ele>258.0</ele>
<speed>1.33</speed>
<course>29.8</course>
<desc>Speed 4.8 km/h Distance 0.43 km</desc>
<time>2010-10-23T16:41:13.59</time>
<name>287</name>
</trkpt>
<trkpt lat="48.955462" lon="8.645437">
<ele>258.0</ele>
<speed>1.22</speed>
<course>25.5</course>
<desc>Speed 4.4 km/h Distance 0.43 km</desc>
<time>2010-10-23T16:41:14.59</time>
<name>288</name>
</trkpt>
<trkpt lat="48.955480" lon="8.645450">
<ele>258.0</ele>
<speed>1.96</speed>
<course>22.7</course>
<desc>Speed 7.1 km/h Distance 0.44 km</desc>
<time>2010-10-23T16:41:15.59</time>
<name>289</name>
</trkpt>
<trkpt lat="48.955498" lon="8.645462">
<ele>257.5</ele>
<speed>1.32</speed>
<course>18.1</course>
<desc>Speed 4.8 km/h Distance 0.44 km</desc>
<time>2010-10-23T16:41:16.59</time>
<name>290</name>
</trkpt>
<trkpt lat="48.955515" lon="8.645470">
<ele>257.5</ele>
<speed>1.61</speed>
<course>167.4</course>
<desc>Speed 5.8 km/h Distance 0.44 km</desc>
<time>2010-10-23T16:41:17.58</time>
<name>291</name>
</trkpt>
<trkpt lat="48.955513" lon="8.645470">
<ele>257.5</ele>
<speed>0.61</speed>
<course>167.4</course>
<desc>Speed 2.2 km/h Distance 0.44 km</desc>
<time>2010-10-23T16:41:18.58</time>
<name>292</name>
</trkpt>
<trkpt lat="48.955513" lon="8.645470">
<ele>257.0</ele>
<speed>0.37</speed>
<course>21.5</course>
<desc>Speed 1.3 km/h Distance 0.44 km</desc>
<time>2010-10-23T16:41:19.58</time>
<name>293</name>
</trkpt>
<trkpt lat="48.955522" lon="8.645475">
<ele>257.0</ele>
<speed>0.55</speed>
<course>25.2</course>
<desc>Speed 2.0 km/h Distance 0.44 km</desc>
<time>2010-10-23T16:41:20.58</time>
<name>294</name>
</trkpt>
<trkpt lat="48.955533" lon="8.645483">
<ele>257.0</ele>
<speed>1.19</speed>
<course>26.4</course>
<desc>Speed 4.3 km/h Distance 0.44 km</desc>
<time>2010-10-23T16:41:21.58</time>
<name>295</name>
</trkpt>
<trkpt lat="48.955547" lon="8.645493">
<ele>257.0</ele>
<speed>1.26</speed>
<course>14.9</course>
<desc>Speed 4.5 km/h Distance 0.45 km</desc>
<time>2010-10-23T16:41:22.58</time>
<name>296</name>
</trkpt>
<trkpt lat="48.955563" lon="8.645500">
<ele>256.5</ele>
<speed>1.26</speed>
<course>23.7</course>
<desc>Speed 4.5 km/h Distance 0.45 km</desc>
<time>2010-10-23T16:41:23.58</time>
<name>297</name>
</trkpt>
<trkpt lat="48.955578" lon="8.645510">
<ele>257.0</ele>
<speed>1.25</speed>
<course>21.5</course>
<desc>Speed 4.5 km/h Distance 0.45 km</desc>
<time>2010-10-23T16:41:24.58</time>
<name>298</name>
</trkpt>
<trkpt lat="48.955595" lon="8.645520">
<ele>257.0</ele>
<speed>1.24</speed>
<course>21.6</course>
<desc>Speed 4.5 km/h Distance 0.45 km</desc>
<time>2010-10-23T16:41:25.58</time>
<name>299</name>
</trkpt>
<trkpt lat="48.955612" lon="8.645530">
<ele>257.0</ele>
<speed>1.20</speed>
<course>7.7</course>
<desc>Speed 4.3 km/h Distance 0.45 km</desc>
<time>2010-10-23T16:41:26.58</time>
<name>300</name>
</trkpt>
<trkpt lat="48.955628" lon="8.645533">
<ele>257.5</ele>
<speed>0.87</speed>
<course>11.6</course>
<desc>Speed 3.1 km/h Distance 0.46 km</desc>
<time>2010-10-23T16:41:27.58</time>
<name>301</name>
</trkpt>
<trkpt lat="48.955650" lon="8.645540">
<ele>257.5</ele>
<speed>1.25</speed>
<course>13.6</course>
<desc>Speed 4.5 km/h Distance 0.46 km</desc>
<time>2010-10-23T16:41:28.58</time>
<name>302</name>
</trkpt>
<trkpt lat="48.955668" lon="8.645547">
<ele>258.0</ele>
<speed>1.29</speed>
<course>13.1</course>
<desc>Speed 4.6 km/h Distance 0.46 km</desc>
<time>2010-10-23T16:41:29.58</time>
<name>303</name>
</trkpt>
<trkpt lat="48.955687" lon="8.645553">
<ele>258.0</ele>
<speed>1.45</speed>
<course>20.1</course>
<desc>Speed 5.2 km/h Distance 0.46 km</desc>
<time>2010-10-23T16:41:30.58</time>
<name>304</name>
</trkpt>
<trkpt lat="48.955702" lon="8.645562">
<ele>258.0</ele>
<speed>1.30</speed>
<course>23.7</course>
<desc>Speed 4.7 km/h Distance 0.46 km</desc>
<time>2010-10-23T16:41:31.57</time>
<name>305</name>
</trkpt>
<trkpt lat="48.955717" lon="8.645572">
<ele>258.0</ele>
<speed>1.44</speed>
<course>14.9</course>
<desc>Speed 5.2 km/h Distance 0.47 km</desc>
<time>2010-10-23T16:41:32.57</time>
<name>306</name>
</trkpt>
<trkpt lat="48.955733" lon="8.645578">
<ele>258.0</ele>
<speed>1.37</speed>
<course>17.9</course>
<desc>Speed 4.9 km/h Distance 0.47 km</desc>
<time>2010-10-23T16:41:33.57</time>
<name>307</name>
</trkpt>
<trkpt lat="48.955750" lon="8.645587">
<ele>257.5</ele>
<speed>1.40</speed>
<course>15.3</course>
<desc>Speed 5.0 km/h Distance 0.47 km</desc>
<time>2010-10-23T16:41:34.57</time>
<name>308</name>
</trkpt>
<trkpt lat="48.955770" lon="8.645595">
<ele>257.5</ele>
<speed>1.59</speed>
<course>16.6</course>
<desc>Speed 5.7 km/h Distance 0.47 km</desc>
<time>2010-10-23T16:41:35.57</time>
<name>309</name>
</trkpt>
<trkpt lat="48.955788" lon="8.645603">
<ele>256.5</ele>
<speed>1.42</speed>
<course>3.7</course>
<desc>Speed 5.1 km/h Distance 0.47 km</desc>
<time>2010-10-23T16:41:36.57</time>
<name>310</name>
</trkpt>
<trkpt lat="48.955807" lon="8.645605">
<ele>256.0</ele>
<speed>1.46</speed>
<course>2.5</course>
<desc>Speed 5.3 km/h Distance 0.48 km</desc>
<time>2010-10-23T16:41:37.57</time>
<name>311</name>
</trkpt>
<trkpt lat="48.955825" lon="8.645605">
<ele>255.5</ele>
<speed>1.41</speed>
<course>339.9</course>
<desc>Speed 5.1 km/h Distance 0.48 km</desc>
<time>2010-10-23T16:41:38.57</time>
<name>312</name>
</trkpt>
<trkpt lat="48.955840" lon="8.645597">
<ele>255.0</ele>
<speed>1.45</speed>
<course>334.8</course>
<desc>Speed 5.2 km/h Distance 0.48 km</desc>
<time>2010-10-23T16:41:39.57</time>
<name>313</name>
</trkpt>
<trkpt lat="48.955852" lon="8.645588">
<ele>254.5</ele>
<speed>0.86</speed>
<course>270.0</course>
<desc>Speed 3.1 km/h Distance 0.48 km</desc>
<time>2010-10-23T16:41:40.57</time>
<name>314</name>
</trkpt>
<trkpt lat="48.955852" lon="8.645583">
<ele>254.5</ele>
<speed>0.36</speed>
<course>326.7</course>
<desc>Speed 1.3 km/h Distance 0.48 km</desc>
<time>2010-10-23T16:41:41.57</time>
<name>315</name>
</trkpt>
<trkpt lat="48.955878" lon="8.645557">
<ele>254.0</ele>
<speed>1.34</speed>
<course>319.8</course>
<desc>Speed 4.8 km/h Distance 0.49 km</desc>
<time>2010-10-23T16:41:49.57</time>
<name>316</name>
</trkpt>
<trkpt lat="48.955890" lon="8.645542">
<ele>254.0</ele>
<speed>1.45</speed>
<course>323.5</course>
<desc>Speed 5.2 km/h Distance 0.49 km</desc>
<time>2010-10-23T16:41:50.57</time>
<name>317</name>
</trkpt>
<trkpt lat="48.955903" lon="8.645527">
<ele>253.5</ele>
<speed>1.55</speed>
<course>323.2</course>
<desc>Speed 5.6 km/h Distance 0.49 km</desc>
<time>2010-10-23T16:41:51.57</time>
<name>318</name>
</trkpt>
<trkpt lat="48.955915" lon="8.645513">
<ele>253.5</ele>
<speed>1.44</speed>
<course>315.5</course>
<desc>Speed 5.2 km/h Distance 0.49 km</desc>
<time>2010-10-23T16:41:52.57</time>
<name>319</name>
</trkpt>
<trkpt lat="48.955925" lon="8.645498">
<ele>253.0</ele>
<speed>1.45</speed>
<course>316.9</course>
<desc>Speed 5.2 km/h Distance 0.49 km</desc>
<time>2010-10-23T16:41:53.57</time>
<name>320</name>
</trkpt>
<trkpt lat="48.955937" lon="8.645482">
<ele>253.0</ele>
<speed>1.45</speed>
<course>307.3</course>
<desc>Speed 5.2 km/h Distance 0.49 km</desc>
<time>2010-10-23T16:41:54.57</time>
<name>321</name>
</trkpt>
<trkpt lat="48.955947" lon="8.645462">
<ele>253.0</ele>
<speed>1.48</speed>
<course>309.6</course>
<desc>Speed 5.3 km/h Distance 0.50 km</desc>
<time>2010-10-23T16:41:55.57</time>
<name>322</name>
</trkpt>
<trkpt lat="48.955957" lon="8.645443">
<ele>252.5</ele>
<speed>1.35</speed>
<course>311.6</course>
<desc>Speed 4.9 km/h Distance 0.50 km</desc>
<time>2010-10-23T16:41:56.57</time>
<name>323</name>
</trkpt>
<trkpt lat="48.955968" lon="8.645423">
<ele>252.5</ele>
<speed>1.48</speed>
<course>309.7</course>
<desc>Speed 5.3 km/h Distance 0.50 km</desc>
<time>2010-10-23T16:41:57.57</time>
<name>324</name>
</trkpt>
<trkpt lat="48.955978" lon="8.645405">
<ele>252.0</ele>
<speed>1.49</speed>
<course>300.4</course>
<desc>Speed 5.4 km/h Distance 0.50 km</desc>
<time>2010-10-23T16:41:58.57</time>
<name>325</name>
</trkpt>
<trkpt lat="48.955987" lon="8.645383">
<ele>252.0</ele>
<speed>1.50</speed>
<course>302.4</course>
<desc>Speed 5.4 km/h Distance 0.50 km</desc>
<time>2010-10-23T16:41:59.57</time>
<name>326</name>
</trkpt>
<trkpt lat="48.955995" lon="8.645363">
<ele>252.0</ele>
<speed>1.51</speed>
<course>299.0</course>
<desc>Speed 5.4 km/h Distance 0.50 km</desc>
<time>2010-10-23T16:42:00.57</time>
<name>327</name>
</trkpt>
<trkpt lat="48.956002" lon="8.645345">
<ele>252.0</ele>
<speed>1.52</speed>
<course>292.6</course>
<desc>Speed 5.5 km/h Distance 0.51 km</desc>
<time>2010-10-23T16:42:01.57</time>
<name>328</name>
</trkpt>
<trkpt lat="48.956007" lon="8.645327">
<ele>251.5</ele>
<speed>1.50</speed>
<course>299.0</course>
<desc>Speed 5.4 km/h Distance 0.51 km</desc>
<time>2010-10-23T16:42:02.57</time>
<name>329</name>
</trkpt>
<trkpt lat="48.956013" lon="8.645308">
<ele>251.0</ele>
<speed>1.40</speed>
<course>290.9</course>
<desc>Speed 5.0 km/h Distance 0.51 km</desc>
<time>2010-10-23T16:42:03.57</time>
<name>330</name>
</trkpt>
<trkpt lat="48.956018" lon="8.645288">
<ele>251.0</ele>
<speed>1.59</speed>
<course>299.0</course>
<desc>Speed 5.7 km/h Distance 0.51 km</desc>
<time>2010-10-23T16:42:04.57</time>
<name>331</name>
</trkpt>
<trkpt lat="48.956025" lon="8.645270">
<ele>251.0</ele>
<speed>1.50</speed>
<course>290.9</course>
<desc>Speed 5.4 km/h Distance 0.51 km</desc>
<time>2010-10-23T16:42:05.57</time>
<name>332</name>
</trkpt>
<trkpt lat="48.956030" lon="8.645250">
<ele>250.5</ele>
<speed>1.47</speed>
<course>296.9</course>
<desc>Speed 5.3 km/h Distance 0.51 km</desc>
<time>2010-10-23T16:42:06.57</time>
<name>333</name>
</trkpt>
<trkpt lat="48.956037" lon="8.645230">
<ele>250.0</ele>
<speed>1.52</speed>
<course>292.5</course>
<desc>Speed 5.5 km/h Distance 0.52 km</desc>
<time>2010-10-23T16:42:07.57</time>
<name>334</name>
</trkpt>
<trkpt lat="48.956042" lon="8.645212">
<ele>250.0</ele>
<speed>1.57</speed>
<course>299.0</course>
<desc>Speed 5.7 km/h Distance 0.52 km</desc>
<time>2010-10-23T16:42:08.57</time>
<name>335</name>
</trkpt>
<trkpt lat="48.956048" lon="8.645193">
<ele>249.5</ele>
<speed>1.53</speed>
<course>299.0</course>
<desc>Speed 5.5 km/h Distance 0.52 km</desc>
<time>2010-10-23T16:42:09.57</time>
<name>336</name>
</trkpt>
<trkpt lat="48.956055" lon="8.645175">
<ele>249.0</ele>
<speed>1.51</speed>
<course>301.3</course>
<desc>Speed 5.4 km/h Distance 0.52 km</desc>
<time>2010-10-23T16:42:10.57</time>
<name>337</name>
</trkpt>
<trkpt lat="48.956062" lon="8.645158">
<ele>248.5</ele>
<speed>1.50</speed>
<course>299.0</course>
<desc>Speed 5.4 km/h Distance 0.52 km</desc>
<time>2010-10-23T16:42:11.57</time>
<name>338</name>
</trkpt>
<trkpt lat="48.956068" lon="8.645140">
<ele>248.0</ele>
<speed>1.60</speed>
<course>292.6</course>
<desc>Speed 5.8 km/h Distance 0.52 km</desc>
<time>2010-10-23T16:42:12.57</time>
<name>339</name>
</trkpt>
<trkpt lat="48.956073" lon="8.645122">
<ele>248.0</ele>
<speed>1.60</speed>
<course>290.9</course>
<desc>Speed 5.8 km/h Distance 0.52 km</desc>
<time>2010-10-23T16:42:13.57</time>
<name>340</name>
</trkpt>
<trkpt lat="48.956078" lon="8.645102">
<ele>248.0</ele>
<speed>1.59</speed>
<course>292.5</course>
<desc>Speed 5.7 km/h Distance 0.53 km</desc>
<time>2010-10-23T16:42:14.57</time>
<name>341</name>
</trkpt>
<trkpt lat="48.956083" lon="8.645083">
<ele>247.5</ele>
<speed>1.50</speed>
<course>292.5</course>
<desc>Speed 5.4 km/h Distance 0.53 km</desc>
<time>2010-10-23T16:42:15.57</time>
<name>342</name>
</trkpt>
<trkpt lat="48.956088" lon="8.645065">
<ele>247.5</ele>
<speed>1.47</speed>
<course>292.6</course>
<desc>Speed 5.3 km/h Distance 0.53 km</desc>
<time>2010-10-23T16:42:16.57</time>
<name>343</name>
</trkpt>
<trkpt lat="48.956093" lon="8.645047">
<ele>247.0</ele>
<speed>1.42</speed>
<course>270.0</course>
<desc>Speed 5.1 km/h Distance 0.53 km</desc>
<time>2010-10-23T16:42:17.57</time>
<name>344</name>
</trkpt>
<trkpt lat="48.956093" lon="8.645025">
<ele>248.0</ele>
<speed>1.53</speed>
<course>290.9</course>
<desc>Speed 5.5 km/h Distance 0.53 km</desc>
<time>2010-10-23T16:42:18.57</time>
<name>345</name>
</trkpt>
<trkpt lat="48.956098" lon="8.645005">
<ele>248.0</ele>
<speed>1.62</speed>
<course>299.0</course>
<desc>Speed 5.8 km/h Distance 0.53 km</desc>
<time>2010-10-23T16:42:19.57</time>
<name>346</name>
</trkpt>
<trkpt lat="48.956105" lon="8.644987">
<ele>248.0</ele>
<speed>1.53</speed>
<course>283.2</course>
<desc>Speed 5.5 km/h Distance 0.53 km</desc>
<time>2010-10-23T16:42:20.57</time>
<name>347</name>
</trkpt>
<trkpt lat="48.956108" lon="8.644965">
<ele>248.5</ele>
<speed>1.60</speed>
<course>284.2</course>
<desc>Speed 5.8 km/h Distance 0.54 km</desc>
<time>2010-10-23T16:42:21.57</time>
<name>348</name>
</trkpt>
<trkpt lat="48.956112" lon="8.644945">
<ele>248.5</ele>
<speed>1.42</speed>
<course>270.0</course>
<desc>Speed 5.1 km/h Distance 0.54 km</desc>
<time>2010-10-23T16:42:22.57</time>
<name>349</name>
</trkpt>
<trkpt lat="48.956112" lon="8.644925">
<ele>248.5</ele>
<speed>1.39</speed>
<course>285.5</course>
<desc>Speed 5.0 km/h Distance 0.54 km</desc>
<time>2010-10-23T16:42:23.57</time>
<name>350</name>
</trkpt>
<trkpt lat="48.956115" lon="8.644907">
<ele>248.0</ele>
<speed>1.44</speed>
<course>277.9</course>
<desc>Speed 5.2 km/h Distance 0.54 km</desc>
<time>2010-10-23T16:42:24.57</time>
<name>351</name>
</trkpt>
<trkpt lat="48.956117" lon="8.644888">
<ele>248.0</ele>
<speed>1.39</speed>
<course>255.8</course>
<desc>Speed 5.0 km/h Distance 0.54 km</desc>
<time>2010-10-23T16:42:25.57</time>
<name>352</name>
</trkpt>
<trkpt lat="48.956113" lon="8.644868">
<ele>248.0</ele>
<speed>1.49</speed>
<course>243.1</course>
<desc>Speed 5.4 km/h Distance 0.54 km</desc>
<time>2010-10-23T16:42:26.57</time>
<name>353</name>
</trkpt>
<trkpt lat="48.956108" lon="8.644853">
<ele>248.0</ele>
<speed>1.33</speed>
<course>224.6</course>
<desc>Speed 4.8 km/h Distance 0.54 km</desc>
<time>2010-10-23T16:42:27.57</time>
<name>354</name>
</trkpt>
<trkpt lat="48.956098" lon="8.644838">
<ele>248.0</ele>
<speed>1.50</speed>
<course>221.2</course>
<desc>Speed 5.4 km/h Distance 0.55 km</desc>
<time>2010-10-23T16:42:28.57</time>
<name>355</name>
</trkpt>
<trkpt lat="48.956088" lon="8.644825">
<ele>247.5</ele>
<speed>1.54</speed>
<course>217.5</course>
<desc>Speed 5.5 km/h Distance 0.55 km</desc>
<time>2010-10-23T16:42:29.57</time>
<name>356</name>
</trkpt>
<trkpt lat="48.956078" lon="8.644813">
<ele>247.5</ele>
<speed>1.55</speed>
<course>209.4</course>
<desc>Speed 5.6 km/h Distance 0.55 km</desc>
<time>2010-10-23T16:42:30.57</time>
<name>357</name>
</trkpt>
<trkpt lat="48.956067" lon="8.644803">
<ele>247.0</ele>
<speed>1.53</speed>
<course>195.5</course>
<desc>Speed 5.5 km/h Distance 0.55 km</desc>
<time>2010-10-23T16:42:31.57</time>
<name>358</name>
</trkpt>
<trkpt lat="48.956055" lon="8.644798">
<ele>247.0</ele>
<speed>1.49</speed>
<course>192.6</course>
<desc>Speed 5.4 km/h Distance 0.55 km</desc>
<time>2010-10-23T16:42:32.57</time>
<name>359</name>
</trkpt>
<trkpt lat="48.956045" lon="8.644795">
<ele>246.5</ele>
<speed>1.36</speed>
<course>222.6</course>
<desc>Speed 4.9 km/h Distance 0.55 km</desc>
<time>2010-10-23T16:42:33.57</time>
<name>360</name>
</trkpt>
<trkpt lat="48.956037" lon="8.644783">
<ele>245.0</ele>
<speed>1.30</speed>
<course>218.1</course>
<desc>Speed 4.7 km/h Distance 0.55 km</desc>
<time>2010-10-23T16:42:34.57</time>
<name>361</name>
</trkpt>
<trkpt lat="48.956028" lon="8.644773">
<ele>244.5</ele>
<speed>1.37</speed>
<course>200.9</course>
<desc>Speed 4.9 km/h Distance 0.56 km</desc>
<time>2010-10-23T16:42:35.57</time>
<name>362</name>
</trkpt>
<trkpt lat="48.956017" lon="8.644767">
<ele>244.0</ele>
<speed>1.49</speed>
<course>200.9</course>
<desc>Speed 5.4 km/h Distance 0.56 km</desc>
<time>2010-10-23T16:42:36.57</time>
<name>363</name>
</trkpt>
<trkpt lat="48.956005" lon="8.644760">
<ele>244.0</ele>
<speed>1.53</speed>
<course>193.5</course>
<desc>Speed 5.5 km/h Distance 0.56 km</desc>
<time>2010-10-23T16:42:37.57</time>
<name>364</name>
</trkpt>
<trkpt lat="48.955992" lon="8.644755">
<ele>244.0</ele>
<speed>1.57</speed>
<course>195.5</course>
<desc>Speed 5.7 km/h Distance 0.56 km</desc>
<time>2010-10-23T16:42:38.57</time>
<name>365</name>
</trkpt>
<trkpt lat="48.955980" lon="8.644750">
<ele>243.5</ele>
<speed>1.49</speed>
<course>189.7</course>
<desc>Speed 5.4 km/h Distance 0.56 km</desc>
<time>2010-10-23T16:42:39.57</time>
<name>366</name>
</trkpt>
<trkpt lat="48.955967" lon="8.644747">
<ele>243.5</ele>
<speed>1.54</speed>
<course>190.4</course>
<desc>Speed 5.5 km/h Distance 0.56 km</desc>
<time>2010-10-23T16:42:40.57</time>
<name>367</name>
</trkpt>
<trkpt lat="48.955955" lon="8.644743">
<ele>243.5</ele>
<speed>1.50</speed>
<course>189.5</course>
<desc>Speed 5.4 km/h Distance 0.56 km</desc>
<time>2010-10-23T16:42:41.57</time>
<name>368</name>
</trkpt>
<trkpt lat="48.955943" lon="8.644740">
<ele>243.0</ele>
<speed>1.48</speed>
<course>194.0</course>
<desc>Speed 5.3 km/h Distance 0.57 km</desc>
<time>2010-10-23T16:42:42.57</time>
<name>369</name>
</trkpt>
<trkpt lat="48.955930" lon="8.644735">
<ele>243.0</ele>
<speed>1.53</speed>
<course>196.0</course>
<desc>Speed 5.5 km/h Distance 0.57 km</desc>
<time>2010-10-23T16:42:43.57</time>
<name>370</name>
</trkpt>
<trkpt lat="48.955918" lon="8.644730">
<ele>243.0</ele>
<speed>1.51</speed>
<course>190.4</course>
<desc>Speed 5.4 km/h Distance 0.57 km</desc>
<time>2010-10-23T16:42:44.57</time>
<name>371</name>
</trkpt>
<trkpt lat="48.955907" lon="8.644727">
<ele>243.0</ele>
<speed>1.42</speed>
<course>196.0</course>
<desc>Speed 5.1 km/h Distance 0.57 km</desc>
<time>2010-10-23T16:42:45.57</time>
<name>372</name>
</trkpt>
<trkpt lat="48.955895" lon="8.644722">
<ele>243.0</ele>
<speed>1.47</speed>
<course>200.6</course>
<desc>Speed 5.3 km/h Distance 0.57 km</desc>
<time>2010-10-23T16:42:46.58</time>
<name>373</name>
</trkpt>
<trkpt lat="48.955883" lon="8.644715">
<ele>242.5</ele>
<speed>1.54</speed>
<course>200.6</course>
<desc>Speed 5.5 km/h Distance 0.57 km</desc>
<time>2010-10-23T16:42:47.56</time>
<name>374</name>
</trkpt>
<trkpt lat="48.955872" lon="8.644708">
<ele>242.5</ele>
<speed>1.52</speed>
<course>194.9</course>
<desc>Speed 5.5 km/h Distance 0.57 km</desc>
<time>2010-10-23T16:42:48.56</time>
<name>375</name>
</trkpt>
<trkpt lat="48.955860" lon="8.644703">
<ele>242.5</ele>
<speed>1.50</speed>
<course>189.5</course>
<desc>Speed 5.4 km/h Distance 0.58 km</desc>
<time>2010-10-23T16:42:49.56</time>
<name>376</name>
</trkpt>
<trkpt lat="48.955848" lon="8.644700">
<ele>242.5</ele>
<speed>1.53</speed>
<course>195.5</course>
<desc>Speed 5.5 km/h Distance 0.58 km</desc>
<time>2010-10-23T16:42:50.56</time>
<name>377</name>
</trkpt>
<trkpt lat="48.955837" lon="8.644695">
<ele>242.5</ele>
<speed>1.50</speed>
<course>200.9</course>
<desc>Speed 5.4 km/h Distance 0.58 km</desc>
<time>2010-10-23T16:42:51.56</time>
<name>378</name>
</trkpt>
<trkpt lat="48.955825" lon="8.644688">
<ele>242.5</ele>
<speed>1.50</speed>
<course>200.9</course>
<desc>Speed 5.4 km/h Distance 0.58 km</desc>
<time>2010-10-23T16:42:52.56</time>
<name>379</name>
</trkpt>
<trkpt lat="48.955813" lon="8.644682">
<ele>242.5</ele>
<speed>1.57</speed>
<course>189.0</course>
<desc>Speed 5.7 km/h Distance 0.58 km</desc>
<time>2010-10-23T16:42:53.56</time>
<name>380</name>
</trkpt>
<trkpt lat="48.955800" lon="8.644678">
<ele>242.5</ele>
<speed>1.57</speed>
<course>189.0</course>
<desc>Speed 5.7 km/h Distance 0.58 km</desc>
<time>2010-10-23T16:42:54.56</time>
<name>381</name>
</trkpt>
<trkpt lat="48.955787" lon="8.644675">
<ele>242.0</ele>
<speed>1.55</speed>
<course>195.5</course>
<desc>Speed 5.6 km/h Distance 0.58 km</desc>
<time>2010-10-23T16:42:55.56</time>
<name>382</name>
</trkpt>
<trkpt lat="48.955775" lon="8.644670">
<ele>242.0</ele>
<speed>1.51</speed>
<course>203.8</course>
<desc>Speed 5.4 km/h Distance 0.58 km</desc>
<time>2010-10-23T16:42:56.56</time>
<name>383</name>
</trkpt>
<trkpt lat="48.955765" lon="8.644663">
<ele>241.5</ele>
<speed>1.30</speed>
<course>213.5</course>
<desc>Speed 4.7 km/h Distance 0.59 km</desc>
<time>2010-10-23T16:42:57.56</time>
<name>384</name>
</trkpt>
<trkpt lat="48.955757" lon="8.644655">
<ele>241.0</ele>
<speed>1.07</speed>
<course>194.9</course>
<desc>Speed 3.9 km/h Distance 0.59 km</desc>
<time>2010-10-23T16:42:58.56</time>
<name>385</name>
</trkpt>
<trkpt lat="48.955748" lon="8.644652">
<ele>241.0</ele>
<speed>1.07</speed>
<course>203.8</course>
<desc>Speed 3.9 km/h Distance 0.59 km</desc>
<time>2010-10-23T16:42:59.56</time>
<name>386</name>
</trkpt>
<trkpt lat="48.955738" lon="8.644645">
<ele>241.0</ele>
<speed>1.36</speed>
<course>191.2</course>
<desc>Speed 4.9 km/h Distance 0.59 km</desc>
<time>2010-10-23T16:43:03.71</time>
<name>387</name>
</trkpt>
<trkpt lat="48.955727" lon="8.644642">
<ele>241.0</ele>
<speed>1.30</speed>
<course>191.2</course>
<desc>Speed 4.7 km/h Distance 0.59 km</desc>
<time>2010-10-23T16:43:04.71</time>
<name>388</name>
</trkpt>
<trkpt lat="48.955715" lon="8.644638">
<ele>240.5</ele>
<speed>1.39</speed>
<course>195.5</course>
<desc>Speed 5.0 km/h Distance 0.59 km</desc>
<time>2010-10-23T16:43:05.71</time>
<name>389</name>
</trkpt>
<trkpt lat="48.955703" lon="8.644633">
<ele>240.5</ele>
<speed>1.35</speed>
<course>180.0</course>
<desc>Speed 4.9 km/h Distance 0.59 km</desc>
<time>2010-10-23T16:43:06.71</time>
<name>390</name>
</trkpt>
<trkpt lat="48.955692" lon="8.644633">
<ele>240.5</ele>
<speed>1.38</speed>
<course>178.8</course>
<desc>Speed 5.0 km/h Distance 0.59 km</desc>
<time>2010-10-23T16:43:07.71</time>
<name>391</name>
</trkpt>
<trkpt lat="48.955678" lon="8.644633">
<ele>241.0</ele>
<speed>1.37</speed>
<course>184.7</course>
<desc>Speed 4.9 km/h Distance 0.60 km</desc>
<time>2010-10-23T16:43:08.71</time>
<name>392</name>
</trkpt>
<trkpt lat="48.955667" lon="8.644632">
<ele>241.0</ele>
<speed>1.49</speed>
<course>196.0</course>
<desc>Speed 5.4 km/h Distance 0.60 km</desc>
<time>2010-10-23T16:43:09.71</time>
<name>393</name>
</trkpt>
<trkpt lat="48.955655" lon="8.644627">
<ele>240.5</ele>
<speed>1.36</speed>
<course>184.7</course>
<desc>Speed 4.9 km/h Distance 0.60 km</desc>
<time>2010-10-23T16:43:10.71</time>
<name>394</name>
</trkpt>
<trkpt lat="48.955643" lon="8.644625">
<ele>241.0</ele>
<speed>1.38</speed>
<course>196.0</course>
<desc>Speed 5.0 km/h Distance 0.60 km</desc>
<time>2010-10-23T16:43:11.71</time>
<name>395</name>
</trkpt>
<trkpt lat="48.955632" lon="8.644620">
<ele>241.0</ele>
<speed>1.42</speed>
<course>193.5</course>
<desc>Speed 5.1 km/h Distance 0.60 km</desc>
<time>2010-10-23T16:43:12.71</time>
<name>396</name>
</trkpt>
<trkpt lat="48.955618" lon="8.644615">
<ele>241.5</ele>
<speed>1.46</speed>
<course>183.9</course>
<desc>Speed 5.3 km/h Distance 0.60 km</desc>
<time>2010-10-23T16:43:13.71</time>
<name>397</name>
</trkpt>
<trkpt lat="48.955605" lon="8.644613">
<ele>241.5</ele>
<speed>1.50</speed>
<course>189.7</course>
<desc>Speed 5.4 km/h Distance 0.60 km</desc>
<time>2010-10-23T16:43:14.71</time>
<name>398</name>
</trkpt>
<trkpt lat="48.955592" lon="8.644610">
<ele>242.0</ele>
<speed>1.47</speed>
<course>189.7</course>
<desc>Speed 5.3 km/h Distance 0.61 km</desc>
<time>2010-10-23T16:43:15.71</time>
<name>399</name>
</trkpt>
<trkpt lat="48.955578" lon="8.644607">
<ele>242.5</ele>
<speed>1.42</speed>
<course>190.4</course>
<desc>Speed 5.1 km/h Distance 0.61 km</desc>
<time>2010-10-23T16:43:16.71</time>
<name>400</name>
</trkpt>
<trkpt lat="48.955567" lon="8.644603">
<ele>242.5</ele>
<speed>1.34</speed>
<course>195.5</course>
<desc>Speed 4.8 km/h Distance 0.61 km</desc>
<time>2010-10-23T16:43:17.71</time>
<name>401</name>
</trkpt>
<trkpt lat="48.955555" lon="8.644598">
<ele>242.5</ele>
<speed>1.52</speed>
<course>169.8</course>
<desc>Speed 5.5 km/h Distance 0.61 km</desc>
<time>2010-10-23T16:43:18.71</time>
<name>402</name>
</trkpt>
<trkpt lat="48.955537" lon="8.644603">
<ele>243.5</ele>
<speed>1.59</speed>
<course>189.0</course>
<desc>Speed 5.7 km/h Distance 0.61 km</desc>
<time>2010-10-23T16:43:19.71</time>
<name>403</name>
</trkpt>
<trkpt lat="48.955523" lon="8.644600">
<ele>243.5</ele>
<speed>1.61</speed>
<course>189.5</course>
<desc>Speed 5.8 km/h Distance 0.61 km</desc>
<time>2010-10-23T16:43:20.71</time>
<name>404</name>
</trkpt>
<trkpt lat="48.955512" lon="8.644597">
<ele>243.5</ele>
<speed>1.40</speed>
<course>193.5</course>
<desc>Speed 5.0 km/h Distance 0.62 km</desc>
<time>2010-10-23T16:43:21.71</time>
<name>405</name>
</trkpt>
<trkpt lat="48.955498" lon="8.644592">
<ele>243.5</ele>
<speed>1.44</speed>
<course>192.6</course>
<desc>Speed 5.2 km/h Distance 0.62 km</desc>
<time>2010-10-23T16:43:22.71</time>
<name>406</name>
</trkpt>
<trkpt lat="48.955488" lon="8.644588">
<ele>243.0</ele>
<speed>1.28</speed>
<course>193.5</course>
<desc>Speed 4.6 km/h Distance 0.62 km</desc>
<time>2010-10-23T16:43:23.71</time>
<name>407</name>
</trkpt>
<trkpt lat="48.955475" lon="8.644583">
<ele>243.0</ele>
<speed>1.46</speed>
<course>247.4</course>
<desc>Speed 5.3 km/h Distance 0.62 km</desc>
<time>2010-10-23T16:43:24.71</time>
<name>408</name>
</trkpt>
<trkpt lat="48.955470" lon="8.644565">
<ele>242.5</ele>
<speed>1.35</speed>
<course>200.9</course>
<desc>Speed 4.9 km/h Distance 0.62 km</desc>
<time>2010-10-23T16:43:25.71</time>
<name>409</name>
</trkpt>
<trkpt lat="48.955458" lon="8.644558">
<ele>242.5</ele>
<speed>1.40</speed>
<course>194.9</course>
<desc>Speed 5.0 km/h Distance 0.62 km</desc>
<time>2010-10-23T16:43:26.71</time>
<name>410</name>
</trkpt>
<trkpt lat="48.955447" lon="8.644553">
<ele>242.0</ele>
<speed>1.36</speed>
<course>196.0</course>
<desc>Speed 4.9 km/h Distance 0.62 km</desc>
<time>2010-10-23T16:43:27.71</time>
<name>411</name>
</trkpt>
<trkpt lat="48.955435" lon="8.644548">
<ele>241.5</ele>
<speed>1.40</speed>
<course>203.8</course>
<desc>Speed 5.0 km/h Distance 0.62 km</desc>
<time>2010-10-23T16:43:28.71</time>
<name>412</name>
</trkpt>
<trkpt lat="48.955425" lon="8.644542">
<ele>241.5</ele>
<speed>1.41</speed>
<course>200.6</course>
<desc>Speed 5.1 km/h Distance 0.63 km</desc>
<time>2010-10-23T16:43:29.71</time>
<name>413</name>
</trkpt>
<trkpt lat="48.955413" lon="8.644535">
<ele>241.0</ele>
<speed>1.32</speed>
<course>196.0</course>
<desc>Speed 4.8 km/h Distance 0.63 km</desc>
<time>2010-10-23T16:43:30.71</time>
<name>414</name>
</trkpt>
<trkpt lat="48.955402" lon="8.644530">
<ele>240.5</ele>
<speed>1.32</speed>
<course>194.9</course>
<desc>Speed 4.8 km/h Distance 0.63 km</desc>
<time>2010-10-23T16:43:31.71</time>
<name>415</name>
</trkpt>
<trkpt lat="48.955393" lon="8.644527">
<ele>240.0</ele>
<speed>1.07</speed>
<course>198.2</course>
<desc>Speed 3.9 km/h Distance 0.63 km</desc>
<time>2010-10-23T16:43:32.71</time>
<name>416</name>
</trkpt>
<trkpt lat="48.955383" lon="8.644522">
<ele>240.0</ele>
<speed>1.26</speed>
<course>191.2</course>
<desc>Speed 4.5 km/h Distance 0.63 km</desc>
<time>2010-10-23T16:43:33.72</time>
<name>417</name>
</trkpt>
<trkpt lat="48.955372" lon="8.644518">
<ele>239.5</ele>
<speed>1.25</speed>
<course>192.6</course>
<desc>Speed 4.5 km/h Distance 0.63 km</desc>
<time>2010-10-23T16:43:34.71</time>
<name>418</name>
</trkpt>
<trkpt lat="48.955362" lon="8.644515">
<ele>239.0</ele>
<speed>1.13</speed>
<course>184.7</course>
<desc>Speed 4.1 km/h Distance 0.63 km</desc>
<time>2010-10-23T16:43:35.71</time>
<name>419</name>
</trkpt>
<trkpt lat="48.955350" lon="8.644513">
<ele>238.5</ele>
<speed>1.29</speed>
<course>188.8</course>
<desc>Speed 4.6 km/h Distance 0.63 km</desc>
<time>2010-10-23T16:43:36.71</time>
<name>420</name>
</trkpt>
<trkpt lat="48.955335" lon="8.644510">
<ele>239.0</ele>
<speed>1.51</speed>
<course>190.4</course>
<desc>Speed 5.4 km/h Distance 0.64 km</desc>
<time>2010-10-23T16:43:37.71</time>
<name>421</name>
</trkpt>
<trkpt lat="48.955323" lon="8.644507">
<ele>239.0</ele>
<speed>1.36</speed>
<course>190.3</course>
<desc>Speed 4.9 km/h Distance 0.64 km</desc>
<time>2010-10-23T16:43:38.71</time>
<name>422</name>
</trkpt>
<trkpt lat="48.955310" lon="8.644503">
<ele>239.5</ele>
<speed>1.29</speed>
<course>189.0</course>
<desc>Speed 4.6 km/h Distance 0.64 km</desc>
<time>2010-10-23T16:43:39.71</time>
<name>423</name>
</trkpt>
<trkpt lat="48.955297" lon="8.644500">
<ele>239.5</ele>
<speed>1.54</speed>
<course>192.2</course>
<desc>Speed 5.5 km/h Distance 0.64 km</desc>
<time>2010-10-23T16:43:40.71</time>
<name>424</name>
</trkpt>
<trkpt lat="48.955282" lon="8.644495">
<ele>239.5</ele>
<speed>1.65</speed>
<course>187.1</course>
<desc>Speed 5.9 km/h Distance 0.64 km</desc>
<time>2010-10-23T16:43:41.71</time>
<name>425</name>
</trkpt>
<trkpt lat="48.955265" lon="8.644492">
<ele>239.5</ele>
<speed>1.69</speed>
<course>193.5</course>
<desc>Speed 6.1 km/h Distance 0.64 km</desc>
<time>2010-10-23T16:43:42.71</time>
<name>426</name>
</trkpt>
<trkpt lat="48.955252" lon="8.644487">
<ele>240.0</ele>
<speed>1.50</speed>
<course>196.6</course>
<desc>Speed 5.4 km/h Distance 0.65 km</desc>
<time>2010-10-23T16:43:43.70</time>
<name>427</name>
</trkpt>
<trkpt lat="48.955237" lon="8.644480">
<ele>240.0</ele>
<speed>1.65</speed>
<course>205.2</course>
<desc>Speed 5.9 km/h Distance 0.65 km</desc>
<time>2010-10-23T16:43:44.70</time>
<name>428</name>
</trkpt>
<trkpt lat="48.955225" lon="8.644472">
<ele>240.0</ele>
<speed>1.52</speed>
<course>213.2</course>
<desc>Speed 5.5 km/h Distance 0.65 km</desc>
<time>2010-10-23T16:43:45.70</time>
<name>429</name>
</trkpt>
<trkpt lat="48.955215" lon="8.644462">
<ele>239.5</ele>
<speed>1.34</speed>
<course>209.4</course>
<desc>Speed 4.8 km/h Distance 0.65 km</desc>
<time>2010-10-23T16:43:46.70</time>
<name>430</name>
</trkpt>
<trkpt lat="48.955203" lon="8.644452">
<ele>239.5</ele>
<speed>1.34</speed>
<course>213.4</course>
<desc>Speed 4.8 km/h Distance 0.65 km</desc>
<time>2010-10-23T16:43:47.70</time>
<name>431</name>
</trkpt>
<trkpt lat="48.955192" lon="8.644440">
<ele>239.5</ele>
<speed>1.50</speed>
<course>217.5</course>
<desc>Speed 5.4 km/h Distance 0.65 km</desc>
<time>2010-10-23T16:43:48.70</time>
<name>432</name>
</trkpt>
<trkpt lat="48.955182" lon="8.644428">
<ele>239.5</ele>
<speed>1.28</speed>
<course>213.4</course>
<desc>Speed 4.6 km/h Distance 0.65 km</desc>
<time>2010-10-23T16:43:49.70</time>
<name>433</name>
</trkpt>
<trkpt lat="48.955170" lon="8.644417">
<ele>239.5</ele>
<speed>1.36</speed>
<course>232.6</course>
<desc>Speed 4.9 km/h Distance 0.66 km</desc>
<time>2010-10-23T16:43:50.70</time>
<name>434</name>
</trkpt>
<trkpt lat="48.955165" lon="8.644407">
<ele>238.5</ele>
<speed>0.91</speed>
<course>243.1</course>
<desc>Speed 3.3 km/h Distance 0.66 km</desc>
<time>2010-10-23T16:43:51.70</time>
<name>435</name>
</trkpt>
<trkpt lat="48.955160" lon="8.644392">
<ele>238.0</ele>
<speed>1.20</speed>
<course>243.1</course>
<desc>Speed 4.3 km/h Distance 0.66 km</desc>
<time>2010-10-23T16:43:52.70</time>
<name>436</name>
</trkpt>
<trkpt lat="48.955153" lon="8.644372">
<ele>238.0</ele>
<speed>1.63</speed>
<course>244.9</course>
<desc>Speed 5.9 km/h Distance 0.66 km</desc>
<time>2010-10-23T16:43:53.70</time>
<name>437</name>
</trkpt>
<trkpt lat="48.955147" lon="8.644350">
<ele>238.0</ele>
<speed>1.65</speed>
<course>241.0</course>
<desc>Speed 5.9 km/h Distance 0.66 km</desc>
<time>2010-10-23T16:43:54.70</time>
<name>438</name>
</trkpt>
<trkpt lat="48.955140" lon="8.644332">
<ele>238.0</ele>
<speed>1.46</speed>
<course>250.6</course>
<desc>Speed 5.3 km/h Distance 0.66 km</desc>
<time>2010-10-23T16:43:55.70</time>
<name>439</name>
</trkpt>
<trkpt lat="48.955135" lon="8.644310">
<ele>238.0</ele>
<speed>1.57</speed>
<course>256.8</course>
<desc>Speed 5.7 km/h Distance 0.67 km</desc>
<time>2010-10-23T16:43:56.70</time>
<name>440</name>
</trkpt>
<trkpt lat="48.955132" lon="8.644288">
<ele>238.0</ele>
<speed>1.58</speed>
<course>286.9</course>
<desc>Speed 5.7 km/h Distance 0.67 km</desc>
<time>2010-10-23T16:43:57.70</time>
<name>441</name>
</trkpt>
<trkpt lat="48.955135" lon="8.644272">
<ele>237.0</ele>
<speed>1.23</speed>
<course>263.3</course>
<desc>Speed 4.4 km/h Distance 0.67 km</desc>
<time>2010-10-23T16:43:58.70</time>
<name>442</name>
</trkpt>
<trkpt lat="48.955133" lon="8.644250">
<ele>237.0</ele>
<speed>1.49</speed>
<course>262.8</course>
<desc>Speed 5.4 km/h Distance 0.67 km</desc>
<time>2010-10-23T16:43:59.70</time>
<name>443</name>
</trkpt>
<trkpt lat="48.955132" lon="8.644230">
<ele>237.0</ele>
<speed>1.42</speed>
<course>270.0</course>
<desc>Speed 5.1 km/h Distance 0.67 km</desc>
<time>2010-10-23T16:44:00.70</time>
<name>444</name>
</trkpt>
<trkpt lat="48.955132" lon="8.644210">
<ele>237.5</ele>
<speed>1.38</speed>
<course>270.0</course>
<desc>Speed 5.0 km/h Distance 0.67 km</desc>
<time>2010-10-23T16:44:01.70</time>
<name>445</name>
</trkpt>
<trkpt lat="48.955132" lon="8.644193">
<ele>237.0</ele>
<speed>1.27</speed>
<course>270.0</course>
<desc>Speed 4.6 km/h Distance 0.67 km</desc>
<time>2010-10-23T16:44:02.70</time>
<name>446</name>
</trkpt>
<trkpt lat="48.955132" lon="8.644177">
<ele>237.0</ele>
<speed>1.12</speed>
<course>270.0</course>
<desc>Speed 4.0 km/h Distance 0.67 km</desc>
<time>2010-10-23T16:44:03.70</time>
<name>447</name>
</trkpt>
<trkpt lat="48.955132" lon="8.644160">
<ele>237.0</ele>
<speed>1.27</speed>
<course>285.4</course>
<desc>Speed 4.6 km/h Distance 0.68 km</desc>
<time>2010-10-23T16:44:04.70</time>
<name>448</name>
</trkpt>
<trkpt lat="48.955135" lon="8.644142">
<ele>236.5</ele>
<speed>1.36</speed>
<course>277.9</course>
<desc>Speed 4.9 km/h Distance 0.68 km</desc>
<time>2010-10-23T16:44:05.70</time>
<name>449</name>
</trkpt>
<trkpt lat="48.955137" lon="8.644123">
<ele>236.5</ele>
<speed>1.23</speed>
<course>270.0</course>
<desc>Speed 4.4 km/h Distance 0.68 km</desc>
<time>2010-10-23T16:44:06.70</time>
<name>450</name>
</trkpt>
<trkpt lat="48.955137" lon="8.644105">
<ele>236.5</ele>
<speed>1.29</speed>
<course>255.8</course>
<desc>Speed 4.6 km/h Distance 0.68 km</desc>
<time>2010-10-23T16:44:07.70</time>
<name>451</name>
</trkpt>
<trkpt lat="48.955133" lon="8.644085">
<ele>236.5</ele>
<speed>1.46</speed>
<course>264.2</course>
<desc>Speed 5.3 km/h Distance 0.68 km</desc>
<time>2010-10-23T16:44:08.70</time>
<name>452</name>
</trkpt>
<trkpt lat="48.955132" lon="8.644060">
<ele>236.5</ele>
<speed>1.64</speed>
<course>270.0</course>
<desc>Speed 5.9 km/h Distance 0.68 km</desc>
<time>2010-10-23T16:44:09.70</time>
<name>453</name>
</trkpt>
<trkpt lat="48.955132" lon="8.644037">
<ele>237.0</ele>
<speed>1.58</speed>
<course>263.3</course>
<desc>Speed 5.7 km/h Distance 0.69 km</desc>
<time>2010-10-23T16:44:10.70</time>
<name>454</name>
</trkpt>
<trkpt lat="48.955130" lon="8.644015">
<ele>236.5</ele>
<speed>1.37</speed>
<course>276.2</course>
<desc>Speed 4.9 km/h Distance 0.69 km</desc>
<time>2010-10-23T16:44:11.70</time>
<name>455</name>
</trkpt>
<trkpt lat="48.955132" lon="8.643992">
<ele>236.5</ele>
<speed>1.47</speed>
<course>270.0</course>
<desc>Speed 5.3 km/h Distance 0.69 km</desc>
<time>2010-10-23T16:44:12.70</time>
<name>456</name>
</trkpt>
<trkpt lat="48.955132" lon="8.643967">
<ele>236.5</ele>
<speed>1.50</speed>
<course>263.3</course>
<desc>Speed 5.4 km/h Distance 0.69 km</desc>
<time>2010-10-23T16:44:13.70</time>
<name>457</name>
</trkpt>
<trkpt lat="48.955130" lon="8.643945">
<ele>236.0</ele>
<speed>1.41</speed>
<course>270.0</course>
<desc>Speed 5.1 km/h Distance 0.69 km</desc>
<time>2010-10-23T16:44:14.70</time>
<name>458</name>
</trkpt>
<trkpt lat="48.955130" lon="8.643923">
<ele>236.0</ele>
<speed>1.48</speed>
<course>263.8</course>
<desc>Speed 5.3 km/h Distance 0.69 km</desc>
<time>2010-10-23T16:44:15.70</time>
<name>459</name>
</trkpt>
<trkpt lat="48.955128" lon="8.643900">
<ele>236.5</ele>
<speed>1.58</speed>
<course>270.0</course>
<desc>Speed 5.7 km/h Distance 0.70 km</desc>
<time>2010-10-23T16:44:16.70</time>
<name>460</name>
</trkpt>
<trkpt lat="48.955128" lon="8.643877">
<ele>236.5</ele>
<speed>1.53</speed>
<course>253.1</course>
<desc>Speed 5.5 km/h Distance 0.70 km</desc>
<time>2010-10-23T16:44:17.70</time>
<name>461</name>
</trkpt>
<trkpt lat="48.955123" lon="8.643852">
<ele>237.0</ele>
<speed>1.40</speed>
<course>256.8</course>
<desc>Speed 5.0 km/h Distance 0.70 km</desc>
<time>2010-10-23T16:44:18.70</time>
<name>462</name>
</trkpt>
<trkpt lat="48.955120" lon="8.643830">
<ele>237.5</ele>
<speed>1.52</speed>
<course>245.9</course>
<desc>Speed 5.5 km/h Distance 0.70 km</desc>
<time>2010-10-23T16:44:19.70</time>
<name>463</name>
</trkpt>
<trkpt lat="48.955112" lon="8.643802">
<ele>239.0</ele>
<speed>1.32</speed>
<course>262.8</course>
<desc>Speed 4.8 km/h Distance 0.70 km</desc>
<time>2010-10-23T16:44:20.70</time>
<name>464</name>
</trkpt>
<trkpt lat="48.955110" lon="8.643782">
<ele>239.0</ele>
<speed>1.50</speed>
<course>251.9</course>
<desc>Speed 5.4 km/h Distance 0.70 km</desc>
<time>2010-10-23T16:44:21.70</time>
<name>465</name>
</trkpt>
<trkpt lat="48.955105" lon="8.643758">
<ele>239.5</ele>
<speed>1.57</speed>
<course>258.5</course>
<desc>Speed 5.7 km/h Distance 0.71 km</desc>
<time>2010-10-23T16:44:22.70</time>
<name>466</name>
</trkpt>
<trkpt lat="48.955102" lon="8.643733">
<ele>240.0</ele>
<speed>1.59</speed>
<course>263.3</course>
<desc>Speed 5.7 km/h Distance 0.71 km</desc>
<time>2010-10-23T16:44:23.70</time>
<name>467</name>
</trkpt>
<trkpt lat="48.955100" lon="8.643712">
<ele>240.5</ele>
<speed>1.37</speed>
<course>257.7</course>
<desc>Speed 4.9 km/h Distance 0.71 km</desc>
<time>2010-10-23T16:44:24.70</time>
<name>468</name>
</trkpt>
<trkpt lat="48.955097" lon="8.643688">
<ele>241.0</ele>
<speed>1.50</speed>
<course>263.3</course>
<desc>Speed 5.4 km/h Distance 0.71 km</desc>
<time>2010-10-23T16:44:25.70</time>
<name>469</name>
</trkpt>
<trkpt lat="48.955095" lon="8.643667">
<ele>241.5</ele>
<speed>1.55</speed>
<course>255.8</course>
<desc>Speed 5.6 km/h Distance 0.71 km</desc>
<time>2010-10-23T16:44:26.70</time>
<name>470</name>
</trkpt>
<trkpt lat="48.955092" lon="8.643647">
<ele>241.5</ele>
<speed>1.51</speed>
<course>255.8</course>
<desc>Speed 5.4 km/h Distance 0.71 km</desc>
<time>2010-10-23T16:44:27.70</time>
<name>471</name>
</trkpt>
<trkpt lat="48.955088" lon="8.643627">
<ele>242.0</ele>
<speed>1.52</speed>
<course>243.1</course>
<desc>Speed 5.5 km/h Distance 0.72 km</desc>
<time>2010-10-23T16:44:28.70</time>
<name>472</name>
</trkpt>
<trkpt lat="48.955082" lon="8.643607">
<ele>242.0</ele>
<speed>1.44</speed>
<course>232.7</course>
<desc>Speed 5.2 km/h Distance 0.72 km</desc>
<time>2010-10-23T16:44:29.70</time>
<name>473</name>
</trkpt>
<trkpt lat="48.955072" lon="8.643587">
<ele>243.0</ele>
<speed>1.37</speed>
<course>225.9</course>
<desc>Speed 4.9 km/h Distance 0.72 km</desc>
<time>2010-10-23T16:44:30.70</time>
<name>474</name>
</trkpt>
<trkpt lat="48.955060" lon="8.643568">
<ele>244.0</ele>
<speed>1.32</speed>
<course>246.5</course>
<desc>Speed 4.8 km/h Distance 0.72 km</desc>
<time>2010-10-23T16:44:31.70</time>
<name>475</name>
</trkpt>
<trkpt lat="48.955057" lon="8.643557">
<ele>244.0</ele>
<speed>0.95</speed>
<course>212.3</course>
<desc>Speed 3.4 km/h Distance 0.72 km</desc>
<time>2010-10-23T16:44:32.70</time>
<name>476</name>
</trkpt>
<trkpt lat="48.955052" lon="8.643552">
<ele>244.5</ele>
<speed>0.46</speed>
<course>192.6</course>
<desc>Speed 1.7 km/h Distance 0.72 km</desc>
<time>2010-10-23T16:44:33.70</time>
<name>477</name>
</trkpt>
<trkpt lat="48.955042" lon="8.643548">
<ele>244.5</ele>
<speed>1.01</speed>
<course>172.5</course>
<desc>Speed 3.6 km/h Distance 0.72 km</desc>
<time>2010-10-23T16:44:34.70</time>
<name>478</name>
</trkpt>
<trkpt lat="48.955030" lon="8.643550">
<ele>244.5</ele>
<speed>1.36</speed>
<course>174.7</course>
<desc>Speed 4.9 km/h Distance 0.73 km</desc>
<time>2010-10-23T16:44:35.70</time>
<name>479</name>
</trkpt>
<trkpt lat="48.955017" lon="8.643552">
<ele>245.0</ele>
<speed>1.30</speed>
<course>161.9</course>
<desc>Speed 4.7 km/h Distance 0.73 km</desc>
<time>2010-10-23T16:44:36.70</time>
<name>480</name>
</trkpt>
<trkpt lat="48.955003" lon="8.643558">
<ele>245.0</ele>
<speed>1.46</speed>
<course>161.9</course>
<desc>Speed 5.3 km/h Distance 0.73 km</desc>
<time>2010-10-23T16:44:37.70</time>
<name>481</name>
</trkpt>
<trkpt lat="48.954990" lon="8.643565">
<ele>245.5</ele>
<speed>1.52</speed>
<course>176.2</course>
<desc>Speed 5.5 km/h Distance 0.73 km</desc>
<time>2010-10-23T16:44:38.70</time>
<name>482</name>
</trkpt>
<trkpt lat="48.954975" lon="8.643567">
<ele>246.0</ele>
<speed>1.49</speed>
<course>167.8</course>
<desc>Speed 5.4 km/h Distance 0.73 km</desc>
<time>2010-10-23T16:44:39.70</time>
<name>483</name>
</trkpt>
<trkpt lat="48.954960" lon="8.643572">
<ele>246.0</ele>
<speed>1.50</speed>
<course>157.7</course>
<desc>Speed 5.4 km/h Distance 0.73 km</desc>
<time>2010-10-23T16:44:40.70</time>
<name>484</name>
</trkpt>
<trkpt lat="48.954947" lon="8.643580">
<ele>246.5</ele>
<speed>1.58</speed>
<course>159.9</course>
<desc>Speed 5.7 km/h Distance 0.73 km</desc>
<time>2010-10-23T16:44:41.70</time>
<name>485</name>
</trkpt>
<trkpt lat="48.954932" lon="8.643588">
<ele>246.5</ele>
<speed>1.74</speed>
<course>167.4</course>
<desc>Speed 6.3 km/h Distance 0.74 km</desc>
<time>2010-10-23T16:44:42.70</time>
<name>486</name>
</trkpt>
<trkpt lat="48.954917" lon="8.643593">
<ele>246.5</ele>
<speed>1.54</speed>
<course>174.7</course>
<desc>Speed 5.5 km/h Distance 0.74 km</desc>
<time>2010-10-23T16:44:43.70</time>
<name>487</name>
</trkpt>
<trkpt lat="48.954903" lon="8.643595">
<ele>246.5</ele>
<speed>1.44</speed>
<course>176.2</course>
<desc>Speed 5.2 km/h Distance 0.74 km</desc>
<time>2010-10-23T16:44:44.70</time>
<name>488</name>
</trkpt>
<trkpt lat="48.954888" lon="8.643597">
<ele>246.5</ele>
<speed>1.47</speed>
<course>166.5</course>
<desc>Speed 5.3 km/h Distance 0.74 km</desc>
<time>2010-10-23T16:44:45.70</time>
<name>489</name>
</trkpt>
<trkpt lat="48.954875" lon="8.643602">
<ele>246.5</ele>
<speed>1.39</speed>
<course>157.7</course>
<desc>Speed 5.0 km/h Distance 0.74 km</desc>
<time>2010-10-23T16:44:46.70</time>
<name>490</name>
</trkpt>
<trkpt lat="48.954862" lon="8.643610">
<ele>247.0</ele>
<speed>1.49</speed>
<course>166.5</course>
<desc>Speed 5.4 km/h Distance 0.74 km</desc>
<time>2010-10-23T16:44:47.70</time>
<name>491</name>
</trkpt>
<trkpt lat="48.954848" lon="8.643615">
<ele>247.0</ele>
<speed>1.53</speed>
<course>166.5</course>
<desc>Speed 5.5 km/h Distance 0.75 km</desc>
<time>2010-10-23T16:44:48.70</time>
<name>492</name>
</trkpt>
<trkpt lat="48.954835" lon="8.643620">
<ele>247.0</ele>
<speed>1.47</speed>
<course>178.8</course>
<desc>Speed 5.3 km/h Distance 0.75 km</desc>
<time>2010-10-23T16:44:49.70</time>
<name>493</name>
</trkpt>
<trkpt lat="48.954822" lon="8.643622">
<ele>247.0</ele>
<speed>1.45</speed>
<course>166.5</course>
<desc>Speed 5.2 km/h Distance 0.75 km</desc>
<time>2010-10-23T16:44:50.70</time>
<name>494</name>
</trkpt>
<trkpt lat="48.954808" lon="8.643627">
<ele>247.5</ele>
<speed>1.50</speed>
<course>176.2</course>
<desc>Speed 5.4 km/h Distance 0.75 km</desc>
<time>2010-10-23T16:44:51.70</time>
<name>495</name>
</trkpt>
<trkpt lat="48.954793" lon="8.643628">
<ele>247.5</ele>
<speed>1.52</speed>
<course>171.9</course>
<desc>Speed 5.5 km/h Distance 0.75 km</desc>
<time>2010-10-23T16:44:52.70</time>
<name>496</name>
</trkpt>
<trkpt lat="48.954778" lon="8.643632">
<ele>247.5</ele>
<speed>1.59</speed>
<course>166.5</course>
<desc>Speed 5.7 km/h Distance 0.75 km</desc>
<time>2010-10-23T16:44:53.70</time>
<name>497</name>
</trkpt>
<trkpt lat="48.954765" lon="8.643637">
<ele>248.0</ele>
<speed>1.62</speed>
<course>171.2</course>
<desc>Speed 5.8 km/h Distance 0.76 km</desc>
<time>2010-10-23T16:44:54.70</time>
<name>498</name>
</trkpt>
<trkpt lat="48.954750" lon="8.643640">
<ele>248.0</ele>
<speed>1.49</speed>
<course>176.2</course>
<desc>Speed 5.4 km/h Distance 0.76 km</desc>
<time>2010-10-23T16:44:55.70</time>
<name>499</name>
</trkpt>
<trkpt lat="48.954735" lon="8.643642">
<ele>248.0</ele>
<speed>1.58</speed>
<course>174.7</course>
<desc>Speed 5.7 km/h Distance 0.76 km</desc>
<time>2010-10-23T16:44:56.70</time>
<name>500</name>
</trkpt>
<trkpt lat="48.954722" lon="8.643643">
<ele>248.0</ele>
<speed>1.41</speed>
<course>171.0</course>
<desc>Speed 5.1 km/h Distance 0.76 km</desc>
<time>2010-10-23T16:44:57.70</time>
<name>501</name>
</trkpt>
<trkpt lat="48.954708" lon="8.643647">
<ele>248.0</ele>
<speed>1.29</speed>
<course>168.8</course>
<desc>Speed 4.6 km/h Distance 0.76 km</desc>
<time>2010-10-23T16:44:58.70</time>
<name>502</name>
</trkpt>
<trkpt lat="48.954697" lon="8.643650">
<ele>248.0</ele>
<speed>1.36</speed>
<course>175.0</course>
<desc>Speed 4.9 km/h Distance 0.76 km</desc>
<time>2010-10-23T16:44:59.70</time>
<name>503</name>
</trkpt>
<trkpt lat="48.954682" lon="8.643652">
<ele>248.5</ele>
<speed>1.53</speed>
<course>176.2</course>
<desc>Speed 5.5 km/h Distance 0.77 km</desc>
<time>2010-10-23T16:45:00.70</time>
<name>504</name>
</trkpt>
<trkpt lat="48.954667" lon="8.643653">
<ele>248.5</ele>
<speed>1.51</speed>
<course>170.3</course>
<desc>Speed 5.4 km/h Distance 0.77 km</desc>
<time>2010-10-23T16:45:01.70</time>
<name>505</name>
</trkpt>
<trkpt lat="48.954653" lon="8.643657">
<ele>248.5</ele>
<speed>1.55</speed>
<course>166.5</course>
<desc>Speed 5.6 km/h Distance 0.77 km</desc>
<time>2010-10-23T16:45:02.70</time>
<name>506</name>
</trkpt>
<trkpt lat="48.954640" lon="8.643662">
<ele>248.5</ele>
<speed>1.49</speed>
<course>171.9</course>
<desc>Speed 5.4 km/h Distance 0.77 km</desc>
<time>2010-10-23T16:45:03.70</time>
<name>507</name>
</trkpt>
<trkpt lat="48.954625" lon="8.643665">
<ele>248.5</ele>
<speed>1.57</speed>
<course>171.2</course>
<desc>Speed 5.7 km/h Distance 0.77 km</desc>
<time>2010-10-23T16:45:04.70</time>
<name>508</name>
</trkpt>
<trkpt lat="48.954610" lon="8.643668">
<ele>248.5</ele>
<speed>1.65</speed>
<course>171.0</course>
<desc>Speed 5.9 km/h Distance 0.77 km</desc>
<time>2010-10-23T16:45:05.70</time>
<name>509</name>
</trkpt>
<trkpt lat="48.954597" lon="8.643672">
<ele>248.5</ele>
<speed>1.55</speed>
<course>174.7</course>
<desc>Speed 5.6 km/h Distance 0.77 km</desc>
<time>2010-10-23T16:45:06.70</time>
<name>510</name>
</trkpt>
<trkpt lat="48.954583" lon="8.643673">
<ele>248.5</ele>
<speed>1.49</speed>
<course>173.6</course>
<desc>Speed 5.4 km/h Distance 0.78 km</desc>
<time>2010-10-23T16:45:07.70</time>
<name>511</name>
</trkpt>
<trkpt lat="48.954570" lon="8.643675">
<ele>248.5</ele>
<speed>1.47</speed>
<course>168.8</course>
<desc>Speed 5.3 km/h Distance 0.78 km</desc>
<time>2010-10-23T16:45:08.70</time>
<name>512</name>
</trkpt>
<trkpt lat="48.954558" lon="8.643678">
<ele>248.5</ele>
<speed>1.35</speed>
<course>174.7</course>
<desc>Speed 4.9 km/h Distance 0.78 km</desc>
<time>2010-10-23T16:45:09.70</time>
<name>513</name>
</trkpt>
<trkpt lat="48.954545" lon="8.643680">
<ele>248.5</ele>
<speed>1.44</speed>
<course>171.2</course>
<desc>Speed 5.2 km/h Distance 0.78 km</desc>
<time>2010-10-23T16:45:10.70</time>
<name>514</name>
</trkpt>
<trkpt lat="48.954530" lon="8.643683">
<ele>248.5</ele>
<speed>1.58</speed>
<course>171.9</course>
<desc>Speed 5.7 km/h Distance 0.78 km</desc>
<time>2010-10-23T16:45:11.70</time>
<name>515</name>
</trkpt>
<trkpt lat="48.954515" lon="8.643687">
<ele>248.5</ele>
<speed>1.51</speed>
<course>178.8</course>
<desc>Speed 5.4 km/h Distance 0.78 km</desc>
<time>2010-10-23T16:45:12.70</time>
<name>516</name>
</trkpt>
<trkpt lat="48.954502" lon="8.643687">
<ele>248.5</ele>
<speed>1.50</speed>
<course>176.1</course>
<desc>Speed 5.4 km/h Distance 0.79 km</desc>
<time>2010-10-23T16:45:13.70</time>
<name>517</name>
</trkpt>
<trkpt lat="48.954488" lon="8.643688">
<ele>248.5</ele>
<speed>1.54</speed>
<course>176.1</course>
<desc>Speed 5.5 km/h Distance 0.79 km</desc>
<time>2010-10-23T16:45:14.70</time>
<name>518</name>
</trkpt>
<trkpt lat="48.954475" lon="8.643690">
<ele>248.0</ele>
<speed>1.49</speed>
<course>171.2</course>
<desc>Speed 5.4 km/h Distance 0.79 km</desc>
<time>2010-10-23T16:45:15.70</time>
<name>519</name>
</trkpt>
<trkpt lat="48.954460" lon="8.643693">
<ele>248.0</ele>
<speed>1.48</speed>
<course>171.9</course>
<desc>Speed 5.3 km/h Distance 0.79 km</desc>
<time>2010-10-23T16:45:16.70</time>
<name>520</name>
</trkpt>
<trkpt lat="48.954445" lon="8.643697">
<ele>248.5</ele>
<speed>1.54</speed>
<course>174.7</course>
<desc>Speed 5.5 km/h Distance 0.79 km</desc>
<time>2010-10-23T16:45:17.70</time>
<name>521</name>
</trkpt>
<trkpt lat="48.954432" lon="8.643698">
<ele>248.0</ele>
<speed>1.54</speed>
<course>174.7</course>
<desc>Speed 5.5 km/h Distance 0.79 km</desc>
<time>2010-10-23T16:45:18.70</time>
<name>522</name>
</trkpt>
<trkpt lat="48.954418" lon="8.643700">
<ele>248.0</ele>
<speed>1.52</speed>
<course>170.3</course>
<desc>Speed 5.5 km/h Distance 0.79 km</desc>
<time>2010-10-23T16:45:19.70</time>
<name>523</name>
</trkpt>
<trkpt lat="48.954405" lon="8.643703">
<ele>248.0</ele>
<speed>1.53</speed>
<course>177.8</course>
<desc>Speed 5.5 km/h Distance 0.80 km</desc>
<time>2010-10-23T16:45:20.70</time>
<name>524</name>
</trkpt>
<trkpt lat="48.954393" lon="8.643703">
<ele>248.0</ele>
<speed>1.37</speed>
<course>180.0</course>
<desc>Speed 4.9 km/h Distance 0.80 km</desc>
<time>2010-10-23T16:45:21.70</time>
<name>525</name>
</trkpt>
<trkpt lat="48.954387" lon="8.643703">
<ele>247.5</ele>
<speed>0.92</speed>
<course>192.6</course>
<desc>Speed 3.3 km/h Distance 0.80 km</desc>
<time>2010-10-23T16:45:22.70</time>
<name>526</name>
</trkpt>
<trkpt lat="48.954383" lon="8.643702">
<ele>247.5</ele>
<speed>0.40</speed>
<course>173.4</course>
<desc>Speed 1.4 km/h Distance 0.80 km</desc>
<time>2010-10-23T16:45:23.70</time>
<name>527</name>
</trkpt>
<trkpt lat="48.954373" lon="8.643703">
<ele>247.5</ele>
<speed>1.10</speed>
<course>180.0</course>
<desc>Speed 4.0 km/h Distance 0.80 km</desc>
<time>2010-10-23T16:45:24.70</time>
<name>528</name>
</trkpt>
<trkpt lat="48.954362" lon="8.643703">
<ele>247.5</ele>
<speed>1.36</speed>
<course>180.0</course>
<desc>Speed 4.9 km/h Distance 0.80 km</desc>
<time>2010-10-23T16:45:25.70</time>
<name>529</name>
</trkpt>
<trkpt lat="48.954350" lon="8.643703">
<ele>247.5</ele>
<speed>1.35</speed>
<course>180.0</course>
<desc>Speed 4.9 km/h Distance 0.80 km</desc>
<time>2010-10-23T16:45:26.70</time>
<name>530</name>
</trkpt>
<trkpt lat="48.954338" lon="8.643703">
<ele>247.5</ele>
<speed>1.34</speed>
<course>187.4</course>
<desc>Speed 4.8 km/h Distance 0.80 km</desc>
<time>2010-10-23T16:45:27.70</time>
<name>531</name>
</trkpt>
<trkpt lat="48.954332" lon="8.643702">
<ele>247.5</ele>
<speed>0.61</speed>
<course>90.0</course>
<desc>Speed 2.2 km/h Distance 0.80 km</desc>
<time>2010-10-23T16:45:28.70</time>
<name>532</name>
</trkpt>
<trkpt lat="48.954332" lon="8.643707">
<ele>247.5</ele>
<speed>0.33</speed>
<course>308.1</course>
<desc>Speed 1.2 km/h Distance 0.80 km</desc>
<time>2010-10-23T16:45:30.70</time>
<name>533</name>
</trkpt>
<trkpt lat="48.954333" lon="8.643703">
<ele>247.5</ele>
<speed>0.43</speed>
<course>231.9</course>
<desc>Speed 1.5 km/h Distance 0.80 km</desc>
<time>2010-10-23T16:45:33.70</time>
<name>534</name>
</trkpt>
<trkpt lat="48.954332" lon="8.643700">
<ele>247.5</ele>
<speed>0.30</speed>
<course>213.7</course>
<desc>Speed 1.1 km/h Distance 0.81 km</desc>
<time>2010-10-23T16:45:34.70</time>
<name>535</name>
</trkpt>
<trkpt lat="48.954328" lon="8.643697">
<ele>247.5</ele>
<speed>0.43</speed>
<course>160.1</course>
<desc>Speed 1.5 km/h Distance 0.81 km</desc>
<time>2010-10-23T16:45:35.70</time>
<name>536</name>
</trkpt>
<trkpt lat="48.954313" lon="8.643705">
<ele>247.5</ele>
<speed>1.16</speed>
<course>176.2</course>
<desc>Speed 4.2 km/h Distance 0.81 km</desc>
<time>2010-10-23T16:45:37.70</time>
<name>537</name>
</trkpt>
<trkpt lat="48.954298" lon="8.643707">
<ele>248.0</ele>
<speed>1.48</speed>
<course>166.5</course>
<desc>Speed 5.3 km/h Distance 0.81 km</desc>
<time>2010-10-23T16:45:38.70</time>
<name>538</name>
</trkpt>
<trkpt lat="48.954285" lon="8.643712">
<ele>248.0</ele>
<speed>1.50</speed>
<course>176.2</course>
<desc>Speed 5.4 km/h Distance 0.81 km</desc>
<time>2010-10-23T16:45:39.70</time>
<name>539</name>
</trkpt>
<trkpt lat="48.954270" lon="8.643713">
<ele>248.5</ele>
<speed>1.50</speed>
<course>180.0</course>
<desc>Speed 5.4 km/h Distance 0.81 km</desc>
<time>2010-10-23T16:45:40.70</time>
<name>540</name>
</trkpt>
<trkpt lat="48.954255" lon="8.643713">
<ele>248.5</ele>
<speed>1.50</speed>
<course>178.8</course>
<desc>Speed 5.4 km/h Distance 0.81 km</desc>
<time>2010-10-23T16:45:41.70</time>
<name>541</name>
</trkpt>
<trkpt lat="48.954242" lon="8.643713">
<ele>248.5</ele>
<speed>1.48</speed>
<course>175.9</course>
<desc>Speed 5.3 km/h Distance 0.82 km</desc>
<time>2010-10-23T16:45:42.70</time>
<name>542</name>
</trkpt>
<trkpt lat="48.954225" lon="8.643715">
<ele>248.5</ele>
<speed>1.60</speed>
<course>177.2</course>
<desc>Speed 5.8 km/h Distance 0.82 km</desc>
<time>2010-10-23T16:45:43.70</time>
<name>543</name>
</trkpt>
<trkpt lat="48.954208" lon="8.643717">
<ele>248.5</ele>
<speed>1.63</speed>
<course>183.8</course>
<desc>Speed 5.9 km/h Distance 0.82 km</desc>
<time>2010-10-23T16:45:44.70</time>
<name>544</name>
</trkpt>
<trkpt lat="48.954193" lon="8.643715">
<ele>248.5</ele>
<speed>1.62</speed>
<course>180.0</course>
<desc>Speed 5.8 km/h Distance 0.82 km</desc>
<time>2010-10-23T16:45:45.70</time>
<name>545</name>
</trkpt>
<trkpt lat="48.954178" lon="8.643715">
<ele>248.5</ele>
<speed>1.65</speed>
<course>185.0</course>
<desc>Speed 5.9 km/h Distance 0.82 km</desc>
<time>2010-10-23T16:45:46.70</time>
<name>546</name>
</trkpt>
<trkpt lat="48.954163" lon="8.643713">
<ele>248.0</ele>
<speed>1.54</speed>
<course>187.7</course>
<desc>Speed 5.5 km/h Distance 0.82 km</desc>
<time>2010-10-23T16:45:47.70</time>
<name>547</name>
</trkpt>
<trkpt lat="48.954147" lon="8.643710">
<ele>248.5</ele>
<speed>1.75</speed>
<course>185.3</course>
<desc>Speed 6.3 km/h Distance 0.83 km</desc>
<time>2010-10-23T16:45:48.70</time>
<name>548</name>
</trkpt>
<trkpt lat="48.954133" lon="8.643708">
<ele>248.5</ele>
<speed>1.50</speed>
<course>202.6</course>
<desc>Speed 5.4 km/h Distance 0.83 km</desc>
<time>2010-10-23T16:45:49.70</time>
<name>549</name>
</trkpt>
<trkpt lat="48.954120" lon="8.643700">
<ele>248.5</ele>
<speed>1.57</speed>
<course>198.8</course>
<desc>Speed 5.7 km/h Distance 0.83 km</desc>
<time>2010-10-23T16:45:50.70</time>
<name>550</name>
</trkpt>
<trkpt lat="48.954107" lon="8.643693">
<ele>248.0</ele>
<speed>1.50</speed>
<course>198.8</course>
<desc>Speed 5.4 km/h Distance 0.83 km</desc>
<time>2010-10-23T16:45:51.70</time>
<name>551</name>
</trkpt>
<trkpt lat="48.954093" lon="8.643687">
<ele>248.0</ele>
<speed>1.55</speed>
<course>196.3</course>
<desc>Speed 5.6 km/h Distance 0.83 km</desc>
<time>2010-10-23T16:45:52.70</time>
<name>552</name>
</trkpt>
<trkpt lat="48.954078" lon="8.643680">
<ele>247.5</ele>
<speed>1.62</speed>
<course>193.5</course>
<desc>Speed 5.8 km/h Distance 0.83 km</desc>
<time>2010-10-23T16:45:53.70</time>
<name>553</name>
</trkpt>
<trkpt lat="48.954065" lon="8.643675">
<ele>247.5</ele>
<speed>1.55</speed>
<course>198.1</course>
<desc>Speed 5.6 km/h Distance 0.84 km</desc>
<time>2010-10-23T16:45:54.70</time>
<name>554</name>
</trkpt>
<trkpt lat="48.954052" lon="8.643668">
<ele>247.5</ele>
<speed>1.52</speed>
<course>202.1</course>
<desc>Speed 5.5 km/h Distance 0.84 km</desc>
<time>2010-10-23T16:45:55.70</time>
<name>555</name>
</trkpt>
<trkpt lat="48.954038" lon="8.643660">
<ele>247.5</ele>
<speed>1.54</speed>
<course>198.1</course>
<desc>Speed 5.5 km/h Distance 0.84 km</desc>
<time>2010-10-23T16:45:56.70</time>
<name>556</name>
</trkpt>
<trkpt lat="48.954025" lon="8.643653">
<ele>247.5</ele>
<speed>1.55</speed>
<course>198.1</course>
<desc>Speed 5.6 km/h Distance 0.84 km</desc>
<time>2010-10-23T16:45:57.70</time>
<name>557</name>
</trkpt>
<trkpt lat="48.954012" lon="8.643647">
<ele>247.5</ele>
<speed>1.49</speed>
<course>194.0</course>
<desc>Speed 5.4 km/h Distance 0.84 km</desc>
<time>2010-10-23T16:45:58.70</time>
<name>558</name>
</trkpt>
<trkpt lat="48.953998" lon="8.643642">
<ele>247.5</ele>
<speed>1.52</speed>
<course>194.9</course>
<desc>Speed 5.5 km/h Distance 0.84 km</desc>
<time>2010-10-23T16:45:59.70</time>
<name>559</name>
</trkpt>
<trkpt lat="48.953987" lon="8.643637">
<ele>248.0</ele>
<speed>1.45</speed>
<course>183.8</course>
<desc>Speed 5.2 km/h Distance 0.84 km</desc>
<time>2010-10-23T16:46:00.70</time>
<name>560</name>
</trkpt>
<trkpt lat="48.953972" lon="8.643635">
<ele>248.0</ele>
<speed>1.64</speed>
<course>193.5</course>
<desc>Speed 5.9 km/h Distance 0.85 km</desc>
<time>2010-10-23T16:46:01.70</time>
<name>561</name>
</trkpt>
<trkpt lat="48.953958" lon="8.643630">
<ele>248.0</ele>
<speed>1.61</speed>
<course>193.5</course>
<desc>Speed 5.8 km/h Distance 0.85 km</desc>
<time>2010-10-23T16:46:02.70</time>
<name>562</name>
</trkpt>
<trkpt lat="48.953945" lon="8.643625">
<ele>247.5</ele>
<speed>1.54</speed>
<course>204.9</course>
<desc>Speed 5.5 km/h Distance 0.85 km</desc>
<time>2010-10-23T16:46:03.70</time>
<name>563</name>
</trkpt>
<trkpt lat="48.953933" lon="8.643617">
<ele>247.5</ele>
<speed>1.46</speed>
<course>193.5</course>
<desc>Speed 5.3 km/h Distance 0.85 km</desc>
<time>2010-10-23T16:46:04.70</time>
<name>564</name>
</trkpt>
<trkpt lat="48.953920" lon="8.643612">
<ele>247.5</ele>
<speed>1.48</speed>
<course>188.2</course>
<desc>Speed 5.3 km/h Distance 0.85 km</desc>
<time>2010-10-23T16:46:05.70</time>
<name>565</name>
</trkpt>
<trkpt lat="48.953907" lon="8.643608">
<ele>247.5</ele>
<speed>1.59</speed>
<course>202.1</course>
<desc>Speed 5.7 km/h Distance 0.85 km</desc>
<time>2010-10-23T16:46:06.70</time>
<name>566</name>
</trkpt>
<trkpt lat="48.953893" lon="8.643600">
<ele>247.0</ele>
<speed>1.51</speed>
<course>198.1</course>
<desc>Speed 5.4 km/h Distance 0.86 km</desc>
<time>2010-10-23T16:46:07.70</time>
<name>567</name>
</trkpt>
<trkpt lat="48.953880" lon="8.643593">
<ele>247.0</ele>
<speed>1.59</speed>
<course>202.1</course>
<desc>Speed 5.7 km/h Distance 0.86 km</desc>
<time>2010-10-23T16:46:08.70</time>
<name>568</name>
</trkpt>
<trkpt lat="48.953867" lon="8.643585">
<ele>247.0</ele>
<speed>1.62</speed>
<course>200.1</course>
<desc>Speed 5.8 km/h Distance 0.86 km</desc>
<time>2010-10-23T16:46:09.70</time>
<name>569</name>
</trkpt>
<trkpt lat="48.953852" lon="8.643577">
<ele>247.5</ele>
<speed>1.67</speed>
<course>205.2</course>
<desc>Speed 6.0 km/h Distance 0.86 km</desc>
<time>2010-10-23T16:46:10.70</time>
<name>570</name>
</trkpt>
<trkpt lat="48.953840" lon="8.643568">
<ele>247.0</ele>
<speed>1.61</speed>
<course>196.6</course>
<desc>Speed 5.8 km/h Distance 0.86 km</desc>
<time>2010-10-23T16:46:11.70</time>
<name>571</name>
</trkpt>
<trkpt lat="48.953825" lon="8.643562">
<ele>247.0</ele>
<speed>1.65</speed>
<course>209.4</course>
<desc>Speed 5.9 km/h Distance 0.86 km</desc>
<time>2010-10-23T16:46:12.70</time>
<name>572</name>
</trkpt>
<trkpt lat="48.953813" lon="8.643552">
<ele>247.0</ele>
<speed>1.65</speed>
<course>201.5</course>
<desc>Speed 5.9 km/h Distance 0.87 km</desc>
<time>2010-10-23T16:46:13.70</time>
<name>573</name>
</trkpt>
<trkpt lat="48.953797" lon="8.643542">
<ele>247.5</ele>
<speed>1.58</speed>
<course>221.2</course>
<desc>Speed 5.7 km/h Distance 0.87 km</desc>
<time>2010-10-23T16:46:14.70</time>
<name>574</name>
</trkpt>
<trkpt lat="48.953787" lon="8.643528">
<ele>247.5</ele>
<speed>1.52</speed>
<course>224.5</course>
<desc>Speed 5.5 km/h Distance 0.87 km</desc>
<time>2010-10-23T16:46:15.70</time>
<name>575</name>
</trkpt>
<trkpt lat="48.953777" lon="8.643513">
<ele>247.0</ele>
<speed>1.51</speed>
<course>213.4</course>
<desc>Speed 5.4 km/h Distance 0.87 km</desc>
<time>2010-10-23T16:46:16.70</time>
<name>576</name>
</trkpt>
<trkpt lat="48.953765" lon="8.643502">
<ele>247.0</ele>
<speed>1.40</speed>
<course>202.1</course>
<desc>Speed 5.0 km/h Distance 0.87 km</desc>
<time>2010-10-23T16:46:17.70</time>
<name>577</name>
</trkpt>
<trkpt lat="48.953752" lon="8.643493">
<ele>247.5</ele>
<speed>1.51</speed>
<course>189.0</course>
<desc>Speed 5.4 km/h Distance 0.87 km</desc>
<time>2010-10-23T16:46:18.70</time>
<name>578</name>
</trkpt>
<trkpt lat="48.953738" lon="8.643490">
<ele>248.0</ele>
<speed>1.38</speed>
<course>187.7</course>
<desc>Speed 5.0 km/h Distance 0.87 km</desc>
<time>2010-10-23T16:46:19.70</time>
<name>579</name>
</trkpt>
<trkpt lat="48.953722" lon="8.643487">
<ele>248.0</ele>
<speed>1.74</speed>
<course>198.1</course>
<desc>Speed 6.3 km/h Distance 0.88 km</desc>
<time>2010-10-23T16:46:20.70</time>
<name>580</name>
</trkpt>
<trkpt lat="48.953708" lon="8.643480">
<ele>248.5</ele>
<speed>1.62</speed>
<course>192.6</course>
<desc>Speed 5.8 km/h Distance 0.88 km</desc>
<time>2010-10-23T16:46:21.70</time>
<name>581</name>
</trkpt>
<trkpt lat="48.953693" lon="8.643475">
<ele>248.5</ele>
<speed>1.62</speed>
<course>193.5</course>
<desc>Speed 5.8 km/h Distance 0.88 km</desc>
<time>2010-10-23T16:46:22.70</time>
<name>582</name>
</trkpt>
<trkpt lat="48.953680" lon="8.643470">
<ele>249.0</ele>
<speed>1.57</speed>
<course>196.3</course>
<desc>Speed 5.7 km/h Distance 0.88 km</desc>
<time>2010-10-23T16:46:23.70</time>
<name>583</name>
</trkpt>
<trkpt lat="48.953665" lon="8.643463">
<ele>249.5</ele>
<speed>1.65</speed>
<course>198.1</course>
<desc>Speed 5.9 km/h Distance 0.88 km</desc>
<time>2010-10-23T16:46:24.70</time>
<name>584</name>
</trkpt>
<trkpt lat="48.953652" lon="8.643457">
<ele>249.5</ele>
<speed>1.62</speed>
<course>192.2</course>
<desc>Speed 5.8 km/h Distance 0.88 km</desc>
<time>2010-10-23T16:46:25.70</time>
<name>585</name>
</trkpt>
<trkpt lat="48.953637" lon="8.643452">
<ele>249.5</ele>
<speed>1.69</speed>
<course>198.1</course>
<desc>Speed 6.1 km/h Distance 0.89 km</desc>
<time>2010-10-23T16:46:26.70</time>
<name>586</name>
</trkpt>
<trkpt lat="48.953623" lon="8.643445">
<ele>250.0</ele>
<speed>1.61</speed>
<course>200.9</course>
<desc>Speed 5.8 km/h Distance 0.89 km</desc>
<time>2010-10-23T16:46:27.70</time>
<name>587</name>
</trkpt>
<trkpt lat="48.953612" lon="8.643438">
<ele>250.0</ele>
<speed>1.52</speed>
<course>206.4</course>
<desc>Speed 5.5 km/h Distance 0.89 km</desc>
<time>2010-10-23T16:46:28.70</time>
<name>588</name>
</trkpt>
<trkpt lat="48.953598" lon="8.643428">
<ele>250.0</ele>
<speed>1.58</speed>
<course>198.1</course>
<desc>Speed 5.7 km/h Distance 0.89 km</desc>
<time>2010-10-23T16:46:29.70</time>
<name>589</name>
</trkpt>
<trkpt lat="48.953585" lon="8.643422">
<ele>250.5</ele>
<speed>1.59</speed>
<course>206.2</course>
<desc>Speed 5.7 km/h Distance 0.89 km</desc>
<time>2010-10-23T16:46:30.70</time>
<name>590</name>
</trkpt>
<trkpt lat="48.953572" lon="8.643412">
<ele>250.5</ele>
<speed>1.58</speed>
<course>202.3</course>
<desc>Speed 5.7 km/h Distance 0.89 km</desc>
<time>2010-10-23T16:46:31.70</time>
<name>591</name>
</trkpt>
<trkpt lat="48.953558" lon="8.643403">
<ele>250.0</ele>
<speed>1.60</speed>
<course>198.1</course>
<desc>Speed 5.8 km/h Distance 0.90 km</desc>
<time>2010-10-23T16:46:32.70</time>
<name>592</name>
</trkpt>
<trkpt lat="48.953545" lon="8.643397">
<ele>250.0</ele>
<speed>1.62</speed>
<course>198.1</course>
<desc>Speed 5.8 km/h Distance 0.90 km</desc>
<time>2010-10-23T16:46:33.70</time>
<name>593</name>
</trkpt>
<trkpt lat="48.953532" lon="8.643390">
<ele>250.5</ele>
<speed>1.60</speed>
<course>202.6</course>
<desc>Speed 5.8 km/h Distance 0.90 km</desc>
<time>2010-10-23T16:46:34.70</time>
<name>594</name>
</trkpt>
<trkpt lat="48.953518" lon="8.643382">
<ele>250.5</ele>
<speed>1.62</speed>
<course>209.4</course>
<desc>Speed 5.8 km/h Distance 0.90 km</desc>
<time>2010-10-23T16:46:35.70</time>
<name>595</name>
</trkpt>
<trkpt lat="48.953507" lon="8.643372">
<ele>250.5</ele>
<speed>1.59</speed>
<course>206.2</course>
<desc>Speed 5.7 km/h Distance 0.90 km</desc>
<time>2010-10-23T16:46:36.70</time>
<name>596</name>
</trkpt>
<trkpt lat="48.953493" lon="8.643362">
<ele>250.5</ele>
<speed>1.62</speed>
<course>209.8</course>
<desc>Speed 5.8 km/h Distance 0.90 km</desc>
<time>2010-10-23T16:46:37.70</time>
<name>597</name>
</trkpt>
<trkpt lat="48.953480" lon="8.643350">
<ele>250.5</ele>
<speed>1.64</speed>
<course>209.8</course>
<desc>Speed 5.9 km/h Distance 0.91 km</desc>
<time>2010-10-23T16:46:38.70</time>
<name>598</name>
</trkpt>
<trkpt lat="48.953467" lon="8.643338">
<ele>250.5</ele>
<speed>1.62</speed>
<course>206.0</course>
<desc>Speed 5.8 km/h Distance 0.91 km</desc>
<time>2010-10-23T16:46:39.70</time>
<name>599</name>
</trkpt>
<trkpt lat="48.953453" lon="8.643328">
<ele>251.0</ele>
<speed>1.63</speed>
<course>206.2</course>
<desc>Speed 5.9 km/h Distance 0.91 km</desc>
<time>2010-10-23T16:46:40.70</time>
<name>600</name>
</trkpt>
<trkpt lat="48.953440" lon="8.643318">
<ele>251.0</ele>
<speed>1.60</speed>
<course>206.0</course>
<desc>Speed 5.8 km/h Distance 0.91 km</desc>
<time>2010-10-23T16:46:41.70</time>
<name>601</name>
</trkpt>
<trkpt lat="48.953427" lon="8.643308">
<ele>251.0</ele>
<speed>1.62</speed>
<course>206.0</course>
<desc>Speed 5.8 km/h Distance 0.91 km</desc>
<time>2010-10-23T16:46:42.70</time>
<name>602</name>
</trkpt>
<trkpt lat="48.953413" lon="8.643298">
<ele>251.0</ele>
<speed>1.62</speed>
<course>209.4</course>
<desc>Speed 5.8 km/h Distance 0.91 km</desc>
<time>2010-10-23T16:46:43.70</time>
<name>603</name>
</trkpt>
<trkpt lat="48.953402" lon="8.643288">
<ele>251.5</ele>
<speed>1.61</speed>
<course>209.8</course>
<desc>Speed 5.8 km/h Distance 0.92 km</desc>
<time>2010-10-23T16:46:44.70</time>
<name>604</name>
</trkpt>
<trkpt lat="48.953388" lon="8.643277">
<ele>251.5</ele>
<speed>1.60</speed>
<course>206.0</course>
<desc>Speed 5.8 km/h Distance 0.92 km</desc>
<time>2010-10-23T16:46:45.70</time>
<name>605</name>
</trkpt>
<trkpt lat="48.953375" lon="8.643267">
<ele>251.5</ele>
<speed>1.61</speed>
<course>209.4</course>
<desc>Speed 5.8 km/h Distance 0.92 km</desc>
<time>2010-10-23T16:46:46.70</time>
<name>606</name>
</trkpt>
<trkpt lat="48.953363" lon="8.643257">
<ele>251.5</ele>
<speed>1.55</speed>
<course>209.4</course>
<desc>Speed 5.6 km/h Distance 0.92 km</desc>
<time>2010-10-23T16:46:47.70</time>
<name>607</name>
</trkpt>
<trkpt lat="48.953352" lon="8.643247">
<ele>251.5</ele>
<speed>1.61</speed>
<course>202.6</course>
<desc>Speed 5.8 km/h Distance 0.92 km</desc>
<time>2010-10-23T16:46:48.70</time>
<name>608</name>
</trkpt>
<trkpt lat="48.953338" lon="8.643238">
<ele>251.5</ele>
<speed>1.57</speed>
<course>213.4</course>
<desc>Speed 5.7 km/h Distance 0.92 km</desc>
<time>2010-10-23T16:46:49.70</time>
<name>609</name>
</trkpt>
<trkpt lat="48.953327" lon="8.643227">
<ele>252.0</ele>
<speed>1.61</speed>
<course>209.8</course>
<desc>Speed 5.8 km/h Distance 0.92 km</desc>
<time>2010-10-23T16:46:50.70</time>
<name>610</name>
</trkpt>
<trkpt lat="48.953313" lon="8.643215">
<ele>252.0</ele>
<speed>1.59</speed>
<course>209.4</course>
<desc>Speed 5.7 km/h Distance 0.93 km</desc>
<time>2010-10-23T16:46:51.70</time>
<name>611</name>
</trkpt>
<trkpt lat="48.953302" lon="8.643205">
<ele>252.0</ele>
<speed>1.59</speed>
<course>213.4</course>
<desc>Speed 5.7 km/h Distance 0.93 km</desc>
<time>2010-10-23T16:46:52.70</time>
<name>612</name>
</trkpt>
<trkpt lat="48.953290" lon="8.643193">
<ele>252.0</ele>
<speed>1.55</speed>
<course>209.4</course>
<desc>Speed 5.6 km/h Distance 0.93 km</desc>
<time>2010-10-23T16:46:53.70</time>
<name>613</name>
</trkpt>
<trkpt lat="48.953278" lon="8.643183">
<ele>252.5</ele>
<speed>1.57</speed>
<course>210.0</course>
<desc>Speed 5.7 km/h Distance 0.93 km</desc>
<time>2010-10-23T16:46:54.70</time>
<name>614</name>
</trkpt>
<trkpt lat="48.953265" lon="8.643172">
<ele>252.5</ele>
<speed>1.61</speed>
<course>213.4</course>
<desc>Speed 5.8 km/h Distance 0.93 km</desc>
<time>2010-10-23T16:46:55.70</time>
<name>615</name>
</trkpt>
<trkpt lat="48.953253" lon="8.643160">
<ele>252.5</ele>
<speed>1.55</speed>
<course>209.2</course>
<desc>Speed 5.6 km/h Distance 0.93 km</desc>
<time>2010-10-23T16:46:56.70</time>
<name>616</name>
</trkpt>
<trkpt lat="48.953242" lon="8.643150">
<ele>252.5</ele>
<speed>1.50</speed>
<course>213.3</course>
<desc>Speed 5.4 km/h Distance 0.94 km</desc>
<time>2010-10-23T16:46:57.70</time>
<name>617</name>
</trkpt>
<trkpt lat="48.953230" lon="8.643138">
<ele>252.5</ele>
<speed>1.54</speed>
<course>205.2</course>
<desc>Speed 5.5 km/h Distance 0.94 km</desc>
<time>2010-10-23T16:46:58.70</time>
<name>618</name>
</trkpt>
<trkpt lat="48.953218" lon="8.643130">
<ele>252.5</ele>
<speed>1.53</speed>
<course>209.4</course>
<desc>Speed 5.5 km/h Distance 0.94 km</desc>
<time>2010-10-23T16:46:59.70</time>
<name>619</name>
</trkpt>
<trkpt lat="48.953207" lon="8.643120">
<ele>252.5</ele>
<speed>1.48</speed>
<course>206.0</course>
<desc>Speed 5.3 km/h Distance 0.94 km</desc>
<time>2010-10-23T16:47:00.70</time>
<name>620</name>
</trkpt>
<trkpt lat="48.953193" lon="8.643110">
<ele>253.0</ele>
<speed>1.54</speed>
<course>204.9</course>
<desc>Speed 5.5 km/h Distance 0.94 km</desc>
<time>2010-10-23T16:47:01.70</time>
<name>621</name>
</trkpt>
<trkpt lat="48.953182" lon="8.643102">
<ele>253.0</ele>
<speed>1.52</speed>
<course>205.2</course>
<desc>Speed 5.5 km/h Distance 0.94 km</desc>
<time>2010-10-23T16:47:02.70</time>
<name>622</name>
</trkpt>
<trkpt lat="48.953170" lon="8.643093">
<ele>253.0</ele>
<speed>1.44</speed>
<course>198.1</course>
<desc>Speed 5.2 km/h Distance 0.94 km</desc>
<time>2010-10-23T16:47:03.70</time>
<name>623</name>
</trkpt>
<trkpt lat="48.953157" lon="8.643087">
<ele>253.0</ele>
<speed>1.57</speed>
<course>202.3</course>
<desc>Speed 5.7 km/h Distance 0.95 km</desc>
<time>2010-10-23T16:47:04.70</time>
<name>624</name>
</trkpt>
<trkpt lat="48.953143" lon="8.643078">
<ele>253.0</ele>
<speed>1.57</speed>
<course>194.4</course>
<desc>Speed 5.7 km/h Distance 0.95 km</desc>
<time>2010-10-23T16:47:05.70</time>
<name>625</name>
</trkpt>
<trkpt lat="48.953130" lon="8.643073">
<ele>253.0</ele>
<speed>1.55</speed>
<course>198.1</course>
<desc>Speed 5.6 km/h Distance 0.95 km</desc>
<time>2010-10-23T16:47:06.70</time>
<name>626</name>
</trkpt>
<trkpt lat="48.953117" lon="8.643067">
<ele>253.0</ele>
<speed>1.59</speed>
<course>183.8</course>
<desc>Speed 5.7 km/h Distance 0.95 km</desc>
<time>2010-10-23T16:47:07.70</time>
<name>627</name>
</trkpt>
<trkpt lat="48.953102" lon="8.643065">
<ele>253.0</ele>
<speed>1.63</speed>
<course>189.0</course>
<desc>Speed 5.9 km/h Distance 0.95 km</desc>
<time>2010-10-23T16:47:08.70</time>
<name>628</name>
</trkpt>
<trkpt lat="48.953088" lon="8.643062">
<ele>253.0</ele>
<speed>1.52</speed>
<course>178.8</course>
<desc>Speed 5.5 km/h Distance 0.95 km</desc>
<time>2010-10-23T16:47:09.70</time>
<name>629</name>
</trkpt>
<trkpt lat="48.953075" lon="8.643062">
<ele>252.5</ele>
<speed>1.41</speed>
<course>178.8</course>
<desc>Speed 5.1 km/h Distance 0.96 km</desc>
<time>2010-10-23T16:47:10.70</time>
<name>630</name>
</trkpt>
<trkpt lat="48.953062" lon="8.643062">
<ele>252.5</ele>
<speed>1.44</speed>
<course>189.5</course>
<desc>Speed 5.2 km/h Distance 0.96 km</desc>
<time>2010-10-23T16:47:11.70</time>
<name>631</name>
</trkpt>
<trkpt lat="48.953050" lon="8.643058">
<ele>252.0</ele>
<speed>1.36</speed>
<course>183.8</course>
<desc>Speed 4.9 km/h Distance 0.96 km</desc>
<time>2010-10-23T16:47:12.70</time>
<name>632</name>
</trkpt>
<trkpt lat="48.953035" lon="8.643057">
<ele>252.0</ele>
<speed>1.54</speed>
<course>184.7</course>
<desc>Speed 5.5 km/h Distance 0.96 km</desc>
<time>2010-10-23T16:47:13.70</time>
<name>633</name>
</trkpt>
<trkpt lat="48.953023" lon="8.643055">
<ele>252.0</ele>
<speed>1.42</speed>
<course>178.8</course>
<desc>Speed 5.1 km/h Distance 0.96 km</desc>
<time>2010-10-23T16:47:14.70</time>
<name>634</name>
</trkpt>
<trkpt lat="48.953010" lon="8.643055">
<ele>252.0</ele>
<speed>1.47</speed>
<course>172.3</course>
<desc>Speed 5.3 km/h Distance 0.96 km</desc>
<time>2010-10-23T16:47:15.70</time>
<name>635</name>
</trkpt>
<trkpt lat="48.952993" lon="8.643058">
<ele>252.5</ele>
<speed>1.62</speed>
<course>172.5</course>
<desc>Speed 5.8 km/h Distance 0.96 km</desc>
<time>2010-10-23T16:47:16.70</time>
<name>636</name>
</trkpt>
<trkpt lat="48.952978" lon="8.643062">
<ele>252.5</ele>
<speed>1.64</speed>
<course>171.2</course>
<desc>Speed 5.9 km/h Distance 0.97 km</desc>
<time>2010-10-23T16:47:17.70</time>
<name>637</name>
</trkpt>
<trkpt lat="48.952963" lon="8.643065">
<ele>252.5</ele>
<speed>1.63</speed>
<course>176.2</course>
<desc>Speed 5.9 km/h Distance 0.97 km</desc>
<time>2010-10-23T16:47:18.70</time>
<name>638</name>
</trkpt>
<trkpt lat="48.952948" lon="8.643067">
<ele>252.5</ele>
<speed>1.60</speed>
<course>176.2</course>
<desc>Speed 5.8 km/h Distance 0.97 km</desc>
<time>2010-10-23T16:47:19.70</time>
<name>639</name>
</trkpt>
<trkpt lat="48.952933" lon="8.643068">
<ele>252.5</ele>
<speed>1.52</speed>
<course>176.1</course>
<desc>Speed 5.5 km/h Distance 0.97 km</desc>
<time>2010-10-23T16:47:20.70</time>
<name>640</name>
</trkpt>
<trkpt lat="48.952920" lon="8.643070">
<ele>252.5</ele>
<speed>1.60</speed>
<course>171.2</course>
<desc>Speed 5.8 km/h Distance 0.97 km</desc>
<time>2010-10-23T16:47:21.70</time>
<name>641</name>
</trkpt>
<trkpt lat="48.952905" lon="8.643073">
<ele>252.5</ele>
<speed>1.62</speed>
<course>171.9</course>
<desc>Speed 5.8 km/h Distance 0.97 km</desc>
<time>2010-10-23T16:47:22.70</time>
<name>642</name>
</trkpt>
<trkpt lat="48.952890" lon="8.643077">
<ele>252.5</ele>
<speed>1.58</speed>
<course>161.9</course>
<desc>Speed 5.7 km/h Distance 0.98 km</desc>
<time>2010-10-23T16:47:23.70</time>
<name>643</name>
</trkpt>
<trkpt lat="48.952877" lon="8.643083">
<ele>252.5</ele>
<speed>1.58</speed>
<course>171.2</course>
<desc>Speed 5.7 km/h Distance 0.98 km</desc>
<time>2010-10-23T16:47:24.70</time>
<name>644</name>
</trkpt>
<trkpt lat="48.952862" lon="8.643087">
<ele>252.5</ele>
<speed>1.53</speed>
<course>166.5</course>
<desc>Speed 5.5 km/h Distance 0.98 km</desc>
<time>2010-10-23T16:47:25.70</time>
<name>645</name>
</trkpt>
<trkpt lat="48.952848" lon="8.643092">
<ele>252.5</ele>
<speed>1.54</speed>
<course>171.9</course>
<desc>Speed 5.5 km/h Distance 0.98 km</desc>
<time>2010-10-23T16:47:26.70</time>
<name>646</name>
</trkpt>
<trkpt lat="48.952833" lon="8.643095">
<ele>252.5</ele>
<speed>1.59</speed>
<course>161.9</course>
<desc>Speed 5.7 km/h Distance 0.98 km</desc>
<time>2010-10-23T16:47:27.70</time>
<name>647</name>
</trkpt>
<trkpt lat="48.952820" lon="8.643102">
<ele>253.0</ele>
<speed>1.51</speed>
<course>161.9</course>
<desc>Speed 5.4 km/h Distance 0.98 km</desc>
<time>2010-10-23T16:47:28.70</time>
<name>648</name>
</trkpt>
<trkpt lat="48.952807" lon="8.643108">
<ele>253.0</ele>
<speed>1.54</speed>
<course>161.9</course>
<desc>Speed 5.5 km/h Distance 0.99 km</desc>
<time>2010-10-23T16:47:29.70</time>
<name>649</name>
</trkpt>
<trkpt lat="48.952793" lon="8.643115">
<ele>253.0</ele>
<speed>1.59</speed>
<course>166.0</course>
<desc>Speed 5.7 km/h Distance 0.99 km</desc>
<time>2010-10-23T16:47:30.70</time>
<name>650</name>
</trkpt>
<trkpt lat="48.952780" lon="8.643120">
<ele>253.0</ele>
<speed>1.50</speed>
<course>166.0</course>
<desc>Speed 5.4 km/h Distance 0.99 km</desc>
<time>2010-10-23T16:47:31.70</time>
<name>651</name>
</trkpt>
<trkpt lat="48.952767" lon="8.643125">
<ele>253.0</ele>
<speed>1.55</speed>
<course>185.3</course>
<desc>Speed 5.6 km/h Distance 0.99 km</desc>
<time>2010-10-23T16:47:32.70</time>
<name>652</name>
</trkpt>
<trkpt lat="48.952753" lon="8.643123">
<ele>251.5</ele>
<speed>1.58</speed>
<course>178.8</course>
<desc>Speed 5.7 km/h Distance 0.99 km</desc>
<time>2010-10-23T16:47:33.70</time>
<name>653</name>
</trkpt>
<trkpt lat="48.952740" lon="8.643123">
<ele>250.5</ele>
<speed>1.46</speed>
<course>181.2</course>
<desc>Speed 5.3 km/h Distance 0.99 km</desc>
<time>2010-10-23T16:47:34.70</time>
<name>654</name>
</trkpt>
<trkpt lat="48.952727" lon="8.643122">
<ele>250.0</ele>
<speed>1.53</speed>
<course>168.4</course>
<desc>Speed 5.5 km/h Distance 1.00 km</desc>
<time>2010-10-23T16:47:35.70</time>
<name>655</name>
</trkpt>
<trkpt lat="48.952717" lon="8.643125">
<ele>249.5</ele>
<speed>1.08</speed>
<course>171.2</course>
<desc>Speed 3.9 km/h Distance 1.00 km</desc>
<time>2010-10-23T16:47:36.70</time>
<name>656</name>
</trkpt>
<trkpt lat="48.952702" lon="8.643128">
<ele>249.0</ele>
<speed>1.62</speed>
<course>168.8</course>
<desc>Speed 5.8 km/h Distance 1.00 km</desc>
<time>2010-10-23T16:47:37.70</time>
<name>657</name>
</trkpt>
<trkpt lat="48.952690" lon="8.643132">
<ele>249.5</ele>
<speed>1.35</speed>
<course>163.4</course>
<desc>Speed 4.9 km/h Distance 1.00 km</desc>
<time>2010-10-23T16:47:38.70</time>
<name>658</name>
</trkpt>
<trkpt lat="48.952675" lon="8.643138">
<ele>250.0</ele>
<speed>1.48</speed>
<course>186.6</course>
<desc>Speed 5.3 km/h Distance 1.00 km</desc>
<time>2010-10-23T16:47:39.70</time>
<name>659</name>
</trkpt>
<trkpt lat="48.952665" lon="8.643137">
<ele>250.0</ele>
<speed>1.14</speed>
<course>166.5</course>
<desc>Speed 4.1 km/h Distance 1.00 km</desc>
<time>2010-10-23T16:47:40.70</time>
<name>660</name>
</trkpt>
<trkpt lat="48.952652" lon="8.643142">
<ele>250.5</ele>
<speed>1.42</speed>
<course>171.0</course>
<desc>Speed 5.1 km/h Distance 1.00 km</desc>
<time>2010-10-23T16:47:41.70</time>
<name>661</name>
</trkpt>
<trkpt lat="48.952638" lon="8.643145">
<ele>250.5</ele>
<speed>1.36</speed>
<course>153.8</course>
<desc>Speed 4.9 km/h Distance 1.01 km</desc>
<time>2010-10-23T16:47:42.70</time>
<name>662</name>
</trkpt>
<trkpt lat="48.952625" lon="8.643155">
<ele>251.0</ele>
<speed>1.62</speed>
<course>156.5</course>
<desc>Speed 5.8 km/h Distance 1.01 km</desc>
<time>2010-10-23T16:47:43.70</time>
<name>663</name>
</trkpt>
<trkpt lat="48.952610" lon="8.643165">
<ele>252.0</ele>
<speed>1.52</speed>
<course>176.1</course>
<desc>Speed 5.5 km/h Distance 1.01 km</desc>
<time>2010-10-23T16:47:44.70</time>
<name>664</name>
</trkpt>
<trkpt lat="48.952597" lon="8.643167">
<ele>252.0</ele>
<speed>1.34</speed>
<course>171.0</course>
<desc>Speed 4.8 km/h Distance 1.01 km</desc>
<time>2010-10-23T16:47:45.70</time>
<name>665</name>
</trkpt>
<trkpt lat="48.952583" lon="8.643170">
<ele>252.5</ele>
<speed>1.47</speed>
<course>173.4</course>
<desc>Speed 5.3 km/h Distance 1.01 km</desc>
<time>2010-10-23T16:47:46.70</time>
<name>666</name>
</trkpt>
<trkpt lat="48.952573" lon="8.643172">
<ele>253.0</ele>
<speed>1.14</speed>
<course>161.9</course>
<desc>Speed 4.1 km/h Distance 1.01 km</desc>
<time>2010-10-23T16:47:47.70</time>
<name>667</name>
</trkpt>
<trkpt lat="48.952560" lon="8.643178">
<ele>253.0</ele>
<speed>1.48</speed>
<course>159.8</course>
<desc>Speed 5.3 km/h Distance 1.01 km</desc>
<time>2010-10-23T16:47:48.70</time>
<name>668</name>
</trkpt>
<trkpt lat="48.952548" lon="8.643185">
<ele>254.0</ele>
<speed>1.34</speed>
<course>164.0</course>
<desc>Speed 4.8 km/h Distance 1.02 km</desc>
<time>2010-10-23T16:47:49.70</time>
<name>669</name>
</trkpt>
<trkpt lat="48.952537" lon="8.643190">
<ele>254.0</ele>
<speed>1.29</speed>
<course>156.2</course>
<desc>Speed 4.6 km/h Distance 1.02 km</desc>
<time>2010-10-23T16:47:50.70</time>
<name>670</name>
</trkpt>
<trkpt lat="48.952527" lon="8.643197">
<ele>254.0</ele>
<speed>1.15</speed>
<course>141.9</course>
<desc>Speed 4.1 km/h Distance 1.02 km</desc>
<time>2010-10-23T16:47:51.70</time>
<name>671</name>
</trkpt>
<trkpt lat="48.952518" lon="8.643207">
<ele>254.5</ele>
<speed>1.25</speed>
<course>143.4</course>
<desc>Speed 4.5 km/h Distance 1.02 km</desc>
<time>2010-10-23T16:47:52.70</time>
<name>672</name>
</trkpt>
<trkpt lat="48.952505" lon="8.643222">
<ele>256.0</ele>
<speed>1.69</speed>
<course>137.7</course>
<desc>Speed 6.1 km/h Distance 1.02 km</desc>
<time>2010-10-23T16:47:53.70</time>
<name>673</name>
</trkpt>
<trkpt lat="48.952497" lon="8.643233">
<ele>256.5</ele>
<speed>1.27</speed>
<course>142.5</course>
<desc>Speed 4.6 km/h Distance 1.02 km</desc>
<time>2010-10-23T16:47:54.70</time>
<name>674</name>
</trkpt>
<trkpt lat="48.952487" lon="8.643245">
<ele>257.0</ele>
<speed>1.22</speed>
<course>166.5</course>
<desc>Speed 4.4 km/h Distance 1.02 km</desc>
<time>2010-10-23T16:47:55.70</time>
<name>675</name>
</trkpt>
<trkpt lat="48.952473" lon="8.643250">
<ele>257.0</ele>
<speed>1.41</speed>
<course>137.4</course>
<desc>Speed 5.1 km/h Distance 1.03 km</desc>
<time>2010-10-23T16:47:56.70</time>
<name>676</name>
</trkpt>
<trkpt lat="48.952465" lon="8.643262">
<ele>257.5</ele>
<speed>1.22</speed>
<course>139.0</course>
<desc>Speed 4.4 km/h Distance 1.03 km</desc>
<time>2010-10-23T16:47:57.70</time>
<name>677</name>
</trkpt>
<trkpt lat="48.952455" lon="8.643275">
<ele>258.0</ele>
<speed>1.54</speed>
<course>146.7</course>
<desc>Speed 5.5 km/h Distance 1.03 km</desc>
<time>2010-10-23T16:47:58.70</time>
<name>678</name>
</trkpt>
<trkpt lat="48.952440" lon="8.643290">
<ele>259.0</ele>
<speed>1.95</speed>
<course>143.1</course>
<desc>Speed 7.0 km/h Distance 1.03 km</desc>
<time>2010-10-23T16:47:59.70</time>
<name>679</name>
</trkpt>
<trkpt lat="48.952428" lon="8.643303">
<ele>260.0</ele>
<speed>1.47</speed>
<course>152.5</course>
<desc>Speed 5.3 km/h Distance 1.03 km</desc>
<time>2010-10-23T16:48:00.70</time>
<name>680</name>
</trkpt>
<trkpt lat="48.952420" lon="8.643310">
<ele>260.0</ele>
<speed>0.97</speed>
<course>151.4</course>
<desc>Speed 3.5 km/h Distance 1.03 km</desc>
<time>2010-10-23T16:48:01.70</time>
<name>681</name>
</trkpt>
<trkpt lat="48.952410" lon="8.643318">
<ele>259.5</ele>
<speed>1.04</speed>
<course>142.5</course>
<desc>Speed 3.7 km/h Distance 1.03 km</desc>
<time>2010-10-23T16:48:02.70</time>
<name>682</name>
</trkpt>
<trkpt lat="48.952400" lon="8.643330">
<ele>259.5</ele>
<speed>1.35</speed>
<course>139.7</course>
<desc>Speed 4.9 km/h Distance 1.04 km</desc>
<time>2010-10-23T16:48:03.70</time>
<name>683</name>
</trkpt>
<trkpt lat="48.952388" lon="8.643345">
<ele>259.5</ele>
<speed>1.42</speed>
<course>146.6</course>
<desc>Speed 5.1 km/h Distance 1.04 km</desc>
<time>2010-10-23T16:48:04.70</time>
<name>684</name>
</trkpt>
<trkpt lat="48.952377" lon="8.643357">
<ele>260.0</ele>
<speed>1.21</speed>
<course>150.2</course>
<desc>Speed 4.4 km/h Distance 1.04 km</desc>
<time>2010-10-23T16:48:05.70</time>
<name>685</name>
</trkpt>
<trkpt lat="48.952363" lon="8.643368">
<ele>259.0</ele>
<speed>1.49</speed>
<course>130.3</course>
<desc>Speed 5.4 km/h Distance 1.04 km</desc>
<time>2010-10-23T16:48:06.70</time>
<name>686</name>
</trkpt>
<trkpt lat="48.952355" lon="8.643383">
<ele>258.5</ele>
<speed>1.09</speed>
<course>138.8</course>
<desc>Speed 3.9 km/h Distance 1.04 km</desc>
<time>2010-10-23T16:48:07.70</time>
<name>687</name>
</trkpt>
<trkpt lat="48.952345" lon="8.643397">
<ele>259.0</ele>
<speed>1.24</speed>
<course>127.2</course>
<desc>Speed 4.5 km/h Distance 1.04 km</desc>
<time>2010-10-23T16:48:08.70</time>
<name>688</name>
</trkpt>
<trkpt lat="48.952337" lon="8.643413">
<ele>259.0</ele>
<speed>1.28</speed>
<course>146.8</course>
<desc>Speed 4.6 km/h Distance 1.05 km</desc>
<time>2010-10-23T16:48:09.70</time>
<name>689</name>
</trkpt>
<trkpt lat="48.952327" lon="8.643423">
<ele>259.5</ele>
<speed>1.07</speed>
<course>138.8</course>
<desc>Speed 3.9 km/h Distance 1.05 km</desc>
<time>2010-10-23T16:48:10.70</time>
<name>690</name>
</trkpt>
<trkpt lat="48.952317" lon="8.643437">
<ele>260.0</ele>
<speed>1.22</speed>
<course>132.5</course>
<desc>Speed 4.4 km/h Distance 1.05 km</desc>
<time>2010-10-23T16:48:11.70</time>
<name>691</name>
</trkpt>
<trkpt lat="48.952307" lon="8.643453">
<ele>260.0</ele>
<speed>1.49</speed>
<course>130.3</course>
<desc>Speed 5.4 km/h Distance 1.05 km</desc>
<time>2010-10-23T16:48:12.70</time>
<name>692</name>
</trkpt>
<trkpt lat="48.952298" lon="8.643468">
<ele>259.5</ele>
<speed>1.20</speed>
<course>116.9</course>
<desc>Speed 4.3 km/h Distance 1.05 km</desc>
<time>2010-10-23T16:48:13.70</time>
<name>693</name>
</trkpt>
<trkpt lat="48.952293" lon="8.643483">
<ele>259.5</ele>
<speed>1.07</speed>
<course>133.6</course>
<desc>Speed 3.9 km/h Distance 1.05 km</desc>
<time>2010-10-23T16:48:14.70</time>
<name>694</name>
</trkpt>
<trkpt lat="48.952285" lon="8.643497">
<ele>259.5</ele>
<speed>1.12</speed>
<course>127.3</course>
<desc>Speed 4.0 km/h Distance 1.05 km</desc>
<time>2010-10-23T16:48:15.70</time>
<name>695</name>
</trkpt>
<trkpt lat="48.952275" lon="8.643517">
<ele>260.0</ele>
<speed>1.79</speed>
<course>129.7</course>
<desc>Speed 6.4 km/h Distance 1.06 km</desc>
<time>2010-10-23T16:48:16.70</time>
<name>696</name>
</trkpt>
<trkpt lat="48.952265" lon="8.643535">
<ele>260.5</ele>
<speed>1.71</speed>
<course>131.6</course>
<desc>Speed 6.2 km/h Distance 1.06 km</desc>
<time>2010-10-23T16:48:17.70</time>
<name>697</name>
</trkpt>
<trkpt lat="48.952253" lon="8.643555">
<ele>261.5</ele>
<speed>1.65</speed>
<course>130.2</course>
<desc>Speed 5.9 km/h Distance 1.06 km</desc>
<time>2010-10-23T16:48:18.70</time>
<name>698</name>
</trkpt>
<trkpt lat="48.952245" lon="8.643570">
<ele>262.0</ele>
<speed>1.25</speed>
<course>146.7</course>
<desc>Speed 4.5 km/h Distance 1.06 km</desc>
<time>2010-10-23T16:48:19.70</time>
<name>699</name>
</trkpt>
<trkpt lat="48.952233" lon="8.643582">
<ele>261.5</ele>
<speed>1.26</speed>
<course>132.5</course>
<desc>Speed 4.5 km/h Distance 1.06 km</desc>
<time>2010-10-23T16:48:20.70</time>
<name>700</name>
</trkpt>
<trkpt lat="48.952223" lon="8.643598">
<ele>262.0</ele>
<speed>1.44</speed>
<course>124.7</course>
<desc>Speed 5.2 km/h Distance 1.06 km</desc>
<time>2010-10-23T16:48:21.70</time>
<name>701</name>
</trkpt>
<trkpt lat="48.952215" lon="8.643617">
<ele>262.5</ele>
<speed>1.37</speed>
<course>161.6</course>
<desc>Speed 4.9 km/h Distance 1.07 km</desc>
<time>2010-10-23T16:48:22.70</time>
<name>702</name>
</trkpt>
<trkpt lat="48.952202" lon="8.643623">
<ele>261.5</ele>
<speed>1.32</speed>
<course>131.6</course>
<desc>Speed 4.8 km/h Distance 1.07 km</desc>
<time>2010-10-23T16:48:23.70</time>
<name>703</name>
</trkpt>
<trkpt lat="48.952190" lon="8.643643">
<ele>262.0</ele>
<speed>1.74</speed>
<course>105.5</course>
<desc>Speed 6.3 km/h Distance 1.07 km</desc>
<time>2010-10-23T16:48:24.70</time>
<name>704</name>
</trkpt>
<trkpt lat="48.952187" lon="8.643662">
<ele>263.0</ele>
<speed>0.86</speed>
<course>138.2</course>
<desc>Speed 3.1 km/h Distance 1.07 km</desc>
<time>2010-10-23T16:48:25.70</time>
<name>705</name>
</trkpt>
<trkpt lat="48.952168" lon="8.643687">
<ele>264.5</ele>
<speed>2.20</speed>
<course>146.8</course>
<desc>Speed 7.9 km/h Distance 1.07 km</desc>
<time>2010-10-23T16:48:26.70</time>
<name>706</name>
</trkpt>
<trkpt lat="48.952160" lon="8.643695">
<ele>265.0</ele>
<speed>1.12</speed>
<course>152.1</course>
<desc>Speed 4.0 km/h Distance 1.07 km</desc>
<time>2010-10-23T16:48:27.70</time>
<name>707</name>
</trkpt>
<trkpt lat="48.952152" lon="8.643702">
<ele>264.0</ele>
<speed>0.95</speed>
<course>146.7</course>
<desc>Speed 3.4 km/h Distance 1.08 km</desc>
<time>2010-10-23T16:48:28.70</time>
<name>708</name>
</trkpt>
<trkpt lat="48.952140" lon="8.643713">
<ele>264.5</ele>
<speed>1.38</speed>
<course>157.9</course>
<desc>Speed 5.0 km/h Distance 1.08 km</desc>
<time>2010-10-23T16:48:29.70</time>
<name>709</name>
</trkpt>
<trkpt lat="48.952127" lon="8.643722">
<ele>264.0</ele>
<speed>1.61</speed>
<course>131.6</course>
<desc>Speed 5.8 km/h Distance 1.08 km</desc>
<time>2010-10-23T16:48:30.70</time>
<name>710</name>
</trkpt>
<trkpt lat="48.952115" lon="8.643742">
<ele>265.5</ele>
<speed>1.86</speed>
<course>158.5</course>
<desc>Speed 6.7 km/h Distance 1.08 km</desc>
<time>2010-10-23T16:48:31.70</time>
<name>711</name>
</trkpt>
<trkpt lat="48.952107" lon="8.643747">
<ele>265.5</ele>
<speed>0.92</speed>
<course>157.9</course>
<desc>Speed 3.3 km/h Distance 1.08 km</desc>
<time>2010-10-23T16:48:32.70</time>
<name>712</name>
</trkpt>
<trkpt lat="48.952093" lon="8.643755">
<ele>265.5</ele>
<speed>1.48</speed>
<course>153.1</course>
<desc>Speed 5.3 km/h Distance 1.08 km</desc>
<time>2010-10-23T16:48:33.70</time>
<name>713</name>
</trkpt>
<trkpt lat="48.952078" lon="8.643767">
<ele>265.5</ele>
<speed>1.53</speed>
<course>167.4</course>
<desc>Speed 5.5 km/h Distance 1.08 km</desc>
<time>2010-10-23T16:48:34.70</time>
<name>714</name>
</trkpt>
<trkpt lat="48.952063" lon="8.643772">
<ele>265.5</ele>
<speed>1.41</speed>
<course>143.1</course>
<desc>Speed 5.1 km/h Distance 1.09 km</desc>
<time>2010-10-23T16:48:35.70</time>
<name>715</name>
</trkpt>
<trkpt lat="48.952052" lon="8.643785">
<ele>266.0</ele>
<speed>1.40</speed>
<course>172.3</course>
<desc>Speed 5.0 km/h Distance 1.09 km</desc>
<time>2010-10-23T16:48:36.70</time>
<name>716</name>
</trkpt>
<trkpt lat="48.952035" lon="8.643788">
<ele>265.0</ele>
<speed>1.64</speed>
<course>166.5</course>
<desc>Speed 5.9 km/h Distance 1.09 km</desc>
<time>2010-10-23T16:48:37.70</time>
<name>717</name>
</trkpt>
<trkpt lat="48.952022" lon="8.643793">
<ele>265.5</ele>
<speed>1.47</speed>
<course>159.9</course>
<desc>Speed 5.3 km/h Distance 1.09 km</desc>
<time>2010-10-23T16:48:38.70</time>
<name>718</name>
</trkpt>
<trkpt lat="48.952007" lon="8.643802">
<ele>265.5</ele>
<speed>1.58</speed>
<course>176.2</course>
<desc>Speed 5.7 km/h Distance 1.09 km</desc>
<time>2010-10-23T16:48:39.70</time>
<name>719</name>
</trkpt>
<trkpt lat="48.951992" lon="8.643803">
<ele>265.5</ele>
<speed>1.55</speed>
<course>176.2</course>
<desc>Speed 5.6 km/h Distance 1.09 km</desc>
<time>2010-10-23T16:48:40.70</time>
<name>720</name>
</trkpt>
<trkpt lat="48.951977" lon="8.643805">
<ele>265.0</ele>
<speed>1.50</speed>
<course>168.8</course>
<desc>Speed 5.4 km/h Distance 1.10 km</desc>
<time>2010-10-23T16:48:41.70</time>
<name>721</name>
</trkpt>
<trkpt lat="48.951960" lon="8.643810">
<ele>265.5</ele>
<speed>1.59</speed>
<course>163.4</course>
<desc>Speed 5.7 km/h Distance 1.10 km</desc>
<time>2010-10-23T16:48:42.70</time>
<name>722</name>
</trkpt>
<trkpt lat="48.951945" lon="8.643817">
<ele>265.5</ele>
<speed>1.65</speed>
<course>167.4</course>
<desc>Speed 5.9 km/h Distance 1.10 km</desc>
<time>2010-10-23T16:48:43.70</time>
<name>723</name>
</trkpt>
<trkpt lat="48.951930" lon="8.643822">
<ele>265.5</ele>
<speed>1.60</speed>
<course>157.7</course>
<desc>Speed 5.8 km/h Distance 1.10 km</desc>
<time>2010-10-23T16:48:44.70</time>
<name>724</name>
</trkpt>
<trkpt lat="48.951917" lon="8.643830">
<ele>265.5</ele>
<speed>1.57</speed>
<course>176.2</course>
<desc>Speed 5.7 km/h Distance 1.10 km</desc>
<time>2010-10-23T16:48:45.70</time>
<name>725</name>
</trkpt>
<trkpt lat="48.951902" lon="8.643832">
<ele>264.5</ele>
<speed>1.55</speed>
<course>177.2</course>
<desc>Speed 5.6 km/h Distance 1.11 km</desc>
<time>2010-10-23T16:48:46.70</time>
<name>726</name>
</trkpt>
<trkpt lat="48.951885" lon="8.643833">
<ele>264.0</ele>
<speed>1.62</speed>
<course>159.9</course>
<desc>Speed 5.8 km/h Distance 1.11 km</desc>
<time>2010-10-23T16:48:47.70</time>
<name>727</name>
</trkpt>
<trkpt lat="48.951870" lon="8.643842">
<ele>264.0</ele>
<speed>1.54</speed>
<course>168.8</course>
<desc>Speed 5.5 km/h Distance 1.11 km</desc>
<time>2010-10-23T16:48:48.70</time>
<name>728</name>
</trkpt>
<trkpt lat="48.951858" lon="8.643845">
<ele>264.0</ele>
<speed>1.28</speed>
<course>171.2</course>
<desc>Speed 4.6 km/h Distance 1.11 km</desc>
<time>2010-10-23T16:48:49.70</time>
<name>729</name>
</trkpt>
<trkpt lat="48.951843" lon="8.643848">
<ele>264.5</ele>
<speed>1.37</speed>
<course>161.9</course>
<desc>Speed 4.9 km/h Distance 1.11 km</desc>
<time>2010-10-23T16:48:50.70</time>
<name>730</name>
</trkpt>
<trkpt lat="48.951830" lon="8.643855">
<ele>264.5</ele>
<speed>1.37</speed>
<course>154.8</course>
<desc>Speed 4.9 km/h Distance 1.11 km</desc>
<time>2010-10-23T16:48:51.70</time>
<name>731</name>
</trkpt>
<trkpt lat="48.951818" lon="8.643863">
<ele>265.0</ele>
<speed>1.35</speed>
<course>166.5</course>
<desc>Speed 4.9 km/h Distance 1.11 km</desc>
<time>2010-10-23T16:48:52.70</time>
<name>732</name>
</trkpt>
<trkpt lat="48.951805" lon="8.643868">
<ele>265.5</ele>
<speed>1.30</speed>
<course>156.3</course>
<desc>Speed 4.7 km/h Distance 1.12 km</desc>
<time>2010-10-23T16:48:53.70</time>
<name>733</name>
</trkpt>
<trkpt lat="48.951790" lon="8.643878">
<ele>266.0</ele>
<speed>1.50</speed>
<course>165.1</course>
<desc>Speed 5.4 km/h Distance 1.12 km</desc>
<time>2010-10-23T16:48:54.70</time>
<name>734</name>
</trkpt>
<trkpt lat="48.951778" lon="8.643883">
<ele>266.5</ele>
<speed>1.34</speed>
<course>150.8</course>
<desc>Speed 4.8 km/h Distance 1.12 km</desc>
<time>2010-10-23T16:48:55.70</time>
<name>735</name>
</trkpt>
<trkpt lat="48.951767" lon="8.643893">
<ele>267.0</ele>
<speed>1.42</speed>
<course>154.0</course>
<desc>Speed 5.1 km/h Distance 1.12 km</desc>
<time>2010-10-23T16:48:56.70</time>
<name>736</name>
</trkpt>
<trkpt lat="48.951753" lon="8.643903">
<ele>267.5</ele>
<speed>1.44</speed>
<course>135.4</course>
<desc>Speed 5.2 km/h Distance 1.12 km</desc>
<time>2010-10-23T16:48:57.70</time>
<name>737</name>
</trkpt>
<trkpt lat="48.951737" lon="8.643928">
<ele>270.5</ele>
<speed>1.36</speed>
<course>150.6</course>
<desc>Speed 4.9 km/h Distance 1.13 km</desc>
<time>2010-10-23T16:48:58.70</time>
<name>738</name>
</trkpt>
<trkpt lat="48.951725" lon="8.643938">
<ele>271.5</ele>
<speed>1.39</speed>
<course>154.0</course>
<desc>Speed 5.0 km/h Distance 1.13 km</desc>
<time>2010-10-23T16:48:59.70</time>
<name>739</name>
</trkpt>
<trkpt lat="48.951712" lon="8.643948">
<ele>272.0</ele>
<speed>1.51</speed>
<course>152.8</course>
<desc>Speed 5.4 km/h Distance 1.13 km</desc>
<time>2010-10-23T16:49:00.70</time>
<name>740</name>
</trkpt>
<trkpt lat="48.951697" lon="8.643960">
<ele>272.5</ele>
<speed>1.60</speed>
<course>168.3</course>
<desc>Speed 5.8 km/h Distance 1.13 km</desc>
<time>2010-10-23T16:49:01.70</time>
<name>741</name>
</trkpt>
<trkpt lat="48.951682" lon="8.643965">
<ele>272.5</ele>
<speed>1.50</speed>
<course>163.7</course>
<desc>Speed 5.4 km/h Distance 1.13 km</desc>
<time>2010-10-23T16:49:02.70</time>
<name>742</name>
</trkpt>
<trkpt lat="48.951667" lon="8.643972">
<ele>272.5</ele>
<speed>1.39</speed>
<course>163.4</course>
<desc>Speed 5.0 km/h Distance 1.13 km</desc>
<time>2010-10-23T16:49:03.70</time>
<name>743</name>
</trkpt>
<trkpt lat="48.951652" lon="8.643978">
<ele>272.0</ele>
<speed>1.46</speed>
<course>167.4</course>
<desc>Speed 5.3 km/h Distance 1.14 km</desc>
<time>2010-10-23T16:49:04.70</time>
<name>744</name>
</trkpt>
<trkpt lat="48.951637" lon="8.643983">
<ele>272.0</ele>
<speed>1.33</speed>
<course>166.5</course>
<desc>Speed 4.8 km/h Distance 1.14 km</desc>
<time>2010-10-23T16:49:05.70</time>
<name>745</name>
</trkpt>
<trkpt lat="48.951623" lon="8.643988">
<ele>272.0</ele>
<speed>1.38</speed>
<course>161.9</course>
<desc>Speed 5.0 km/h Distance 1.14 km</desc>
<time>2010-10-23T16:49:06.70</time>
<name>746</name>
</trkpt>
<trkpt lat="48.951610" lon="8.643995">
<ele>272.0</ele>
<speed>1.47</speed>
<course>150.2</course>
<desc>Speed 5.3 km/h Distance 1.14 km</desc>
<time>2010-10-23T16:49:07.70</time>
<name>747</name>
</trkpt>
<trkpt lat="48.951597" lon="8.644007">
<ele>272.5</ele>
<speed>1.58</speed>
<course>163.7</course>
<desc>Speed 5.7 km/h Distance 1.14 km</desc>
<time>2010-10-23T16:49:08.70</time>
<name>748</name>
</trkpt>
<trkpt lat="48.951582" lon="8.644013">
<ele>272.5</ele>
<speed>1.58</speed>
<course>173.5</course>
<desc>Speed 5.7 km/h Distance 1.14 km</desc>
<time>2010-10-23T16:49:09.70</time>
<name>749</name>
</trkpt>
<trkpt lat="48.951565" lon="8.644017">
<ele>272.0</ele>
<speed>1.45</speed>
<course>167.8</course>
<desc>Speed 5.2 km/h Distance 1.15 km</desc>
<time>2010-10-23T16:49:10.70</time>
<name>750</name>
</trkpt>
<trkpt lat="48.951550" lon="8.644022">
<ele>271.5</ele>
<speed>1.39</speed>
<course>164.0</course>
<desc>Speed 5.0 km/h Distance 1.15 km</desc>
<time>2010-10-23T16:49:11.70</time>
<name>751</name>
</trkpt>
<trkpt lat="48.951538" lon="8.644027">
<ele>271.0</ele>
<speed>1.21</speed>
<course>156.3</course>
<desc>Speed 4.4 km/h Distance 1.15 km</desc>
<time>2010-10-23T16:49:12.70</time>
<name>752</name>
</trkpt>
<trkpt lat="48.951523" lon="8.644037">
<ele>271.0</ele>
<speed>1.50</speed>
<course>154.8</course>
<desc>Speed 5.4 km/h Distance 1.15 km</desc>
<time>2010-10-23T16:49:13.70</time>
<name>753</name>
</trkpt>
<trkpt lat="48.951512" lon="8.644045">
<ele>271.5</ele>
<speed>1.28</speed>
<course>175.3</course>
<desc>Speed 4.6 km/h Distance 1.15 km</desc>
<time>2010-10-23T16:49:14.70</time>
<name>754</name>
</trkpt>
<trkpt lat="48.951500" lon="8.644047">
<ele>271.0</ele>
<speed>1.23</speed>
<course>161.2</course>
<desc>Speed 4.4 km/h Distance 1.15 km</desc>
<time>2010-10-23T16:49:15.70</time>
<name>755</name>
</trkpt>
<trkpt lat="48.951487" lon="8.644053">
<ele>271.5</ele>
<speed>1.48</speed>
<course>163.4</course>
<desc>Speed 5.3 km/h Distance 1.15 km</desc>
<time>2010-10-23T16:49:16.70</time>
<name>756</name>
</trkpt>
<trkpt lat="48.951472" lon="8.644060">
<ele>271.5</ele>
<speed>1.49</speed>
<course>152.1</course>
<desc>Speed 5.4 km/h Distance 1.16 km</desc>
<time>2010-10-23T16:49:17.70</time>
<name>757</name>
</trkpt>
<trkpt lat="48.951463" lon="8.644067">
<ele>271.5</ele>
<speed>0.92</speed>
<course>188.1</course>
<desc>Speed 3.3 km/h Distance 1.16 km</desc>
<time>2010-10-23T16:49:18.70</time>
<name>758</name>
</trkpt>
<trkpt lat="48.951448" lon="8.644063">
<ele>270.0</ele>
<speed>1.67</speed>
<course>164.0</course>
<desc>Speed 6.0 km/h Distance 1.16 km</desc>
<time>2010-10-23T16:49:19.70</time>
<name>759</name>
</trkpt>
<trkpt lat="48.951437" lon="8.644068">
<ele>270.0</ele>
<speed>1.21</speed>
<course>166.0</course>
<desc>Speed 4.4 km/h Distance 1.16 km</desc>
<time>2010-10-23T16:49:20.70</time>
<name>760</name>
</trkpt>
<trkpt lat="48.951423" lon="8.644073">
<ele>269.5</ele>
<speed>1.57</speed>
<course>167.8</course>
<desc>Speed 5.7 km/h Distance 1.16 km</desc>
<time>2010-10-23T16:49:21.70</time>
<name>761</name>
</trkpt>
<trkpt lat="48.951408" lon="8.644078">
<ele>269.5</ele>
<speed>1.55</speed>
<course>156.3</course>
<desc>Speed 5.6 km/h Distance 1.16 km</desc>
<time>2010-10-23T16:49:22.70</time>
<name>762</name>
</trkpt>
<trkpt lat="48.951393" lon="8.644088">
<ele>269.5</ele>
<speed>1.70</speed>
<course>173.7</course>
<desc>Speed 6.1 km/h Distance 1.17 km</desc>
<time>2010-10-23T16:49:23.70</time>
<name>763</name>
</trkpt>
<trkpt lat="48.951382" lon="8.644090">
<ele>270.0</ele>
<speed>1.14</speed>
<course>171.2</course>
<desc>Speed 4.1 km/h Distance 1.17 km</desc>
<time>2010-10-23T16:49:24.70</time>
<name>764</name>
</trkpt>
<trkpt lat="48.951367" lon="8.644093">
<ele>270.0</ele>
<speed>1.61</speed>
<course>180.0</course>
<desc>Speed 5.8 km/h Distance 1.17 km</desc>
<time>2010-10-23T16:49:25.70</time>
<name>765</name>
</trkpt>
<trkpt lat="48.951355" lon="8.644093">
<ele>270.0</ele>
<speed>1.25</speed>
<course>178.8</course>
<desc>Speed 4.5 km/h Distance 1.17 km</desc>
<time>2010-10-23T16:49:26.70</time>
<name>766</name>
</trkpt>
<trkpt lat="48.951342" lon="8.644093">
<ele>269.5</ele>
<speed>1.52</speed>
<course>175.3</course>
<desc>Speed 5.5 km/h Distance 1.17 km</desc>
<time>2010-10-23T16:49:27.70</time>
<name>767</name>
</trkpt>
<trkpt lat="48.951330" lon="8.644095">
<ele>269.0</ele>
<speed>1.23</speed>
<course>161.6</course>
<desc>Speed 4.4 km/h Distance 1.17 km</desc>
<time>2010-10-23T16:49:28.70</time>
<name>768</name>
</trkpt>
<trkpt lat="48.951317" lon="8.644102">
<ele>269.5</ele>
<speed>1.44</speed>
<course>171.0</course>
<desc>Speed 5.2 km/h Distance 1.17 km</desc>
<time>2010-10-23T16:49:29.70</time>
<name>769</name>
</trkpt>
<trkpt lat="48.951303" lon="8.644105">
<ele>269.5</ele>
<speed>1.57</speed>
<course>181.2</course>
<desc>Speed 5.7 km/h Distance 1.18 km</desc>
<time>2010-10-23T16:49:30.70</time>
<name>770</name>
</trkpt>
<trkpt lat="48.951290" lon="8.644103">
<ele>269.5</ele>
<speed>1.42</speed>
<course>160.1</course>
<desc>Speed 5.1 km/h Distance 1.18 km</desc>
<time>2010-10-23T16:49:31.70</time>
<name>771</name>
</trkpt>
<trkpt lat="48.951275" lon="8.644112">
<ele>270.0</ele>
<speed>1.62</speed>
<course>164.0</course>
<desc>Speed 5.8 km/h Distance 1.18 km</desc>
<time>2010-10-23T16:49:32.70</time>
<name>772</name>
</trkpt>
<trkpt lat="48.951260" lon="8.644118">
<ele>270.0</ele>
<speed>1.46</speed>
<course>176.2</course>
<desc>Speed 5.3 km/h Distance 1.18 km</desc>
<time>2010-10-23T16:49:33.70</time>
<name>773</name>
</trkpt>
<trkpt lat="48.951245" lon="8.644120">
<ele>269.0</ele>
<speed>1.51</speed>
<course>146.8</course>
<desc>Speed 5.4 km/h Distance 1.18 km</desc>
<time>2010-10-23T16:49:34.70</time>
<name>774</name>
</trkpt>
<trkpt lat="48.951235" lon="8.644130">
<ele>270.0</ele>
<speed>1.13</speed>
<course>150.2</course>
<desc>Speed 4.1 km/h Distance 1.18 km</desc>
<time>2010-10-23T16:49:35.70</time>
<name>775</name>
</trkpt>
<trkpt lat="48.951222" lon="8.644142">
<ele>270.5</ele>
<speed>1.48</speed>
<course>163.7</course>
<desc>Speed 5.3 km/h Distance 1.19 km</desc>
<time>2010-10-23T16:49:36.70</time>
<name>776</name>
</trkpt>
<trkpt lat="48.951207" lon="8.644148">
<ele>270.0</ele>
<speed>1.64</speed>
<course>164.0</course>
<desc>Speed 5.9 km/h Distance 1.19 km</desc>
<time>2010-10-23T16:49:37.70</time>
<name>777</name>
</trkpt>
<trkpt lat="48.951192" lon="8.644155">
<ele>270.0</ele>
<speed>1.48</speed>
<course>152.8</course>
<desc>Speed 5.3 km/h Distance 1.19 km</desc>
<time>2010-10-23T16:49:38.70</time>
<name>778</name>
</trkpt>
<trkpt lat="48.951177" lon="8.644167">
<ele>270.5</ele>
<speed>1.44</speed>
<course>156.3</course>
<desc>Speed 5.2 km/h Distance 1.19 km</desc>
<time>2010-10-23T16:49:39.70</time>
<name>779</name>
</trkpt>
<trkpt lat="48.951162" lon="8.644177">
<ele>271.5</ele>
<speed>1.53</speed>
<course>164.0</course>
<desc>Speed 5.5 km/h Distance 1.19 km</desc>
<time>2010-10-23T16:49:40.70</time>
<name>780</name>
</trkpt>
<trkpt lat="48.951147" lon="8.644183">
<ele>271.5</ele>
<speed>1.52</speed>
<course>157.4</course>
<desc>Speed 5.5 km/h Distance 1.19 km</desc>
<time>2010-10-23T16:49:41.70</time>
<name>781</name>
</trkpt>
<trkpt lat="48.951133" lon="8.644192">
<ele>271.5</ele>
<speed>1.52</speed>
<course>161.9</course>
<desc>Speed 5.5 km/h Distance 1.20 km</desc>
<time>2010-10-23T16:49:42.70</time>
<name>782</name>
</trkpt>
<trkpt lat="48.951117" lon="8.644200">
<ele>271.0</ele>
<speed>1.62</speed>
<course>153.0</course>
<desc>Speed 5.8 km/h Distance 1.20 km</desc>
<time>2010-10-23T16:49:43.70</time>
<name>783</name>
</trkpt>
<trkpt lat="48.951102" lon="8.644212">
<ele>271.5</ele>
<speed>1.46</speed>
<course>157.9</course>
<desc>Speed 5.3 km/h Distance 1.20 km</desc>
<time>2010-10-23T16:49:44.70</time>
<name>784</name>
</trkpt>
<trkpt lat="48.951088" lon="8.644220">
<ele>271.5</ele>
<speed>1.46</speed>
<course>164.0</course>
<desc>Speed 5.3 km/h Distance 1.20 km</desc>
<time>2010-10-23T16:49:45.70</time>
<name>785</name>
</trkpt>
<trkpt lat="48.951073" lon="8.644227">
<ele>271.0</ele>
<speed>1.53</speed>
<course>160.3</course>
<desc>Speed 5.5 km/h Distance 1.20 km</desc>
<time>2010-10-23T16:49:46.70</time>
<name>786</name>
</trkpt>
<trkpt lat="48.951055" lon="8.644237">
<ele>270.5</ele>
<speed>1.71</speed>
<course>172.5</course>
<desc>Speed 6.2 km/h Distance 1.21 km</desc>
<time>2010-10-23T16:49:47.70</time>
<name>787</name>
</trkpt>
<trkpt lat="48.951040" lon="8.644240">
<ele>269.5</ele>
<speed>1.55</speed>
<course>159.9</course>
<desc>Speed 5.6 km/h Distance 1.21 km</desc>
<time>2010-10-23T16:49:48.70</time>
<name>788</name>
</trkpt>
<trkpt lat="48.951025" lon="8.644248">
<ele>269.5</ele>
<speed>1.40</speed>
<course>166.5</course>
<desc>Speed 5.0 km/h Distance 1.21 km</desc>
<time>2010-10-23T16:49:49.70</time>
<name>789</name>
</trkpt>
<trkpt lat="48.951012" lon="8.644253">
<ele>270.0</ele>
<speed>1.41</speed>
<course>166.4</course>
<desc>Speed 5.1 km/h Distance 1.21 km</desc>
<time>2010-10-23T16:49:50.70</time>
<name>790</name>
</trkpt>
<trkpt lat="48.950993" lon="8.644260">
<ele>269.5</ele>
<speed>1.59</speed>
<course>171.2</course>
<desc>Speed 5.7 km/h Distance 1.21 km</desc>
<time>2010-10-23T16:49:51.70</time>
<name>791</name>
</trkpt>
<trkpt lat="48.950978" lon="8.644263">
<ele>269.5</ele>
<speed>1.45</speed>
<course>177.8</course>
<desc>Speed 5.2 km/h Distance 1.21 km</desc>
<time>2010-10-23T16:49:52.70</time>
<name>792</name>
</trkpt>
<trkpt lat="48.950955" lon="8.644263">
<ele>268.5</ele>
<speed>2.32</speed>
<course>183.8</course>
<desc>Speed 8.4 km/h Distance 1.22 km</desc>
<time>2010-10-23T16:49:53.70</time>
<name>793</name>
</trkpt>
<trkpt lat="48.950940" lon="8.644262">
<ele>267.5</ele>
<speed>1.22</speed>
<course>166.5</course>
<desc>Speed 4.4 km/h Distance 1.22 km</desc>
<time>2010-10-23T16:49:54.70</time>
<name>794</name>
</trkpt>
<trkpt lat="48.950927" lon="8.644267">
<ele>267.0</ele>
<speed>1.33</speed>
<course>171.2</course>
<desc>Speed 4.8 km/h Distance 1.22 km</desc>
<time>2010-10-23T16:49:55.70</time>
<name>795</name>
</trkpt>
<trkpt lat="48.950912" lon="8.644270">
<ele>267.0</ele>
<speed>1.50</speed>
<course>161.9</course>
<desc>Speed 5.4 km/h Distance 1.22 km</desc>
<time>2010-10-23T16:49:56.70</time>
<name>796</name>
</trkpt>
<trkpt lat="48.950898" lon="8.644277">
<ele>267.0</ele>
<speed>1.39</speed>
<course>171.2</course>
<desc>Speed 5.0 km/h Distance 1.22 km</desc>
<time>2010-10-23T16:49:57.88</time>
<name>797</name>
</trkpt>
<trkpt lat="48.950883" lon="8.644280">
<ele>267.0</ele>
<speed>1.41</speed>
<course>172.3</course>
<desc>Speed 5.1 km/h Distance 1.22 km</desc>
<time>2010-10-23T16:49:58.71</time>
<name>798</name>
</trkpt>
<trkpt lat="48.950867" lon="8.644283">
<ele>267.5</ele>
<speed>1.63</speed>
<course>182.8</course>
<desc>Speed 5.9 km/h Distance 1.23 km</desc>
<time>2010-10-23T16:49:59.71</time>
<name>799</name>
</trkpt>
<trkpt lat="48.950850" lon="8.644282">
<ele>267.5</ele>
<speed>1.41</speed>
<course>183.8</course>
<desc>Speed 5.1 km/h Distance 1.23 km</desc>
<time>2010-10-23T16:50:00.71</time>
<name>800</name>
</trkpt>
<trkpt lat="48.950835" lon="8.644280">
<ele>267.0</ele>
<speed>1.49</speed>
<course>166.0</course>
<desc>Speed 5.4 km/h Distance 1.23 km</desc>
<time>2010-10-23T16:50:01.71</time>
<name>801</name>
</trkpt>
<trkpt lat="48.950822" lon="8.644285">
<ele>267.5</ele>
<speed>1.35</speed>
<course>171.2</course>
<desc>Speed 4.9 km/h Distance 1.23 km</desc>
<time>2010-10-23T16:50:02.71</time>
<name>802</name>
</trkpt>
<trkpt lat="48.950807" lon="8.644288">
<ele>267.5</ele>
<speed>1.38</speed>
<course>166.0</course>
<desc>Speed 5.0 km/h Distance 1.23 km</desc>
<time>2010-10-23T16:50:03.71</time>
<name>803</name>
</trkpt>
<trkpt lat="48.950793" lon="8.644293">
<ele>267.0</ele>
<speed>1.48</speed>
<course>176.2</course>
<desc>Speed 5.3 km/h Distance 1.24 km</desc>
<time>2010-10-23T16:50:04.71</time>
<name>804</name>
</trkpt>
<trkpt lat="48.950778" lon="8.644295">
<ele>267.0</ele>
<speed>1.42</speed>
<course>188.8</course>
<desc>Speed 5.1 km/h Distance 1.24 km</desc>
<time>2010-10-23T16:50:05.71</time>
<name>805</name>
</trkpt>
<trkpt lat="48.950763" lon="8.644292">
<ele>266.5</ele>
<speed>1.37</speed>
<course>185.0</course>
<desc>Speed 4.9 km/h Distance 1.24 km</desc>
<time>2010-10-23T16:50:06.71</time>
<name>806</name>
</trkpt>
<trkpt lat="48.950748" lon="8.644290">
<ele>266.0</ele>
<speed>1.46</speed>
<course>182.8</course>
<desc>Speed 5.3 km/h Distance 1.24 km</desc>
<time>2010-10-23T16:50:07.71</time>
<name>807</name>
</trkpt>
<trkpt lat="48.950732" lon="8.644288">
<ele>266.5</ele>
<speed>1.41</speed>
<course>178.1</course>
<desc>Speed 5.1 km/h Distance 1.24 km</desc>
<time>2010-10-23T16:50:08.71</time>
<name>808</name>
</trkpt>
<trkpt lat="48.950717" lon="8.644288">
<ele>266.5</ele>
<speed>1.54</speed>
<course>178.8</course>
<desc>Speed 5.5 km/h Distance 1.24 km</desc>
<time>2010-10-23T16:50:09.71</time>
<name>809</name>
</trkpt>
<trkpt lat="48.950703" lon="8.644288">
<ele>267.0</ele>
<speed>1.33</speed>
<course>178.8</course>
<desc>Speed 4.8 km/h Distance 1.25 km</desc>
<time>2010-10-23T16:50:10.71</time>
<name>810</name>
</trkpt>
<trkpt lat="48.950690" lon="8.644288">
<ele>267.0</ele>
<speed>1.33</speed>
<course>189.0</course>
<desc>Speed 4.8 km/h Distance 1.25 km</desc>
<time>2010-10-23T16:50:11.71</time>
<name>811</name>
</trkpt>
<trkpt lat="48.950677" lon="8.644285">
<ele>267.0</ele>
<speed>1.23</speed>
<course>180.0</course>
<desc>Speed 4.4 km/h Distance 1.25 km</desc>
<time>2010-10-23T16:50:12.71</time>
<name>812</name>
</trkpt>
<trkpt lat="48.950662" lon="8.644285">
<ele>267.0</ele>
<speed>1.32</speed>
<course>180.0</course>
<desc>Speed 4.8 km/h Distance 1.25 km</desc>
<time>2010-10-23T16:50:13.71</time>
<name>813</name>
</trkpt>
<trkpt lat="48.950650" lon="8.644285">
<ele>267.5</ele>
<speed>1.25</speed>
<course>157.7</course>
<desc>Speed 4.5 km/h Distance 1.25 km</desc>
<time>2010-10-23T16:50:14.71</time>
<name>814</name>
</trkpt>
<trkpt lat="48.950637" lon="8.644293">
<ele>267.5</ele>
<speed>1.50</speed>
<course>174.7</course>
<desc>Speed 5.4 km/h Distance 1.25 km</desc>
<time>2010-10-23T16:50:15.71</time>
<name>815</name>
</trkpt>
<trkpt lat="48.950623" lon="8.644295">
<ele>268.0</ele>
<speed>1.32</speed>
<course>175.3</course>
<desc>Speed 4.8 km/h Distance 1.25 km</desc>
<time>2010-10-23T16:50:16.71</time>
<name>816</name>
</trkpt>
<trkpt lat="48.950612" lon="8.644297">
<ele>268.0</ele>
<speed>1.23</speed>
<course>183.8</course>
<desc>Speed 4.4 km/h Distance 1.26 km</desc>
<time>2010-10-23T16:50:17.71</time>
<name>817</name>
</trkpt>
<trkpt lat="48.950597" lon="8.644295">
<ele>268.0</ele>
<speed>1.59</speed>
<course>166.5</course>
<desc>Speed 5.7 km/h Distance 1.26 km</desc>
<time>2010-10-23T16:50:18.71</time>
<name>818</name>
</trkpt>
<trkpt lat="48.950583" lon="8.644300">
<ele>268.5</ele>
<speed>1.49</speed>
<course>174.7</course>
<desc>Speed 5.4 km/h Distance 1.26 km</desc>
<time>2010-10-23T16:50:19.71</time>
<name>819</name>
</trkpt>
<trkpt lat="48.950570" lon="8.644302">
<ele>269.0</ele>
<speed>1.30</speed>
<course>171.0</course>
<desc>Speed 4.7 km/h Distance 1.26 km</desc>
<time>2010-10-23T16:50:20.71</time>
<name>820</name>
</trkpt>
<trkpt lat="48.950557" lon="8.644305">
<ele>269.5</ele>
<speed>1.37</speed>
<course>180.0</course>
<desc>Speed 4.9 km/h Distance 1.26 km</desc>
<time>2010-10-23T16:50:21.71</time>
<name>821</name>
</trkpt>
<trkpt lat="48.950545" lon="8.644305">
<ele>270.5</ele>
<speed>1.26</speed>
<course>183.8</course>
<desc>Speed 4.5 km/h Distance 1.26 km</desc>
<time>2010-10-23T16:50:22.71</time>
<name>822</name>
</trkpt>
<trkpt lat="48.950530" lon="8.644303">
<ele>270.5</ele>
<speed>1.47</speed>
<course>176.1</course>
<desc>Speed 5.3 km/h Distance 1.26 km</desc>
<time>2010-10-23T16:50:23.71</time>
<name>823</name>
</trkpt>
<trkpt lat="48.950517" lon="8.644305">
<ele>271.0</ele>
<speed>1.51</speed>
<course>180.0</course>
<desc>Speed 5.4 km/h Distance 1.27 km</desc>
<time>2010-10-23T16:50:24.71</time>
<name>824</name>
</trkpt>
<trkpt lat="48.950502" lon="8.644305">
<ele>270.5</ele>
<speed>1.50</speed>
<course>184.7</course>
<desc>Speed 5.4 km/h Distance 1.27 km</desc>
<time>2010-10-23T16:50:25.71</time>
<name>825</name>
</trkpt>
<trkpt lat="48.950490" lon="8.644303">
<ele>270.5</ele>
<speed>1.16</speed>
<course>150.6</course>
<desc>Speed 4.2 km/h Distance 1.27 km</desc>
<time>2010-10-23T16:50:26.71</time>
<name>826</name>
</trkpt>
<trkpt lat="48.950467" lon="8.644323">
<ele>270.5</ele>
<speed>2.85</speed>
<course>216.8</course>
<desc>Speed 10.3 km/h Distance 1.27 km</desc>
<time>2010-10-23T16:50:27.71</time>
<name>827</name>
</trkpt>
<trkpt lat="48.950455" lon="8.644310">
<ele>270.0</ele>
<speed>1.67</speed>
<course>176.2</course>
<desc>Speed 6.0 km/h Distance 1.27 km</desc>
<time>2010-10-23T16:50:28.71</time>
<name>828</name>
</trkpt>
<trkpt lat="48.950440" lon="8.644310">
<ele>270.5</ele>
<speed>1.45</speed>
<course>176.1</course>
<desc>Speed 5.2 km/h Distance 1.28 km</desc>
<time>2010-10-23T16:50:29.71</time>
<name>829</name>
</trkpt>
<trkpt lat="48.950427" lon="8.644310">
<ele>270.5</ele>
<speed>1.34</speed>
<course>198.2</course>
<desc>Speed 4.8 km/h Distance 1.28 km</desc>
<time>2010-10-23T16:50:30.71</time>
<name>830</name>
</trkpt>
<trkpt lat="48.950417" lon="8.644305">
<ele>270.0</ele>
<speed>1.09</speed>
<course>191.2</course>
<desc>Speed 3.9 km/h Distance 1.28 km</desc>
<time>2010-10-23T16:50:31.71</time>
<name>831</name>
</trkpt>
<trkpt lat="48.950405" lon="8.644302">
<ele>270.0</ele>
<speed>1.29</speed>
<course>174.7</course>
<desc>Speed 4.6 km/h Distance 1.28 km</desc>
<time>2010-10-23T16:50:32.71</time>
<name>832</name>
</trkpt>
<trkpt lat="48.950392" lon="8.644303">
<ele>270.0</ele>
<speed>1.36</speed>
<course>178.8</course>
<desc>Speed 4.9 km/h Distance 1.28 km</desc>
<time>2010-10-23T16:50:33.71</time>
<name>833</name>
</trkpt>
<trkpt lat="48.950378" lon="8.644303">
<ele>270.0</ele>
<speed>1.36</speed>
<course>171.0</course>
<desc>Speed 4.9 km/h Distance 1.28 km</desc>
<time>2010-10-23T16:50:34.71</time>
<name>834</name>
</trkpt>
<trkpt lat="48.950365" lon="8.644307">
<ele>270.0</ele>
<speed>1.26</speed>
<course>184.7</course>
<desc>Speed 4.5 km/h Distance 1.28 km</desc>
<time>2010-10-23T16:50:35.71</time>
<name>835</name>
</trkpt>
<trkpt lat="48.950353" lon="8.644305">
<ele>269.5</ele>
<speed>1.19</speed>
<course>178.1</course>
<desc>Speed 4.3 km/h Distance 1.29 km</desc>
<time>2010-10-23T16:50:36.71</time>
<name>836</name>
</trkpt>
<trkpt lat="48.950338" lon="8.644305">
<ele>270.0</ele>
<speed>1.47</speed>
<course>189.0</course>
<desc>Speed 5.3 km/h Distance 1.29 km</desc>
<time>2010-10-23T16:50:37.71</time>
<name>837</name>
</trkpt>
<trkpt lat="48.950325" lon="8.644302">
<ele>269.5</ele>
<speed>1.27</speed>
<course>188.8</course>
<desc>Speed 4.6 km/h Distance 1.29 km</desc>
<time>2010-10-23T16:50:38.71</time>
<name>838</name>
</trkpt>
<trkpt lat="48.950310" lon="8.644298">
<ele>269.5</ele>
<speed>1.48</speed>
<course>187.7</course>
<desc>Speed 5.3 km/h Distance 1.29 km</desc>
<time>2010-10-23T16:50:39.71</time>
<name>839</name>
</trkpt>
<trkpt lat="48.950293" lon="8.644295">
<ele>269.5</ele>
<speed>1.48</speed>
<course>178.8</course>
<desc>Speed 5.3 km/h Distance 1.29 km</desc>
<time>2010-10-23T16:50:40.71</time>
<name>840</name>
</trkpt>
<trkpt lat="48.950280" lon="8.644295">
<ele>270.0</ele>
<speed>1.42</speed>
<course>188.1</course>
<desc>Speed 5.1 km/h Distance 1.29 km</desc>
<time>2010-10-23T16:50:41.71</time>
<name>841</name>
</trkpt>
<trkpt lat="48.950265" lon="8.644292">
<ele>270.5</ele>
<speed>1.35</speed>
<course>185.3</course>
<desc>Speed 4.9 km/h Distance 1.30 km</desc>
<time>2010-10-23T16:50:42.71</time>
<name>842</name>
</trkpt>
<trkpt lat="48.950252" lon="8.644290">
<ele>270.5</ele>
<speed>1.44</speed>
<course>176.2</course>
<desc>Speed 5.2 km/h Distance 1.30 km</desc>
<time>2010-10-23T16:50:43.71</time>
<name>843</name>
</trkpt>
<trkpt lat="48.950237" lon="8.644292">
<ele>270.5</ele>
<speed>1.62</speed>
<course>165.4</course>
<desc>Speed 5.8 km/h Distance 1.30 km</desc>
<time>2010-10-23T16:50:44.71</time>
<name>844</name>
</trkpt>
<trkpt lat="48.950220" lon="8.644298">
<ele>271.0</ele>
<speed>1.50</speed>
<course>180.0</course>
<desc>Speed 5.4 km/h Distance 1.30 km</desc>
<time>2010-10-23T16:50:45.71</time>
<name>845</name>
</trkpt>
<trkpt lat="48.950207" lon="8.644298">
<ele>271.0</ele>
<speed>1.34</speed>
<course>178.8</course>
<desc>Speed 4.8 km/h Distance 1.30 km</desc>
<time>2010-10-23T16:50:46.71</time>
<name>846</name>
</trkpt>
<trkpt lat="48.950193" lon="8.644300">
<ele>271.0</ele>
<speed>1.51</speed>
<course>171.9</course>
<desc>Speed 5.4 km/h Distance 1.30 km</desc>
<time>2010-10-23T16:50:47.71</time>
<name>847</name>
</trkpt>
<trkpt lat="48.950178" lon="8.644303">
<ele>271.5</ele>
<speed>1.51</speed>
<course>174.7</course>
<desc>Speed 5.4 km/h Distance 1.30 km</desc>
<time>2010-10-23T16:50:48.71</time>
<name>848</name>
</trkpt>
<trkpt lat="48.950165" lon="8.644305">
<ele>271.5</ele>
<speed>1.27</speed>
<course>178.1</course>
<desc>Speed 4.6 km/h Distance 1.31 km</desc>
<time>2010-10-23T16:50:49.71</time>
<name>849</name>
</trkpt>
<trkpt lat="48.950150" lon="8.644305">
<ele>271.5</ele>
<speed>1.54</speed>
<course>180.0</course>
<desc>Speed 5.5 km/h Distance 1.31 km</desc>
<time>2010-10-23T16:50:50.71</time>
<name>850</name>
</trkpt>
<trkpt lat="48.950135" lon="8.644305">
<ele>271.0</ele>
<speed>1.30</speed>
<course>180.0</course>
<desc>Speed 4.7 km/h Distance 1.31 km</desc>
<time>2010-10-23T16:50:51.71</time>
<name>851</name>
</trkpt>
<trkpt lat="48.950123" lon="8.644305">
<ele>271.0</ele>
<speed>1.38</speed>
<course>167.4</course>
<desc>Speed 5.0 km/h Distance 1.31 km</desc>
<time>2010-10-23T16:50:52.71</time>
<name>852</name>
</trkpt>
<trkpt lat="48.950108" lon="8.644310">
<ele>271.5</ele>
<speed>1.46</speed>
<course>171.9</course>
<desc>Speed 5.3 km/h Distance 1.31 km</desc>
<time>2010-10-23T16:50:53.71</time>
<name>853</name>
</trkpt>
<trkpt lat="48.950093" lon="8.644313">
<ele>272.0</ele>
<speed>1.47</speed>
<course>167.4</course>
<desc>Speed 5.3 km/h Distance 1.31 km</desc>
<time>2010-10-23T16:50:54.71</time>
<name>854</name>
</trkpt>
<trkpt lat="48.950078" lon="8.644318">
<ele>272.0</ele>
<speed>1.39</speed>
<course>171.2</course>
<desc>Speed 5.0 km/h Distance 1.32 km</desc>
<time>2010-10-23T16:50:55.71</time>
<name>855</name>
</trkpt>
<trkpt lat="48.950063" lon="8.644322">
<ele>272.5</ele>
<speed>1.37</speed>
<course>176.2</course>
<desc>Speed 4.9 km/h Distance 1.32 km</desc>
<time>2010-10-23T16:50:56.71</time>
<name>856</name>
</trkpt>
<trkpt lat="48.950048" lon="8.644323">
<ele>271.5</ele>
<speed>1.40</speed>
<course>170.3</course>
<desc>Speed 5.0 km/h Distance 1.32 km</desc>
<time>2010-10-23T16:50:57.71</time>
<name>857</name>
</trkpt>
<trkpt lat="48.950035" lon="8.644327">
<ele>272.0</ele>
<speed>1.33</speed>
<course>174.7</course>
<desc>Speed 4.8 km/h Distance 1.32 km</desc>
<time>2010-10-23T16:50:58.71</time>
<name>858</name>
</trkpt>
<trkpt lat="48.950022" lon="8.644328">
<ele>272.0</ele>
<speed>1.35</speed>
<course>166.0</course>
<desc>Speed 4.9 km/h Distance 1.32 km</desc>
<time>2010-10-23T16:50:59.71</time>
<name>859</name>
</trkpt>
<trkpt lat="48.950008" lon="8.644333">
<ele>272.5</ele>
<speed>1.39</speed>
<course>168.8</course>
<desc>Speed 5.0 km/h Distance 1.32 km</desc>
<time>2010-10-23T16:51:00.71</time>
<name>860</name>
</trkpt>
<trkpt lat="48.949997" lon="8.644337">
<ele>272.5</ele>
<speed>1.35</speed>
<course>152.8</course>
<desc>Speed 4.9 km/h Distance 1.33 km</desc>
<time>2010-10-23T16:51:01.71</time>
<name>861</name>
</trkpt>
<trkpt lat="48.949982" lon="8.644348">
<ele>273.5</ele>
<speed>1.66</speed>
<course>175.6</course>
<desc>Speed 6.0 km/h Distance 1.33 km</desc>
<time>2010-10-23T16:51:02.71</time>
<name>862</name>
</trkpt>
<trkpt lat="48.949972" lon="8.644350">
<ele>272.0</ele>
<speed>1.00</speed>
<course>164.0</course>
<desc>Speed 3.6 km/h Distance 1.33 km</desc>
<time>2010-10-23T16:51:03.71</time>
<name>863</name>
</trkpt>
<trkpt lat="48.949960" lon="8.644355">
<ele>272.0</ele>
<speed>1.21</speed>
<course>171.0</course>
<desc>Speed 4.4 km/h Distance 1.33 km</desc>
<time>2010-10-23T16:51:04.71</time>
<name>864</name>
</trkpt>
<trkpt lat="48.949947" lon="8.644358">
<ele>271.5</ele>
<speed>1.50</speed>
<course>183.9</course>
<desc>Speed 5.4 km/h Distance 1.33 km</desc>
<time>2010-10-23T16:51:05.71</time>
<name>865</name>
</trkpt>
<trkpt lat="48.949933" lon="8.644357">
<ele>271.0</ele>
<speed>1.36</speed>
<course>175.3</course>
<desc>Speed 4.9 km/h Distance 1.33 km</desc>
<time>2010-10-23T16:51:06.71</time>
<name>866</name>
</trkpt>
<trkpt lat="48.949922" lon="8.644358">
<ele>271.0</ele>
<speed>1.21</speed>
<course>158.5</course>
<desc>Speed 4.4 km/h Distance 1.33 km</desc>
<time>2010-10-23T16:51:07.71</time>
<name>867</name>
</trkpt>
<trkpt lat="48.949913" lon="8.644363">
<ele>271.5</ele>
<speed>0.95</speed>
<course>175.3</course>
<desc>Speed 3.4 km/h Distance 1.33 km</desc>
<time>2010-10-23T16:51:08.71</time>
<name>868</name>
</trkpt>
<trkpt lat="48.949902" lon="8.644365">
<ele>270.5</ele>
<speed>1.14</speed>
<course>176.1</course>
<desc>Speed 4.1 km/h Distance 1.34 km</desc>
<time>2010-10-23T16:51:09.71</time>
<name>869</name>
</trkpt>
<trkpt lat="48.949888" lon="8.644367">
<ele>270.5</ele>
<speed>1.25</speed>
<course>157.7</course>
<desc>Speed 4.5 km/h Distance 1.34 km</desc>
<time>2010-10-23T16:51:10.71</time>
<name>870</name>
</trkpt>
<trkpt lat="48.949875" lon="8.644375">
<ele>271.5</ele>
<speed>1.35</speed>
<course>161.9</course>
<desc>Speed 4.9 km/h Distance 1.34 km</desc>
<time>2010-10-23T16:51:11.71</time>
<name>871</name>
</trkpt>
<trkpt lat="48.949862" lon="8.644382">
<ele>271.0</ele>
<speed>1.37</speed>
<course>157.7</course>
<desc>Speed 4.9 km/h Distance 1.34 km</desc>
<time>2010-10-23T16:51:12.71</time>
<name>872</name>
</trkpt>
<trkpt lat="48.949848" lon="8.644390">
<ele>271.5</ele>
<speed>1.50</speed>
<course>171.9</course>
<desc>Speed 5.4 km/h Distance 1.34 km</desc>
<time>2010-10-23T16:51:13.71</time>
<name>873</name>
</trkpt>
<trkpt lat="48.949833" lon="8.644393">
<ele>271.5</ele>
<speed>1.41</speed>
<course>164.5</course>
<desc>Speed 5.1 km/h Distance 1.34 km</desc>
<time>2010-10-23T16:51:14.71</time>
<name>874</name>
</trkpt>
<trkpt lat="48.949822" lon="8.644398">
<ele>272.0</ele>
<speed>1.35</speed>
<course>157.7</course>
<desc>Speed 4.9 km/h Distance 1.35 km</desc>
<time>2010-10-23T16:51:15.71</time>
<name>875</name>
</trkpt>
<trkpt lat="48.949808" lon="8.644407">
<ele>272.0</ele>
<speed>1.42</speed>
<course>157.9</course>
<desc>Speed 5.1 km/h Distance 1.35 km</desc>
<time>2010-10-23T16:51:16.71</time>
<name>876</name>
</trkpt>
<trkpt lat="48.949795" lon="8.644415">
<ele>272.0</ele>
<speed>1.50</speed>
<course>154.0</course>
<desc>Speed 5.4 km/h Distance 1.35 km</desc>
<time>2010-10-23T16:51:17.71</time>
<name>877</name>
</trkpt>
<trkpt lat="48.949782" lon="8.644425">
<ele>272.0</ele>
<speed>1.51</speed>
<course>166.0</course>
<desc>Speed 5.4 km/h Distance 1.35 km</desc>
<time>2010-10-23T16:51:18.71</time>
<name>878</name>
</trkpt>
<trkpt lat="48.949768" lon="8.644430">
<ele>272.0</ele>
<speed>1.37</speed>
<course>166.5</course>
<desc>Speed 4.9 km/h Distance 1.35 km</desc>
<time>2010-10-23T16:51:19.71</time>
<name>879</name>
</trkpt>
<trkpt lat="48.949755" lon="8.644435">
<ele>272.0</ele>
<speed>1.54</speed>
<course>164.5</course>
<desc>Speed 5.5 km/h Distance 1.35 km</desc>
<time>2010-10-23T16:51:20.71</time>
<name>880</name>
</trkpt>
<trkpt lat="48.949743" lon="8.644440">
<ele>272.0</ele>
<speed>1.25</speed>
<course>159.8</course>
<desc>Speed 4.5 km/h Distance 1.35 km</desc>
<time>2010-10-23T16:51:21.71</time>
<name>881</name>
</trkpt>
<trkpt lat="48.949732" lon="8.644447">
<ele>272.5</ele>
<speed>1.16</speed>
<course>151.4</course>
<desc>Speed 4.2 km/h Distance 1.36 km</desc>
<time>2010-10-23T16:51:22.71</time>
<name>882</name>
</trkpt>
<trkpt lat="48.949722" lon="8.644455">
<ele>272.5</ele>
<speed>1.26</speed>
<course>174.7</course>
<desc>Speed 4.5 km/h Distance 1.36 km</desc>
<time>2010-10-23T16:51:23.71</time>
<name>883</name>
</trkpt>
<trkpt lat="48.949708" lon="8.644457">
<ele>272.0</ele>
<speed>1.35</speed>
<course>164.0</course>
<desc>Speed 4.9 km/h Distance 1.36 km</desc>
<time>2010-10-23T16:51:24.71</time>
<name>884</name>
</trkpt>
<trkpt lat="48.949693" lon="8.644463">
<ele>273.0</ele>
<speed>1.50</speed>
<course>164.0</course>
<desc>Speed 5.4 km/h Distance 1.36 km</desc>
<time>2010-10-23T16:51:25.71</time>
<name>885</name>
</trkpt>
<trkpt lat="48.949682" lon="8.644468">
<ele>272.5</ele>
<speed>1.22</speed>
<course>161.2</course>
<desc>Speed 4.4 km/h Distance 1.36 km</desc>
<time>2010-10-23T16:51:26.71</time>
<name>886</name>
</trkpt>
<trkpt lat="48.949668" lon="8.644475">
<ele>272.5</ele>
<speed>1.37</speed>
<course>177.8</course>
<desc>Speed 4.9 km/h Distance 1.36 km</desc>
<time>2010-10-23T16:51:27.71</time>
<name>887</name>
</trkpt>
<trkpt lat="48.949657" lon="8.644475">
<ele>271.0</ele>
<speed>1.37</speed>
<course>143.1</course>
<desc>Speed 4.9 km/h Distance 1.36 km</desc>
<time>2010-10-23T16:51:28.71</time>
<name>888</name>
</trkpt>
<trkpt lat="48.949645" lon="8.644488">
<ele>272.0</ele>
<speed>1.47</speed>
<course>209.2</course>
<desc>Speed 5.3 km/h Distance 1.37 km</desc>
<time>2010-10-23T16:51:29.71</time>
<name>889</name>
</trkpt>
<trkpt lat="48.949643" lon="8.644487">
<ele>272.5</ele>
<speed>0.60</speed>
<course>151.0</course>
<desc>Speed 2.2 km/h Distance 1.37 km</desc>
<time>2010-10-23T16:51:34.71</time>
<name>890</name>
</trkpt>
<trkpt lat="48.949632" lon="8.644497">
<ele>275.5</ele>
<speed>0.31</speed>
<course>161.2</course>
<desc>Speed 1.1 km/h Distance 1.37 km</desc>
<time>2010-10-23T16:51:42.71</time>
<name>891</name>
</trkpt>
<trkpt lat="48.949625" lon="8.644500">
<ele>275.5</ele>
<speed>0.57</speed>
<course>156.2</course>
<desc>Speed 2.1 km/h Distance 1.37 km</desc>
<time>2010-10-23T16:51:43.71</time>
<name>892</name>
</trkpt>
<trkpt lat="48.949615" lon="8.644507">
<ele>275.5</ele>
<speed>1.09</speed>
<course>154.8</course>
<desc>Speed 3.9 km/h Distance 1.37 km</desc>
<time>2010-10-23T16:51:44.71</time>
<name>893</name>
</trkpt>
<trkpt lat="48.949603" lon="8.644515">
<ele>276.0</ele>
<speed>1.33</speed>
<course>164.5</course>
<desc>Speed 4.8 km/h Distance 1.37 km</desc>
<time>2010-10-23T16:51:45.71</time>
<name>894</name>
</trkpt>
<trkpt lat="48.949592" lon="8.644520">
<ele>276.0</ele>
<speed>1.13</speed>
<course>159.1</course>
<desc>Speed 4.1 km/h Distance 1.37 km</desc>
<time>2010-10-23T16:51:46.71</time>
<name>895</name>
</trkpt>
<trkpt lat="48.949580" lon="8.644527">
<ele>276.0</ele>
<speed>1.09</speed>
<course>154.8</course>
<desc>Speed 3.9 km/h Distance 1.37 km</desc>
<time>2010-10-23T16:51:47.71</time>
<name>896</name>
</trkpt>
<trkpt lat="48.949568" lon="8.644535">
<ele>276.5</ele>
<speed>1.39</speed>
<course>165.1</course>
<desc>Speed 5.0 km/h Distance 1.38 km</desc>
<time>2010-10-23T16:51:48.71</time>
<name>897</name>
</trkpt>
<trkpt lat="48.949552" lon="8.644542">
<ele>277.0</ele>
<speed>1.77</speed>
<course>152.8</course>
<desc>Speed 6.4 km/h Distance 1.38 km</desc>
<time>2010-10-23T16:51:49.71</time>
<name>898</name>
</trkpt>
<trkpt lat="48.949537" lon="8.644553">
<ele>277.5</ele>
<speed>1.57</speed>
<course>157.4</course>
<desc>Speed 5.7 km/h Distance 1.38 km</desc>
<time>2010-10-23T16:51:50.71</time>
<name>899</name>
</trkpt>
<trkpt lat="48.949523" lon="8.644562">
<ele>277.5</ele>
<speed>1.33</speed>
<course>159.9</course>
<desc>Speed 4.8 km/h Distance 1.38 km</desc>
<time>2010-10-23T16:51:51.71</time>
<name>900</name>
</trkpt>
<trkpt lat="48.949508" lon="8.644570">
<ele>277.5</ele>
<speed>1.36</speed>
<course>163.4</course>
<desc>Speed 4.9 km/h Distance 1.38 km</desc>
<time>2010-10-23T16:51:52.71</time>
<name>901</name>
</trkpt>
<trkpt lat="48.949493" lon="8.644577">
<ele>277.5</ele>
<speed>1.52</speed>
<course>171.0</course>
<desc>Speed 5.5 km/h Distance 1.38 km</desc>
<time>2010-10-23T16:51:53.71</time>
<name>902</name>
</trkpt>
<trkpt lat="48.949480" lon="8.644580">
<ele>277.5</ele>
<speed>1.14</speed>
<course>166.5</course>
<desc>Speed 4.1 km/h Distance 1.39 km</desc>
<time>2010-10-23T16:51:54.71</time>
<name>903</name>
</trkpt>
<trkpt lat="48.949467" lon="8.644585">
<ele>277.0</ele>
<speed>1.42</speed>
<course>156.3</course>
<desc>Speed 5.1 km/h Distance 1.39 km</desc>
<time>2010-10-23T16:51:55.71</time>
<name>904</name>
</trkpt>
<trkpt lat="48.949452" lon="8.644595">
<ele>277.5</ele>
<speed>1.59</speed>
<course>164.0</course>
<desc>Speed 5.7 km/h Distance 1.39 km</desc>
<time>2010-10-23T16:51:56.71</time>
<name>905</name>
</trkpt>
<trkpt lat="48.949437" lon="8.644602">
<ele>278.0</ele>
<speed>1.39</speed>
<course>172.5</course>
<desc>Speed 5.0 km/h Distance 1.39 km</desc>
<time>2010-10-23T16:51:57.71</time>
<name>906</name>
</trkpt>
<trkpt lat="48.949422" lon="8.644605">
<ele>277.5</ele>
<speed>1.41</speed>
<course>160.4</course>
<desc>Speed 5.1 km/h Distance 1.39 km</desc>
<time>2010-10-23T16:51:58.71</time>
<name>907</name>
</trkpt>
<trkpt lat="48.949407" lon="8.644613">
<ele>277.5</ele>
<speed>1.38</speed>
<course>150.6</course>
<desc>Speed 5.0 km/h Distance 1.39 km</desc>
<time>2010-10-23T16:51:59.71</time>
<name>908</name>
</trkpt>
<trkpt lat="48.949395" lon="8.644623">
<ele>277.5</ele>
<speed>1.25</speed>
<course>156.3</course>
<desc>Speed 4.5 km/h Distance 1.40 km</desc>
<time>2010-10-23T16:52:00.71</time>
<name>909</name>
</trkpt>
<trkpt lat="48.949380" lon="8.644633">
<ele>278.0</ele>
<speed>1.50</speed>
<course>177.2</course>
<desc>Speed 5.4 km/h Distance 1.40 km</desc>
<time>2010-10-23T16:52:01.71</time>
<name>910</name>
</trkpt>
<trkpt lat="48.949363" lon="8.644633">
<ele>277.0</ele>
<speed>1.58</speed>
<course>154.8</course>
<desc>Speed 5.7 km/h Distance 1.40 km</desc>
<time>2010-10-23T16:52:02.71</time>
<name>911</name>
</trkpt>
<trkpt lat="48.949352" lon="8.644642">
<ele>277.0</ele>
<speed>1.28</speed>
<course>157.4</course>
<desc>Speed 4.6 km/h Distance 1.40 km</desc>
<time>2010-10-23T16:52:03.71</time>
<name>912</name>
</trkpt>
<trkpt lat="48.949338" lon="8.644650">
<ele>277.0</ele>
<speed>1.37</speed>
<course>154.8</course>
<desc>Speed 4.9 km/h Distance 1.40 km</desc>
<time>2010-10-23T16:52:04.71</time>
<name>913</name>
</trkpt>
<trkpt lat="48.949327" lon="8.644658">
<ele>277.0</ele>
<speed>1.37</speed>
<course>180.0</course>
<desc>Speed 4.9 km/h Distance 1.40 km</desc>
<time>2010-10-23T16:52:05.71</time>
<name>914</name>
</trkpt>
<trkpt lat="48.949310" lon="8.644658">
<ele>276.5</ele>
<speed>1.62</speed>
<course>156.3</course>
<desc>Speed 5.8 km/h Distance 1.41 km</desc>
<time>2010-10-23T16:52:06.71</time>
<name>915</name>
</trkpt>
<trkpt lat="48.949295" lon="8.644668">
<ele>276.5</ele>
<speed>1.65</speed>
<course>156.2</course>
<desc>Speed 5.9 km/h Distance 1.41 km</desc>
<time>2010-10-23T16:52:07.71</time>
<name>916</name>
</trkpt>
<trkpt lat="48.949285" lon="8.644675">
<ele>277.0</ele>
<speed>1.22</speed>
<course>157.9</course>
<desc>Speed 4.4 km/h Distance 1.41 km</desc>
<time>2010-10-23T16:52:08.71</time>
<name>917</name>
</trkpt>
<trkpt lat="48.949272" lon="8.644683">
<ele>277.0</ele>
<speed>1.29</speed>
<course>171.2</course>
<desc>Speed 4.6 km/h Distance 1.41 km</desc>
<time>2010-10-23T16:52:09.71</time>
<name>918</name>
</trkpt>
<trkpt lat="48.949257" lon="8.644687">
<ele>276.0</ele>
<speed>1.60</speed>
<course>161.9</course>
<desc>Speed 5.8 km/h Distance 1.41 km</desc>
<time>2010-10-23T16:52:10.71</time>
<name>919</name>
</trkpt>
<trkpt lat="48.949240" lon="8.644695">
<ele>276.0</ele>
<speed>1.62</speed>
<course>151.4</course>
<desc>Speed 5.8 km/h Distance 1.41 km</desc>
<time>2010-10-23T16:52:11.71</time>
<name>920</name>
</trkpt>
<trkpt lat="48.949230" lon="8.644703">
<ele>276.5</ele>
<speed>1.23</speed>
<course>153.8</course>
<desc>Speed 4.4 km/h Distance 1.42 km</desc>
<time>2010-10-23T16:52:12.71</time>
<name>921</name>
</trkpt>
<trkpt lat="48.949217" lon="8.644713">
<ele>276.5</ele>
<speed>1.41</speed>
<course>159.9</course>
<desc>Speed 5.1 km/h Distance 1.42 km</desc>
<time>2010-10-23T16:52:13.71</time>
<name>922</name>
</trkpt>
<trkpt lat="48.949202" lon="8.644722">
<ele>276.5</ele>
<speed>1.72</speed>
<course>155.1</course>
<desc>Speed 6.2 km/h Distance 1.42 km</desc>
<time>2010-10-23T16:52:14.71</time>
<name>923</name>
</trkpt>
<trkpt lat="48.949190" lon="8.644730">
<ele>276.5</ele>
<speed>1.33</speed>
<course>159.1</course>
<desc>Speed 4.8 km/h Distance 1.42 km</desc>
<time>2010-10-23T16:52:15.71</time>
<name>924</name>
</trkpt>
<trkpt lat="48.949178" lon="8.644737">
<ele>276.0</ele>
<speed>1.46</speed>
<course>154.8</course>
<desc>Speed 5.3 km/h Distance 1.42 km</desc>
<time>2010-10-23T16:52:16.71</time>
<name>925</name>
</trkpt>
<trkpt lat="48.949167" lon="8.644745">
<ele>276.0</ele>
<speed>1.38</speed>
<course>171.9</course>
<desc>Speed 5.0 km/h Distance 1.42 km</desc>
<time>2010-10-23T16:52:17.71</time>
<name>926</name>
</trkpt>
<trkpt lat="48.949152" lon="8.644748">
<ele>275.5</ele>
<speed>1.53</speed>
<course>156.3</course>
<desc>Speed 5.5 km/h Distance 1.43 km</desc>
<time>2010-10-23T16:52:18.71</time>
<name>927</name>
</trkpt>
<trkpt lat="48.949137" lon="8.644758">
<ele>276.0</ele>
<speed>1.61</speed>
<course>159.9</course>
<desc>Speed 5.8 km/h Distance 1.43 km</desc>
<time>2010-10-23T16:52:19.71</time>
<name>928</name>
</trkpt>
<trkpt lat="48.949122" lon="8.644767">
<ele>275.5</ele>
<speed>1.64</speed>
<course>154.8</course>
<desc>Speed 5.9 km/h Distance 1.43 km</desc>
<time>2010-10-23T16:52:20.71</time>
<name>929</name>
</trkpt>
<trkpt lat="48.949110" lon="8.644775">
<ele>275.5</ele>
<speed>1.53</speed>
<course>167.8</course>
<desc>Speed 5.5 km/h Distance 1.43 km</desc>
<time>2010-10-23T16:52:21.71</time>
<name>930</name>
</trkpt>
<trkpt lat="48.949095" lon="8.644780">
<ele>275.5</ele>
<speed>1.50</speed>
<course>154.8</course>
<desc>Speed 5.4 km/h Distance 1.43 km</desc>
<time>2010-10-23T16:52:22.71</time>
<name>931</name>
</trkpt>
<trkpt lat="48.949083" lon="8.644788">
<ele>275.5</ele>
<speed>1.32</speed>
<course>154.8</course>
<desc>Speed 4.8 km/h Distance 1.43 km</desc>
<time>2010-10-23T16:52:23.71</time>
<name>932</name>
</trkpt>
<trkpt lat="48.949072" lon="8.644797">
<ele>275.5</ele>
<speed>1.37</speed>
<course>157.7</course>
<desc>Speed 4.9 km/h Distance 1.43 km</desc>
<time>2010-10-23T16:52:24.71</time>
<name>933</name>
</trkpt>
<trkpt lat="48.949058" lon="8.644805">
<ele>276.0</ele>
<speed>1.45</speed>
<course>155.1</course>
<desc>Speed 5.2 km/h Distance 1.44 km</desc>
<time>2010-10-23T16:52:25.71</time>
<name>934</name>
</trkpt>
<trkpt lat="48.949047" lon="8.644813">
<ele>276.0</ele>
<speed>1.33</speed>
<course>156.5</course>
<desc>Speed 4.8 km/h Distance 1.44 km</desc>
<time>2010-10-23T16:52:26.71</time>
<name>935</name>
</trkpt>
<trkpt lat="48.949032" lon="8.644823">
<ele>276.5</ele>
<speed>1.66</speed>
<course>167.4</course>
<desc>Speed 6.0 km/h Distance 1.44 km</desc>
<time>2010-10-23T16:52:27.71</time>
<name>936</name>
</trkpt>
<trkpt lat="48.949022" lon="8.644827">
<ele>276.5</ele>
<speed>1.08</speed>
<course>249.1</course>
<desc>Speed 3.9 km/h Distance 1.44 km</desc>
<time>2010-10-23T16:52:28.71</time>
<name>937</name>
</trkpt>
<trkpt lat="48.949020" lon="8.644820">
<ele>277.0</ele>
<speed>0.62</speed>
<course>22.2</course>
<desc>Speed 2.2 km/h Distance 1.44 km</desc>
<time>2010-10-23T16:52:29.71</time>
<name>938</name>
</trkpt>
<trkpt lat="48.949025" lon="8.644823">
<ele>277.5</ele>
<speed>0.64</speed>
<course>338.5</course>
<desc>Speed 2.3 km/h Distance 1.44 km</desc>
<time>2010-10-23T16:52:30.71</time>
<name>939</name>
</trkpt>
<trkpt lat="48.949050" lon="8.644808">
<ele>278.0</ele>
<speed>1.02</speed>
<course>162.5</course>
<desc>Speed 3.7 km/h Distance 1.44 km</desc>
<time>2010-10-23T16:52:33.71</time>
<name>940</name>
</trkpt>
<trkpt lat="48.949043" lon="8.644812">
<ele>277.5</ele>
<speed>0.68</speed>
<course>180.6</course>
<desc>Speed 2.4 km/h Distance 1.45 km</desc>
<time>2010-10-23T16:52:34.71</time>
<name>941</name>
</trkpt>
<trkpt lat="48.948997" lon="8.644810">
<ele>275.0</ele>
<speed>0.40</speed>
<course>187.4</course>
<desc>Speed 1.4 km/h Distance 1.45 km</desc>
<time>2010-10-23T16:52:44.81</time>
<name>942</name>
</trkpt>
<trkpt lat="48.948990" lon="8.644808">
<ele>275.0</ele>
<speed>0.55</speed>
<course>167.4</course>
<desc>Speed 2.0 km/h Distance 1.45 km</desc>
<time>2010-10-23T16:52:47.23</time>
<name>943</name>
</trkpt>
<trkpt lat="48.948975" lon="8.644813">
<ele>274.5</ele>
<speed>0.72</speed>
<course>163.0</course>
<desc>Speed 2.6 km/h Distance 1.45 km</desc>
<time>2010-10-23T16:52:53.87</time>
<name>944</name>
</trkpt>
<trkpt lat="48.948953" lon="8.644823">
<ele>274.5</ele>
<speed>1.29</speed>
<course>139.3</course>
<desc>Speed 4.6 km/h Distance 1.46 km</desc>
<time>2010-10-23T16:52:58.29</time>
<name>945</name>
</trkpt>
<trkpt lat="48.948862" lon="8.644943">
<ele>275.0</ele>
<speed>5.59</speed>
<course>146.7</course>
<desc>Speed 20.1 km/h Distance 1.47 km</desc>
<time>2010-10-23T16:53:01.99</time>
<name>946</name>
</trkpt>
<trkpt lat="48.948823" lon="8.644982">
<ele>275.0</ele>
<speed>0.56</speed>
<course>161.2</course>
<desc>Speed 2.0 km/h Distance 1.47 km</desc>
<time>2010-10-23T16:53:05.01</time>
<name>947</name>
</trkpt>
<trkpt lat="48.948817" lon="8.644985">
<ele>275.0</ele>
<speed>0.66</speed>
<course>157.9</course>
<desc>Speed 2.4 km/h Distance 1.48 km</desc>
<time>2010-10-23T16:53:06.00</time>
<name>948</name>
</trkpt>
<trkpt lat="48.948803" lon="8.644993">
<ele>275.0</ele>
<speed>1.44</speed>
<course>203.8</course>
<desc>Speed 5.2 km/h Distance 1.48 km</desc>
<time>2010-10-23T16:53:07.04</time>
<name>949</name>
</trkpt>
<trkpt lat="48.948793" lon="8.644987">
<ele>275.5</ele>
<speed>1.09</speed>
<course>174.5</course>
<desc>Speed 3.9 km/h Distance 1.48 km</desc>
<time>2010-10-23T16:53:08.53</time>
<name>950</name>
</trkpt>
<trkpt lat="48.948737" lon="8.644995">
<ele>275.0</ele>
<speed>1.92</speed>
<course>197.6</course>
<desc>Speed 6.9 km/h Distance 1.48 km</desc>
<time>2010-10-23T16:53:11.52</time>
<name>951</name>
</trkpt>
<trkpt lat="48.948727" lon="8.644990">
<ele>276.0</ele>
<speed>0.56</speed>
<course>190.6</course>
<desc>Speed 2.0 km/h Distance 1.49 km</desc>
<time>2010-10-23T16:53:12.52</time>
<name>952</name>
</trkpt>
<trkpt lat="48.948668" lon="8.644973">
<ele>276.5</ele>
<speed>1.60</speed>
<course>168.4</course>
<desc>Speed 5.8 km/h Distance 1.49 km</desc>
<time>2010-10-23T16:53:15.53</time>
<name>953</name>
</trkpt>
<trkpt lat="48.948658" lon="8.644977">
<ele>276.5</ele>
<speed>1.14</speed>
<course>175.3</course>
<desc>Speed 4.1 km/h Distance 1.49 km</desc>
<time>2010-10-23T16:53:16.52</time>
<name>954</name>
</trkpt>
<trkpt lat="48.948647" lon="8.644978">
<ele>277.0</ele>
<speed>0.83</speed>
<course>188.8</course>
<desc>Speed 3.0 km/h Distance 1.49 km</desc>
<time>2010-10-23T16:53:17.51</time>
<name>955</name>
</trkpt>
<trkpt lat="48.948632" lon="8.644975">
<ele>277.5</ele>
<speed>0.94</speed>
<course>191.2</course>
<desc>Speed 3.4 km/h Distance 1.50 km</desc>
<time>2010-10-23T16:53:18.51</time>
<name>956</name>
</trkpt>
<trkpt lat="48.948615" lon="8.644970">
<ele>278.0</ele>
<speed>1.17</speed>
<course>191.2</course>
<desc>Speed 4.2 km/h Distance 1.50 km</desc>
<time>2010-10-23T16:53:19.50</time>
<name>957</name>
</trkpt>
<trkpt lat="48.948603" lon="8.644967">
<ele>277.5</ele>
<speed>0.75</speed>
<course>166.4</course>
<desc>Speed 2.7 km/h Distance 1.50 km</desc>
<time>2010-10-23T16:53:20.50</time>
<name>958</name>
</trkpt>
<trkpt lat="48.948585" lon="8.644973">
<ele>278.0</ele>
<speed>1.28</speed>
<course>175.3</course>
<desc>Speed 4.6 km/h Distance 1.50 km</desc>
<time>2010-10-23T16:53:21.49</time>
<name>959</name>
</trkpt>
<trkpt lat="48.948573" lon="8.644975">
<ele>278.0</ele>
<speed>1.21</speed>
<course>165.1</course>
<desc>Speed 4.4 km/h Distance 1.50 km</desc>
<time>2010-10-23T16:53:22.49</time>
<name>960</name>
</trkpt>
<trkpt lat="48.948565" lon="8.644978">
<ele>278.0</ele>
<speed>0.94</speed>
<course>229.1</course>
<desc>Speed 3.4 km/h Distance 1.50 km</desc>
<time>2010-10-23T16:53:23.48</time>
<name>961</name>
</trkpt>
<trkpt lat="48.948558" lon="8.644967">
<ele>276.0</ele>
<speed>0.94</speed>
<course>187.0</course>
<desc>Speed 3.4 km/h Distance 1.51 km</desc>
<time>2010-10-23T16:53:24.47</time>
<name>962</name>
</trkpt>
<trkpt lat="48.948540" lon="8.644963">
<ele>276.5</ele>
<speed>2.00</speed>
<course>167.4</course>
<desc>Speed 7.2 km/h Distance 1.51 km</desc>
<time>2010-10-23T16:53:25.47</time>
<name>963</name>
</trkpt>
<trkpt lat="48.948530" lon="8.644967">
<ele>276.5</ele>
<speed>1.13</speed>
<course>165.1</course>
<desc>Speed 4.1 km/h Distance 1.51 km</desc>
<time>2010-10-23T16:53:26.47</time>
<name>964</name>
</trkpt>
<trkpt lat="48.948522" lon="8.644970">
<ele>276.5</ele>
<speed>0.64</speed>
<course>158.5</course>
<desc>Speed 2.3 km/h Distance 1.51 km</desc>
<time>2010-10-23T16:53:27.46</time>
<name>965</name>
</trkpt>
<trkpt lat="48.948513" lon="8.644975">
<ele>276.5</ele>
<speed>1.00</speed>
<course>146.8</course>
<desc>Speed 3.6 km/h Distance 1.51 km</desc>
<time>2010-10-23T16:53:28.46</time>
<name>966</name>
</trkpt>
<trkpt lat="48.948508" lon="8.644980">
<ele>276.5</ele>
<speed>0.75</speed>
<course>173.4</course>
<desc>Speed 2.7 km/h Distance 1.51 km</desc>
<time>2010-10-23T16:53:29.44</time>
<name>967</name>
</trkpt>
<trkpt lat="48.948498" lon="8.644982">
<ele>276.5</ele>
<speed>0.93</speed>
<course>169.6</course>
<desc>Speed 3.3 km/h Distance 1.51 km</desc>
<time>2010-10-23T16:53:30.43</time>
<name>968</name>
</trkpt>
<trkpt lat="48.948487" lon="8.644985">
<ele>277.0</ele>
<speed>1.00</speed>
<course>158.5</course>
<desc>Speed 3.6 km/h Distance 1.51 km</desc>
<time>2010-10-23T16:53:31.43</time>
<name>969</name>
</trkpt>
<trkpt lat="48.948478" lon="8.644990">
<ele>276.5</ele>
<speed>0.93</speed>
<course>170.5</course>
<desc>Speed 3.3 km/h Distance 1.51 km</desc>
<time>2010-10-23T16:53:32.42</time>
<name>970</name>
</trkpt>
<trkpt lat="48.948458" lon="8.644995">
<ele>276.5</ele>
<speed>1.26</speed>
<course>173.4</course>
<desc>Speed 4.5 km/h Distance 1.52 km</desc>
<time>2010-10-23T16:53:33.42</time>
<name>971</name>
</trkpt>
<trkpt lat="48.948438" lon="8.644998">
<ele>276.5</ele>
<speed>1.37</speed>
<course>173.4</course>
<desc>Speed 4.9 km/h Distance 1.52 km</desc>
<time>2010-10-23T16:53:34.41</time>
<name>972</name>
</trkpt>
<trkpt lat="48.948418" lon="8.645002">
<ele>277.0</ele>
<speed>1.42</speed>
<course>175.3</course>
<desc>Speed 5.1 km/h Distance 1.52 km</desc>
<time>2010-10-23T16:53:35.40</time>
<name>973</name>
</trkpt>
<trkpt lat="48.948407" lon="8.645003">
<ele>276.0</ele>
<speed>1.21</speed>
<course>159.4</course>
<desc>Speed 4.4 km/h Distance 1.52 km</desc>
<time>2010-10-23T16:53:36.40</time>
<name>974</name>
</trkpt>
<trkpt lat="48.948395" lon="8.645010">
<ele>276.0</ele>
<speed>1.21</speed>
<course>168.8</course>
<desc>Speed 4.4 km/h Distance 1.52 km</desc>
<time>2010-10-23T16:53:37.39</time>
<name>975</name>
</trkpt>
<trkpt lat="48.948383" lon="8.645013">
<ele>276.0</ele>
<speed>0.99</speed>
<course>170.3</course>
<desc>Speed 3.6 km/h Distance 1.53 km</desc>
<time>2010-10-23T16:53:38.39</time>
<name>976</name>
</trkpt>
<trkpt lat="48.948370" lon="8.645017">
<ele>276.0</ele>
<speed>1.10</speed>
<course>175.0</course>
<desc>Speed 4.0 km/h Distance 1.53 km</desc>
<time>2010-10-23T16:53:39.39</time>
<name>977</name>
</trkpt>
<trkpt lat="48.948362" lon="8.645017">
<ele>275.5</ele>
<speed>0.70</speed>
<course>158.5</course>
<desc>Speed 2.5 km/h Distance 1.53 km</desc>
<time>2010-10-23T16:53:40.39</time>
<name>978</name>
</trkpt>
<trkpt lat="48.948353" lon="8.645022">
<ele>275.0</ele>
<speed>0.87</speed>
<course>166.5</course>
<desc>Speed 3.1 km/h Distance 1.53 km</desc>
<time>2010-10-23T16:53:41.38</time>
<name>979</name>
</trkpt>
<trkpt lat="48.948340" lon="8.645027">
<ele>275.0</ele>
<speed>1.32</speed>
<course>168.8</course>
<desc>Speed 4.8 km/h Distance 1.53 km</desc>
<time>2010-10-23T16:53:42.38</time>
<name>980</name>
</trkpt>
<trkpt lat="48.948323" lon="8.645032">
<ele>275.5</ele>
<speed>1.47</speed>
<course>163.7</course>
<desc>Speed 5.3 km/h Distance 1.53 km</desc>
<time>2010-10-23T16:53:43.38</time>
<name>981</name>
</trkpt>
<trkpt lat="48.948308" lon="8.645038">
<ele>275.0</ele>
<speed>1.16</speed>
<course>167.4</course>
<desc>Speed 4.2 km/h Distance 1.53 km</desc>
<time>2010-10-23T16:53:44.36</time>
<name>982</name>
</trkpt>
<trkpt lat="48.948293" lon="8.645043">
<ele>275.0</ele>
<speed>1.20</speed>
<course>154.8</course>
<desc>Speed 4.3 km/h Distance 1.54 km</desc>
<time>2010-10-23T16:53:45.36</time>
<name>983</name>
</trkpt>
<trkpt lat="48.948282" lon="8.645052">
<ele>275.0</ele>
<speed>1.19</speed>
<course>165.1</course>
<desc>Speed 4.3 km/h Distance 1.54 km</desc>
<time>2010-10-23T16:53:46.35</time>
<name>984</name>
</trkpt>
<trkpt lat="48.948273" lon="8.645055">
<ele>275.0</ele>
<speed>0.68</speed>
<course>172.6</course>
<desc>Speed 2.4 km/h Distance 1.54 km</desc>
<time>2010-10-23T16:53:47.35</time>
<name>985</name>
</trkpt>
<trkpt lat="48.948267" lon="8.645057">
<ele>274.5</ele>
<speed>0.66</speed>
<course>138.4</course>
<desc>Speed 2.4 km/h Distance 1.54 km</desc>
<time>2010-10-23T16:53:48.35</time>
<name>986</name>
</trkpt>
<trkpt lat="48.948238" lon="8.645095">
<ele>274.0</ele>
<speed>0.93</speed>
<course>161.8</course>
<desc>Speed 3.3 km/h Distance 1.54 km</desc>
<time>2010-10-23T16:53:50.35</time>
<name>987</name>
</trkpt>
<trkpt lat="48.948228" lon="8.645100">
<ele>273.5</ele>
<speed>1.12</speed>
<course>168.8</course>
<desc>Speed 4.0 km/h Distance 1.54 km</desc>
<time>2010-10-23T16:53:51.34</time>
<name>988</name>
</trkpt>
<trkpt lat="48.948217" lon="8.645103">
<ele>273.0</ele>
<speed>1.11</speed>
<course>176.2</course>
<desc>Speed 4.0 km/h Distance 1.55 km</desc>
<time>2010-10-23T16:53:52.34</time>
<name>989</name>
</trkpt>
<trkpt lat="48.948202" lon="8.645105">
<ele>273.0</ele>
<speed>1.11</speed>
<course>178.8</course>
<desc>Speed 4.0 km/h Distance 1.55 km</desc>
<time>2010-10-23T16:53:53.33</time>
<name>990</name>
</trkpt>
<trkpt lat="48.948188" lon="8.645105">
<ele>273.5</ele>
<speed>1.15</speed>
<course>193.8</course>
<desc>Speed 4.1 km/h Distance 1.55 km</desc>
<time>2010-10-23T16:53:54.33</time>
<name>991</name>
</trkpt>
<trkpt lat="48.948180" lon="8.645102">
<ele>273.0</ele>
<speed>0.83</speed>
<course>208.6</course>
<desc>Speed 3.0 km/h Distance 1.55 km</desc>
<time>2010-10-23T16:53:55.33</time>
<name>992</name>
</trkpt>
<trkpt lat="48.948170" lon="8.645093">
<ele>272.0</ele>
<speed>0.83</speed>
<course>175.3</course>
<desc>Speed 3.0 km/h Distance 1.55 km</desc>
<time>2010-10-23T16:53:56.32</time>
<name>993</name>
</trkpt>
<trkpt lat="48.948158" lon="8.645095">
<ele>271.5</ele>
<speed>0.86</speed>
<course>169.6</course>
<desc>Speed 3.1 km/h Distance 1.55 km</desc>
<time>2010-10-23T16:53:57.31</time>
<name>994</name>
</trkpt>
<trkpt lat="48.948147" lon="8.645098">
<ele>270.5</ele>
<speed>1.12</speed>
<course>222.6</course>
<desc>Speed 4.0 km/h Distance 1.55 km</desc>
<time>2010-10-23T16:53:58.31</time>
<name>995</name>
</trkpt>
<trkpt lat="48.948138" lon="8.645087">
<ele>268.5</ele>
<speed>0.75</speed>
<course>184.7</course>
<desc>Speed 2.7 km/h Distance 1.55 km</desc>
<time>2010-10-23T16:53:59.31</time>
<name>996</name>
</trkpt>
<trkpt lat="48.948127" lon="8.645085">
<ele>267.5</ele>
<speed>1.05</speed>
<course>177.2</course>
<desc>Speed 3.8 km/h Distance 1.56 km</desc>
<time>2010-10-23T16:54:00.30</time>
<name>997</name>
</trkpt>
<trkpt lat="48.948110" lon="8.645085">
<ele>267.0</ele>
<speed>1.37</speed>
<course>177.2</course>
<desc>Speed 4.9 km/h Distance 1.56 km</desc>
<time>2010-10-23T16:54:01.30</time>
<name>998</name>
</trkpt>
<trkpt lat="48.948093" lon="8.645085">
<ele>266.5</ele>
<speed>1.15</speed>
<course>175.6</course>
<desc>Speed 4.1 km/h Distance 1.56 km</desc>
<time>2010-10-23T16:54:02.29</time>
<name>999</name>
</trkpt>
<trkpt lat="48.948083" lon="8.645085">
<ele>265.5</ele>
<speed>0.93</speed>
<course>180.0</course>
<desc>Speed 3.3 km/h Distance 1.56 km</desc>
<time>2010-10-23T16:54:03.29</time>
<name>1000</name>
</trkpt>
<trkpt lat="48.948065" lon="8.645085">
<ele>266.0</ele>
<speed>1.13</speed>
<course>168.4</course>
<desc>Speed 4.1 km/h Distance 1.56 km</desc>
<time>2010-10-23T16:54:04.29</time>
<name>1001</name>
</trkpt>
<trkpt lat="48.948055" lon="8.645088">
<ele>266.0</ele>
<speed>1.07</speed>
<course>184.7</course>
<desc>Speed 3.9 km/h Distance 1.56 km</desc>
<time>2010-10-23T16:54:05.29</time>
<name>1002</name>
</trkpt>
<trkpt lat="48.948043" lon="8.645087">
<ele>266.0</ele>
<speed>0.97</speed>
<course>185.3</course>
<desc>Speed 3.5 km/h Distance 1.57 km</desc>
<time>2010-10-23T16:54:06.29</time>
<name>1003</name>
</trkpt>
<trkpt lat="48.948030" lon="8.645085">
<ele>266.5</ele>
<speed>1.13</speed>
<course>165.7</course>
<desc>Speed 4.1 km/h Distance 1.57 km</desc>
<time>2010-10-23T16:54:07.28</time>
<name>1004</name>
</trkpt>
<trkpt lat="48.948013" lon="8.645092">
<ele>267.0</ele>
<speed>1.27</speed>
<course>187.7</course>
<desc>Speed 4.6 km/h Distance 1.57 km</desc>
<time>2010-10-23T16:54:08.28</time>
<name>1005</name>
</trkpt>
<trkpt lat="48.948005" lon="8.645090">
<ele>266.5</ele>
<speed>0.81</speed>
<course>185.3</course>
<desc>Speed 2.9 km/h Distance 1.57 km</desc>
<time>2010-10-23T16:54:09.28</time>
<name>1006</name>
</trkpt>
<trkpt lat="48.947992" lon="8.645088">
<ele>266.0</ele>
<speed>1.04</speed>
<course>175.6</course>
<desc>Speed 3.7 km/h Distance 1.57 km</desc>
<time>2010-10-23T16:54:10.28</time>
<name>1007</name>
</trkpt>
<trkpt lat="48.947982" lon="8.645088">
<ele>266.0</ele>
<speed>0.87</speed>
<course>194.9</course>
<desc>Speed 3.1 km/h Distance 1.57 km</desc>
<time>2010-10-23T16:54:11.27</time>
<name>1008</name>
</trkpt>
<trkpt lat="48.947973" lon="8.645085">
<ele>265.5</ele>
<speed>0.94</speed>
<course>194.9</course>
<desc>Speed 3.4 km/h Distance 1.57 km</desc>
<time>2010-10-23T16:54:12.27</time>
<name>1009</name>
</trkpt>
<trkpt lat="48.947957" lon="8.645078">
<ele>266.0</ele>
<speed>1.05</speed>
<course>210.3</course>
<desc>Speed 3.8 km/h Distance 1.57 km</desc>
<time>2010-10-23T16:54:13.26</time>
<name>1010</name>
</trkpt>
<trkpt lat="48.947942" lon="8.645065">
<ele>266.5</ele>
<speed>1.08</speed>
<course>205.5</course>
<desc>Speed 3.9 km/h Distance 1.58 km</desc>
<time>2010-10-23T16:54:14.26</time>
<name>1011</name>
</trkpt>
<trkpt lat="48.947923" lon="8.645052">
<ele>267.0</ele>
<speed>0.94</speed>
<course>191.4</course>
<desc>Speed 3.4 km/h Distance 1.58 km</desc>
<time>2010-10-23T16:54:15.26</time>
<name>1012</name>
</trkpt>
<trkpt lat="48.947902" lon="8.645045">
<ele>267.0</ele>
<speed>1.27</speed>
<course>186.1</course>
<desc>Speed 4.6 km/h Distance 1.58 km</desc>
<time>2010-10-23T16:54:16.25</time>
<name>1013</name>
</trkpt>
<trkpt lat="48.947882" lon="8.645042">
<ele>267.5</ele>
<speed>0.97</speed>
<course>176.2</course>
<desc>Speed 3.5 km/h Distance 1.58 km</desc>
<time>2010-10-23T16:54:17.24</time>
<name>1014</name>
</trkpt>
<trkpt lat="48.947867" lon="8.645043">
<ele>268.5</ele>
<speed>1.21</speed>
<course>178.8</course>
<desc>Speed 4.4 km/h Distance 1.59 km</desc>
<time>2010-10-23T16:54:18.24</time>
<name>1015</name>
</trkpt>
<trkpt lat="48.947853" lon="8.645043">
<ele>269.0</ele>
<speed>0.94</speed>
<course>159.1</course>
<desc>Speed 3.4 km/h Distance 1.59 km</desc>
<time>2010-10-23T16:54:19.24</time>
<name>1016</name>
</trkpt>
<trkpt lat="48.947842" lon="8.645050">
<ele>269.0</ele>
<speed>0.49</speed>
<course>171.9</course>
<desc>Speed 1.8 km/h Distance 1.59 km</desc>
<time>2010-10-23T16:54:20.24</time>
<name>1017</name>
</trkpt>
<trkpt lat="48.947827" lon="8.645053">
<ele>269.0</ele>
<speed>1.16</speed>
<course>167.4</course>
<desc>Speed 4.2 km/h Distance 1.59 km</desc>
<time>2010-10-23T16:54:21.23</time>
<name>1018</name>
</trkpt>
<trkpt lat="48.947817" lon="8.645057">
<ele>268.5</ele>
<speed>0.91</speed>
<course>153.0</course>
<desc>Speed 3.3 km/h Distance 1.59 km</desc>
<time>2010-10-23T16:54:22.22</time>
<name>1019</name>
</trkpt>
<trkpt lat="48.947802" lon="8.645068">
<ele>268.5</ele>
<speed>0.64</speed>
<course>172.3</course>
<desc>Speed 2.3 km/h Distance 1.59 km</desc>
<time>2010-10-23T16:54:23.22</time>
<name>1020</name>
</trkpt>
<trkpt lat="48.947785" lon="8.645072">
<ele>269.0</ele>
<speed>1.07</speed>
<course>180.0</course>
<desc>Speed 3.9 km/h Distance 1.59 km</desc>
<time>2010-10-23T16:54:24.21</time>
<name>1021</name>
</trkpt>
<trkpt lat="48.947767" lon="8.645072">
<ele>269.5</ele>
<speed>1.16</speed>
<course>177.2</course>
<desc>Speed 4.2 km/h Distance 1.60 km</desc>
<time>2010-10-23T16:54:25.21</time>
<name>1022</name>
</trkpt>
<trkpt lat="48.947750" lon="8.645072">
<ele>269.5</ele>
<speed>1.12</speed>
<course>141.9</course>
<desc>Speed 4.0 km/h Distance 1.60 km</desc>
<time>2010-10-23T16:54:26.20</time>
<name>1023</name>
</trkpt>
<trkpt lat="48.947742" lon="8.645082">
<ele>268.0</ele>
<speed>0.75</speed>
<course>182.5</course>
<desc>Speed 2.7 km/h Distance 1.60 km</desc>
<time>2010-10-23T16:54:27.19</time>
<name>1024</name>
</trkpt>
<trkpt lat="48.947723" lon="8.645080">
<ele>269.0</ele>
<speed>1.00</speed>
<course>171.2</course>
<desc>Speed 3.6 km/h Distance 1.60 km</desc>
<time>2010-10-23T16:54:28.19</time>
<name>1025</name>
</trkpt>
<trkpt lat="48.947708" lon="8.645083">
<ele>269.5</ele>
<speed>0.83</speed>
<course>185.3</course>
<desc>Speed 3.0 km/h Distance 1.60 km</desc>
<time>2010-10-23T16:54:29.18</time>
<name>1026</name>
</trkpt>
<trkpt lat="48.947695" lon="8.645082">
<ele>270.0</ele>
<speed>1.11</speed>
<course>183.8</course>
<desc>Speed 4.0 km/h Distance 1.61 km</desc>
<time>2010-10-23T16:54:30.17</time>
<name>1027</name>
</trkpt>
<trkpt lat="48.947680" lon="8.645080">
<ele>270.5</ele>
<speed>0.97</speed>
<course>187.1</course>
<desc>Speed 3.5 km/h Distance 1.61 km</desc>
<time>2010-10-23T16:54:31.16</time>
<name>1028</name>
</trkpt>
<trkpt lat="48.947663" lon="8.645077">
<ele>271.5</ele>
<speed>1.20</speed>
<course>188.1</course>
<desc>Speed 4.3 km/h Distance 1.61 km</desc>
<time>2010-10-23T16:54:32.16</time>
<name>1029</name>
</trkpt>
<trkpt lat="48.947648" lon="8.645073">
<ele>273.0</ele>
<speed>1.03</speed>
<course>201.5</course>
<desc>Speed 3.7 km/h Distance 1.61 km</desc>
<time>2010-10-23T16:54:33.16</time>
<name>1030</name>
</trkpt>
<trkpt lat="48.947632" lon="8.645063">
<ele>274.5</ele>
<speed>1.24</speed>
<course>194.9</course>
<desc>Speed 4.5 km/h Distance 1.61 km</desc>
<time>2010-10-23T16:54:34.15</time>
<name>1031</name>
</trkpt>
<trkpt lat="48.947623" lon="8.645060">
<ele>274.5</ele>
<speed>1.01</speed>
<course>201.5</course>
<desc>Speed 3.6 km/h Distance 1.61 km</desc>
<time>2010-10-23T16:54:35.15</time>
<name>1032</name>
</trkpt>
<trkpt lat="48.947607" lon="8.645050">
<ele>275.5</ele>
<speed>1.23</speed>
<course>208.6</course>
<desc>Speed 4.4 km/h Distance 1.62 km</desc>
<time>2010-10-23T16:54:36.14</time>
<name>1033</name>
</trkpt>
<trkpt lat="48.947597" lon="8.645042">
<ele>277.0</ele>
<speed>1.09</speed>
<course>213.2</course>
<desc>Speed 3.9 km/h Distance 1.62 km</desc>
<time>2010-10-23T16:54:37.13</time>
<name>1034</name>
</trkpt>
<trkpt lat="48.947587" lon="8.645032">
<ele>277.5</ele>
<speed>1.26</speed>
<course>183.8</course>
<desc>Speed 4.5 km/h Distance 1.62 km</desc>
<time>2010-10-23T16:54:38.13</time>
<name>1035</name>
</trkpt>
<trkpt lat="48.947572" lon="8.645030">
<ele>278.0</ele>
<speed>1.51</speed>
<course>191.2</course>
<desc>Speed 5.4 km/h Distance 1.62 km</desc>
<time>2010-10-23T16:54:39.13</time>
<name>1036</name>
</trkpt>
<trkpt lat="48.947560" lon="8.645027">
<ele>278.5</ele>
<speed>1.17</speed>
<course>209.8</course>
<desc>Speed 4.2 km/h Distance 1.62 km</desc>
<time>2010-10-23T16:54:40.12</time>
<name>1037</name>
</trkpt>
<trkpt lat="48.947547" lon="8.645015">
<ele>279.0</ele>
<speed>1.33</speed>
<course>198.4</course>
<desc>Speed 4.8 km/h Distance 1.62 km</desc>
<time>2010-10-23T16:54:41.11</time>
<name>1038</name>
</trkpt>
<trkpt lat="48.947533" lon="8.645008">
<ele>279.0</ele>
<speed>1.16</speed>
<course>201.5</course>
<desc>Speed 4.2 km/h Distance 1.62 km</desc>
<time>2010-10-23T16:54:42.11</time>
<name>1039</name>
</trkpt>
<trkpt lat="48.947525" lon="8.645003">
<ele>278.0</ele>
<speed>0.93</speed>
<course>224.5</course>
<desc>Speed 3.3 km/h Distance 1.63 km</desc>
<time>2010-10-23T16:54:43.11</time>
<name>1040</name>
</trkpt>
<trkpt lat="48.947518" lon="8.644993">
<ele>278.0</ele>
<speed>0.93</speed>
<course>217.5</course>
<desc>Speed 3.3 km/h Distance 1.63 km</desc>
<time>2010-10-23T16:54:44.11</time>
<name>1041</name>
</trkpt>
<trkpt lat="48.947508" lon="8.644982">
<ele>277.5</ele>
<speed>1.12</speed>
<course>217.5</course>
<desc>Speed 4.0 km/h Distance 1.63 km</desc>
<time>2010-10-23T16:54:45.11</time>
<name>1042</name>
</trkpt>
<trkpt lat="48.947498" lon="8.644970">
<ele>277.5</ele>
<speed>1.19</speed>
<course>213.3</course>
<desc>Speed 4.3 km/h Distance 1.63 km</desc>
<time>2010-10-23T16:54:46.10</time>
<name>1043</name>
</trkpt>
<trkpt lat="48.947487" lon="8.644958">
<ele>278.0</ele>
<speed>1.25</speed>
<course>207.5</course>
<desc>Speed 4.5 km/h Distance 1.63 km</desc>
<time>2010-10-23T16:54:47.10</time>
<name>1044</name>
</trkpt>
<trkpt lat="48.947478" lon="8.644952">
<ele>277.5</ele>
<speed>0.95</speed>
<course>228.9</course>
<desc>Speed 3.4 km/h Distance 1.63 km</desc>
<time>2010-10-23T16:54:48.10</time>
<name>1045</name>
</trkpt>
<trkpt lat="48.947472" lon="8.644940">
<ele>277.5</ele>
<speed>1.02</speed>
<course>205.6</course>
<desc>Speed 3.7 km/h Distance 1.63 km</desc>
<time>2010-10-23T16:54:49.10</time>
<name>1046</name>
</trkpt>
<trkpt lat="48.947465" lon="8.644935">
<ele>277.0</ele>
<speed>0.55</speed>
<course>216.8</course>
<desc>Speed 2.0 km/h Distance 1.63 km</desc>
<time>2010-10-23T16:54:50.09</time>
<name>1047</name>
</trkpt>
<trkpt lat="48.947453" lon="8.644922">
<ele>277.5</ele>
<speed>1.37</speed>
<course>198.1</course>
<desc>Speed 4.9 km/h Distance 1.64 km</desc>
<time>2010-10-23T16:54:51.09</time>
<name>1048</name>
</trkpt>
<trkpt lat="48.947440" lon="8.644915">
<ele>277.5</ele>
<speed>1.41</speed>
<course>232.7</course>
<desc>Speed 5.1 km/h Distance 1.64 km</desc>
<time>2010-10-23T16:54:52.09</time>
<name>1049</name>
</trkpt>
<trkpt lat="48.947433" lon="8.644902">
<ele>277.5</ele>
<speed>1.16</speed>
<course>219.4</course>
<desc>Speed 4.2 km/h Distance 1.64 km</desc>
<time>2010-10-23T16:54:53.08</time>
<name>1050</name>
</trkpt>
<trkpt lat="48.947427" lon="8.644893">
<ele>277.0</ele>
<speed>0.97</speed>
<course>213.2</course>
<desc>Speed 3.5 km/h Distance 1.64 km</desc>
<time>2010-10-23T16:54:54.08</time>
<name>1051</name>
</trkpt>
<trkpt lat="48.947418" lon="8.644885">
<ele>276.0</ele>
<speed>1.00</speed>
<course>218.1</course>
<desc>Speed 3.6 km/h Distance 1.64 km</desc>
<time>2010-10-23T16:54:55.07</time>
<name>1052</name>
</trkpt>
<trkpt lat="48.947410" lon="8.644875">
<ele>276.0</ele>
<speed>1.12</speed>
<course>218.1</course>
<desc>Speed 4.0 km/h Distance 1.64 km</desc>
<time>2010-10-23T16:54:56.07</time>
<name>1053</name>
</trkpt>
<trkpt lat="48.947402" lon="8.644865">
<ele>276.0</ele>
<speed>1.15</speed>
<course>219.4</course>
<desc>Speed 4.1 km/h Distance 1.64 km</desc>
<time>2010-10-23T16:54:57.06</time>
<name>1054</name>
</trkpt>
<trkpt lat="48.947395" lon="8.644857">
<ele>275.5</ele>
<speed>0.93</speed>
<course>208.6</course>
<desc>Speed 3.3 km/h Distance 1.64 km</desc>
<time>2010-10-23T16:54:58.06</time>
<name>1055</name>
</trkpt>
<trkpt lat="48.947385" lon="8.644848">
<ele>276.0</ele>
<speed>1.25</speed>
<course>198.2</course>
<desc>Speed 4.5 km/h Distance 1.64 km</desc>
<time>2010-10-23T16:54:59.05</time>
<name>1056</name>
</trkpt>
<trkpt lat="48.947375" lon="8.644843">
<ele>276.0</ele>
<speed>1.13</speed>
<course>200.9</course>
<desc>Speed 4.1 km/h Distance 1.65 km</desc>
<time>2010-10-23T16:55:00.05</time>
<name>1057</name>
</trkpt>
<trkpt lat="48.947363" lon="8.644837">
<ele>276.5</ele>
<speed>1.33</speed>
<course>203.7</course>
<desc>Speed 4.8 km/h Distance 1.65 km</desc>
<time>2010-10-23T16:55:01.04</time>
<name>1058</name>
</trkpt>
<trkpt lat="48.947343" lon="8.644823">
<ele>278.5</ele>
<speed>1.35</speed>
<course>200.6</course>
<desc>Speed 4.9 km/h Distance 1.65 km</desc>
<time>2010-10-23T16:55:02.04</time>
<name>1059</name>
</trkpt>
<trkpt lat="48.947332" lon="8.644817">
<ele>278.0</ele>
<speed>1.07</speed>
<course>189.7</course>
<desc>Speed 3.9 km/h Distance 1.65 km</desc>
<time>2010-10-23T16:55:03.03</time>
<name>1060</name>
</trkpt>
<trkpt lat="48.947318" lon="8.644813">
<ele>278.0</ele>
<speed>1.09</speed>
<course>198.2</course>
<desc>Speed 3.9 km/h Distance 1.65 km</desc>
<time>2010-10-23T16:55:04.03</time>
<name>1061</name>
</trkpt>
<trkpt lat="48.947308" lon="8.644808">
<ele>278.0</ele>
<speed>1.00</speed>
<course>224.8</course>
<desc>Speed 3.6 km/h Distance 1.65 km</desc>
<time>2010-10-23T16:55:05.02</time>
<name>1062</name>
</trkpt>
<trkpt lat="48.947302" lon="8.644798">
<ele>278.0</ele>
<speed>1.00</speed>
<course>213.7</course>
<desc>Speed 3.6 km/h Distance 1.65 km</desc>
<time>2010-10-23T16:55:06.01</time>
<name>1063</name>
</trkpt>
<trkpt lat="48.947295" lon="8.644792">
<ele>277.5</ele>
<speed>0.75</speed>
<course>253.0</course>
<desc>Speed 2.7 km/h Distance 1.66 km</desc>
<time>2010-10-23T16:55:07.01</time>
<name>1064</name>
</trkpt>
<trkpt lat="48.947292" lon="8.644775">
<ele>276.5</ele>
<speed>1.32</speed>
<course>172.6</course>
<desc>Speed 4.8 km/h Distance 1.66 km</desc>
<time>2010-10-23T16:55:08.01</time>
<name>1065</name>
</trkpt>
<trkpt lat="48.947285" lon="8.644777">
<ele>276.5</ele>
<speed>0.44</speed>
<course>213.2</course>
<desc>Speed 1.6 km/h Distance 1.66 km</desc>
<time>2010-10-23T16:55:09.00</time>
<name>1066</name>
</trkpt>
<trkpt lat="48.947277" lon="8.644768">
<ele>275.5</ele>
<speed>0.98</speed>
<course>207.9</course>
<desc>Speed 3.5 km/h Distance 1.66 km</desc>
<time>2010-10-23T16:55:09.99</time>
<name>1067</name>
</trkpt>
<trkpt lat="48.947268" lon="8.644762">
<ele>275.5</ele>
<speed>1.10</speed>
<course>206.4</course>
<desc>Speed 4.0 km/h Distance 1.66 km</desc>
<time>2010-10-23T16:55:10.98</time>
<name>1068</name>
</trkpt>
<trkpt lat="48.947262" lon="8.644757">
<ele>274.0</ele>
<speed>0.66</speed>
<course>221.4</course>
<desc>Speed 2.4 km/h Distance 1.66 km</desc>
<time>2010-10-23T16:55:11.98</time>
<name>1069</name>
</trkpt>
<trkpt lat="48.947257" lon="8.644750">
<ele>273.5</ele>
<speed>0.70</speed>
<course>218.1</course>
<desc>Speed 2.5 km/h Distance 1.66 km</desc>
<time>2010-10-23T16:55:12.98</time>
<name>1070</name>
</trkpt>
<trkpt lat="48.947248" lon="8.644740">
<ele>273.0</ele>
<speed>0.87</speed>
<course>213.2</course>
<desc>Speed 3.1 km/h Distance 1.66 km</desc>
<time>2010-10-23T16:55:13.97</time>
<name>1071</name>
</trkpt>
<trkpt lat="48.947238" lon="8.644730">
<ele>272.0</ele>
<speed>1.04</speed>
<course>201.5</course>
<desc>Speed 3.7 km/h Distance 1.66 km</desc>
<time>2010-10-23T16:55:14.96</time>
<name>1072</name>
</trkpt>
<trkpt lat="48.947230" lon="8.644725">
<ele>271.5</ele>
<speed>0.81</speed>
<course>219.0</course>
<desc>Speed 2.9 km/h Distance 1.66 km</desc>
<time>2010-10-23T16:55:15.96</time>
<name>1073</name>
</trkpt>
<trkpt lat="48.947223" lon="8.644717">
<ele>271.0</ele>
<speed>0.75</speed>
<course>243.0</course>
<desc>Speed 2.7 km/h Distance 1.67 km</desc>
<time>2010-10-23T16:55:16.95</time>
<name>1074</name>
</trkpt>
<trkpt lat="48.947220" lon="8.644707">
<ele>270.5</ele>
<speed>0.75</speed>
<course>198.2</course>
<desc>Speed 2.7 km/h Distance 1.67 km</desc>
<time>2010-10-23T16:55:17.95</time>
<name>1075</name>
</trkpt>
<trkpt lat="48.947210" lon="8.644702">
<ele>270.5</ele>
<speed>1.00</speed>
<course>218.1</course>
<desc>Speed 3.6 km/h Distance 1.67 km</desc>
<time>2010-10-23T16:55:18.95</time>
<name>1076</name>
</trkpt>
<trkpt lat="48.947202" lon="8.644692">
<ele>270.5</ele>
<speed>1.04</speed>
<course>219.4</course>
<desc>Speed 3.7 km/h Distance 1.67 km</desc>
<time>2010-10-23T16:55:19.94</time>
<name>1077</name>
</trkpt>
<trkpt lat="48.947195" lon="8.644683">
<ele>269.5</ele>
<speed>0.93</speed>
<course>209.0</course>
<desc>Speed 3.3 km/h Distance 1.67 km</desc>
<time>2010-10-23T16:55:20.94</time>
<name>1078</name>
</trkpt>
<trkpt lat="48.947173" lon="8.644665">
<ele>272.5</ele>
<speed>0.79</speed>
<course>207.9</course>
<desc>Speed 2.8 km/h Distance 1.67 km</desc>
<time>2010-10-23T16:55:21.93</time>
<name>1079</name>
</trkpt>
<trkpt lat="48.947165" lon="8.644658">
<ele>272.5</ele>
<speed>1.02</speed>
<course>205.6</course>
<desc>Speed 3.7 km/h Distance 1.67 km</desc>
<time>2010-10-23T16:55:22.93</time>
<name>1080</name>
</trkpt>
<trkpt lat="48.947158" lon="8.644653">
<ele>272.5</ele>
<speed>0.81</speed>
<course>218.1</course>
<desc>Speed 2.9 km/h Distance 1.67 km</desc>
<time>2010-10-23T16:55:23.93</time>
<name>1081</name>
</trkpt>
<trkpt lat="48.947150" lon="8.644643">
<ele>272.5</ele>
<speed>0.95</speed>
<course>224.5</course>
<desc>Speed 3.4 km/h Distance 1.68 km</desc>
<time>2010-10-23T16:55:24.92</time>
<name>1082</name>
</trkpt>
<trkpt lat="48.947143" lon="8.644633">
<ele>272.0</ele>
<speed>0.91</speed>
<course>198.2</course>
<desc>Speed 3.3 km/h Distance 1.68 km</desc>
<time>2010-10-23T16:55:25.92</time>
<name>1083</name>
</trkpt>
<trkpt lat="48.947133" lon="8.644628">
<ele>272.0</ele>
<speed>1.01</speed>
<course>213.2</course>
<desc>Speed 3.6 km/h Distance 1.68 km</desc>
<time>2010-10-23T16:55:26.91</time>
<name>1084</name>
</trkpt>
<trkpt lat="48.947123" lon="8.644618">
<ele>271.5</ele>
<speed>1.14</speed>
<course>227.4</course>
<desc>Speed 4.1 km/h Distance 1.68 km</desc>
<time>2010-10-23T16:55:27.91</time>
<name>1085</name>
</trkpt>
<trkpt lat="48.947118" lon="8.644610">
<ele>271.0</ele>
<speed>0.76</speed>
<course>213.2</course>
<desc>Speed 2.7 km/h Distance 1.68 km</desc>
<time>2010-10-23T16:55:28.91</time>
<name>1086</name>
</trkpt>
<trkpt lat="48.947112" lon="8.644603">
<ele>271.0</ele>
<speed>0.68</speed>
<course>218.1</course>
<desc>Speed 2.4 km/h Distance 1.68 km</desc>
<time>2010-10-23T16:55:29.90</time>
<name>1087</name>
</trkpt>
<trkpt lat="48.947103" lon="8.644593">
<ele>270.5</ele>
<speed>0.93</speed>
<course>213.2</course>
<desc>Speed 3.3 km/h Distance 1.68 km</desc>
<time>2010-10-23T16:55:30.89</time>
<name>1088</name>
</trkpt>
<trkpt lat="48.947093" lon="8.644583">
<ele>270.5</ele>
<speed>0.88</speed>
<course>213.4</course>
<desc>Speed 3.2 km/h Distance 1.68 km</desc>
<time>2010-10-23T16:55:31.89</time>
<name>1089</name>
</trkpt>
<trkpt lat="48.947083" lon="8.644573">
<ele>270.5</ele>
<speed>0.77</speed>
<course>213.4</course>
<desc>Speed 2.8 km/h Distance 1.68 km</desc>
<time>2010-10-23T16:55:32.89</time>
<name>1090</name>
</trkpt>
<trkpt lat="48.947072" lon="8.644562">
<ele>271.0</ele>
<speed>0.77</speed>
<course>200.2</course>
<desc>Speed 2.8 km/h Distance 1.69 km</desc>
<time>2010-10-23T16:55:33.88</time>
<name>1091</name>
</trkpt>
<trkpt lat="48.947060" lon="8.644555">
<ele>270.5</ele>
<speed>1.10</speed>
<course>219.0</course>
<desc>Speed 4.0 km/h Distance 1.69 km</desc>
<time>2010-10-23T16:55:34.87</time>
<name>1092</name>
</trkpt>
<trkpt lat="48.947053" lon="8.644547">
<ele>272.5</ele>
<speed>0.68</speed>
<course>220.2</course>
<desc>Speed 2.4 km/h Distance 1.69 km</desc>
<time>2010-10-23T16:55:35.86</time>
<name>1093</name>
</trkpt>
<trkpt lat="48.947042" lon="8.644532">
<ele>273.0</ele>
<speed>1.23</speed>
<course>210.2</course>
<desc>Speed 4.4 km/h Distance 1.69 km</desc>
<time>2010-10-23T16:55:36.86</time>
<name>1094</name>
</trkpt>
<trkpt lat="48.947027" lon="8.644518">
<ele>274.5</ele>
<speed>1.08</speed>
<course>213.2</course>
<desc>Speed 3.9 km/h Distance 1.69 km</desc>
<time>2010-10-23T16:55:37.85</time>
<name>1095</name>
</trkpt>
<trkpt lat="48.947018" lon="8.644510">
<ele>275.0</ele>
<speed>1.13</speed>
<course>213.2</course>
<desc>Speed 4.1 km/h Distance 1.69 km</desc>
<time>2010-10-23T16:55:38.84</time>
<name>1096</name>
</trkpt>
<trkpt lat="48.947010" lon="8.644502">
<ele>275.0</ele>
<speed>0.89</speed>
<course>222.6</course>
<desc>Speed 3.2 km/h Distance 1.69 km</desc>
<time>2010-10-23T16:55:39.84</time>
<name>1097</name>
</trkpt>
<trkpt lat="48.947002" lon="8.644490">
<ele>275.0</ele>
<speed>1.05</speed>
<course>208.6</course>
<desc>Speed 3.8 km/h Distance 1.70 km</desc>
<time>2010-10-23T16:55:40.83</time>
<name>1098</name>
</trkpt>
<trkpt lat="48.946992" lon="8.644482">
<ele>275.0</ele>
<speed>1.14</speed>
<course>208.6</course>
<desc>Speed 4.1 km/h Distance 1.70 km</desc>
<time>2010-10-23T16:55:41.83</time>
<name>1099</name>
</trkpt>
<trkpt lat="48.946982" lon="8.644473">
<ele>274.5</ele>
<speed>0.89</speed>
<course>205.2</course>
<desc>Speed 3.2 km/h Distance 1.70 km</desc>
<time>2010-10-23T16:55:42.83</time>
<name>1100</name>
</trkpt>
<trkpt lat="48.946970" lon="8.644465">
<ele>274.0</ele>
<speed>1.07</speed>
<course>213.2</course>
<desc>Speed 3.9 km/h Distance 1.70 km</desc>
<time>2010-10-23T16:55:43.83</time>
<name>1101</name>
</trkpt>
<trkpt lat="48.946960" lon="8.644455">
<ele>274.0</ele>
<speed>0.72</speed>
<course>201.5</course>
<desc>Speed 2.6 km/h Distance 1.70 km</desc>
<time>2010-10-23T16:55:44.83</time>
<name>1102</name>
</trkpt>
<trkpt lat="48.946952" lon="8.644450">
<ele>274.0</ele>
<speed>1.00</speed>
<course>213.2</course>
<desc>Speed 3.6 km/h Distance 1.70 km</desc>
<time>2010-10-23T16:55:45.83</time>
<name>1103</name>
</trkpt>
<trkpt lat="48.946942" lon="8.644440">
<ele>274.0</ele>
<speed>1.16</speed>
<course>218.1</course>
<desc>Speed 4.2 km/h Distance 1.70 km</desc>
<time>2010-10-23T16:55:46.82</time>
<name>1104</name>
</trkpt>
<trkpt lat="48.946933" lon="8.644430">
<ele>273.5</ele>
<speed>1.16</speed>
<course>207.7</course>
<desc>Speed 4.2 km/h Distance 1.70 km</desc>
<time>2010-10-23T16:55:47.82</time>
<name>1105</name>
</trkpt>
<trkpt lat="48.946908" lon="8.644410">
<ele>277.0</ele>
<speed>1.08</speed>
<course>207.3</course>
<desc>Speed 3.9 km/h Distance 1.71 km</desc>
<time>2010-10-23T16:55:48.82</time>
<name>1106</name>
</trkpt>
<trkpt lat="48.946885" lon="8.644392">
<ele>280.5</ele>
<speed>0.94</speed>
<course>208.6</course>
<desc>Speed 3.4 km/h Distance 1.71 km</desc>
<time>2010-10-23T16:55:49.81</time>
<name>1107</name>
</trkpt>
<trkpt lat="48.946875" lon="8.644383">
<ele>280.5</ele>
<speed>1.17</speed>
<course>240.3</course>
<desc>Speed 4.2 km/h Distance 1.71 km</desc>
<time>2010-10-23T16:55:50.80</time>
<name>1108</name>
</trkpt>
<trkpt lat="48.946870" lon="8.644370">
<ele>280.5</ele>
<speed>1.11</speed>
<course>224.5</course>
<desc>Speed 4.0 km/h Distance 1.71 km</desc>
<time>2010-10-23T16:55:51.80</time>
<name>1109</name>
</trkpt>
<trkpt lat="48.946867" lon="8.644365">
<ele>280.0</ele>
<speed>0.49</speed>
<course>233.0</course>
<desc>Speed 1.8 km/h Distance 1.71 km</desc>
<time>2010-10-23T16:55:52.80</time>
<name>1110</name>
</trkpt>
<trkpt lat="48.946863" lon="8.644358">
<ele>279.5</ele>
<speed>0.56</speed>
<course>213.2</course>
<desc>Speed 2.0 km/h Distance 1.71 km</desc>
<time>2010-10-23T16:55:53.79</time>
<name>1111</name>
</trkpt>
<trkpt lat="48.946853" lon="8.644348">
<ele>280.5</ele>
<speed>0.60</speed>
<course>207.9</course>
<desc>Speed 2.2 km/h Distance 1.72 km</desc>
<time>2010-10-23T16:55:54.79</time>
<name>1112</name>
</trkpt>
<trkpt lat="48.946845" lon="8.644342">
<ele>280.0</ele>
<speed>0.87</speed>
<course>236.9</course>
<desc>Speed 3.1 km/h Distance 1.72 km</desc>
<time>2010-10-23T16:55:55.79</time>
<name>1113</name>
</trkpt>
<trkpt lat="48.946840" lon="8.644330">
<ele>278.0</ele>
<speed>0.64</speed>
<course>255.6</course>
<desc>Speed 2.3 km/h Distance 1.72 km</desc>
<time>2010-10-23T16:55:56.78</time>
<name>1114</name>
</trkpt>
<trkpt lat="48.946838" lon="8.644320">
<ele>277.0</ele>
<speed>0.50</speed>
<course>219.0</course>
<desc>Speed 1.8 km/h Distance 1.72 km</desc>
<time>2010-10-23T16:55:57.77</time>
<name>1115</name>
</trkpt>
<trkpt lat="48.946832" lon="8.644312">
<ele>277.0</ele>
<speed>0.81</speed>
<course>213.7</course>
<desc>Speed 2.9 km/h Distance 1.72 km</desc>
<time>2010-10-23T16:55:58.76</time>
<name>1116</name>
</trkpt>
<trkpt lat="48.946825" lon="8.644305">
<ele>277.0</ele>
<speed>0.81</speed>
<course>207.2</course>
<desc>Speed 2.9 km/h Distance 1.72 km</desc>
<time>2010-10-23T16:55:59.76</time>
<name>1117</name>
</trkpt>
<trkpt lat="48.946810" lon="8.644293">
<ele>278.5</ele>
<speed>0.89</speed>
<course>206.2</course>
<desc>Speed 3.2 km/h Distance 1.72 km</desc>
<time>2010-10-23T16:56:00.75</time>
<name>1118</name>
</trkpt>
<trkpt lat="48.946790" lon="8.644278">
<ele>280.5</ele>
<speed>0.98</speed>
<course>202.9</course>
<desc>Speed 3.5 km/h Distance 1.72 km</desc>
<time>2010-10-23T16:56:01.75</time>
<name>1119</name>
</trkpt>
<trkpt lat="48.946767" lon="8.644263">
<ele>283.0</ele>
<speed>0.91</speed>
<course>203.8</course>
<desc>Speed 3.3 km/h Distance 1.73 km</desc>
<time>2010-10-23T16:56:02.75</time>
<name>1120</name>
</trkpt>
<trkpt lat="48.946757" lon="8.644257">
<ele>283.5</ele>
<speed>1.03</speed>
<course>196.0</course>
<desc>Speed 3.7 km/h Distance 1.73 km</desc>
<time>2010-10-23T16:56:03.75</time>
<name>1121</name>
</trkpt>
<trkpt lat="48.946745" lon="8.644252">
<ele>283.5</ele>
<speed>1.00</speed>
<course>192.6</course>
<desc>Speed 3.6 km/h Distance 1.73 km</desc>
<time>2010-10-23T16:56:04.74</time>
<name>1122</name>
</trkpt>
<trkpt lat="48.946730" lon="8.644247">
<ele>283.5</ele>
<speed>1.02</speed>
<course>210.3</course>
<desc>Speed 3.7 km/h Distance 1.73 km</desc>
<time>2010-10-23T16:56:05.73</time>
<name>1123</name>
</trkpt>
<trkpt lat="48.946715" lon="8.644233">
<ele>284.5</ele>
<speed>1.09</speed>
<course>208.2</course>
<desc>Speed 3.9 km/h Distance 1.73 km</desc>
<time>2010-10-23T16:56:06.72</time>
<name>1124</name>
</trkpt>
<trkpt lat="48.946697" lon="8.644218">
<ele>285.5</ele>
<speed>1.23</speed>
<course>217.3</course>
<desc>Speed 4.4 km/h Distance 1.74 km</desc>
<time>2010-10-23T16:56:07.72</time>
<name>1125</name>
</trkpt>
<trkpt lat="48.946687" lon="8.644207">
<ele>285.5</ele>
<speed>1.14</speed>
<course>203.4</course>
<desc>Speed 4.1 km/h Distance 1.74 km</desc>
<time>2010-10-23T16:56:08.72</time>
<name>1126</name>
</trkpt>
<trkpt lat="48.946677" lon="8.644200">
<ele>285.0</ele>
<speed>0.80</speed>
<course>218.1</course>
<desc>Speed 2.9 km/h Distance 1.74 km</desc>
<time>2010-10-23T16:56:09.71</time>
<name>1127</name>
</trkpt>
<trkpt lat="48.946668" lon="8.644190">
<ele>285.0</ele>
<speed>0.77</speed>
<course>232.8</course>
<desc>Speed 2.8 km/h Distance 1.74 km</desc>
<time>2010-10-23T16:56:10.70</time>
<name>1128</name>
</trkpt>
<trkpt lat="48.946663" lon="8.644180">
<ele>284.5</ele>
<speed>0.75</speed>
<course>213.2</course>
<desc>Speed 2.7 km/h Distance 1.74 km</desc>
<time>2010-10-23T16:56:11.70</time>
<name>1129</name>
</trkpt>
<trkpt lat="48.946653" lon="8.644170">
<ele>283.5</ele>
<speed>0.97</speed>
<course>220.2</course>
<desc>Speed 3.5 km/h Distance 1.74 km</desc>
<time>2010-10-23T16:56:12.69</time>
<name>1130</name>
</trkpt>
<trkpt lat="48.946642" lon="8.644155">
<ele>282.5</ele>
<speed>1.15</speed>
<course>199.8</course>
<desc>Speed 4.1 km/h Distance 1.74 km</desc>
<time>2010-10-23T16:56:13.69</time>
<name>1131</name>
</trkpt>
<trkpt lat="48.946623" lon="8.644145">
<ele>282.5</ele>
<speed>1.30</speed>
<course>217.3</course>
<desc>Speed 4.7 km/h Distance 1.75 km</desc>
<time>2010-10-23T16:56:14.69</time>
<name>1132</name>
</trkpt>
<trkpt lat="48.946613" lon="8.644133">
<ele>282.0</ele>
<speed>1.17</speed>
<course>208.2</course>
<desc>Speed 4.2 km/h Distance 1.75 km</desc>
<time>2010-10-23T16:56:15.68</time>
<name>1133</name>
</trkpt>
<trkpt lat="48.946595" lon="8.644118">
<ele>283.0</ele>
<speed>1.33</speed>
<course>203.7</course>
<desc>Speed 4.8 km/h Distance 1.75 km</desc>
<time>2010-10-23T16:56:16.67</time>
<name>1134</name>
</trkpt>
<trkpt lat="48.946575" lon="8.644105">
<ele>283.5</ele>
<speed>1.13</speed>
<course>205.5</course>
<desc>Speed 4.1 km/h Distance 1.75 km</desc>
<time>2010-10-23T16:56:17.67</time>
<name>1135</name>
</trkpt>
<trkpt lat="48.946557" lon="8.644092">
<ele>285.0</ele>
<speed>1.15</speed>
<course>213.2</course>
<desc>Speed 4.1 km/h Distance 1.75 km</desc>
<time>2010-10-23T16:56:18.66</time>
<name>1136</name>
</trkpt>
<trkpt lat="48.946547" lon="8.644082">
<ele>284.0</ele>
<speed>1.25</speed>
<course>218.1</course>
<desc>Speed 4.5 km/h Distance 1.76 km</desc>
<time>2010-10-23T16:56:19.66</time>
<name>1137</name>
</trkpt>
<trkpt lat="48.946538" lon="8.644072">
<ele>283.0</ele>
<speed>0.93</speed>
<course>204.7</course>
<desc>Speed 3.3 km/h Distance 1.76 km</desc>
<time>2010-10-23T16:56:20.66</time>
<name>1138</name>
</trkpt>
<trkpt lat="48.946522" lon="8.644060">
<ele>283.5</ele>
<speed>1.24</speed>
<course>205.5</course>
<desc>Speed 4.5 km/h Distance 1.76 km</desc>
<time>2010-10-23T16:56:21.65</time>
<name>1139</name>
</trkpt>
<trkpt lat="48.946503" lon="8.644047">
<ele>285.0</ele>
<speed>1.32</speed>
<course>203.7</course>
<desc>Speed 4.8 km/h Distance 1.76 km</desc>
<time>2010-10-23T16:56:22.64</time>
<name>1140</name>
</trkpt>
<trkpt lat="48.946483" lon="8.644033">
<ele>286.5</ele>
<speed>1.27</speed>
<course>213.4</course>
<desc>Speed 4.6 km/h Distance 1.76 km</desc>
<time>2010-10-23T16:56:23.64</time>
<name>1141</name>
</trkpt>
<trkpt lat="48.946473" lon="8.644023">
<ele>286.5</ele>
<speed>1.13</speed>
<course>206.4</course>
<desc>Speed 4.1 km/h Distance 1.77 km</desc>
<time>2010-10-23T16:56:24.64</time>
<name>1142</name>
</trkpt>
<trkpt lat="48.946460" lon="8.644013">
<ele>286.5</ele>
<speed>1.09</speed>
<course>194.0</course>
<desc>Speed 3.9 km/h Distance 1.77 km</desc>
<time>2010-10-23T16:56:25.64</time>
<name>1143</name>
</trkpt>
<trkpt lat="48.946447" lon="8.644008">
<ele>286.5</ele>
<speed>1.26</speed>
<course>192.6</course>
<desc>Speed 4.5 km/h Distance 1.77 km</desc>
<time>2010-10-23T16:56:26.63</time>
<name>1144</name>
</trkpt>
<trkpt lat="48.946432" lon="8.644003">
<ele>286.5</ele>
<speed>1.03</speed>
<course>213.1</course>
<desc>Speed 3.7 km/h Distance 1.77 km</desc>
<time>2010-10-23T16:56:27.62</time>
<name>1145</name>
</trkpt>
<trkpt lat="48.946420" lon="8.643992">
<ele>286.5</ele>
<speed>1.37</speed>
<course>229.1</course>
<desc>Speed 4.9 km/h Distance 1.77 km</desc>
<time>2010-10-23T16:56:28.62</time>
<name>1146</name>
</trkpt>
<trkpt lat="48.946413" lon="8.643980">
<ele>286.0</ele>
<speed>1.00</speed>
<course>224.5</course>
<desc>Speed 3.6 km/h Distance 1.77 km</desc>
<time>2010-10-23T16:56:29.61</time>
<name>1147</name>
</trkpt>
<trkpt lat="48.946407" lon="8.643970">
<ele>285.5</ele>
<speed>0.93</speed>
<course>209.4</course>
<desc>Speed 3.3 km/h Distance 1.77 km</desc>
<time>2010-10-23T16:56:30.61</time>
<name>1148</name>
</trkpt>
<trkpt lat="48.946395" lon="8.643960">
<ele>286.0</ele>
<speed>1.46</speed>
<course>206.2</course>
<desc>Speed 5.3 km/h Distance 1.78 km</desc>
<time>2010-10-23T16:56:31.60</time>
<name>1149</name>
</trkpt>
<trkpt lat="48.946382" lon="8.643950">
<ele>286.5</ele>
<speed>1.54</speed>
<course>217.5</course>
<desc>Speed 5.5 km/h Distance 1.78 km</desc>
<time>2010-10-23T16:56:32.60</time>
<name>1150</name>
</trkpt>
<trkpt lat="48.946372" lon="8.643938">
<ele>286.5</ele>
<speed>1.22</speed>
<course>216.9</course>
<desc>Speed 4.4 km/h Distance 1.78 km</desc>
<time>2010-10-23T16:56:33.59</time>
<name>1151</name>
</trkpt>
<trkpt lat="48.946360" lon="8.643925">
<ele>286.5</ele>
<speed>1.32</speed>
<course>217.3</course>
<desc>Speed 4.8 km/h Distance 1.78 km</desc>
<time>2010-10-23T16:56:34.58</time>
<name>1152</name>
</trkpt>
<trkpt lat="48.946350" lon="8.643913">
<ele>286.0</ele>
<speed>1.28</speed>
<course>216.6</course>
<desc>Speed 4.6 km/h Distance 1.78 km</desc>
<time>2010-10-23T16:56:35.58</time>
<name>1153</name>
</trkpt>
<trkpt lat="48.946337" lon="8.643898">
<ele>287.0</ele>
<speed>1.28</speed>
<course>202.1</course>
<desc>Speed 4.6 km/h Distance 1.78 km</desc>
<time>2010-10-23T16:56:36.58</time>
<name>1154</name>
</trkpt>
<trkpt lat="48.946323" lon="8.643890">
<ele>288.5</ele>
<speed>1.10</speed>
<course>208.5</course>
<desc>Speed 4.0 km/h Distance 1.78 km</desc>
<time>2010-10-23T16:56:37.57</time>
<name>1155</name>
</trkpt>
<trkpt lat="48.946285" lon="8.643858">
<ele>288.0</ele>
<speed>1.16</speed>
<course>220.2</course>
<desc>Speed 4.2 km/h Distance 1.79 km</desc>
<time>2010-10-23T16:56:39.56</time>
<name>1156</name>
</trkpt>
<trkpt lat="48.946273" lon="8.643843">
<ele>288.0</ele>
<speed>1.19</speed>
<course>232.7</course>
<desc>Speed 4.3 km/h Distance 1.79 km</desc>
<time>2010-10-23T16:56:40.56</time>
<name>1157</name>
</trkpt>
<trkpt lat="48.946263" lon="8.643823">
<ele>288.5</ele>
<speed>1.11</speed>
<course>213.5</course>
<desc>Speed 4.0 km/h Distance 1.79 km</desc>
<time>2010-10-23T16:56:41.56</time>
<name>1158</name>
</trkpt>
<trkpt lat="48.946255" lon="8.643815">
<ele>287.5</ele>
<speed>0.94</speed>
<course>213.7</course>
<desc>Speed 3.4 km/h Distance 1.79 km</desc>
<time>2010-10-23T16:56:42.55</time>
<name>1159</name>
</trkpt>
<trkpt lat="48.946248" lon="8.643808">
<ele>286.5</ele>
<speed>0.72</speed>
<course>249.1</course>
<desc>Speed 2.6 km/h Distance 1.80 km</desc>
<time>2010-10-23T16:56:43.54</time>
<name>1160</name>
</trkpt>
<trkpt lat="48.946247" lon="8.643802">
<ele>285.5</ele>
<speed>0.31</speed>
<course>232.7</course>
<desc>Speed 1.1 km/h Distance 1.80 km</desc>
<time>2010-10-23T16:56:44.54</time>
<name>1161</name>
</trkpt>
<trkpt lat="48.946240" lon="8.643788">
<ele>285.0</ele>
<speed>1.00</speed>
<course>232.6</course>
<desc>Speed 3.6 km/h Distance 1.80 km</desc>
<time>2010-10-23T16:56:45.54</time>
<name>1162</name>
</trkpt>
<trkpt lat="48.946233" lon="8.643775">
<ele>284.0</ele>
<speed>0.80</speed>
<course>227.4</course>
<desc>Speed 2.9 km/h Distance 1.80 km</desc>
<time>2010-10-23T16:56:46.54</time>
<name>1163</name>
</trkpt>
<trkpt lat="48.946228" lon="8.643767">
<ele>283.0</ele>
<speed>0.86</speed>
<course>213.2</course>
<desc>Speed 3.1 km/h Distance 1.80 km</desc>
<time>2010-10-23T16:56:47.53</time>
<name>1164</name>
</trkpt>
<trkpt lat="48.946218" lon="8.643757">
<ele>283.5</ele>
<speed>1.25</speed>
<course>213.3</course>
<desc>Speed 4.5 km/h Distance 1.80 km</desc>
<time>2010-10-23T16:56:48.53</time>
<name>1165</name>
</trkpt>
<trkpt lat="48.946207" lon="8.643745">
<ele>284.5</ele>
<speed>1.01</speed>
<course>187.7</course>
<desc>Speed 3.6 km/h Distance 1.80 km</desc>
<time>2010-10-23T16:56:49.52</time>
<name>1166</name>
</trkpt>
<trkpt lat="48.946190" lon="8.643742">
<ele>285.0</ele>
<speed>1.27</speed>
<course>218.1</course>
<desc>Speed 4.6 km/h Distance 1.80 km</desc>
<time>2010-10-23T16:56:50.51</time>
<name>1167</name>
</trkpt>
<trkpt lat="48.946182" lon="8.643732">
<ele>285.0</ele>
<speed>1.10</speed>
<course>205.2</course>
<desc>Speed 4.0 km/h Distance 1.80 km</desc>
<time>2010-10-23T16:56:51.51</time>
<name>1168</name>
</trkpt>
<trkpt lat="48.946170" lon="8.643723">
<ele>284.5</ele>
<speed>0.98</speed>
<course>207.2</course>
<desc>Speed 3.5 km/h Distance 1.81 km</desc>
<time>2010-10-23T16:56:52.51</time>
<name>1169</name>
</trkpt>
<trkpt lat="48.946155" lon="8.643712">
<ele>284.5</ele>
<speed>1.12</speed>
<course>217.3</course>
<desc>Speed 4.0 km/h Distance 1.81 km</desc>
<time>2010-10-23T16:56:53.51</time>
<name>1170</name>
</trkpt>
<trkpt lat="48.946145" lon="8.643700">
<ele>284.5</ele>
<speed>1.33</speed>
<course>216.9</course>
<desc>Speed 4.8 km/h Distance 1.81 km</desc>
<time>2010-10-23T16:56:54.51</time>
<name>1171</name>
</trkpt>
<trkpt lat="48.946133" lon="8.643687">
<ele>284.0</ele>
<speed>1.33</speed>
<course>213.2</course>
<desc>Speed 4.8 km/h Distance 1.81 km</desc>
<time>2010-10-23T16:56:55.50</time>
<name>1172</name>
</trkpt>
<trkpt lat="48.946123" lon="8.643677">
<ele>283.5</ele>
<speed>1.08</speed>
<course>226.4</course>
<desc>Speed 3.9 km/h Distance 1.81 km</desc>
<time>2010-10-23T16:56:56.50</time>
<name>1173</name>
</trkpt>
<trkpt lat="48.946115" lon="8.643663">
<ele>282.5</ele>
<speed>1.11</speed>
<course>213.2</course>
<desc>Speed 4.0 km/h Distance 1.81 km</desc>
<time>2010-10-23T16:56:57.49</time>
<name>1174</name>
</trkpt>
<trkpt lat="48.946105" lon="8.643653">
<ele>281.5</ele>
<speed>1.14</speed>
<course>222.8</course>
<desc>Speed 4.1 km/h Distance 1.82 km</desc>
<time>2010-10-23T16:56:58.48</time>
<name>1175</name>
</trkpt>
<trkpt lat="48.946097" lon="8.643642">
<ele>280.0</ele>
<speed>0.92</speed>
<course>213.3</course>
<desc>Speed 3.3 km/h Distance 1.82 km</desc>
<time>2010-10-23T16:56:59.47</time>
<name>1176</name>
</trkpt>
<trkpt lat="48.946078" lon="8.643623">
<ele>282.5</ele>
<speed>1.13</speed>
<course>236.9</course>
<desc>Speed 4.1 km/h Distance 1.82 km</desc>
<time>2010-10-23T16:57:00.47</time>
<name>1177</name>
</trkpt>
<trkpt lat="48.946073" lon="8.643612">
<ele>281.5</ele>
<speed>0.81</speed>
<course>223.3</course>
<desc>Speed 2.9 km/h Distance 1.82 km</desc>
<time>2010-10-23T16:57:01.47</time>
<name>1178</name>
</trkpt>
<trkpt lat="48.946062" lon="8.643595">
<ele>282.0</ele>
<speed>1.22</speed>
<course>232.7</course>
<desc>Speed 4.4 km/h Distance 1.82 km</desc>
<time>2010-10-23T16:57:02.47</time>
<name>1179</name>
</trkpt>
<trkpt lat="48.946052" lon="8.643575">
<ele>283.0</ele>
<speed>0.92</speed>
<course>202.7</course>
<desc>Speed 3.3 km/h Distance 1.82 km</desc>
<time>2010-10-23T16:57:03.46</time>
<name>1180</name>
</trkpt>
<trkpt lat="48.946033" lon="8.643563">
<ele>284.5</ele>
<speed>0.93</speed>
<course>213.2</course>
<desc>Speed 3.3 km/h Distance 1.83 km</desc>
<time>2010-10-23T16:57:04.46</time>
<name>1181</name>
</trkpt>
<trkpt lat="48.946023" lon="8.643553">
<ele>284.5</ele>
<speed>1.02</speed>
<course>203.7</course>
<desc>Speed 3.7 km/h Distance 1.83 km</desc>
<time>2010-10-23T16:57:05.46</time>
<name>1182</name>
</trkpt>
<trkpt lat="48.946008" lon="8.643543">
<ele>285.5</ele>
<speed>1.27</speed>
<course>229.7</course>
<desc>Speed 4.6 km/h Distance 1.83 km</desc>
<time>2010-10-23T16:57:06.45</time>
<name>1183</name>
</trkpt>
<trkpt lat="48.946000" lon="8.643528">
<ele>285.0</ele>
<speed>1.22</speed>
<course>229.7</course>
<desc>Speed 4.4 km/h Distance 1.83 km</desc>
<time>2010-10-23T16:57:07.45</time>
<name>1184</name>
</trkpt>
<trkpt lat="48.945992" lon="8.643513">
<ele>285.0</ele>
<speed>1.30</speed>
<course>236.0</course>
<desc>Speed 4.7 km/h Distance 1.83 km</desc>
<time>2010-10-23T16:57:08.45</time>
<name>1185</name>
</trkpt>
<trkpt lat="48.945985" lon="8.643498">
<ele>284.5</ele>
<speed>1.22</speed>
<course>221.3</course>
<desc>Speed 4.4 km/h Distance 1.83 km</desc>
<time>2010-10-23T16:57:09.44</time>
<name>1186</name>
</trkpt>
<trkpt lat="48.945975" lon="8.643485">
<ele>284.5</ele>
<speed>1.34</speed>
<course>229.9</course>
<desc>Speed 4.8 km/h Distance 1.83 km</desc>
<time>2010-10-23T16:57:10.44</time>
<name>1187</name>
</trkpt>
<trkpt lat="48.945967" lon="8.643470">
<ele>284.5</ele>
<speed>1.28</speed>
<course>218.1</course>
<desc>Speed 4.6 km/h Distance 1.84 km</desc>
<time>2010-10-23T16:57:11.44</time>
<name>1188</name>
</trkpt>
<trkpt lat="48.945958" lon="8.643460">
<ele>285.0</ele>
<speed>1.17</speed>
<course>213.3</course>
<desc>Speed 4.2 km/h Distance 1.84 km</desc>
<time>2010-10-23T16:57:12.44</time>
<name>1189</name>
</trkpt>
<trkpt lat="48.945942" lon="8.643443">
<ele>287.0</ele>
<speed>1.04</speed>
<course>206.3</course>
<desc>Speed 3.7 km/h Distance 1.84 km</desc>
<time>2010-10-23T16:57:13.43</time>
<name>1190</name>
</trkpt>
<trkpt lat="48.945922" lon="8.643428">
<ele>289.5</ele>
<speed>0.94</speed>
<course>202.1</course>
<desc>Speed 3.4 km/h Distance 1.84 km</desc>
<time>2010-10-23T16:57:14.43</time>
<name>1191</name>
</trkpt>
<trkpt lat="48.945908" lon="8.643420">
<ele>291.0</ele>
<speed>1.22</speed>
<course>209.8</course>
<desc>Speed 4.4 km/h Distance 1.84 km</desc>
<time>2010-10-23T16:57:15.43</time>
<name>1192</name>
</trkpt>
<trkpt lat="48.945895" lon="8.643408">
<ele>292.0</ele>
<speed>1.10</speed>
<course>205.4</course>
<desc>Speed 4.0 km/h Distance 1.85 km</desc>
<time>2010-10-23T16:57:16.42</time>
<name>1193</name>
</trkpt>
<trkpt lat="48.945877" lon="8.643395">
<ele>293.5</ele>
<speed>1.37</speed>
<course>205.5</course>
<desc>Speed 4.9 km/h Distance 1.85 km</desc>
<time>2010-10-23T16:57:17.42</time>
<name>1194</name>
</trkpt>
<trkpt lat="48.945858" lon="8.643382">
<ele>295.0</ele>
<speed>1.21</speed>
<course>213.2</course>
<desc>Speed 4.4 km/h Distance 1.85 km</desc>
<time>2010-10-23T16:57:18.42</time>
<name>1195</name>
</trkpt>
<trkpt lat="48.945848" lon="8.643372">
<ele>295.0</ele>
<speed>1.13</speed>
<course>210.0</course>
<desc>Speed 4.1 km/h Distance 1.85 km</desc>
<time>2010-10-23T16:57:19.42</time>
<name>1196</name>
</trkpt>
<trkpt lat="48.945835" lon="8.643360">
<ele>295.5</ele>
<speed>1.33</speed>
<course>207.0</course>
<desc>Speed 4.8 km/h Distance 1.85 km</desc>
<time>2010-10-23T16:57:20.41</time>
<name>1197</name>
</trkpt>
<trkpt lat="48.945820" lon="8.643348">
<ele>296.0</ele>
<speed>1.41</speed>
<course>217.5</course>
<desc>Speed 5.1 km/h Distance 1.85 km</desc>
<time>2010-10-23T16:57:21.41</time>
<name>1198</name>
</trkpt>
<trkpt lat="48.945810" lon="8.643337">
<ele>296.5</ele>
<speed>1.24</speed>
<course>216.9</course>
<desc>Speed 4.5 km/h Distance 1.86 km</desc>
<time>2010-10-23T16:57:22.41</time>
<name>1199</name>
</trkpt>
<trkpt lat="48.945798" lon="8.643323">
<ele>297.5</ele>
<speed>1.25</speed>
<course>202.1</course>
<desc>Speed 4.5 km/h Distance 1.86 km</desc>
<time>2010-10-23T16:57:23.40</time>
<name>1200</name>
</trkpt>
<trkpt lat="48.945785" lon="8.643315">
<ele>296.0</ele>
<speed>1.04</speed>
<course>196.0</course>
<desc>Speed 3.7 km/h Distance 1.86 km</desc>
<time>2010-10-23T16:57:24.40</time>
<name>1201</name>
</trkpt>
<trkpt lat="48.945770" lon="8.643308">
<ele>294.5</ele>
<speed>0.82</speed>
<course>202.3</course>
<desc>Speed 3.0 km/h Distance 1.86 km</desc>
<time>2010-10-23T16:57:25.39</time>
<name>1202</name>
</trkpt>
<trkpt lat="48.945757" lon="8.643300">
<ele>294.5</ele>
<speed>0.62</speed>
<course>202.2</course>
<desc>Speed 2.2 km/h Distance 1.86 km</desc>
<time>2010-10-23T16:57:26.39</time>
<name>1203</name>
</trkpt>
<trkpt lat="48.945752" lon="8.643297">
<ele>294.0</ele>
<speed>0.61</speed>
<course>233.0</course>
<desc>Speed 2.2 km/h Distance 1.86 km</desc>
<time>2010-10-23T16:57:27.38</time>
<name>1204</name>
</trkpt>
<trkpt lat="48.945748" lon="8.643290">
<ele>293.0</ele>
<speed>0.56</speed>
<course>203.7</course>
<desc>Speed 2.0 km/h Distance 1.86 km</desc>
<time>2010-10-23T16:57:28.38</time>
<name>1205</name>
</trkpt>
<trkpt lat="48.945733" lon="8.643280">
<ele>292.0</ele>
<speed>1.22</speed>
<course>205.2</course>
<desc>Speed 4.4 km/h Distance 1.87 km</desc>
<time>2010-10-23T16:57:29.37</time>
<name>1206</name>
</trkpt>
<trkpt lat="48.945722" lon="8.643272">
<ele>292.0</ele>
<speed>1.21</speed>
<course>217.5</course>
<desc>Speed 4.4 km/h Distance 1.87 km</desc>
<time>2010-10-23T16:57:30.37</time>
<name>1207</name>
</trkpt>
<trkpt lat="48.945712" lon="8.643260">
<ele>292.0</ele>
<speed>0.97</speed>
<course>203.7</course>
<desc>Speed 3.5 km/h Distance 1.87 km</desc>
<time>2010-10-23T16:57:31.36</time>
<name>1208</name>
</trkpt>
<trkpt lat="48.945697" lon="8.643250">
<ele>293.0</ele>
<speed>1.10</speed>
<course>185.0</course>
<desc>Speed 4.0 km/h Distance 1.87 km</desc>
<time>2010-10-23T16:57:32.36</time>
<name>1209</name>
</trkpt>
<trkpt lat="48.945688" lon="8.643248">
<ele>293.5</ele>
<speed>0.72</speed>
<course>213.7</course>
<desc>Speed 2.6 km/h Distance 1.87 km</desc>
<time>2010-10-23T16:57:33.35</time>
<name>1210</name>
</trkpt>
<trkpt lat="48.945685" lon="8.643245">
<ele>293.0</ele>
<speed>0.46</speed>
<course>270.0</course>
<desc>Speed 1.7 km/h Distance 1.87 km</desc>
<time>2010-10-23T16:57:34.35</time>
<name>1211</name>
</trkpt>
<trkpt lat="48.945685" lon="8.643237">
<ele>291.0</ele>
<speed>0.41</speed>
<course>318.6</course>
<desc>Speed 1.5 km/h Distance 1.87 km</desc>
<time>2010-10-23T16:57:36.34</time>
<name>1212</name>
</trkpt>
<trkpt lat="48.945690" lon="8.643230">
<ele>290.5</ele>
<speed>0.74</speed>
<course>192.2</course>
<desc>Speed 2.7 km/h Distance 1.87 km</desc>
<time>2010-10-23T16:57:37.34</time>
<name>1213</name>
</trkpt>
<trkpt lat="48.945675" lon="8.643225">
<ele>288.5</ele>
<speed>1.67</speed>
<course>249.2</course>
<desc>Speed 6.0 km/h Distance 1.87 km</desc>
<time>2010-10-23T16:57:38.33</time>
<name>1214</name>
</trkpt>
<trkpt lat="48.945668" lon="8.643198">
<ele>288.0</ele>
<speed>0.76</speed>
<course>332.1</course>
<desc>Speed 2.7 km/h Distance 1.88 km</desc>
<time>2010-10-23T16:57:42.32</time>
<name>1215</name>
</trkpt>
<trkpt lat="48.945677" lon="8.643192">
<ele>289.0</ele>
<speed>1.24</speed>
<course>211.5</course>
<desc>Speed 4.5 km/h Distance 1.88 km</desc>
<time>2010-10-23T16:57:43.31</time>
<name>1216</name>
</trkpt>
<trkpt lat="48.945652" lon="8.643168">
<ele>291.0</ele>
<speed>0.31</speed>
<course>312.2</course>
<desc>Speed 1.1 km/h Distance 1.88 km</desc>
<time>2010-10-23T16:57:46.49</time>
<name>1217</name>
</trkpt>
<trkpt lat="48.945657" lon="8.643160">
<ele>291.0</ele>
<speed>0.68</speed>
<course>224.5</course>
<desc>Speed 2.4 km/h Distance 1.88 km</desc>
<time>2010-10-23T16:57:47.30</time>
<name>1218</name>
</trkpt>
<trkpt lat="48.945653" lon="8.643155">
<ele>291.0</ele>
<speed>0.49</speed>
<course>179.0</course>
<desc>Speed 1.8 km/h Distance 1.88 km</desc>
<time>2010-10-23T16:57:48.29</time>
<name>1219</name>
</trkpt>
<trkpt lat="48.945587" lon="8.643157">
<ele>291.5</ele>
<speed>0.51</speed>
<course>158.8</course>
<desc>Speed 1.8 km/h Distance 1.89 km</desc>
<time>2010-10-23T16:57:58.28</time>
<name>1220</name>
</trkpt>
<trkpt lat="48.945550" lon="8.643178">
<ele>293.5</ele>
<speed>1.65</speed>
<course>151.6</course>
<desc>Speed 5.9 km/h Distance 1.89 km</desc>
<time>2010-10-23T16:58:00.27</time>
<name>1221</name>
</trkpt>
<trkpt lat="48.945522" lon="8.643202">
<ele>293.5</ele>
<speed>1.23</speed>
<course>146.7</course>
<desc>Speed 4.4 km/h Distance 1.90 km</desc>
<time>2010-10-23T16:58:04.44</time>
<name>1222</name>
</trkpt>
<trkpt lat="48.945498" lon="8.643225">
<ele>293.5</ele>
<speed>1.21</speed>
<course>105.5</course>
<desc>Speed 4.4 km/h Distance 1.90 km</desc>
<time>2010-10-23T16:58:06.43</time>
<name>1223</name>
</trkpt>
<trkpt lat="48.945495" lon="8.643243">
<ele>292.5</ele>
<speed>1.42</speed>
<course>82.8</course>
<desc>Speed 5.1 km/h Distance 1.90 km</desc>
<time>2010-10-23T16:58:07.42</time>
<name>1224</name>
</trkpt>
<trkpt lat="48.945497" lon="8.643263">
<ele>291.0</ele>
<speed>1.60</speed>
<course>36.6</course>
<desc>Speed 5.8 km/h Distance 1.90 km</desc>
<time>2010-10-23T16:58:08.41</time>
<name>1225</name>
</trkpt>
<trkpt lat="48.945510" lon="8.643278">
<ele>291.0</ele>
<speed>2.22</speed>
<course>157.0</course>
<desc>Speed 8.0 km/h Distance 1.91 km</desc>
<time>2010-10-23T16:58:09.41</time>
<name>1226</name>
</trkpt>
<trkpt lat="48.945482" lon="8.643297">
<ele>293.0</ele>
<speed>0.99</speed>
<course>180.0</course>
<desc>Speed 3.6 km/h Distance 1.91 km</desc>
<time>2010-10-23T16:58:12.46</time>
<name>1227</name>
</trkpt>
<trkpt lat="48.945463" lon="8.643297">
<ele>297.5</ele>
<speed>1.00</speed>
<course>116.9</course>
<desc>Speed 3.6 km/h Distance 1.91 km</desc>
<time>2010-10-23T16:58:17.58</time>
<name>1228</name>
</trkpt>
<trkpt lat="48.945457" lon="8.643317">
<ele>299.0</ele>
<speed>1.48</speed>
<course>63.1</course>
<desc>Speed 5.3 km/h Distance 1.91 km</desc>
<time>2010-10-23T16:58:18.45</time>
<name>1229</name>
</trkpt>
<trkpt lat="48.945468" lon="8.643352">
<ele>299.0</ele>
<speed>1.11</speed>
<course>58.7</course>
<desc>Speed 4.0 km/h Distance 1.92 km</desc>
<time>2010-10-23T16:58:24.51</time>
<name>1230</name>
</trkpt>
<trkpt lat="48.945478" lon="8.643377">
<ele>299.0</ele>
<speed>1.08</speed>
<course>70.6</course>
<desc>Speed 3.9 km/h Distance 1.92 km</desc>
<time>2010-10-23T16:58:26.51</time>
<name>1231</name>
</trkpt>
<trkpt lat="48.945488" lon="8.643420">
<ele>299.0</ele>
<speed>1.46</speed>
<course>355.0</course>
<desc>Speed 5.3 km/h Distance 1.92 km</desc>
<time>2010-10-23T16:58:28.52</time>
<name>1232</name>
</trkpt>
<trkpt lat="48.945497" lon="8.643418">
<ele>298.0</ele>
<speed>1.02</speed>
<course>90.0</course>
<desc>Speed 3.7 km/h Distance 1.92 km</desc>
<time>2010-10-23T16:58:29.52</time>
<name>1233</name>
</trkpt>
<trkpt lat="48.945497" lon="8.643463">
<ele>298.0</ele>
<speed>1.00</speed>
<course>96.9</course>
<desc>Speed 3.6 km/h Distance 1.93 km</desc>
<time>2010-10-23T16:58:31.52</time>
<name>1234</name>
</trkpt>
<trkpt lat="48.945493" lon="8.643505">
<ele>297.0</ele>
<speed>0.56</speed>
<course>52.7</course>
<desc>Speed 2.0 km/h Distance 1.93 km</desc>
<time>2010-10-23T16:58:33.52</time>
<name>1235</name>
</trkpt>
<trkpt lat="48.945500" lon="8.643518">
<ele>297.0</ele>
<speed>1.30</speed>
<course>46.5</course>
<desc>Speed 4.7 km/h Distance 1.93 km</desc>
<time>2010-10-23T16:58:34.78</time>
<name>1236</name>
</trkpt>
<trkpt lat="48.945508" lon="8.643532">
<ele>297.5</ele>
<speed>1.39</speed>
<course>61.3</course>
<desc>Speed 5.0 km/h Distance 1.93 km</desc>
<time>2010-10-23T16:58:35.54</time>
<name>1237</name>
</trkpt>
<trkpt lat="48.945523" lon="8.643573">
<ele>297.0</ele>
<speed>1.24</speed>
<course>90.0</course>
<desc>Speed 4.5 km/h Distance 1.93 km</desc>
<time>2010-10-23T16:58:38.56</time>
<name>1238</name>
</trkpt>
<trkpt lat="48.945523" lon="8.643593">
<ele>297.0</ele>
<speed>1.22</speed>
<course>105.7</course>
<desc>Speed 4.4 km/h Distance 1.94 km</desc>
<time>2010-10-23T16:58:39.56</time>
<name>1239</name>
</trkpt>
<trkpt lat="48.945512" lon="8.643657">
<ele>296.5</ele>
<speed>1.01</speed>
<course>33.4</course>
<desc>Speed 3.6 km/h Distance 1.94 km</desc>
<time>2010-10-23T16:58:41.57</time>
<name>1240</name>
</trkpt>
<trkpt lat="48.945523" lon="8.643668">
<ele>296.5</ele>
<speed>1.72</speed>
<course>73.1</course>
<desc>Speed 6.2 km/h Distance 1.94 km</desc>
<time>2010-10-23T16:58:42.57</time>
<name>1241</name>
</trkpt>
<trkpt lat="48.945527" lon="8.643685">
<ele>296.5</ele>
<speed>1.17</speed>
<course>82.1</course>
<desc>Speed 4.2 km/h Distance 1.94 km</desc>
<time>2010-10-23T16:58:43.57</time>
<name>1242</name>
</trkpt>
<trkpt lat="48.945528" lon="8.643703">
<ele>296.5</ele>
<speed>1.20</speed>
<course>74.5</course>
<desc>Speed 4.3 km/h Distance 1.94 km</desc>
<time>2010-10-23T16:58:44.57</time>
<name>1243</name>
</trkpt>
<trkpt lat="48.945532" lon="8.643722">
<ele>296.5</ele>
<speed>1.24</speed>
<course>52.7</course>
<desc>Speed 4.5 km/h Distance 1.95 km</desc>
<time>2010-10-23T16:58:45.57</time>
<name>1244</name>
</trkpt>
<trkpt lat="48.945538" lon="8.643735">
<ele>296.5</ele>
<speed>1.42</speed>
<course>60.3</course>
<desc>Speed 5.1 km/h Distance 1.95 km</desc>
<time>2010-10-23T16:58:46.57</time>
<name>1245</name>
</trkpt>
<trkpt lat="48.945543" lon="8.643748">
<ele>296.5</ele>
<speed>1.27</speed>
<course>52.8</course>
<desc>Speed 4.6 km/h Distance 1.95 km</desc>
<time>2010-10-23T16:58:47.57</time>
<name>1246</name>
</trkpt>
<trkpt lat="48.945550" lon="8.643762">
<ele>297.0</ele>
<speed>1.35</speed>
<course>60.3</course>
<desc>Speed 4.9 km/h Distance 1.95 km</desc>
<time>2010-10-23T16:58:48.57</time>
<name>1247</name>
</trkpt>
<trkpt lat="48.945555" lon="8.643775">
<ele>297.0</ele>
<speed>1.42</speed>
<course>55.9</course>
<desc>Speed 5.1 km/h Distance 1.95 km</desc>
<time>2010-10-23T16:58:49.57</time>
<name>1248</name>
</trkpt>
<trkpt lat="48.945562" lon="8.643790">
<ele>297.0</ele>
<speed>1.39</speed>
<course>74.5</course>
<desc>Speed 5.0 km/h Distance 1.95 km</desc>
<time>2010-10-23T16:58:50.57</time>
<name>1249</name>
</trkpt>
<trkpt lat="48.945565" lon="8.643808">
<ele>297.0</ele>
<speed>1.24</speed>
<course>52.7</course>
<desc>Speed 4.5 km/h Distance 1.95 km</desc>
<time>2010-10-23T16:58:51.57</time>
<name>1250</name>
</trkpt>
<trkpt lat="48.945572" lon="8.643822">
<ele>297.0</ele>
<speed>1.04</speed>
<course>74.5</course>
<desc>Speed 3.7 km/h Distance 1.95 km</desc>
<time>2010-10-23T16:58:52.57</time>
<name>1251</name>
</trkpt>
<trkpt lat="48.945575" lon="8.643840">
<ele>296.0</ele>
<speed>1.00</speed>
<course>69.2</course>
<desc>Speed 3.6 km/h Distance 1.96 km</desc>
<time>2010-10-23T16:58:53.57</time>
<name>1252</name>
</trkpt>
<trkpt lat="48.945580" lon="8.643860">
<ele>296.0</ele>
<speed>1.34</speed>
<course>50.4</course>
<desc>Speed 4.8 km/h Distance 1.96 km</desc>
<time>2010-10-23T16:58:54.57</time>
<name>1253</name>
</trkpt>
<trkpt lat="48.945590" lon="8.643878">
<ele>297.0</ele>
<speed>1.53</speed>
<course>81.3</course>
<desc>Speed 5.5 km/h Distance 1.96 km</desc>
<time>2010-10-23T16:58:55.57</time>
<name>1254</name>
</trkpt>
<trkpt lat="48.945592" lon="8.643895">
<ele>296.0</ele>
<speed>1.11</speed>
<course>41.3</course>
<desc>Speed 4.0 km/h Distance 1.96 km</desc>
<time>2010-10-23T16:58:56.57</time>
<name>1255</name>
</trkpt>
<trkpt lat="48.945602" lon="8.643908">
<ele>296.0</ele>
<speed>1.32</speed>
<course>41.2</course>
<desc>Speed 4.8 km/h Distance 1.96 km</desc>
<time>2010-10-23T16:58:57.57</time>
<name>1256</name>
</trkpt>
<trkpt lat="48.945612" lon="8.643922">
<ele>296.5</ele>
<speed>1.38</speed>
<course>36.9</course>
<desc>Speed 5.0 km/h Distance 1.96 km</desc>
<time>2010-10-23T16:58:58.57</time>
<name>1257</name>
</trkpt>
<trkpt lat="48.945623" lon="8.643935">
<ele>298.0</ele>
<speed>1.33</speed>
<course>47.5</course>
<desc>Speed 4.8 km/h Distance 1.97 km</desc>
<time>2010-10-23T16:58:59.57</time>
<name>1258</name>
</trkpt>
<trkpt lat="48.945633" lon="8.643952">
<ele>299.0</ele>
<speed>1.22</speed>
<course>80.4</course>
<desc>Speed 4.4 km/h Distance 1.97 km</desc>
<time>2010-10-23T16:59:00.57</time>
<name>1259</name>
</trkpt>
<trkpt lat="48.945635" lon="8.643967">
<ele>298.5</ele>
<speed>0.83</speed>
<course>90.0</course>
<desc>Speed 3.0 km/h Distance 1.97 km</desc>
<time>2010-10-23T16:59:01.57</time>
<name>1260</name>
</trkpt>
<trkpt lat="48.945635" lon="8.643985">
<ele>298.0</ele>
<speed>1.00</speed>
<course>56.7</course>
<desc>Speed 3.6 km/h Distance 1.97 km</desc>
<time>2010-10-23T16:59:02.57</time>
<name>1261</name>
</trkpt>
<trkpt lat="48.945640" lon="8.643997">
<ele>298.5</ele>
<speed>1.02</speed>
<course>52.7</course>
<desc>Speed 3.7 km/h Distance 1.97 km</desc>
<time>2010-10-23T16:59:03.57</time>
<name>1262</name>
</trkpt>
<trkpt lat="48.945648" lon="8.644013">
<ele>299.5</ele>
<speed>1.22</speed>
<course>69.2</course>
<desc>Speed 4.4 km/h Distance 1.97 km</desc>
<time>2010-10-23T16:59:04.57</time>
<name>1263</name>
</trkpt>
<trkpt lat="48.945653" lon="8.644033">
<ele>300.0</ele>
<speed>1.38</speed>
<course>73.1</course>
<desc>Speed 5.0 km/h Distance 1.97 km</desc>
<time>2010-10-23T16:59:05.57</time>
<name>1264</name>
</trkpt>
<trkpt lat="48.945657" lon="8.644050">
<ele>300.0</ele>
<speed>1.26</speed>
<course>76.8</course>
<desc>Speed 4.5 km/h Distance 1.97 km</desc>
<time>2010-10-23T16:59:06.57</time>
<name>1265</name>
</trkpt>
<trkpt lat="48.945660" lon="8.644072">
<ele>300.0</ele>
<speed>1.37</speed>
<course>90.0</course>
<desc>Speed 4.9 km/h Distance 1.98 km</desc>
<time>2010-10-23T16:59:07.57</time>
<name>1266</name>
</trkpt>
<trkpt lat="48.945660" lon="8.644090">
<ele>300.5</ele>
<speed>1.00</speed>
<course>113.6</course>
<desc>Speed 3.6 km/h Distance 1.98 km</desc>
<time>2010-10-23T16:59:08.57</time>
<name>1267</name>
</trkpt>
<trkpt lat="48.945657" lon="8.644102">
<ele>299.0</ele>
<speed>0.68</speed>
<course>73.0</course>
<desc>Speed 2.4 km/h Distance 1.98 km</desc>
<time>2010-10-23T16:59:09.57</time>
<name>1268</name>
</trkpt>
<trkpt lat="48.945660" lon="8.644118">
<ele>299.0</ele>
<speed>1.12</speed>
<course>53.0</course>
<desc>Speed 4.0 km/h Distance 1.98 km</desc>
<time>2010-10-23T16:59:10.57</time>
<name>1269</name>
</trkpt>
<trkpt lat="48.945663" lon="8.644125">
<ele>299.0</ele>
<speed>0.62</speed>
<course>44.5</course>
<desc>Speed 2.2 km/h Distance 1.98 km</desc>
<time>2010-10-23T16:59:11.57</time>
<name>1270</name>
</trkpt>
<trkpt lat="48.945670" lon="8.644135">
<ele>299.5</ele>
<speed>1.13</speed>
<course>81.3</course>
<desc>Speed 4.1 km/h Distance 1.98 km</desc>
<time>2010-10-23T16:59:12.57</time>
<name>1271</name>
</trkpt>
<trkpt lat="48.945672" lon="8.644152">
<ele>299.0</ele>
<speed>0.98</speed>
<course>99.6</course>
<desc>Speed 3.5 km/h Distance 1.98 km</desc>
<time>2010-10-23T16:59:13.57</time>
<name>1272</name>
</trkpt>
<trkpt lat="48.945670" lon="8.644167">
<ele>299.5</ele>
<speed>0.77</speed>
<course>90.0</course>
<desc>Speed 2.8 km/h Distance 1.98 km</desc>
<time>2010-10-23T16:59:14.57</time>
<name>1273</name>
</trkpt>
<trkpt lat="48.945670" lon="8.644188">
<ele>300.5</ele>
<speed>1.17</speed>
<course>108.1</course>
<desc>Speed 4.2 km/h Distance 1.99 km</desc>
<time>2010-10-23T16:59:15.57</time>
<name>1274</name>
</trkpt>
<trkpt lat="48.945665" lon="8.644212">
<ele>300.5</ele>
<speed>1.17</speed>
<course>83.8</course>
<desc>Speed 4.2 km/h Distance 1.99 km</desc>
<time>2010-10-23T16:59:16.57</time>
<name>1275</name>
</trkpt>
<trkpt lat="48.945667" lon="8.644235">
<ele>301.0</ele>
<speed>1.30</speed>
<course>59.6</course>
<desc>Speed 4.7 km/h Distance 1.99 km</desc>
<time>2010-10-23T16:59:17.57</time>
<name>1276</name>
</trkpt>
<trkpt lat="48.945675" lon="8.644257">
<ele>302.5</ele>
<speed>1.29</speed>
<course>57.6</course>
<desc>Speed 4.6 km/h Distance 1.99 km</desc>
<time>2010-10-23T16:59:18.57</time>
<name>1277</name>
</trkpt>
<trkpt lat="48.945683" lon="8.644277">
<ele>304.0</ele>
<speed>1.16</speed>
<course>59.6</course>
<desc>Speed 4.2 km/h Distance 1.99 km</desc>
<time>2010-10-23T16:59:19.57</time>
<name>1278</name>
</trkpt>
<trkpt lat="48.945692" lon="8.644298">
<ele>305.0</ele>
<speed>1.37</speed>
<course>76.8</course>
<desc>Speed 4.9 km/h Distance 1.99 km</desc>
<time>2010-10-23T16:59:20.57</time>
<name>1279</name>
</trkpt>
<trkpt lat="48.945695" lon="8.644320">
<ele>306.0</ele>
<speed>1.22</speed>
<course>83.3</course>
<desc>Speed 4.4 km/h Distance 2.00 km</desc>
<time>2010-10-23T16:59:21.57</time>
<name>1280</name>
</trkpt>
<trkpt lat="48.945697" lon="8.644342">
<ele>306.5</ele>
<speed>1.19</speed>
<course>76.8</course>
<desc>Speed 4.3 km/h Distance 2.00 km</desc>
<time>2010-10-23T16:59:22.57</time>
<name>1281</name>
</trkpt>
<trkpt lat="48.945700" lon="8.644363">
<ele>306.5</ele>
<speed>1.29</speed>
<course>64.9</course>
<desc>Speed 4.6 km/h Distance 2.00 km</desc>
<time>2010-10-23T16:59:23.57</time>
<name>1282</name>
</trkpt>
<trkpt lat="48.945707" lon="8.644385">
<ele>307.0</ele>
<speed>1.34</speed>
<course>50.3</course>
<desc>Speed 4.8 km/h Distance 2.00 km</desc>
<time>2010-10-23T16:59:24.57</time>
<name>1283</name>
</trkpt>
<trkpt lat="48.945717" lon="8.644403">
<ele>307.5</ele>
<speed>1.33</speed>
<course>65.5</course>
<desc>Speed 4.8 km/h Distance 2.00 km</desc>
<time>2010-10-23T16:59:25.57</time>
<name>1284</name>
</trkpt>
<trkpt lat="48.945722" lon="8.644420">
<ele>308.0</ele>
<speed>1.14</speed>
<course>55.3</course>
<desc>Speed 4.1 km/h Distance 2.00 km</desc>
<time>2010-10-23T16:59:26.57</time>
<name>1285</name>
</trkpt>
<trkpt lat="48.945730" lon="8.644438">
<ele>309.0</ele>
<speed>1.35</speed>
<course>82.1</course>
<desc>Speed 4.9 km/h Distance 2.01 km</desc>
<time>2010-10-23T16:59:27.57</time>
<name>1286</name>
</trkpt>
<trkpt lat="48.945732" lon="8.644457">
<ele>308.5</ele>
<speed>1.04</speed>
<course>52.7</course>
<desc>Speed 3.7 km/h Distance 2.01 km</desc>
<time>2010-10-23T16:59:28.57</time>
<name>1287</name>
</trkpt>
<trkpt lat="48.945740" lon="8.644473">
<ele>309.0</ele>
<speed>1.21</speed>
<course>44.6</course>
<desc>Speed 4.4 km/h Distance 2.01 km</desc>
<time>2010-10-23T16:59:29.57</time>
<name>1288</name>
</trkpt>
<trkpt lat="48.945750" lon="8.644488">
<ele>309.0</ele>
<speed>1.29</speed>
<course>61.0</course>
<desc>Speed 4.6 km/h Distance 2.01 km</desc>
<time>2010-10-23T16:59:30.57</time>
<name>1289</name>
</trkpt>
<trkpt lat="48.945763" lon="8.644525">
<ele>310.0</ele>
<speed>1.22</speed>
<course>82.1</course>
<desc>Speed 4.4 km/h Distance 2.01 km</desc>
<time>2010-10-23T16:59:32.57</time>
<name>1290</name>
</trkpt>
<trkpt lat="48.945765" lon="8.644543">
<ele>310.5</ele>
<speed>1.14</speed>
<course>106.9</course>
<desc>Speed 4.1 km/h Distance 2.01 km</desc>
<time>2010-10-23T16:59:33.57</time>
<name>1291</name>
</trkpt>
<trkpt lat="48.945762" lon="8.644560">
<ele>310.0</ele>
<speed>1.01</speed>
<course>65.5</course>
<desc>Speed 3.6 km/h Distance 2.02 km</desc>
<time>2010-10-23T16:59:34.57</time>
<name>1292</name>
</trkpt>
<trkpt lat="48.945767" lon="8.644577">
<ele>309.5</ele>
<speed>1.21</speed>
<course>55.0</course>
<desc>Speed 4.4 km/h Distance 2.02 km</desc>
<time>2010-10-23T16:59:35.57</time>
<name>1293</name>
</trkpt>
<trkpt lat="48.945777" lon="8.644598">
<ele>309.5</ele>
<speed>1.39</speed>
<course>58.7</course>
<desc>Speed 5.0 km/h Distance 2.02 km</desc>
<time>2010-10-23T16:59:36.57</time>
<name>1294</name>
</trkpt>
<trkpt lat="48.945783" lon="8.644615">
<ele>309.5</ele>
<speed>1.32</speed>
<course>67.4</course>
<desc>Speed 4.8 km/h Distance 2.02 km</desc>
<time>2010-10-23T16:59:37.57</time>
<name>1295</name>
</trkpt>
<trkpt lat="48.945788" lon="8.644633">
<ele>309.5</ele>
<speed>1.25</speed>
<course>61.0</course>
<desc>Speed 4.5 km/h Distance 2.02 km</desc>
<time>2010-10-23T16:59:38.57</time>
<name>1296</name>
</trkpt>
<trkpt lat="48.945795" lon="8.644652">
<ele>309.5</ele>
<speed>1.25</speed>
<course>48.4</course>
<desc>Speed 4.5 km/h Distance 2.02 km</desc>
<time>2010-10-23T16:59:39.57</time>
<name>1297</name>
</trkpt>
<trkpt lat="48.945807" lon="8.644672">
<ele>310.0</ele>
<speed>1.37</speed>
<course>76.8</course>
<desc>Speed 4.9 km/h Distance 2.03 km</desc>
<time>2010-10-23T16:59:40.57</time>
<name>1298</name>
</trkpt>
<trkpt lat="48.945810" lon="8.644693">
<ele>309.0</ele>
<speed>1.11</speed>
<course>77.7</course>
<desc>Speed 4.0 km/h Distance 2.03 km</desc>
<time>2010-10-23T16:59:41.57</time>
<name>1299</name>
</trkpt>
<trkpt lat="48.945813" lon="8.644717">
<ele>309.0</ele>
<speed>1.41</speed>
<course>82.8</course>
<desc>Speed 5.1 km/h Distance 2.03 km</desc>
<time>2010-10-23T16:59:42.57</time>
<name>1300</name>
</trkpt>
<trkpt lat="48.945815" lon="8.644737">
<ele>308.5</ele>
<speed>1.35</speed>
<course>71.3</course>
<desc>Speed 4.9 km/h Distance 2.03 km</desc>
<time>2010-10-23T16:59:43.57</time>
<name>1301</name>
</trkpt>
<trkpt lat="48.945818" lon="8.644752">
<ele>308.0</ele>
<speed>0.89</speed>
<course>59.6</course>
<desc>Speed 3.2 km/h Distance 2.03 km</desc>
<time>2010-10-23T16:59:44.57</time>
<name>1302</name>
</trkpt>
<trkpt lat="48.945827" lon="8.644773">
<ele>308.5</ele>
<speed>1.46</speed>
<course>82.8</course>
<desc>Speed 5.3 km/h Distance 2.03 km</desc>
<time>2010-10-23T16:59:45.57</time>
<name>1303</name>
</trkpt>
<trkpt lat="48.945828" lon="8.644793">
<ele>307.0</ele>
<speed>1.04</speed>
<course>99.6</course>
<desc>Speed 3.7 km/h Distance 2.04 km</desc>
<time>2010-10-23T16:59:46.57</time>
<name>1304</name>
</trkpt>
<trkpt lat="48.945827" lon="8.644808">
<ele>306.0</ele>
<speed>0.98</speed>
<course>74.5</course>
<desc>Speed 3.5 km/h Distance 2.04 km</desc>
<time>2010-10-23T16:59:47.57</time>
<name>1305</name>
</trkpt>
<trkpt lat="48.945830" lon="8.644827">
<ele>305.0</ele>
<speed>1.22</speed>
<course>75.8</course>
<desc>Speed 4.4 km/h Distance 2.04 km</desc>
<time>2010-10-23T16:59:48.57</time>
<name>1306</name>
</trkpt>
<trkpt lat="48.945833" lon="8.644847">
<ele>305.0</ele>
<speed>1.32</speed>
<course>63.1</course>
<desc>Speed 4.8 km/h Distance 2.04 km</desc>
<time>2010-10-23T16:59:49.57</time>
<name>1307</name>
</trkpt>
<trkpt lat="48.945840" lon="8.644867">
<ele>304.5</ele>
<speed>1.38</speed>
<course>58.7</course>
<desc>Speed 5.0 km/h Distance 2.04 km</desc>
<time>2010-10-23T16:59:50.57</time>
<name>1308</name>
</trkpt>
<trkpt lat="48.945847" lon="8.644883">
<ele>304.0</ele>
<speed>1.41</speed>
<course>57.7</course>
<desc>Speed 5.1 km/h Distance 2.04 km</desc>
<time>2010-10-23T16:59:51.57</time>
<name>1309</name>
</trkpt>
<trkpt lat="48.945855" lon="8.644903">
<ele>303.5</ele>
<speed>1.51</speed>
<course>61.0</course>
<desc>Speed 5.4 km/h Distance 2.04 km</desc>
<time>2010-10-23T16:59:52.57</time>
<name>1310</name>
</trkpt>
<trkpt lat="48.945862" lon="8.644922">
<ele>303.5</ele>
<speed>1.37</speed>
<course>44.6</course>
<desc>Speed 4.9 km/h Distance 2.05 km</desc>
<time>2010-10-23T16:59:53.57</time>
<name>1311</name>
</trkpt>
<trkpt lat="48.945882" lon="8.644952">
<ele>304.5</ele>
<speed>1.37</speed>
<course>40.2</course>
<desc>Speed 4.9 km/h Distance 2.05 km</desc>
<time>2010-10-23T16:59:54.57</time>
<name>1312</name>
</trkpt>
<trkpt lat="48.945893" lon="8.644967">
<ele>305.0</ele>
<speed>1.45</speed>
<course>69.2</course>
<desc>Speed 5.2 km/h Distance 2.05 km</desc>
<time>2010-10-23T16:59:55.57</time>
<name>1313</name>
</trkpt>
<trkpt lat="48.945898" lon="8.644987">
<ele>304.5</ele>
<speed>1.25</speed>
<course>76.8</course>
<desc>Speed 4.5 km/h Distance 2.05 km</desc>
<time>2010-10-23T16:59:56.57</time>
<name>1314</name>
</trkpt>
<trkpt lat="48.945902" lon="8.645008">
<ele>303.5</ele>
<speed>1.32</speed>
<course>67.4</course>
<desc>Speed 4.8 km/h Distance 2.05 km</desc>
<time>2010-10-23T16:59:57.57</time>
<name>1315</name>
</trkpt>
<trkpt lat="48.945907" lon="8.645027">
<ele>303.0</ele>
<speed>1.23</speed>
<course>65.4</course>
<desc>Speed 4.4 km/h Distance 2.05 km</desc>
<time>2010-10-23T16:59:58.57</time>
<name>1316</name>
</trkpt>
<trkpt lat="48.945912" lon="8.645043">
<ele>302.5</ele>
<speed>1.23</speed>
<course>61.0</course>
<desc>Speed 4.4 km/h Distance 2.06 km</desc>
<time>2010-10-23T16:59:59.57</time>
<name>1317</name>
</trkpt>
<trkpt lat="48.945918" lon="8.645062">
<ele>302.0</ele>
<speed>1.13</speed>
<course>69.2</course>
<desc>Speed 4.1 km/h Distance 2.06 km</desc>
<time>2010-10-23T17:00:00.57</time>
<name>1318</name>
</trkpt>
<trkpt lat="48.945923" lon="8.645082">
<ele>301.5</ele>
<speed>1.12</speed>
<course>80.4</course>
<desc>Speed 4.0 km/h Distance 2.06 km</desc>
<time>2010-10-23T17:00:01.57</time>
<name>1319</name>
</trkpt>
<trkpt lat="48.945925" lon="8.645097">
<ele>301.0</ele>
<speed>1.08</speed>
<course>63.1</course>
<desc>Speed 3.9 km/h Distance 2.06 km</desc>
<time>2010-10-23T17:00:02.57</time>
<name>1320</name>
</trkpt>
<trkpt lat="48.945932" lon="8.645117">
<ele>301.0</ele>
<speed>1.00</speed>
<course>75.8</course>
<desc>Speed 3.6 km/h Distance 2.06 km</desc>
<time>2010-10-23T17:00:03.57</time>
<name>1321</name>
</trkpt>
<trkpt lat="48.945935" lon="8.645137">
<ele>300.5</ele>
<speed>1.37</speed>
<course>76.8</course>
<desc>Speed 4.9 km/h Distance 2.06 km</desc>
<time>2010-10-23T17:00:04.57</time>
<name>1322</name>
</trkpt>
<trkpt lat="48.945938" lon="8.645158">
<ele>299.5</ele>
<speed>1.38</speed>
<course>61.0</course>
<desc>Speed 5.0 km/h Distance 2.07 km</desc>
<time>2010-10-23T17:00:05.57</time>
<name>1323</name>
</trkpt>
<trkpt lat="48.945945" lon="8.645177">
<ele>300.0</ele>
<speed>1.25</speed>
<course>90.0</course>
<desc>Speed 4.5 km/h Distance 2.07 km</desc>
<time>2010-10-23T17:00:06.57</time>
<name>1324</name>
</trkpt>
<trkpt lat="48.945945" lon="8.645197">
<ele>299.0</ele>
<speed>1.33</speed>
<course>110.8</course>
<desc>Speed 4.8 km/h Distance 2.07 km</desc>
<time>2010-10-23T17:00:07.57</time>
<name>1325</name>
</trkpt>
<trkpt lat="48.945940" lon="8.645217">
<ele>297.5</ele>
<speed>1.35</speed>
<course>63.1</course>
<desc>Speed 4.9 km/h Distance 2.07 km</desc>
<time>2010-10-23T17:00:08.57</time>
<name>1326</name>
</trkpt>
<trkpt lat="48.945945" lon="8.645232">
<ele>297.5</ele>
<speed>1.19</speed>
<course>74.6</course>
<desc>Speed 4.3 km/h Distance 2.07 km</desc>
<time>2010-10-23T17:00:09.57</time>
<name>1327</name>
</trkpt>
<trkpt lat="48.945948" lon="8.645250">
<ele>298.0</ele>
<speed>1.25</speed>
<course>73.1</course>
<desc>Speed 4.5 km/h Distance 2.07 km</desc>
<time>2010-10-23T17:00:10.57</time>
<name>1328</name>
</trkpt>
<trkpt lat="48.945952" lon="8.645267">
<ele>298.0</ele>
<speed>1.32</speed>
<course>81.3</course>
<desc>Speed 4.8 km/h Distance 2.07 km</desc>
<time>2010-10-23T17:00:11.57</time>
<name>1329</name>
</trkpt>
<trkpt lat="48.945953" lon="8.645283">
<ele>297.5</ele>
<speed>1.05</speed>
<course>100.8</course>
<desc>Speed 3.8 km/h Distance 2.07 km</desc>
<time>2010-10-23T17:00:12.57</time>
<name>1330</name>
</trkpt>
<trkpt lat="48.945952" lon="8.645297">
<ele>296.5</ele>
<speed>0.86</speed>
<course>63.0</course>
<desc>Speed 3.1 km/h Distance 2.08 km</desc>
<time>2010-10-23T17:00:13.57</time>
<name>1331</name>
</trkpt>
<trkpt lat="48.945955" lon="8.645307">
<ele>296.0</ele>
<speed>0.76</speed>
<course>74.9</course>
<desc>Speed 2.7 km/h Distance 2.08 km</desc>
<time>2010-10-23T17:00:14.56</time>
<name>1332</name>
</trkpt>
<trkpt lat="48.945960" lon="8.645335">
<ele>295.5</ele>
<speed>0.82</speed>
<course>58.6</course>
<desc>Speed 3.0 km/h Distance 2.08 km</desc>
<time>2010-10-23T17:00:16.62</time>
<name>1333</name>
</trkpt>
<trkpt lat="48.945963" lon="8.645343">
<ele>295.5</ele>
<speed>0.58</speed>
<course>63.1</course>
<desc>Speed 2.1 km/h Distance 2.08 km</desc>
<time>2010-10-23T17:00:18.62</time>
<name>1334</name>
</trkpt>
<trkpt lat="48.945972" lon="8.645368">
<ele>295.5</ele>
<speed>0.66</speed>
<course>44.6</course>
<desc>Speed 2.4 km/h Distance 2.08 km</desc>
<time>2010-10-23T17:00:19.66</time>
<name>1335</name>
</trkpt>
<trkpt lat="48.945982" lon="8.645383">
<ele>297.0</ele>
<speed>0.40</speed>
<course>106.3</course>
<desc>Speed 1.4 km/h Distance 2.08 km</desc>
<time>2010-10-23T17:00:23.66</time>
<name>1336</name>
</trkpt>
<trkpt lat="48.945973" lon="8.645427">
<ele>300.0</ele>
<speed>0.52</speed>
<course>270.0</course>
<desc>Speed 1.9 km/h Distance 2.09 km</desc>
<time>2010-10-23T17:00:26.66</time>
<name>1337</name>
</trkpt>
<trkpt lat="48.945973" lon="8.645420">
<ele>300.5</ele>
<speed>1.35</speed>
<course>290.9</course>
<desc>Speed 4.9 km/h Distance 2.09 km</desc>
<time>2010-10-23T17:00:27.78</time>
<name>1338</name>
</trkpt>
<trkpt lat="48.945975" lon="8.645413">
<ele>301.5</ele>
<speed>1.01</speed>
<course>192.6</course>
<desc>Speed 3.6 km/h Distance 2.09 km</desc>
<time>2010-10-23T17:00:28.67</time>
<name>1339</name>
</trkpt>
<trkpt lat="48.945965" lon="8.645410">
<ele>301.5</ele>
<speed>1.38</speed>
<course>178.4</course>
<desc>Speed 5.0 km/h Distance 2.09 km</desc>
<time>2010-10-23T17:00:29.67</time>
<name>1340</name>
</trkpt>
<trkpt lat="48.945918" lon="8.645412">
<ele>301.5</ele>
<speed>1.37</speed>
<course>165.4</course>
<desc>Speed 4.9 km/h Distance 2.09 km</desc>
<time>2010-10-23T17:00:34.20</time>
<name>1341</name>
</trkpt>
<trkpt lat="48.945885" lon="8.645425">
<ele>303.0</ele>
<speed>1.34</speed>
<course>141.4</course>
<desc>Speed 4.8 km/h Distance 2.10 km</desc>
<time>2010-10-23T17:00:36.36</time>
<name>1342</name>
</trkpt>
<trkpt lat="48.945862" lon="8.645453">
<ele>303.0</ele>
<speed>1.99</speed>
<course>149.1</course>
<desc>Speed 7.2 km/h Distance 2.10 km</desc>
<time>2010-10-23T17:00:38.80</time>
<name>1343</name>
</trkpt>
<trkpt lat="48.945843" lon="8.645470">
<ele>303.0</ele>
<speed>2.35</speed>
<course>200.1</course>
<desc>Speed 8.5 km/h Distance 2.10 km</desc>
<time>2010-10-23T17:00:39.35</time>
<name>1344</name>
</trkpt>
<trkpt lat="48.945828" lon="8.645462">
<ele>302.0</ele>
<speed>1.67</speed>
<course>9.5</course>
<desc>Speed 6.0 km/h Distance 2.11 km</desc>
<time>2010-10-23T17:00:40.35</time>
<name>1345</name>
</trkpt>
<trkpt lat="48.945840" lon="8.645465">
<ele>302.0</ele>
<speed>1.16</speed>
<course>1.2</course>
<desc>Speed 4.2 km/h Distance 2.11 km</desc>
<time>2010-10-23T17:00:41.37</time>
<name>1346</name>
</trkpt>
<trkpt lat="48.945847" lon="8.645465">
<ele>302.0</ele>
<speed>1.16</speed>
<course>165.1</course>
<desc>Speed 4.2 km/h Distance 2.11 km</desc>
<time>2010-10-23T17:00:42.49</time>
<name>1347</name>
</trkpt>
<trkpt lat="48.945830" lon="8.645472">
<ele>301.5</ele>
<speed>1.73</speed>
<course>177.2</course>
<desc>Speed 6.2 km/h Distance 2.11 km</desc>
<time>2010-10-23T17:00:43.35</time>
<name>1348</name>
</trkpt>
<trkpt lat="48.945813" lon="8.645472">
<ele>301.5</ele>
<speed>1.50</speed>
<course>176.2</course>
<desc>Speed 5.4 km/h Distance 2.11 km</desc>
<time>2010-10-23T17:00:44.33</time>
<name>1349</name>
</trkpt>
<trkpt lat="48.945798" lon="8.645473">
<ele>301.0</ele>
<speed>1.35</speed>
<course>202.1</course>
<desc>Speed 4.9 km/h Distance 2.11 km</desc>
<time>2010-10-23T17:00:45.32</time>
<name>1350</name>
</trkpt>
<trkpt lat="48.945785" lon="8.645465">
<ele>300.5</ele>
<speed>1.30</speed>
<course>191.7</course>
<desc>Speed 4.7 km/h Distance 2.11 km</desc>
<time>2010-10-23T17:00:46.32</time>
<name>1351</name>
</trkpt>
<trkpt lat="48.945770" lon="8.645460">
<ele>301.0</ele>
<speed>1.53</speed>
<course>198.1</course>
<desc>Speed 5.5 km/h Distance 2.12 km</desc>
<time>2010-10-23T17:00:47.32</time>
<name>1352</name>
</trkpt>
<trkpt lat="48.945757" lon="8.645453">
<ele>302.0</ele>
<speed>1.27</speed>
<course>192.6</course>
<desc>Speed 4.6 km/h Distance 2.12 km</desc>
<time>2010-10-23T17:00:48.32</time>
<name>1353</name>
</trkpt>
<trkpt lat="48.945747" lon="8.645450">
<ele>302.0</ele>
<speed>1.21</speed>
<course>240.3</course>
<desc>Speed 4.4 km/h Distance 2.12 km</desc>
<time>2010-10-23T17:00:49.32</time>
<name>1354</name>
</trkpt>
<trkpt lat="48.945742" lon="8.645437">
<ele>301.5</ele>
<speed>1.14</speed>
<course>188.1</course>
<desc>Speed 4.1 km/h Distance 2.12 km</desc>
<time>2010-10-23T17:00:50.31</time>
<name>1355</name>
</trkpt>
<trkpt lat="48.945718" lon="8.645432">
<ele>301.5</ele>
<speed>2.75</speed>
<course>185.0</course>
<desc>Speed 9.9 km/h Distance 2.12 km</desc>
<time>2010-10-23T17:00:51.31</time>
<name>1356</name>
</trkpt>
<trkpt lat="48.945710" lon="8.645430">
<ele>301.5</ele>
<speed>1.15</speed>
<course>190.4</course>
<desc>Speed 4.1 km/h Distance 2.12 km</desc>
<time>2010-10-23T17:00:52.31</time>
<name>1357</name>
</trkpt>
<trkpt lat="48.945698" lon="8.645427">
<ele>301.5</ele>
<speed>1.36</speed>
<course>189.0</course>
<desc>Speed 4.9 km/h Distance 2.12 km</desc>
<time>2010-10-23T17:00:53.31</time>
<name>1358</name>
</trkpt>
<trkpt lat="48.945685" lon="8.645423">
<ele>302.0</ele>
<speed>1.34</speed>
<course>208.9</course>
<desc>Speed 4.8 km/h Distance 2.13 km</desc>
<time>2010-10-23T17:00:54.30</time>
<name>1359</name>
</trkpt>
<trkpt lat="48.945675" lon="8.645415">
<ele>302.5</ele>
<speed>1.29</speed>
<course>200.9</course>
<desc>Speed 4.6 km/h Distance 2.13 km</desc>
<time>2010-10-23T17:00:55.29</time>
<name>1360</name>
</trkpt>
<trkpt lat="48.945663" lon="8.645408">
<ele>303.5</ele>
<speed>1.26</speed>
<course>221.2</course>
<desc>Speed 4.5 km/h Distance 2.13 km</desc>
<time>2010-10-23T17:00:56.29</time>
<name>1361</name>
</trkpt>
<trkpt lat="48.945653" lon="8.645395">
<ele>304.5</ele>
<speed>1.27</speed>
<course>213.4</course>
<desc>Speed 4.6 km/h Distance 2.13 km</desc>
<time>2010-10-23T17:00:57.28</time>
<name>1362</name>
</trkpt>
<trkpt lat="48.945640" lon="8.645382">
<ele>305.5</ele>
<speed>1.19</speed>
<course>213.4</course>
<desc>Speed 4.3 km/h Distance 2.13 km</desc>
<time>2010-10-23T17:00:58.27</time>
<name>1363</name>
</trkpt>
<trkpt lat="48.945628" lon="8.645370">
<ele>306.0</ele>
<speed>1.19</speed>
<course>208.6</course>
<desc>Speed 4.3 km/h Distance 2.13 km</desc>
<time>2010-10-23T17:00:59.26</time>
<name>1364</name>
</trkpt>
<trkpt lat="48.945618" lon="8.645362">
<ele>306.0</ele>
<speed>1.05</speed>
<course>208.6</course>
<desc>Speed 3.8 km/h Distance 2.13 km</desc>
<time>2010-10-23T17:01:00.27</time>
<name>1365</name>
</trkpt>
<trkpt lat="48.945608" lon="8.645353">
<ele>306.0</ele>
<speed>1.12</speed>
<course>226.4</course>
<desc>Speed 4.0 km/h Distance 2.14 km</desc>
<time>2010-10-23T17:01:01.26</time>
<name>1366</name>
</trkpt>
<trkpt lat="48.945600" lon="8.645340">
<ele>305.5</ele>
<speed>1.17</speed>
<course>228.9</course>
<desc>Speed 4.2 km/h Distance 2.14 km</desc>
<time>2010-10-23T17:01:02.24</time>
<name>1367</name>
</trkpt>
<trkpt lat="48.945593" lon="8.645328">
<ele>306.0</ele>
<speed>1.16</speed>
<course>216.9</course>
<desc>Speed 4.2 km/h Distance 2.14 km</desc>
<time>2010-10-23T17:01:03.25</time>
<name>1368</name>
</trkpt>
<trkpt lat="48.945582" lon="8.645315">
<ele>307.5</ele>
<speed>1.32</speed>
<course>221.2</course>
<desc>Speed 4.8 km/h Distance 2.14 km</desc>
<time>2010-10-23T17:01:04.25</time>
<name>1369</name>
</trkpt>
<trkpt lat="48.945572" lon="8.645302">
<ele>307.5</ele>
<speed>1.54</speed>
<course>229.8</course>
<desc>Speed 5.5 km/h Distance 2.14 km</desc>
<time>2010-10-23T17:01:05.25</time>
<name>1370</name>
</trkpt>
<trkpt lat="48.945563" lon="8.645287">
<ele>307.5</ele>
<speed>1.51</speed>
<course>217.5</course>
<desc>Speed 5.4 km/h Distance 2.14 km</desc>
<time>2010-10-23T17:01:06.24</time>
<name>1371</name>
</trkpt>
<trkpt lat="48.945553" lon="8.645275">
<ele>308.0</ele>
<speed>1.46</speed>
<course>226.5</course>
<desc>Speed 5.3 km/h Distance 2.14 km</desc>
<time>2010-10-23T17:01:07.24</time>
<name>1372</name>
</trkpt>
<trkpt lat="48.945545" lon="8.645262">
<ele>308.0</ele>
<speed>1.54</speed>
<course>232.7</course>
<desc>Speed 5.5 km/h Distance 2.15 km</desc>
<time>2010-10-23T17:01:08.23</time>
<name>1373</name>
</trkpt>
<trkpt lat="48.945538" lon="8.645248">
<ele>307.5</ele>
<speed>1.17</speed>
<course>232.7</course>
<desc>Speed 4.2 km/h Distance 2.15 km</desc>
<time>2010-10-23T17:01:09.21</time>
<name>1374</name>
</trkpt>
<trkpt lat="48.945532" lon="8.645235">
<ele>307.5</ele>
<speed>1.23</speed>
<course>220.2</course>
<desc>Speed 4.4 km/h Distance 2.15 km</desc>
<time>2010-10-23T17:01:10.20</time>
<name>1375</name>
</trkpt>
<trkpt lat="48.945520" lon="8.645220">
<ele>308.0</ele>
<speed>1.41</speed>
<course>235.9</course>
<desc>Speed 5.1 km/h Distance 2.15 km</desc>
<time>2010-10-23T17:01:11.20</time>
<name>1376</name>
</trkpt>
<trkpt lat="48.945513" lon="8.645205">
<ele>308.0</ele>
<speed>1.30</speed>
<course>229.8</course>
<desc>Speed 4.7 km/h Distance 2.15 km</desc>
<time>2010-10-23T17:01:12.19</time>
<name>1377</name>
</trkpt>
<trkpt lat="48.945505" lon="8.645190">
<ele>308.0</ele>
<speed>1.14</speed>
<course>238.7</course>
<desc>Speed 4.1 km/h Distance 2.15 km</desc>
<time>2010-10-23T17:01:13.19</time>
<name>1378</name>
</trkpt>
<trkpt lat="48.945498" lon="8.645173">
<ele>308.0</ele>
<speed>1.26</speed>
<course>238.6</course>
<desc>Speed 4.5 km/h Distance 2.15 km</desc>
<time>2010-10-23T17:01:14.22</time>
<name>1379</name>
</trkpt>
<trkpt lat="48.945492" lon="8.645157">
<ele>308.5</ele>
<speed>1.33</speed>
<course>245.5</course>
<desc>Speed 4.8 km/h Distance 2.16 km</desc>
<time>2010-10-23T17:01:15.18</time>
<name>1380</name>
</trkpt>
<trkpt lat="48.945487" lon="8.645140">
<ele>308.5</ele>
<speed>1.20</speed>
<course>241.1</course>
<desc>Speed 4.3 km/h Distance 2.16 km</desc>
<time>2010-10-23T17:01:16.18</time>
<name>1381</name>
</trkpt>
<trkpt lat="48.945480" lon="8.645122">
<ele>309.0</ele>
<speed>1.45</speed>
<course>235.3</course>
<desc>Speed 5.2 km/h Distance 2.16 km</desc>
<time>2010-10-23T17:01:17.18</time>
<name>1382</name>
</trkpt>
<trkpt lat="48.945472" lon="8.645103">
<ele>310.0</ele>
<speed>1.59</speed>
<course>247.4</course>
<desc>Speed 5.7 km/h Distance 2.16 km</desc>
<time>2010-10-23T17:01:18.18</time>
<name>1383</name>
</trkpt>
<trkpt lat="48.945467" lon="8.645085">
<ele>310.5</ele>
<speed>1.37</speed>
<course>238.7</course>
<desc>Speed 4.9 km/h Distance 2.16 km</desc>
<time>2010-10-23T17:01:19.18</time>
<name>1384</name>
</trkpt>
<trkpt lat="48.945460" lon="8.645068">
<ele>310.5</ele>
<speed>1.33</speed>
<course>232.8</course>
<desc>Speed 4.8 km/h Distance 2.16 km</desc>
<time>2010-10-23T17:01:20.16</time>
<name>1385</name>
</trkpt>
<trkpt lat="48.945452" lon="8.645052">
<ele>311.0</ele>
<speed>1.33</speed>
<course>254.5</course>
<desc>Speed 4.8 km/h Distance 2.16 km</desc>
<time>2010-10-23T17:01:21.15</time>
<name>1386</name>
</trkpt>
<trkpt lat="48.945448" lon="8.645033">
<ele>311.0</ele>
<speed>1.27</speed>
<course>241.0</course>
<desc>Speed 4.6 km/h Distance 2.17 km</desc>
<time>2010-10-23T17:01:22.15</time>
<name>1387</name>
</trkpt>
<trkpt lat="48.945442" lon="8.645015">
<ele>311.0</ele>
<speed>1.37</speed>
<course>244.9</course>
<desc>Speed 4.9 km/h Distance 2.17 km</desc>
<time>2010-10-23T17:01:23.14</time>
<name>1388</name>
</trkpt>
<trkpt lat="48.945435" lon="8.644993">
<ele>311.0</ele>
<speed>1.48</speed>
<course>238.6</course>
<desc>Speed 5.3 km/h Distance 2.17 km</desc>
<time>2010-10-23T17:01:24.15</time>
<name>1389</name>
</trkpt>
<trkpt lat="48.945428" lon="8.644977">
<ele>311.0</ele>
<speed>1.42</speed>
<course>238.7</course>
<desc>Speed 5.1 km/h Distance 2.17 km</desc>
<time>2010-10-23T17:01:25.14</time>
<name>1390</name>
</trkpt>
<trkpt lat="48.945422" lon="8.644960">
<ele>310.5</ele>
<speed>1.27</speed>
<course>251.3</course>
<desc>Speed 4.6 km/h Distance 2.17 km</desc>
<time>2010-10-23T17:01:26.14</time>
<name>1391</name>
</trkpt>
<trkpt lat="48.945418" lon="8.644945">
<ele>310.0</ele>
<speed>1.05</speed>
<course>253.1</course>
<desc>Speed 3.8 km/h Distance 2.17 km</desc>
<time>2010-10-23T17:01:27.12</time>
<name>1392</name>
</trkpt>
<trkpt lat="48.945415" lon="8.644928">
<ele>309.0</ele>
<speed>0.97</speed>
<course>210.6</course>
<desc>Speed 3.5 km/h Distance 2.17 km</desc>
<time>2010-10-23T17:01:28.16</time>
<name>1393</name>
</trkpt>
<trkpt lat="48.945398" lon="8.644913">
<ele>309.0</ele>
<speed>2.13</speed>
<course>299.7</course>
<desc>Speed 7.7 km/h Distance 2.18 km</desc>
<time>2010-10-23T17:01:29.12</time>
<name>1394</name>
</trkpt>
<trkpt lat="48.945403" lon="8.644900">
<ele>309.5</ele>
<speed>1.03</speed>
<course>229.9</course>
<desc>Speed 3.7 km/h Distance 2.18 km</desc>
<time>2010-10-23T17:01:30.11</time>
<name>1395</name>
</trkpt>
<trkpt lat="48.945395" lon="8.644885">
<ele>309.0</ele>
<speed>1.30</speed>
<course>221.3</course>
<desc>Speed 4.7 km/h Distance 2.18 km</desc>
<time>2010-10-23T17:01:31.11</time>
<name>1396</name>
</trkpt>
<trkpt lat="48.945385" lon="8.644872">
<ele>309.0</ele>
<speed>1.33</speed>
<course>251.3</course>
<desc>Speed 4.8 km/h Distance 2.18 km</desc>
<time>2010-10-23T17:01:32.09</time>
<name>1397</name>
</trkpt>
<trkpt lat="48.945382" lon="8.644857">
<ele>308.5</ele>
<speed>0.99</speed>
<course>226.4</course>
<desc>Speed 3.6 km/h Distance 2.18 km</desc>
<time>2010-10-23T17:01:33.10</time>
<name>1398</name>
</trkpt>
<trkpt lat="48.945373" lon="8.644843">
<ele>308.5</ele>
<speed>1.23</speed>
<course>237.1</course>
<desc>Speed 4.4 km/h Distance 2.18 km</desc>
<time>2010-10-23T17:01:34.09</time>
<name>1399</name>
</trkpt>
<trkpt lat="48.945368" lon="8.644832">
<ele>308.0</ele>
<speed>1.11</speed>
<course>226.5</course>
<desc>Speed 4.0 km/h Distance 2.18 km</desc>
<time>2010-10-23T17:01:35.08</time>
<name>1400</name>
</trkpt>
<trkpt lat="48.945360" lon="8.644818">
<ele>307.5</ele>
<speed>1.23</speed>
<course>221.2</course>
<desc>Speed 4.4 km/h Distance 2.19 km</desc>
<time>2010-10-23T17:01:36.08</time>
<name>1401</name>
</trkpt>
<trkpt lat="48.945350" lon="8.644805">
<ele>308.0</ele>
<speed>1.48</speed>
<course>230.6</course>
<desc>Speed 5.3 km/h Distance 2.19 km</desc>
<time>2010-10-23T17:01:37.08</time>
<name>1402</name>
</trkpt>
<trkpt lat="48.945338" lon="8.644783">
<ele>309.0</ele>
<speed>1.27</speed>
<course>236.0</course>
<desc>Speed 4.6 km/h Distance 2.19 km</desc>
<time>2010-10-23T17:01:38.08</time>
<name>1403</name>
</trkpt>
<trkpt lat="48.945332" lon="8.644768">
<ele>309.0</ele>
<speed>1.34</speed>
<course>236.0</course>
<desc>Speed 4.8 km/h Distance 2.19 km</desc>
<time>2010-10-23T17:01:39.07</time>
<name>1404</name>
</trkpt>
<trkpt lat="48.945325" lon="8.644753">
<ele>308.5</ele>
<speed>1.20</speed>
<course>225.9</course>
<desc>Speed 4.3 km/h Distance 2.19 km</desc>
<time>2010-10-23T17:01:40.07</time>
<name>1405</name>
</trkpt>
<trkpt lat="48.945313" lon="8.644735">
<ele>308.5</ele>
<speed>1.41</speed>
<course>224.5</course>
<desc>Speed 5.1 km/h Distance 2.19 km</desc>
<time>2010-10-23T17:01:41.07</time>
<name>1406</name>
</trkpt>
<trkpt lat="48.945300" lon="8.644715">
<ele>308.5</ele>
<speed>1.54</speed>
<course>219.4</course>
<desc>Speed 5.5 km/h Distance 2.20 km</desc>
<time>2010-10-23T17:01:42.09</time>
<name>1407</name>
</trkpt>
<trkpt lat="48.945287" lon="8.644698">
<ele>308.0</ele>
<speed>1.37</speed>
<course>218.1</course>
<desc>Speed 4.9 km/h Distance 2.20 km</desc>
<time>2010-10-23T17:01:43.05</time>
<name>1408</name>
</trkpt>
<trkpt lat="48.945278" lon="8.644688">
<ele>307.5</ele>
<speed>1.12</speed>
<course>222.6</course>
<desc>Speed 4.0 km/h Distance 2.20 km</desc>
<time>2010-10-23T17:01:44.04</time>
<name>1409</name>
</trkpt>
<trkpt lat="48.945270" lon="8.644677">
<ele>307.0</ele>
<speed>1.14</speed>
<course>220.2</course>
<desc>Speed 4.1 km/h Distance 2.20 km</desc>
<time>2010-10-23T17:01:45.04</time>
<name>1410</name>
</trkpt>
<trkpt lat="48.945258" lon="8.644662">
<ele>307.0</ele>
<speed>1.45</speed>
<course>216.9</course>
<desc>Speed 5.2 km/h Distance 2.20 km</desc>
<time>2010-10-23T17:01:46.04</time>
<name>1411</name>
</trkpt>
<trkpt lat="48.945247" lon="8.644648">
<ele>306.5</ele>
<speed>1.37</speed>
<course>221.2</course>
<desc>Speed 4.9 km/h Distance 2.20 km</desc>
<time>2010-10-23T17:01:47.03</time>
<name>1412</name>
</trkpt>
<trkpt lat="48.945237" lon="8.644635">
<ele>306.0</ele>
<speed>1.26</speed>
<course>213.2</course>
<desc>Speed 4.5 km/h Distance 2.20 km</desc>
<time>2010-10-23T17:01:48.03</time>
<name>1413</name>
</trkpt>
<trkpt lat="48.945227" lon="8.644625">
<ele>306.0</ele>
<speed>1.24</speed>
<course>219.4</course>
<desc>Speed 4.5 km/h Distance 2.21 km</desc>
<time>2010-10-23T17:01:49.02</time>
<name>1414</name>
</trkpt>
<trkpt lat="48.945220" lon="8.644617">
<ele>305.5</ele>
<speed>0.89</speed>
<course>224.5</course>
<desc>Speed 3.2 km/h Distance 2.21 km</desc>
<time>2010-10-23T17:01:50.01</time>
<name>1415</name>
</trkpt>
<trkpt lat="48.945213" lon="8.644607">
<ele>305.0</ele>
<speed>1.00</speed>
<course>203.7</course>
<desc>Speed 3.6 km/h Distance 2.21 km</desc>
<time>2010-10-23T17:01:51.01</time>
<name>1416</name>
</trkpt>
<trkpt lat="48.945198" lon="8.644597">
<ele>306.0</ele>
<speed>1.30</speed>
<course>232.7</course>
<desc>Speed 4.7 km/h Distance 2.21 km</desc>
<time>2010-10-23T17:01:52.01</time>
<name>1417</name>
</trkpt>
<trkpt lat="48.945192" lon="8.644583">
<ele>305.5</ele>
<speed>1.01</speed>
<course>208.6</course>
<desc>Speed 3.6 km/h Distance 2.21 km</desc>
<time>2010-10-23T17:01:53.01</time>
<name>1418</name>
</trkpt>
<trkpt lat="48.945182" lon="8.644575">
<ele>305.0</ele>
<speed>1.02</speed>
<course>209.4</course>
<desc>Speed 3.7 km/h Distance 2.21 km</desc>
<time>2010-10-23T17:01:54.01</time>
<name>1419</name>
</trkpt>
<trkpt lat="48.945170" lon="8.644565">
<ele>305.0</ele>
<speed>1.14</speed>
<course>209.2</course>
<desc>Speed 4.1 km/h Distance 2.21 km</desc>
<time>2010-10-23T17:01:55.00</time>
<name>1420</name>
</trkpt>
<trkpt lat="48.945158" lon="8.644555">
<ele>305.0</ele>
<speed>1.20</speed>
<course>204.7</course>
<desc>Speed 4.3 km/h Distance 2.22 km</desc>
<time>2010-10-23T17:01:56.00</time>
<name>1421</name>
</trkpt>
<trkpt lat="48.945142" lon="8.644543">
<ele>305.0</ele>
<speed>1.30</speed>
<course>213.4</course>
<desc>Speed 4.7 km/h Distance 2.22 km</desc>
<time>2010-10-23T17:01:56.99</time>
<name>1422</name>
</trkpt>
<trkpt lat="48.945130" lon="8.644532">
<ele>305.5</ele>
<speed>1.03</speed>
<course>232.8</course>
<desc>Speed 3.7 km/h Distance 2.22 km</desc>
<time>2010-10-23T17:01:57.99</time>
<name>1423</name>
</trkpt>
<trkpt lat="48.945125" lon="8.644522">
<ele>305.0</ele>
<speed>0.74</speed>
<course>213.7</course>
<desc>Speed 2.7 km/h Distance 2.22 km</desc>
<time>2010-10-23T17:01:58.99</time>
<name>1424</name>
</trkpt>
<trkpt lat="48.945118" lon="8.644515">
<ele>304.5</ele>
<speed>0.87</speed>
<course>218.1</course>
<desc>Speed 3.1 km/h Distance 2.22 km</desc>
<time>2010-10-23T17:01:59.98</time>
<name>1425</name>
</trkpt>
<trkpt lat="48.945110" lon="8.644505">
<ele>304.5</ele>
<speed>1.10</speed>
<course>200.9</course>
<desc>Speed 4.0 km/h Distance 2.22 km</desc>
<time>2010-10-23T17:02:00.97</time>
<name>1426</name>
</trkpt>
<trkpt lat="48.945098" lon="8.644498">
<ele>304.5</ele>
<speed>1.33</speed>
<course>207.9</course>
<desc>Speed 4.8 km/h Distance 2.22 km</desc>
<time>2010-10-23T17:02:01.97</time>
<name>1427</name>
</trkpt>
<trkpt lat="48.945090" lon="8.644492">
<ele>304.0</ele>
<speed>0.97</speed>
<course>203.4</course>
<desc>Speed 3.5 km/h Distance 2.22 km</desc>
<time>2010-10-23T17:02:02.96</time>
<name>1428</name>
</trkpt>
<trkpt lat="48.945080" lon="8.644485">
<ele>303.5</ele>
<speed>1.15</speed>
<course>202.1</course>
<desc>Speed 4.1 km/h Distance 2.23 km</desc>
<time>2010-10-23T17:02:03.95</time>
<name>1429</name>
</trkpt>
<trkpt lat="48.945067" lon="8.644477">
<ele>303.5</ele>
<speed>1.59</speed>
<course>193.5</course>
<desc>Speed 5.7 km/h Distance 2.23 km</desc>
<time>2010-10-23T17:02:04.94</time>
<name>1430</name>
</trkpt>
<trkpt lat="48.945053" lon="8.644472">
<ele>303.5</ele>
<speed>1.46</speed>
<course>203.8</course>
<desc>Speed 5.3 km/h Distance 2.23 km</desc>
<time>2010-10-23T17:02:05.94</time>
<name>1431</name>
</trkpt>
<trkpt lat="48.945043" lon="8.644465">
<ele>303.0</ele>
<speed>0.97</speed>
<course>201.5</course>
<desc>Speed 3.5 km/h Distance 2.23 km</desc>
<time>2010-10-23T17:02:06.94</time>
<name>1432</name>
</trkpt>
<trkpt lat="48.945035" lon="8.644460">
<ele>302.0</ele>
<speed>0.94</speed>
<course>194.6</course>
<desc>Speed 3.4 km/h Distance 2.23 km</desc>
<time>2010-10-23T17:02:07.94</time>
<name>1433</name>
</trkpt>
<trkpt lat="48.945018" lon="8.644453">
<ele>303.0</ele>
<speed>1.53</speed>
<course>196.3</course>
<desc>Speed 5.5 km/h Distance 2.23 km</desc>
<time>2010-10-23T17:02:08.92</time>
<name>1434</name>
</trkpt>
<trkpt lat="48.945003" lon="8.644447">
<ele>302.5</ele>
<speed>1.39</speed>
<course>203.5</course>
<desc>Speed 5.0 km/h Distance 2.23 km</desc>
<time>2010-10-23T17:02:09.91</time>
<name>1435</name>
</trkpt>
<trkpt lat="48.944988" lon="8.644437">
<ele>303.5</ele>
<speed>1.20</speed>
<course>193.5</course>
<desc>Speed 4.3 km/h Distance 2.24 km</desc>
<time>2010-10-23T17:02:10.92</time>
<name>1436</name>
</trkpt>
<trkpt lat="48.944975" lon="8.644432">
<ele>303.0</ele>
<speed>1.37</speed>
<course>192.2</course>
<desc>Speed 4.9 km/h Distance 2.24 km</desc>
<time>2010-10-23T17:02:11.92</time>
<name>1437</name>
</trkpt>
<trkpt lat="48.944960" lon="8.644427">
<ele>303.0</ele>
<speed>1.39</speed>
<course>192.2</course>
<desc>Speed 5.0 km/h Distance 2.24 km</desc>
<time>2010-10-23T17:02:12.91</time>
<name>1438</name>
</trkpt>
<trkpt lat="48.944945" lon="8.644422">
<ele>303.0</ele>
<speed>1.21</speed>
<course>186.5</course>
<desc>Speed 4.4 km/h Distance 2.24 km</desc>
<time>2010-10-23T17:02:13.90</time>
<name>1439</name>
</trkpt>
<trkpt lat="48.944927" lon="8.644418">
<ele>302.5</ele>
<speed>1.37</speed>
<course>191.2</course>
<desc>Speed 4.9 km/h Distance 2.24 km</desc>
<time>2010-10-23T17:02:14.89</time>
<name>1440</name>
</trkpt>
<trkpt lat="48.944910" lon="8.644413">
<ele>303.0</ele>
<speed>1.30</speed>
<course>198.2</course>
<desc>Speed 4.7 km/h Distance 2.25 km</desc>
<time>2010-10-23T17:02:15.89</time>
<name>1441</name>
</trkpt>
<trkpt lat="48.944900" lon="8.644408">
<ele>303.0</ele>
<speed>1.23</speed>
<course>200.6</course>
<desc>Speed 4.4 km/h Distance 2.25 km</desc>
<time>2010-10-23T17:02:16.88</time>
<name>1442</name>
</trkpt>
<trkpt lat="48.944888" lon="8.644402">
<ele>303.0</ele>
<speed>1.39</speed>
<course>200.2</course>
<desc>Speed 5.0 km/h Distance 2.25 km</desc>
<time>2010-10-23T17:02:17.89</time>
<name>1443</name>
</trkpt>
<trkpt lat="48.944877" lon="8.644395">
<ele>302.5</ele>
<speed>1.21</speed>
<course>200.9</course>
<desc>Speed 4.4 km/h Distance 2.25 km</desc>
<time>2010-10-23T17:02:18.88</time>
<name>1444</name>
</trkpt>
<trkpt lat="48.944865" lon="8.644388">
<ele>302.5</ele>
<speed>1.37</speed>
<course>200.6</course>
<desc>Speed 4.9 km/h Distance 2.25 km</desc>
<time>2010-10-23T17:02:19.87</time>
<name>1445</name>
</trkpt>
<trkpt lat="48.944853" lon="8.644382">
<ele>302.5</ele>
<speed>1.40</speed>
<course>198.1</course>
<desc>Speed 5.0 km/h Distance 2.25 km</desc>
<time>2010-10-23T17:02:20.87</time>
<name>1446</name>
</trkpt>
<trkpt lat="48.944840" lon="8.644375">
<ele>302.5</ele>
<speed>1.47</speed>
<course>207.9</course>
<desc>Speed 5.3 km/h Distance 2.25 km</desc>
<time>2010-10-23T17:02:21.86</time>
<name>1447</name>
</trkpt>
<trkpt lat="48.944832" lon="8.644368">
<ele>301.5</ele>
<speed>1.00</speed>
<course>205.2</course>
<desc>Speed 3.6 km/h Distance 2.25 km</desc>
<time>2010-10-23T17:02:22.87</time>
<name>1448</name>
</trkpt>
<trkpt lat="48.944820" lon="8.644360">
<ele>301.5</ele>
<speed>1.35</speed>
<course>213.2</course>
<desc>Speed 4.9 km/h Distance 2.26 km</desc>
<time>2010-10-23T17:02:23.85</time>
<name>1449</name>
</trkpt>
<trkpt lat="48.944812" lon="8.644352">
<ele>301.0</ele>
<speed>1.15</speed>
<course>202.7</course>
<desc>Speed 4.1 km/h Distance 2.26 km</desc>
<time>2010-10-23T17:02:24.86</time>
<name>1450</name>
</trkpt>
<trkpt lat="48.944793" lon="8.644340">
<ele>301.5</ele>
<speed>1.23</speed>
<course>198.4</course>
<desc>Speed 4.4 km/h Distance 2.26 km</desc>
<time>2010-10-23T17:02:25.85</time>
<name>1451</name>
</trkpt>
<trkpt lat="48.944780" lon="8.644333">
<ele>301.0</ele>
<speed>1.34</speed>
<course>206.4</course>
<desc>Speed 4.8 km/h Distance 2.26 km</desc>
<time>2010-10-23T17:02:26.85</time>
<name>1452</name>
</trkpt>
<trkpt lat="48.944773" lon="8.644328">
<ele>300.0</ele>
<speed>0.75</speed>
<course>192.6</course>
<desc>Speed 2.7 km/h Distance 2.26 km</desc>
<time>2010-10-23T17:02:27.84</time>
<name>1453</name>
</trkpt>
<trkpt lat="48.944763" lon="8.644325">
<ele>299.5</ele>
<speed>0.81</speed>
<course>195.5</course>
<desc>Speed 2.9 km/h Distance 2.26 km</desc>
<time>2010-10-23T17:02:28.84</time>
<name>1454</name>
</trkpt>
<trkpt lat="48.944752" lon="8.644320">
<ele>299.0</ele>
<speed>1.17</speed>
<course>218.1</course>
<desc>Speed 4.2 km/h Distance 2.26 km</desc>
<time>2010-10-23T17:02:29.83</time>
<name>1455</name>
</trkpt>
<trkpt lat="48.944743" lon="8.644310">
<ele>298.0</ele>
<speed>1.00</speed>
<course>201.5</course>
<desc>Speed 3.6 km/h Distance 2.27 km</desc>
<time>2010-10-23T17:02:30.83</time>
<name>1456</name>
</trkpt>
<trkpt lat="48.944727" lon="8.644300">
<ele>298.5</ele>
<speed>1.74</speed>
<course>199.9</course>
<desc>Speed 6.3 km/h Distance 2.27 km</desc>
<time>2010-10-23T17:02:31.82</time>
<name>1457</name>
</trkpt>
<trkpt lat="48.944712" lon="8.644292">
<ele>298.5</ele>
<speed>1.58</speed>
<course>203.7</course>
<desc>Speed 5.7 km/h Distance 2.27 km</desc>
<time>2010-10-23T17:02:32.82</time>
<name>1458</name>
</trkpt>
<trkpt lat="48.944697" lon="8.644282">
<ele>298.0</ele>
<speed>1.48</speed>
<course>199.6</course>
<desc>Speed 5.3 km/h Distance 2.27 km</desc>
<time>2010-10-23T17:02:33.80</time>
<name>1459</name>
</trkpt>
<trkpt lat="48.944682" lon="8.644273">
<ele>298.0</ele>
<speed>1.49</speed>
<course>204.4</course>
<desc>Speed 5.4 km/h Distance 2.27 km</desc>
<time>2010-10-23T17:02:34.80</time>
<name>1460</name>
</trkpt>
<trkpt lat="48.944660" lon="8.644258">
<ele>299.5</ele>
<speed>1.55</speed>
<course>202.9</course>
<desc>Speed 5.6 km/h Distance 2.28 km</desc>
<time>2010-10-23T17:02:35.79</time>
<name>1461</name>
</trkpt>
<trkpt lat="48.944637" lon="8.644243">
<ele>302.0</ele>
<speed>1.39</speed>
<course>180.0</course>
<desc>Speed 5.0 km/h Distance 2.28 km</desc>
<time>2010-10-23T17:02:36.78</time>
<name>1462</name>
</trkpt>
<trkpt lat="48.944618" lon="8.644243">
<ele>302.0</ele>
<speed>1.70</speed>
<course>220.2</course>
<desc>Speed 6.1 km/h Distance 2.28 km</desc>
<time>2010-10-23T17:02:37.77</time>
<name>1463</name>
</trkpt>
<trkpt lat="48.944607" lon="8.644228">
<ele>301.5</ele>
<speed>1.45</speed>
<course>202.6</course>
<desc>Speed 5.2 km/h Distance 2.28 km</desc>
<time>2010-10-23T17:02:38.77</time>
<name>1464</name>
</trkpt>
<trkpt lat="48.944593" lon="8.644220">
<ele>301.5</ele>
<speed>1.47</speed>
<course>213.4</course>
<desc>Speed 5.3 km/h Distance 2.28 km</desc>
<time>2010-10-23T17:02:39.76</time>
<name>1465</name>
</trkpt>
<trkpt lat="48.944580" lon="8.644207">
<ele>301.5</ele>
<speed>1.52</speed>
<course>194.7</course>
<desc>Speed 5.5 km/h Distance 2.29 km</desc>
<time>2010-10-23T17:02:40.79</time>
<name>1466</name>
</trkpt>
<trkpt lat="48.944538" lon="8.644190">
<ele>303.0</ele>
<speed>1.28</speed>
<course>206.2</course>
<desc>Speed 4.6 km/h Distance 2.29 km</desc>
<time>2010-10-23T17:02:42.76</time>
<name>1467</name>
</trkpt>
<trkpt lat="48.944525" lon="8.644180">
<ele>303.0</ele>
<speed>1.59</speed>
<course>202.6</course>
<desc>Speed 5.7 km/h Distance 2.29 km</desc>
<time>2010-10-23T17:02:43.76</time>
<name>1468</name>
</trkpt>
<trkpt lat="48.944512" lon="8.644172">
<ele>303.0</ele>
<speed>1.47</speed>
<course>206.4</course>
<desc>Speed 5.3 km/h Distance 2.29 km</desc>
<time>2010-10-23T17:02:44.75</time>
<name>1469</name>
</trkpt>
<trkpt lat="48.944498" lon="8.644162">
<ele>303.0</ele>
<speed>1.44</speed>
<course>206.2</course>
<desc>Speed 5.2 km/h Distance 2.30 km</desc>
<time>2010-10-23T17:02:45.74</time>
<name>1470</name>
</trkpt>
<trkpt lat="48.944485" lon="8.644152">
<ele>303.0</ele>
<speed>1.41</speed>
<course>202.6</course>
<desc>Speed 5.1 km/h Distance 2.30 km</desc>
<time>2010-10-23T17:02:46.73</time>
<name>1471</name>
</trkpt>
<trkpt lat="48.944472" lon="8.644143">
<ele>303.0</ele>
<speed>1.37</speed>
<course>206.0</course>
<desc>Speed 4.9 km/h Distance 2.30 km</desc>
<time>2010-10-23T17:02:47.73</time>
<name>1472</name>
</trkpt>
<trkpt lat="48.944458" lon="8.644133">
<ele>303.0</ele>
<speed>1.50</speed>
<course>206.0</course>
<desc>Speed 5.4 km/h Distance 2.30 km</desc>
<time>2010-10-23T17:02:48.73</time>
<name>1473</name>
</trkpt>
<trkpt lat="48.944445" lon="8.644123">
<ele>303.0</ele>
<speed>1.39</speed>
<course>206.4</course>
<desc>Speed 5.0 km/h Distance 2.30 km</desc>
<time>2010-10-23T17:02:49.73</time>
<name>1474</name>
</trkpt>
<trkpt lat="48.944432" lon="8.644113">
<ele>303.0</ele>
<speed>1.36</speed>
<course>217.5</course>
<desc>Speed 4.9 km/h Distance 2.30 km</desc>
<time>2010-10-23T17:02:50.73</time>
<name>1475</name>
</trkpt>
<trkpt lat="48.944422" lon="8.644102">
<ele>303.0</ele>
<speed>1.30</speed>
<course>213.1</course>
<desc>Speed 4.7 km/h Distance 2.30 km</desc>
<time>2010-10-23T17:02:51.72</time>
<name>1476</name>
</trkpt>
<trkpt lat="48.944410" lon="8.644090">
<ele>303.0</ele>
<speed>1.39</speed>
<course>209.8</course>
<desc>Speed 5.0 km/h Distance 2.31 km</desc>
<time>2010-10-23T17:02:52.71</time>
<name>1477</name>
</trkpt>
<trkpt lat="48.944397" lon="8.644078">
<ele>303.0</ele>
<speed>1.50</speed>
<course>229.8</course>
<desc>Speed 5.4 km/h Distance 2.31 km</desc>
<time>2010-10-23T17:02:53.71</time>
<name>1478</name>
</trkpt>
<trkpt lat="48.944388" lon="8.644063">
<ele>303.0</ele>
<speed>1.37</speed>
<course>221.2</course>
<desc>Speed 4.9 km/h Distance 2.31 km</desc>
<time>2010-10-23T17:02:54.74</time>
<name>1479</name>
</trkpt>
<trkpt lat="48.944378" lon="8.644050">
<ele>302.5</ele>
<speed>1.29</speed>
<course>220.2</course>
<desc>Speed 4.6 km/h Distance 2.31 km</desc>
<time>2010-10-23T17:02:55.70</time>
<name>1480</name>
</trkpt>
<trkpt lat="48.944367" lon="8.644035">
<ele>302.5</ele>
<speed>1.50</speed>
<course>224.6</course>
<desc>Speed 5.4 km/h Distance 2.31 km</desc>
<time>2010-10-23T17:02:56.70</time>
<name>1481</name>
</trkpt>
<trkpt lat="48.944357" lon="8.644020">
<ele>302.5</ele>
<speed>1.47</speed>
<course>221.2</course>
<desc>Speed 5.3 km/h Distance 2.31 km</desc>
<time>2010-10-23T17:02:57.70</time>
<name>1482</name>
</trkpt>
<trkpt lat="48.944347" lon="8.644007">
<ele>302.0</ele>
<speed>1.34</speed>
<course>232.7</course>
<desc>Speed 4.8 km/h Distance 2.32 km</desc>
<time>2010-10-23T17:02:58.70</time>
<name>1483</name>
</trkpt>
<trkpt lat="48.944338" lon="8.643990">
<ele>302.0</ele>
<speed>1.49</speed>
<course>243.2</course>
<desc>Speed 5.4 km/h Distance 2.32 km</desc>
<time>2010-10-23T17:02:59.69</time>
<name>1484</name>
</trkpt>
<trkpt lat="48.944332" lon="8.643970">
<ele>302.0</ele>
<speed>1.57</speed>
<course>230.3</course>
<desc>Speed 5.7 km/h Distance 2.32 km</desc>
<time>2010-10-23T17:03:00.68</time>
<name>1485</name>
</trkpt>
<trkpt lat="48.944322" lon="8.643952">
<ele>302.0</ele>
<speed>1.55</speed>
<course>243.1</course>
<desc>Speed 5.6 km/h Distance 2.32 km</desc>
<time>2010-10-23T17:03:01.68</time>
<name>1486</name>
</trkpt>
<trkpt lat="48.944315" lon="8.643932">
<ele>301.5</ele>
<speed>1.41</speed>
<course>247.5</course>
<desc>Speed 5.1 km/h Distance 2.32 km</desc>
<time>2010-10-23T17:03:02.68</time>
<name>1487</name>
</trkpt>
<trkpt lat="48.944310" lon="8.643913">
<ele>301.0</ele>
<speed>1.32</speed>
<course>255.8</course>
<desc>Speed 4.8 km/h Distance 2.32 km</desc>
<time>2010-10-23T17:03:03.67</time>
<name>1488</name>
</trkpt>
<trkpt lat="48.944307" lon="8.643893">
<ele>300.5</ele>
<speed>1.28</speed>
<course>249.2</course>
<desc>Speed 4.6 km/h Distance 2.33 km</desc>
<time>2010-10-23T17:03:04.67</time>
<name>1489</name>
</trkpt>
<trkpt lat="48.944302" lon="8.643873">
<ele>299.5</ele>
<speed>1.32</speed>
<course>238.6</course>
<desc>Speed 4.8 km/h Distance 2.33 km</desc>
<time>2010-10-23T17:03:05.66</time>
<name>1490</name>
</trkpt>
<trkpt lat="48.944295" lon="8.643857">
<ele>299.0</ele>
<speed>1.39</speed>
<course>249.1</course>
<desc>Speed 5.0 km/h Distance 2.33 km</desc>
<time>2010-10-23T17:03:06.66</time>
<name>1491</name>
</trkpt>
<trkpt lat="48.944292" lon="8.643843">
<ele>298.0</ele>
<speed>0.99</speed>
<course>167.4</course>
<desc>Speed 3.6 km/h Distance 2.33 km</desc>
<time>2010-10-23T17:03:08.00</time>
<name>1492</name>
</trkpt>
<trkpt lat="48.944288" lon="8.643845">
<ele>298.0</ele>
<speed>0.31</speed>
<course>262.1</course>
<desc>Speed 1.1 km/h Distance 2.33 km</desc>
<time>2010-10-23T17:03:08.65</time>
<name>1493</name>
</trkpt>
<trkpt lat="48.944287" lon="8.643827">
<ele>297.5</ele>
<speed>1.29</speed>
<course>270.0</course>
<desc>Speed 4.6 km/h Distance 2.33 km</desc>
<time>2010-10-23T17:03:09.64</time>
<name>1494</name>
</trkpt>
<trkpt lat="48.944287" lon="8.643815">
<ele>296.5</ele>
<speed>0.77</speed>
<course>245.4</course>
<desc>Speed 2.8 km/h Distance 2.33 km</desc>
<time>2010-10-23T17:03:10.84</time>
<name>1495</name>
</trkpt>
<trkpt lat="48.944282" lon="8.643798">
<ele>296.5</ele>
<speed>1.00</speed>
<course>243.0</course>
<desc>Speed 3.6 km/h Distance 2.33 km</desc>
<time>2010-10-23T17:03:11.63</time>
<name>1496</name>
</trkpt>
<trkpt lat="48.944278" lon="8.643788">
<ele>296.0</ele>
<speed>0.83</speed>
<course>270.0</course>
<desc>Speed 3.0 km/h Distance 2.33 km</desc>
<time>2010-10-23T17:03:12.64</time>
<name>1497</name>
</trkpt>
<trkpt lat="48.944278" lon="8.643777">
<ele>296.0</ele>
<speed>0.80</speed>
<course>238.6</course>
<desc>Speed 2.9 km/h Distance 2.33 km</desc>
<time>2010-10-23T17:03:13.63</time>
<name>1498</name>
</trkpt>
<trkpt lat="48.944275" lon="8.643768">
<ele>295.5</ele>
<speed>0.55</speed>
<course>238.6</course>
<desc>Speed 2.0 km/h Distance 2.34 km</desc>
<time>2010-10-23T17:03:14.62</time>
<name>1499</name>
</trkpt>
<trkpt lat="48.944272" lon="8.643760">
<ele>296.0</ele>
<speed>0.69</speed>
<course>205.2</course>
<desc>Speed 2.5 km/h Distance 2.34 km</desc>
<time>2010-10-23T17:03:15.61</time>
<name>1500</name>
</trkpt>
<trkpt lat="48.944260" lon="8.643752">
<ele>296.5</ele>
<speed>1.25</speed>
<course>207.9</course>
<desc>Speed 4.5 km/h Distance 2.34 km</desc>
<time>2010-10-23T17:03:16.60</time>
<name>1501</name>
</trkpt>
<trkpt lat="48.944252" lon="8.643745">
<ele>296.5</ele>
<speed>0.82</speed>
<course>224.5</course>
<desc>Speed 3.0 km/h Distance 2.34 km</desc>
<time>2010-10-23T17:03:17.58</time>
<name>1502</name>
</trkpt>
<trkpt lat="48.944245" lon="8.643735">
<ele>295.5</ele>
<speed>0.46</speed>
<course>243.0</course>
<desc>Speed 1.7 km/h Distance 2.34 km</desc>
<time>2010-10-23T17:03:19.60</time>
<name>1503</name>
</trkpt>
<trkpt lat="48.944242" lon="8.643725">
<ele>294.5</ele>
<speed>0.64</speed>
<course>232.6</course>
<desc>Speed 2.3 km/h Distance 2.34 km</desc>
<time>2010-10-23T17:03:20.57</time>
<name>1504</name>
</trkpt>
<trkpt lat="48.944237" lon="8.643715">
<ele>294.5</ele>
<speed>0.50</speed>
<course>240.3</course>
<desc>Speed 1.8 km/h Distance 2.34 km</desc>
<time>2010-10-23T17:03:21.56</time>
<name>1505</name>
</trkpt>
<trkpt lat="48.944232" lon="8.643702">
<ele>294.5</ele>
<speed>0.87</speed>
<course>261.3</course>
<desc>Speed 3.1 km/h Distance 2.34 km</desc>
<time>2010-10-23T17:03:22.55</time>
<name>1506</name>
</trkpt>
<trkpt lat="48.944230" lon="8.643685">
<ele>294.0</ele>
<speed>0.86</speed>
<course>255.8</course>
<desc>Speed 3.1 km/h Distance 2.34 km</desc>
<time>2010-10-23T17:03:23.55</time>
<name>1507</name>
</trkpt>
<trkpt lat="48.944227" lon="8.643665">
<ele>294.0</ele>
<speed>0.87</speed>
<course>255.9</course>
<desc>Speed 3.1 km/h Distance 2.35 km</desc>
<time>2010-10-23T17:03:24.54</time>
<name>1508</name>
</trkpt>
<trkpt lat="48.944225" lon="8.643655">
<ele>292.5</ele>
<speed>0.70</speed>
<course>243.1</course>
<desc>Speed 2.5 km/h Distance 2.35 km</desc>
<time>2010-10-23T17:03:25.53</time>
<name>1509</name>
</trkpt>
<trkpt lat="48.944220" lon="8.643640">
<ele>292.5</ele>
<speed>0.98</speed>
<course>220.2</course>
<desc>Speed 3.5 km/h Distance 2.35 km</desc>
<time>2010-10-23T17:03:26.52</time>
<name>1510</name>
</trkpt>
<trkpt lat="48.944208" lon="8.643625">
<ele>293.0</ele>
<speed>1.25</speed>
<course>213.3</course>
<desc>Speed 4.5 km/h Distance 2.35 km</desc>
<time>2010-10-23T17:03:27.51</time>
<name>1511</name>
</trkpt>
<trkpt lat="48.944193" lon="8.643610">
<ele>293.0</ele>
<speed>1.29</speed>
<course>232.8</course>
<desc>Speed 4.6 km/h Distance 2.35 km</desc>
<time>2010-10-23T17:03:28.52</time>
<name>1512</name>
</trkpt>
<trkpt lat="48.944188" lon="8.643600">
<ele>293.0</ele>
<speed>0.34</speed>
<course>211.6</course>
<desc>Speed 1.2 km/h Distance 2.35 km</desc>
<time>2010-10-23T17:03:29.56</time>
<name>1513</name>
</trkpt>
<trkpt lat="48.944185" lon="8.643597">
<ele>291.5</ele>
<speed>0.34</speed>
<course>220.9</course>
<desc>Speed 1.2 km/h Distance 2.35 km</desc>
<time>2010-10-23T17:03:33.47</time>
<name>1514</name>
</trkpt>
<trkpt lat="48.944180" lon="8.643590">
<ele>290.5</ele>
<speed>0.76</speed>
<course>235.9</course>
<desc>Speed 2.7 km/h Distance 2.35 km</desc>
<time>2010-10-23T17:03:34.49</time>
<name>1515</name>
</trkpt>
<trkpt lat="48.944173" lon="8.643575">
<ele>289.5</ele>
<speed>0.61</speed>
<course>236.8</course>
<desc>Speed 2.2 km/h Distance 2.35 km</desc>
<time>2010-10-23T17:03:35.45</time>
<name>1516</name>
</trkpt>
<trkpt lat="48.944163" lon="8.643552">
<ele>290.5</ele>
<speed>1.52</speed>
<course>257.7</course>
<desc>Speed 5.5 km/h Distance 2.36 km</desc>
<time>2010-10-23T17:03:36.44</time>
<name>1517</name>
</trkpt>
<trkpt lat="48.944162" lon="8.643540">
<ele>289.0</ele>
<speed>0.80</speed>
<course>236.9</course>
<desc>Speed 2.9 km/h Distance 2.36 km</desc>
<time>2010-10-23T17:03:37.44</time>
<name>1518</name>
</trkpt>
<trkpt lat="48.944157" lon="8.643528">
<ele>290.0</ele>
<speed>0.75</speed>
<course>270.0</course>
<desc>Speed 2.7 km/h Distance 2.36 km</desc>
<time>2010-10-23T17:03:38.43</time>
<name>1519</name>
</trkpt>
<trkpt lat="48.944157" lon="8.643515">
<ele>288.0</ele>
<speed>0.88</speed>
<course>238.6</course>
<desc>Speed 3.2 km/h Distance 2.36 km</desc>
<time>2010-10-23T17:03:39.42</time>
<name>1520</name>
</trkpt>
<trkpt lat="48.944150" lon="8.643498">
<ele>288.5</ele>
<speed>1.49</speed>
<course>238.6</course>
<desc>Speed 5.4 km/h Distance 2.36 km</desc>
<time>2010-10-23T17:03:40.41</time>
<name>1521</name>
</trkpt>
<trkpt lat="48.944147" lon="8.643490">
<ele>287.0</ele>
<speed>0.67</speed>
<course>232.4</course>
<desc>Speed 2.4 km/h Distance 2.36 km</desc>
<time>2010-10-23T17:03:41.41</time>
<name>1522</name>
</trkpt>
<trkpt lat="48.944143" lon="8.643483">
<ele>286.5</ele>
<speed>0.67</speed>
<course>243.0</course>
<desc>Speed 2.4 km/h Distance 2.36 km</desc>
<time>2010-10-23T17:03:42.40</time>
<name>1523</name>
</trkpt>
<trkpt lat="48.944140" lon="8.643473">
<ele>286.0</ele>
<speed>0.81</speed>
<course>228.9</course>
<desc>Speed 2.9 km/h Distance 2.36 km</desc>
<time>2010-10-23T17:03:43.39</time>
<name>1524</name>
</trkpt>
<trkpt lat="48.944133" lon="8.643462">
<ele>285.5</ele>
<speed>0.58</speed>
<course>232.7</course>
<desc>Speed 2.1 km/h Distance 2.36 km</desc>
<time>2010-10-23T17:03:44.38</time>
<name>1525</name>
</trkpt>
<trkpt lat="48.944127" lon="8.643448">
<ele>286.0</ele>
<speed>1.21</speed>
<course>255.6</course>
<desc>Speed 4.4 km/h Distance 2.37 km</desc>
<time>2010-10-23T17:03:45.37</time>
<name>1526</name>
</trkpt>
<trkpt lat="48.944125" lon="8.643438">
<ele>284.5</ele>
<speed>0.74</speed>
<course>238.6</course>
<desc>Speed 2.7 km/h Distance 2.37 km</desc>
<time>2010-10-23T17:03:46.54</time>
<name>1527</name>
</trkpt>
<trkpt lat="48.944122" lon="8.643430">
<ele>284.5</ele>
<speed>0.43</speed>
<course>216.9</course>
<desc>Speed 1.5 km/h Distance 2.37 km</desc>
<time>2010-10-23T17:03:47.40</time>
<name>1528</name>
</trkpt>
<trkpt lat="48.944075" lon="8.643377">
<ele>294.0</ele>
<speed>0.60</speed>
<course>220.8</course>
<desc>Speed 2.2 km/h Distance 2.37 km</desc>
<time>2010-10-23T17:03:50.35</time>
<name>1529</name>
</trkpt>
<trkpt lat="48.944022" lon="8.643307">
<ele>305.0</ele>
<speed>0.67</speed>
<course>229.8</course>
<desc>Speed 2.4 km/h Distance 2.38 km</desc>
<time>2010-10-23T17:03:53.38</time>
<name>1530</name>
</trkpt>
<trkpt lat="48.943997" lon="8.643262">
<ele>310.5</ele>
<speed>1.15</speed>
<course>182.8</course>
<desc>Speed 4.1 km/h Distance 2.39 km</desc>
<time>2010-10-23T17:03:55.32</time>
<name>1531</name>
</trkpt>
<trkpt lat="48.943980" lon="8.643260">
<ele>311.5</ele>
<speed>0.38</speed>
<course>194.2</course>
<desc>Speed 1.4 km/h Distance 2.39 km</desc>
<time>2010-10-23T17:03:56.31</time>
<name>1532</name>
</trkpt>
<trkpt lat="48.943958" lon="8.643252">
<ele>313.5</ele>
<speed>0.69</speed>
<course>176.5</course>
<desc>Speed 2.5 km/h Distance 2.39 km</desc>
<time>2010-10-23T17:03:58.30</time>
<name>1533</name>
</trkpt>
<trkpt lat="48.943907" lon="8.643257">
<ele>314.5</ele>
<speed>0.51</speed>
<course>196.6</course>
<desc>Speed 1.8 km/h Distance 2.40 km</desc>
<time>2010-10-23T17:04:00.37</time>
<name>1534</name>
</trkpt>
<trkpt lat="48.943870" lon="8.643240">
<ele>314.5</ele>
<speed>0.75</speed>
<course>156.2</course>
<desc>Speed 2.7 km/h Distance 2.40 km</desc>
<time>2010-10-23T17:04:02.29</time>
<name>1535</name>
</trkpt>
<trkpt lat="48.943860" lon="8.643247">
<ele>314.5</ele>
<speed>0.75</speed>
<course>266.2</course>
<desc>Speed 2.7 km/h Distance 2.40 km</desc>
<time>2010-10-23T17:04:03.29</time>
<name>1536</name>
</trkpt>
<trkpt lat="48.943858" lon="8.643208">
<ele>314.0</ele>
<speed>0.73</speed>
<course>259.0</course>
<desc>Speed 2.6 km/h Distance 2.40 km</desc>
<time>2010-10-23T17:04:05.29</time>
<name>1537</name>
</trkpt>
<trkpt lat="48.943847" lon="8.643117">
<ele>314.0</ele>
<speed>2.32</speed>
<course>268.2</course>
<desc>Speed 8.4 km/h Distance 2.41 km</desc>
<time>2010-10-23T17:04:07.39</time>
<name>1538</name>
</trkpt>
<trkpt lat="48.943845" lon="8.643035">
<ele>314.0</ele>
<speed>0.89</speed>
<course>255.8</course>
<desc>Speed 3.2 km/h Distance 2.42 km</desc>
<time>2010-10-23T17:04:09.39</time>
<name>1539</name>
</trkpt>
<trkpt lat="48.943840" lon="8.643005">
<ele>314.0</ele>
<speed>0.47</speed>
<course>254.5</course>
<desc>Speed 1.7 km/h Distance 2.42 km</desc>
<time>2010-10-23T17:04:10.39</time>
<name>1540</name>
</trkpt>
<trkpt lat="48.943837" lon="8.642987">
<ele>314.0</ele>
<speed>0.76</speed>
<course>255.4</course>
<desc>Speed 2.7 km/h Distance 2.42 km</desc>
<time>2010-10-23T17:04:11.39</time>
<name>1541</name>
</trkpt>
<trkpt lat="48.943825" lon="8.642918">
<ele>313.0</ele>
<speed>1.82</speed>
<course>244.9</course>
<desc>Speed 6.6 km/h Distance 2.43 km</desc>
<time>2010-10-23T17:04:13.39</time>
<name>1542</name>
</trkpt>
<trkpt lat="48.943818" lon="8.642897">
<ele>313.0</ele>
<speed>1.67</speed>
<course>270.0</course>
<desc>Speed 6.0 km/h Distance 2.43 km</desc>
<time>2010-10-23T17:04:14.39</time>
<name>1543</name>
</trkpt>
<trkpt lat="48.943818" lon="8.642865">
<ele>313.0</ele>
<speed>2.23</speed>
<course>259.8</course>
<desc>Speed 8.0 km/h Distance 2.43 km</desc>
<time>2010-10-23T17:04:15.39</time>
<name>1544</name>
</trkpt>
<trkpt lat="48.943815" lon="8.642837">
<ele>313.0</ele>
<speed>1.01</speed>
<course>250.9</course>
<desc>Speed 3.6 km/h Distance 2.43 km</desc>
<time>2010-10-23T17:04:16.39</time>
<name>1545</name>
</trkpt>
<trkpt lat="48.943807" lon="8.642800">
<ele>312.0</ele>
<speed>1.50</speed>
<course>232.7</course>
<desc>Speed 5.4 km/h Distance 2.43 km</desc>
<time>2010-10-23T17:04:17.39</time>
<name>1546</name>
</trkpt>
<trkpt lat="48.943797" lon="8.642780">
<ele>312.5</ele>
<speed>1.42</speed>
<course>260.4</course>
<desc>Speed 5.1 km/h Distance 2.44 km</desc>
<time>2010-10-23T17:04:18.39</time>
<name>1547</name>
</trkpt>
<trkpt lat="48.943793" lon="8.642750">
<ele>312.5</ele>
<speed>1.16</speed>
<course>266.0</course>
<desc>Speed 4.2 km/h Distance 2.44 km</desc>
<time>2010-10-23T17:04:19.39</time>
<name>1548</name>
</trkpt>
<trkpt lat="48.943792" lon="8.642713">
<ele>312.5</ele>
<speed>1.19</speed>
<course>253.8</course>
<desc>Speed 4.3 km/h Distance 2.44 km</desc>
<time>2010-10-23T17:04:20.39</time>
<name>1549</name>
</trkpt>
<trkpt lat="48.943785" lon="8.642678">
<ele>312.5</ele>
<speed>1.25</speed>
<course>238.7</course>
<desc>Speed 4.5 km/h Distance 2.44 km</desc>
<time>2010-10-23T17:04:21.39</time>
<name>1550</name>
</trkpt>
<trkpt lat="48.943775" lon="8.642653">
<ele>313.0</ele>
<speed>1.53</speed>
<course>224.5</course>
<desc>Speed 5.5 km/h Distance 2.45 km</desc>
<time>2010-10-23T17:04:22.39</time>
<name>1551</name>
</trkpt>
<trkpt lat="48.943762" lon="8.642633">
<ele>313.0</ele>
<speed>1.42</speed>
<course>232.7</course>
<desc>Speed 5.1 km/h Distance 2.45 km</desc>
<time>2010-10-23T17:04:23.39</time>
<name>1552</name>
</trkpt>
<trkpt lat="48.943748" lon="8.642607">
<ele>313.5</ele>
<speed>1.62</speed>
<course>231.1</course>
<desc>Speed 5.8 km/h Distance 2.45 km</desc>
<time>2010-10-23T17:04:24.39</time>
<name>1553</name>
</trkpt>
<trkpt lat="48.943733" lon="8.642578">
<ele>314.5</ele>
<speed>1.62</speed>
<course>229.4</course>
<desc>Speed 5.8 km/h Distance 2.45 km</desc>
<time>2010-10-23T17:04:25.39</time>
<name>1554</name>
</trkpt>
<trkpt lat="48.943718" lon="8.642552">
<ele>315.0</ele>
<speed>1.74</speed>
<course>237.7</course>
<desc>Speed 6.3 km/h Distance 2.46 km</desc>
<time>2010-10-23T17:04:26.39</time>
<name>1555</name>
</trkpt>
<trkpt lat="48.943710" lon="8.642532">
<ele>315.0</ele>
<speed>1.72</speed>
<course>230.4</course>
<desc>Speed 6.2 km/h Distance 2.46 km</desc>
<time>2010-10-23T17:04:27.39</time>
<name>1556</name>
</trkpt>
<trkpt lat="48.943700" lon="8.642513">
<ele>315.0</ele>
<speed>1.63</speed>
<course>232.7</course>
<desc>Speed 5.9 km/h Distance 2.46 km</desc>
<time>2010-10-23T17:04:28.39</time>
<name>1557</name>
</trkpt>
<trkpt lat="48.943690" lon="8.642493">
<ele>315.0</ele>
<speed>1.62</speed>
<course>227.6</course>
<desc>Speed 5.8 km/h Distance 2.46 km</desc>
<time>2010-10-23T17:04:29.39</time>
<name>1558</name>
</trkpt>
<trkpt lat="48.943680" lon="8.642477">
<ele>315.0</ele>
<speed>1.58</speed>
<course>232.7</course>
<desc>Speed 5.7 km/h Distance 2.46 km</desc>
<time>2010-10-23T17:04:30.39</time>
<name>1559</name>
</trkpt>
<trkpt lat="48.943670" lon="8.642457">
<ele>315.0</ele>
<speed>1.64</speed>
<course>239.7</course>
<desc>Speed 5.9 km/h Distance 2.46 km</desc>
<time>2010-10-23T17:04:31.39</time>
<name>1560</name>
</trkpt>
<trkpt lat="48.943662" lon="8.642435">
<ele>315.5</ele>
<speed>1.65</speed>
<course>237.6</course>
<desc>Speed 5.9 km/h Distance 2.47 km</desc>
<time>2010-10-23T17:04:32.39</time>
<name>1561</name>
</trkpt>
<trkpt lat="48.943653" lon="8.642415">
<ele>315.5</ele>
<speed>1.63</speed>
<course>228.4</course>
<desc>Speed 5.9 km/h Distance 2.47 km</desc>
<time>2010-10-23T17:04:33.39</time>
<name>1562</name>
</trkpt>
<trkpt lat="48.943642" lon="8.642395">
<ele>316.0</ele>
<speed>1.60</speed>
<course>222.0</course>
<desc>Speed 5.8 km/h Distance 2.47 km</desc>
<time>2010-10-23T17:04:34.39</time>
<name>1563</name>
</trkpt>
<trkpt lat="48.943628" lon="8.642377">
<ele>317.0</ele>
<speed>1.64</speed>
<course>229.0</course>
<desc>Speed 5.9 km/h Distance 2.47 km</desc>
<time>2010-10-23T17:04:35.39</time>
<name>1564</name>
</trkpt>
<trkpt lat="48.943615" lon="8.642353">
<ele>317.5</ele>
<speed>1.71</speed>
<course>230.6</course>
<desc>Speed 6.2 km/h Distance 2.47 km</desc>
<time>2010-10-23T17:04:36.39</time>
<name>1565</name>
</trkpt>
<trkpt lat="48.943603" lon="8.642332">
<ele>318.5</ele>
<speed>1.62</speed>
<course>234.9</course>
<desc>Speed 5.8 km/h Distance 2.48 km</desc>
<time>2010-10-23T17:04:37.39</time>
<name>1566</name>
</trkpt>
<trkpt lat="48.943593" lon="8.642310">
<ele>318.5</ele>
<speed>1.35</speed>
<course>230.7</course>
<desc>Speed 4.9 km/h Distance 2.48 km</desc>
<time>2010-10-23T17:04:38.39</time>
<name>1567</name>
</trkpt>
<trkpt lat="48.943582" lon="8.642288">
<ele>319.5</ele>
<speed>1.65</speed>
<course>232.8</course>
<desc>Speed 5.9 km/h Distance 2.48 km</desc>
<time>2010-10-23T17:04:39.39</time>
<name>1568</name>
</trkpt>
<trkpt lat="48.943572" lon="8.642268">
<ele>319.5</ele>
<speed>1.37</speed>
<course>230.7</course>
<desc>Speed 4.9 km/h Distance 2.48 km</desc>
<time>2010-10-23T17:04:40.39</time>
<name>1569</name>
</trkpt>
<trkpt lat="48.943560" lon="8.642247">
<ele>320.0</ele>
<speed>1.63</speed>
<course>228.4</course>
<desc>Speed 5.9 km/h Distance 2.48 km</desc>
<time>2010-10-23T17:04:41.39</time>
<name>1570</name>
</trkpt>
<trkpt lat="48.943548" lon="8.642227">
<ele>320.5</ele>
<speed>1.59</speed>
<course>225.9</course>
<desc>Speed 5.7 km/h Distance 2.49 km</desc>
<time>2010-10-23T17:04:42.39</time>
<name>1571</name>
</trkpt>
<trkpt lat="48.943537" lon="8.642208">
<ele>321.0</ele>
<speed>1.72</speed>
<course>227.5</course>
<desc>Speed 6.2 km/h Distance 2.49 km</desc>
<time>2010-10-23T17:04:43.39</time>
<name>1572</name>
</trkpt>
<trkpt lat="48.943527" lon="8.642192">
<ele>321.0</ele>
<speed>1.62</speed>
<course>230.3</course>
<desc>Speed 5.8 km/h Distance 2.49 km</desc>
<time>2010-10-23T17:04:44.39</time>
<name>1573</name>
</trkpt>
<trkpt lat="48.943517" lon="8.642173">
<ele>321.0</ele>
<speed>1.70</speed>
<course>227.6</course>
<desc>Speed 6.1 km/h Distance 2.49 km</desc>
<time>2010-10-23T17:04:45.39</time>
<name>1574</name>
</trkpt>
<trkpt lat="48.943507" lon="8.642157">
<ele>321.0</ele>
<speed>1.60</speed>
<course>224.5</course>
<desc>Speed 5.8 km/h Distance 2.49 km</desc>
<time>2010-10-23T17:04:46.39</time>
<name>1575</name>
</trkpt>
<trkpt lat="48.943497" lon="8.642142">
<ele>321.0</ele>
<speed>1.50</speed>
<course>220.2</course>
<desc>Speed 5.4 km/h Distance 2.49 km</desc>
<time>2010-10-23T17:04:47.39</time>
<name>1576</name>
</trkpt>
<trkpt lat="48.943485" lon="8.642127">
<ele>321.0</ele>
<speed>1.55</speed>
<course>209.8</course>
<desc>Speed 5.6 km/h Distance 2.50 km</desc>
<time>2010-10-23T17:04:48.39</time>
<name>1577</name>
</trkpt>
<trkpt lat="48.943472" lon="8.642115">
<ele>321.5</ele>
<speed>1.51</speed>
<course>187.5</course>
<desc>Speed 5.4 km/h Distance 2.50 km</desc>
<time>2010-10-23T17:04:49.39</time>
<name>1578</name>
</trkpt>
<trkpt lat="48.943457" lon="8.642112">
<ele>322.0</ele>
<speed>1.48</speed>
<course>183.8</course>
<desc>Speed 5.3 km/h Distance 2.50 km</desc>
<time>2010-10-23T17:04:50.39</time>
<name>1579</name>
</trkpt>
<trkpt lat="48.943442" lon="8.642110">
<ele>322.0</ele>
<speed>1.58</speed>
<course>183.8</course>
<desc>Speed 5.7 km/h Distance 2.50 km</desc>
<time>2010-10-23T17:04:51.39</time>
<name>1580</name>
</trkpt>
<trkpt lat="48.943427" lon="8.642108">
<ele>322.5</ele>
<speed>1.53</speed>
<course>183.8</course>
<desc>Speed 5.5 km/h Distance 2.50 km</desc>
<time>2010-10-23T17:04:52.39</time>
<name>1581</name>
</trkpt>
<trkpt lat="48.943412" lon="8.642107">
<ele>322.5</ele>
<speed>1.55</speed>
<course>178.1</course>
<desc>Speed 5.6 km/h Distance 2.50 km</desc>
<time>2010-10-23T17:04:53.39</time>
<name>1582</name>
</trkpt>
<trkpt lat="48.943397" lon="8.642107">
<ele>323.0</ele>
<speed>1.57</speed>
<course>178.1</course>
<desc>Speed 5.7 km/h Distance 2.51 km</desc>
<time>2010-10-23T17:04:54.39</time>
<name>1583</name>
</trkpt>
<trkpt lat="48.943382" lon="8.642108">
<ele>323.0</ele>
<speed>1.61</speed>
<course>183.8</course>
<desc>Speed 5.8 km/h Distance 2.51 km</desc>
<time>2010-10-23T17:04:55.39</time>
<name>1584</name>
</trkpt>
<trkpt lat="48.943367" lon="8.642107">
<ele>323.5</ele>
<speed>1.58</speed>
<course>180.0</course>
<desc>Speed 5.7 km/h Distance 2.51 km</desc>
<time>2010-10-23T17:04:56.39</time>
<name>1585</name>
</trkpt>
<trkpt lat="48.943353" lon="8.642107">
<ele>323.5</ele>
<speed>1.50</speed>
<course>185.3</course>
<desc>Speed 5.4 km/h Distance 2.51 km</desc>
<time>2010-10-23T17:04:57.39</time>
<name>1586</name>
</trkpt>
<trkpt lat="48.943340" lon="8.642105">
<ele>323.5</ele>
<speed>1.46</speed>
<course>168.8</course>
<desc>Speed 5.3 km/h Distance 2.51 km</desc>
<time>2010-10-23T17:04:58.39</time>
<name>1587</name>
</trkpt>
<trkpt lat="48.943323" lon="8.642110">
<ele>323.5</ele>
<speed>1.66</speed>
<course>171.9</course>
<desc>Speed 6.0 km/h Distance 2.51 km</desc>
<time>2010-10-23T17:04:59.39</time>
<name>1588</name>
</trkpt>
<trkpt lat="48.943308" lon="8.642113">
<ele>324.0</ele>
<speed>1.62</speed>
<course>171.0</course>
<desc>Speed 5.8 km/h Distance 2.52 km</desc>
<time>2010-10-23T17:05:00.39</time>
<name>1589</name>
</trkpt>
<trkpt lat="48.943295" lon="8.642117">
<ele>324.0</ele>
<speed>1.63</speed>
<course>178.8</course>
<desc>Speed 5.9 km/h Distance 2.52 km</desc>
<time>2010-10-23T17:05:01.39</time>
<name>1590</name>
</trkpt>
<trkpt lat="48.943282" lon="8.642117">
<ele>324.0</ele>
<speed>1.54</speed>
<course>178.8</course>
<desc>Speed 5.5 km/h Distance 2.52 km</desc>
<time>2010-10-23T17:05:02.39</time>
<name>1591</name>
</trkpt>
<trkpt lat="48.943268" lon="8.642117">
<ele>324.0</ele>
<speed>1.52</speed>
<course>185.3</course>
<desc>Speed 5.5 km/h Distance 2.52 km</desc>
<time>2010-10-23T17:05:03.39</time>
<name>1592</name>
</trkpt>
<trkpt lat="48.943255" lon="8.642115">
<ele>324.0</ele>
<speed>1.45</speed>
<course>191.2</course>
<desc>Speed 5.2 km/h Distance 2.52 km</desc>
<time>2010-10-23T17:05:04.39</time>
<name>1593</name>
</trkpt>
<trkpt lat="48.943243" lon="8.642112">
<ele>324.5</ele>
<speed>1.51</speed>
<course>185.3</course>
<desc>Speed 5.4 km/h Distance 2.52 km</desc>
<time>2010-10-23T17:05:05.39</time>
<name>1594</name>
</trkpt>
<trkpt lat="48.943230" lon="8.642110">
<ele>324.5</ele>
<speed>1.40</speed>
<course>175.6</course>
<desc>Speed 5.0 km/h Distance 2.53 km</desc>
<time>2010-10-23T17:05:06.39</time>
<name>1595</name>
</trkpt>
<trkpt lat="48.943220" lon="8.642110">
<ele>325.0</ele>
<speed>1.34</speed>
<course>184.7</course>
<desc>Speed 4.8 km/h Distance 2.53 km</desc>
<time>2010-10-23T17:05:07.39</time>
<name>1596</name>
</trkpt>
<trkpt lat="48.943208" lon="8.642108">
<ele>324.5</ele>
<speed>1.25</speed>
<course>192.6</course>
<desc>Speed 4.5 km/h Distance 2.53 km</desc>
<time>2010-10-23T17:05:08.39</time>
<name>1597</name>
</trkpt>
<trkpt lat="48.943198" lon="8.642105">
<ele>324.5</ele>
<speed>1.10</speed>
<course>189.7</course>
<desc>Speed 4.0 km/h Distance 2.53 km</desc>
<time>2010-10-23T17:05:09.39</time>
<name>1598</name>
</trkpt>
<trkpt lat="48.943185" lon="8.642102">
<ele>324.5</ele>
<speed>1.30</speed>
<course>191.2</course>
<desc>Speed 4.7 km/h Distance 2.53 km</desc>
<time>2010-10-23T17:05:10.39</time>
<name>1599</name>
</trkpt>
<trkpt lat="48.943173" lon="8.642098">
<ele>324.5</ele>
<speed>1.15</speed>
<course>185.3</course>
<desc>Speed 4.1 km/h Distance 2.53 km</desc>
<time>2010-10-23T17:05:11.39</time>
<name>1600</name>
</trkpt>
<trkpt lat="48.943160" lon="8.642097">
<ele>324.5</ele>
<speed>1.44</speed>
<course>196.6</course>
<desc>Speed 5.2 km/h Distance 2.53 km</desc>
<time>2010-10-23T17:05:12.39</time>
<name>1601</name>
</trkpt>
<trkpt lat="48.943145" lon="8.642090">
<ele>325.0</ele>
<speed>1.70</speed>
<course>191.4</course>
<desc>Speed 6.1 km/h Distance 2.53 km</desc>
<time>2010-10-23T17:05:13.39</time>
<name>1602</name>
</trkpt>
<trkpt lat="48.943123" lon="8.642083">
<ele>326.5</ele>
<speed>2.57</speed>
<course>192.2</course>
<desc>Speed 9.3 km/h Distance 2.54 km</desc>
<time>2010-10-23T17:05:14.39</time>
<name>1603</name>
</trkpt>
<trkpt lat="48.943108" lon="8.642078">
<ele>327.0</ele>
<speed>1.75</speed>
<course>198.1</course>
<desc>Speed 6.3 km/h Distance 2.54 km</desc>
<time>2010-10-23T17:05:15.39</time>
<name>1604</name>
</trkpt>
<trkpt lat="48.943095" lon="8.642072">
<ele>327.5</ele>
<speed>1.58</speed>
<course>200.1</course>
<desc>Speed 5.7 km/h Distance 2.54 km</desc>
<time>2010-10-23T17:05:16.39</time>
<name>1605</name>
</trkpt>
<trkpt lat="48.943080" lon="8.642063">
<ele>327.5</ele>
<speed>1.63</speed>
<course>206.4</course>
<desc>Speed 5.9 km/h Distance 2.54 km</desc>
<time>2010-10-23T17:05:17.38</time>
<name>1606</name>
</trkpt>
<trkpt lat="48.943067" lon="8.642053">
<ele>327.5</ele>
<speed>1.61</speed>
<course>202.3</course>
<desc>Speed 5.8 km/h Distance 2.54 km</desc>
<time>2010-10-23T17:05:18.38</time>
<name>1607</name>
</trkpt>
<trkpt lat="48.943053" lon="8.642045">
<ele>327.5</ele>
<speed>1.66</speed>
<course>206.0</course>
<desc>Speed 6.0 km/h Distance 2.55 km</desc>
<time>2010-10-23T17:05:19.38</time>
<name>1608</name>
</trkpt>
<trkpt lat="48.943040" lon="8.642035">
<ele>327.5</ele>
<speed>1.63</speed>
<course>209.8</course>
<desc>Speed 5.9 km/h Distance 2.55 km</desc>
<time>2010-10-23T17:05:20.38</time>
<name>1609</name>
</trkpt>
<trkpt lat="48.943027" lon="8.642023">
<ele>327.5</ele>
<speed>1.69</speed>
<course>209.4</course>
<desc>Speed 6.1 km/h Distance 2.55 km</desc>
<time>2010-10-23T17:05:21.38</time>
<name>1610</name>
</trkpt>
<trkpt lat="48.943015" lon="8.642013">
<ele>327.5</ele>
<speed>1.60</speed>
<course>209.8</course>
<desc>Speed 5.8 km/h Distance 2.55 km</desc>
<time>2010-10-23T17:05:22.38</time>
<name>1611</name>
</trkpt>
<trkpt lat="48.943002" lon="8.642002">
<ele>327.0</ele>
<speed>1.64</speed>
<course>213.4</course>
<desc>Speed 5.9 km/h Distance 2.55 km</desc>
<time>2010-10-23T17:05:23.38</time>
<name>1612</name>
</trkpt>
<trkpt lat="48.942990" lon="8.641990">
<ele>327.0</ele>
<speed>1.58</speed>
<course>209.4</course>
<desc>Speed 5.7 km/h Distance 2.55 km</desc>
<time>2010-10-23T17:05:24.38</time>
<name>1613</name>
</trkpt>
<trkpt lat="48.942978" lon="8.641980">
<ele>327.0</ele>
<speed>1.46</speed>
<course>213.3</course>
<desc>Speed 5.3 km/h Distance 2.56 km</desc>
<time>2010-10-23T17:05:25.38</time>
<name>1614</name>
</trkpt>
<trkpt lat="48.942967" lon="8.641968">
<ele>326.5</ele>
<speed>1.52</speed>
<course>206.2</course>
<desc>Speed 5.5 km/h Distance 2.56 km</desc>
<time>2010-10-23T17:05:26.38</time>
<name>1615</name>
</trkpt>
<trkpt lat="48.942953" lon="8.641958">
<ele>326.5</ele>
<speed>1.58</speed>
<course>210.3</course>
<desc>Speed 5.7 km/h Distance 2.56 km</desc>
<time>2010-10-23T17:05:27.38</time>
<name>1616</name>
</trkpt>
<trkpt lat="48.942938" lon="8.641945">
<ele>327.0</ele>
<speed>1.80</speed>
<course>209.8</course>
<desc>Speed 6.5 km/h Distance 2.56 km</desc>
<time>2010-10-23T17:05:28.38</time>
<name>1617</name>
</trkpt>
<trkpt lat="48.942925" lon="8.641933">
<ele>327.0</ele>
<speed>1.60</speed>
<course>216.9</course>
<desc>Speed 5.8 km/h Distance 2.56 km</desc>
<time>2010-10-23T17:05:29.38</time>
<name>1618</name>
</trkpt>
<trkpt lat="48.942913" lon="8.641920">
<ele>327.0</ele>
<speed>1.58</speed>
<course>210.3</course>
<desc>Speed 5.7 km/h Distance 2.56 km</desc>
<time>2010-10-23T17:05:30.38</time>
<name>1619</name>
</trkpt>
<trkpt lat="48.942898" lon="8.641907">
<ele>327.5</ele>
<speed>1.55</speed>
<course>213.1</course>
<desc>Speed 5.6 km/h Distance 2.57 km</desc>
<time>2010-10-23T17:05:31.38</time>
<name>1620</name>
</trkpt>
<trkpt lat="48.942887" lon="8.641895">
<ele>327.0</ele>
<speed>1.62</speed>
<course>216.9</course>
<desc>Speed 5.8 km/h Distance 2.57 km</desc>
<time>2010-10-23T17:05:32.38</time>
<name>1621</name>
</trkpt>
<trkpt lat="48.942875" lon="8.641882">
<ele>327.0</ele>
<speed>1.62</speed>
<course>213.4</course>
<desc>Speed 5.8 km/h Distance 2.57 km</desc>
<time>2010-10-23T17:05:33.38</time>
<name>1622</name>
</trkpt>
<trkpt lat="48.942862" lon="8.641868">
<ele>327.0</ele>
<speed>1.55</speed>
<course>209.8</course>
<desc>Speed 5.6 km/h Distance 2.57 km</desc>
<time>2010-10-23T17:05:34.38</time>
<name>1623</name>
</trkpt>
<trkpt lat="48.942848" lon="8.641857">
<ele>327.0</ele>
<speed>1.60</speed>
<course>213.3</course>
<desc>Speed 5.8 km/h Distance 2.57 km</desc>
<time>2010-10-23T17:05:35.38</time>
<name>1624</name>
</trkpt>
<trkpt lat="48.942833" lon="8.641842">
<ele>327.5</ele>
<speed>1.67</speed>
<course>216.6</course>
<desc>Speed 6.0 km/h Distance 2.57 km</desc>
<time>2010-10-23T17:05:36.38</time>
<name>1625</name>
</trkpt>
<trkpt lat="48.942820" lon="8.641827">
<ele>327.5</ele>
<speed>1.55</speed>
<course>213.4</course>
<desc>Speed 5.6 km/h Distance 2.58 km</desc>
<time>2010-10-23T17:05:37.38</time>
<name>1626</name>
</trkpt>
<trkpt lat="48.942807" lon="8.641813">
<ele>327.5</ele>
<speed>1.63</speed>
<course>209.8</course>
<desc>Speed 5.9 km/h Distance 2.58 km</desc>
<time>2010-10-23T17:05:38.38</time>
<name>1627</name>
</trkpt>
<trkpt lat="48.942793" lon="8.641802">
<ele>327.0</ele>
<speed>1.51</speed>
<course>217.2</course>
<desc>Speed 5.4 km/h Distance 2.58 km</desc>
<time>2010-10-23T17:05:39.38</time>
<name>1628</name>
</trkpt>
<trkpt lat="48.942783" lon="8.641790">
<ele>327.0</ele>
<speed>1.38</speed>
<course>213.3</course>
<desc>Speed 5.0 km/h Distance 2.58 km</desc>
<time>2010-10-23T17:05:40.38</time>
<name>1629</name>
</trkpt>
<trkpt lat="48.942772" lon="8.641778">
<ele>327.0</ele>
<speed>1.50</speed>
<course>216.9</course>
<desc>Speed 5.4 km/h Distance 2.58 km</desc>
<time>2010-10-23T17:05:41.38</time>
<name>1630</name>
</trkpt>
<trkpt lat="48.942760" lon="8.641765">
<ele>326.5</ele>
<speed>1.51</speed>
<course>207.2</course>
<desc>Speed 5.4 km/h Distance 2.58 km</desc>
<time>2010-10-23T17:05:42.38</time>
<name>1631</name>
</trkpt>
<trkpt lat="48.942745" lon="8.641753">
<ele>327.0</ele>
<speed>1.71</speed>
<course>209.4</course>
<desc>Speed 6.2 km/h Distance 2.59 km</desc>
<time>2010-10-23T17:05:43.38</time>
<name>1632</name>
</trkpt>
<trkpt lat="48.942733" lon="8.641743">
<ele>326.5</ele>
<speed>1.51</speed>
<course>213.4</course>
<desc>Speed 5.4 km/h Distance 2.59 km</desc>
<time>2010-10-23T17:05:44.38</time>
<name>1633</name>
</trkpt>
<trkpt lat="48.942720" lon="8.641730">
<ele>327.0</ele>
<speed>1.57</speed>
<course>213.4</course>
<desc>Speed 5.7 km/h Distance 2.59 km</desc>
<time>2010-10-23T17:05:45.38</time>
<name>1634</name>
</trkpt>
<trkpt lat="48.942707" lon="8.641717">
<ele>327.5</ele>
<speed>1.55</speed>
<course>209.4</course>
<desc>Speed 5.6 km/h Distance 2.59 km</desc>
<time>2010-10-23T17:05:46.38</time>
<name>1635</name>
</trkpt>
<trkpt lat="48.942695" lon="8.641707">
<ele>327.0</ele>
<speed>1.37</speed>
<course>209.8</course>
<desc>Speed 4.9 km/h Distance 2.59 km</desc>
<time>2010-10-23T17:05:47.38</time>
<name>1636</name>
</trkpt>
<trkpt lat="48.942682" lon="8.641695">
<ele>327.5</ele>
<speed>1.41</speed>
<course>209.8</course>
<desc>Speed 5.1 km/h Distance 2.59 km</desc>
<time>2010-10-23T17:05:48.38</time>
<name>1637</name>
</trkpt>
<trkpt lat="48.942668" lon="8.641683">
<ele>327.5</ele>
<speed>1.42</speed>
<course>207.2</course>
<desc>Speed 5.1 km/h Distance 2.60 km</desc>
<time>2010-10-23T17:05:49.38</time>
<name>1638</name>
</trkpt>
<trkpt lat="48.942653" lon="8.641672">
<ele>327.5</ele>
<speed>1.61</speed>
<course>210.0</course>
<desc>Speed 5.8 km/h Distance 2.60 km</desc>
<time>2010-10-23T17:05:50.38</time>
<name>1639</name>
</trkpt>
<trkpt lat="48.942640" lon="8.641660">
<ele>327.5</ele>
<speed>1.41</speed>
<course>209.8</course>
<desc>Speed 5.1 km/h Distance 2.60 km</desc>
<time>2010-10-23T17:05:51.38</time>
<name>1640</name>
</trkpt>
<trkpt lat="48.942628" lon="8.641650">
<ele>327.5</ele>
<speed>1.41</speed>
<course>198.4</course>
<desc>Speed 5.1 km/h Distance 2.60 km</desc>
<time>2010-10-23T17:05:52.38</time>
<name>1641</name>
</trkpt>
<trkpt lat="48.942615" lon="8.641643">
<ele>327.0</ele>
<speed>1.47</speed>
<course>203.7</course>
<desc>Speed 5.3 km/h Distance 2.60 km</desc>
<time>2010-10-23T17:05:53.38</time>
<name>1642</name>
</trkpt>
<trkpt lat="48.942600" lon="8.641633">
<ele>327.5</ele>
<speed>1.29</speed>
<course>209.4</course>
<desc>Speed 4.6 km/h Distance 2.60 km</desc>
<time>2010-10-23T17:05:54.38</time>
<name>1643</name>
</trkpt>
<trkpt lat="48.942588" lon="8.641623">
<ele>327.5</ele>
<speed>1.45</speed>
<course>198.1</course>
<desc>Speed 5.2 km/h Distance 2.61 km</desc>
<time>2010-10-23T17:05:55.38</time>
<name>1644</name>
</trkpt>
<trkpt lat="48.942575" lon="8.641617">
<ele>328.0</ele>
<speed>1.39</speed>
<course>199.6</course>
<desc>Speed 5.0 km/h Distance 2.61 km</desc>
<time>2010-10-23T17:05:56.38</time>
<name>1645</name>
</trkpt>
<trkpt lat="48.942560" lon="8.641608">
<ele>328.0</ele>
<speed>1.63</speed>
<course>198.1</course>
<desc>Speed 5.9 km/h Distance 2.61 km</desc>
<time>2010-10-23T17:05:57.38</time>
<name>1646</name>
</trkpt>
<trkpt lat="48.942547" lon="8.641602">
<ele>328.0</ele>
<speed>1.50</speed>
<course>202.3</course>
<desc>Speed 5.4 km/h Distance 2.61 km</desc>
<time>2010-10-23T17:05:58.38</time>
<name>1647</name>
</trkpt>
<trkpt lat="48.942533" lon="8.641593">
<ele>327.5</ele>
<speed>1.52</speed>
<course>198.3</course>
<desc>Speed 5.5 km/h Distance 2.61 km</desc>
<time>2010-10-23T17:05:59.38</time>
<name>1648</name>
</trkpt>
<trkpt lat="48.942517" lon="8.641585">
<ele>328.0</ele>
<speed>1.62</speed>
<course>198.1</course>
<desc>Speed 5.8 km/h Distance 2.61 km</desc>
<time>2010-10-23T17:06:00.38</time>
<name>1649</name>
</trkpt>
<trkpt lat="48.942503" lon="8.641578">
<ele>327.5</ele>
<speed>1.54</speed>
<course>198.1</course>
<desc>Speed 5.5 km/h Distance 2.62 km</desc>
<time>2010-10-23T17:06:01.38</time>
<name>1650</name>
</trkpt>
<trkpt lat="48.942487" lon="8.641570">
<ele>328.0</ele>
<speed>1.53</speed>
<course>199.9</course>
<desc>Speed 5.5 km/h Distance 2.62 km</desc>
<time>2010-10-23T17:06:02.38</time>
<name>1651</name>
</trkpt>
<trkpt lat="48.942472" lon="8.641562">
<ele>328.0</ele>
<speed>1.50</speed>
<course>194.9</course>
<desc>Speed 5.4 km/h Distance 2.62 km</desc>
<time>2010-10-23T17:06:03.38</time>
<name>1652</name>
</trkpt>
<trkpt lat="48.942455" lon="8.641555">
<ele>328.5</ele>
<speed>1.60</speed>
<course>193.6</course>
<desc>Speed 5.8 km/h Distance 2.62 km</desc>
<time>2010-10-23T17:06:04.38</time>
<name>1653</name>
</trkpt>
<trkpt lat="48.942437" lon="8.641548">
<ele>329.0</ele>
<speed>1.74</speed>
<course>196.0</course>
<desc>Speed 6.3 km/h Distance 2.62 km</desc>
<time>2010-10-23T17:06:05.38</time>
<name>1654</name>
</trkpt>
<trkpt lat="48.942422" lon="8.641542">
<ele>329.5</ele>
<speed>1.58</speed>
<course>182.5</course>
<desc>Speed 5.7 km/h Distance 2.63 km</desc>
<time>2010-10-23T17:06:06.38</time>
<name>1655</name>
</trkpt>
<trkpt lat="48.942403" lon="8.641540">
<ele>329.5</ele>
<speed>1.65</speed>
<course>190.8</course>
<desc>Speed 5.9 km/h Distance 2.63 km</desc>
<time>2010-10-23T17:06:07.38</time>
<name>1656</name>
</trkpt>
<trkpt lat="48.942387" lon="8.641535">
<ele>330.0</ele>
<speed>1.71</speed>
<course>187.1</course>
<desc>Speed 6.2 km/h Distance 2.63 km</desc>
<time>2010-10-23T17:06:08.38</time>
<name>1657</name>
</trkpt>
<trkpt lat="48.942370" lon="8.641532">
<ele>330.0</ele>
<speed>1.67</speed>
<course>198.1</course>
<desc>Speed 6.0 km/h Distance 2.63 km</desc>
<time>2010-10-23T17:06:09.38</time>
<name>1658</name>
</trkpt>
<trkpt lat="48.942357" lon="8.641525">
<ele>330.5</ele>
<speed>1.51</speed>
<course>187.0</course>
<desc>Speed 5.4 km/h Distance 2.63 km</desc>
<time>2010-10-23T17:06:10.38</time>
<name>1659</name>
</trkpt>
<trkpt lat="48.942338" lon="8.641522">
<ele>330.5</ele>
<speed>1.75</speed>
<course>187.7</course>
<desc>Speed 6.3 km/h Distance 2.64 km</desc>
<time>2010-10-23T17:06:11.38</time>
<name>1660</name>
</trkpt>
<trkpt lat="48.942322" lon="8.641518">
<ele>331.0</ele>
<speed>1.59</speed>
<course>208.6</course>
<desc>Speed 5.7 km/h Distance 2.64 km</desc>
<time>2010-10-23T17:06:12.38</time>
<name>1661</name>
</trkpt>
<trkpt lat="48.942312" lon="8.641510">
<ele>331.5</ele>
<speed>1.14</speed>
<course>201.5</course>
<desc>Speed 4.1 km/h Distance 2.64 km</desc>
<time>2010-10-23T17:06:13.38</time>
<name>1662</name>
</trkpt>
<trkpt lat="48.942303" lon="8.641505">
<ele>331.5</ele>
<speed>0.89</speed>
<course>231.9</course>
<desc>Speed 3.2 km/h Distance 2.64 km</desc>
<time>2010-10-23T17:06:14.38</time>
<name>1663</name>
</trkpt>
<trkpt lat="48.942302" lon="8.641502">
<ele>331.5</ele>
<speed>0.36</speed>
<course>270.0</course>
<desc>Speed 1.3 km/h Distance 2.64 km</desc>
<time>2010-10-23T17:06:15.38</time>
<name>1664</name>
</trkpt>
<trkpt lat="48.942302" lon="8.641493">
<ele>331.5</ele>
<speed>0.40</speed>
<course>297.4</course>
<desc>Speed 1.4 km/h Distance 2.64 km</desc>
<time>2010-10-23T17:06:28.38</time>
<name>1665</name>
</trkpt>
<trkpt lat="48.942303" lon="8.641488">
<ele>332.0</ele>
<speed>0.31</speed>
<course>315.5</course>
<desc>Speed 1.1 km/h Distance 2.64 km</desc>
<time>2010-10-23T17:06:39.38</time>
<name>1666</name>
</trkpt>
<trkpt lat="48.942307" lon="8.641483">
<ele>332.0</ele>
<speed>0.31</speed>
<course>23.0</course>
<desc>Speed 1.1 km/h Distance 2.64 km</desc>
<time>2010-10-23T17:06:40.38</time>
<name>1667</name>
</trkpt>
<trkpt lat="48.942310" lon="8.641485">
<ele>332.0</ele>
<speed>0.52</speed>
<course>7.4</course>
<desc>Speed 1.9 km/h Distance 2.64 km</desc>
<time>2010-10-23T17:06:41.38</time>
<name>1668</name>
</trkpt>
<trkpt lat="48.942317" lon="8.641487">
<ele>331.5</ele>
<speed>0.66</speed>
<course>21.5</course>
<desc>Speed 2.4 km/h Distance 2.64 km</desc>
<time>2010-10-23T17:06:42.38</time>
<name>1669</name>
</trkpt>
<trkpt lat="48.942325" lon="8.641492">
<ele>331.5</ele>
<speed>0.98</speed>
<course>13.8</course>
<desc>Speed 3.5 km/h Distance 2.64 km</desc>
<time>2010-10-23T17:06:43.38</time>
<name>1670</name>
</trkpt>
<trkpt lat="48.942333" lon="8.641495">
<ele>331.5</ele>
<speed>0.99</speed>
<course>339.2</course>
<desc>Speed 3.6 km/h Distance 2.64 km</desc>
<time>2010-10-23T17:06:44.38</time>
<name>1671</name>
</trkpt>
<trkpt lat="48.942342" lon="8.641490">
<ele>331.5</ele>
<speed>1.03</speed>
<course>349.6</course>
<desc>Speed 3.7 km/h Distance 2.65 km</desc>
<time>2010-10-23T17:06:45.38</time>
<name>1672</name>
</trkpt>
<trkpt lat="48.942353" lon="8.641487">
<ele>331.0</ele>
<speed>1.25</speed>
<course>353.4</course>
<desc>Speed 4.5 km/h Distance 2.65 km</desc>
<time>2010-10-23T17:06:46.38</time>
<name>1673</name>
</trkpt>
<trkpt lat="48.942363" lon="8.641485">
<ele>331.0</ele>
<speed>1.14</speed>
<course>3.8</course>
<desc>Speed 4.1 km/h Distance 2.65 km</desc>
<time>2010-10-23T17:06:47.38</time>
<name>1674</name>
</trkpt>
<trkpt lat="48.942378" lon="8.641485">
<ele>331.0</ele>
<speed>1.62</speed>
<course>4.7</course>
<desc>Speed 5.8 km/h Distance 2.65 km</desc>
<time>2010-10-23T17:06:48.38</time>
<name>1675</name>
</trkpt>
<trkpt lat="48.942390" lon="8.641487">
<ele>330.5</ele>
<speed>1.41</speed>
<course>0.0</course>
<desc>Speed 5.1 km/h Distance 2.65 km</desc>
<time>2010-10-23T17:06:49.38</time>
<name>1676</name>
</trkpt>
<trkpt lat="48.942400" lon="8.641487">
<ele>331.0</ele>
<speed>1.00</speed>
<course>184.4</course>
<desc>Speed 3.6 km/h Distance 2.65 km</desc>
<time>2010-10-23T17:06:50.38</time>
<name>1677</name>
</trkpt>
<trkpt lat="48.942390" lon="8.641485">
<ele>331.5</ele>
<speed>0.34</speed>
<course>207.9</course>
<desc>Speed 1.2 km/h Distance 2.65 km</desc>
<time>2010-10-23T17:06:52.38</time>
<name>1678</name>
</trkpt>
<trkpt lat="48.942382" lon="8.641478">
<ele>332.5</ele>
<speed>0.36</speed>
<course>213.7</course>
<desc>Speed 1.3 km/h Distance 2.65 km</desc>
<time>2010-10-23T17:06:55.38</time>
<name>1679</name>
</trkpt>
<trkpt lat="48.942378" lon="8.641475">
<ele>332.5</ele>
<speed>0.37</speed>
<course>172.6</course>
<desc>Speed 1.3 km/h Distance 2.65 km</desc>
<time>2010-10-23T17:06:56.38</time>
<name>1680</name>
</trkpt>
<trkpt lat="48.942372" lon="8.641477">
<ele>332.5</ele>
<speed>0.43</speed>
<course>178.1</course>
<desc>Speed 1.5 km/h Distance 2.65 km</desc>
<time>2010-10-23T17:07:02.38</time>
<name>1681</name>
</trkpt>
<trkpt lat="48.942342" lon="8.641478">
<ele>332.5</ele>
<speed>1.72</speed>
<course>189.0</course>
<desc>Speed 6.2 km/h Distance 2.66 km</desc>
<time>2010-10-23T17:07:04.38</time>
<name>1682</name>
</trkpt>
<trkpt lat="48.942328" lon="8.641475">
<ele>332.5</ele>
<speed>1.65</speed>
<course>183.8</course>
<desc>Speed 5.9 km/h Distance 2.66 km</desc>
<time>2010-10-23T17:07:05.38</time>
<name>1683</name>
</trkpt>
<trkpt lat="48.942313" lon="8.641473">
<ele>332.5</ele>
<speed>1.76</speed>
<course>187.7</course>
<desc>Speed 6.3 km/h Distance 2.66 km</desc>
<time>2010-10-23T17:07:06.38</time>
<name>1684</name>
</trkpt>
<trkpt lat="48.942297" lon="8.641470">
<ele>332.5</ele>
<speed>1.75</speed>
<course>182.8</course>
<desc>Speed 6.3 km/h Distance 2.66 km</desc>
<time>2010-10-23T17:07:07.38</time>
<name>1685</name>
</trkpt>
<trkpt lat="48.942280" lon="8.641468">
<ele>333.0</ele>
<speed>1.75</speed>
<course>180.0</course>
<desc>Speed 6.3 km/h Distance 2.67 km</desc>
<time>2010-10-23T17:07:08.38</time>
<name>1686</name>
</trkpt>
<trkpt lat="48.942265" lon="8.641468">
<ele>333.0</ele>
<speed>1.72</speed>
<course>182.8</course>
<desc>Speed 6.2 km/h Distance 2.67 km</desc>
<time>2010-10-23T17:07:09.38</time>
<name>1687</name>
</trkpt>
<trkpt lat="48.942248" lon="8.641467">
<ele>333.0</ele>
<speed>1.69</speed>
<course>181.9</course>
<desc>Speed 6.1 km/h Distance 2.67 km</desc>
<time>2010-10-23T17:07:10.38</time>
<name>1688</name>
</trkpt>
<trkpt lat="48.942233" lon="8.641465">
<ele>333.0</ele>
<speed>1.63</speed>
<course>176.2</course>
<desc>Speed 5.9 km/h Distance 2.67 km</desc>
<time>2010-10-23T17:07:11.38</time>
<name>1689</name>
</trkpt>
<trkpt lat="48.942218" lon="8.641467">
<ele>333.5</ele>
<speed>1.72</speed>
<course>177.2</course>
<desc>Speed 6.2 km/h Distance 2.67 km</desc>
<time>2010-10-23T17:07:12.38</time>
<name>1690</name>
</trkpt>
<trkpt lat="48.942202" lon="8.641467">
<ele>333.5</ele>
<speed>1.74</speed>
<course>178.1</course>
<desc>Speed 6.3 km/h Distance 2.67 km</desc>
<time>2010-10-23T17:07:13.38</time>
<name>1691</name>
</trkpt>
<trkpt lat="48.942187" lon="8.641467">
<ele>333.5</ele>
<speed>1.74</speed>
<course>175.0</course>
<desc>Speed 6.3 km/h Distance 2.68 km</desc>
<time>2010-10-23T17:07:14.38</time>
<name>1692</name>
</trkpt>
<trkpt lat="48.942170" lon="8.641468">
<ele>333.5</ele>
<speed>1.71</speed>
<course>170.3</course>
<desc>Speed 6.2 km/h Distance 2.68 km</desc>
<time>2010-10-23T17:07:15.38</time>
<name>1693</name>
</trkpt>
<trkpt lat="48.942157" lon="8.641472">
<ele>333.0</ele>
<speed>1.62</speed>
<course>172.3</course>
<desc>Speed 5.8 km/h Distance 2.68 km</desc>
<time>2010-10-23T17:07:16.38</time>
<name>1694</name>
</trkpt>
<trkpt lat="48.942140" lon="8.641475">
<ele>333.0</ele>
<speed>1.77</speed>
<course>161.9</course>
<desc>Speed 6.4 km/h Distance 2.68 km</desc>
<time>2010-10-23T17:07:17.38</time>
<name>1695</name>
</trkpt>
<trkpt lat="48.942127" lon="8.641482">
<ele>333.0</ele>
<speed>1.62</speed>
<course>168.8</course>
<desc>Speed 5.8 km/h Distance 2.68 km</desc>
<time>2010-10-23T17:07:18.38</time>
<name>1696</name>
</trkpt>
<trkpt lat="48.942115" lon="8.641485">
<ele>333.0</ele>
<speed>1.34</speed>
<course>171.0</course>
<desc>Speed 4.8 km/h Distance 2.68 km</desc>
<time>2010-10-23T17:07:19.38</time>
<name>1697</name>
</trkpt>
<trkpt lat="48.942102" lon="8.641488">
<ele>333.0</ele>
<speed>1.58</speed>
<course>176.1</course>
<desc>Speed 5.7 km/h Distance 2.69 km</desc>
<time>2010-10-23T17:07:20.38</time>
<name>1698</name>
</trkpt>
<trkpt lat="48.942088" lon="8.641490">
<ele>333.0</ele>
<speed>1.64</speed>
<course>168.8</course>
<desc>Speed 5.9 km/h Distance 2.69 km</desc>
<time>2010-10-23T17:07:21.38</time>
<name>1699</name>
</trkpt>
<trkpt lat="48.942072" lon="8.641495">
<ele>333.5</ele>
<speed>1.62</speed>
<course>164.0</course>
<desc>Speed 5.8 km/h Distance 2.69 km</desc>
<time>2010-10-23T17:07:22.38</time>
<name>1700</name>
</trkpt>
<trkpt lat="48.942057" lon="8.641502">
<ele>333.5</ele>
<speed>1.74</speed>
<course>161.9</course>
<desc>Speed 6.3 km/h Distance 2.69 km</desc>
<time>2010-10-23T17:07:23.38</time>
<name>1701</name>
</trkpt>
<trkpt lat="48.942040" lon="8.641510">
<ele>334.0</ele>
<speed>1.79</speed>
<course>164.0</course>
<desc>Speed 6.4 km/h Distance 2.69 km</desc>
<time>2010-10-23T17:07:24.38</time>
<name>1702</name>
</trkpt>
<trkpt lat="48.942025" lon="8.641517">
<ele>334.5</ele>
<speed>1.75</speed>
<course>166.5</course>
<desc>Speed 6.3 km/h Distance 2.69 km</desc>
<time>2010-10-23T17:07:25.38</time>
<name>1703</name>
</trkpt>
<trkpt lat="48.942012" lon="8.641522">
<ele>334.5</ele>
<speed>1.54</speed>
<course>168.8</course>
<desc>Speed 5.5 km/h Distance 2.70 km</desc>
<time>2010-10-23T17:07:26.38</time>
<name>1704</name>
</trkpt>
<trkpt lat="48.941995" lon="8.641527">
<ele>335.0</ele>
<speed>1.89</speed>
<course>169.6</course>
<desc>Speed 6.8 km/h Distance 2.70 km</desc>
<time>2010-10-23T17:07:27.38</time>
<name>1705</name>
</trkpt>
<trkpt lat="48.941978" lon="8.641532">
<ele>335.0</ele>
<speed>1.78</speed>
<course>163.7</course>
<desc>Speed 6.4 km/h Distance 2.70 km</desc>
<time>2010-10-23T17:07:28.38</time>
<name>1706</name>
</trkpt>
<trkpt lat="48.941963" lon="8.641538">
<ele>335.0</ele>
<speed>1.74</speed>
<course>160.3</course>
<desc>Speed 6.3 km/h Distance 2.70 km</desc>
<time>2010-10-23T17:07:29.38</time>
<name>1707</name>
</trkpt>
<trkpt lat="48.941945" lon="8.641548">
<ele>335.0</ele>
<speed>1.97</speed>
<course>161.9</course>
<desc>Speed 7.1 km/h Distance 2.70 km</desc>
<time>2010-10-23T17:07:30.38</time>
<name>1708</name>
</trkpt>
<trkpt lat="48.941932" lon="8.641555">
<ele>336.0</ele>
<speed>1.57</speed>
<course>168.8</course>
<desc>Speed 5.7 km/h Distance 2.70 km</desc>
<time>2010-10-23T17:07:31.38</time>
<name>1709</name>
</trkpt>
<trkpt lat="48.941920" lon="8.641558">
<ele>335.5</ele>
<speed>1.36</speed>
<course>154.8</course>
<desc>Speed 4.9 km/h Distance 2.71 km</desc>
<time>2010-10-23T17:07:32.38</time>
<name>1710</name>
</trkpt>
<trkpt lat="48.941908" lon="8.641567">
<ele>335.5</ele>
<speed>1.37</speed>
<course>157.4</course>
<desc>Speed 4.9 km/h Distance 2.71 km</desc>
<time>2010-10-23T17:07:33.38</time>
<name>1711</name>
</trkpt>
<trkpt lat="48.941895" lon="8.641575">
<ele>336.0</ele>
<speed>1.62</speed>
<course>166.5</course>
<desc>Speed 5.8 km/h Distance 2.71 km</desc>
<time>2010-10-23T17:07:34.38</time>
<name>1712</name>
</trkpt>
<trkpt lat="48.941882" lon="8.641580">
<ele>336.0</ele>
<speed>1.62</speed>
<course>171.2</course>
<desc>Speed 5.8 km/h Distance 2.71 km</desc>
<time>2010-10-23T17:07:35.38</time>
<name>1713</name>
</trkpt>
<trkpt lat="48.941867" lon="8.641583">
<ele>336.0</ele>
<speed>1.71</speed>
<course>154.8</course>
<desc>Speed 6.2 km/h Distance 2.71 km</desc>
<time>2010-10-23T17:07:36.38</time>
<name>1714</name>
</trkpt>
<trkpt lat="48.941855" lon="8.641592">
<ele>336.5</ele>
<speed>1.62</speed>
<course>159.9</course>
<desc>Speed 5.8 km/h Distance 2.71 km</desc>
<time>2010-10-23T17:07:37.38</time>
<name>1715</name>
</trkpt>
<trkpt lat="48.941840" lon="8.641600">
<ele>337.0</ele>
<speed>1.78</speed>
<course>158.5</course>
<desc>Speed 6.4 km/h Distance 2.72 km</desc>
<time>2010-10-23T17:07:38.38</time>
<name>1716</name>
</trkpt>
<trkpt lat="48.941823" lon="8.641610">
<ele>337.0</ele>
<speed>1.87</speed>
<course>156.3</course>
<desc>Speed 6.7 km/h Distance 2.72 km</desc>
<time>2010-10-23T17:07:39.38</time>
<name>1717</name>
</trkpt>
<trkpt lat="48.941808" lon="8.641620">
<ele>337.0</ele>
<speed>1.79</speed>
<course>161.9</course>
<desc>Speed 6.4 km/h Distance 2.72 km</desc>
<time>2010-10-23T17:07:40.38</time>
<name>1718</name>
</trkpt>
<trkpt lat="48.941792" lon="8.641628">
<ele>337.5</ele>
<speed>1.77</speed>
<course>168.8</course>
<desc>Speed 6.4 km/h Distance 2.72 km</desc>
<time>2010-10-23T17:07:41.38</time>
<name>1719</name>
</trkpt>
<trkpt lat="48.941775" lon="8.641633">
<ele>337.5</ele>
<speed>1.75</speed>
<course>167.8</course>
<desc>Speed 6.3 km/h Distance 2.72 km</desc>
<time>2010-10-23T17:07:42.38</time>
<name>1720</name>
</trkpt>
<trkpt lat="48.941760" lon="8.641638">
<ele>337.5</ele>
<speed>1.72</speed>
<course>168.8</course>
<desc>Speed 6.2 km/h Distance 2.73 km</desc>
<time>2010-10-23T17:07:43.38</time>
<name>1721</name>
</trkpt>
<trkpt lat="48.941743" lon="8.641643">
<ele>337.5</ele>
<speed>1.71</speed>
<course>165.1</course>
<desc>Speed 6.2 km/h Distance 2.73 km</desc>
<time>2010-10-23T17:07:44.38</time>
<name>1722</name>
</trkpt>
<trkpt lat="48.941727" lon="8.641650">
<ele>337.5</ele>
<speed>1.87</speed>
<course>169.8</course>
<desc>Speed 6.7 km/h Distance 2.73 km</desc>
<time>2010-10-23T17:07:45.38</time>
<name>1723</name>
</trkpt>
<trkpt lat="48.941708" lon="8.641655">
<ele>337.0</ele>
<speed>1.84</speed>
<course>168.8</course>
<desc>Speed 6.6 km/h Distance 2.73 km</desc>
<time>2010-10-23T17:07:46.38</time>
<name>1724</name>
</trkpt>
<trkpt lat="48.941692" lon="8.641660">
<ele>337.0</ele>
<speed>1.66</speed>
<course>166.4</course>
<desc>Speed 6.0 km/h Distance 2.73 km</desc>
<time>2010-10-23T17:07:47.38</time>
<name>1725</name>
</trkpt>
<trkpt lat="48.941673" lon="8.641667">
<ele>337.0</ele>
<speed>1.85</speed>
<course>165.1</course>
<desc>Speed 6.7 km/h Distance 2.73 km</desc>
<time>2010-10-23T17:07:48.38</time>
<name>1726</name>
</trkpt>
<trkpt lat="48.941657" lon="8.641673">
<ele>337.0</ele>
<speed>1.85</speed>
<course>172.5</course>
<desc>Speed 6.7 km/h Distance 2.74 km</desc>
<time>2010-10-23T17:07:49.38</time>
<name>1727</name>
</trkpt>
<trkpt lat="48.941642" lon="8.641677">
<ele>337.0</ele>
<speed>1.71</speed>
<course>173.5</course>
<desc>Speed 6.2 km/h Distance 2.74 km</desc>
<time>2010-10-23T17:07:50.38</time>
<name>1728</name>
</trkpt>
<trkpt lat="48.941625" lon="8.641680">
<ele>336.5</ele>
<speed>1.99</speed>
<course>163.7</course>
<desc>Speed 7.2 km/h Distance 2.74 km</desc>
<time>2010-10-23T17:07:51.38</time>
<name>1729</name>
</trkpt>
<trkpt lat="48.941610" lon="8.641687">
<ele>337.0</ele>
<speed>1.66</speed>
<course>161.9</course>
<desc>Speed 6.0 km/h Distance 2.74 km</desc>
<time>2010-10-23T17:07:52.38</time>
<name>1730</name>
</trkpt>
<trkpt lat="48.941597" lon="8.641693">
<ele>337.0</ele>
<speed>1.69</speed>
<course>161.9</course>
<desc>Speed 6.1 km/h Distance 2.74 km</desc>
<time>2010-10-23T17:07:53.38</time>
<name>1731</name>
</trkpt>
<trkpt lat="48.941583" lon="8.641700">
<ele>337.0</ele>
<speed>1.65</speed>
<course>163.4</course>
<desc>Speed 5.9 km/h Distance 2.75 km</desc>
<time>2010-10-23T17:07:54.38</time>
<name>1732</name>
</trkpt>
<trkpt lat="48.941568" lon="8.641707">
<ele>337.0</ele>
<speed>1.74</speed>
<course>164.0</course>
<desc>Speed 6.3 km/h Distance 2.75 km</desc>
<time>2010-10-23T17:07:55.38</time>
<name>1733</name>
</trkpt>
<trkpt lat="48.941553" lon="8.641713">
<ele>337.5</ele>
<speed>1.72</speed>
<course>167.8</course>
<desc>Speed 6.2 km/h Distance 2.75 km</desc>
<time>2010-10-23T17:07:56.38</time>
<name>1734</name>
</trkpt>
<trkpt lat="48.941538" lon="8.641718">
<ele>337.0</ele>
<speed>1.75</speed>
<course>168.8</course>
<desc>Speed 6.3 km/h Distance 2.75 km</desc>
<time>2010-10-23T17:07:57.38</time>
<name>1735</name>
</trkpt>
<trkpt lat="48.941522" lon="8.641723">
<ele>337.0</ele>
<speed>1.76</speed>
<course>172.5</course>
<desc>Speed 6.3 km/h Distance 2.75 km</desc>
<time>2010-10-23T17:07:58.38</time>
<name>1736</name>
</trkpt>
<trkpt lat="48.941507" lon="8.641727">
<ele>337.0</ele>
<speed>1.70</speed>
<course>169.2</course>
<desc>Speed 6.1 km/h Distance 2.75 km</desc>
<time>2010-10-23T17:07:59.38</time>
<name>1737</name>
</trkpt>
<trkpt lat="48.941490" lon="8.641732">
<ele>337.0</ele>
<speed>1.72</speed>
<course>168.3</course>
<desc>Speed 6.2 km/h Distance 2.76 km</desc>
<time>2010-10-23T17:08:00.38</time>
<name>1738</name>
</trkpt>
<trkpt lat="48.941475" lon="8.641737">
<ele>337.0</ele>
<speed>1.70</speed>
<course>163.7</course>
<desc>Speed 6.1 km/h Distance 2.76 km</desc>
<time>2010-10-23T17:08:01.38</time>
<name>1739</name>
</trkpt>
<trkpt lat="48.941460" lon="8.641743">
<ele>337.0</ele>
<speed>1.60</speed>
<course>167.4</course>
<desc>Speed 5.8 km/h Distance 2.76 km</desc>
<time>2010-10-23T17:08:02.38</time>
<name>1740</name>
</trkpt>
<trkpt lat="48.941445" lon="8.641748">
<ele>337.0</ele>
<speed>1.66</speed>
<course>163.4</course>
<desc>Speed 6.0 km/h Distance 2.76 km</desc>
<time>2010-10-23T17:08:03.38</time>
<name>1741</name>
</trkpt>
<trkpt lat="48.941430" lon="8.641755">
<ele>337.0</ele>
<speed>1.67</speed>
<course>163.4</course>
<desc>Speed 6.0 km/h Distance 2.76 km</desc>
<time>2010-10-23T17:08:04.38</time>
<name>1742</name>
</trkpt>
<trkpt lat="48.941415" lon="8.641762">
<ele>336.5</ele>
<speed>1.77</speed>
<course>168.8</course>
<desc>Speed 6.4 km/h Distance 2.76 km</desc>
<time>2010-10-23T17:08:05.38</time>
<name>1743</name>
</trkpt>
<trkpt lat="48.941398" lon="8.641767">
<ele>336.0</ele>
<speed>1.89</speed>
<course>154.8</course>
<desc>Speed 6.8 km/h Distance 2.77 km</desc>
<time>2010-10-23T17:08:06.38</time>
<name>1744</name>
</trkpt>
<trkpt lat="48.941387" lon="8.641775">
<ele>336.5</ele>
<speed>1.40</speed>
<course>166.2</course>
<desc>Speed 5.0 km/h Distance 2.77 km</desc>
<time>2010-10-23T17:08:07.38</time>
<name>1745</name>
</trkpt>
<trkpt lat="48.941368" lon="8.641782">
<ele>335.5</ele>
<speed>2.02</speed>
<course>157.4</course>
<desc>Speed 7.3 km/h Distance 2.77 km</desc>
<time>2010-10-23T17:08:08.38</time>
<name>1746</name>
</trkpt>
<trkpt lat="48.941355" lon="8.641790">
<ele>335.5</ele>
<speed>1.72</speed>
<course>159.9</course>
<desc>Speed 6.2 km/h Distance 2.77 km</desc>
<time>2010-10-23T17:08:09.38</time>
<name>1747</name>
</trkpt>
<trkpt lat="48.941340" lon="8.641798">
<ele>335.5</ele>
<speed>1.79</speed>
<course>154.8</course>
<desc>Speed 6.4 km/h Distance 2.77 km</desc>
<time>2010-10-23T17:08:10.38</time>
<name>1748</name>
</trkpt>
<trkpt lat="48.941328" lon="8.641807">
<ele>335.5</ele>
<speed>1.44</speed>
<course>154.0</course>
<desc>Speed 5.2 km/h Distance 2.77 km</desc>
<time>2010-10-23T17:08:11.38</time>
<name>1749</name>
</trkpt>
<trkpt lat="48.941315" lon="8.641817">
<ele>335.5</ele>
<speed>1.60</speed>
<course>158.5</course>
<desc>Speed 5.8 km/h Distance 2.78 km</desc>
<time>2010-10-23T17:08:12.38</time>
<name>1750</name>
</trkpt>
<trkpt lat="48.941298" lon="8.641827">
<ele>335.0</ele>
<speed>1.95</speed>
<course>150.0</course>
<desc>Speed 7.0 km/h Distance 2.78 km</desc>
<time>2010-10-23T17:08:13.38</time>
<name>1751</name>
</trkpt>
<trkpt lat="48.941285" lon="8.641838">
<ele>334.5</ele>
<speed>1.74</speed>
<course>146.6</course>
<desc>Speed 6.3 km/h Distance 2.78 km</desc>
<time>2010-10-23T17:08:14.38</time>
<name>1752</name>
</trkpt>
<trkpt lat="48.941272" lon="8.641852">
<ele>334.0</ele>
<speed>1.76</speed>
<course>144.0</course>
<desc>Speed 6.3 km/h Distance 2.78 km</desc>
<time>2010-10-23T17:08:15.38</time>
<name>1753</name>
</trkpt>
<trkpt lat="48.941257" lon="8.641868">
<ele>333.5</ele>
<speed>1.98</speed>
<course>140.6</course>
<desc>Speed 7.1 km/h Distance 2.78 km</desc>
<time>2010-10-23T17:08:16.38</time>
<name>1754</name>
</trkpt>
<trkpt lat="48.941243" lon="8.641885">
<ele>332.5</ele>
<speed>1.80</speed>
<course>146.7</course>
<desc>Speed 6.5 km/h Distance 2.79 km</desc>
<time>2010-10-23T17:08:17.38</time>
<name>1755</name>
</trkpt>
<trkpt lat="48.941228" lon="8.641900">
<ele>331.5</ele>
<speed>1.84</speed>
<course>127.3</course>
<desc>Speed 6.6 km/h Distance 2.79 km</desc>
<time>2010-10-23T17:08:18.38</time>
<name>1756</name>
</trkpt>
<trkpt lat="48.941220" lon="8.641917">
<ele>331.5</ele>
<speed>1.54</speed>
<course>139.8</course>
<desc>Speed 5.5 km/h Distance 2.79 km</desc>
<time>2010-10-23T17:08:19.38</time>
<name>1757</name>
</trkpt>
<trkpt lat="48.941208" lon="8.641932">
<ele>331.0</ele>
<speed>1.49</speed>
<course>135.5</course>
<desc>Speed 5.4 km/h Distance 2.79 km</desc>
<time>2010-10-23T17:08:20.38</time>
<name>1758</name>
</trkpt>
<trkpt lat="48.941198" lon="8.641947">
<ele>331.5</ele>
<speed>1.75</speed>
<course>150.6</course>
<desc>Speed 6.3 km/h Distance 2.79 km</desc>
<time>2010-10-23T17:08:21.38</time>
<name>1759</name>
</trkpt>
<trkpt lat="48.941187" lon="8.641957">
<ele>330.0</ele>
<speed>1.39</speed>
<course>137.5</course>
<desc>Speed 5.0 km/h Distance 2.79 km</desc>
<time>2010-10-23T17:08:22.38</time>
<name>1760</name>
</trkpt>
<trkpt lat="48.941178" lon="8.641968">
<ele>330.0</ele>
<speed>1.19</speed>
<course>141.9</course>
<desc>Speed 4.3 km/h Distance 2.80 km</desc>
<time>2010-10-23T17:08:23.38</time>
<name>1761</name>
</trkpt>
<trkpt lat="48.941170" lon="8.641978">
<ele>330.0</ele>
<speed>1.16</speed>
<course>177.2</course>
<desc>Speed 4.2 km/h Distance 2.80 km</desc>
<time>2010-10-23T17:08:24.38</time>
<name>1762</name>
</trkpt>
<trkpt lat="48.941153" lon="8.641980">
<ele>328.0</ele>
<speed>1.80</speed>
<course>159.4</course>
<desc>Speed 6.5 km/h Distance 2.80 km</desc>
<time>2010-10-23T17:08:25.38</time>
<name>1763</name>
</trkpt>
<trkpt lat="48.941142" lon="8.641987">
<ele>328.0</ele>
<speed>1.22</speed>
<course>137.4</course>
<desc>Speed 4.4 km/h Distance 2.80 km</desc>
<time>2010-10-23T17:08:26.38</time>
<name>1764</name>
</trkpt>
<trkpt lat="48.941133" lon="8.641998">
<ele>328.0</ele>
<speed>1.28</speed>
<course>150.6</course>
<desc>Speed 4.6 km/h Distance 2.80 km</desc>
<time>2010-10-23T17:08:27.38</time>
<name>1765</name>
</trkpt>
<trkpt lat="48.941122" lon="8.642008">
<ele>327.0</ele>
<speed>1.41</speed>
<course>169.8</course>
<desc>Speed 5.1 km/h Distance 2.80 km</desc>
<time>2010-10-23T17:08:28.38</time>
<name>1766</name>
</trkpt>
<trkpt lat="48.941103" lon="8.642013">
<ele>326.0</ele>
<speed>1.86</speed>
<course>159.4</course>
<desc>Speed 6.7 km/h Distance 2.80 km</desc>
<time>2010-10-23T17:08:29.38</time>
<name>1767</name>
</trkpt>
<trkpt lat="48.941092" lon="8.642020">
<ele>325.5</ele>
<speed>1.29</speed>
<course>152.1</course>
<desc>Speed 4.6 km/h Distance 2.81 km</desc>
<time>2010-10-23T17:08:30.38</time>
<name>1768</name>
</trkpt>
<trkpt lat="48.941083" lon="8.642027">
<ele>326.0</ele>
<speed>0.99</speed>
<course>165.1</course>
<desc>Speed 3.6 km/h Distance 2.81 km</desc>
<time>2010-10-23T17:08:31.38</time>
<name>1769</name>
</trkpt>
<trkpt lat="48.941075" lon="8.642030">
<ele>327.0</ele>
<speed>1.01</speed>
<course>154.8</course>
<desc>Speed 3.6 km/h Distance 2.81 km</desc>
<time>2010-10-23T17:08:32.38</time>
<name>1770</name>
</trkpt>
<trkpt lat="48.941063" lon="8.642038">
<ele>327.0</ele>
<speed>1.72</speed>
<course>165.1</course>
<desc>Speed 6.2 km/h Distance 2.81 km</desc>
<time>2010-10-23T17:08:33.38</time>
<name>1771</name>
</trkpt>
<trkpt lat="48.941055" lon="8.642042">
<ele>327.5</ele>
<speed>0.86</speed>
<course>175.0</course>
<desc>Speed 3.1 km/h Distance 2.81 km</desc>
<time>2010-10-23T17:08:34.38</time>
<name>1772</name>
</trkpt>
<trkpt lat="48.941047" lon="8.642043">
<ele>327.5</ele>
<speed>0.86</speed>
<course>146.3</course>
<desc>Speed 3.1 km/h Distance 2.81 km</desc>
<time>2010-10-23T17:08:35.38</time>
<name>1773</name>
</trkpt>
<trkpt lat="48.941043" lon="8.642047">
<ele>328.5</ele>
<speed>0.77</speed>
<course>162.5</course>
<desc>Speed 2.8 km/h Distance 2.81 km</desc>
<time>2010-10-23T17:08:36.38</time>
<name>1774</name>
</trkpt>
<trkpt lat="48.941037" lon="8.642050">
<ele>328.0</ele>
<speed>0.47</speed>
<course>173.4</course>
<desc>Speed 1.7 km/h Distance 2.81 km</desc>
<time>2010-10-23T17:08:37.38</time>
<name>1775</name>
</trkpt>
<trkpt lat="48.941027" lon="8.642052">
<ele>328.5</ele>
<speed>0.62</speed>
<course>154.8</course>
<desc>Speed 2.2 km/h Distance 2.81 km</desc>
<time>2010-10-23T17:08:39.38</time>
<name>1776</name>
</trkpt>
<trkpt lat="48.941015" lon="8.642060">
<ele>328.0</ele>
<speed>1.16</speed>
<course>161.2</course>
<desc>Speed 4.2 km/h Distance 2.82 km</desc>
<time>2010-10-23T17:08:40.38</time>
<name>1777</name>
</trkpt>
<trkpt lat="48.941002" lon="8.642067">
<ele>328.0</ele>
<speed>1.24</speed>
<course>163.4</course>
<desc>Speed 4.5 km/h Distance 2.82 km</desc>
<time>2010-10-23T17:08:41.38</time>
<name>1778</name>
</trkpt>
<trkpt lat="48.940987" lon="8.642073">
<ele>328.0</ele>
<speed>1.57</speed>
<course>159.9</course>
<desc>Speed 5.7 km/h Distance 2.82 km</desc>
<time>2010-10-23T17:08:42.38</time>
<name>1779</name>
</trkpt>
<trkpt lat="48.940972" lon="8.642082">
<ele>328.0</ele>
<speed>1.23</speed>
<course>159.8</course>
<desc>Speed 4.4 km/h Distance 2.82 km</desc>
<time>2010-10-23T17:08:43.38</time>
<name>1780</name>
</trkpt>
<trkpt lat="48.940960" lon="8.642088">
<ele>327.0</ele>
<speed>1.01</speed>
<course>177.2</course>
<desc>Speed 3.6 km/h Distance 2.82 km</desc>
<time>2010-10-23T17:08:44.38</time>
<name>1781</name>
</trkpt>
<trkpt lat="48.940943" lon="8.642090">
<ele>327.0</ele>
<speed>1.46</speed>
<course>171.0</course>
<desc>Speed 5.3 km/h Distance 2.82 km</desc>
<time>2010-10-23T17:08:45.38</time>
<name>1782</name>
</trkpt>
<trkpt lat="48.940930" lon="8.642093">
<ele>326.0</ele>
<speed>1.27</speed>
<course>170.5</course>
<desc>Speed 4.6 km/h Distance 2.83 km</desc>
<time>2010-10-23T17:08:46.38</time>
<name>1783</name>
</trkpt>
<trkpt lat="48.940910" lon="8.642098">
<ele>324.5</ele>
<speed>1.63</speed>
<course>161.8</course>
<desc>Speed 5.9 km/h Distance 2.83 km</desc>
<time>2010-10-23T17:08:47.38</time>
<name>1784</name>
</trkpt>
<trkpt lat="48.940900" lon="8.642103">
<ele>324.5</ele>
<speed>0.81</speed>
<course>180.0</course>
<desc>Speed 2.9 km/h Distance 2.83 km</desc>
<time>2010-10-23T17:08:48.38</time>
<name>1785</name>
</trkpt>
<trkpt lat="48.940882" lon="8.642103">
<ele>324.0</ele>
<speed>1.28</speed>
<course>174.7</course>
<desc>Speed 4.6 km/h Distance 2.83 km</desc>
<time>2010-10-23T17:08:49.38</time>
<name>1786</name>
</trkpt>
<trkpt lat="48.940868" lon="8.642105">
<ele>324.0</ele>
<speed>1.39</speed>
<course>180.0</course>
<desc>Speed 5.0 km/h Distance 2.83 km</desc>
<time>2010-10-23T17:08:50.38</time>
<name>1787</name>
</trkpt>
<trkpt lat="48.940852" lon="8.642105">
<ele>323.5</ele>
<speed>1.87</speed>
<course>161.9</course>
<desc>Speed 6.7 km/h Distance 2.83 km</desc>
<time>2010-10-23T17:08:51.38</time>
<name>1788</name>
</trkpt>
<trkpt lat="48.940838" lon="8.642112">
<ele>323.5</ele>
<speed>1.62</speed>
<course>182.2</course>
<desc>Speed 5.8 km/h Distance 2.84 km</desc>
<time>2010-10-23T17:08:52.38</time>
<name>1789</name>
</trkpt>
<trkpt lat="48.940815" lon="8.642110">
<ele>321.0</ele>
<speed>1.92</speed>
<course>165.1</course>
<desc>Speed 6.9 km/h Distance 2.84 km</desc>
<time>2010-10-23T17:08:53.38</time>
<name>1790</name>
</trkpt>
<trkpt lat="48.940798" lon="8.642117">
<ele>321.5</ele>
<speed>1.22</speed>
<course>142.5</course>
<desc>Speed 4.4 km/h Distance 2.84 km</desc>
<time>2010-10-23T17:08:54.38</time>
<name>1791</name>
</trkpt>
<trkpt lat="48.940788" lon="8.642128">
<ele>321.5</ele>
<speed>0.87</speed>
<course>146.8</course>
<desc>Speed 3.1 km/h Distance 2.84 km</desc>
<time>2010-10-23T17:08:55.38</time>
<name>1792</name>
</trkpt>
<trkpt lat="48.940778" lon="8.642138">
<ele>322.5</ele>
<speed>1.01</speed>
<course>143.0</course>
<desc>Speed 3.6 km/h Distance 2.84 km</desc>
<time>2010-10-23T17:08:56.38</time>
<name>1793</name>
</trkpt>
<trkpt lat="48.940767" lon="8.642152">
<ele>323.5</ele>
<speed>1.27</speed>
<course>106.9</course>
<desc>Speed 4.6 km/h Distance 2.84 km</desc>
<time>2010-10-23T17:08:57.38</time>
<name>1794</name>
</trkpt>
<trkpt lat="48.940765" lon="8.642160">
<ele>325.0</ele>
<speed>0.75</speed>
<course>144.2</course>
<desc>Speed 2.7 km/h Distance 2.84 km</desc>
<time>2010-10-23T17:08:58.38</time>
<name>1795</name>
</trkpt>
<trkpt lat="48.940748" lon="8.642178">
<ele>325.5</ele>
<speed>1.37</speed>
<course>150.2</course>
<desc>Speed 4.9 km/h Distance 2.85 km</desc>
<time>2010-10-23T17:08:59.38</time>
<name>1796</name>
</trkpt>
<trkpt lat="48.940735" lon="8.642190">
<ele>326.5</ele>
<speed>1.12</speed>
<course>154.9</course>
<desc>Speed 4.0 km/h Distance 2.85 km</desc>
<time>2010-10-23T17:09:00.38</time>
<name>1797</name>
</trkpt>
<trkpt lat="48.940712" lon="8.642207">
<ele>327.0</ele>
<speed>1.65</speed>
<course>173.9</course>
<desc>Speed 5.9 km/h Distance 2.85 km</desc>
<time>2010-10-23T17:09:01.38</time>
<name>1798</name>
</trkpt>
<trkpt lat="48.940692" lon="8.642210">
<ele>326.5</ele>
<speed>1.90</speed>
<course>167.8</course>
<desc>Speed 6.8 km/h Distance 2.85 km</desc>
<time>2010-10-23T17:09:02.38</time>
<name>1799</name>
</trkpt>
<trkpt lat="48.940677" lon="8.642215">
<ele>326.5</ele>
<speed>1.22</speed>
<course>53.0</course>
<desc>Speed 4.4 km/h Distance 2.86 km</desc>
<time>2010-10-23T17:09:03.38</time>
<name>1800</name>
</trkpt>
<trkpt lat="48.940680" lon="8.642222">
<ele>329.5</ele>
<speed>1.69</speed>
<course>165.1</course>
<desc>Speed 6.1 km/h Distance 2.86 km</desc>
<time>2010-10-23T17:09:04.38</time>
<name>1801</name>
</trkpt>
<trkpt lat="48.940668" lon="8.642227">
<ele>330.5</ele>
<speed>1.57</speed>
<course>165.1</course>
<desc>Speed 5.7 km/h Distance 2.86 km</desc>
<time>2010-10-23T17:09:05.38</time>
<name>1802</name>
</trkpt>
<trkpt lat="48.940660" lon="8.642230">
<ele>330.0</ele>
<speed>0.89</speed>
<course>166.5</course>
<desc>Speed 3.2 km/h Distance 2.86 km</desc>
<time>2010-10-23T17:09:06.38</time>
<name>1803</name>
</trkpt>
<trkpt lat="48.940647" lon="8.642235">
<ele>330.5</ele>
<speed>1.34</speed>
<course>157.7</course>
<desc>Speed 4.8 km/h Distance 2.86 km</desc>
<time>2010-10-23T17:09:07.38</time>
<name>1804</name>
</trkpt>
<trkpt lat="48.940633" lon="8.642243">
<ele>330.0</ele>
<speed>1.65</speed>
<course>161.9</course>
<desc>Speed 5.9 km/h Distance 2.86 km</desc>
<time>2010-10-23T17:09:08.38</time>
<name>1805</name>
</trkpt>
<trkpt lat="48.940620" lon="8.642250">
<ele>330.5</ele>
<speed>1.55</speed>
<course>151.4</course>
<desc>Speed 5.6 km/h Distance 2.86 km</desc>
<time>2010-10-23T17:09:09.38</time>
<name>1806</name>
</trkpt>
<trkpt lat="48.940610" lon="8.642258">
<ele>332.0</ele>
<speed>0.99</speed>
<course>171.9</course>
<desc>Speed 3.6 km/h Distance 2.86 km</desc>
<time>2010-10-23T17:09:10.38</time>
<name>1807</name>
</trkpt>
<trkpt lat="48.940595" lon="8.642262">
<ele>331.0</ele>
<speed>1.26</speed>
<course>175.0</course>
<desc>Speed 4.5 km/h Distance 2.87 km</desc>
<time>2010-10-23T17:09:11.38</time>
<name>1808</name>
</trkpt>
<trkpt lat="48.940587" lon="8.642262">
<ele>331.5</ele>
<speed>0.56</speed>
<course>156.2</course>
<desc>Speed 2.0 km/h Distance 2.87 km</desc>
<time>2010-10-23T17:09:12.38</time>
<name>1809</name>
</trkpt>
<trkpt lat="48.940577" lon="8.642268">
<ele>331.5</ele>
<speed>1.12</speed>
<course>164.0</course>
<desc>Speed 4.0 km/h Distance 2.87 km</desc>
<time>2010-10-23T17:09:13.38</time>
<name>1810</name>
</trkpt>
<trkpt lat="48.940565" lon="8.642273">
<ele>330.5</ele>
<speed>1.05</speed>
<course>180.0</course>
<desc>Speed 3.8 km/h Distance 2.87 km</desc>
<time>2010-10-23T17:09:14.38</time>
<name>1811</name>
</trkpt>
<trkpt lat="48.940550" lon="8.642273">
<ele>331.0</ele>
<speed>1.25</speed>
<course>327.7</course>
<desc>Speed 4.5 km/h Distance 2.87 km</desc>
<time>2010-10-23T17:09:15.38</time>
<name>1812</name>
</trkpt>
<trkpt lat="48.940555" lon="8.642268">
<ele>332.5</ele>
<speed>0.70</speed>
<course>188.1</course>
<desc>Speed 2.5 km/h Distance 2.87 km</desc>
<time>2010-10-23T17:09:16.38</time>
<name>1813</name>
</trkpt>
<trkpt lat="48.940540" lon="8.642265">
<ele>333.0</ele>
<speed>1.10</speed>
<course>196.3</course>
<desc>Speed 4.0 km/h Distance 2.87 km</desc>
<time>2010-10-23T17:09:17.38</time>
<name>1814</name>
</trkpt>
<trkpt lat="48.940525" lon="8.642258">
<ele>333.5</ele>
<speed>1.13</speed>
<course>165.1</course>
<desc>Speed 4.1 km/h Distance 2.88 km</desc>
<time>2010-10-23T17:09:18.38</time>
<name>1815</name>
</trkpt>
<trkpt lat="48.940517" lon="8.642262">
<ele>332.5</ele>
<speed>0.77</speed>
<course>191.3</course>
<desc>Speed 2.8 km/h Distance 2.88 km</desc>
<time>2010-10-23T17:09:19.38</time>
<name>1816</name>
</trkpt>
<trkpt lat="48.940478" lon="8.642250">
<ele>333.0</ele>
<speed>1.33</speed>
<course>172.5</course>
<desc>Speed 4.8 km/h Distance 2.88 km</desc>
<time>2010-10-23T17:09:21.38</time>
<name>1817</name>
</trkpt>
<trkpt lat="48.940463" lon="8.642253">
<ele>332.5</ele>
<speed>0.75</speed>
<course>180.0</course>
<desc>Speed 2.7 km/h Distance 2.88 km</desc>
<time>2010-10-23T17:09:22.38</time>
<name>1818</name>
</trkpt>
<trkpt lat="48.940453" lon="8.642253">
<ele>333.0</ele>
<speed>0.69</speed>
<course>174.7</course>
<desc>Speed 2.5 km/h Distance 2.88 km</desc>
<time>2010-10-23T17:09:23.38</time>
<name>1819</name>
</trkpt>
<trkpt lat="48.940440" lon="8.642255">
<ele>332.5</ele>
<speed>0.92</speed>
<course>192.6</course>
<desc>Speed 3.3 km/h Distance 2.89 km</desc>
<time>2010-10-23T17:09:24.38</time>
<name>1820</name>
</trkpt>
<trkpt lat="48.940430" lon="8.642252">
<ele>332.5</ele>
<speed>1.10</speed>
<course>191.2</course>
<desc>Speed 4.0 km/h Distance 2.89 km</desc>
<time>2010-10-23T17:09:25.38</time>
<name>1821</name>
</trkpt>
<trkpt lat="48.940418" lon="8.642248">
<ele>332.0</ele>
<speed>1.12</speed>
<course>185.0</course>
<desc>Speed 4.0 km/h Distance 2.89 km</desc>
<time>2010-10-23T17:09:26.38</time>
<name>1822</name>
</trkpt>
<trkpt lat="48.940402" lon="8.642247">
<ele>332.0</ele>
<speed>1.38</speed>
<course>194.9</course>
<desc>Speed 5.0 km/h Distance 2.89 km</desc>
<time>2010-10-23T17:09:27.38</time>
<name>1823</name>
</trkpt>
<trkpt lat="48.940393" lon="8.642243">
<ele>332.5</ele>
<speed>1.00</speed>
<course>198.8</course>
<desc>Speed 3.6 km/h Distance 2.89 km</desc>
<time>2010-10-23T17:09:28.38</time>
<name>1824</name>
</trkpt>
<trkpt lat="48.940383" lon="8.642238">
<ele>332.5</ele>
<speed>1.12</speed>
<course>213.2</course>
<desc>Speed 4.0 km/h Distance 2.89 km</desc>
<time>2010-10-23T17:09:29.38</time>
<name>1825</name>
</trkpt>
<trkpt lat="48.940375" lon="8.642230">
<ele>332.5</ele>
<speed>0.97</speed>
<course>208.6</course>
<desc>Speed 3.5 km/h Distance 2.89 km</desc>
<time>2010-10-23T17:09:30.38</time>
<name>1826</name>
</trkpt>
<trkpt lat="48.940365" lon="8.642222">
<ele>332.0</ele>
<speed>1.22</speed>
<course>191.6</course>
<desc>Speed 4.4 km/h Distance 2.89 km</desc>
<time>2010-10-23T17:09:31.38</time>
<name>1827</name>
</trkpt>
<trkpt lat="48.940355" lon="8.642218">
<ele>331.5</ele>
<speed>1.00</speed>
<course>201.5</course>
<desc>Speed 3.6 km/h Distance 2.90 km</desc>
<time>2010-10-23T17:09:32.38</time>
<name>1828</name>
</trkpt>
<trkpt lat="48.940347" lon="8.642213">
<ele>331.0</ele>
<speed>0.87</speed>
<course>204.9</course>
<desc>Speed 3.1 km/h Distance 2.90 km</desc>
<time>2010-10-23T17:09:33.38</time>
<name>1829</name>
</trkpt>
<trkpt lat="48.940335" lon="8.642205">
<ele>331.0</ele>
<speed>1.27</speed>
<course>190.4</course>
<desc>Speed 4.6 km/h Distance 2.90 km</desc>
<time>2010-10-23T17:09:34.38</time>
<name>1830</name>
</trkpt>
<trkpt lat="48.940323" lon="8.642202">
<ele>331.0</ele>
<speed>1.13</speed>
<course>198.1</course>
<desc>Speed 4.1 km/h Distance 2.90 km</desc>
<time>2010-10-23T17:09:35.38</time>
<name>1831</name>
</trkpt>
<trkpt lat="48.940310" lon="8.642195">
<ele>331.0</ele>
<speed>1.27</speed>
<course>199.4</course>
<desc>Speed 4.6 km/h Distance 2.90 km</desc>
<time>2010-10-23T17:09:36.38</time>
<name>1832</name>
</trkpt>
<trkpt lat="48.940288" lon="8.642183">
<ele>332.0</ele>
<speed>1.72</speed>
<course>213.2</course>
<desc>Speed 6.2 km/h Distance 2.90 km</desc>
<time>2010-10-23T17:09:37.38</time>
<name>1833</name>
</trkpt>
<trkpt lat="48.940278" lon="8.642173">
<ele>332.0</ele>
<speed>0.93</speed>
<course>198.1</course>
<desc>Speed 3.3 km/h Distance 2.90 km</desc>
<time>2010-10-23T17:09:38.38</time>
<name>1834</name>
</trkpt>
<trkpt lat="48.940265" lon="8.642167">
<ele>331.0</ele>
<speed>0.92</speed>
<course>194.6</course>
<desc>Speed 3.3 km/h Distance 2.91 km</desc>
<time>2010-10-23T17:09:39.38</time>
<name>1835</name>
</trkpt>
<trkpt lat="48.940248" lon="8.642160">
<ele>329.5</ele>
<speed>1.05</speed>
<course>224.5</course>
<desc>Speed 3.8 km/h Distance 2.91 km</desc>
<time>2010-10-23T17:09:40.38</time>
<name>1836</name>
</trkpt>
<trkpt lat="48.940242" lon="8.642150">
<ele>328.5</ele>
<speed>0.83</speed>
<course>202.3</course>
<desc>Speed 3.0 km/h Distance 2.91 km</desc>
<time>2010-10-23T17:09:41.38</time>
<name>1837</name>
</trkpt>
<trkpt lat="48.940228" lon="8.642142">
<ele>327.5</ele>
<speed>1.07</speed>
<course>201.5</course>
<desc>Speed 3.9 km/h Distance 2.91 km</desc>
<time>2010-10-23T17:09:42.38</time>
<name>1838</name>
</trkpt>
<trkpt lat="48.940220" lon="8.642137">
<ele>326.5</ele>
<speed>0.77</speed>
<course>227.8</course>
<desc>Speed 2.8 km/h Distance 2.91 km</desc>
<time>2010-10-23T17:09:43.38</time>
<name>1839</name>
</trkpt>
<trkpt lat="48.940215" lon="8.642128">
<ele>326.0</ele>
<speed>0.76</speed>
<course>213.2</course>
<desc>Speed 2.7 km/h Distance 2.91 km</desc>
<time>2010-10-23T17:09:44.38</time>
<name>1840</name>
</trkpt>
<trkpt lat="48.940207" lon="8.642120">
<ele>325.0</ele>
<speed>0.92</speed>
<course>213.4</course>
<desc>Speed 3.3 km/h Distance 2.91 km</desc>
<time>2010-10-23T17:09:45.38</time>
<name>1841</name>
</trkpt>
<trkpt lat="48.940197" lon="8.642110">
<ele>325.0</ele>
<speed>1.13</speed>
<course>208.6</course>
<desc>Speed 4.1 km/h Distance 2.91 km</desc>
<time>2010-10-23T17:09:46.38</time>
<name>1842</name>
</trkpt>
<trkpt lat="48.940187" lon="8.642102">
<ele>324.5</ele>
<speed>1.07</speed>
<course>213.2</course>
<desc>Speed 3.9 km/h Distance 2.92 km</desc>
<time>2010-10-23T17:09:47.38</time>
<name>1843</name>
</trkpt>
<trkpt lat="48.940177" lon="8.642092">
<ele>324.5</ele>
<speed>1.24</speed>
<course>209.8</course>
<desc>Speed 4.5 km/h Distance 2.92 km</desc>
<time>2010-10-23T17:09:48.38</time>
<name>1844</name>
</trkpt>
<trkpt lat="48.940163" lon="8.642080">
<ele>324.5</ele>
<speed>1.48</speed>
<course>217.3</course>
<desc>Speed 5.3 km/h Distance 2.92 km</desc>
<time>2010-10-23T17:09:49.38</time>
<name>1845</name>
</trkpt>
<trkpt lat="48.940153" lon="8.642068">
<ele>324.5</ele>
<speed>1.22</speed>
<course>203.5</course>
<desc>Speed 4.4 km/h Distance 2.92 km</desc>
<time>2010-10-23T17:09:50.38</time>
<name>1846</name>
</trkpt>
<trkpt lat="48.940138" lon="8.642058">
<ele>324.0</ele>
<speed>1.50</speed>
<course>209.8</course>
<desc>Speed 5.4 km/h Distance 2.92 km</desc>
<time>2010-10-23T17:09:51.38</time>
<name>1847</name>
</trkpt>
<trkpt lat="48.940125" lon="8.642047">
<ele>324.5</ele>
<speed>1.40</speed>
<course>202.1</course>
<desc>Speed 5.0 km/h Distance 2.92 km</desc>
<time>2010-10-23T17:09:52.38</time>
<name>1848</name>
</trkpt>
<trkpt lat="48.940112" lon="8.642038">
<ele>324.0</ele>
<speed>1.36</speed>
<course>192.3</course>
<desc>Speed 4.9 km/h Distance 2.93 km</desc>
<time>2010-10-23T17:09:53.38</time>
<name>1849</name>
</trkpt>
<trkpt lat="48.940092" lon="8.642032">
<ele>325.0</ele>
<speed>1.23</speed>
<course>207.9</course>
<desc>Speed 4.4 km/h Distance 2.93 km</desc>
<time>2010-10-23T17:09:54.38</time>
<name>1850</name>
</trkpt>
<trkpt lat="48.940083" lon="8.642025">
<ele>324.5</ele>
<speed>1.00</speed>
<course>206.4</course>
<desc>Speed 3.6 km/h Distance 2.93 km</desc>
<time>2010-10-23T17:09:55.38</time>
<name>1851</name>
</trkpt>
<trkpt lat="48.940070" lon="8.642015">
<ele>324.5</ele>
<speed>1.16</speed>
<course>207.9</course>
<desc>Speed 4.2 km/h Distance 2.93 km</desc>
<time>2010-10-23T17:09:56.38</time>
<name>1852</name>
</trkpt>
<trkpt lat="48.940062" lon="8.642008">
<ele>324.0</ele>
<speed>1.08</speed>
<course>197.6</course>
<desc>Speed 3.9 km/h Distance 2.93 km</desc>
<time>2010-10-23T17:09:57.38</time>
<name>1853</name>
</trkpt>
<trkpt lat="48.940052" lon="8.642003">
<ele>323.0</ele>
<speed>0.89</speed>
<course>203.8</course>
<desc>Speed 3.2 km/h Distance 2.93 km</desc>
<time>2010-10-23T17:09:58.38</time>
<name>1854</name>
</trkpt>
<trkpt lat="48.940042" lon="8.641997">
<ele>322.5</ele>
<speed>1.07</speed>
<course>195.8</course>
<desc>Speed 3.9 km/h Distance 2.93 km</desc>
<time>2010-10-23T17:09:59.38</time>
<name>1855</name>
</trkpt>
<trkpt lat="48.940018" lon="8.641987">
<ele>324.5</ele>
<speed>1.58</speed>
<course>175.5</course>
<desc>Speed 5.7 km/h Distance 2.94 km</desc>
<time>2010-10-23T17:10:00.38</time>
<name>1856</name>
</trkpt>
<trkpt lat="48.940000" lon="8.641988">
<ele>325.0</ele>
<speed>1.54</speed>
<course>158.5</course>
<desc>Speed 5.5 km/h Distance 2.94 km</desc>
<time>2010-10-23T17:10:01.38</time>
<name>1857</name>
</trkpt>
<trkpt lat="48.939992" lon="8.641993">
<ele>325.5</ele>
<speed>0.60</speed>
<course>207.9</course>
<desc>Speed 2.2 km/h Distance 2.94 km</desc>
<time>2010-10-23T17:10:02.38</time>
<name>1858</name>
</trkpt>
<trkpt lat="48.939983" lon="8.641987">
<ele>326.0</ele>
<speed>0.83</speed>
<course>222.6</course>
<desc>Speed 3.0 km/h Distance 2.94 km</desc>
<time>2010-10-23T17:10:03.38</time>
<name>1859</name>
</trkpt>
<trkpt lat="48.939975" lon="8.641975">
<ele>326.0</ele>
<speed>1.11</speed>
<course>211.3</course>
<desc>Speed 4.0 km/h Distance 2.94 km</desc>
<time>2010-10-23T17:10:04.38</time>
<name>1860</name>
</trkpt>
<trkpt lat="48.939953" lon="8.641955">
<ele>328.0</ele>
<speed>1.38</speed>
<course>211.4</course>
<desc>Speed 5.0 km/h Distance 2.94 km</desc>
<time>2010-10-23T17:10:05.38</time>
<name>1861</name>
</trkpt>
<trkpt lat="48.939930" lon="8.641933">
<ele>331.0</ele>
<speed>1.35</speed>
<course>202.2</course>
<desc>Speed 4.9 km/h Distance 2.95 km</desc>
<time>2010-10-23T17:10:06.38</time>
<name>1862</name>
</trkpt>
<trkpt lat="48.939868" lon="8.641895">
<ele>337.5</ele>
<speed>1.62</speed>
<course>189.0</course>
<desc>Speed 5.8 km/h Distance 2.96 km</desc>
<time>2010-10-23T17:10:08.38</time>
<name>1863</name>
</trkpt>
<trkpt lat="48.939855" lon="8.641892">
<ele>337.5</ele>
<speed>1.27</speed>
<course>192.2</course>
<desc>Speed 4.6 km/h Distance 2.96 km</desc>
<time>2010-10-23T17:10:09.38</time>
<name>1864</name>
</trkpt>
<trkpt lat="48.939840" lon="8.641887">
<ele>338.0</ele>
<speed>1.35</speed>
<course>186.5</course>
<desc>Speed 4.9 km/h Distance 2.96 km</desc>
<time>2010-10-23T17:10:10.38</time>
<name>1865</name>
</trkpt>
<trkpt lat="48.939822" lon="8.641883">
<ele>338.5</ele>
<speed>1.50</speed>
<course>166.0</course>
<desc>Speed 5.4 km/h Distance 2.96 km</desc>
<time>2010-10-23T17:10:11.38</time>
<name>1866</name>
</trkpt>
<trkpt lat="48.939808" lon="8.641888">
<ele>339.0</ele>
<speed>1.37</speed>
<course>172.3</course>
<desc>Speed 4.9 km/h Distance 2.96 km</desc>
<time>2010-10-23T17:10:12.38</time>
<name>1867</name>
</trkpt>
<trkpt lat="48.939792" lon="8.641892">
<ele>338.5</ele>
<speed>1.86</speed>
<course>170.5</course>
<desc>Speed 6.7 km/h Distance 2.96 km</desc>
<time>2010-10-23T17:10:13.38</time>
<name>1868</name>
</trkpt>
<trkpt lat="48.939772" lon="8.641897">
<ele>338.5</ele>
<speed>1.87</speed>
<course>163.4</course>
<desc>Speed 6.7 km/h Distance 2.97 km</desc>
<time>2010-10-23T17:10:14.38</time>
<name>1869</name>
</trkpt>
<trkpt lat="48.939757" lon="8.641903">
<ele>338.5</ele>
<speed>1.44</speed>
<course>160.3</course>
<desc>Speed 5.2 km/h Distance 2.97 km</desc>
<time>2010-10-23T17:10:15.38</time>
<name>1870</name>
</trkpt>
<trkpt lat="48.939738" lon="8.641913">
<ele>338.5</ele>
<speed>1.70</speed>
<course>176.3</course>
<desc>Speed 6.1 km/h Distance 2.97 km</desc>
<time>2010-10-23T17:10:16.38</time>
<name>1871</name>
</trkpt>
<trkpt lat="48.939720" lon="8.641915">
<ele>339.5</ele>
<speed>1.25</speed>
<course>175.9</course>
<desc>Speed 4.5 km/h Distance 2.97 km</desc>
<time>2010-10-23T17:10:17.38</time>
<name>1872</name>
</trkpt>
<trkpt lat="48.939703" lon="8.641917">
<ele>341.5</ele>
<speed>1.08</speed>
<course>172.2</course>
<desc>Speed 3.9 km/h Distance 2.97 km</desc>
<time>2010-10-23T17:10:18.38</time>
<name>1873</name>
</trkpt>
<trkpt lat="48.939680" lon="8.641922">
<ele>342.5</ele>
<speed>1.84</speed>
<course>177.3</course>
<desc>Speed 6.6 km/h Distance 2.98 km</desc>
<time>2010-10-23T17:10:19.38</time>
<name>1874</name>
</trkpt>
<trkpt lat="48.939660" lon="8.641923">
<ele>343.0</ele>
<speed>1.41</speed>
<course>169.8</course>
<desc>Speed 5.1 km/h Distance 2.98 km</desc>
<time>2010-10-23T17:10:20.38</time>
<name>1875</name>
</trkpt>
<trkpt lat="48.939642" lon="8.641928">
<ele>343.5</ele>
<speed>1.35</speed>
<course>152.2</course>
<desc>Speed 4.9 km/h Distance 2.98 km</desc>
<time>2010-10-23T17:10:21.38</time>
<name>1876</name>
</trkpt>
<trkpt lat="48.939625" lon="8.641942">
<ele>345.0</ele>
<speed>1.34</speed>
<course>172.6</course>
<desc>Speed 4.8 km/h Distance 2.98 km</desc>
<time>2010-10-23T17:10:22.38</time>
<name>1877</name>
</trkpt>
<trkpt lat="48.939600" lon="8.641947">
<ele>343.0</ele>
<speed>2.11</speed>
<course>177.5</course>
<desc>Speed 7.6 km/h Distance 2.99 km</desc>
<time>2010-10-23T17:10:23.38</time>
<name>1878</name>
</trkpt>
<trkpt lat="48.939582" lon="8.641948">
<ele>343.0</ele>
<speed>1.70</speed>
<course>171.2</course>
<desc>Speed 6.1 km/h Distance 2.99 km</desc>
<time>2010-10-23T17:10:24.38</time>
<name>1879</name>
</trkpt>
<trkpt lat="48.939567" lon="8.641952">
<ele>344.5</ele>
<speed>1.17</speed>
<course>177.2</course>
<desc>Speed 4.2 km/h Distance 2.99 km</desc>
<time>2010-10-23T17:10:25.38</time>
<name>1880</name>
</trkpt>
<trkpt lat="48.939550" lon="8.641953">
<ele>345.0</ele>
<speed>1.48</speed>
<course>174.8</course>
<desc>Speed 5.3 km/h Distance 2.99 km</desc>
<time>2010-10-23T17:10:26.38</time>
<name>1881</name>
</trkpt>
<trkpt lat="48.939527" lon="8.641957">
<ele>344.0</ele>
<speed>2.10</speed>
<course>167.4</course>
<desc>Speed 7.6 km/h Distance 2.99 km</desc>
<time>2010-10-23T17:10:27.38</time>
<name>1882</name>
</trkpt>
<trkpt lat="48.939512" lon="8.641962">
<ele>345.0</ele>
<speed>1.55</speed>
<course>167.4</course>
<desc>Speed 5.6 km/h Distance 3.00 km</desc>
<time>2010-10-23T17:10:28.53</time>
<name>1883</name>
</trkpt>
<trkpt lat="48.939497" lon="8.641967">
<ele>345.5</ele>
<speed>1.54</speed>
<course>164.0</course>
<desc>Speed 5.5 km/h Distance 3.00 km</desc>
<time>2010-10-23T17:10:29.40</time>
<name>1884</name>
</trkpt>
<trkpt lat="48.939485" lon="8.641972">
<ele>346.0</ele>
<speed>1.30</speed>
<course>161.2</course>
<desc>Speed 4.7 km/h Distance 3.00 km</desc>
<time>2010-10-23T17:10:30.40</time>
<name>1885</name>
</trkpt>
<trkpt lat="48.939478" lon="8.641975">
<ele>347.0</ele>
<speed>0.64</speed>
<course>164.5</course>
<desc>Speed 2.3 km/h Distance 3.00 km</desc>
<time>2010-10-23T17:10:31.40</time>
<name>1886</name>
</trkpt>
<trkpt lat="48.939467" lon="8.641980">
<ele>347.5</ele>
<speed>1.12</speed>
<course>168.8</course>
<desc>Speed 4.0 km/h Distance 3.00 km</desc>
<time>2010-10-23T17:10:32.40</time>
<name>1887</name>
</trkpt>
<trkpt lat="48.939455" lon="8.641983">
<ele>348.5</ele>
<speed>1.14</speed>
<course>161.8</course>
<desc>Speed 4.1 km/h Distance 3.00 km</desc>
<time>2010-10-23T17:10:33.40</time>
<name>1888</name>
</trkpt>
<trkpt lat="48.939445" lon="8.641988">
<ele>349.0</ele>
<speed>1.08</speed>
<course>158.5</course>
<desc>Speed 3.9 km/h Distance 3.00 km</desc>
<time>2010-10-23T17:10:34.40</time>
<name>1889</name>
</trkpt>
<trkpt lat="48.939437" lon="8.641993">
<ele>349.0</ele>
<speed>1.05</speed>
<course>154.6</course>
<desc>Speed 3.8 km/h Distance 3.00 km</desc>
<time>2010-10-23T17:10:35.39</time>
<name>1890</name>
</trkpt>
<trkpt lat="48.939432" lon="8.641997">
<ele>348.5</ele>
<speed>0.74</speed>
<course>161.9</course>
<desc>Speed 2.7 km/h Distance 3.01 km</desc>
<time>2010-10-23T17:10:36.39</time>
<name>1891</name>
</trkpt>
<trkpt lat="48.939418" lon="8.642003">
<ele>349.0</ele>
<speed>1.35</speed>
<course>171.0</course>
<desc>Speed 4.9 km/h Distance 3.01 km</desc>
<time>2010-10-23T17:10:37.39</time>
<name>1892</name>
</trkpt>
<trkpt lat="48.939405" lon="8.642007">
<ele>349.0</ele>
<speed>1.29</speed>
<course>162.2</course>
<desc>Speed 4.6 km/h Distance 3.01 km</desc>
<time>2010-10-23T17:10:38.39</time>
<name>1893</name>
</trkpt>
<trkpt lat="48.939392" lon="8.642013">
<ele>348.5</ele>
<speed>1.16</speed>
<course>172.9</course>
<desc>Speed 4.2 km/h Distance 3.01 km</desc>
<time>2010-10-23T17:10:39.39</time>
<name>1894</name>
</trkpt>
<trkpt lat="48.939375" lon="8.642017">
<ele>348.5</ele>
<speed>1.50</speed>
<course>176.2</course>
<desc>Speed 5.4 km/h Distance 3.01 km</desc>
<time>2010-10-23T17:10:40.39</time>
<name>1895</name>
</trkpt>
<trkpt lat="48.939360" lon="8.642018">
<ele>348.5</ele>
<speed>1.45</speed>
<course>163.7</course>
<desc>Speed 5.2 km/h Distance 3.01 km</desc>
<time>2010-10-23T17:10:41.55</time>
<name>1896</name>
</trkpt>
<trkpt lat="48.939345" lon="8.642025">
<ele>348.5</ele>
<speed>1.53</speed>
<course>171.9</course>
<desc>Speed 5.5 km/h Distance 3.01 km</desc>
<time>2010-10-23T17:10:42.38</time>
<name>1897</name>
</trkpt>
<trkpt lat="48.939330" lon="8.642028">
<ele>348.5</ele>
<speed>1.41</speed>
<course>172.3</course>
<desc>Speed 5.1 km/h Distance 3.02 km</desc>
<time>2010-10-23T17:10:43.38</time>
<name>1898</name>
</trkpt>
<trkpt lat="48.939313" lon="8.642032">
<ele>348.5</ele>
<speed>1.47</speed>
<course>170.8</course>
<desc>Speed 5.3 km/h Distance 3.02 km</desc>
<time>2010-10-23T17:10:44.38</time>
<name>1899</name>
</trkpt>
<trkpt lat="48.939293" lon="8.642037">
<ele>348.0</ele>
<speed>1.71</speed>
<course>170.8</course>
<desc>Speed 6.2 km/h Distance 3.02 km</desc>
<time>2010-10-23T17:10:45.38</time>
<name>1900</name>
</trkpt>
<trkpt lat="48.939273" lon="8.642042">
<ele>347.5</ele>
<speed>1.48</speed>
<course>167.4</course>
<desc>Speed 5.3 km/h Distance 3.02 km</desc>
<time>2010-10-23T17:10:46.38</time>
<name>1901</name>
</trkpt>
<trkpt lat="48.939263" lon="8.642045">
<ele>349.0</ele>
<speed>0.46</speed>
<course>170.7</course>
<desc>Speed 1.7 km/h Distance 3.02 km</desc>
<time>2010-10-23T17:10:47.38</time>
<name>1902</name>
</trkpt>
<trkpt lat="48.939223" lon="8.642055">
<ele>348.0</ele>
<speed>1.62</speed>
<course>173.5</course>
<desc>Speed 5.8 km/h Distance 3.03 km</desc>
<time>2010-10-23T17:10:49.38</time>
<name>1903</name>
</trkpt>
<trkpt lat="48.939205" lon="8.642058">
<ele>348.0</ele>
<speed>1.50</speed>
<course>168.8</course>
<desc>Speed 5.4 km/h Distance 3.03 km</desc>
<time>2010-10-23T17:10:50.38</time>
<name>1904</name>
</trkpt>
<trkpt lat="48.939188" lon="8.642063">
<ele>347.5</ele>
<speed>1.59</speed>
<course>170.5</course>
<desc>Speed 5.7 km/h Distance 3.03 km</desc>
<time>2010-10-23T17:10:51.38</time>
<name>1905</name>
</trkpt>
<trkpt lat="48.939168" lon="8.642068">
<ele>347.0</ele>
<speed>1.48</speed>
<course>165.1</course>
<desc>Speed 5.3 km/h Distance 3.03 km</desc>
<time>2010-10-23T17:10:52.38</time>
<name>1906</name>
</trkpt>
<trkpt lat="48.939152" lon="8.642075">
<ele>347.0</ele>
<speed>1.62</speed>
<course>165.1</course>
<desc>Speed 5.8 km/h Distance 3.04 km</desc>
<time>2010-10-23T17:10:53.38</time>
<name>1907</name>
</trkpt>
<trkpt lat="48.939135" lon="8.642082">
<ele>347.0</ele>
<speed>1.64</speed>
<course>165.1</course>
<desc>Speed 5.9 km/h Distance 3.04 km</desc>
<time>2010-10-23T17:10:54.38</time>
<name>1908</name>
</trkpt>
<trkpt lat="48.939118" lon="8.642088">
<ele>347.0</ele>
<speed>1.55</speed>
<course>165.8</course>
<desc>Speed 5.6 km/h Distance 3.04 km</desc>
<time>2010-10-23T17:10:55.38</time>
<name>1909</name>
</trkpt>
<trkpt lat="48.939097" lon="8.642097">
<ele>346.5</ele>
<speed>1.62</speed>
<course>163.2</course>
<desc>Speed 5.8 km/h Distance 3.04 km</desc>
<time>2010-10-23T17:10:56.38</time>
<name>1910</name>
</trkpt>
<trkpt lat="48.939075" lon="8.642107">
<ele>346.0</ele>
<speed>1.63</speed>
<course>165.8</course>
<desc>Speed 5.9 km/h Distance 3.05 km</desc>
<time>2010-10-23T17:10:57.38</time>
<name>1911</name>
</trkpt>
<trkpt lat="48.939053" lon="8.642115">
<ele>345.5</ele>
<speed>1.59</speed>
<course>161.8</course>
<desc>Speed 5.7 km/h Distance 3.05 km</desc>
<time>2010-10-23T17:10:58.38</time>
<name>1912</name>
</trkpt>
<trkpt lat="48.939033" lon="8.642125">
<ele>345.0</ele>
<speed>1.50</speed>
<course>176.2</course>
<desc>Speed 5.4 km/h Distance 3.05 km</desc>
<time>2010-10-23T17:10:59.38</time>
<name>1913</name>
</trkpt>
<trkpt lat="48.939018" lon="8.642127">
<ele>344.5</ele>
<speed>1.50</speed>
<course>169.8</course>
<desc>Speed 5.4 km/h Distance 3.05 km</desc>
<time>2010-10-23T17:11:00.38</time>
<name>1914</name>
</trkpt>
<trkpt lat="48.939000" lon="8.642132">
<ele>344.5</ele>
<speed>1.65</speed>
<course>169.8</course>
<desc>Speed 5.9 km/h Distance 3.05 km</desc>
<time>2010-10-23T17:11:01.38</time>
<name>1915</name>
</trkpt>
<trkpt lat="48.938982" lon="8.642137">
<ele>344.0</ele>
<speed>1.60</speed>
<course>166.7</course>
<desc>Speed 5.8 km/h Distance 3.06 km</desc>
<time>2010-10-23T17:11:02.38</time>
<name>1916</name>
</trkpt>
<trkpt lat="48.938963" lon="8.642143">
<ele>343.5</ele>
<speed>1.69</speed>
<course>170.8</course>
<desc>Speed 6.1 km/h Distance 3.06 km</desc>
<time>2010-10-23T17:11:03.38</time>
<name>1917</name>
</trkpt>
<trkpt lat="48.938943" lon="8.642148">
<ele>343.5</ele>
<speed>1.70</speed>
<course>173.4</course>
<desc>Speed 6.1 km/h Distance 3.06 km</desc>
<time>2010-10-23T17:11:04.38</time>
<name>1918</name>
</trkpt>
<trkpt lat="48.938923" lon="8.642152">
<ele>343.5</ele>
<speed>1.75</speed>
<course>173.4</course>
<desc>Speed 6.3 km/h Distance 3.06 km</desc>
<time>2010-10-23T17:11:05.38</time>
<name>1919</name>
</trkpt>
<trkpt lat="48.938903" lon="8.642155">
<ele>343.5</ele>
<speed>1.75</speed>
<course>173.5</course>
<desc>Speed 6.3 km/h Distance 3.07 km</desc>
<time>2010-10-23T17:11:06.38</time>
<name>1920</name>
</trkpt>
<trkpt lat="48.938885" lon="8.642158">
<ele>343.5</ele>
<speed>1.72</speed>
<course>176.3</course>
<desc>Speed 6.2 km/h Distance 3.07 km</desc>
<time>2010-10-23T17:11:07.38</time>
<name>1921</name>
</trkpt>
<trkpt lat="48.938867" lon="8.642160">
<ele>343.5</ele>
<speed>1.77</speed>
<course>178.1</course>
<desc>Speed 6.4 km/h Distance 3.07 km</desc>
<time>2010-10-23T17:11:08.38</time>
<name>1922</name>
</trkpt>
<trkpt lat="48.938852" lon="8.642160">
<ele>343.5</ele>
<speed>1.59</speed>
<course>177.2</course>
<desc>Speed 5.7 km/h Distance 3.07 km</desc>
<time>2010-10-23T17:11:09.38</time>
<name>1923</name>
</trkpt>
<trkpt lat="48.938835" lon="8.642160">
<ele>344.0</ele>
<speed>1.63</speed>
<course>182.8</course>
<desc>Speed 5.9 km/h Distance 3.07 km</desc>
<time>2010-10-23T17:11:10.38</time>
<name>1924</name>
</trkpt>
<trkpt lat="48.938818" lon="8.642158">
<ele>344.0</ele>
<speed>1.70</speed>
<course>183.7</course>
<desc>Speed 6.1 km/h Distance 3.07 km</desc>
<time>2010-10-23T17:11:11.38</time>
<name>1925</name>
</trkpt>
<trkpt lat="48.938800" lon="8.642157">
<ele>344.0</ele>
<speed>1.70</speed>
<course>187.7</course>
<desc>Speed 6.1 km/h Distance 3.08 km</desc>
<time>2010-10-23T17:11:12.38</time>
<name>1926</name>
</trkpt>
<trkpt lat="48.938783" lon="8.642153">
<ele>344.0</ele>
<speed>1.60</speed>
<course>187.7</course>
<desc>Speed 5.8 km/h Distance 3.08 km</desc>
<time>2010-10-23T17:11:13.38</time>
<name>1927</name>
</trkpt>
<trkpt lat="48.938767" lon="8.642150">
<ele>344.0</ele>
<speed>1.66</speed>
<course>186.5</course>
<desc>Speed 6.0 km/h Distance 3.08 km</desc>
<time>2010-10-23T17:11:14.38</time>
<name>1928</name>
</trkpt>
<trkpt lat="48.938748" lon="8.642147">
<ele>344.0</ele>
<speed>1.78</speed>
<course>196.6</course>
<desc>Speed 6.4 km/h Distance 3.08 km</desc>
<time>2010-10-23T17:11:15.38</time>
<name>1929</name>
</trkpt>
<trkpt lat="48.938733" lon="8.642140">
<ele>344.0</ele>
<speed>1.62</speed>
<course>191.2</course>
<desc>Speed 5.8 km/h Distance 3.08 km</desc>
<time>2010-10-23T17:11:16.38</time>
<name>1930</name>
</trkpt>
<trkpt lat="48.938717" lon="8.642135">
<ele>344.5</ele>
<speed>1.62</speed>
<course>190.2</course>
<desc>Speed 5.8 km/h Distance 3.09 km</desc>
<time>2010-10-23T17:11:17.38</time>
<name>1931</name>
</trkpt>
<trkpt lat="48.938698" lon="8.642130">
<ele>345.5</ele>
<speed>1.66</speed>
<course>190.8</course>
<desc>Speed 6.0 km/h Distance 3.09 km</desc>
<time>2010-10-23T17:11:18.38</time>
<name>1932</name>
</trkpt>
<trkpt lat="48.938682" lon="8.642125">
<ele>345.5</ele>
<speed>1.66</speed>
<course>196.3</course>
<desc>Speed 6.0 km/h Distance 3.09 km</desc>
<time>2010-10-23T17:11:19.38</time>
<name>1933</name>
</trkpt>
<trkpt lat="48.938667" lon="8.642118">
<ele>346.0</ele>
<speed>1.70</speed>
<course>192.2</course>
<desc>Speed 6.1 km/h Distance 3.09 km</desc>
<time>2010-10-23T17:11:20.38</time>
<name>1934</name>
</trkpt>
<trkpt lat="48.938652" lon="8.642113">
<ele>346.0</ele>
<speed>1.59</speed>
<course>191.2</course>
<desc>Speed 5.7 km/h Distance 3.09 km</desc>
<time>2010-10-23T17:11:21.38</time>
<name>1935</name>
</trkpt>
<trkpt lat="48.938635" lon="8.642108">
<ele>346.5</ele>
<speed>1.67</speed>
<course>195.1</course>
<desc>Speed 6.0 km/h Distance 3.10 km</desc>
<time>2010-10-23T17:11:22.38</time>
<name>1936</name>
</trkpt>
<trkpt lat="48.938618" lon="8.642102">
<ele>347.0</ele>
<speed>1.66</speed>
<course>200.1</course>
<desc>Speed 6.0 km/h Distance 3.10 km</desc>
<time>2010-10-23T17:11:23.38</time>
<name>1937</name>
</trkpt>
<trkpt lat="48.938603" lon="8.642093">
<ele>347.0</ele>
<speed>1.60</speed>
<course>192.2</course>
<desc>Speed 5.8 km/h Distance 3.10 km</desc>
<time>2010-10-23T17:11:24.38</time>
<name>1938</name>
</trkpt>
<trkpt lat="48.938588" lon="8.642088">
<ele>347.5</ele>
<speed>1.62</speed>
<course>196.0</course>
<desc>Speed 5.8 km/h Distance 3.10 km</desc>
<time>2010-10-23T17:11:25.38</time>
<name>1939</name>
</trkpt>
<trkpt lat="48.938577" lon="8.642083">
<ele>347.5</ele>
<speed>1.35</speed>
<course>198.1</course>
<desc>Speed 4.9 km/h Distance 3.10 km</desc>
<time>2010-10-23T17:11:26.38</time>
<name>1940</name>
</trkpt>
<trkpt lat="48.938563" lon="8.642077">
<ele>347.5</ele>
<speed>1.49</speed>
<course>193.5</course>
<desc>Speed 5.4 km/h Distance 3.10 km</desc>
<time>2010-10-23T17:11:27.38</time>
<name>1941</name>
</trkpt>
<trkpt lat="48.938550" lon="8.642072">
<ele>347.5</ele>
<speed>1.45</speed>
<course>189.0</course>
<desc>Speed 5.2 km/h Distance 3.11 km</desc>
<time>2010-10-23T17:11:28.38</time>
<name>1942</name>
</trkpt>
<trkpt lat="48.938537" lon="8.642068">
<ele>347.5</ele>
<speed>1.47</speed>
<course>189.0</course>
<desc>Speed 5.3 km/h Distance 3.11 km</desc>
<time>2010-10-23T17:11:29.38</time>
<name>1943</name>
</trkpt>
<trkpt lat="48.938523" lon="8.642065">
<ele>347.5</ele>
<speed>1.50</speed>
<course>205.2</course>
<desc>Speed 5.4 km/h Distance 3.11 km</desc>
<time>2010-10-23T17:11:30.38</time>
<name>1944</name>
</trkpt>
<trkpt lat="48.938512" lon="8.642057">
<ele>347.0</ele>
<speed>1.34</speed>
<course>200.6</course>
<desc>Speed 4.8 km/h Distance 3.11 km</desc>
<time>2010-10-23T17:11:31.38</time>
<name>1945</name>
</trkpt>
<trkpt lat="48.938500" lon="8.642050">
<ele>346.5</ele>
<speed>1.32</speed>
<course>224.5</course>
<desc>Speed 4.8 km/h Distance 3.11 km</desc>
<time>2010-10-23T17:11:32.38</time>
<name>1946</name>
</trkpt>
<trkpt lat="48.938493" lon="8.642040">
<ele>346.5</ele>
<speed>1.16</speed>
<course>213.2</course>
<desc>Speed 4.2 km/h Distance 3.11 km</desc>
<time>2010-10-23T17:11:33.38</time>
<name>1947</name>
</trkpt>
<trkpt lat="48.938483" lon="8.642030">
<ele>346.5</ele>
<speed>1.24</speed>
<course>209.4</course>
<desc>Speed 4.5 km/h Distance 3.11 km</desc>
<time>2010-10-23T17:11:34.38</time>
<name>1948</name>
</trkpt>
<trkpt lat="48.938472" lon="8.642020">
<ele>346.0</ele>
<speed>1.35</speed>
<course>206.0</course>
<desc>Speed 4.9 km/h Distance 3.11 km</desc>
<time>2010-10-23T17:11:35.38</time>
<name>1949</name>
</trkpt>
<trkpt lat="48.938458" lon="8.642010">
<ele>346.0</ele>
<speed>1.50</speed>
<course>198.1</course>
<desc>Speed 5.4 km/h Distance 3.12 km</desc>
<time>2010-10-23T17:11:36.38</time>
<name>1950</name>
</trkpt>
<trkpt lat="48.938445" lon="8.642003">
<ele>346.0</ele>
<speed>1.50</speed>
<course>203.7</course>
<desc>Speed 5.4 km/h Distance 3.12 km</desc>
<time>2010-10-23T17:11:37.38</time>
<name>1951</name>
</trkpt>
<trkpt lat="48.938430" lon="8.641993">
<ele>346.0</ele>
<speed>1.62</speed>
<course>198.1</course>
<desc>Speed 5.8 km/h Distance 3.12 km</desc>
<time>2010-10-23T17:11:38.38</time>
<name>1952</name>
</trkpt>
<trkpt lat="48.938413" lon="8.641985">
<ele>346.0</ele>
<speed>1.71</speed>
<course>196.6</course>
<desc>Speed 6.2 km/h Distance 3.12 km</desc>
<time>2010-10-23T17:11:39.38</time>
<name>1953</name>
</trkpt>
<trkpt lat="48.938395" lon="8.641977">
<ele>346.0</ele>
<speed>1.64</speed>
<course>198.1</course>
<desc>Speed 5.9 km/h Distance 3.12 km</desc>
<time>2010-10-23T17:11:40.38</time>
<name>1954</name>
</trkpt>
<trkpt lat="48.938378" lon="8.641968">
<ele>346.0</ele>
<speed>1.67</speed>
<course>198.1</course>
<desc>Speed 6.0 km/h Distance 3.13 km</desc>
<time>2010-10-23T17:11:41.38</time>
<name>1955</name>
</trkpt>
<trkpt lat="48.938362" lon="8.641960">
<ele>346.5</ele>
<speed>1.78</speed>
<course>207.0</course>
<desc>Speed 6.4 km/h Distance 3.13 km</desc>
<time>2010-10-23T17:11:42.38</time>
<name>1956</name>
</trkpt>
<trkpt lat="48.938347" lon="8.641948">
<ele>346.5</ele>
<speed>1.71</speed>
<course>201.5</course>
<desc>Speed 6.2 km/h Distance 3.13 km</desc>
<time>2010-10-23T17:11:43.38</time>
<name>1957</name>
</trkpt>
<trkpt lat="48.938330" lon="8.641938">
<ele>346.5</ele>
<speed>1.71</speed>
<course>203.7</course>
<desc>Speed 6.2 km/h Distance 3.13 km</desc>
<time>2010-10-23T17:11:44.38</time>
<name>1958</name>
</trkpt>
<trkpt lat="48.938315" lon="8.641928">
<ele>346.5</ele>
<speed>1.76</speed>
<course>204.6</course>
<desc>Speed 6.3 km/h Distance 3.13 km</desc>
<time>2010-10-23T17:11:45.38</time>
<name>1959</name>
</trkpt>
<trkpt lat="48.938298" lon="8.641917">
<ele>346.5</ele>
<speed>1.74</speed>
<course>203.7</course>
<desc>Speed 6.3 km/h Distance 3.14 km</desc>
<time>2010-10-23T17:11:46.38</time>
<name>1960</name>
</trkpt>
<trkpt lat="48.938283" lon="8.641907">
<ele>346.5</ele>
<speed>1.72</speed>
<course>201.5</course>
<desc>Speed 6.2 km/h Distance 3.14 km</desc>
<time>2010-10-23T17:11:47.38</time>
<name>1961</name>
</trkpt>
<trkpt lat="48.938267" lon="8.641897">
<ele>346.5</ele>
<speed>1.70</speed>
<course>207.2</course>
<desc>Speed 6.1 km/h Distance 3.14 km</desc>
<time>2010-10-23T17:11:48.38</time>
<name>1962</name>
</trkpt>
<trkpt lat="48.938252" lon="8.641885">
<ele>346.5</ele>
<speed>1.72</speed>
<course>207.0</course>
<desc>Speed 6.2 km/h Distance 3.14 km</desc>
<time>2010-10-23T17:11:49.38</time>
<name>1963</name>
</trkpt>
<trkpt lat="48.938237" lon="8.641873">
<ele>346.5</ele>
<speed>1.70</speed>
<course>203.7</course>
<desc>Speed 6.1 km/h Distance 3.14 km</desc>
<time>2010-10-23T17:11:50.38</time>
<name>1964</name>
</trkpt>
<trkpt lat="48.938222" lon="8.641863">
<ele>347.0</ele>
<speed>1.77</speed>
<course>198.3</course>
<desc>Speed 6.4 km/h Distance 3.15 km</desc>
<time>2010-10-23T17:11:51.38</time>
<name>1965</name>
</trkpt>
<trkpt lat="48.938205" lon="8.641855">
<ele>347.0</ele>
<speed>1.75</speed>
<course>203.7</course>
<desc>Speed 6.3 km/h Distance 3.15 km</desc>
<time>2010-10-23T17:11:52.38</time>
<name>1966</name>
</trkpt>
<trkpt lat="48.938190" lon="8.641845">
<ele>347.0</ele>
<speed>1.70</speed>
<course>201.5</course>
<desc>Speed 6.1 km/h Distance 3.15 km</desc>
<time>2010-10-23T17:11:53.38</time>
<name>1967</name>
</trkpt>
<trkpt lat="48.938173" lon="8.641835">
<ele>347.0</ele>
<speed>1.76</speed>
<course>203.3</course>
<desc>Speed 6.3 km/h Distance 3.15 km</desc>
<time>2010-10-23T17:11:54.38</time>
<name>1968</name>
</trkpt>
<trkpt lat="48.938158" lon="8.641825">
<ele>347.5</ele>
<speed>1.72</speed>
<course>203.5</course>
<desc>Speed 6.2 km/h Distance 3.15 km</desc>
<time>2010-10-23T17:11:55.38</time>
<name>1969</name>
</trkpt>
<trkpt lat="48.938143" lon="8.641815">
<ele>347.5</ele>
<speed>1.74</speed>
<course>206.0</course>
<desc>Speed 6.3 km/h Distance 3.15 km</desc>
<time>2010-10-23T17:11:56.38</time>
<name>1970</name>
</trkpt>
<trkpt lat="48.938130" lon="8.641805">
<ele>347.5</ele>
<speed>1.71</speed>
<course>203.5</course>
<desc>Speed 6.2 km/h Distance 3.16 km</desc>
<time>2010-10-23T17:11:57.38</time>
<name>1971</name>
</trkpt>
<trkpt lat="48.938115" lon="8.641795">
<ele>347.5</ele>
<speed>1.73</speed>
<course>196.6</course>
<desc>Speed 6.2 km/h Distance 3.16 km</desc>
<time>2010-10-23T17:11:58.38</time>
<name>1972</name>
</trkpt>
<trkpt lat="48.938100" lon="8.641788">
<ele>347.5</ele>
<speed>1.67</speed>
<course>199.9</course>
<desc>Speed 6.0 km/h Distance 3.16 km</desc>
<time>2010-10-23T17:11:59.38</time>
<name>1973</name>
</trkpt>
<trkpt lat="48.938085" lon="8.641780">
<ele>347.5</ele>
<speed>1.75</speed>
<course>198.1</course>
<desc>Speed 6.3 km/h Distance 3.16 km</desc>
<time>2010-10-23T17:12:00.38</time>
<name>1974</name>
</trkpt>
<trkpt lat="48.938068" lon="8.641772">
<ele>348.0</ele>
<speed>1.76</speed>
<course>194.6</course>
<desc>Speed 6.3 km/h Distance 3.16 km</desc>
<time>2010-10-23T17:12:01.38</time>
<name>1975</name>
</trkpt>
<trkpt lat="48.938052" lon="8.641765">
<ele>348.0</ele>
<speed>1.77</speed>
<course>194.9</course>
<desc>Speed 6.4 km/h Distance 3.17 km</desc>
<time>2010-10-23T17:12:02.38</time>
<name>1976</name>
</trkpt>
<trkpt lat="48.938035" lon="8.641758">
<ele>348.0</ele>
<speed>1.71</speed>
<course>194.9</course>
<desc>Speed 6.2 km/h Distance 3.17 km</desc>
<time>2010-10-23T17:12:03.38</time>
<name>1977</name>
</trkpt>
<trkpt lat="48.938018" lon="8.641752">
<ele>348.0</ele>
<speed>1.76</speed>
<course>191.2</course>
<desc>Speed 6.3 km/h Distance 3.17 km</desc>
<time>2010-10-23T17:12:04.38</time>
<name>1978</name>
</trkpt>
<trkpt lat="48.938002" lon="8.641747">
<ele>348.0</ele>
<speed>1.72</speed>
<course>196.6</course>
<desc>Speed 6.2 km/h Distance 3.17 km</desc>
<time>2010-10-23T17:12:05.38</time>
<name>1979</name>
</trkpt>
<trkpt lat="48.937987" lon="8.641740">
<ele>348.0</ele>
<speed>1.72</speed>
<course>191.2</course>
<desc>Speed 6.2 km/h Distance 3.17 km</desc>
<time>2010-10-23T17:12:06.38</time>
<name>1980</name>
</trkpt>
<trkpt lat="48.937970" lon="8.641735">
<ele>348.0</ele>
<speed>1.75</speed>
<course>191.2</course>
<desc>Speed 6.3 km/h Distance 3.17 km</desc>
<time>2010-10-23T17:12:07.38</time>
<name>1981</name>
</trkpt>
<trkpt lat="48.937953" lon="8.641730">
<ele>348.0</ele>
<speed>1.71</speed>
<course>192.6</course>
<desc>Speed 6.2 km/h Distance 3.18 km</desc>
<time>2010-10-23T17:12:08.38</time>
<name>1982</name>
</trkpt>
<trkpt lat="48.937938" lon="8.641725">
<ele>348.5</ele>
<speed>1.73</speed>
<course>187.7</course>
<desc>Speed 6.2 km/h Distance 3.18 km</desc>
<time>2010-10-23T17:12:09.38</time>
<name>1983</name>
</trkpt>
<trkpt lat="48.937922" lon="8.641722">
<ele>348.5</ele>
<speed>1.71</speed>
<course>188.8</course>
<desc>Speed 6.2 km/h Distance 3.18 km</desc>
<time>2010-10-23T17:12:10.38</time>
<name>1984</name>
</trkpt>
<trkpt lat="48.937907" lon="8.641718">
<ele>348.5</ele>
<speed>1.72</speed>
<course>188.1</course>
<desc>Speed 6.2 km/h Distance 3.18 km</desc>
<time>2010-10-23T17:12:11.38</time>
<name>1985</name>
</trkpt>
<trkpt lat="48.937892" lon="8.641715">
<ele>348.5</ele>
<speed>1.62</speed>
<course>183.8</course>
<desc>Speed 5.8 km/h Distance 3.18 km</desc>
<time>2010-10-23T17:12:12.38</time>
<name>1986</name>
</trkpt>
<trkpt lat="48.937877" lon="8.641713">
<ele>348.5</ele>
<speed>1.62</speed>
<course>177.2</course>
<desc>Speed 5.8 km/h Distance 3.19 km</desc>
<time>2010-10-23T17:12:13.38</time>
<name>1987</name>
</trkpt>
<trkpt lat="48.937860" lon="8.641715">
<ele>348.5</ele>
<speed>1.84</speed>
<course>176.2</course>
<desc>Speed 6.6 km/h Distance 3.19 km</desc>
<time>2010-10-23T17:12:14.38</time>
<name>1988</name>
</trkpt>
<trkpt lat="48.937845" lon="8.641717">
<ele>348.5</ele>
<speed>1.66</speed>
<course>177.2</course>
<desc>Speed 6.0 km/h Distance 3.19 km</desc>
<time>2010-10-23T17:12:15.38</time>
<name>1989</name>
</trkpt>
<trkpt lat="48.937828" lon="8.641718">
<ele>348.5</ele>
<speed>1.83</speed>
<course>183.8</course>
<desc>Speed 6.6 km/h Distance 3.19 km</desc>
<time>2010-10-23T17:12:16.38</time>
<name>1990</name>
</trkpt>
<trkpt lat="48.937813" lon="8.641717">
<ele>348.5</ele>
<speed>1.58</speed>
<course>176.2</course>
<desc>Speed 5.7 km/h Distance 3.19 km</desc>
<time>2010-10-23T17:12:17.38</time>
<name>1991</name>
</trkpt>
<trkpt lat="48.937798" lon="8.641718">
<ele>349.0</ele>
<speed>1.57</speed>
<course>178.8</course>
<desc>Speed 5.7 km/h Distance 3.19 km</desc>
<time>2010-10-23T17:12:18.38</time>
<name>1992</name>
</trkpt>
<trkpt lat="48.937785" lon="8.641718">
<ele>349.5</ele>
<speed>1.39</speed>
<course>172.5</course>
<desc>Speed 5.0 km/h Distance 3.20 km</desc>
<time>2010-10-23T17:12:19.38</time>
<name>1993</name>
</trkpt>
<trkpt lat="48.937770" lon="8.641722">
<ele>349.5</ele>
<speed>1.50</speed>
<course>178.8</course>
<desc>Speed 5.4 km/h Distance 3.20 km</desc>
<time>2010-10-23T17:12:20.38</time>
<name>1994</name>
</trkpt>
<trkpt lat="48.937757" lon="8.641722">
<ele>349.5</ele>
<speed>1.49</speed>
<course>178.8</course>
<desc>Speed 5.4 km/h Distance 3.20 km</desc>
<time>2010-10-23T17:12:21.38</time>
<name>1995</name>
</trkpt>
<trkpt lat="48.937743" lon="8.641722">
<ele>349.5</ele>
<speed>1.42</speed>
<course>171.0</course>
<desc>Speed 5.1 km/h Distance 3.20 km</desc>
<time>2010-10-23T17:12:22.38</time>
<name>1996</name>
</trkpt>
<trkpt lat="48.937730" lon="8.641725">
<ele>349.5</ele>
<speed>1.48</speed>
<course>167.4</course>
<desc>Speed 5.3 km/h Distance 3.20 km</desc>
<time>2010-10-23T17:12:23.38</time>
<name>1997</name>
</trkpt>
<trkpt lat="48.937715" lon="8.641730">
<ele>349.5</ele>
<speed>1.62</speed>
<course>167.8</course>
<desc>Speed 5.8 km/h Distance 3.20 km</desc>
<time>2010-10-23T17:12:24.38</time>
<name>1998</name>
</trkpt>
<trkpt lat="48.937700" lon="8.641735">
<ele>349.5</ele>
<speed>1.59</speed>
<course>172.5</course>
<desc>Speed 5.7 km/h Distance 3.21 km</desc>
<time>2010-10-23T17:12:25.38</time>
<name>1999</name>
</trkpt>
<trkpt lat="48.937685" lon="8.641738">
<ele>350.0</ele>
<speed>1.62</speed>
<course>168.3</course>
<desc>Speed 5.8 km/h Distance 3.21 km</desc>
<time>2010-10-23T17:12:26.38</time>
<name>2000</name>
</trkpt>
<trkpt lat="48.937670" lon="8.641743">
<ele>350.0</ele>
<speed>1.64</speed>
<course>168.8</course>
<desc>Speed 5.9 km/h Distance 3.21 km</desc>
<time>2010-10-23T17:12:27.38</time>
<name>2001</name>
</trkpt>
<trkpt lat="48.937653" lon="8.641748">
<ele>350.0</ele>
<speed>1.60</speed>
<course>171.2</course>
<desc>Speed 5.8 km/h Distance 3.21 km</desc>
<time>2010-10-23T17:12:28.38</time>
<name>2002</name>
</trkpt>
<trkpt lat="48.937638" lon="8.641752">
<ele>350.0</ele>
<speed>1.58</speed>
<course>165.1</course>
<desc>Speed 5.7 km/h Distance 3.21 km</desc>
<time>2010-10-23T17:12:29.38</time>
<name>2003</name>
</trkpt>
<trkpt lat="48.937622" lon="8.641758">
<ele>350.0</ele>
<speed>1.80</speed>
<course>168.8</course>
<desc>Speed 6.5 km/h Distance 3.21 km</desc>
<time>2010-10-23T17:12:30.38</time>
<name>2004</name>
</trkpt>
<trkpt lat="48.937605" lon="8.641763">
<ele>350.0</ele>
<speed>1.67</speed>
<course>165.1</course>
<desc>Speed 6.0 km/h Distance 3.22 km</desc>
<time>2010-10-23T17:12:31.38</time>
<name>2005</name>
</trkpt>
<trkpt lat="48.937588" lon="8.641770">
<ele>350.0</ele>
<speed>1.78</speed>
<course>166.7</course>
<desc>Speed 6.4 km/h Distance 3.22 km</desc>
<time>2010-10-23T17:12:32.38</time>
<name>2006</name>
</trkpt>
<trkpt lat="48.937570" lon="8.641777">
<ele>349.0</ele>
<speed>1.94</speed>
<course>156.3</course>
<desc>Speed 7.0 km/h Distance 3.22 km</desc>
<time>2010-10-23T17:12:33.38</time>
<name>2007</name>
</trkpt>
<trkpt lat="48.937555" lon="8.641787">
<ele>349.0</ele>
<speed>1.66</speed>
<course>158.5</course>
<desc>Speed 6.0 km/h Distance 3.22 km</desc>
<time>2010-10-23T17:12:34.38</time>
<name>2008</name>
</trkpt>
<trkpt lat="48.937538" lon="8.641797">
<ele>349.0</ele>
<speed>1.57</speed>
<course>168.3</course>
<desc>Speed 5.7 km/h Distance 3.22 km</desc>
<time>2010-10-23T17:12:35.38</time>
<name>2009</name>
</trkpt>
<trkpt lat="48.937523" lon="8.641802">
<ele>349.0</ele>
<speed>1.57</speed>
<course>172.5</course>
<desc>Speed 5.7 km/h Distance 3.23 km</desc>
<time>2010-10-23T17:12:36.38</time>
<name>2010</name>
</trkpt>
<trkpt lat="48.937508" lon="8.641805">
<ele>349.5</ele>
<speed>1.57</speed>
<course>174.7</course>
<desc>Speed 5.7 km/h Distance 3.23 km</desc>
<time>2010-10-23T17:12:37.38</time>
<name>2011</name>
</trkpt>
<trkpt lat="48.937495" lon="8.641807">
<ele>349.0</ele>
<speed>1.46</speed>
<course>185.3</course>
<desc>Speed 5.3 km/h Distance 3.23 km</desc>
<time>2010-10-23T17:12:38.38</time>
<name>2012</name>
</trkpt>
<trkpt lat="48.937482" lon="8.641805">
<ele>349.0</ele>
<speed>1.35</speed>
<course>178.8</course>
<desc>Speed 4.9 km/h Distance 3.23 km</desc>
<time>2010-10-23T17:12:39.38</time>
<name>2013</name>
</trkpt>
<trkpt lat="48.937468" lon="8.641805">
<ele>349.5</ele>
<speed>1.50</speed>
<course>176.2</course>
<desc>Speed 5.4 km/h Distance 3.23 km</desc>
<time>2010-10-23T17:12:40.38</time>
<name>2014</name>
</trkpt>
<trkpt lat="48.937453" lon="8.641807">
<ele>349.5</ele>
<speed>1.62</speed>
<course>174.7</course>
<desc>Speed 5.8 km/h Distance 3.23 km</desc>
<time>2010-10-23T17:12:41.38</time>
<name>2015</name>
</trkpt>
<trkpt lat="48.937440" lon="8.641808">
<ele>349.5</ele>
<speed>1.52</speed>
<course>176.2</course>
<desc>Speed 5.5 km/h Distance 3.23 km</desc>
<time>2010-10-23T17:12:42.38</time>
<name>2016</name>
</trkpt>
<trkpt lat="48.937425" lon="8.641810">
<ele>349.5</ele>
<speed>1.62</speed>
<course>183.9</course>
<desc>Speed 5.8 km/h Distance 3.24 km</desc>
<time>2010-10-23T17:12:43.38</time>
<name>2017</name>
</trkpt>
<trkpt lat="48.937412" lon="8.641808">
<ele>349.5</ele>
<speed>1.60</speed>
<course>176.2</course>
<desc>Speed 5.8 km/h Distance 3.24 km</desc>
<time>2010-10-23T17:12:44.38</time>
<name>2018</name>
</trkpt>
<trkpt lat="48.937397" lon="8.641810">
<ele>349.5</ele>
<speed>1.55</speed>
<course>176.1</course>
<desc>Speed 5.6 km/h Distance 3.24 km</desc>
<time>2010-10-23T17:12:45.38</time>
<name>2019</name>
</trkpt>
<trkpt lat="48.937383" lon="8.641812">
<ele>350.0</ele>
<speed>1.53</speed>
<course>172.3</course>
<desc>Speed 5.5 km/h Distance 3.24 km</desc>
<time>2010-10-23T17:12:46.38</time>
<name>2020</name>
</trkpt>
<trkpt lat="48.937367" lon="8.641815">
<ele>350.5</ele>
<speed>1.75</speed>
<course>166.5</course>
<desc>Speed 6.3 km/h Distance 3.24 km</desc>
<time>2010-10-23T17:12:47.38</time>
<name>2021</name>
</trkpt>
<trkpt lat="48.937353" lon="8.641820">
<ele>351.0</ele>
<speed>1.63</speed>
<course>161.9</course>
<desc>Speed 5.9 km/h Distance 3.24 km</desc>
<time>2010-10-23T17:12:48.38</time>
<name>2022</name>
</trkpt>
<trkpt lat="48.937340" lon="8.641827">
<ele>351.0</ele>
<speed>1.53</speed>
<course>166.5</course>
<desc>Speed 5.5 km/h Distance 3.25 km</desc>
<time>2010-10-23T17:12:49.38</time>
<name>2023</name>
</trkpt>
<trkpt lat="48.937327" lon="8.641832">
<ele>351.0</ele>
<speed>1.60</speed>
<course>161.9</course>
<desc>Speed 5.8 km/h Distance 3.25 km</desc>
<time>2010-10-23T17:12:50.38</time>
<name>2024</name>
</trkpt>
<trkpt lat="48.937313" lon="8.641838">
<ele>351.0</ele>
<speed>1.64</speed>
<course>161.9</course>
<desc>Speed 5.9 km/h Distance 3.25 km</desc>
<time>2010-10-23T17:12:51.38</time>
<name>2025</name>
</trkpt>
<trkpt lat="48.937300" lon="8.641845">
<ele>351.5</ele>
<speed>1.62</speed>
<course>164.0</course>
<desc>Speed 5.8 km/h Distance 3.25 km</desc>
<time>2010-10-23T17:12:52.38</time>
<name>2026</name>
</trkpt>
<trkpt lat="48.937285" lon="8.641852">
<ele>351.5</ele>
<speed>1.64</speed>
<course>157.7</course>
<desc>Speed 5.9 km/h Distance 3.25 km</desc>
<time>2010-10-23T17:12:53.38</time>
<name>2027</name>
</trkpt>
<trkpt lat="48.937272" lon="8.641860">
<ele>352.0</ele>
<speed>1.55</speed>
<course>156.3</course>
<desc>Speed 5.6 km/h Distance 3.25 km</desc>
<time>2010-10-23T17:12:54.38</time>
<name>2028</name>
</trkpt>
<trkpt lat="48.937257" lon="8.641870">
<ele>352.0</ele>
<speed>1.72</speed>
<course>157.7</course>
<desc>Speed 6.2 km/h Distance 3.26 km</desc>
<time>2010-10-23T17:12:55.38</time>
<name>2029</name>
</trkpt>
<trkpt lat="48.937243" lon="8.641878">
<ele>352.0</ele>
<speed>1.71</speed>
<course>159.9</course>
<desc>Speed 6.2 km/h Distance 3.26 km</desc>
<time>2010-10-23T17:12:56.38</time>
<name>2030</name>
</trkpt>
<trkpt lat="48.937228" lon="8.641887">
<ele>352.5</ele>
<speed>1.62</speed>
<course>157.9</course>
<desc>Speed 5.8 km/h Distance 3.26 km</desc>
<time>2010-10-23T17:12:57.38</time>
<name>2031</name>
</trkpt>
<trkpt lat="48.937215" lon="8.641895">
<ele>352.5</ele>
<speed>1.66</speed>
<course>159.9</course>
<desc>Speed 6.0 km/h Distance 3.26 km</desc>
<time>2010-10-23T17:12:58.38</time>
<name>2032</name>
</trkpt>
<trkpt lat="48.937200" lon="8.641903">
<ele>353.0</ele>
<speed>1.71</speed>
<course>161.9</course>
<desc>Speed 6.2 km/h Distance 3.26 km</desc>
<time>2010-10-23T17:12:59.38</time>
<name>2033</name>
</trkpt>
<trkpt lat="48.937187" lon="8.641910">
<ele>353.5</ele>
<speed>1.44</speed>
<course>168.3</course>
<desc>Speed 5.2 km/h Distance 3.26 km</desc>
<time>2010-10-23T17:13:00.38</time>
<name>2034</name>
</trkpt>
<trkpt lat="48.937172" lon="8.641915">
<ele>353.5</ele>
<speed>1.80</speed>
<course>172.1</course>
<desc>Speed 6.5 km/h Distance 3.27 km</desc>
<time>2010-10-23T17:13:01.38</time>
<name>2035</name>
</trkpt>
<trkpt lat="48.937140" lon="8.641922">
<ele>353.0</ele>
<speed>1.37</speed>
<course>166.5</course>
<desc>Speed 4.9 km/h Distance 3.27 km</desc>
<time>2010-10-23T17:13:05.00</time>
<name>2036</name>
</trkpt>
<trkpt lat="48.937127" lon="8.641927">
<ele>353.0</ele>
<speed>1.52</speed>
<course>166.5</course>
<desc>Speed 5.5 km/h Distance 3.27 km</desc>
<time>2010-10-23T17:13:06.34</time>
<name>2037</name>
</trkpt>
<trkpt lat="48.937113" lon="8.641932">
<ele>353.0</ele>
<speed>1.46</speed>
<course>161.9</course>
<desc>Speed 5.3 km/h Distance 3.27 km</desc>
<time>2010-10-23T17:13:07.34</time>
<name>2038</name>
</trkpt>
<trkpt lat="48.937100" lon="8.641938">
<ele>353.0</ele>
<speed>1.48</speed>
<course>161.9</course>
<desc>Speed 5.3 km/h Distance 3.27 km</desc>
<time>2010-10-23T17:13:08.34</time>
<name>2039</name>
</trkpt>
<trkpt lat="48.937087" lon="8.641945">
<ele>353.5</ele>
<speed>1.57</speed>
<course>171.0</course>
<desc>Speed 5.7 km/h Distance 3.28 km</desc>
<time>2010-10-23T17:13:09.34</time>
<name>2040</name>
</trkpt>
<trkpt lat="48.937073" lon="8.641948">
<ele>353.5</ele>
<speed>1.54</speed>
<course>171.0</course>
<desc>Speed 5.5 km/h Distance 3.28 km</desc>
<time>2010-10-23T17:13:10.34</time>
<name>2041</name>
</trkpt>
<trkpt lat="48.937060" lon="8.641952">
<ele>353.5</ele>
<speed>1.59</speed>
<course>159.9</course>
<desc>Speed 5.7 km/h Distance 3.28 km</desc>
<time>2010-10-23T17:13:11.34</time>
<name>2042</name>
</trkpt>
<trkpt lat="48.937045" lon="8.641960">
<ele>354.0</ele>
<speed>1.64</speed>
<course>166.4</course>
<desc>Speed 5.9 km/h Distance 3.28 km</desc>
<time>2010-10-23T17:13:12.34</time>
<name>2043</name>
</trkpt>
<trkpt lat="48.937027" lon="8.641967">
<ele>353.5</ele>
<speed>1.94</speed>
<course>160.1</course>
<desc>Speed 7.0 km/h Distance 3.28 km</desc>
<time>2010-10-23T17:13:13.34</time>
<name>2044</name>
</trkpt>
<trkpt lat="48.937012" lon="8.641975">
<ele>353.0</ele>
<speed>1.74</speed>
<course>173.4</course>
<desc>Speed 6.3 km/h Distance 3.28 km</desc>
<time>2010-10-23T17:13:14.34</time>
<name>2045</name>
</trkpt>
<trkpt lat="48.936992" lon="8.641978">
<ele>352.0</ele>
<speed>2.19</speed>
<course>171.9</course>
<desc>Speed 7.9 km/h Distance 3.29 km</desc>
<time>2010-10-23T17:13:15.34</time>
<name>2046</name>
</trkpt>
<trkpt lat="48.936977" lon="8.641982">
<ele>352.0</ele>
<speed>1.62</speed>
<course>166.5</course>
<desc>Speed 5.8 km/h Distance 3.29 km</desc>
<time>2010-10-23T17:13:16.34</time>
<name>2047</name>
</trkpt>
<trkpt lat="48.936963" lon="8.641987">
<ele>352.5</ele>
<speed>1.65</speed>
<course>163.7</course>
<desc>Speed 5.9 km/h Distance 3.29 km</desc>
<time>2010-10-23T17:13:17.34</time>
<name>2048</name>
</trkpt>
<trkpt lat="48.936948" lon="8.641993">
<ele>352.0</ele>
<speed>1.67</speed>
<course>167.8</course>
<desc>Speed 6.0 km/h Distance 3.29 km</desc>
<time>2010-10-23T17:13:18.34</time>
<name>2049</name>
</trkpt>
<trkpt lat="48.936933" lon="8.641998">
<ele>352.5</ele>
<speed>1.59</speed>
<course>161.9</course>
<desc>Speed 5.7 km/h Distance 3.29 km</desc>
<time>2010-10-23T17:13:19.34</time>
<name>2050</name>
</trkpt>
<trkpt lat="48.936920" lon="8.642005">
<ele>352.5</ele>
<speed>1.59</speed>
<course>157.4</course>
<desc>Speed 5.7 km/h Distance 3.29 km</desc>
<time>2010-10-23T17:13:20.34</time>
<name>2051</name>
</trkpt>
<trkpt lat="48.936907" lon="8.642013">
<ele>353.0</ele>
<speed>1.64</speed>
<course>166.0</course>
<desc>Speed 5.9 km/h Distance 3.30 km</desc>
<time>2010-10-23T17:13:21.34</time>
<name>2052</name>
</trkpt>
<trkpt lat="48.936893" lon="8.642018">
<ele>353.0</ele>
<speed>1.60</speed>
<course>166.5</course>
<desc>Speed 5.8 km/h Distance 3.30 km</desc>
<time>2010-10-23T17:13:22.34</time>
<name>2053</name>
</trkpt>
<trkpt lat="48.936880" lon="8.642023">
<ele>353.5</ele>
<speed>1.62</speed>
<course>154.8</course>
<desc>Speed 5.8 km/h Distance 3.30 km</desc>
<time>2010-10-23T17:13:23.34</time>
<name>2054</name>
</trkpt>
<trkpt lat="48.936868" lon="8.642032">
<ele>354.0</ele>
<speed>1.64</speed>
<course>150.8</course>
<desc>Speed 5.9 km/h Distance 3.30 km</desc>
<time>2010-10-23T17:13:24.34</time>
<name>2055</name>
</trkpt>
<trkpt lat="48.936857" lon="8.642042">
<ele>355.0</ele>
<speed>1.58</speed>
<course>155.1</course>
<desc>Speed 5.7 km/h Distance 3.30 km</desc>
<time>2010-10-23T17:13:25.34</time>
<name>2056</name>
</trkpt>
<trkpt lat="48.936845" lon="8.642050">
<ele>355.5</ele>
<speed>1.51</speed>
<course>171.9</course>
<desc>Speed 5.4 km/h Distance 3.30 km</desc>
<time>2010-10-23T17:13:26.34</time>
<name>2057</name>
</trkpt>
<trkpt lat="48.936830" lon="8.642053">
<ele>355.5</ele>
<speed>1.61</speed>
<course>171.0</course>
<desc>Speed 5.8 km/h Distance 3.31 km</desc>
<time>2010-10-23T17:13:27.34</time>
<name>2058</name>
</trkpt>
<trkpt lat="48.936817" lon="8.642057">
<ele>356.0</ele>
<speed>1.52</speed>
<course>167.8</course>
<desc>Speed 5.5 km/h Distance 3.31 km</desc>
<time>2010-10-23T17:13:28.34</time>
<name>2059</name>
</trkpt>
<trkpt lat="48.936802" lon="8.642062">
<ele>356.0</ele>
<speed>1.62</speed>
<course>180.0</course>
<desc>Speed 5.8 km/h Distance 3.31 km</desc>
<time>2010-10-23T17:13:29.34</time>
<name>2060</name>
</trkpt>
<trkpt lat="48.936788" lon="8.642062">
<ele>356.5</ele>
<speed>1.37</speed>
<course>189.5</course>
<desc>Speed 4.9 km/h Distance 3.31 km</desc>
<time>2010-10-23T17:13:30.34</time>
<name>2061</name>
</trkpt>
<trkpt lat="48.936777" lon="8.642058">
<ele>356.5</ele>
<speed>1.37</speed>
<course>171.9</course>
<desc>Speed 4.9 km/h Distance 3.31 km</desc>
<time>2010-10-23T17:13:31.34</time>
<name>2062</name>
</trkpt>
<trkpt lat="48.936762" lon="8.642062">
<ele>356.5</ele>
<speed>1.50</speed>
<course>151.4</course>
<desc>Speed 5.4 km/h Distance 3.31 km</desc>
<time>2010-10-23T17:13:32.34</time>
<name>2063</name>
</trkpt>
<trkpt lat="48.936752" lon="8.642070">
<ele>356.5</ele>
<speed>1.26</speed>
<course>135.5</course>
<desc>Speed 4.5 km/h Distance 3.31 km</desc>
<time>2010-10-23T17:13:33.34</time>
<name>2064</name>
</trkpt>
<trkpt lat="48.936745" lon="8.642080">
<ele>357.0</ele>
<speed>0.93</speed>
<course>114.5</course>
<desc>Speed 3.3 km/h Distance 3.32 km</desc>
<time>2010-10-23T17:13:34.34</time>
<name>2065</name>
</trkpt>
<trkpt lat="48.936740" lon="8.642097">
<ele>357.0</ele>
<speed>1.23</speed>
<course>90.0</course>
<desc>Speed 4.4 km/h Distance 3.32 km</desc>
<time>2010-10-23T17:13:35.34</time>
<name>2066</name>
</trkpt>
<trkpt lat="48.936740" lon="8.642117">
<ele>357.0</ele>
<speed>1.41</speed>
<course>70.7</course>
<desc>Speed 5.1 km/h Distance 3.32 km</desc>
<time>2010-10-23T17:13:36.34</time>
<name>2067</name>
</trkpt>
<trkpt lat="48.936745" lon="8.642138">
<ele>357.5</ele>
<speed>1.57</speed>
<course>67.4</course>
<desc>Speed 5.7 km/h Distance 3.32 km</desc>
<time>2010-10-23T17:13:37.34</time>
<name>2068</name>
</trkpt>
<trkpt lat="48.936750" lon="8.642157">
<ele>357.5</ele>
<speed>1.42</speed>
<course>59.7</course>
<desc>Speed 5.1 km/h Distance 3.32 km</desc>
<time>2010-10-23T17:13:38.34</time>
<name>2069</name>
</trkpt>
<trkpt lat="48.936758" lon="8.642178">
<ele>357.5</ele>
<speed>1.58</speed>
<course>71.9</course>
<desc>Speed 5.7 km/h Distance 3.32 km</desc>
<time>2010-10-23T17:13:39.34</time>
<name>2070</name>
</trkpt>
<trkpt lat="48.936763" lon="8.642202">
<ele>357.5</ele>
<speed>1.65</speed>
<course>64.9</course>
<desc>Speed 5.9 km/h Distance 3.33 km</desc>
<time>2010-10-23T17:13:40.34</time>
<name>2071</name>
</trkpt>
<trkpt lat="48.936770" lon="8.642223">
<ele>357.5</ele>
<speed>1.63</speed>
<course>57.7</course>
<desc>Speed 5.9 km/h Distance 3.33 km</desc>
<time>2010-10-23T17:13:41.34</time>
<name>2072</name>
</trkpt>
<trkpt lat="48.936778" lon="8.642243">
<ele>358.0</ele>
<speed>1.69</speed>
<course>57.6</course>
<desc>Speed 6.1 km/h Distance 3.33 km</desc>
<time>2010-10-23T17:13:42.34</time>
<name>2073</name>
</trkpt>
<trkpt lat="48.936787" lon="8.642263">
<ele>357.5</ele>
<speed>1.62</speed>
<course>55.3</course>
<desc>Speed 5.8 km/h Distance 3.33 km</desc>
<time>2010-10-23T17:13:43.34</time>
<name>2074</name>
</trkpt>
<trkpt lat="48.936795" lon="8.642282">
<ele>357.5</ele>
<speed>1.55</speed>
<course>50.4</course>
<desc>Speed 5.6 km/h Distance 3.33 km</desc>
<time>2010-10-23T17:13:44.34</time>
<name>2075</name>
</trkpt>
<trkpt lat="48.936805" lon="8.642300">
<ele>358.0</ele>
<speed>1.62</speed>
<course>67.5</course>
<desc>Speed 5.8 km/h Distance 3.33 km</desc>
<time>2010-10-23T17:13:45.33</time>
<name>2076</name>
</trkpt>
<trkpt lat="48.936810" lon="8.642318">
<ele>357.5</ele>
<speed>1.51</speed>
<course>52.7</course>
<desc>Speed 5.4 km/h Distance 3.34 km</desc>
<time>2010-10-23T17:13:46.33</time>
<name>2077</name>
</trkpt>
<trkpt lat="48.936818" lon="8.642335">
<ele>357.5</ele>
<speed>1.53</speed>
<course>61.1</course>
<desc>Speed 5.5 km/h Distance 3.34 km</desc>
<time>2010-10-23T17:13:47.33</time>
<name>2078</name>
</trkpt>
<trkpt lat="48.936825" lon="8.642353">
<ele>357.5</ele>
<speed>1.50</speed>
<course>64.9</course>
<desc>Speed 5.4 km/h Distance 3.34 km</desc>
<time>2010-10-23T17:13:48.33</time>
<name>2079</name>
</trkpt>
<trkpt lat="48.936832" lon="8.642375">
<ele>357.5</ele>
<speed>1.66</speed>
<course>66.5</course>
<desc>Speed 6.0 km/h Distance 3.34 km</desc>
<time>2010-10-23T17:13:49.33</time>
<name>2080</name>
</trkpt>
<trkpt lat="48.936838" lon="8.642398">
<ele>357.5</ele>
<speed>1.69</speed>
<course>66.5</course>
<desc>Speed 6.1 km/h Distance 3.34 km</desc>
<time>2010-10-23T17:13:50.33</time>
<name>2081</name>
</trkpt>
<trkpt lat="48.936845" lon="8.642422">
<ele>358.5</ele>
<speed>1.63</speed>
<course>77.7</course>
<desc>Speed 5.9 km/h Distance 3.34 km</desc>
<time>2010-10-23T17:13:51.33</time>
<name>2082</name>
</trkpt>
<trkpt lat="48.936848" lon="8.642445">
<ele>358.5</ele>
<speed>1.62</speed>
<course>83.8</course>
<desc>Speed 5.8 km/h Distance 3.35 km</desc>
<time>2010-10-23T17:13:52.33</time>
<name>2083</name>
</trkpt>
<trkpt lat="48.936850" lon="8.642468">
<ele>359.0</ele>
<speed>1.54</speed>
<course>96.2</course>
<desc>Speed 5.5 km/h Distance 3.35 km</desc>
<time>2010-10-23T17:13:53.33</time>
<name>2084</name>
</trkpt>
<trkpt lat="48.936848" lon="8.642492">
<ele>359.0</ele>
<speed>1.50</speed>
<course>90.0</course>
<desc>Speed 5.4 km/h Distance 3.35 km</desc>
<time>2010-10-23T17:13:54.33</time>
<name>2085</name>
</trkpt>
<trkpt lat="48.936848" lon="8.642515">
<ele>359.5</ele>
<speed>1.58</speed>
<course>115.1</course>
<desc>Speed 5.7 km/h Distance 3.35 km</desc>
<time>2010-10-23T17:13:55.33</time>
<name>2086</name>
</trkpt>
<trkpt lat="48.936842" lon="8.642537">
<ele>359.0</ele>
<speed>1.55</speed>
<course>96.7</course>
<desc>Speed 5.6 km/h Distance 3.35 km</desc>
<time>2010-10-23T17:13:56.33</time>
<name>2087</name>
</trkpt>
<trkpt lat="48.936840" lon="8.642558">
<ele>359.0</ele>
<speed>1.65</speed>
<course>108.1</course>
<desc>Speed 5.9 km/h Distance 3.35 km</desc>
<time>2010-10-23T17:13:57.33</time>
<name>2088</name>
</trkpt>
<trkpt lat="48.936835" lon="8.642582">
<ele>358.5</ele>
<speed>1.70</speed>
<course>113.5</course>
<desc>Speed 6.1 km/h Distance 3.36 km</desc>
<time>2010-10-23T17:13:58.33</time>
<name>2089</name>
</trkpt>
<trkpt lat="48.936828" lon="8.642605">
<ele>357.5</ele>
<speed>1.77</speed>
<course>83.8</course>
<desc>Speed 6.4 km/h Distance 3.36 km</desc>
<time>2010-10-23T17:13:59.33</time>
<name>2090</name>
</trkpt>
<trkpt lat="48.936830" lon="8.642628">
<ele>357.5</ele>
<speed>1.62</speed>
<course>103.2</course>
<desc>Speed 5.8 km/h Distance 3.36 km</desc>
<time>2010-10-23T17:14:00.33</time>
<name>2091</name>
</trkpt>
<trkpt lat="48.936827" lon="8.642650">
<ele>356.5</ele>
<speed>1.58</speed>
<course>96.7</course>
<desc>Speed 5.7 km/h Distance 3.36 km</desc>
<time>2010-10-23T17:14:01.33</time>
<name>2092</name>
</trkpt>
<trkpt lat="48.936825" lon="8.642672">
<ele>356.0</ele>
<speed>1.50</speed>
<course>83.3</course>
<desc>Speed 5.4 km/h Distance 3.36 km</desc>
<time>2010-10-23T17:14:02.33</time>
<name>2093</name>
</trkpt>
<trkpt lat="48.936827" lon="8.642693">
<ele>356.0</ele>
<speed>1.61</speed>
<course>77.7</course>
<desc>Speed 5.8 km/h Distance 3.36 km</desc>
<time>2010-10-23T17:14:03.33</time>
<name>2094</name>
</trkpt>
<trkpt lat="48.936830" lon="8.642717">
<ele>356.0</ele>
<speed>1.63</speed>
<course>75.8</course>
<desc>Speed 5.9 km/h Distance 3.37 km</desc>
<time>2010-10-23T17:14:04.33</time>
<name>2095</name>
</trkpt>
<trkpt lat="48.936833" lon="8.642737">
<ele>356.0</ele>
<speed>1.39</speed>
<course>70.6</course>
<desc>Speed 5.0 km/h Distance 3.37 km</desc>
<time>2010-10-23T17:14:05.33</time>
<name>2096</name>
</trkpt>
<trkpt lat="48.936838" lon="8.642758">
<ele>356.0</ele>
<speed>1.50</speed>
<course>69.2</course>
<desc>Speed 5.4 km/h Distance 3.37 km</desc>
<time>2010-10-23T17:14:06.33</time>
<name>2097</name>
</trkpt>
<trkpt lat="48.936843" lon="8.642778">
<ele>356.0</ele>
<speed>1.50</speed>
<course>54.9</course>
<desc>Speed 5.4 km/h Distance 3.37 km</desc>
<time>2010-10-23T17:14:07.33</time>
<name>2098</name>
</trkpt>
<trkpt lat="48.936853" lon="8.642800">
<ele>356.5</ele>
<speed>1.51</speed>
<course>61.5</course>
<desc>Speed 5.4 km/h Distance 3.37 km</desc>
<time>2010-10-23T17:14:08.33</time>
<name>2099</name>
</trkpt>
<trkpt lat="48.936862" lon="8.642823">
<ele>357.0</ele>
<speed>1.45</speed>
<course>52.7</course>
<desc>Speed 5.2 km/h Distance 3.37 km</desc>
<time>2010-10-23T17:14:09.33</time>
<name>2100</name>
</trkpt>
<trkpt lat="48.936872" lon="8.642843">
<ele>357.5</ele>
<speed>1.40</speed>
<course>55.3</course>
<desc>Speed 5.0 km/h Distance 3.38 km</desc>
<time>2010-10-23T17:14:10.33</time>
<name>2101</name>
</trkpt>
<trkpt lat="48.936880" lon="8.642862">
<ele>358.0</ele>
<speed>1.39</speed>
<course>64.9</course>
<desc>Speed 5.0 km/h Distance 3.38 km</desc>
<time>2010-10-23T17:14:11.33</time>
<name>2102</name>
</trkpt>
<trkpt lat="48.936887" lon="8.642883">
<ele>357.5</ele>
<speed>1.49</speed>
<course>70.7</course>
<desc>Speed 5.4 km/h Distance 3.38 km</desc>
<time>2010-10-23T17:14:12.33</time>
<name>2103</name>
</trkpt>
<trkpt lat="48.936892" lon="8.642905">
<ele>358.0</ele>
<speed>1.58</speed>
<course>59.7</course>
<desc>Speed 5.7 km/h Distance 3.38 km</desc>
<time>2010-10-23T17:14:13.33</time>
<name>2104</name>
</trkpt>
<trkpt lat="48.936900" lon="8.642927">
<ele>358.0</ele>
<speed>1.66</speed>
<course>77.7</course>
<desc>Speed 6.0 km/h Distance 3.38 km</desc>
<time>2010-10-23T17:14:14.33</time>
<name>2105</name>
</trkpt>
<trkpt lat="48.936903" lon="8.642950">
<ele>357.5</ele>
<speed>1.65</speed>
<course>77.7</course>
<desc>Speed 5.9 km/h Distance 3.38 km</desc>
<time>2010-10-23T17:14:15.33</time>
<name>2106</name>
</trkpt>
<trkpt lat="48.936907" lon="8.642973">
<ele>357.5</ele>
<speed>1.62</speed>
<course>66.5</course>
<desc>Speed 5.8 km/h Distance 3.39 km</desc>
<time>2010-10-23T17:14:16.33</time>
<name>2107</name>
</trkpt>
<trkpt lat="48.936913" lon="8.642997">
<ele>357.5</ele>
<speed>1.64</speed>
<course>66.5</course>
<desc>Speed 5.9 km/h Distance 3.39 km</desc>
<time>2010-10-23T17:14:17.33</time>
<name>2108</name>
</trkpt>
<trkpt lat="48.936920" lon="8.643020">
<ele>357.0</ele>
<speed>1.62</speed>
<course>64.9</course>
<desc>Speed 5.8 km/h Distance 3.39 km</desc>
<time>2010-10-23T17:14:18.33</time>
<name>2109</name>
</trkpt>
<trkpt lat="48.936927" lon="8.643042">
<ele>357.0</ele>
<speed>1.63</speed>
<course>71.9</course>
<desc>Speed 5.9 km/h Distance 3.39 km</desc>
<time>2010-10-23T17:14:19.33</time>
<name>2110</name>
</trkpt>
<trkpt lat="48.936932" lon="8.643065">
<ele>357.0</ele>
<speed>1.67</speed>
<course>77.7</course>
<desc>Speed 6.0 km/h Distance 3.39 km</desc>
<time>2010-10-23T17:14:20.33</time>
<name>2111</name>
</trkpt>
<trkpt lat="48.936935" lon="8.643088">
<ele>356.5</ele>
<speed>1.58</speed>
<course>76.8</course>
<desc>Speed 5.7 km/h Distance 3.40 km</desc>
<time>2010-10-23T17:14:21.33</time>
<name>2112</name>
</trkpt>
<trkpt lat="48.936938" lon="8.643110">
<ele>356.0</ele>
<speed>1.54</speed>
<course>70.6</course>
<desc>Speed 5.5 km/h Distance 3.40 km</desc>
<time>2010-10-23T17:14:22.33</time>
<name>2113</name>
</trkpt>
<trkpt lat="48.936943" lon="8.643132">
<ele>356.0</ele>
<speed>1.54</speed>
<course>70.6</course>
<desc>Speed 5.5 km/h Distance 3.40 km</desc>
<time>2010-10-23T17:14:23.33</time>
<name>2114</name>
</trkpt>
<trkpt lat="48.936948" lon="8.643153">
<ele>356.0</ele>
<speed>1.52</speed>
<course>70.6</course>
<desc>Speed 5.5 km/h Distance 3.40 km</desc>
<time>2010-10-23T17:14:24.33</time>
<name>2115</name>
</trkpt>
<trkpt lat="48.936953" lon="8.643175">
<ele>355.5</ele>
<speed>1.60</speed>
<course>76.8</course>
<desc>Speed 5.8 km/h Distance 3.40 km</desc>
<time>2010-10-23T17:14:25.33</time>
<name>2116</name>
</trkpt>
<trkpt lat="48.936957" lon="8.643197">
<ele>355.5</ele>
<speed>1.52</speed>
<course>73.1</course>
<desc>Speed 5.5 km/h Distance 3.40 km</desc>
<time>2010-10-23T17:14:26.33</time>
<name>2117</name>
</trkpt>
<trkpt lat="48.936962" lon="8.643222">
<ele>355.5</ele>
<speed>1.59</speed>
<course>77.7</course>
<desc>Speed 5.7 km/h Distance 3.41 km</desc>
<time>2010-10-23T17:14:27.33</time>
<name>2118</name>
</trkpt>
<trkpt lat="48.936965" lon="8.643245">
<ele>355.5</ele>
<speed>1.49</speed>
<course>96.7</course>
<desc>Speed 5.4 km/h Distance 3.41 km</desc>
<time>2010-10-23T17:14:28.33</time>
<name>2119</name>
</trkpt>
<trkpt lat="48.936963" lon="8.643267">
<ele>355.5</ele>
<speed>1.49</speed>
<course>110.8</course>
<desc>Speed 5.4 km/h Distance 3.41 km</desc>
<time>2010-10-23T17:14:29.33</time>
<name>2120</name>
</trkpt>
<trkpt lat="48.936958" lon="8.643287">
<ele>356.0</ele>
<speed>1.53</speed>
<course>120.3</course>
<desc>Speed 5.5 km/h Distance 3.41 km</desc>
<time>2010-10-23T17:14:30.33</time>
<name>2121</name>
</trkpt>
<trkpt lat="48.936950" lon="8.643308">
<ele>355.5</ele>
<speed>1.67</speed>
<course>116.9</course>
<desc>Speed 6.0 km/h Distance 3.41 km</desc>
<time>2010-10-23T17:14:31.33</time>
<name>2122</name>
</trkpt>
<trkpt lat="48.936943" lon="8.643328">
<ele>355.5</ele>
<speed>1.53</speed>
<course>116.9</course>
<desc>Speed 5.5 km/h Distance 3.41 km</desc>
<time>2010-10-23T17:14:32.33</time>
<name>2123</name>
</trkpt>
<trkpt lat="48.936937" lon="8.643348">
<ele>355.5</ele>
<speed>1.62</speed>
<course>120.3</course>
<desc>Speed 5.8 km/h Distance 3.42 km</desc>
<time>2010-10-23T17:14:33.33</time>
<name>2124</name>
</trkpt>
<trkpt lat="48.936928" lon="8.643370">
<ele>355.5</ele>
<speed>1.73</speed>
<course>129.6</course>
<desc>Speed 6.2 km/h Distance 3.42 km</desc>
<time>2010-10-23T17:14:34.33</time>
<name>2125</name>
</trkpt>
<trkpt lat="48.936918" lon="8.643388">
<ele>355.5</ele>
<speed>1.66</speed>
<course>127.2</course>
<desc>Speed 6.0 km/h Distance 3.42 km</desc>
<time>2010-10-23T17:14:35.33</time>
<name>2126</name>
</trkpt>
<trkpt lat="48.936908" lon="8.643408">
<ele>355.0</ele>
<speed>1.75</speed>
<course>129.7</course>
<desc>Speed 6.3 km/h Distance 3.42 km</desc>
<time>2010-10-23T17:14:36.33</time>
<name>2127</name>
</trkpt>
<trkpt lat="48.936898" lon="8.643427">
<ele>355.0</ele>
<speed>1.77</speed>
<course>129.6</course>
<desc>Speed 6.4 km/h Distance 3.42 km</desc>
<time>2010-10-23T17:14:37.33</time>
<name>2128</name>
</trkpt>
<trkpt lat="48.936888" lon="8.643445">
<ele>355.0</ele>
<speed>1.72</speed>
<course>129.7</course>
<desc>Speed 6.2 km/h Distance 3.42 km</desc>
<time>2010-10-23T17:14:38.33</time>
<name>2129</name>
</trkpt>
<trkpt lat="48.936878" lon="8.643463">
<ele>355.0</ele>
<speed>1.76</speed>
<course>134.1</course>
<desc>Speed 6.3 km/h Distance 3.43 km</desc>
<time>2010-10-23T17:14:39.33</time>
<name>2130</name>
</trkpt>
<trkpt lat="48.936867" lon="8.643482">
<ele>355.5</ele>
<speed>1.77</speed>
<course>139.7</course>
<desc>Speed 6.4 km/h Distance 3.43 km</desc>
<time>2010-10-23T17:14:40.33</time>
<name>2131</name>
</trkpt>
<trkpt lat="48.936855" lon="8.643497">
<ele>355.0</ele>
<speed>1.62</speed>
<course>138.7</course>
<desc>Speed 5.8 km/h Distance 3.43 km</desc>
<time>2010-10-23T17:14:41.33</time>
<name>2132</name>
</trkpt>
<trkpt lat="48.936845" lon="8.643510">
<ele>355.0</ele>
<speed>1.65</speed>
<course>150.2</course>
<desc>Speed 5.9 km/h Distance 3.43 km</desc>
<time>2010-10-23T17:14:42.33</time>
<name>2133</name>
</trkpt>
<trkpt lat="48.936832" lon="8.643522">
<ele>355.0</ele>
<speed>1.63</speed>
<course>146.6</course>
<desc>Speed 5.9 km/h Distance 3.43 km</desc>
<time>2010-10-23T17:14:43.33</time>
<name>2134</name>
</trkpt>
<trkpt lat="48.936820" lon="8.643533">
<ele>355.0</ele>
<speed>1.62</speed>
<course>154.0</course>
<desc>Speed 5.8 km/h Distance 3.43 km</desc>
<time>2010-10-23T17:14:44.33</time>
<name>2135</name>
</trkpt>
<trkpt lat="48.936807" lon="8.643543">
<ele>355.0</ele>
<speed>1.67</speed>
<course>154.8</course>
<desc>Speed 6.0 km/h Distance 3.44 km</desc>
<time>2010-10-23T17:14:45.33</time>
<name>2136</name>
</trkpt>
<trkpt lat="48.936795" lon="8.643552">
<ele>355.0</ele>
<speed>1.59</speed>
<course>157.9</course>
<desc>Speed 5.7 km/h Distance 3.44 km</desc>
<time>2010-10-23T17:14:46.33</time>
<name>2137</name>
</trkpt>
<trkpt lat="48.936782" lon="8.643560">
<ele>355.0</ele>
<speed>1.65</speed>
<course>160.1</course>
<desc>Speed 5.9 km/h Distance 3.44 km</desc>
<time>2010-10-23T17:14:47.33</time>
<name>2138</name>
</trkpt>
<trkpt lat="48.936767" lon="8.643568">
<ele>355.0</ele>
<speed>1.54</speed>
<course>161.9</course>
<desc>Speed 5.5 km/h Distance 3.44 km</desc>
<time>2010-10-23T17:14:48.33</time>
<name>2139</name>
</trkpt>
<trkpt lat="48.936753" lon="8.643575">
<ele>355.0</ele>
<speed>1.55</speed>
<course>157.4</course>
<desc>Speed 5.6 km/h Distance 3.44 km</desc>
<time>2010-10-23T17:14:49.33</time>
<name>2140</name>
</trkpt>
<trkpt lat="48.936740" lon="8.643583">
<ele>355.5</ele>
<speed>1.64</speed>
<course>159.9</course>
<desc>Speed 5.9 km/h Distance 3.44 km</desc>
<time>2010-10-23T17:14:50.33</time>
<name>2141</name>
</trkpt>
<trkpt lat="48.936725" lon="8.643592">
<ele>355.0</ele>
<speed>1.62</speed>
<course>153.8</course>
<desc>Speed 5.8 km/h Distance 3.45 km</desc>
<time>2010-10-23T17:14:51.33</time>
<name>2142</name>
</trkpt>
<trkpt lat="48.936712" lon="8.643602">
<ele>355.0</ele>
<speed>1.63</speed>
<course>153.6</course>
<desc>Speed 5.9 km/h Distance 3.45 km</desc>
<time>2010-10-23T17:14:52.33</time>
<name>2143</name>
</trkpt>
<trkpt lat="48.936698" lon="8.643612">
<ele>355.0</ele>
<speed>1.59</speed>
<course>153.8</course>
<desc>Speed 5.7 km/h Distance 3.45 km</desc>
<time>2010-10-23T17:14:53.33</time>
<name>2144</name>
</trkpt>
<trkpt lat="48.936685" lon="8.643622">
<ele>355.0</ele>
<speed>1.65</speed>
<course>154.0</course>
<desc>Speed 5.9 km/h Distance 3.45 km</desc>
<time>2010-10-23T17:14:54.33</time>
<name>2145</name>
</trkpt>
<trkpt lat="48.936672" lon="8.643632">
<ele>355.0</ele>
<speed>1.62</speed>
<course>154.8</course>
<desc>Speed 5.8 km/h Distance 3.45 km</desc>
<time>2010-10-23T17:14:55.33</time>
<name>2146</name>
</trkpt>
<trkpt lat="48.936660" lon="8.643640">
<ele>355.0</ele>
<speed>1.51</speed>
<course>150.6</course>
<desc>Speed 5.4 km/h Distance 3.45 km</desc>
<time>2010-10-23T17:14:56.33</time>
<name>2147</name>
</trkpt>
<trkpt lat="48.936648" lon="8.643650">
<ele>355.5</ele>
<speed>1.63</speed>
<course>146.7</course>
<desc>Speed 5.9 km/h Distance 3.46 km</desc>
<time>2010-10-23T17:14:57.33</time>
<name>2148</name>
</trkpt>
<trkpt lat="48.936637" lon="8.643662">
<ele>355.5</ele>
<speed>1.46</speed>
<course>150.6</course>
<desc>Speed 5.3 km/h Distance 3.46 km</desc>
<time>2010-10-23T17:14:58.33</time>
<name>2149</name>
</trkpt>
<trkpt lat="48.936625" lon="8.643672">
<ele>355.5</ele>
<speed>1.50</speed>
<course>146.6</course>
<desc>Speed 5.4 km/h Distance 3.46 km</desc>
<time>2010-10-23T17:14:59.33</time>
<name>2150</name>
</trkpt>
<trkpt lat="48.936613" lon="8.643683">
<ele>355.5</ele>
<speed>1.59</speed>
<course>156.5</course>
<desc>Speed 5.7 km/h Distance 3.46 km</desc>
<time>2010-10-23T17:15:00.33</time>
<name>2151</name>
</trkpt>
<trkpt lat="48.936598" lon="8.643693">
<ele>355.5</ele>
<speed>1.69</speed>
<course>154.0</course>
<desc>Speed 6.1 km/h Distance 3.46 km</desc>
<time>2010-10-23T17:15:01.33</time>
<name>2152</name>
</trkpt>
<trkpt lat="48.936585" lon="8.643703">
<ele>355.5</ele>
<speed>1.62</speed>
<course>153.8</course>
<desc>Speed 5.8 km/h Distance 3.46 km</desc>
<time>2010-10-23T17:15:02.33</time>
<name>2153</name>
</trkpt>
<trkpt lat="48.936572" lon="8.643713">
<ele>355.5</ele>
<speed>1.72</speed>
<course>154.0</course>
<desc>Speed 6.2 km/h Distance 3.47 km</desc>
<time>2010-10-23T17:15:03.33</time>
<name>2154</name>
</trkpt>
<trkpt lat="48.936558" lon="8.643723">
<ele>355.5</ele>
<speed>1.54</speed>
<course>150.2</course>
<desc>Speed 5.5 km/h Distance 3.47 km</desc>
<time>2010-10-23T17:15:04.33</time>
<name>2155</name>
</trkpt>
<trkpt lat="48.936545" lon="8.643735">
<ele>355.5</ele>
<speed>1.61</speed>
<course>150.6</course>
<desc>Speed 5.8 km/h Distance 3.47 km</desc>
<time>2010-10-23T17:15:05.33</time>
<name>2156</name>
</trkpt>
<trkpt lat="48.936533" lon="8.643745">
<ele>355.5</ele>
<speed>1.57</speed>
<course>150.6</course>
<desc>Speed 5.7 km/h Distance 3.47 km</desc>
<time>2010-10-23T17:15:06.33</time>
<name>2157</name>
</trkpt>
<trkpt lat="48.936522" lon="8.643755">
<ele>355.5</ele>
<speed>1.44</speed>
<course>155.1</course>
<desc>Speed 5.2 km/h Distance 3.47 km</desc>
<time>2010-10-23T17:15:07.33</time>
<name>2158</name>
</trkpt>
<trkpt lat="48.936510" lon="8.643763">
<ele>355.5</ele>
<speed>1.49</speed>
<course>146.7</course>
<desc>Speed 5.4 km/h Distance 3.47 km</desc>
<time>2010-10-23T17:15:08.33</time>
<name>2159</name>
</trkpt>
<trkpt lat="48.936498" lon="8.643775">
<ele>356.0</ele>
<speed>1.61</speed>
<course>146.6</course>
<desc>Speed 5.8 km/h Distance 3.47 km</desc>
<time>2010-10-23T17:15:09.33</time>
<name>2160</name>
</trkpt>
<trkpt lat="48.936487" lon="8.643787">
<ele>356.0</ele>
<speed>1.58</speed>
<course>150.2</course>
<desc>Speed 5.7 km/h Distance 3.48 km</desc>
<time>2010-10-23T17:15:10.33</time>
<name>2161</name>
</trkpt>
<trkpt lat="48.936473" lon="8.643798">
<ele>356.0</ele>
<speed>1.61</speed>
<course>150.0</course>
<desc>Speed 5.8 km/h Distance 3.48 km</desc>
<time>2010-10-23T17:15:11.33</time>
<name>2162</name>
</trkpt>
<trkpt lat="48.936460" lon="8.643810">
<ele>356.0</ele>
<speed>1.73</speed>
<course>153.6</course>
<desc>Speed 6.2 km/h Distance 3.48 km</desc>
<time>2010-10-23T17:15:12.33</time>
<name>2163</name>
</trkpt>
<trkpt lat="48.936447" lon="8.643820">
<ele>356.0</ele>
<speed>1.61</speed>
<course>146.7</course>
<desc>Speed 5.8 km/h Distance 3.48 km</desc>
<time>2010-10-23T17:15:13.33</time>
<name>2164</name>
</trkpt>
<trkpt lat="48.936435" lon="8.643832">
<ele>355.5</ele>
<speed>1.59</speed>
<course>146.6</course>
<desc>Speed 5.7 km/h Distance 3.48 km</desc>
<time>2010-10-23T17:15:14.33</time>
<name>2165</name>
</trkpt>
<trkpt lat="48.936423" lon="8.643843">
<ele>355.5</ele>
<speed>1.54</speed>
<course>146.6</course>
<desc>Speed 5.5 km/h Distance 3.48 km</desc>
<time>2010-10-23T17:15:15.33</time>
<name>2166</name>
</trkpt>
<trkpt lat="48.936410" lon="8.643857">
<ele>355.5</ele>
<speed>1.62</speed>
<course>139.8</course>
<desc>Speed 5.8 km/h Distance 3.49 km</desc>
<time>2010-10-23T17:15:16.33</time>
<name>2167</name>
</trkpt>
<trkpt lat="48.936398" lon="8.643872">
<ele>355.5</ele>
<speed>1.62</speed>
<course>149.6</course>
<desc>Speed 5.8 km/h Distance 3.49 km</desc>
<time>2010-10-23T17:15:17.33</time>
<name>2168</name>
</trkpt>
<trkpt lat="48.936383" lon="8.643885">
<ele>355.0</ele>
<speed>1.86</speed>
<course>152.8</course>
<desc>Speed 6.7 km/h Distance 3.49 km</desc>
<time>2010-10-23T17:15:18.33</time>
<name>2169</name>
</trkpt>
<trkpt lat="48.936368" lon="8.643897">
<ele>354.5</ele>
<speed>1.67</speed>
<course>150.0</course>
<desc>Speed 6.0 km/h Distance 3.49 km</desc>
<time>2010-10-23T17:15:19.33</time>
<name>2170</name>
</trkpt>
<trkpt lat="48.936355" lon="8.643908">
<ele>354.5</ele>
<speed>1.59</speed>
<course>153.8</course>
<desc>Speed 5.7 km/h Distance 3.49 km</desc>
<time>2010-10-23T17:15:20.33</time>
<name>2171</name>
</trkpt>
<trkpt lat="48.936342" lon="8.643918">
<ele>354.0</ele>
<speed>1.62</speed>
<course>153.6</course>
<desc>Speed 5.8 km/h Distance 3.50 km</desc>
<time>2010-10-23T17:15:21.33</time>
<name>2172</name>
</trkpt>
<trkpt lat="48.936328" lon="8.643928">
<ele>353.5</ele>
<speed>1.59</speed>
<course>152.8</course>
<desc>Speed 5.7 km/h Distance 3.50 km</desc>
<time>2010-10-23T17:15:22.33</time>
<name>2173</name>
</trkpt>
<trkpt lat="48.936313" lon="8.643940">
<ele>353.5</ele>
<speed>1.65</speed>
<course>152.8</course>
<desc>Speed 5.9 km/h Distance 3.50 km</desc>
<time>2010-10-23T17:15:23.33</time>
<name>2174</name>
</trkpt>
<trkpt lat="48.936298" lon="8.643952">
<ele>353.0</ele>
<speed>1.69</speed>
<course>150.0</course>
<desc>Speed 6.1 km/h Distance 3.50 km</desc>
<time>2010-10-23T17:15:24.33</time>
<name>2175</name>
</trkpt>
<trkpt lat="48.936285" lon="8.643963">
<ele>353.0</ele>
<speed>1.61</speed>
<course>150.2</course>
<desc>Speed 5.8 km/h Distance 3.50 km</desc>
<time>2010-10-23T17:15:25.33</time>
<name>2176</name>
</trkpt>
<trkpt lat="48.936272" lon="8.643975">
<ele>353.5</ele>
<speed>1.52</speed>
<course>146.6</course>
<desc>Speed 5.5 km/h Distance 3.50 km</desc>
<time>2010-10-23T17:15:26.33</time>
<name>2177</name>
</trkpt>
<trkpt lat="48.936260" lon="8.643987">
<ele>353.5</ele>
<speed>1.52</speed>
<course>154.0</course>
<desc>Speed 5.5 km/h Distance 3.51 km</desc>
<time>2010-10-23T17:15:27.33</time>
<name>2178</name>
</trkpt>
<trkpt lat="48.936247" lon="8.643997">
<ele>353.5</ele>
<speed>1.42</speed>
<course>146.6</course>
<desc>Speed 5.1 km/h Distance 3.51 km</desc>
<time>2010-10-23T17:15:28.33</time>
<name>2179</name>
</trkpt>
<trkpt lat="48.936235" lon="8.644008">
<ele>354.0</ele>
<speed>1.57</speed>
<course>153.0</course>
<desc>Speed 5.7 km/h Distance 3.51 km</desc>
<time>2010-10-23T17:15:29.33</time>
<name>2180</name>
</trkpt>
<trkpt lat="48.936220" lon="8.644020">
<ele>353.5</ele>
<speed>1.67</speed>
<course>150.2</course>
<desc>Speed 6.0 km/h Distance 3.51 km</desc>
<time>2010-10-23T17:15:30.33</time>
<name>2181</name>
</trkpt>
<trkpt lat="48.936207" lon="8.644032">
<ele>354.0</ele>
<speed>1.63</speed>
<course>154.0</course>
<desc>Speed 5.9 km/h Distance 3.51 km</desc>
<time>2010-10-23T17:15:31.33</time>
<name>2182</name>
</trkpt>
<trkpt lat="48.936193" lon="8.644042">
<ele>353.5</ele>
<speed>1.72</speed>
<course>153.1</course>
<desc>Speed 6.2 km/h Distance 3.51 km</desc>
<time>2010-10-23T17:15:32.33</time>
<name>2183</name>
</trkpt>
<trkpt lat="48.936178" lon="8.644053">
<ele>353.5</ele>
<speed>1.72</speed>
<course>159.9</course>
<desc>Speed 6.2 km/h Distance 3.52 km</desc>
<time>2010-10-23T17:15:33.33</time>
<name>2184</name>
</trkpt>
<trkpt lat="48.936163" lon="8.644062">
<ele>353.0</ele>
<speed>1.79</speed>
<course>154.0</course>
<desc>Speed 6.4 km/h Distance 3.52 km</desc>
<time>2010-10-23T17:15:34.33</time>
<name>2185</name>
</trkpt>
<trkpt lat="48.936150" lon="8.644072">
<ele>353.0</ele>
<speed>1.66</speed>
<course>157.9</course>
<desc>Speed 6.0 km/h Distance 3.52 km</desc>
<time>2010-10-23T17:15:35.33</time>
<name>2186</name>
</trkpt>
<trkpt lat="48.936137" lon="8.644080">
<ele>353.0</ele>
<speed>1.64</speed>
<course>153.8</course>
<desc>Speed 5.9 km/h Distance 3.52 km</desc>
<time>2010-10-23T17:15:36.33</time>
<name>2187</name>
</trkpt>
<trkpt lat="48.936123" lon="8.644090">
<ele>352.5</ele>
<speed>1.52</speed>
<course>150.2</course>
<desc>Speed 5.5 km/h Distance 3.52 km</desc>
<time>2010-10-23T17:15:37.33</time>
<name>2188</name>
</trkpt>
<trkpt lat="48.936110" lon="8.644102">
<ele>352.5</ele>
<speed>1.63</speed>
<course>150.2</course>
<desc>Speed 5.9 km/h Distance 3.52 km</desc>
<time>2010-10-23T17:15:38.33</time>
<name>2189</name>
</trkpt>
<trkpt lat="48.936097" lon="8.644113">
<ele>352.5</ele>
<speed>1.60</speed>
<course>146.6</course>
<desc>Speed 5.8 km/h Distance 3.53 km</desc>
<time>2010-10-23T17:15:39.33</time>
<name>2190</name>
</trkpt>
<trkpt lat="48.936085" lon="8.644125">
<ele>352.0</ele>
<speed>1.58</speed>
<course>146.6</course>
<desc>Speed 5.7 km/h Distance 3.53 km</desc>
<time>2010-10-23T17:15:40.33</time>
<name>2191</name>
</trkpt>
<trkpt lat="48.936072" lon="8.644138">
<ele>352.0</ele>
<speed>1.61</speed>
<course>150.2</course>
<desc>Speed 5.8 km/h Distance 3.53 km</desc>
<time>2010-10-23T17:15:41.33</time>
<name>2192</name>
</trkpt>
<trkpt lat="48.936058" lon="8.644150">
<ele>352.0</ele>
<speed>1.62</speed>
<course>143.1</course>
<desc>Speed 5.8 km/h Distance 3.53 km</desc>
<time>2010-10-23T17:15:42.33</time>
<name>2193</name>
</trkpt>
<trkpt lat="48.936047" lon="8.644163">
<ele>352.0</ele>
<speed>1.50</speed>
<course>150.6</course>
<desc>Speed 5.4 km/h Distance 3.53 km</desc>
<time>2010-10-23T17:15:43.33</time>
<name>2194</name>
</trkpt>
<trkpt lat="48.936035" lon="8.644173">
<ele>352.0</ele>
<speed>1.47</speed>
<course>154.0</course>
<desc>Speed 5.3 km/h Distance 3.53 km</desc>
<time>2010-10-23T17:15:44.33</time>
<name>2195</name>
</trkpt>
<trkpt lat="48.936022" lon="8.644183">
<ele>352.0</ele>
<speed>1.51</speed>
<course>150.8</course>
<desc>Speed 5.4 km/h Distance 3.54 km</desc>
<time>2010-10-23T17:15:45.33</time>
<name>2196</name>
</trkpt>
<trkpt lat="48.936010" lon="8.644193">
<ele>352.0</ele>
<speed>1.50</speed>
<course>150.2</course>
<desc>Speed 5.4 km/h Distance 3.54 km</desc>
<time>2010-10-23T17:15:46.33</time>
<name>2197</name>
</trkpt>
<trkpt lat="48.935997" lon="8.644205">
<ele>352.0</ele>
<speed>1.50</speed>
<course>154.8</course>
<desc>Speed 5.4 km/h Distance 3.54 km</desc>
<time>2010-10-23T17:15:47.33</time>
<name>2198</name>
</trkpt>
<trkpt lat="48.935985" lon="8.644213">
<ele>352.5</ele>
<speed>1.47</speed>
<course>146.6</course>
<desc>Speed 5.3 km/h Distance 3.54 km</desc>
<time>2010-10-23T17:15:48.33</time>
<name>2199</name>
</trkpt>
<trkpt lat="48.935973" lon="8.644225">
<ele>352.5</ele>
<speed>1.50</speed>
<course>154.8</course>
<desc>Speed 5.4 km/h Distance 3.54 km</desc>
<time>2010-10-23T17:15:49.33</time>
<name>2200</name>
</trkpt>
<trkpt lat="48.935962" lon="8.644233">
<ele>352.5</ele>
<speed>1.48</speed>
<course>146.6</course>
<desc>Speed 5.3 km/h Distance 3.54 km</desc>
<time>2010-10-23T17:15:50.33</time>
<name>2201</name>
</trkpt>
<trkpt lat="48.935950" lon="8.644245">
<ele>352.5</ele>
<speed>1.60</speed>
<course>157.9</course>
<desc>Speed 5.8 km/h Distance 3.55 km</desc>
<time>2010-10-23T17:15:51.33</time>
<name>2202</name>
</trkpt>
<trkpt lat="48.935937" lon="8.644253">
<ele>352.5</ele>
<speed>1.47</speed>
<course>146.6</course>
<desc>Speed 5.3 km/h Distance 3.55 km</desc>
<time>2010-10-23T17:15:52.33</time>
<name>2203</name>
</trkpt>
<trkpt lat="48.935925" lon="8.644265">
<ele>352.5</ele>
<speed>1.53</speed>
<course>142.5</course>
<desc>Speed 5.5 km/h Distance 3.55 km</desc>
<time>2010-10-23T17:15:53.33</time>
<name>2204</name>
</trkpt>
<trkpt lat="48.935915" lon="8.644277">
<ele>352.5</ele>
<speed>1.41</speed>
<course>146.8</course>
<desc>Speed 5.1 km/h Distance 3.55 km</desc>
<time>2010-10-23T17:15:54.33</time>
<name>2205</name>
</trkpt>
<trkpt lat="48.935905" lon="8.644287">
<ele>353.0</ele>
<speed>1.35</speed>
<course>138.7</course>
<desc>Speed 4.9 km/h Distance 3.55 km</desc>
<time>2010-10-23T17:15:55.33</time>
<name>2206</name>
</trkpt>
<trkpt lat="48.935895" lon="8.644300">
<ele>353.5</ele>
<speed>1.48</speed>
<course>130.2</course>
<desc>Speed 5.3 km/h Distance 3.55 km</desc>
<time>2010-10-23T17:15:56.33</time>
<name>2207</name>
</trkpt>
<trkpt lat="48.935887" lon="8.644315">
<ele>354.0</ele>
<speed>1.37</speed>
<course>135.4</course>
<desc>Speed 4.9 km/h Distance 3.55 km</desc>
<time>2010-10-23T17:15:57.33</time>
<name>2208</name>
</trkpt>
<trkpt lat="48.935877" lon="8.644330">
<ele>354.0</ele>
<speed>1.52</speed>
<course>119.0</course>
<desc>Speed 5.5 km/h Distance 3.56 km</desc>
<time>2010-10-23T17:15:58.33</time>
<name>2209</name>
</trkpt>
<trkpt lat="48.935870" lon="8.644348">
<ele>355.0</ele>
<speed>1.38</speed>
<course>127.2</course>
<desc>Speed 5.0 km/h Distance 3.56 km</desc>
<time>2010-10-23T17:15:59.33</time>
<name>2210</name>
</trkpt>
<trkpt lat="48.935863" lon="8.644362">
<ele>355.0</ele>
<speed>1.30</speed>
<course>127.3</course>
<desc>Speed 4.7 km/h Distance 3.56 km</desc>
<time>2010-10-23T17:16:00.33</time>
<name>2211</name>
</trkpt>
<trkpt lat="48.935855" lon="8.644378">
<ele>355.5</ele>
<speed>1.55</speed>
<course>127.3</course>
<desc>Speed 5.6 km/h Distance 3.56 km</desc>
<time>2010-10-23T17:16:01.33</time>
<name>2212</name>
</trkpt>
<trkpt lat="48.935847" lon="8.644395">
<ele>356.0</ele>
<speed>1.55</speed>
<course>129.7</course>
<desc>Speed 5.6 km/h Distance 3.56 km</desc>
<time>2010-10-23T17:16:02.33</time>
<name>2213</name>
</trkpt>
<trkpt lat="48.935837" lon="8.644413">
<ele>356.0</ele>
<speed>1.50</speed>
<course>136.7</course>
<desc>Speed 5.4 km/h Distance 3.56 km</desc>
<time>2010-10-23T17:16:03.33</time>
<name>2214</name>
</trkpt>
<trkpt lat="48.935825" lon="8.644430">
<ele>356.5</ele>
<speed>1.53</speed>
<course>132.4</course>
<desc>Speed 5.5 km/h Distance 3.56 km</desc>
<time>2010-10-23T17:16:04.33</time>
<name>2215</name>
</trkpt>
<trkpt lat="48.935815" lon="8.644447">
<ele>356.0</ele>
<speed>1.57</speed>
<course>139.8</course>
<desc>Speed 5.7 km/h Distance 3.57 km</desc>
<time>2010-10-23T17:16:05.33</time>
<name>2216</name>
</trkpt>
<trkpt lat="48.935803" lon="8.644462">
<ele>355.5</ele>
<speed>1.80</speed>
<course>135.5</course>
<desc>Speed 6.5 km/h Distance 3.57 km</desc>
<time>2010-10-23T17:16:06.33</time>
<name>2217</name>
</trkpt>
<trkpt lat="48.935793" lon="8.644477">
<ele>356.0</ele>
<speed>1.48</speed>
<course>138.8</course>
<desc>Speed 5.3 km/h Distance 3.57 km</desc>
<time>2010-10-23T17:16:07.33</time>
<name>2218</name>
</trkpt>
<trkpt lat="48.935783" lon="8.644490">
<ele>356.0</ele>
<speed>1.48</speed>
<course>135.5</course>
<desc>Speed 5.3 km/h Distance 3.57 km</desc>
<time>2010-10-23T17:16:08.33</time>
<name>2219</name>
</trkpt>
<trkpt lat="48.935773" lon="8.644505">
<ele>356.0</ele>
<speed>1.59</speed>
<course>143.1</course>
<desc>Speed 5.7 km/h Distance 3.57 km</desc>
<time>2010-10-23T17:16:09.33</time>
<name>2220</name>
</trkpt>
<trkpt lat="48.935762" lon="8.644518">
<ele>356.0</ele>
<speed>1.62</speed>
<course>142.8</course>
<desc>Speed 5.8 km/h Distance 3.57 km</desc>
<time>2010-10-23T17:16:10.33</time>
<name>2221</name>
</trkpt>
<trkpt lat="48.935750" lon="8.644532">
<ele>356.0</ele>
<speed>1.59</speed>
<course>143.1</course>
<desc>Speed 5.7 km/h Distance 3.58 km</desc>
<time>2010-10-23T17:16:11.33</time>
<name>2222</name>
</trkpt>
<trkpt lat="48.935738" lon="8.644545">
<ele>356.0</ele>
<speed>1.55</speed>
<course>143.1</course>
<desc>Speed 5.6 km/h Distance 3.58 km</desc>
<time>2010-10-23T17:16:12.33</time>
<name>2223</name>
</trkpt>
<trkpt lat="48.935727" lon="8.644558">
<ele>356.5</ele>
<speed>1.58</speed>
<course>139.8</course>
<desc>Speed 5.7 km/h Distance 3.58 km</desc>
<time>2010-10-23T17:16:13.33</time>
<name>2224</name>
</trkpt>
<trkpt lat="48.935715" lon="8.644573">
<ele>356.5</ele>
<speed>1.62</speed>
<course>146.9</course>
<desc>Speed 5.8 km/h Distance 3.58 km</desc>
<time>2010-10-23T17:16:14.33</time>
<name>2225</name>
</trkpt>
<trkpt lat="48.935703" lon="8.644585">
<ele>356.5</ele>
<speed>1.53</speed>
<course>150.6</course>
<desc>Speed 5.5 km/h Distance 3.58 km</desc>
<time>2010-10-23T17:16:15.33</time>
<name>2226</name>
</trkpt>
<trkpt lat="48.935692" lon="8.644595">
<ele>356.5</ele>
<speed>1.41</speed>
<course>157.4</course>
<desc>Speed 5.1 km/h Distance 3.58 km</desc>
<time>2010-10-23T17:16:16.33</time>
<name>2227</name>
</trkpt>
<trkpt lat="48.935678" lon="8.644603">
<ele>356.5</ele>
<speed>1.61</speed>
<course>166.5</course>
<desc>Speed 5.8 km/h Distance 3.59 km</desc>
<time>2010-10-23T17:16:17.33</time>
<name>2228</name>
</trkpt>
<trkpt lat="48.935665" lon="8.644608">
<ele>356.5</ele>
<speed>1.60</speed>
<course>166.5</course>
<desc>Speed 5.8 km/h Distance 3.59 km</desc>
<time>2010-10-23T17:16:18.33</time>
<name>2229</name>
</trkpt>
<trkpt lat="48.935652" lon="8.644613">
<ele>357.0</ele>
<speed>1.49</speed>
<course>176.2</course>
<desc>Speed 5.4 km/h Distance 3.59 km</desc>
<time>2010-10-23T17:16:19.33</time>
<name>2230</name>
</trkpt>
<trkpt lat="48.935637" lon="8.644615">
<ele>357.0</ele>
<speed>1.75</speed>
<course>180.0</course>
<desc>Speed 6.3 km/h Distance 3.59 km</desc>
<time>2010-10-23T17:16:20.33</time>
<name>2231</name>
</trkpt>
<trkpt lat="48.935622" lon="8.644615">
<ele>357.0</ele>
<speed>1.59</speed>
<course>183.9</course>
<desc>Speed 5.7 km/h Distance 3.59 km</desc>
<time>2010-10-23T17:16:21.33</time>
<name>2232</name>
</trkpt>
<trkpt lat="48.935608" lon="8.644613">
<ele>357.0</ele>
<speed>1.57</speed>
<course>176.2</course>
<desc>Speed 5.7 km/h Distance 3.59 km</desc>
<time>2010-10-23T17:16:22.33</time>
<name>2233</name>
</trkpt>
<trkpt lat="48.935593" lon="8.644615">
<ele>356.5</ele>
<speed>1.53</speed>
<course>161.9</course>
<desc>Speed 5.5 km/h Distance 3.60 km</desc>
<time>2010-10-23T17:16:23.33</time>
<name>2234</name>
</trkpt>
<trkpt lat="48.935580" lon="8.644622">
<ele>356.5</ele>
<speed>1.51</speed>
<course>169.6</course>
<desc>Speed 5.4 km/h Distance 3.60 km</desc>
<time>2010-10-23T17:16:24.33</time>
<name>2235</name>
</trkpt>
<trkpt lat="48.935568" lon="8.644625">
<ele>356.5</ele>
<speed>1.37</speed>
<course>154.8</course>
<desc>Speed 4.9 km/h Distance 3.60 km</desc>
<time>2010-10-23T17:16:25.33</time>
<name>2236</name>
</trkpt>
<trkpt lat="48.935557" lon="8.644633">
<ele>356.5</ele>
<speed>1.26</speed>
<course>157.7</course>
<desc>Speed 4.5 km/h Distance 3.60 km</desc>
<time>2010-10-23T17:16:26.33</time>
<name>2237</name>
</trkpt>
<trkpt lat="48.935543" lon="8.644642">
<ele>356.5</ele>
<speed>1.59</speed>
<course>157.9</course>
<desc>Speed 5.7 km/h Distance 3.60 km</desc>
<time>2010-10-23T17:16:27.33</time>
<name>2238</name>
</trkpt>
<trkpt lat="48.935530" lon="8.644650">
<ele>356.5</ele>
<speed>1.62</speed>
<course>150.2</course>
<desc>Speed 5.8 km/h Distance 3.60 km</desc>
<time>2010-10-23T17:16:28.33</time>
<name>2239</name>
</trkpt>
<trkpt lat="48.935517" lon="8.644662">
<ele>356.5</ele>
<speed>1.55</speed>
<course>150.2</course>
<desc>Speed 5.6 km/h Distance 3.60 km</desc>
<time>2010-10-23T17:16:29.33</time>
<name>2240</name>
</trkpt>
<trkpt lat="48.935503" lon="8.644673">
<ele>356.5</ele>
<speed>1.57</speed>
<course>150.6</course>
<desc>Speed 5.7 km/h Distance 3.61 km</desc>
<time>2010-10-23T17:16:30.33</time>
<name>2241</name>
</trkpt>
<trkpt lat="48.935492" lon="8.644683">
<ele>356.5</ele>
<speed>1.46</speed>
<course>150.0</course>
<desc>Speed 5.3 km/h Distance 3.61 km</desc>
<time>2010-10-23T17:16:31.33</time>
<name>2242</name>
</trkpt>
<trkpt lat="48.935478" lon="8.644695">
<ele>356.5</ele>
<speed>1.57</speed>
<course>143.6</course>
<desc>Speed 5.7 km/h Distance 3.61 km</desc>
<time>2010-10-23T17:16:32.33</time>
<name>2243</name>
</trkpt>
<trkpt lat="48.935465" lon="8.644710">
<ele>356.5</ele>
<speed>1.58</speed>
<course>146.8</course>
<desc>Speed 5.7 km/h Distance 3.61 km</desc>
<time>2010-10-23T17:16:33.33</time>
<name>2244</name>
</trkpt>
<trkpt lat="48.935452" lon="8.644723">
<ele>356.5</ele>
<speed>1.69</speed>
<course>146.7</course>
<desc>Speed 6.1 km/h Distance 3.61 km</desc>
<time>2010-10-23T17:16:34.33</time>
<name>2245</name>
</trkpt>
<trkpt lat="48.935438" lon="8.644737">
<ele>357.0</ele>
<speed>1.63</speed>
<course>146.6</course>
<desc>Speed 5.9 km/h Distance 3.61 km</desc>
<time>2010-10-23T17:16:35.33</time>
<name>2246</name>
</trkpt>
<trkpt lat="48.935425" lon="8.644750">
<ele>357.0</ele>
<speed>1.78</speed>
<course>150.2</course>
<desc>Speed 6.4 km/h Distance 3.62 km</desc>
<time>2010-10-23T17:16:36.33</time>
<name>2247</name>
</trkpt>
<trkpt lat="48.935412" lon="8.644762">
<ele>357.0</ele>
<speed>1.62</speed>
<course>143.1</course>
<desc>Speed 5.8 km/h Distance 3.62 km</desc>
<time>2010-10-23T17:16:37.33</time>
<name>2248</name>
</trkpt>
<trkpt lat="48.935400" lon="8.644775">
<ele>357.0</ele>
<speed>1.60</speed>
<course>146.8</course>
<desc>Speed 5.8 km/h Distance 3.62 km</desc>
<time>2010-10-23T17:16:38.33</time>
<name>2249</name>
</trkpt>
<trkpt lat="48.935387" lon="8.644788">
<ele>357.0</ele>
<speed>1.70</speed>
<course>146.7</course>
<desc>Speed 6.1 km/h Distance 3.62 km</desc>
<time>2010-10-23T17:16:39.33</time>
<name>2250</name>
</trkpt>
<trkpt lat="48.935373" lon="8.644802">
<ele>357.0</ele>
<speed>1.59</speed>
<course>150.2</course>
<desc>Speed 5.7 km/h Distance 3.62 km</desc>
<time>2010-10-23T17:16:40.33</time>
<name>2251</name>
</trkpt>
<trkpt lat="48.935360" lon="8.644813">
<ele>357.0</ele>
<speed>1.55</speed>
<course>150.2</course>
<desc>Speed 5.6 km/h Distance 3.63 km</desc>
<time>2010-10-23T17:16:41.33</time>
<name>2252</name>
</trkpt>
<trkpt lat="48.935347" lon="8.644825">
<ele>356.5</ele>
<speed>1.62</speed>
<course>146.7</course>
<desc>Speed 5.8 km/h Distance 3.63 km</desc>
<time>2010-10-23T17:16:42.33</time>
<name>2253</name>
</trkpt>
<trkpt lat="48.935335" lon="8.644837">
<ele>356.5</ele>
<speed>1.61</speed>
<course>153.1</course>
<desc>Speed 5.8 km/h Distance 3.63 km</desc>
<time>2010-10-23T17:16:43.33</time>
<name>2254</name>
</trkpt>
<trkpt lat="48.935320" lon="8.644848">
<ele>356.5</ele>
<speed>1.76</speed>
<course>154.8</course>
<desc>Speed 6.3 km/h Distance 3.63 km</desc>
<time>2010-10-23T17:16:44.33</time>
<name>2255</name>
</trkpt>
<trkpt lat="48.935308" lon="8.644857">
<ele>356.5</ele>
<speed>1.46</speed>
<course>146.7</course>
<desc>Speed 5.3 km/h Distance 3.63 km</desc>
<time>2010-10-23T17:16:45.33</time>
<name>2256</name>
</trkpt>
<trkpt lat="48.935297" lon="8.644868">
<ele>356.5</ele>
<speed>1.37</speed>
<course>165.1</course>
<desc>Speed 4.9 km/h Distance 3.63 km</desc>
<time>2010-10-23T17:16:46.33</time>
<name>2257</name>
</trkpt>
<trkpt lat="48.935288" lon="8.644872">
<ele>356.0</ele>
<speed>0.98</speed>
<course>132.9</course>
<desc>Speed 3.5 km/h Distance 3.63 km</desc>
<time>2010-10-23T17:16:47.33</time>
<name>2258</name>
</trkpt>
<trkpt lat="48.935283" lon="8.644880">
<ele>356.0</ele>
<speed>0.72</speed>
<course>146.7</course>
<desc>Speed 2.6 km/h Distance 3.63 km</desc>
<time>2010-10-23T17:16:49.33</time>
<name>2259</name>
</trkpt>
<trkpt lat="48.935272" lon="8.644892">
<ele>356.0</ele>
<speed>1.48</speed>
<course>163.4</course>
<desc>Speed 5.3 km/h Distance 3.64 km</desc>
<time>2010-10-23T17:16:50.33</time>
<name>2260</name>
</trkpt>
<trkpt lat="48.935257" lon="8.644898">
<ele>356.0</ele>
<speed>1.66</speed>
<course>157.9</course>
<desc>Speed 6.0 km/h Distance 3.64 km</desc>
<time>2010-10-23T17:16:51.33</time>
<name>2261</name>
</trkpt>
<trkpt lat="48.935243" lon="8.644907">
<ele>356.0</ele>
<speed>1.59</speed>
<course>150.2</course>
<desc>Speed 5.7 km/h Distance 3.64 km</desc>
<time>2010-10-23T17:16:52.33</time>
<name>2262</name>
</trkpt>
<trkpt lat="48.935230" lon="8.644918">
<ele>356.0</ele>
<speed>1.60</speed>
<course>150.0</course>
<desc>Speed 5.8 km/h Distance 3.64 km</desc>
<time>2010-10-23T17:16:53.33</time>
<name>2263</name>
</trkpt>
<trkpt lat="48.935217" lon="8.644930">
<ele>355.5</ele>
<speed>1.70</speed>
<course>150.0</course>
<desc>Speed 6.1 km/h Distance 3.64 km</desc>
<time>2010-10-23T17:16:54.33</time>
<name>2264</name>
</trkpt>
<trkpt lat="48.935203" lon="8.644942">
<ele>355.5</ele>
<speed>1.60</speed>
<course>146.6</course>
<desc>Speed 5.8 km/h Distance 3.65 km</desc>
<time>2010-10-23T17:16:55.33</time>
<name>2265</name>
</trkpt>
<trkpt lat="48.935190" lon="8.644955">
<ele>355.5</ele>
<speed>1.67</speed>
<course>146.6</course>
<desc>Speed 6.0 km/h Distance 3.65 km</desc>
<time>2010-10-23T17:16:56.33</time>
<name>2266</name>
</trkpt>
<trkpt lat="48.935178" lon="8.644967">
<ele>355.5</ele>
<speed>1.53</speed>
<course>143.1</course>
<desc>Speed 5.5 km/h Distance 3.65 km</desc>
<time>2010-10-23T17:16:57.33</time>
<name>2267</name>
</trkpt>
<trkpt lat="48.935167" lon="8.644980">
<ele>355.5</ele>
<speed>1.54</speed>
<course>143.1</course>
<desc>Speed 5.5 km/h Distance 3.65 km</desc>
<time>2010-10-23T17:16:58.33</time>
<name>2268</name>
</trkpt>
<trkpt lat="48.935155" lon="8.644993">
<ele>355.5</ele>
<speed>1.57</speed>
<course>150.6</course>
<desc>Speed 5.7 km/h Distance 3.65 km</desc>
<time>2010-10-23T17:16:59.33</time>
<name>2269</name>
</trkpt>
<trkpt lat="48.935143" lon="8.645003">
<ele>355.5</ele>
<speed>1.46</speed>
<course>143.1</course>
<desc>Speed 5.3 km/h Distance 3.65 km</desc>
<time>2010-10-23T17:17:00.33</time>
<name>2270</name>
</trkpt>
<trkpt lat="48.935132" lon="8.645017">
<ele>355.5</ele>
<speed>1.45</speed>
<course>154.0</course>
<desc>Speed 5.2 km/h Distance 3.65 km</desc>
<time>2010-10-23T17:17:01.33</time>
<name>2271</name>
</trkpt>
<trkpt lat="48.935118" lon="8.645027">
<ele>355.5</ele>
<speed>1.50</speed>
<course>150.2</course>
<desc>Speed 5.4 km/h Distance 3.66 km</desc>
<time>2010-10-23T17:17:02.33</time>
<name>2272</name>
</trkpt>
<trkpt lat="48.935105" lon="8.645038">
<ele>355.0</ele>
<speed>1.66</speed>
<course>155.4</course>
<desc>Speed 6.0 km/h Distance 3.66 km</desc>
<time>2010-10-23T17:17:03.33</time>
<name>2273</name>
</trkpt>
<trkpt lat="48.935088" lon="8.645050">
<ele>354.5</ele>
<speed>2.03</speed>
<course>146.7</course>
<desc>Speed 7.3 km/h Distance 3.66 km</desc>
<time>2010-10-23T17:17:04.52</time>
<name>2274</name>
</trkpt>
<trkpt lat="48.935077" lon="8.645062">
<ele>354.5</ele>
<speed>1.47</speed>
<course>140.1</course>
<desc>Speed 5.3 km/h Distance 3.66 km</desc>
<time>2010-10-23T17:17:05.40</time>
<name>2275</name>
</trkpt>
<trkpt lat="48.935058" lon="8.645085">
<ele>354.5</ele>
<speed>1.17</speed>
<course>135.4</course>
<desc>Speed 4.2 km/h Distance 3.66 km</desc>
<time>2010-10-23T17:17:07.49</time>
<name>2276</name>
</trkpt>
<trkpt lat="48.935048" lon="8.645100">
<ele>354.0</ele>
<speed>0.77</speed>
<course>198.8</course>
<desc>Speed 2.8 km/h Distance 3.67 km</desc>
<time>2010-10-23T17:17:08.89</time>
<name>2277</name>
</trkpt>
<trkpt lat="48.935045" lon="8.645098">
<ele>354.0</ele>
<speed>0.38</speed>
<course>299.3</course>
<desc>Speed 1.4 km/h Distance 3.67 km</desc>
<time>2010-10-23T17:17:10.43</time>
<name>2278</name>
</trkpt>
<trkpt lat="48.935057" lon="8.645067">
<ele>354.5</ele>
<speed>0.94</speed>
<course>314.6</course>
<desc>Speed 3.4 km/h Distance 3.67 km</desc>
<time>2010-10-23T17:17:14.89</time>
<name>2279</name>
</trkpt>
<trkpt lat="48.935097" lon="8.645005">
<ele>355.5</ele>
<speed>2.85</speed>
<course>86.8</course>
<desc>Speed 10.3 km/h Distance 3.68 km</desc>
<time>2010-10-23T17:17:18.89</time>
<name>2280</name>
</trkpt>
<trkpt lat="48.935100" lon="8.645095">
<ele>355.5</ele>
<speed>3.34</speed>
<course>90.0</course>
<desc>Speed 12.0 km/h Distance 3.68 km</desc>
<time>2010-10-23T17:17:20.89</time>
<name>2281</name>
</trkpt>
<trkpt lat="48.935100" lon="8.645125">
<ele>355.5</ele>
<speed>3.34</speed>
<course>90.0</course>
<desc>Speed 12.0 km/h Distance 3.68 km</desc>
<time>2010-10-23T17:17:21.87</time>
<name>2282</name>
</trkpt>
<trkpt lat="48.935100" lon="8.645147">
<ele>355.5</ele>
<speed>3.34</speed>
<course>21.5</course>
<desc>Speed 12.0 km/h Distance 3.69 km</desc>
<time>2010-10-23T17:17:22.97</time>
<name>2283</name>
</trkpt>
<trkpt lat="48.935117" lon="8.645157">
<ele>355.5</ele>
<speed>2.22</speed>
<course>31.2</course>
<desc>Speed 8.0 km/h Distance 3.69 km</desc>
<time>2010-10-23T17:17:24.13</time>
<name>2284</name>
</trkpt>
<trkpt lat="48.935138" lon="8.645177">
<ele>355.0</ele>
<speed>2.22</speed>
<course>21.5</course>
<desc>Speed 8.0 km/h Distance 3.69 km</desc>
<time>2010-10-23T17:17:25.86</time>
<name>2285</name>
</trkpt>
<trkpt lat="48.935147" lon="8.645182">
<ele>355.0</ele>
<speed>2.22</speed>
<course>85.2</course>
<desc>Speed 8.0 km/h Distance 3.69 km</desc>
<time>2010-10-23T17:17:26.88</time>
<name>2286</name>
</trkpt>
<trkpt lat="48.935148" lon="8.645212">
<ele>355.0</ele>
<speed>2.22</speed>
<course>90.0</course>
<desc>Speed 8.0 km/h Distance 3.69 km</desc>
<time>2010-10-23T17:17:28.18</time>
<name>2287</name>
</trkpt>
<trkpt lat="48.935148" lon="8.645242">
<ele>355.0</ele>
<speed>2.22</speed>
<course>1.2</course>
<desc>Speed 8.0 km/h Distance 3.70 km</desc>
<time>2010-10-23T17:17:28.84</time>
<name>2288</name>
</trkpt>
<trkpt lat="48.935162" lon="8.645243">
<ele>355.0</ele>
<speed>3.05</speed>
<course>84.9</course>
<desc>Speed 11.0 km/h Distance 3.70 km</desc>
<time>2010-10-23T17:17:29.84</time>
<name>2289</name>
</trkpt>
<trkpt lat="48.935168" lon="8.645357">
<ele>354.5</ele>
<speed>1.53</speed>
<course>29.4</course>
<desc>Speed 5.5 km/h Distance 3.71 km</desc>
<time>2010-10-23T17:17:32.98</time>
<name>2290</name>
</trkpt>
<trkpt lat="48.935180" lon="8.645367">
<ele>354.5</ele>
<speed>1.53</speed>
<course>49.7</course>
<desc>Speed 5.5 km/h Distance 3.71 km</desc>
<time>2010-10-23T17:17:33.91</time>
<name>2291</name>
</trkpt>
<trkpt lat="48.935188" lon="8.645382">
<ele>354.5</ele>
<speed>1.73</speed>
<course>30.9</course>
<desc>Speed 6.2 km/h Distance 3.71 km</desc>
<time>2010-10-23T17:17:34.89</time>
<name>2292</name>
</trkpt>
<trkpt lat="48.935207" lon="8.645398">
<ele>354.0</ele>
<speed>1.41</speed>
<course>27.2</course>
<desc>Speed 5.1 km/h Distance 3.71 km</desc>
<time>2010-10-23T17:17:35.89</time>
<name>2293</name>
</trkpt>
<trkpt lat="48.935222" lon="8.645410">
<ele>353.5</ele>
<speed>1.22</speed>
<course>73.1</course>
<desc>Speed 4.4 km/h Distance 3.71 km</desc>
<time>2010-10-23T17:17:36.89</time>
<name>2294</name>
</trkpt>
<trkpt lat="48.935227" lon="8.645435">
<ele>353.5</ele>
<speed>1.08</speed>
<course>97.2</course>
<desc>Speed 3.9 km/h Distance 3.71 km</desc>
<time>2010-10-23T17:17:37.88</time>
<name>2295</name>
</trkpt>
<trkpt lat="48.935223" lon="8.645475">
<ele>352.5</ele>
<speed>1.05</speed>
<course>97.9</course>
<desc>Speed 3.8 km/h Distance 3.72 km</desc>
<time>2010-10-23T17:17:38.87</time>
<name>2296</name>
</trkpt>
<trkpt lat="48.935220" lon="8.645512">
<ele>351.0</ele>
<speed>0.74</speed>
<course>60.3</course>
<desc>Speed 2.7 km/h Distance 3.72 km</desc>
<time>2010-10-23T17:17:39.89</time>
<name>2297</name>
</trkpt>
<trkpt lat="48.935230" lon="8.645538">
<ele>352.0</ele>
<speed>1.90</speed>
<course>61.8</course>
<desc>Speed 6.8 km/h Distance 3.72 km</desc>
<time>2010-10-23T17:17:40.85</time>
<name>2298</name>
</trkpt>
<trkpt lat="48.935240" lon="8.645567">
<ele>352.0</ele>
<speed>1.60</speed>
<course>41.2</course>
<desc>Speed 5.8 km/h Distance 3.73 km</desc>
<time>2010-10-23T17:17:41.85</time>
<name>2299</name>
</trkpt>
<trkpt lat="48.935250" lon="8.645580">
<ele>351.5</ele>
<speed>1.39</speed>
<course>58.7</course>
<desc>Speed 5.0 km/h Distance 3.73 km</desc>
<time>2010-10-23T17:17:42.84</time>
<name>2300</name>
</trkpt>
<trkpt lat="48.935257" lon="8.645597">
<ele>351.0</ele>
<speed>1.28</speed>
<course>76.8</course>
<desc>Speed 4.6 km/h Distance 3.73 km</desc>
<time>2010-10-23T17:17:43.85</time>
<name>2301</name>
</trkpt>
<trkpt lat="48.935260" lon="8.645618">
<ele>350.5</ele>
<speed>1.30</speed>
<course>61.0</course>
<desc>Speed 4.7 km/h Distance 3.73 km</desc>
<time>2010-10-23T17:17:44.83</time>
<name>2302</name>
</trkpt>
<trkpt lat="48.935267" lon="8.645637">
<ele>350.5</ele>
<speed>1.28</speed>
<course>326.8</course>
<desc>Speed 4.6 km/h Distance 3.73 km</desc>
<time>2010-10-23T17:17:45.82</time>
<name>2303</name>
</trkpt>
<trkpt lat="48.935277" lon="8.645627">
<ele>350.0</ele>
<speed>1.14</speed>
<course>16.0</course>
<desc>Speed 4.1 km/h Distance 3.73 km</desc>
<time>2010-10-23T17:17:46.81</time>
<name>2304</name>
</trkpt>
<trkpt lat="48.935292" lon="8.645633">
<ele>349.5</ele>
<speed>1.58</speed>
<course>41.2</course>
<desc>Speed 5.7 km/h Distance 3.73 km</desc>
<time>2010-10-23T17:17:47.80</time>
<name>2305</name>
</trkpt>
<trkpt lat="48.935302" lon="8.645647">
<ele>349.5</ele>
<speed>1.48</speed>
<course>65.4</course>
<desc>Speed 5.3 km/h Distance 3.74 km</desc>
<time>2010-10-23T17:17:48.79</time>
<name>2306</name>
</trkpt>
<trkpt lat="48.935307" lon="8.645663">
<ele>349.5</ele>
<speed>1.41</speed>
<course>67.4</course>
<desc>Speed 5.1 km/h Distance 3.74 km</desc>
<time>2010-10-23T17:17:49.77</time>
<name>2307</name>
</trkpt>
<trkpt lat="48.935312" lon="8.645682">
<ele>349.0</ele>
<speed>1.50</speed>
<course>63.1</course>
<desc>Speed 5.4 km/h Distance 3.74 km</desc>
<time>2010-10-23T17:17:50.77</time>
<name>2308</name>
</trkpt>
<trkpt lat="48.935317" lon="8.645697">
<ele>349.0</ele>
<speed>1.38</speed>
<course>53.0</course>
<desc>Speed 5.0 km/h Distance 3.74 km</desc>
<time>2010-10-23T17:17:51.75</time>
<name>2309</name>
</trkpt>
<trkpt lat="48.935323" lon="8.645710">
<ele>348.5</ele>
<speed>1.12</speed>
<course>49.8</course>
<desc>Speed 4.0 km/h Distance 3.74 km</desc>
<time>2010-10-23T17:17:52.75</time>
<name>2310</name>
</trkpt>
<trkpt lat="48.935332" lon="8.645725">
<ele>348.5</ele>
<speed>1.27</speed>
<course>74.5</course>
<desc>Speed 4.6 km/h Distance 3.74 km</desc>
<time>2010-10-23T17:17:53.73</time>
<name>2311</name>
</trkpt>
<trkpt lat="48.935335" lon="8.645743">
<ele>348.5</ele>
<speed>1.28</speed>
<course>83.8</course>
<desc>Speed 4.6 km/h Distance 3.74 km</desc>
<time>2010-10-23T17:17:54.73</time>
<name>2312</name>
</trkpt>
<trkpt lat="48.935337" lon="8.645767">
<ele>349.0</ele>
<speed>1.53</speed>
<course>71.9</course>
<desc>Speed 5.5 km/h Distance 3.75 km</desc>
<time>2010-10-23T17:17:55.72</time>
<name>2313</name>
</trkpt>
<trkpt lat="48.935342" lon="8.645790">
<ele>349.0</ele>
<speed>1.61</speed>
<course>78.5</course>
<desc>Speed 5.8 km/h Distance 3.75 km</desc>
<time>2010-10-23T17:17:56.71</time>
<name>2314</name>
</trkpt>
<trkpt lat="48.935345" lon="8.645815">
<ele>349.0</ele>
<speed>1.66</speed>
<course>84.2</course>
<desc>Speed 6.0 km/h Distance 3.75 km</desc>
<time>2010-10-23T17:17:57.70</time>
<name>2315</name>
</trkpt>
<trkpt lat="48.935347" lon="8.645840">
<ele>348.5</ele>
<speed>1.50</speed>
<course>82.8</course>
<desc>Speed 5.4 km/h Distance 3.75 km</desc>
<time>2010-10-23T17:17:58.69</time>
<name>2316</name>
</trkpt>
<trkpt lat="48.935348" lon="8.645860">
<ele>348.5</ele>
<speed>1.30</speed>
<course>90.0</course>
<desc>Speed 4.7 km/h Distance 3.75 km</desc>
<time>2010-10-23T17:17:59.69</time>
<name>2317</name>
</trkpt>
<trkpt lat="48.935348" lon="8.645882">
<ele>348.5</ele>
<speed>1.32</speed>
<course>102.3</course>
<desc>Speed 4.8 km/h Distance 3.75 km</desc>
<time>2010-10-23T17:18:00.69</time>
<name>2318</name>
</trkpt>
<trkpt lat="48.935343" lon="8.645917">
<ele>348.0</ele>
<speed>2.33</speed>
<course>94.6</course>
<desc>Speed 8.4 km/h Distance 3.76 km</desc>
<time>2010-10-23T17:18:01.68</time>
<name>2319</name>
</trkpt>
<trkpt lat="48.935342" lon="8.645948">
<ele>348.0</ele>
<speed>1.75</speed>
<course>90.0</course>
<desc>Speed 6.3 km/h Distance 3.76 km</desc>
<time>2010-10-23T17:18:02.68</time>
<name>2320</name>
</trkpt>
<trkpt lat="48.935342" lon="8.645975">
<ele>348.5</ele>
<speed>1.50</speed>
<course>104.2</course>
<desc>Speed 5.4 km/h Distance 3.76 km</desc>
<time>2010-10-23T17:18:03.67</time>
<name>2321</name>
</trkpt>
<trkpt lat="48.935338" lon="8.645995">
<ele>348.5</ele>
<speed>1.37</speed>
<course>99.6</course>
<desc>Speed 4.9 km/h Distance 3.76 km</desc>
<time>2010-10-23T17:18:04.66</time>
<name>2322</name>
</trkpt>
<trkpt lat="48.935337" lon="8.646010">
<ele>348.5</ele>
<speed>1.09</speed>
<course>96.2</course>
<desc>Speed 3.9 km/h Distance 3.76 km</desc>
<time>2010-10-23T17:18:05.66</time>
<name>2323</name>
</trkpt>
<trkpt lat="48.935335" lon="8.646033">
<ele>348.5</ele>
<speed>1.63</speed>
<course>96.2</course>
<desc>Speed 5.9 km/h Distance 3.77 km</desc>
<time>2010-10-23T17:18:06.65</time>
<name>2324</name>
</trkpt>
<trkpt lat="48.935333" lon="8.646057">
<ele>348.5</ele>
<speed>1.50</speed>
<course>96.7</course>
<desc>Speed 5.4 km/h Distance 3.77 km</desc>
<time>2010-10-23T17:18:07.65</time>
<name>2325</name>
</trkpt>
<trkpt lat="48.935332" lon="8.646078">
<ele>348.5</ele>
<speed>1.52</speed>
<course>97.9</course>
<desc>Speed 5.5 km/h Distance 3.77 km</desc>
<time>2010-10-23T17:18:08.65</time>
<name>2326</name>
</trkpt>
<trkpt lat="48.935330" lon="8.646097">
<ele>349.0</ele>
<speed>1.35</speed>
<course>90.0</course>
<desc>Speed 4.9 km/h Distance 3.77 km</desc>
<time>2010-10-23T17:18:09.64</time>
<name>2327</name>
</trkpt>
<trkpt lat="48.935330" lon="8.646117">
<ele>349.5</ele>
<speed>1.46</speed>
<course>90.0</course>
<desc>Speed 5.3 km/h Distance 3.77 km</desc>
<time>2010-10-23T17:18:10.64</time>
<name>2328</name>
</trkpt>
<trkpt lat="48.935330" lon="8.646137">
<ele>349.5</ele>
<speed>1.52</speed>
<course>77.7</course>
<desc>Speed 5.5 km/h Distance 3.77 km</desc>
<time>2010-10-23T17:18:11.63</time>
<name>2329</name>
</trkpt>
<trkpt lat="48.935333" lon="8.646160">
<ele>350.0</ele>
<speed>1.69</speed>
<course>42.6</course>
<desc>Speed 6.1 km/h Distance 3.77 km</desc>
<time>2010-10-23T17:18:12.63</time>
<name>2330</name>
</trkpt>
<trkpt lat="48.935342" lon="8.646172">
<ele>350.5</ele>
<speed>1.23</speed>
<course>103.2</course>
<desc>Speed 4.4 km/h Distance 3.78 km</desc>
<time>2010-10-23T17:18:13.63</time>
<name>2331</name>
</trkpt>
<trkpt lat="48.935335" lon="8.646215">
<ele>351.0</ele>
<speed>3.06</speed>
<course>118.3</course>
<desc>Speed 11.0 km/h Distance 3.78 km</desc>
<time>2010-10-23T17:18:14.63</time>
<name>2332</name>
</trkpt>
<trkpt lat="48.935325" lon="8.646243">
<ele>351.0</ele>
<speed>2.49</speed>
<course>235.3</course>
<desc>Speed 9.0 km/h Distance 3.78 km</desc>
<time>2010-10-23T17:18:15.62</time>
<name>2333</name>
</trkpt>
<trkpt lat="48.935317" lon="8.646225">
<ele>351.0</ele>
<speed>1.62</speed>
<course>33.2</course>
<desc>Speed 5.8 km/h Distance 3.78 km</desc>
<time>2010-10-23T17:18:16.61</time>
<name>2334</name>
</trkpt>
<trkpt lat="48.935322" lon="8.646230">
<ele>348.0</ele>
<speed>0.76</speed>
<course>90.0</course>
<desc>Speed 2.7 km/h Distance 3.78 km</desc>
<time>2010-10-23T17:18:17.61</time>
<name>2335</name>
</trkpt>
<trkpt lat="48.935322" lon="8.646247">
<ele>347.5</ele>
<speed>1.42</speed>
<course>75.8</course>
<desc>Speed 5.1 km/h Distance 3.78 km</desc>
<time>2010-10-23T17:18:18.60</time>
<name>2336</name>
</trkpt>
<trkpt lat="48.935325" lon="8.646267">
<ele>347.0</ele>
<speed>1.41</speed>
<course>119.7</course>
<desc>Speed 5.1 km/h Distance 3.79 km</desc>
<time>2010-10-23T17:18:19.60</time>
<name>2337</name>
</trkpt>
<trkpt lat="48.935320" lon="8.646280">
<ele>346.0</ele>
<speed>0.83</speed>
<course>52.6</course>
<desc>Speed 3.0 km/h Distance 3.79 km</desc>
<time>2010-10-23T17:18:21.59</time>
<name>2338</name>
</trkpt>
<trkpt lat="48.935325" lon="8.646290">
<ele>345.5</ele>
<speed>0.99</speed>
<course>82.8</course>
<desc>Speed 3.6 km/h Distance 3.79 km</desc>
<time>2010-10-23T17:18:23.58</time>
<name>2339</name>
</trkpt>
<trkpt lat="48.935327" lon="8.646310">
<ele>344.5</ele>
<speed>1.51</speed>
<course>105.5</course>
<desc>Speed 5.4 km/h Distance 3.79 km</desc>
<time>2010-10-23T17:18:24.58</time>
<name>2340</name>
</trkpt>
<trkpt lat="48.935323" lon="8.646328">
<ele>344.0</ele>
<speed>1.46</speed>
<course>105.5</course>
<desc>Speed 5.3 km/h Distance 3.79 km</desc>
<time>2010-10-23T17:18:25.57</time>
<name>2341</name>
</trkpt>
<trkpt lat="48.935320" lon="8.646347">
<ele>343.0</ele>
<speed>1.52</speed>
<course>90.0</course>
<desc>Speed 5.5 km/h Distance 3.79 km</desc>
<time>2010-10-23T17:18:26.56</time>
<name>2342</name>
</trkpt>
<trkpt lat="48.935320" lon="8.646368">
<ele>343.0</ele>
<speed>1.47</speed>
<course>74.5</course>
<desc>Speed 5.3 km/h Distance 3.79 km</desc>
<time>2010-10-23T17:18:27.56</time>
<name>2343</name>
</trkpt>
<trkpt lat="48.935323" lon="8.646387">
<ele>343.0</ele>
<speed>1.36</speed>
<course>97.2</course>
<desc>Speed 4.9 km/h Distance 3.80 km</desc>
<time>2010-10-23T17:18:28.55</time>
<name>2344</name>
</trkpt>
<trkpt lat="48.935322" lon="8.646407">
<ele>342.5</ele>
<speed>1.44</speed>
<course>83.3</course>
<desc>Speed 5.2 km/h Distance 3.80 km</desc>
<time>2010-10-23T17:18:29.54</time>
<name>2345</name>
</trkpt>
<trkpt lat="48.935323" lon="8.646428">
<ele>342.5</ele>
<speed>1.52</speed>
<course>69.2</course>
<desc>Speed 5.5 km/h Distance 3.80 km</desc>
<time>2010-10-23T17:18:30.53</time>
<name>2346</name>
</trkpt>
<trkpt lat="48.935328" lon="8.646448">
<ele>342.5</ele>
<speed>1.41</speed>
<course>83.8</course>
<desc>Speed 5.1 km/h Distance 3.80 km</desc>
<time>2010-10-23T17:18:31.53</time>
<name>2347</name>
</trkpt>
<trkpt lat="48.935330" lon="8.646472">
<ele>342.5</ele>
<speed>1.41</speed>
<course>71.9</course>
<desc>Speed 5.1 km/h Distance 3.80 km</desc>
<time>2010-10-23T17:18:32.52</time>
<name>2348</name>
</trkpt>
<trkpt lat="48.935335" lon="8.646495">
<ele>343.0</ele>
<speed>1.55</speed>
<course>71.9</course>
<desc>Speed 5.6 km/h Distance 3.80 km</desc>
<time>2010-10-23T17:18:33.52</time>
<name>2349</name>
</trkpt>
<trkpt lat="48.935340" lon="8.646518">
<ele>343.0</ele>
<speed>1.54</speed>
<course>64.9</course>
<desc>Speed 5.5 km/h Distance 3.81 km</desc>
<time>2010-10-23T17:18:34.51</time>
<name>2350</name>
</trkpt>
<trkpt lat="48.935347" lon="8.646540">
<ele>343.5</ele>
<speed>1.41</speed>
<course>71.9</course>
<desc>Speed 5.1 km/h Distance 3.81 km</desc>
<time>2010-10-23T17:18:35.51</time>
<name>2351</name>
</trkpt>
<trkpt lat="48.935352" lon="8.646563">
<ele>343.0</ele>
<speed>1.53</speed>
<course>63.1</course>
<desc>Speed 5.5 km/h Distance 3.81 km</desc>
<time>2010-10-23T17:18:36.51</time>
<name>2352</name>
</trkpt>
<trkpt lat="48.935358" lon="8.646583">
<ele>343.5</ele>
<speed>1.59</speed>
<course>64.9</course>
<desc>Speed 5.7 km/h Distance 3.81 km</desc>
<time>2010-10-23T17:18:37.51</time>
<name>2353</name>
</trkpt>
<trkpt lat="48.935365" lon="8.646605">
<ele>343.0</ele>
<speed>1.47</speed>
<course>71.9</course>
<desc>Speed 5.3 km/h Distance 3.81 km</desc>
<time>2010-10-23T17:18:38.50</time>
<name>2354</name>
</trkpt>
<trkpt lat="48.935370" lon="8.646628">
<ele>343.0</ele>
<speed>1.53</speed>
<course>70.6</course>
<desc>Speed 5.5 km/h Distance 3.81 km</desc>
<time>2010-10-23T17:18:39.49</time>
<name>2355</name>
</trkpt>
<trkpt lat="48.935375" lon="8.646650">
<ele>343.0</ele>
<speed>1.60</speed>
<course>57.6</course>
<desc>Speed 5.8 km/h Distance 3.82 km</desc>
<time>2010-10-23T17:18:40.48</time>
<name>2356</name>
</trkpt>
<trkpt lat="48.935383" lon="8.646670">
<ele>343.0</ele>
<speed>1.62</speed>
<course>61.0</course>
<desc>Speed 5.8 km/h Distance 3.82 km</desc>
<time>2010-10-23T17:18:41.47</time>
<name>2357</name>
</trkpt>
<trkpt lat="48.935390" lon="8.646688">
<ele>343.0</ele>
<speed>1.58</speed>
<course>63.1</course>
<desc>Speed 5.7 km/h Distance 3.82 km</desc>
<time>2010-10-23T17:18:42.47</time>
<name>2358</name>
</trkpt>
<trkpt lat="48.935397" lon="8.646708">
<ele>343.0</ele>
<speed>1.55</speed>
<course>50.3</course>
<desc>Speed 5.6 km/h Distance 3.82 km</desc>
<time>2010-10-23T17:18:43.47</time>
<name>2359</name>
</trkpt>
<trkpt lat="48.935407" lon="8.646727">
<ele>343.5</ele>
<speed>1.66</speed>
<course>55.3</course>
<desc>Speed 6.0 km/h Distance 3.82 km</desc>
<time>2010-10-23T17:18:44.46</time>
<name>2360</name>
</trkpt>
<trkpt lat="48.935415" lon="8.646745">
<ele>343.5</ele>
<speed>1.51</speed>
<course>52.7</course>
<desc>Speed 5.4 km/h Distance 3.82 km</desc>
<time>2010-10-23T17:18:45.46</time>
<name>2361</name>
</trkpt>
<trkpt lat="48.935425" lon="8.646765">
<ele>344.0</ele>
<speed>1.48</speed>
<course>52.7</course>
<desc>Speed 5.3 km/h Distance 3.83 km</desc>
<time>2010-10-23T17:18:46.44</time>
<name>2362</name>
</trkpt>
<trkpt lat="48.935435" lon="8.646785">
<ele>344.5</ele>
<speed>1.62</speed>
<course>44.5</course>
<desc>Speed 5.8 km/h Distance 3.83 km</desc>
<time>2010-10-23T17:18:47.43</time>
<name>2363</name>
</trkpt>
<trkpt lat="48.935448" lon="8.646805">
<ele>345.0</ele>
<speed>1.59</speed>
<course>46.9</course>
<desc>Speed 5.7 km/h Distance 3.83 km</desc>
<time>2010-10-23T17:18:48.43</time>
<name>2364</name>
</trkpt>
<trkpt lat="48.935462" lon="8.646827">
<ele>345.5</ele>
<speed>1.70</speed>
<course>44.6</course>
<desc>Speed 6.1 km/h Distance 3.83 km</desc>
<time>2010-10-23T17:18:49.43</time>
<name>2365</name>
</trkpt>
<trkpt lat="48.935475" lon="8.646847">
<ele>346.0</ele>
<speed>1.75</speed>
<course>48.4</course>
<desc>Speed 6.3 km/h Distance 3.83 km</desc>
<time>2010-10-23T17:18:50.43</time>
<name>2366</name>
</trkpt>
<trkpt lat="48.935487" lon="8.646867">
<ele>346.0</ele>
<speed>1.70</speed>
<course>50.4</course>
<desc>Speed 6.1 km/h Distance 3.84 km</desc>
<time>2010-10-23T17:18:51.42</time>
<name>2367</name>
</trkpt>
<trkpt lat="48.935497" lon="8.646885">
<ele>346.5</ele>
<speed>1.64</speed>
<course>50.4</course>
<desc>Speed 5.9 km/h Distance 3.84 km</desc>
<time>2010-10-23T17:18:52.41</time>
<name>2368</name>
</trkpt>
<trkpt lat="48.935507" lon="8.646903">
<ele>346.0</ele>
<speed>1.61</speed>
<course>40.3</course>
<desc>Speed 5.8 km/h Distance 3.84 km</desc>
<time>2010-10-23T17:18:53.40</time>
<name>2369</name>
</trkpt>
<trkpt lat="48.935518" lon="8.646918">
<ele>346.0</ele>
<speed>1.60</speed>
<course>50.3</course>
<desc>Speed 5.8 km/h Distance 3.84 km</desc>
<time>2010-10-23T17:18:54.40</time>
<name>2370</name>
</trkpt>
<trkpt lat="48.935528" lon="8.646937">
<ele>346.0</ele>
<speed>1.74</speed>
<course>50.3</course>
<desc>Speed 6.3 km/h Distance 3.84 km</desc>
<time>2010-10-23T17:18:55.39</time>
<name>2371</name>
</trkpt>
<trkpt lat="48.935538" lon="8.646955">
<ele>345.5</ele>
<speed>1.60</speed>
<course>43.2</course>
<desc>Speed 5.8 km/h Distance 3.84 km</desc>
<time>2010-10-23T17:18:56.39</time>
<name>2372</name>
</trkpt>
<trkpt lat="48.935550" lon="8.646972">
<ele>345.0</ele>
<speed>1.61</speed>
<course>43.2</course>
<desc>Speed 5.8 km/h Distance 3.85 km</desc>
<time>2010-10-23T17:18:57.39</time>
<name>2373</name>
</trkpt>
<trkpt lat="48.935562" lon="8.646988">
<ele>345.0</ele>
<speed>1.71</speed>
<course>55.4</course>
<desc>Speed 6.2 km/h Distance 3.85 km</desc>
<time>2010-10-23T17:18:58.38</time>
<name>2374</name>
</trkpt>
<trkpt lat="48.935570" lon="8.647007">
<ele>345.0</ele>
<speed>1.61</speed>
<course>45.9</course>
<desc>Speed 5.8 km/h Distance 3.85 km</desc>
<time>2010-10-23T17:18:59.38</time>
<name>2375</name>
</trkpt>
<trkpt lat="48.935582" lon="8.647025">
<ele>344.5</ele>
<speed>1.72</speed>
<course>45.9</course>
<desc>Speed 6.2 km/h Distance 3.85 km</desc>
<time>2010-10-23T17:19:00.37</time>
<name>2376</name>
</trkpt>
<trkpt lat="48.935593" lon="8.647043">
<ele>344.5</ele>
<speed>1.71</speed>
<course>50.3</course>
<desc>Speed 6.2 km/h Distance 3.85 km</desc>
<time>2010-10-23T17:19:01.36</time>
<name>2377</name>
</trkpt>
<trkpt lat="48.935603" lon="8.647062">
<ele>344.5</ele>
<speed>1.66</speed>
<course>40.2</course>
<desc>Speed 6.0 km/h Distance 3.86 km</desc>
<time>2010-10-23T17:19:02.36</time>
<name>2378</name>
</trkpt>
<trkpt lat="48.935615" lon="8.647077">
<ele>344.0</ele>
<speed>1.60</speed>
<course>44.5</course>
<desc>Speed 5.8 km/h Distance 3.86 km</desc>
<time>2010-10-23T17:19:03.35</time>
<name>2379</name>
</trkpt>
<trkpt lat="48.935625" lon="8.647092">
<ele>344.0</ele>
<speed>1.52</speed>
<course>44.5</course>
<desc>Speed 5.5 km/h Distance 3.86 km</desc>
<time>2010-10-23T17:19:04.35</time>
<name>2380</name>
</trkpt>
<trkpt lat="48.935635" lon="8.647107">
<ele>344.0</ele>
<speed>1.63</speed>
<course>40.2</course>
<desc>Speed 5.9 km/h Distance 3.86 km</desc>
<time>2010-10-23T17:19:05.55</time>
<name>2381</name>
</trkpt>
<trkpt lat="48.935647" lon="8.647122">
<ele>343.5</ele>
<speed>1.61</speed>
<course>36.9</course>
<desc>Speed 5.8 km/h Distance 3.86 km</desc>
<time>2010-10-23T17:19:06.34</time>
<name>2382</name>
</trkpt>
<trkpt lat="48.935658" lon="8.647135">
<ele>343.5</ele>
<speed>1.55</speed>
<course>40.2</course>
<desc>Speed 5.6 km/h Distance 3.86 km</desc>
<time>2010-10-23T17:19:07.34</time>
<name>2383</name>
</trkpt>
<trkpt lat="48.935670" lon="8.647150">
<ele>343.5</ele>
<speed>1.50</speed>
<course>52.7</course>
<desc>Speed 5.4 km/h Distance 3.87 km</desc>
<time>2010-10-23T17:19:08.36</time>
<name>2384</name>
</trkpt>
<trkpt lat="48.935678" lon="8.647167">
<ele>343.0</ele>
<speed>1.49</speed>
<course>49.8</course>
<desc>Speed 5.4 km/h Distance 3.87 km</desc>
<time>2010-10-23T17:19:09.33</time>
<name>2385</name>
</trkpt>
<trkpt lat="48.935687" lon="8.647182">
<ele>343.0</ele>
<speed>1.50</speed>
<course>44.6</course>
<desc>Speed 5.4 km/h Distance 3.87 km</desc>
<time>2010-10-23T17:19:10.32</time>
<name>2386</name>
</trkpt>
<trkpt lat="48.935697" lon="8.647197">
<ele>343.0</ele>
<speed>1.57</speed>
<course>36.5</course>
<desc>Speed 5.7 km/h Distance 3.87 km</desc>
<time>2010-10-23T17:19:11.31</time>
<name>2387</name>
</trkpt>
<trkpt lat="48.935710" lon="8.647212">
<ele>343.5</ele>
<speed>1.74</speed>
<course>36.5</course>
<desc>Speed 6.3 km/h Distance 3.87 km</desc>
<time>2010-10-23T17:19:12.32</time>
<name>2388</name>
</trkpt>
<trkpt lat="48.935723" lon="8.647227">
<ele>343.5</ele>
<speed>1.71</speed>
<course>41.2</course>
<desc>Speed 6.2 km/h Distance 3.87 km</desc>
<time>2010-10-23T17:19:13.31</time>
<name>2389</name>
</trkpt>
<trkpt lat="48.935733" lon="8.647240">
<ele>343.5</ele>
<speed>1.49</speed>
<course>45.9</course>
<desc>Speed 5.4 km/h Distance 3.88 km</desc>
<time>2010-10-23T17:19:14.29</time>
<name>2390</name>
</trkpt>
<trkpt lat="48.935745" lon="8.647258">
<ele>344.0</ele>
<speed>1.65</speed>
<course>47.6</course>
<desc>Speed 5.9 km/h Distance 3.88 km</desc>
<time>2010-10-23T17:19:15.29</time>
<name>2391</name>
</trkpt>
<trkpt lat="48.935755" lon="8.647275">
<ele>344.0</ele>
<speed>1.64</speed>
<course>45.9</course>
<desc>Speed 5.9 km/h Distance 3.88 km</desc>
<time>2010-10-23T17:19:16.28</time>
<name>2392</name>
</trkpt>
<trkpt lat="48.935767" lon="8.647293">
<ele>344.0</ele>
<speed>1.71</speed>
<course>43.2</course>
<desc>Speed 6.2 km/h Distance 3.88 km</desc>
<time>2010-10-23T17:19:17.27</time>
<name>2393</name>
</trkpt>
<trkpt lat="48.935778" lon="8.647310">
<ele>344.0</ele>
<speed>1.61</speed>
<course>36.9</course>
<desc>Speed 5.8 km/h Distance 3.88 km</desc>
<time>2010-10-23T17:19:18.27</time>
<name>2394</name>
</trkpt>
<trkpt lat="48.935790" lon="8.647323">
<ele>344.0</ele>
<speed>1.62</speed>
<course>44.5</course>
<desc>Speed 5.8 km/h Distance 3.88 km</desc>
<time>2010-10-23T17:19:19.27</time>
<name>2395</name>
</trkpt>
<trkpt lat="48.935800" lon="8.647338">
<ele>344.0</ele>
<speed>1.58</speed>
<course>43.3</course>
<desc>Speed 5.7 km/h Distance 3.89 km</desc>
<time>2010-10-23T17:19:20.26</time>
<name>2396</name>
</trkpt>
<trkpt lat="48.935812" lon="8.647355">
<ele>344.0</ele>
<speed>1.55</speed>
<course>55.4</course>
<desc>Speed 5.6 km/h Distance 3.89 km</desc>
<time>2010-10-23T17:19:21.26</time>
<name>2397</name>
</trkpt>
<trkpt lat="48.935820" lon="8.647373">
<ele>344.0</ele>
<speed>1.59</speed>
<course>43.3</course>
<desc>Speed 5.7 km/h Distance 3.89 km</desc>
<time>2010-10-23T17:19:22.26</time>
<name>2398</name>
</trkpt>
<trkpt lat="48.935832" lon="8.647390">
<ele>344.0</ele>
<speed>1.63</speed>
<course>50.3</course>
<desc>Speed 5.9 km/h Distance 3.89 km</desc>
<time>2010-10-23T17:19:23.25</time>
<name>2399</name>
</trkpt>
<trkpt lat="48.935842" lon="8.647408">
<ele>344.0</ele>
<speed>1.61</speed>
<course>47.6</course>
<desc>Speed 5.8 km/h Distance 3.89 km</desc>
<time>2010-10-23T17:19:24.25</time>
<name>2400</name>
</trkpt>
<trkpt lat="48.935852" lon="8.647425">
<ele>344.5</ele>
<speed>1.59</speed>
<course>47.6</course>
<desc>Speed 5.7 km/h Distance 3.89 km</desc>
<time>2010-10-23T17:19:25.25</time>
<name>2401</name>
</trkpt>
<trkpt lat="48.935862" lon="8.647442">
<ele>344.5</ele>
<speed>1.65</speed>
<course>50.3</course>
<desc>Speed 5.9 km/h Distance 3.90 km</desc>
<time>2010-10-23T17:19:26.24</time>
<name>2402</name>
</trkpt>
<trkpt lat="48.935872" lon="8.647460">
<ele>344.5</ele>
<speed>1.63</speed>
<course>47.6</course>
<desc>Speed 5.9 km/h Distance 3.90 km</desc>
<time>2010-10-23T17:19:27.24</time>
<name>2403</name>
</trkpt>
<trkpt lat="48.935882" lon="8.647477">
<ele>344.5</ele>
<speed>1.62</speed>
<course>47.7</course>
<desc>Speed 5.8 km/h Distance 3.90 km</desc>
<time>2010-10-23T17:19:28.24</time>
<name>2404</name>
</trkpt>
<trkpt lat="48.935892" lon="8.647493">
<ele>344.5</ele>
<speed>1.58</speed>
<course>44.7</course>
<desc>Speed 5.7 km/h Distance 3.90 km</desc>
<time>2010-10-23T17:19:29.24</time>
<name>2405</name>
</trkpt>
<trkpt lat="48.935902" lon="8.647508">
<ele>344.5</ele>
<speed>1.59</speed>
<course>36.9</course>
<desc>Speed 5.7 km/h Distance 3.90 km</desc>
<time>2010-10-23T17:19:30.24</time>
<name>2406</name>
</trkpt>
<trkpt lat="48.935913" lon="8.647522">
<ele>344.5</ele>
<speed>1.50</speed>
<course>44.7</course>
<desc>Speed 5.4 km/h Distance 3.90 km</desc>
<time>2010-10-23T17:19:31.23</time>
<name>2407</name>
</trkpt>
<trkpt lat="48.935923" lon="8.647537">
<ele>344.5</ele>
<speed>1.57</speed>
<course>33.3</course>
<desc>Speed 5.7 km/h Distance 3.91 km</desc>
<time>2010-10-23T17:19:32.23</time>
<name>2408</name>
</trkpt>
<trkpt lat="48.935935" lon="8.647548">
<ele>344.5</ele>
<speed>1.41</speed>
<course>44.5</course>
<desc>Speed 5.1 km/h Distance 3.91 km</desc>
<time>2010-10-23T17:19:33.23</time>
<name>2409</name>
</trkpt>
<trkpt lat="48.935945" lon="8.647563">
<ele>344.5</ele>
<speed>1.59</speed>
<course>44.6</course>
<desc>Speed 5.7 km/h Distance 3.91 km</desc>
<time>2010-10-23T17:19:34.22</time>
<name>2410</name>
</trkpt>
<trkpt lat="48.935955" lon="8.647578">
<ele>344.0</ele>
<speed>1.42</speed>
<course>50.3</course>
<desc>Speed 5.1 km/h Distance 3.91 km</desc>
<time>2010-10-23T17:19:35.22</time>
<name>2411</name>
</trkpt>
<trkpt lat="48.935965" lon="8.647597">
<ele>344.0</ele>
<speed>1.53</speed>
<course>44.5</course>
<desc>Speed 5.5 km/h Distance 3.91 km</desc>
<time>2010-10-23T17:19:36.21</time>
<name>2412</name>
</trkpt>
<trkpt lat="48.935975" lon="8.647612">
<ele>344.0</ele>
<speed>1.39</speed>
<course>36.6</course>
<desc>Speed 5.0 km/h Distance 3.91 km</desc>
<time>2010-10-23T17:19:37.21</time>
<name>2413</name>
</trkpt>
<trkpt lat="48.935988" lon="8.647627">
<ele>343.5</ele>
<speed>1.58</speed>
<course>40.3</course>
<desc>Speed 5.7 km/h Distance 3.92 km</desc>
<time>2010-10-23T17:19:38.21</time>
<name>2414</name>
</trkpt>
<trkpt lat="48.936000" lon="8.647642">
<ele>343.5</ele>
<speed>1.55</speed>
<course>47.5</course>
<desc>Speed 5.6 km/h Distance 3.92 km</desc>
<time>2010-10-23T17:19:39.21</time>
<name>2415</name>
</trkpt>
<trkpt lat="48.936010" lon="8.647658">
<ele>344.0</ele>
<speed>1.61</speed>
<course>40.2</course>
<desc>Speed 5.8 km/h Distance 3.92 km</desc>
<time>2010-10-23T17:19:40.21</time>
<name>2416</name>
</trkpt>
<trkpt lat="48.936022" lon="8.647673">
<ele>344.0</ele>
<speed>1.62</speed>
<course>41.2</course>
<desc>Speed 5.8 km/h Distance 3.92 km</desc>
<time>2010-10-23T17:19:41.21</time>
<name>2417</name>
</trkpt>
<trkpt lat="48.936032" lon="8.647687">
<ele>344.0</ele>
<speed>1.37</speed>
<course>44.6</course>
<desc>Speed 4.9 km/h Distance 3.92 km</desc>
<time>2010-10-23T17:19:42.21</time>
<name>2418</name>
</trkpt>
<trkpt lat="48.936042" lon="8.647702">
<ele>344.0</ele>
<speed>1.44</speed>
<course>44.5</course>
<desc>Speed 5.2 km/h Distance 3.92 km</desc>
<time>2010-10-23T17:19:43.21</time>
<name>2419</name>
</trkpt>
<trkpt lat="48.936052" lon="8.647717">
<ele>344.0</ele>
<speed>1.50</speed>
<course>44.5</course>
<desc>Speed 5.4 km/h Distance 3.93 km</desc>
<time>2010-10-23T17:19:44.21</time>
<name>2420</name>
</trkpt>
<trkpt lat="48.936062" lon="8.647732">
<ele>344.0</ele>
<speed>1.51</speed>
<course>40.3</course>
<desc>Speed 5.4 km/h Distance 3.93 km</desc>
<time>2010-10-23T17:19:45.21</time>
<name>2421</name>
</trkpt>
<trkpt lat="48.936073" lon="8.647747">
<ele>344.5</ele>
<speed>1.60</speed>
<course>43.3</course>
<desc>Speed 5.8 km/h Distance 3.93 km</desc>
<time>2010-10-23T17:19:46.21</time>
<name>2422</name>
</trkpt>
<trkpt lat="48.936085" lon="8.647763">
<ele>344.5</ele>
<speed>1.51</speed>
<course>40.2</course>
<desc>Speed 5.4 km/h Distance 3.93 km</desc>
<time>2010-10-23T17:19:47.21</time>
<name>2423</name>
</trkpt>
<trkpt lat="48.936097" lon="8.647778">
<ele>344.5</ele>
<speed>1.60</speed>
<course>36.5</course>
<desc>Speed 5.8 km/h Distance 3.93 km</desc>
<time>2010-10-23T17:19:48.21</time>
<name>2424</name>
</trkpt>
<trkpt lat="48.936110" lon="8.647793">
<ele>345.0</ele>
<speed>1.59</speed>
<course>39.4</course>
<desc>Speed 5.7 km/h Distance 3.93 km</desc>
<time>2010-10-23T17:19:49.21</time>
<name>2425</name>
</trkpt>
<trkpt lat="48.936123" lon="8.647810">
<ele>345.0</ele>
<speed>1.72</speed>
<course>42.1</course>
<desc>Speed 6.2 km/h Distance 3.94 km</desc>
<time>2010-10-23T17:19:50.21</time>
<name>2426</name>
</trkpt>
<trkpt lat="48.936137" lon="8.647828">
<ele>344.5</ele>
<speed>1.65</speed>
<course>43.2</course>
<desc>Speed 5.9 km/h Distance 3.94 km</desc>
<time>2010-10-23T17:19:51.21</time>
<name>2427</name>
</trkpt>
<trkpt lat="48.936148" lon="8.647845">
<ele>344.5</ele>
<speed>1.67</speed>
<course>43.1</course>
<desc>Speed 6.0 km/h Distance 3.94 km</desc>
<time>2010-10-23T17:19:52.21</time>
<name>2428</name>
</trkpt>
<trkpt lat="48.936160" lon="8.647862">
<ele>344.5</ele>
<speed>1.69</speed>
<course>42.0</course>
<desc>Speed 6.1 km/h Distance 3.94 km</desc>
<time>2010-10-23T17:19:53.21</time>
<name>2429</name>
</trkpt>
<trkpt lat="48.936173" lon="8.647880">
<ele>344.5</ele>
<speed>1.67</speed>
<course>40.2</course>
<desc>Speed 6.0 km/h Distance 3.94 km</desc>
<time>2010-10-23T17:19:54.21</time>
<name>2430</name>
</trkpt>
<trkpt lat="48.936185" lon="8.647895">
<ele>344.0</ele>
<speed>1.62</speed>
<course>36.6</course>
<desc>Speed 5.8 km/h Distance 3.94 km</desc>
<time>2010-10-23T17:19:55.21</time>
<name>2431</name>
</trkpt>
<trkpt lat="48.936198" lon="8.647910">
<ele>344.0</ele>
<speed>1.62</speed>
<course>43.3</course>
<desc>Speed 5.8 km/h Distance 3.95 km</desc>
<time>2010-10-23T17:19:56.21</time>
<name>2432</name>
</trkpt>
<trkpt lat="48.936210" lon="8.647927">
<ele>343.5</ele>
<speed>1.62</speed>
<course>43.1</course>
<desc>Speed 5.8 km/h Distance 3.95 km</desc>
<time>2010-10-23T17:19:57.21</time>
<name>2433</name>
</trkpt>
<trkpt lat="48.936222" lon="8.647943">
<ele>343.5</ele>
<speed>1.64</speed>
<course>42.2</course>
<desc>Speed 5.9 km/h Distance 3.95 km</desc>
<time>2010-10-23T17:19:58.21</time>
<name>2434</name>
</trkpt>
<trkpt lat="48.936235" lon="8.647962">
<ele>344.0</ele>
<speed>1.91</speed>
<course>36.5</course>
<desc>Speed 6.9 km/h Distance 3.95 km</desc>
<time>2010-10-23T17:19:59.21</time>
<name>2435</name>
</trkpt>
<trkpt lat="48.936248" lon="8.647977">
<ele>343.5</ele>
<speed>1.65</speed>
<course>40.2</course>
<desc>Speed 5.9 km/h Distance 3.95 km</desc>
<time>2010-10-23T17:20:00.21</time>
<name>2436</name>
</trkpt>
<trkpt lat="48.936260" lon="8.647992">
<ele>343.5</ele>
<speed>1.63</speed>
<course>44.5</course>
<desc>Speed 5.9 km/h Distance 3.96 km</desc>
<time>2010-10-23T17:20:01.21</time>
<name>2437</name>
</trkpt>
<trkpt lat="48.936270" lon="8.648007">
<ele>343.5</ele>
<speed>1.45</speed>
<course>45.9</course>
<desc>Speed 5.2 km/h Distance 3.96 km</desc>
<time>2010-10-23T17:20:02.21</time>
<name>2438</name>
</trkpt>
<trkpt lat="48.936282" lon="8.648025">
<ele>343.5</ele>
<speed>1.74</speed>
<course>43.1</course>
<desc>Speed 6.3 km/h Distance 3.96 km</desc>
<time>2010-10-23T17:20:03.21</time>
<name>2439</name>
</trkpt>
<trkpt lat="48.936293" lon="8.648042">
<ele>343.5</ele>
<speed>1.54</speed>
<course>43.2</course>
<desc>Speed 5.5 km/h Distance 3.96 km</desc>
<time>2010-10-23T17:20:04.21</time>
<name>2440</name>
</trkpt>
<trkpt lat="48.936305" lon="8.648058">
<ele>343.0</ele>
<speed>1.63</speed>
<course>30.3</course>
<desc>Speed 5.9 km/h Distance 3.96 km</desc>
<time>2010-10-23T17:20:05.21</time>
<name>2441</name>
</trkpt>
<trkpt lat="48.936320" lon="8.648072">
<ele>343.0</ele>
<speed>1.71</speed>
<course>44.6</course>
<desc>Speed 6.2 km/h Distance 3.96 km</desc>
<time>2010-10-23T17:20:06.21</time>
<name>2442</name>
</trkpt>
<trkpt lat="48.936330" lon="8.648087">
<ele>343.0</ele>
<speed>1.42</speed>
<course>36.6</course>
<desc>Speed 5.1 km/h Distance 3.97 km</desc>
<time>2010-10-23T17:20:07.21</time>
<name>2443</name>
</trkpt>
<trkpt lat="48.936343" lon="8.648102">
<ele>343.0</ele>
<speed>1.71</speed>
<course>40.2</course>
<desc>Speed 6.2 km/h Distance 3.97 km</desc>
<time>2010-10-23T17:20:08.21</time>
<name>2444</name>
</trkpt>
<trkpt lat="48.936355" lon="8.648117">
<ele>343.0</ele>
<speed>1.53</speed>
<course>47.6</course>
<desc>Speed 5.5 km/h Distance 3.97 km</desc>
<time>2010-10-23T17:20:09.21</time>
<name>2445</name>
</trkpt>
<trkpt lat="48.936365" lon="8.648133">
<ele>342.5</ele>
<speed>1.57</speed>
<course>40.2</course>
<desc>Speed 5.7 km/h Distance 3.97 km</desc>
<time>2010-10-23T17:20:10.21</time>
<name>2446</name>
</trkpt>
<trkpt lat="48.936377" lon="8.648148">
<ele>342.5</ele>
<speed>1.64</speed>
<course>47.6</course>
<desc>Speed 5.9 km/h Distance 3.97 km</desc>
<time>2010-10-23T17:20:11.21</time>
<name>2447</name>
</trkpt>
<trkpt lat="48.936387" lon="8.648165">
<ele>342.5</ele>
<speed>1.59</speed>
<course>47.6</course>
<desc>Speed 5.7 km/h Distance 3.97 km</desc>
<time>2010-10-23T17:20:12.21</time>
<name>2448</name>
</trkpt>
<trkpt lat="48.936397" lon="8.648182">
<ele>342.5</ele>
<speed>1.62</speed>
<course>47.6</course>
<desc>Speed 5.8 km/h Distance 3.98 km</desc>
<time>2010-10-23T17:20:13.21</time>
<name>2449</name>
</trkpt>
<trkpt lat="48.936407" lon="8.648198">
<ele>342.0</ele>
<speed>1.53</speed>
<course>47.6</course>
<desc>Speed 5.5 km/h Distance 3.98 km</desc>
<time>2010-10-23T17:20:14.21</time>
<name>2450</name>
</trkpt>
<trkpt lat="48.936417" lon="8.648215">
<ele>342.5</ele>
<speed>1.67</speed>
<course>45.9</course>
<desc>Speed 6.0 km/h Distance 3.98 km</desc>
<time>2010-10-23T17:20:15.21</time>
<name>2451</name>
</trkpt>
<trkpt lat="48.936428" lon="8.648233">
<ele>342.5</ele>
<speed>1.74</speed>
<course>47.6</course>
<desc>Speed 6.3 km/h Distance 3.98 km</desc>
<time>2010-10-23T17:20:16.21</time>
<name>2452</name>
</trkpt>
<trkpt lat="48.936438" lon="8.648250">
<ele>342.0</ele>
<speed>1.57</speed>
<course>44.5</course>
<desc>Speed 5.7 km/h Distance 3.98 km</desc>
<time>2010-10-23T17:20:17.21</time>
<name>2453</name>
</trkpt>
<trkpt lat="48.936448" lon="8.648265">
<ele>342.5</ele>
<speed>1.55</speed>
<course>33.4</course>
<desc>Speed 5.6 km/h Distance 3.98 km</desc>
<time>2010-10-23T17:20:18.21</time>
<name>2454</name>
</trkpt>
<trkpt lat="48.936458" lon="8.648275">
<ele>341.5</ele>
<speed>1.21</speed>
<course>23.8</course>
<desc>Speed 4.4 km/h Distance 3.99 km</desc>
<time>2010-10-23T17:20:19.21</time>
<name>2455</name>
</trkpt>
<trkpt lat="48.936468" lon="8.648282">
<ele>342.0</ele>
<speed>1.16</speed>
<course>47.6</course>
<desc>Speed 4.2 km/h Distance 3.99 km</desc>
<time>2010-10-23T17:20:20.21</time>
<name>2456</name>
</trkpt>
<trkpt lat="48.936478" lon="8.648298">
<ele>342.0</ele>
<speed>1.51</speed>
<course>47.6</course>
<desc>Speed 5.4 km/h Distance 3.99 km</desc>
<time>2010-10-23T17:20:21.21</time>
<name>2457</name>
</trkpt>
<trkpt lat="48.936488" lon="8.648315">
<ele>341.5</ele>
<speed>1.61</speed>
<course>45.9</course>
<desc>Speed 5.8 km/h Distance 3.99 km</desc>
<time>2010-10-23T17:20:22.21</time>
<name>2458</name>
</trkpt>
<trkpt lat="48.936500" lon="8.648333">
<ele>341.5</ele>
<speed>1.70</speed>
<course>43.1</course>
<desc>Speed 6.1 km/h Distance 3.99 km</desc>
<time>2010-10-23T17:20:23.21</time>
<name>2459</name>
</trkpt>
<trkpt lat="48.936512" lon="8.648350">
<ele>341.5</ele>
<speed>1.63</speed>
<course>43.2</course>
<desc>Speed 5.9 km/h Distance 3.99 km</desc>
<time>2010-10-23T17:20:24.21</time>
<name>2460</name>
</trkpt>
<trkpt lat="48.936523" lon="8.648367">
<ele>341.5</ele>
<speed>1.71</speed>
<course>45.9</course>
<desc>Speed 6.2 km/h Distance 4.00 km</desc>
<time>2010-10-23T17:20:25.21</time>
<name>2461</name>
</trkpt>
<trkpt lat="48.936535" lon="8.648385">
<ele>341.5</ele>
<speed>1.75</speed>
<course>39.4</course>
<desc>Speed 6.3 km/h Distance 4.00 km</desc>
<time>2010-10-23T17:20:26.21</time>
<name>2462</name>
</trkpt>
<trkpt lat="48.936548" lon="8.648402">
<ele>341.5</ele>
<speed>1.63</speed>
<course>45.9</course>
<desc>Speed 5.9 km/h Distance 4.00 km</desc>
<time>2010-10-23T17:20:27.21</time>
<name>2463</name>
</trkpt>
<trkpt lat="48.936560" lon="8.648420">
<ele>341.5</ele>
<speed>1.66</speed>
<course>40.2</course>
<desc>Speed 6.0 km/h Distance 4.00 km</desc>
<time>2010-10-23T17:20:28.21</time>
<name>2464</name>
</trkpt>
<trkpt lat="48.936572" lon="8.648435">
<ele>341.5</ele>
<speed>1.63</speed>
<course>43.3</course>
<desc>Speed 5.9 km/h Distance 4.00 km</desc>
<time>2010-10-23T17:20:29.21</time>
<name>2465</name>
</trkpt>
<trkpt lat="48.936583" lon="8.648452">
<ele>341.5</ele>
<speed>1.67</speed>
<course>33.3</course>
<desc>Speed 6.0 km/h Distance 4.01 km</desc>
<time>2010-10-23T17:20:30.21</time>
<name>2466</name>
</trkpt>
<trkpt lat="48.936598" lon="8.648467">
<ele>341.5</ele>
<speed>1.69</speed>
<course>47.6</course>
<desc>Speed 6.1 km/h Distance 4.01 km</desc>
<time>2010-10-23T17:20:31.21</time>
<name>2467</name>
</trkpt>
<trkpt lat="48.936608" lon="8.648483">
<ele>341.0</ele>
<speed>1.61</speed>
<course>43.1</course>
<desc>Speed 5.8 km/h Distance 4.01 km</desc>
<time>2010-10-23T17:20:32.21</time>
<name>2468</name>
</trkpt>
<trkpt lat="48.936620" lon="8.648500">
<ele>341.5</ele>
<speed>1.64</speed>
<course>43.2</course>
<desc>Speed 5.9 km/h Distance 4.01 km</desc>
<time>2010-10-23T17:20:33.21</time>
<name>2469</name>
</trkpt>
<trkpt lat="48.936632" lon="8.648517">
<ele>341.0</ele>
<speed>1.60</speed>
<course>40.2</course>
<desc>Speed 5.8 km/h Distance 4.01 km</desc>
<time>2010-10-23T17:20:34.21</time>
<name>2470</name>
</trkpt>
<trkpt lat="48.936643" lon="8.648532">
<ele>341.0</ele>
<speed>1.55</speed>
<course>40.2</course>
<desc>Speed 5.6 km/h Distance 4.01 km</desc>
<time>2010-10-23T17:20:35.21</time>
<name>2471</name>
</trkpt>
<trkpt lat="48.936655" lon="8.648547">
<ele>341.5</ele>
<speed>1.65</speed>
<course>40.3</course>
<desc>Speed 5.9 km/h Distance 4.02 km</desc>
<time>2010-10-23T17:20:36.21</time>
<name>2472</name>
</trkpt>
<trkpt lat="48.936667" lon="8.648562">
<ele>341.5</ele>
<speed>1.60</speed>
<course>36.6</course>
<desc>Speed 5.8 km/h Distance 4.02 km</desc>
<time>2010-10-23T17:20:37.21</time>
<name>2473</name>
</trkpt>
<trkpt lat="48.936680" lon="8.648577">
<ele>341.5</ele>
<speed>1.64</speed>
<course>40.3</course>
<desc>Speed 5.9 km/h Distance 4.02 km</desc>
<time>2010-10-23T17:20:38.21</time>
<name>2474</name>
</trkpt>
<trkpt lat="48.936692" lon="8.648592">
<ele>341.5</ele>
<speed>1.70</speed>
<course>39.4</course>
<desc>Speed 6.1 km/h Distance 4.02 km</desc>
<time>2010-10-23T17:20:39.21</time>
<name>2475</name>
</trkpt>
<trkpt lat="48.936705" lon="8.648608">
<ele>342.0</ele>
<speed>1.75</speed>
<course>43.1</course>
<desc>Speed 6.3 km/h Distance 4.02 km</desc>
<time>2010-10-23T17:20:40.21</time>
<name>2476</name>
</trkpt>
<trkpt lat="48.936717" lon="8.648625">
<ele>342.0</ele>
<speed>1.64</speed>
<course>36.6</course>
<desc>Speed 5.9 km/h Distance 4.02 km</desc>
<time>2010-10-23T17:20:41.21</time>
<name>2477</name>
</trkpt>
<trkpt lat="48.936730" lon="8.648640">
<ele>342.0</ele>
<speed>1.65</speed>
<course>40.2</course>
<desc>Speed 5.9 km/h Distance 4.03 km</desc>
<time>2010-10-23T17:20:42.21</time>
<name>2478</name>
</trkpt>
<trkpt lat="48.936742" lon="8.648655">
<ele>342.0</ele>
<speed>1.63</speed>
<course>40.2</course>
<desc>Speed 5.9 km/h Distance 4.03 km</desc>
<time>2010-10-23T17:20:43.21</time>
<name>2479</name>
</trkpt>
<trkpt lat="48.936753" lon="8.648670">
<ele>342.0</ele>
<speed>1.64</speed>
<course>40.2</course>
<desc>Speed 5.9 km/h Distance 4.03 km</desc>
<time>2010-10-23T17:20:44.21</time>
<name>2480</name>
</trkpt>
<trkpt lat="48.936765" lon="8.648685">
<ele>342.5</ele>
<speed>1.61</speed>
<course>33.4</course>
<desc>Speed 5.8 km/h Distance 4.03 km</desc>
<time>2010-10-23T17:20:45.21</time>
<name>2481</name>
</trkpt>
<trkpt lat="48.936780" lon="8.648700">
<ele>342.5</ele>
<speed>1.72</speed>
<course>40.3</course>
<desc>Speed 6.2 km/h Distance 4.03 km</desc>
<time>2010-10-23T17:20:46.21</time>
<name>2482</name>
</trkpt>
<trkpt lat="48.936792" lon="8.648715">
<ele>343.0</ele>
<speed>1.71</speed>
<course>40.2</course>
<desc>Speed 6.2 km/h Distance 4.04 km</desc>
<time>2010-10-23T17:20:47.21</time>
<name>2483</name>
</trkpt>
<trkpt lat="48.936803" lon="8.648730">
<ele>343.0</ele>
<speed>1.62</speed>
<course>39.4</course>
<desc>Speed 5.8 km/h Distance 4.04 km</desc>
<time>2010-10-23T17:20:48.21</time>
<name>2484</name>
</trkpt>
<trkpt lat="48.936817" lon="8.648747">
<ele>343.0</ele>
<speed>1.67</speed>
<course>40.2</course>
<desc>Speed 6.0 km/h Distance 4.04 km</desc>
<time>2010-10-23T17:20:49.21</time>
<name>2485</name>
</trkpt>
<trkpt lat="48.936828" lon="8.648762">
<ele>343.0</ele>
<speed>1.65</speed>
<course>36.6</course>
<desc>Speed 5.9 km/h Distance 4.04 km</desc>
<time>2010-10-23T17:20:50.21</time>
<name>2486</name>
</trkpt>
<trkpt lat="48.936842" lon="8.648777">
<ele>343.0</ele>
<speed>1.65</speed>
<course>40.2</course>
<desc>Speed 5.9 km/h Distance 4.04 km</desc>
<time>2010-10-23T17:20:51.21</time>
<name>2487</name>
</trkpt>
<trkpt lat="48.936853" lon="8.648792">
<ele>343.0</ele>
<speed>1.55</speed>
<course>40.2</course>
<desc>Speed 5.6 km/h Distance 4.04 km</desc>
<time>2010-10-23T17:20:52.21</time>
<name>2488</name>
</trkpt>
<trkpt lat="48.936865" lon="8.648807">
<ele>343.0</ele>
<speed>1.60</speed>
<course>36.5</course>
<desc>Speed 5.8 km/h Distance 4.05 km</desc>
<time>2010-10-23T17:20:53.21</time>
<name>2489</name>
</trkpt>
<trkpt lat="48.936878" lon="8.648822">
<ele>343.0</ele>
<speed>1.64</speed>
<course>33.4</course>
<desc>Speed 5.9 km/h Distance 4.05 km</desc>
<time>2010-10-23T17:20:54.21</time>
<name>2490</name>
</trkpt>
<trkpt lat="48.936892" lon="8.648835">
<ele>343.5</ele>
<speed>1.72</speed>
<course>33.4</course>
<desc>Speed 6.2 km/h Distance 4.05 km</desc>
<time>2010-10-23T17:20:55.21</time>
<name>2491</name>
</trkpt>
<trkpt lat="48.936907" lon="8.648850">
<ele>343.5</ele>
<speed>1.77</speed>
<course>33.4</course>
<desc>Speed 6.4 km/h Distance 4.05 km</desc>
<time>2010-10-23T17:20:56.21</time>
<name>2492</name>
</trkpt>
<trkpt lat="48.936920" lon="8.648863">
<ele>343.5</ele>
<speed>1.63</speed>
<course>33.4</course>
<desc>Speed 5.9 km/h Distance 4.05 km</desc>
<time>2010-10-23T17:20:57.21</time>
<name>2493</name>
</trkpt>
<trkpt lat="48.936933" lon="8.648877">
<ele>343.0</ele>
<speed>1.67</speed>
<course>36.4</course>
<desc>Speed 6.0 km/h Distance 4.06 km</desc>
<time>2010-10-23T17:20:58.21</time>
<name>2494</name>
</trkpt>
<trkpt lat="48.936947" lon="8.648892">
<ele>343.0</ele>
<speed>1.71</speed>
<course>36.6</course>
<desc>Speed 6.2 km/h Distance 4.06 km</desc>
<time>2010-10-23T17:20:59.21</time>
<name>2495</name>
</trkpt>
<trkpt lat="48.936960" lon="8.648907">
<ele>343.0</ele>
<speed>1.64</speed>
<course>41.2</course>
<desc>Speed 5.9 km/h Distance 4.06 km</desc>
<time>2010-10-23T17:21:00.21</time>
<name>2496</name>
</trkpt>
<trkpt lat="48.936970" lon="8.648920">
<ele>343.0</ele>
<speed>1.40</speed>
<course>36.9</course>
<desc>Speed 5.0 km/h Distance 4.06 km</desc>
<time>2010-10-23T17:21:01.21</time>
<name>2497</name>
</trkpt>
<trkpt lat="48.936982" lon="8.648933">
<ele>343.0</ele>
<speed>1.55</speed>
<course>27.2</course>
<desc>Speed 5.6 km/h Distance 4.06 km</desc>
<time>2010-10-23T17:21:02.21</time>
<name>2498</name>
</trkpt>
<trkpt lat="48.936997" lon="8.648945">
<ele>343.5</ele>
<speed>1.76</speed>
<course>44.7</course>
<desc>Speed 6.3 km/h Distance 4.06 km</desc>
<time>2010-10-23T17:21:03.21</time>
<name>2499</name>
</trkpt>
<trkpt lat="48.937007" lon="8.648960">
<ele>343.5</ele>
<speed>1.55</speed>
<course>47.6</course>
<desc>Speed 5.6 km/h Distance 4.07 km</desc>
<time>2010-10-23T17:21:04.21</time>
<name>2500</name>
</trkpt>
<trkpt lat="48.937017" lon="8.648977">
<ele>343.5</ele>
<speed>1.51</speed>
<course>40.2</course>
<desc>Speed 5.4 km/h Distance 4.07 km</desc>
<time>2010-10-23T17:21:05.21</time>
<name>2501</name>
</trkpt>
<trkpt lat="48.937028" lon="8.648992">
<ele>343.5</ele>
<speed>1.61</speed>
<course>47.6</course>
<desc>Speed 5.8 km/h Distance 4.07 km</desc>
<time>2010-10-23T17:21:06.21</time>
<name>2502</name>
</trkpt>
<trkpt lat="48.937038" lon="8.649008">
<ele>343.5</ele>
<speed>1.62</speed>
<course>39.4</course>
<desc>Speed 5.8 km/h Distance 4.07 km</desc>
<time>2010-10-23T17:21:07.21</time>
<name>2503</name>
</trkpt>
<trkpt lat="48.937052" lon="8.649025">
<ele>344.0</ele>
<speed>1.70</speed>
<course>52.7</course>
<desc>Speed 6.1 km/h Distance 4.07 km</desc>
<time>2010-10-23T17:21:08.21</time>
<name>2504</name>
</trkpt>
<trkpt lat="48.937062" lon="8.649045">
<ele>344.0</ele>
<speed>1.62</speed>
<course>50.3</course>
<desc>Speed 5.8 km/h Distance 4.07 km</desc>
<time>2010-10-23T17:21:09.21</time>
<name>2505</name>
</trkpt>
<trkpt lat="48.937072" lon="8.649063">
<ele>344.0</ele>
<speed>1.67</speed>
<course>36.6</course>
<desc>Speed 6.0 km/h Distance 4.08 km</desc>
<time>2010-10-23T17:21:10.21</time>
<name>2506</name>
</trkpt>
<trkpt lat="48.937085" lon="8.649078">
<ele>344.5</ele>
<speed>1.60</speed>
<course>45.9</course>
<desc>Speed 5.8 km/h Distance 4.08 km</desc>
<time>2010-10-23T17:21:11.21</time>
<name>2507</name>
</trkpt>
<trkpt lat="48.937097" lon="8.649097">
<ele>344.5</ele>
<speed>1.70</speed>
<course>39.4</course>
<desc>Speed 6.1 km/h Distance 4.08 km</desc>
<time>2010-10-23T17:21:12.21</time>
<name>2508</name>
</trkpt>
<trkpt lat="48.937110" lon="8.649113">
<ele>344.5</ele>
<speed>1.83</speed>
<course>33.3</course>
<desc>Speed 6.6 km/h Distance 4.08 km</desc>
<time>2010-10-23T17:21:13.21</time>
<name>2509</name>
</trkpt>
<trkpt lat="48.937125" lon="8.649128">
<ele>344.5</ele>
<speed>1.75</speed>
<course>43.2</course>
<desc>Speed 6.3 km/h Distance 4.08 km</desc>
<time>2010-10-23T17:21:14.21</time>
<name>2510</name>
</trkpt>
<trkpt lat="48.937137" lon="8.649145">
<ele>344.0</ele>
<speed>1.71</speed>
<course>42.0</course>
<desc>Speed 6.2 km/h Distance 4.09 km</desc>
<time>2010-10-23T17:21:15.21</time>
<name>2511</name>
</trkpt>
<trkpt lat="48.937150" lon="8.649163">
<ele>344.0</ele>
<speed>1.78</speed>
<course>47.6</course>
<desc>Speed 6.4 km/h Distance 4.09 km</desc>
<time>2010-10-23T17:21:16.21</time>
<name>2512</name>
</trkpt>
<trkpt lat="48.937160" lon="8.649180">
<ele>344.0</ele>
<speed>1.71</speed>
<course>40.2</course>
<desc>Speed 6.2 km/h Distance 4.09 km</desc>
<time>2010-10-23T17:21:17.21</time>
<name>2513</name>
</trkpt>
<trkpt lat="48.937172" lon="8.649195">
<ele>344.0</ele>
<speed>1.69</speed>
<course>52.7</course>
<desc>Speed 6.1 km/h Distance 4.09 km</desc>
<time>2010-10-23T17:21:18.21</time>
<name>2514</name>
</trkpt>
<trkpt lat="48.937180" lon="8.649212">
<ele>344.0</ele>
<speed>1.36</speed>
<course>69.2</course>
<desc>Speed 4.9 km/h Distance 4.09 km</desc>
<time>2010-10-23T17:21:19.21</time>
<name>2515</name>
</trkpt>
<trkpt lat="48.937185" lon="8.649232">
<ele>344.5</ele>
<speed>1.49</speed>
<course>80.4</course>
<desc>Speed 5.4 km/h Distance 4.09 km</desc>
<time>2010-10-23T17:21:20.21</time>
<name>2516</name>
</trkpt>
<trkpt lat="48.937187" lon="8.649247">
<ele>344.5</ele>
<speed>1.22</speed>
<course>102.3</course>
<desc>Speed 4.4 km/h Distance 4.09 km</desc>
<time>2010-10-23T17:21:21.21</time>
<name>2517</name>
</trkpt>
<trkpt lat="48.937185" lon="8.649258">
<ele>344.5</ele>
<speed>0.85</speed>
<course>24.7</course>
<desc>Speed 3.1 km/h Distance 4.10 km</desc>
<time>2010-10-23T17:21:22.21</time>
<name>2518</name>
</trkpt>
<trkpt lat="48.937202" lon="8.649270">
<ele>347.0</ele>
<speed>0.31</speed>
<course>14.9</course>
<desc>Speed 1.1 km/h Distance 4.10 km</desc>
<time>2010-10-23T17:21:34.20</time>
<name>2519</name>
</trkpt>
<trkpt lat="48.937218" lon="8.649277">
<ele>349.0</ele>
<speed>0.46</speed>
<course>62.6</course>
<desc>Speed 1.7 km/h Distance 4.10 km</desc>
<time>2010-10-23T17:21:47.20</time>
<name>2520</name>
</trkpt>
<trkpt lat="48.937220" lon="8.649282">
<ele>349.0</ele>
<speed>0.33</speed>
<course>12.6</course>
<desc>Speed 1.2 km/h Distance 4.10 km</desc>
<time>2010-10-23T17:21:48.20</time>
<name>2521</name>
</trkpt>
<trkpt lat="48.937225" lon="8.649283">
<ele>349.5</ele>
<speed>0.46</speed>
<course>53.0</course>
<desc>Speed 1.7 km/h Distance 4.10 km</desc>
<time>2010-10-23T17:21:52.20</time>
<name>2522</name>
</trkpt>
<trkpt lat="48.937228" lon="8.649290">
<ele>349.5</ele>
<speed>0.50</speed>
<course>32.3</course>
<desc>Speed 1.8 km/h Distance 4.10 km</desc>
<time>2010-10-23T17:21:53.20</time>
<name>2523</name>
</trkpt>
<trkpt lat="48.937233" lon="8.649295">
<ele>349.5</ele>
<speed>0.68</speed>
<course>42.6</course>
<desc>Speed 2.4 km/h Distance 4.10 km</desc>
<time>2010-10-23T17:21:56.20</time>
<name>2524</name>
</trkpt>
<trkpt lat="48.937242" lon="8.649307">
<ele>349.5</ele>
<speed>1.26</speed>
<course>44.7</course>
<desc>Speed 4.5 km/h Distance 4.10 km</desc>
<time>2010-10-23T17:21:57.20</time>
<name>2525</name>
</trkpt>
<trkpt lat="48.937252" lon="8.649322">
<ele>349.5</ele>
<speed>1.50</speed>
<course>49.8</course>
<desc>Speed 5.4 km/h Distance 4.10 km</desc>
<time>2010-10-23T17:21:58.20</time>
<name>2526</name>
</trkpt>
<trkpt lat="48.937260" lon="8.649337">
<ele>349.0</ele>
<speed>1.48</speed>
<course>52.7</course>
<desc>Speed 5.3 km/h Distance 4.11 km</desc>
<time>2010-10-23T17:21:59.20</time>
<name>2527</name>
</trkpt>
<trkpt lat="48.937268" lon="8.649353">
<ele>349.0</ele>
<speed>1.55</speed>
<course>44.6</course>
<desc>Speed 5.6 km/h Distance 4.11 km</desc>
<time>2010-10-23T17:22:00.20</time>
<name>2528</name>
</trkpt>
<trkpt lat="48.937278" lon="8.649368">
<ele>349.0</ele>
<speed>1.59</speed>
<course>44.5</course>
<desc>Speed 5.7 km/h Distance 4.11 km</desc>
<time>2010-10-23T17:22:01.20</time>
<name>2529</name>
</trkpt>
<trkpt lat="48.937288" lon="8.649383">
<ele>349.0</ele>
<speed>1.55</speed>
<course>41.2</course>
<desc>Speed 5.6 km/h Distance 4.11 km</desc>
<time>2010-10-23T17:22:02.20</time>
<name>2530</name>
</trkpt>
<trkpt lat="48.937298" lon="8.649397">
<ele>349.0</ele>
<speed>1.53</speed>
<course>33.3</course>
<desc>Speed 5.5 km/h Distance 4.11 km</desc>
<time>2010-10-23T17:22:03.20</time>
<name>2531</name>
</trkpt>
<trkpt lat="48.937310" lon="8.649408">
<ele>348.5</ele>
<speed>1.53</speed>
<course>37.5</course>
<desc>Speed 5.5 km/h Distance 4.11 km</desc>
<time>2010-10-23T17:22:04.20</time>
<name>2532</name>
</trkpt>
<trkpt lat="48.937320" lon="8.649420">
<ele>348.5</ele>
<speed>1.50</speed>
<course>49.8</course>
<desc>Speed 5.4 km/h Distance 4.12 km</desc>
<time>2010-10-23T17:22:05.20</time>
<name>2533</name>
</trkpt>
<trkpt lat="48.937328" lon="8.649435">
<ele>348.5</ele>
<speed>1.53</speed>
<course>49.8</course>
<desc>Speed 5.5 km/h Distance 4.12 km</desc>
<time>2010-10-23T17:22:06.20</time>
<name>2534</name>
</trkpt>
<trkpt lat="48.937337" lon="8.649450">
<ele>348.0</ele>
<speed>1.44</speed>
<course>44.5</course>
<desc>Speed 5.2 km/h Distance 4.12 km</desc>
<time>2010-10-23T17:22:07.20</time>
<name>2535</name>
</trkpt>
<trkpt lat="48.937347" lon="8.649465">
<ele>348.0</ele>
<speed>1.53</speed>
<course>55.9</course>
<desc>Speed 5.5 km/h Distance 4.12 km</desc>
<time>2010-10-23T17:22:08.20</time>
<name>2536</name>
</trkpt>
<trkpt lat="48.937353" lon="8.649480">
<ele>348.0</ele>
<speed>1.41</speed>
<course>58.7</course>
<desc>Speed 5.1 km/h Distance 4.12 km</desc>
<time>2010-10-23T17:22:09.20</time>
<name>2537</name>
</trkpt>
<trkpt lat="48.937360" lon="8.649497">
<ele>347.5</ele>
<speed>1.51</speed>
<course>49.8</course>
<desc>Speed 5.4 km/h Distance 4.12 km</desc>
<time>2010-10-23T17:22:10.20</time>
<name>2538</name>
</trkpt>
<trkpt lat="48.937368" lon="8.649512">
<ele>347.5</ele>
<speed>1.51</speed>
<course>52.7</course>
<desc>Speed 5.4 km/h Distance 4.12 km</desc>
<time>2010-10-23T17:22:11.20</time>
<name>2539</name>
</trkpt>
<trkpt lat="48.937377" lon="8.649528">
<ele>347.5</ele>
<speed>1.61</speed>
<course>67.5</course>
<desc>Speed 5.8 km/h Distance 4.13 km</desc>
<time>2010-10-23T17:22:12.20</time>
<name>2540</name>
</trkpt>
<trkpt lat="48.937382" lon="8.649547">
<ele>347.5</ele>
<speed>1.42</speed>
<course>65.5</course>
<desc>Speed 5.1 km/h Distance 4.13 km</desc>
<time>2010-10-23T17:22:13.20</time>
<name>2541</name>
</trkpt>
<trkpt lat="48.937387" lon="8.649563">
<ele>347.5</ele>
<speed>1.41</speed>
<course>90.0</course>
<desc>Speed 5.1 km/h Distance 4.13 km</desc>
<time>2010-10-23T17:22:14.20</time>
<name>2542</name>
</trkpt>
<trkpt lat="48.937387" lon="8.649580">
<ele>347.5</ele>
<speed>1.14</speed>
<course>63.1</course>
<desc>Speed 4.1 km/h Distance 4.13 km</desc>
<time>2010-10-23T17:22:15.20</time>
<name>2543</name>
</trkpt>
<trkpt lat="48.937392" lon="8.649595">
<ele>347.0</ele>
<speed>1.24</speed>
<course>52.7</course>
<desc>Speed 4.5 km/h Distance 4.13 km</desc>
<time>2010-10-23T17:22:16.20</time>
<name>2544</name>
</trkpt>
<trkpt lat="48.937400" lon="8.649612">
<ele>347.0</ele>
<speed>1.50</speed>
<course>61.1</course>
<desc>Speed 5.4 km/h Distance 4.13 km</desc>
<time>2010-10-23T17:22:17.20</time>
<name>2545</name>
</trkpt>
<trkpt lat="48.937407" lon="8.649630">
<ele>347.5</ele>
<speed>1.60</speed>
<course>37.5</course>
<desc>Speed 5.8 km/h Distance 4.13 km</desc>
<time>2010-10-23T17:22:18.20</time>
<name>2546</name>
</trkpt>
<trkpt lat="48.937417" lon="8.649642">
<ele>347.0</ele>
<speed>1.40</speed>
<course>11.2</course>
<desc>Speed 5.0 km/h Distance 4.14 km</desc>
<time>2010-10-23T17:22:19.20</time>
<name>2547</name>
</trkpt>
<trkpt lat="48.937433" lon="8.649647">
<ele>347.0</ele>
<speed>1.75</speed>
<course>13.5</course>
<desc>Speed 6.3 km/h Distance 4.14 km</desc>
<time>2010-10-23T17:22:20.20</time>
<name>2548</name>
</trkpt>
<trkpt lat="48.937447" lon="8.649652">
<ele>347.0</ele>
<speed>1.61</speed>
<course>29.2</course>
<desc>Speed 5.8 km/h Distance 4.14 km</desc>
<time>2010-10-23T17:22:21.20</time>
<name>2549</name>
</trkpt>
<trkpt lat="48.937458" lon="8.649662">
<ele>347.0</ele>
<speed>1.51</speed>
<course>45.9</course>
<desc>Speed 5.4 km/h Distance 4.14 km</desc>
<time>2010-10-23T17:22:22.20</time>
<name>2550</name>
</trkpt>
<trkpt lat="48.937470" lon="8.649680">
<ele>347.0</ele>
<speed>1.50</speed>
<course>52.8</course>
<desc>Speed 5.4 km/h Distance 4.14 km</desc>
<time>2010-10-23T17:22:23.20</time>
<name>2551</name>
</trkpt>
<trkpt lat="48.937480" lon="8.649700">
<ele>347.5</ele>
<speed>1.60</speed>
<course>59.7</course>
<desc>Speed 5.8 km/h Distance 4.14 km</desc>
<time>2010-10-23T17:22:24.20</time>
<name>2552</name>
</trkpt>
<trkpt lat="48.937488" lon="8.649722">
<ele>347.5</ele>
<speed>1.63</speed>
<course>70.6</course>
<desc>Speed 5.9 km/h Distance 4.15 km</desc>
<time>2010-10-23T17:22:25.20</time>
<name>2553</name>
</trkpt>
<trkpt lat="48.937493" lon="8.649743">
<ele>348.0</ele>
<speed>1.60</speed>
<course>59.6</course>
<desc>Speed 5.8 km/h Distance 4.15 km</desc>
<time>2010-10-23T17:22:26.20</time>
<name>2554</name>
</trkpt>
<trkpt lat="48.937502" lon="8.649765">
<ele>348.0</ele>
<speed>1.62</speed>
<course>55.3</course>
<desc>Speed 5.8 km/h Distance 4.15 km</desc>
<time>2010-10-23T17:22:27.20</time>
<name>2555</name>
</trkpt>
<trkpt lat="48.937510" lon="8.649783">
<ele>348.0</ele>
<speed>1.53</speed>
<course>50.4</course>
<desc>Speed 5.5 km/h Distance 4.15 km</desc>
<time>2010-10-23T17:22:28.20</time>
<name>2556</name>
</trkpt>
<trkpt lat="48.937520" lon="8.649802">
<ele>348.0</ele>
<speed>1.62</speed>
<course>63.1</course>
<desc>Speed 5.8 km/h Distance 4.15 km</desc>
<time>2010-10-23T17:22:29.20</time>
<name>2557</name>
</trkpt>
<trkpt lat="48.937527" lon="8.649822">
<ele>348.0</ele>
<speed>1.62</speed>
<course>57.6</course>
<desc>Speed 5.8 km/h Distance 4.15 km</desc>
<time>2010-10-23T17:22:30.20</time>
<name>2558</name>
</trkpt>
<trkpt lat="48.937535" lon="8.649842">
<ele>348.0</ele>
<speed>1.62</speed>
<course>69.2</course>
<desc>Speed 5.8 km/h Distance 4.16 km</desc>
<time>2010-10-23T17:22:31.20</time>
<name>2559</name>
</trkpt>
<trkpt lat="48.937540" lon="8.649862">
<ele>348.0</ele>
<speed>1.55</speed>
<course>63.1</course>
<desc>Speed 5.6 km/h Distance 4.16 km</desc>
<time>2010-10-23T17:22:32.20</time>
<name>2560</name>
</trkpt>
<trkpt lat="48.937547" lon="8.649882">
<ele>348.0</ele>
<speed>1.59</speed>
<course>57.7</course>
<desc>Speed 5.7 km/h Distance 4.16 km</desc>
<time>2010-10-23T17:22:33.20</time>
<name>2561</name>
</trkpt>
<trkpt lat="48.937555" lon="8.649902">
<ele>348.0</ele>
<speed>1.53</speed>
<course>63.1</course>
<desc>Speed 5.5 km/h Distance 4.16 km</desc>
<time>2010-10-23T17:22:34.20</time>
<name>2562</name>
</trkpt>
<trkpt lat="48.937562" lon="8.649922">
<ele>347.5</ele>
<speed>1.59</speed>
<course>64.9</course>
<desc>Speed 5.7 km/h Distance 4.16 km</desc>
<time>2010-10-23T17:22:35.20</time>
<name>2563</name>
</trkpt>
<trkpt lat="48.937568" lon="8.649943">
<ele>347.5</ele>
<speed>1.67</speed>
<course>61.0</course>
<desc>Speed 6.0 km/h Distance 4.16 km</desc>
<time>2010-10-23T17:22:36.20</time>
<name>2564</name>
</trkpt>
<trkpt lat="48.937575" lon="8.649962">
<ele>347.5</ele>
<speed>1.59</speed>
<course>70.7</course>
<desc>Speed 5.7 km/h Distance 4.17 km</desc>
<time>2010-10-23T17:22:37.20</time>
<name>2565</name>
</trkpt>
<trkpt lat="48.937580" lon="8.649983">
<ele>347.5</ele>
<speed>1.61</speed>
<course>70.6</course>
<desc>Speed 5.8 km/h Distance 4.17 km</desc>
<time>2010-10-23T17:22:38.20</time>
<name>2566</name>
</trkpt>
<trkpt lat="48.937585" lon="8.650005">
<ele>347.5</ele>
<speed>1.60</speed>
<course>69.2</course>
<desc>Speed 5.8 km/h Distance 4.17 km</desc>
<time>2010-10-23T17:22:39.20</time>
<name>2567</name>
</trkpt>
<trkpt lat="48.937590" lon="8.650025">
<ele>347.0</ele>
<speed>1.59</speed>
<course>64.9</course>
<desc>Speed 5.7 km/h Distance 4.17 km</desc>
<time>2010-10-23T17:22:40.20</time>
<name>2568</name>
</trkpt>
<trkpt lat="48.937597" lon="8.650047">
<ele>347.5</ele>
<speed>1.62</speed>
<course>57.6</course>
<desc>Speed 5.8 km/h Distance 4.17 km</desc>
<time>2010-10-23T17:22:41.20</time>
<name>2569</name>
</trkpt>
<trkpt lat="48.937605" lon="8.650067">
<ele>347.5</ele>
<speed>1.61</speed>
<course>63.1</course>
<desc>Speed 5.8 km/h Distance 4.17 km</desc>
<time>2010-10-23T17:22:42.20</time>
<name>2570</name>
</trkpt>
<trkpt lat="48.937612" lon="8.650087">
<ele>347.5</ele>
<speed>1.58</speed>
<course>69.1</course>
<desc>Speed 5.7 km/h Distance 4.18 km</desc>
<time>2010-10-23T17:22:43.20</time>
<name>2571</name>
</trkpt>
<trkpt lat="48.937617" lon="8.650107">
<ele>347.5</ele>
<speed>1.54</speed>
<course>69.2</course>
<desc>Speed 5.5 km/h Distance 4.18 km</desc>
<time>2010-10-23T17:22:44.20</time>
<name>2572</name>
</trkpt>
<trkpt lat="48.937622" lon="8.650127">
<ele>347.5</ele>
<speed>1.45</speed>
<course>61.0</course>
<desc>Speed 5.2 km/h Distance 4.18 km</desc>
<time>2010-10-23T17:22:45.20</time>
<name>2573</name>
</trkpt>
<trkpt lat="48.937628" lon="8.650145">
<ele>347.5</ele>
<speed>1.48</speed>
<course>74.5</course>
<desc>Speed 5.3 km/h Distance 4.18 km</desc>
<time>2010-10-23T17:22:46.20</time>
<name>2574</name>
</trkpt>
<trkpt lat="48.937632" lon="8.650163">
<ele>347.0</ele>
<speed>1.29</speed>
<course>73.1</course>
<desc>Speed 4.6 km/h Distance 4.18 km</desc>
<time>2010-10-23T17:22:47.20</time>
<name>2575</name>
</trkpt>
<trkpt lat="48.937635" lon="8.650180">
<ele>346.0</ele>
<speed>1.28</speed>
<course>63.1</course>
<desc>Speed 4.6 km/h Distance 4.18 km</desc>
<time>2010-10-23T17:22:48.20</time>
<name>2576</name>
</trkpt>
<trkpt lat="48.937642" lon="8.650200">
<ele>346.5</ele>
<speed>1.58</speed>
<course>67.5</course>
<desc>Speed 5.7 km/h Distance 4.18 km</desc>
<time>2010-10-23T17:22:49.20</time>
<name>2577</name>
</trkpt>
<trkpt lat="48.937647" lon="8.650218">
<ele>346.5</ele>
<speed>1.39</speed>
<course>67.4</course>
<desc>Speed 5.0 km/h Distance 4.19 km</desc>
<time>2010-10-23T17:22:50.20</time>
<name>2578</name>
</trkpt>
<trkpt lat="48.937652" lon="8.650237">
<ele>346.5</ele>
<speed>1.44</speed>
<course>61.0</course>
<desc>Speed 5.2 km/h Distance 4.19 km</desc>
<time>2010-10-23T17:22:51.20</time>
<name>2579</name>
</trkpt>
<trkpt lat="48.937658" lon="8.650255">
<ele>346.0</ele>
<speed>1.41</speed>
<course>58.7</course>
<desc>Speed 5.1 km/h Distance 4.19 km</desc>
<time>2010-10-23T17:22:52.20</time>
<name>2580</name>
</trkpt>
<trkpt lat="48.937665" lon="8.650272">
<ele>346.0</ele>
<speed>1.42</speed>
<course>69.2</course>
<desc>Speed 5.1 km/h Distance 4.19 km</desc>
<time>2010-10-23T17:22:53.20</time>
<name>2581</name>
</trkpt>
<trkpt lat="48.937670" lon="8.650292">
<ele>345.5</ele>
<speed>1.49</speed>
<course>52.7</course>
<desc>Speed 5.4 km/h Distance 4.19 km</desc>
<time>2010-10-23T17:22:54.20</time>
<name>2582</name>
</trkpt>
<trkpt lat="48.937680" lon="8.650312">
<ele>346.0</ele>
<speed>1.64</speed>
<course>70.6</course>
<desc>Speed 5.9 km/h Distance 4.19 km</desc>
<time>2010-10-23T17:22:55.20</time>
<name>2583</name>
</trkpt>
<trkpt lat="48.937685" lon="8.650333">
<ele>346.5</ele>
<speed>1.49</speed>
<course>52.7</course>
<desc>Speed 5.4 km/h Distance 4.20 km</desc>
<time>2010-10-23T17:22:56.20</time>
<name>2584</name>
</trkpt>
<trkpt lat="48.937693" lon="8.650350">
<ele>346.5</ele>
<speed>1.39</speed>
<course>58.7</course>
<desc>Speed 5.0 km/h Distance 4.20 km</desc>
<time>2010-10-23T17:22:57.20</time>
<name>2585</name>
</trkpt>
<trkpt lat="48.937700" lon="8.650367">
<ele>346.5</ele>
<speed>1.39</speed>
<course>67.5</course>
<desc>Speed 5.0 km/h Distance 4.20 km</desc>
<time>2010-10-23T17:22:58.20</time>
<name>2586</name>
</trkpt>
<trkpt lat="48.937705" lon="8.650385">
<ele>346.5</ele>
<speed>1.48</speed>
<course>74.5</course>
<desc>Speed 5.3 km/h Distance 4.20 km</desc>
<time>2010-10-23T17:22:59.20</time>
<name>2587</name>
</trkpt>
<trkpt lat="48.937708" lon="8.650403">
<ele>345.5</ele>
<speed>1.27</speed>
<course>65.4</course>
<desc>Speed 4.6 km/h Distance 4.20 km</desc>
<time>2010-10-23T17:23:00.20</time>
<name>2588</name>
</trkpt>
<trkpt lat="48.937713" lon="8.650420">
<ele>344.5</ele>
<speed>1.29</speed>
<course>61.0</course>
<desc>Speed 4.6 km/h Distance 4.20 km</desc>
<time>2010-10-23T17:23:01.20</time>
<name>2589</name>
</trkpt>
<trkpt lat="48.937720" lon="8.650438">
<ele>344.0</ele>
<speed>1.35</speed>
<course>52.7</course>
<desc>Speed 4.9 km/h Distance 4.20 km</desc>
<time>2010-10-23T17:23:02.20</time>
<name>2590</name>
</trkpt>
<trkpt lat="48.937728" lon="8.650455">
<ele>344.0</ele>
<speed>1.38</speed>
<course>50.3</course>
<desc>Speed 5.0 km/h Distance 4.21 km</desc>
<time>2010-10-23T17:23:03.20</time>
<name>2591</name>
</trkpt>
<trkpt lat="48.937738" lon="8.650473">
<ele>344.5</ele>
<speed>1.50</speed>
<course>67.4</course>
<desc>Speed 5.4 km/h Distance 4.21 km</desc>
<time>2010-10-23T17:23:04.20</time>
<name>2592</name>
</trkpt>
<trkpt lat="48.937743" lon="8.650492">
<ele>344.5</ele>
<speed>1.49</speed>
<course>57.6</course>
<desc>Speed 5.4 km/h Distance 4.21 km</desc>
<time>2010-10-23T17:23:05.20</time>
<name>2593</name>
</trkpt>
<trkpt lat="48.937752" lon="8.650512">
<ele>345.0</ele>
<speed>1.62</speed>
<course>74.5</course>
<desc>Speed 5.8 km/h Distance 4.21 km</desc>
<time>2010-10-23T17:23:06.20</time>
<name>2594</name>
</trkpt>
<trkpt lat="48.937755" lon="8.650530">
<ele>344.0</ele>
<speed>1.36</speed>
<course>63.1</course>
<desc>Speed 4.9 km/h Distance 4.21 km</desc>
<time>2010-10-23T17:23:07.20</time>
<name>2595</name>
</trkpt>
<trkpt lat="48.937762" lon="8.650550">
<ele>344.0</ele>
<speed>1.58</speed>
<course>57.6</course>
<desc>Speed 5.7 km/h Distance 4.21 km</desc>
<time>2010-10-23T17:23:08.20</time>
<name>2596</name>
</trkpt>
<trkpt lat="48.937770" lon="8.650570">
<ele>343.5</ele>
<speed>1.57</speed>
<course>63.1</course>
<desc>Speed 5.7 km/h Distance 4.22 km</desc>
<time>2010-10-23T17:23:09.20</time>
<name>2597</name>
</trkpt>
<trkpt lat="48.937777" lon="8.650590">
<ele>343.0</ele>
<speed>1.58</speed>
<course>59.7</course>
<desc>Speed 5.7 km/h Distance 4.22 km</desc>
<time>2010-10-23T17:23:10.20</time>
<name>2598</name>
</trkpt>
<trkpt lat="48.937785" lon="8.650612">
<ele>343.0</ele>
<speed>1.60</speed>
<course>55.3</course>
<desc>Speed 5.8 km/h Distance 4.22 km</desc>
<time>2010-10-23T17:23:11.20</time>
<name>2599</name>
</trkpt>
<trkpt lat="48.937793" lon="8.650630">
<ele>342.5</ele>
<speed>1.52</speed>
<course>59.6</course>
<desc>Speed 5.5 km/h Distance 4.22 km</desc>
<time>2010-10-23T17:23:12.20</time>
<name>2600</name>
</trkpt>
<trkpt lat="48.937802" lon="8.650652">
<ele>342.5</ele>
<speed>1.62</speed>
<course>61.0</course>
<desc>Speed 5.8 km/h Distance 4.22 km</desc>
<time>2010-10-23T17:23:13.20</time>
<name>2601</name>
</trkpt>
<trkpt lat="48.937808" lon="8.650670">
<ele>342.0</ele>
<speed>1.51</speed>
<course>57.6</course>
<desc>Speed 5.4 km/h Distance 4.22 km</desc>
<time>2010-10-23T17:23:14.20</time>
<name>2602</name>
</trkpt>
<trkpt lat="48.937817" lon="8.650690">
<ele>342.0</ele>
<speed>1.54</speed>
<course>52.7</course>
<desc>Speed 5.5 km/h Distance 4.23 km</desc>
<time>2010-10-23T17:23:15.20</time>
<name>2603</name>
</trkpt>
<trkpt lat="48.937825" lon="8.650707">
<ele>342.5</ele>
<speed>1.51</speed>
<course>55.3</course>
<desc>Speed 5.4 km/h Distance 4.23 km</desc>
<time>2010-10-23T17:23:16.20</time>
<name>2604</name>
</trkpt>
<trkpt lat="48.937833" lon="8.650725">
<ele>342.5</ele>
<speed>1.37</speed>
<course>61.0</course>
<desc>Speed 4.9 km/h Distance 4.23 km</desc>
<time>2010-10-23T17:23:17.20</time>
<name>2605</name>
</trkpt>
<trkpt lat="48.937840" lon="8.650743">
<ele>342.0</ele>
<speed>1.39</speed>
<course>67.5</course>
<desc>Speed 5.0 km/h Distance 4.23 km</desc>
<time>2010-10-23T17:23:18.20</time>
<name>2606</name>
</trkpt>
<trkpt lat="48.937845" lon="8.650762">
<ele>341.5</ele>
<speed>1.25</speed>
<course>63.1</course>
<desc>Speed 4.5 km/h Distance 4.23 km</desc>
<time>2010-10-23T17:23:19.20</time>
<name>2607</name>
</trkpt>
<trkpt lat="48.937852" lon="8.650782">
<ele>341.0</ele>
<speed>1.50</speed>
<course>63.1</course>
<desc>Speed 5.4 km/h Distance 4.23 km</desc>
<time>2010-10-23T17:23:20.20</time>
<name>2608</name>
</trkpt>
<trkpt lat="48.937858" lon="8.650802">
<ele>341.0</ele>
<speed>1.40</speed>
<course>61.0</course>
<desc>Speed 5.0 km/h Distance 4.24 km</desc>
<time>2010-10-23T17:23:21.20</time>
<name>2609</name>
</trkpt>
<trkpt lat="48.937865" lon="8.650820">
<ele>341.0</ele>
<speed>1.46</speed>
<course>50.3</course>
<desc>Speed 5.3 km/h Distance 4.24 km</desc>
<time>2010-10-23T17:23:22.20</time>
<name>2610</name>
</trkpt>
<trkpt lat="48.937875" lon="8.650838">
<ele>341.0</ele>
<speed>1.51</speed>
<course>48.4</course>
<desc>Speed 5.4 km/h Distance 4.24 km</desc>
<time>2010-10-23T17:23:23.20</time>
<name>2611</name>
</trkpt>
<trkpt lat="48.937887" lon="8.650858">
<ele>341.5</ele>
<speed>1.67</speed>
<course>74.5</course>
<desc>Speed 6.0 km/h Distance 4.24 km</desc>
<time>2010-10-23T17:23:24.20</time>
<name>2612</name>
</trkpt>
<trkpt lat="48.937890" lon="8.650877">
<ele>340.5</ele>
<speed>1.37</speed>
<course>69.2</course>
<desc>Speed 4.9 km/h Distance 4.24 km</desc>
<time>2010-10-23T17:23:25.20</time>
<name>2613</name>
</trkpt>
<trkpt lat="48.937895" lon="8.650897">
<ele>340.0</ele>
<speed>1.39</speed>
<course>63.1</course>
<desc>Speed 5.0 km/h Distance 4.24 km</desc>
<time>2010-10-23T17:23:26.20</time>
<name>2614</name>
</trkpt>
<trkpt lat="48.937902" lon="8.650917">
<ele>339.5</ele>
<speed>1.51</speed>
<course>67.5</course>
<desc>Speed 5.4 km/h Distance 4.25 km</desc>
<time>2010-10-23T17:23:27.20</time>
<name>2615</name>
</trkpt>
<trkpt lat="48.937907" lon="8.650935">
<ele>339.0</ele>
<speed>1.37</speed>
<course>76.8</course>
<desc>Speed 4.9 km/h Distance 4.25 km</desc>
<time>2010-10-23T17:23:28.20</time>
<name>2616</name>
</trkpt>
<trkpt lat="48.937910" lon="8.650957">
<ele>338.5</ele>
<speed>1.49</speed>
<course>63.1</course>
<desc>Speed 5.4 km/h Distance 4.25 km</desc>
<time>2010-10-23T17:23:29.20</time>
<name>2617</name>
</trkpt>
<trkpt lat="48.937917" lon="8.650977">
<ele>338.5</ele>
<speed>1.47</speed>
<course>63.1</course>
<desc>Speed 5.3 km/h Distance 4.25 km</desc>
<time>2010-10-23T17:23:30.20</time>
<name>2618</name>
</trkpt>
<trkpt lat="48.937923" lon="8.650997">
<ele>338.5</ele>
<speed>1.57</speed>
<course>70.6</course>
<desc>Speed 5.7 km/h Distance 4.25 km</desc>
<time>2010-10-23T17:23:31.20</time>
<name>2619</name>
</trkpt>
<trkpt lat="48.937928" lon="8.651018">
<ele>338.0</ele>
<speed>1.59</speed>
<course>63.1</course>
<desc>Speed 5.7 km/h Distance 4.25 km</desc>
<time>2010-10-23T17:23:32.20</time>
<name>2620</name>
</trkpt>
<trkpt lat="48.937935" lon="8.651038">
<ele>338.0</ele>
<speed>1.55</speed>
<course>70.6</course>
<desc>Speed 5.6 km/h Distance 4.25 km</desc>
<time>2010-10-23T17:23:33.20</time>
<name>2621</name>
</trkpt>
<trkpt lat="48.937940" lon="8.651060">
<ele>338.5</ele>
<speed>1.61</speed>
<course>63.1</course>
<desc>Speed 5.8 km/h Distance 4.26 km</desc>
<time>2010-10-23T17:23:34.20</time>
<name>2622</name>
</trkpt>
<trkpt lat="48.937947" lon="8.651080">
<ele>338.0</ele>
<speed>1.50</speed>
<course>50.3</course>
<desc>Speed 5.4 km/h Distance 4.26 km</desc>
<time>2010-10-23T17:23:35.20</time>
<name>2623</name>
</trkpt>
<trkpt lat="48.937957" lon="8.651098">
<ele>338.5</ele>
<speed>1.58</speed>
<course>59.6</course>
<desc>Speed 5.7 km/h Distance 4.26 km</desc>
<time>2010-10-23T17:23:36.20</time>
<name>2624</name>
</trkpt>
<trkpt lat="48.937965" lon="8.651120">
<ele>338.5</ele>
<speed>1.54</speed>
<course>69.2</course>
<desc>Speed 5.5 km/h Distance 4.26 km</desc>
<time>2010-10-23T17:23:37.20</time>
<name>2625</name>
</trkpt>
<trkpt lat="48.937970" lon="8.651140">
<ele>338.0</ele>
<speed>1.50</speed>
<course>66.5</course>
<desc>Speed 5.4 km/h Distance 4.26 km</desc>
<time>2010-10-23T17:23:38.20</time>
<name>2626</name>
</trkpt>
<trkpt lat="48.937977" lon="8.651163">
<ele>338.0</ele>
<speed>1.62</speed>
<course>64.9</course>
<desc>Speed 5.8 km/h Distance 4.27 km</desc>
<time>2010-10-23T17:23:39.20</time>
<name>2627</name>
</trkpt>
<trkpt lat="48.937983" lon="8.651185">
<ele>338.0</ele>
<speed>1.65</speed>
<course>67.9</course>
<desc>Speed 5.9 km/h Distance 4.27 km</desc>
<time>2010-10-23T17:23:40.20</time>
<name>2628</name>
</trkpt>
<trkpt lat="48.937990" lon="8.651210">
<ele>339.0</ele>
<speed>1.58</speed>
<course>70.6</course>
<desc>Speed 5.7 km/h Distance 4.27 km</desc>
<time>2010-10-23T17:23:41.20</time>
<name>2629</name>
</trkpt>
<trkpt lat="48.937995" lon="8.651232">
<ele>339.0</ele>
<speed>1.62</speed>
<course>57.6</course>
<desc>Speed 5.8 km/h Distance 4.27 km</desc>
<time>2010-10-23T17:23:42.20</time>
<name>2630</name>
</trkpt>
<trkpt lat="48.938003" lon="8.651252">
<ele>339.0</ele>
<speed>1.57</speed>
<course>52.7</course>
<desc>Speed 5.7 km/h Distance 4.27 km</desc>
<time>2010-10-23T17:23:43.20</time>
<name>2631</name>
</trkpt>
<trkpt lat="48.938013" lon="8.651272">
<ele>339.5</ele>
<speed>1.62</speed>
<course>61.0</course>
<desc>Speed 5.8 km/h Distance 4.27 km</desc>
<time>2010-10-23T17:23:44.20</time>
<name>2632</name>
</trkpt>
<trkpt lat="48.938020" lon="8.651290">
<ele>340.0</ele>
<speed>1.45</speed>
<course>58.6</course>
<desc>Speed 5.2 km/h Distance 4.28 km</desc>
<time>2010-10-23T17:23:45.20</time>
<name>2633</name>
</trkpt>
<trkpt lat="48.938027" lon="8.651307">
<ele>340.0</ele>
<speed>1.19</speed>
<course>60.2</course>
<desc>Speed 4.3 km/h Distance 4.28 km</desc>
<time>2010-10-23T17:23:46.20</time>
<name>2634</name>
</trkpt>
<trkpt lat="48.938032" lon="8.651320">
<ele>340.0</ele>
<speed>1.04</speed>
<course>63.4</course>
<desc>Speed 3.7 km/h Distance 4.28 km</desc>
<time>2010-10-23T17:23:47.20</time>
<name>2635</name>
</trkpt>
<trkpt lat="48.938033" lon="8.651325">
<ele>340.0</ele>
<speed>0.30</speed>
<course>320.6</course>
<desc>Speed 1.1 km/h Distance 4.28 km</desc>
<time>2010-10-23T17:23:48.20</time>
<name>2636</name>
</trkpt>
<trkpt lat="48.938040" lon="8.651317">
<ele>340.0</ele>
<speed>0.83</speed>
<course>349.2</course>
<desc>Speed 3.0 km/h Distance 4.28 km</desc>
<time>2010-10-23T17:23:50.20</time>
<name>2637</name>
</trkpt>
<trkpt lat="48.938057" lon="8.651312">
<ele>340.0</ele>
<speed>1.46</speed>
<course>351.2</course>
<desc>Speed 5.3 km/h Distance 4.28 km</desc>
<time>2010-10-23T17:23:51.20</time>
<name>2638</name>
</trkpt>
<trkpt lat="48.938072" lon="8.651308">
<ele>340.0</ele>
<speed>1.50</speed>
<course>351.2</course>
<desc>Speed 5.4 km/h Distance 4.28 km</desc>
<time>2010-10-23T17:23:52.20</time>
<name>2639</name>
</trkpt>
<trkpt lat="48.938087" lon="8.651305">
<ele>340.0</ele>
<speed>1.50</speed>
<course>0.0</course>
<desc>Speed 5.4 km/h Distance 4.28 km</desc>
<time>2010-10-23T17:23:53.20</time>
<name>2640</name>
</trkpt>
<trkpt lat="48.938103" lon="8.651305">
<ele>339.5</ele>
<speed>1.58</speed>
<course>0.0</course>
<desc>Speed 5.7 km/h Distance 4.29 km</desc>
<time>2010-10-23T17:23:54.20</time>
<name>2641</name>
</trkpt>
<trkpt lat="48.938118" lon="8.651305">
<ele>339.5</ele>
<speed>1.49</speed>
<course>351.2</course>
<desc>Speed 5.4 km/h Distance 4.29 km</desc>
<time>2010-10-23T17:23:55.20</time>
<name>2642</name>
</trkpt>
<trkpt lat="48.938133" lon="8.651302">
<ele>340.0</ele>
<speed>1.53</speed>
<course>343.7</course>
<desc>Speed 5.5 km/h Distance 4.29 km</desc>
<time>2010-10-23T17:23:56.20</time>
<name>2643</name>
</trkpt>
<trkpt lat="48.938148" lon="8.651295">
<ele>340.0</ele>
<speed>1.54</speed>
<course>352.3</course>
<desc>Speed 5.5 km/h Distance 4.29 km</desc>
<time>2010-10-23T17:23:57.20</time>
<name>2644</name>
</trkpt>
<trkpt lat="48.938165" lon="8.651292">
<ele>340.0</ele>
<speed>1.65</speed>
<course>356.2</course>
<desc>Speed 5.9 km/h Distance 4.29 km</desc>
<time>2010-10-23T17:23:58.20</time>
<name>2645</name>
</trkpt>
<trkpt lat="48.938180" lon="8.651290">
<ele>340.5</ele>
<speed>1.60</speed>
<course>351.9</course>
<desc>Speed 5.8 km/h Distance 4.30 km</desc>
<time>2010-10-23T17:23:59.20</time>
<name>2646</name>
</trkpt>
<trkpt lat="48.938195" lon="8.651287">
<ele>340.5</ele>
<speed>1.61</speed>
<course>356.2</course>
<desc>Speed 5.8 km/h Distance 4.30 km</desc>
<time>2010-10-23T17:24:00.20</time>
<name>2647</name>
</trkpt>
<trkpt lat="48.938210" lon="8.651285">
<ele>341.0</ele>
<speed>1.35</speed>
<course>351.2</course>
<desc>Speed 4.9 km/h Distance 4.30 km</desc>
<time>2010-10-23T17:24:01.20</time>
<name>2648</name>
</trkpt>
<trkpt lat="48.938225" lon="8.651282">
<ele>341.0</ele>
<speed>1.64</speed>
<course>356.2</course>
<desc>Speed 5.9 km/h Distance 4.30 km</desc>
<time>2010-10-23T17:24:02.20</time>
<name>2649</name>
</trkpt>
<trkpt lat="48.938240" lon="8.651280">
<ele>341.5</ele>
<speed>1.48</speed>
<course>0.0</course>
<desc>Speed 5.3 km/h Distance 4.30 km</desc>
<time>2010-10-23T17:24:03.20</time>
<name>2650</name>
</trkpt>
<trkpt lat="48.938255" lon="8.651280">
<ele>341.5</ele>
<speed>1.33</speed>
<course>4.7</course>
<desc>Speed 4.8 km/h Distance 4.30 km</desc>
<time>2010-10-23T17:24:04.20</time>
<name>2651</name>
</trkpt>
<trkpt lat="48.938267" lon="8.651282">
<ele>341.5</ele>
<speed>1.32</speed>
<course>0.0</course>
<desc>Speed 4.8 km/h Distance 4.30 km</desc>
<time>2010-10-23T17:24:05.20</time>
<name>2652</name>
</trkpt>
<trkpt lat="48.938282" lon="8.651282">
<ele>341.5</ele>
<speed>1.48</speed>
<course>0.0</course>
<desc>Speed 5.3 km/h Distance 4.31 km</desc>
<time>2010-10-23T17:24:06.20</time>
<name>2653</name>
</trkpt>
<trkpt lat="48.938297" lon="8.651282">
<ele>341.5</ele>
<speed>1.54</speed>
<course>2.8</course>
<desc>Speed 5.5 km/h Distance 4.31 km</desc>
<time>2010-10-23T17:24:07.20</time>
<name>2654</name>
</trkpt>
<trkpt lat="48.938313" lon="8.651282">
<ele>341.5</ele>
<speed>1.58</speed>
<course>8.1</course>
<desc>Speed 5.7 km/h Distance 4.31 km</desc>
<time>2010-10-23T17:24:08.20</time>
<name>2655</name>
</trkpt>
<trkpt lat="48.938328" lon="8.651285">
<ele>341.5</ele>
<speed>1.55</speed>
<course>0.0</course>
<desc>Speed 5.6 km/h Distance 4.31 km</desc>
<time>2010-10-23T17:24:09.20</time>
<name>2656</name>
</trkpt>
<trkpt lat="48.938343" lon="8.651285">
<ele>341.5</ele>
<speed>1.60</speed>
<course>1.2</course>
<desc>Speed 5.8 km/h Distance 4.31 km</desc>
<time>2010-10-23T17:24:10.20</time>
<name>2657</name>
</trkpt>
<trkpt lat="48.938357" lon="8.651285">
<ele>341.5</ele>
<speed>1.47</speed>
<course>356.2</course>
<desc>Speed 5.3 km/h Distance 4.32 km</desc>
<time>2010-10-23T17:24:11.20</time>
<name>2658</name>
</trkpt>
<trkpt lat="48.938372" lon="8.651283">
<ele>341.5</ele>
<speed>1.70</speed>
<course>356.2</course>
<desc>Speed 6.1 km/h Distance 4.32 km</desc>
<time>2010-10-23T17:24:12.20</time>
<name>2659</name>
</trkpt>
<trkpt lat="48.938387" lon="8.651282">
<ele>341.5</ele>
<speed>1.52</speed>
<course>354.7</course>
<desc>Speed 5.5 km/h Distance 4.32 km</desc>
<time>2010-10-23T17:24:13.20</time>
<name>2660</name>
</trkpt>
<trkpt lat="48.938400" lon="8.651280">
<ele>341.0</ele>
<speed>1.52</speed>
<course>1.9</course>
<desc>Speed 5.5 km/h Distance 4.32 km</desc>
<time>2010-10-23T17:24:14.20</time>
<name>2661</name>
</trkpt>
<trkpt lat="48.938415" lon="8.651280">
<ele>341.0</ele>
<speed>1.45</speed>
<course>354.7</course>
<desc>Speed 5.2 km/h Distance 4.32 km</desc>
<time>2010-10-23T17:24:15.20</time>
<name>2662</name>
</trkpt>
<trkpt lat="48.938428" lon="8.651278">
<ele>341.0</ele>
<speed>1.29</speed>
<course>355.6</course>
<desc>Speed 4.6 km/h Distance 4.32 km</desc>
<time>2010-10-23T17:24:16.20</time>
<name>2663</name>
</trkpt>
<trkpt lat="48.938438" lon="8.651277">
<ele>341.0</ele>
<speed>1.05</speed>
<course>349.6</course>
<desc>Speed 3.8 km/h Distance 4.32 km</desc>
<time>2010-10-23T17:24:17.20</time>
<name>2664</name>
</trkpt>
<trkpt lat="48.938450" lon="8.651273">
<ele>341.0</ele>
<speed>0.99</speed>
<course>25.4</course>
<desc>Speed 3.6 km/h Distance 4.33 km</desc>
<time>2010-10-23T17:24:18.20</time>
<name>2665</name>
</trkpt>
<trkpt lat="48.938455" lon="8.651277">
<ele>342.5</ele>
<speed>0.66</speed>
<course>164.0</course>
<desc>Speed 2.4 km/h Distance 4.33 km</desc>
<time>2010-10-23T17:24:23.20</time>
<name>2666</name>
</trkpt>
<trkpt lat="48.938443" lon="8.651282">
<ele>342.5</ele>
<speed>1.50</speed>
<course>164.0</course>
<desc>Speed 5.4 km/h Distance 4.33 km</desc>
<time>2010-10-23T17:24:24.20</time>
<name>2667</name>
</trkpt>
<trkpt lat="48.938432" lon="8.651287">
<ele>343.0</ele>
<speed>1.65</speed>
<course>166.0</course>
<desc>Speed 5.9 km/h Distance 4.33 km</desc>
<time>2010-10-23T17:24:25.20</time>
<name>2668</name>
</trkpt>
<trkpt lat="48.938418" lon="8.651292">
<ele>343.0</ele>
<speed>1.83</speed>
<course>168.8</course>
<desc>Speed 6.6 km/h Distance 4.33 km</desc>
<time>2010-10-23T17:24:26.20</time>
<name>2669</name>
</trkpt>
<trkpt lat="48.938407" lon="8.651295">
<ele>343.5</ele>
<speed>1.70</speed>
<course>171.0</course>
<desc>Speed 6.1 km/h Distance 4.33 km</desc>
<time>2010-10-23T17:24:27.20</time>
<name>2670</name>
</trkpt>
<trkpt lat="48.938393" lon="8.651298">
<ele>344.0</ele>
<speed>1.76</speed>
<course>171.0</course>
<desc>Speed 6.3 km/h Distance 4.33 km</desc>
<time>2010-10-23T17:24:28.20</time>
<name>2671</name>
</trkpt>
<trkpt lat="48.938380" lon="8.651302">
<ele>344.0</ele>
<speed>1.87</speed>
<course>166.5</course>
<desc>Speed 6.7 km/h Distance 4.33 km</desc>
<time>2010-10-23T17:24:29.20</time>
<name>2672</name>
</trkpt>
<trkpt lat="48.938367" lon="8.651307">
<ele>344.0</ele>
<speed>1.75</speed>
<course>166.0</course>
<desc>Speed 6.3 km/h Distance 4.34 km</desc>
<time>2010-10-23T17:24:30.20</time>
<name>2673</name>
</trkpt>
<trkpt lat="48.938353" lon="8.651312">
<ele>344.0</ele>
<speed>1.57</speed>
<course>174.7</course>
<desc>Speed 5.7 km/h Distance 4.34 km</desc>
<time>2010-10-23T17:24:31.20</time>
<name>2674</name>
</trkpt>
<trkpt lat="48.938340" lon="8.651313">
<ele>344.5</ele>
<speed>1.69</speed>
<course>170.5</course>
<desc>Speed 6.1 km/h Distance 4.34 km</desc>
<time>2010-10-23T17:24:32.20</time>
<name>2675</name>
</trkpt>
<trkpt lat="48.938328" lon="8.651317">
<ele>345.5</ele>
<speed>1.77</speed>
<course>170.5</course>
<desc>Speed 6.4 km/h Distance 4.34 km</desc>
<time>2010-10-23T17:24:33.20</time>
<name>2676</name>
</trkpt>
<trkpt lat="48.938317" lon="8.651320">
<ele>346.0</ele>
<speed>1.85</speed>
<course>174.7</course>
<desc>Speed 6.7 km/h Distance 4.34 km</desc>
<time>2010-10-23T17:24:34.20</time>
<name>2677</name>
</trkpt>
<trkpt lat="48.938303" lon="8.651322">
<ele>346.0</ele>
<speed>1.72</speed>
<course>176.1</course>
<desc>Speed 6.2 km/h Distance 4.34 km</desc>
<time>2010-10-23T17:24:35.20</time>
<name>2678</name>
</trkpt>
<trkpt lat="48.938290" lon="8.651323">
<ele>346.5</ele>
<speed>1.78</speed>
<course>176.2</course>
<desc>Speed 6.4 km/h Distance 4.34 km</desc>
<time>2010-10-23T17:24:36.20</time>
<name>2679</name>
</trkpt>
<trkpt lat="48.938275" lon="8.651325">
<ele>346.5</ele>
<speed>1.87</speed>
<course>167.8</course>
<desc>Speed 6.7 km/h Distance 4.35 km</desc>
<time>2010-10-23T17:24:37.20</time>
<name>2680</name>
</trkpt>
<trkpt lat="48.938260" lon="8.651330">
<ele>346.5</ele>
<speed>1.79</speed>
<course>172.5</course>
<desc>Speed 6.4 km/h Distance 4.35 km</desc>
<time>2010-10-23T17:24:38.20</time>
<name>2681</name>
</trkpt>
<trkpt lat="48.938245" lon="8.651333">
<ele>346.5</ele>
<speed>1.74</speed>
<course>176.2</course>
<desc>Speed 6.3 km/h Distance 4.35 km</desc>
<time>2010-10-23T17:24:39.20</time>
<name>2682</name>
</trkpt>
<trkpt lat="48.938230" lon="8.651335">
<ele>346.5</ele>
<speed>1.74</speed>
<course>171.0</course>
<desc>Speed 6.3 km/h Distance 4.35 km</desc>
<time>2010-10-23T17:24:40.20</time>
<name>2683</name>
</trkpt>
<trkpt lat="48.938217" lon="8.651338">
<ele>346.5</ele>
<speed>1.66</speed>
<course>160.1</course>
<desc>Speed 6.0 km/h Distance 4.35 km</desc>
<time>2010-10-23T17:24:41.20</time>
<name>2684</name>
</trkpt>
<trkpt lat="48.938202" lon="8.651347">
<ele>346.5</ele>
<speed>1.66</speed>
<course>131.1</course>
<desc>Speed 6.0 km/h Distance 4.35 km</desc>
<time>2010-10-23T17:24:42.20</time>
<name>2685</name>
</trkpt>
<trkpt lat="48.938195" lon="8.651358">
<ele>347.5</ele>
<speed>1.76</speed>
<course>146.8</course>
<desc>Speed 6.3 km/h Distance 4.36 km</desc>
<time>2010-10-23T17:24:43.20</time>
<name>2686</name>
</trkpt>
<trkpt lat="48.938187" lon="8.651367">
<ele>348.5</ele>
<speed>1.67</speed>
<course>146.8</course>
<desc>Speed 6.0 km/h Distance 4.36 km</desc>
<time>2010-10-23T17:24:44.20</time>
<name>2687</name>
</trkpt>
<trkpt lat="48.938177" lon="8.651377">
<ele>349.5</ele>
<speed>1.71</speed>
<course>156.3</course>
<desc>Speed 6.2 km/h Distance 4.36 km</desc>
<time>2010-10-23T17:24:45.20</time>
<name>2688</name>
</trkpt>
<trkpt lat="48.938162" lon="8.651387">
<ele>349.5</ele>
<speed>1.75</speed>
<course>154.8</course>
<desc>Speed 6.3 km/h Distance 4.36 km</desc>
<time>2010-10-23T17:24:46.20</time>
<name>2689</name>
</trkpt>
<trkpt lat="48.938150" lon="8.651395">
<ele>349.5</ele>
<speed>1.62</speed>
<course>143.1</course>
<desc>Speed 5.8 km/h Distance 4.36 km</desc>
<time>2010-10-23T17:24:47.20</time>
<name>2690</name>
</trkpt>
<trkpt lat="48.938138" lon="8.651408">
<ele>350.0</ele>
<speed>1.65</speed>
<course>133.5</course>
<desc>Speed 5.9 km/h Distance 4.36 km</desc>
<time>2010-10-23T17:24:48.20</time>
<name>2691</name>
</trkpt>
<trkpt lat="48.938130" lon="8.651422">
<ele>350.5</ele>
<speed>1.42</speed>
<course>116.9</course>
<desc>Speed 5.1 km/h Distance 4.36 km</desc>
<time>2010-10-23T17:24:49.20</time>
<name>2692</name>
</trkpt>
<trkpt lat="48.938123" lon="8.651442">
<ele>350.5</ele>
<speed>1.61</speed>
<course>96.2</course>
<desc>Speed 5.8 km/h Distance 4.37 km</desc>
<time>2010-10-23T17:24:50.20</time>
<name>2693</name>
</trkpt>
<trkpt lat="48.938122" lon="8.651465">
<ele>350.5</ele>
<speed>1.57</speed>
<course>83.8</course>
<desc>Speed 5.7 km/h Distance 4.37 km</desc>
<time>2010-10-23T17:24:51.20</time>
<name>2694</name>
</trkpt>
<trkpt lat="48.938123" lon="8.651488">
<ele>350.0</ele>
<speed>1.59</speed>
<course>90.0</course>
<desc>Speed 5.7 km/h Distance 4.37 km</desc>
<time>2010-10-23T17:24:52.20</time>
<name>2695</name>
</trkpt>
<trkpt lat="48.938123" lon="8.651512">
<ele>349.5</ele>
<speed>1.51</speed>
<course>95.8</course>
<desc>Speed 5.4 km/h Distance 4.37 km</desc>
<time>2010-10-23T17:24:53.20</time>
<name>2696</name>
</trkpt>
<trkpt lat="48.938122" lon="8.651537">
<ele>349.5</ele>
<speed>1.69</speed>
<course>83.8</course>
<desc>Speed 6.1 km/h Distance 4.37 km</desc>
<time>2010-10-23T17:24:54.20</time>
<name>2697</name>
</trkpt>
<trkpt lat="48.938123" lon="8.651560">
<ele>349.0</ele>
<speed>1.57</speed>
<course>83.8</course>
<desc>Speed 5.7 km/h Distance 4.37 km</desc>
<time>2010-10-23T17:24:55.20</time>
<name>2698</name>
</trkpt>
<trkpt lat="48.938125" lon="8.651583">
<ele>349.0</ele>
<speed>1.54</speed>
<course>76.8</course>
<desc>Speed 5.5 km/h Distance 4.38 km</desc>
<time>2010-10-23T17:24:56.20</time>
<name>2699</name>
</trkpt>
<trkpt lat="48.938128" lon="8.651605">
<ele>348.5</ele>
<speed>1.49</speed>
<course>77.7</course>
<desc>Speed 5.4 km/h Distance 4.38 km</desc>
<time>2010-10-23T17:24:57.20</time>
<name>2700</name>
</trkpt>
<trkpt lat="48.938132" lon="8.651628">
<ele>348.5</ele>
<speed>1.58</speed>
<course>71.9</course>
<desc>Speed 5.7 km/h Distance 4.38 km</desc>
<time>2010-10-23T17:24:58.20</time>
<name>2701</name>
</trkpt>
<trkpt lat="48.938137" lon="8.651652">
<ele>348.0</ele>
<speed>1.69</speed>
<course>77.7</course>
<desc>Speed 6.1 km/h Distance 4.38 km</desc>
<time>2010-10-23T17:24:59.20</time>
<name>2702</name>
</trkpt>
<trkpt lat="48.938140" lon="8.651675">
<ele>348.0</ele>
<speed>1.67</speed>
<course>78.5</course>
<desc>Speed 6.0 km/h Distance 4.38 km</desc>
<time>2010-10-23T17:25:00.20</time>
<name>2703</name>
</trkpt>
<trkpt lat="48.938143" lon="8.651700">
<ele>348.0</ele>
<speed>1.75</speed>
<course>77.7</course>
<desc>Speed 6.3 km/h Distance 4.39 km</desc>
<time>2010-10-23T17:25:01.20</time>
<name>2704</name>
</trkpt>
<trkpt lat="48.938147" lon="8.651723">
<ele>347.5</ele>
<speed>1.70</speed>
<course>71.9</course>
<desc>Speed 6.1 km/h Distance 4.39 km</desc>
<time>2010-10-23T17:25:02.20</time>
<name>2705</name>
</trkpt>
<trkpt lat="48.938152" lon="8.651747">
<ele>347.5</ele>
<speed>1.71</speed>
<course>83.3</course>
<desc>Speed 6.2 km/h Distance 4.39 km</desc>
<time>2010-10-23T17:25:03.20</time>
<name>2706</name>
</trkpt>
<trkpt lat="48.938153" lon="8.651768">
<ele>347.5</ele>
<speed>1.54</speed>
<course>78.5</course>
<desc>Speed 5.5 km/h Distance 4.39 km</desc>
<time>2010-10-23T17:25:04.20</time>
<name>2707</name>
</trkpt>
<trkpt lat="48.938157" lon="8.651793">
<ele>347.5</ele>
<speed>1.60</speed>
<course>83.3</course>
<desc>Speed 5.8 km/h Distance 4.39 km</desc>
<time>2010-10-23T17:25:05.20</time>
<name>2708</name>
</trkpt>
<trkpt lat="48.938158" lon="8.651815">
<ele>347.5</ele>
<speed>1.61</speed>
<course>77.7</course>
<desc>Speed 5.8 km/h Distance 4.39 km</desc>
<time>2010-10-23T17:25:06.20</time>
<name>2709</name>
</trkpt>
<trkpt lat="48.938162" lon="8.651838">
<ele>347.0</ele>
<speed>1.63</speed>
<course>76.8</course>
<desc>Speed 5.9 km/h Distance 4.40 km</desc>
<time>2010-10-23T17:25:07.20</time>
<name>2710</name>
</trkpt>
<trkpt lat="48.938165" lon="8.651860">
<ele>347.0</ele>
<speed>1.62</speed>
<course>84.6</course>
<desc>Speed 5.8 km/h Distance 4.40 km</desc>
<time>2010-10-23T17:25:08.20</time>
<name>2711</name>
</trkpt>
<trkpt lat="48.938167" lon="8.651887">
<ele>347.0</ele>
<speed>1.66</speed>
<course>77.7</course>
<desc>Speed 6.0 km/h Distance 4.40 km</desc>
<time>2010-10-23T17:25:09.20</time>
<name>2712</name>
</trkpt>
<trkpt lat="48.938170" lon="8.651910">
<ele>347.0</ele>
<speed>1.69</speed>
<course>90.0</course>
<desc>Speed 6.1 km/h Distance 4.40 km</desc>
<time>2010-10-23T17:25:10.20</time>
<name>2713</name>
</trkpt>
<trkpt lat="48.938170" lon="8.651933">
<ele>346.5</ele>
<speed>1.67</speed>
<course>83.8</course>
<desc>Speed 6.0 km/h Distance 4.40 km</desc>
<time>2010-10-23T17:25:11.20</time>
<name>2714</name>
</trkpt>
<trkpt lat="48.938172" lon="8.651957">
<ele>346.5</ele>
<speed>1.62</speed>
<course>90.0</course>
<desc>Speed 5.8 km/h Distance 4.40 km</desc>
<time>2010-10-23T17:25:12.20</time>
<name>2715</name>
</trkpt>
<trkpt lat="48.938172" lon="8.651980">
<ele>345.5</ele>
<speed>1.62</speed>
<course>90.0</course>
<desc>Speed 5.8 km/h Distance 4.41 km</desc>
<time>2010-10-23T17:25:13.20</time>
<name>2716</name>
</trkpt>
<trkpt lat="48.938172" lon="8.652003">
<ele>345.5</ele>
<speed>1.62</speed>
<course>90.0</course>
<desc>Speed 5.8 km/h Distance 4.41 km</desc>
<time>2010-10-23T17:25:14.20</time>
<name>2717</name>
</trkpt>
<trkpt lat="48.938172" lon="8.652028">
<ele>345.5</ele>
<speed>1.70</speed>
<course>95.4</course>
<desc>Speed 6.1 km/h Distance 4.41 km</desc>
<time>2010-10-23T17:25:15.20</time>
<name>2718</name>
</trkpt>
<trkpt lat="48.938170" lon="8.652055">
<ele>345.5</ele>
<speed>1.74</speed>
<course>105.9</course>
<desc>Speed 6.3 km/h Distance 4.41 km</desc>
<time>2010-10-23T17:25:16.20</time>
<name>2719</name>
</trkpt>
<trkpt lat="48.938165" lon="8.652082">
<ele>345.5</ele>
<speed>1.78</speed>
<course>108.1</course>
<desc>Speed 6.4 km/h Distance 4.41 km</desc>
<time>2010-10-23T17:25:17.20</time>
<name>2720</name>
</trkpt>
<trkpt lat="48.938160" lon="8.652105">
<ele>345.0</ele>
<speed>1.76</speed>
<course>103.2</course>
<desc>Speed 6.3 km/h Distance 4.42 km</desc>
<time>2010-10-23T17:25:18.20</time>
<name>2721</name>
</trkpt>
<trkpt lat="48.938157" lon="8.652127">
<ele>345.0</ele>
<speed>1.73</speed>
<course>100.8</course>
<desc>Speed 6.2 km/h Distance 4.42 km</desc>
<time>2010-10-23T17:25:19.20</time>
<name>2722</name>
</trkpt>
<trkpt lat="48.938153" lon="8.652153">
<ele>345.0</ele>
<speed>1.63</speed>
<course>134.1</course>
<desc>Speed 5.9 km/h Distance 4.42 km</desc>
<time>2010-10-23T17:25:20.20</time>
<name>2723</name>
</trkpt>
<trkpt lat="48.938142" lon="8.652172">
<ele>343.5</ele>
<speed>1.90</speed>
<course>129.7</course>
<desc>Speed 6.8 km/h Distance 4.42 km</desc>
<time>2010-10-23T17:25:21.20</time>
<name>2724</name>
</trkpt>
<trkpt lat="48.938132" lon="8.652190">
<ele>342.0</ele>
<speed>1.84</speed>
<course>116.9</course>
<desc>Speed 6.6 km/h Distance 4.42 km</desc>
<time>2010-10-23T17:25:22.20</time>
<name>2725</name>
</trkpt>
<trkpt lat="48.938125" lon="8.652210">
<ele>340.5</ele>
<speed>1.75</speed>
<course>127.3</course>
<desc>Speed 6.3 km/h Distance 4.42 km</desc>
<time>2010-10-23T17:25:23.20</time>
<name>2726</name>
</trkpt>
<trkpt lat="48.938117" lon="8.652227">
<ele>339.5</ele>
<speed>1.57</speed>
<course>127.3</course>
<desc>Speed 5.7 km/h Distance 4.43 km</desc>
<time>2010-10-23T17:25:24.20</time>
<name>2727</name>
</trkpt>
<trkpt lat="48.938108" lon="8.652243">
<ele>338.5</ele>
<speed>1.54</speed>
<course>104.2</course>
<desc>Speed 5.5 km/h Distance 4.43 km</desc>
<time>2010-10-23T17:25:25.20</time>
<name>2728</name>
</trkpt>
<trkpt lat="48.938105" lon="8.652263">
<ele>338.0</ele>
<speed>1.57</speed>
<course>90.0</course>
<desc>Speed 5.7 km/h Distance 4.43 km</desc>
<time>2010-10-23T17:25:26.20</time>
<name>2729</name>
</trkpt>
<trkpt lat="48.938105" lon="8.652285">
<ele>338.5</ele>
<speed>1.42</speed>
<course>97.2</course>
<desc>Speed 5.1 km/h Distance 4.43 km</desc>
<time>2010-10-23T17:25:27.20</time>
<name>2730</name>
</trkpt>
<trkpt lat="48.938103" lon="8.652305">
<ele>338.5</ele>
<speed>1.33</speed>
<course>97.9</course>
<desc>Speed 4.8 km/h Distance 4.43 km</desc>
<time>2010-10-23T17:25:28.20</time>
<name>2731</name>
</trkpt>
<trkpt lat="48.938102" lon="8.652323">
<ele>339.0</ele>
<speed>1.26</speed>
<course>96.7</course>
<desc>Speed 4.5 km/h Distance 4.43 km</desc>
<time>2010-10-23T17:25:29.20</time>
<name>2732</name>
</trkpt>
<trkpt lat="48.938100" lon="8.652345">
<ele>339.5</ele>
<speed>1.36</speed>
<course>116.9</course>
<desc>Speed 4.9 km/h Distance 4.43 km</desc>
<time>2010-10-23T17:25:30.20</time>
<name>2733</name>
</trkpt>
<trkpt lat="48.938092" lon="8.652370">
<ele>339.5</ele>
<speed>2.07</speed>
<course>110.8</course>
<desc>Speed 7.5 km/h Distance 4.44 km</desc>
<time>2010-10-23T17:25:31.20</time>
<name>2734</name>
</trkpt>
<trkpt lat="48.938087" lon="8.652390">
<ele>339.0</ele>
<speed>1.58</speed>
<course>115.1</course>
<desc>Speed 5.7 km/h Distance 4.44 km</desc>
<time>2010-10-23T17:25:32.20</time>
<name>2735</name>
</trkpt>
<trkpt lat="48.938080" lon="8.652412">
<ele>338.0</ele>
<speed>1.62</speed>
<course>110.8</course>
<desc>Speed 5.8 km/h Distance 4.44 km</desc>
<time>2010-10-23T17:25:33.20</time>
<name>2736</name>
</trkpt>
<trkpt lat="48.938075" lon="8.652432">
<ele>337.5</ele>
<speed>1.61</speed>
<course>127.3</course>
<desc>Speed 5.8 km/h Distance 4.44 km</desc>
<time>2010-10-23T17:25:34.20</time>
<name>2737</name>
</trkpt>
<trkpt lat="48.938065" lon="8.652452">
<ele>336.5</ele>
<speed>1.63</speed>
<course>115.1</course>
<desc>Speed 5.9 km/h Distance 4.44 km</desc>
<time>2010-10-23T17:25:35.20</time>
<name>2738</name>
</trkpt>
<trkpt lat="48.938058" lon="8.652473">
<ele>335.5</ele>
<speed>1.62</speed>
<course>113.5</course>
<desc>Speed 5.8 km/h Distance 4.45 km</desc>
<time>2010-10-23T17:25:36.20</time>
<name>2739</name>
</trkpt>
<trkpt lat="48.938052" lon="8.652497">
<ele>335.0</ele>
<speed>1.72</speed>
<course>109.4</course>
<desc>Speed 6.2 km/h Distance 4.45 km</desc>
<time>2010-10-23T17:25:37.20</time>
<name>2740</name>
</trkpt>
<trkpt lat="48.938047" lon="8.652518">
<ele>335.0</ele>
<speed>1.59</speed>
<course>108.0</course>
<desc>Speed 5.7 km/h Distance 4.45 km</desc>
<time>2010-10-23T17:25:38.20</time>
<name>2741</name>
</trkpt>
<trkpt lat="48.938042" lon="8.652542">
<ele>335.5</ele>
<speed>1.75</speed>
<course>101.5</course>
<desc>Speed 6.3 km/h Distance 4.45 km</desc>
<time>2010-10-23T17:25:39.20</time>
<name>2742</name>
</trkpt>
<trkpt lat="48.938038" lon="8.652567">
<ele>335.0</ele>
<speed>1.71</speed>
<course>108.1</course>
<desc>Speed 6.2 km/h Distance 4.45 km</desc>
<time>2010-10-23T17:25:40.20</time>
<name>2743</name>
</trkpt>
<trkpt lat="48.938033" lon="8.652590">
<ele>334.5</ele>
<speed>1.70</speed>
<course>113.5</course>
<desc>Speed 6.1 km/h Distance 4.45 km</desc>
<time>2010-10-23T17:25:41.20</time>
<name>2744</name>
</trkpt>
<trkpt lat="48.938027" lon="8.652613">
<ele>334.5</ele>
<speed>1.74</speed>
<course>115.1</course>
<desc>Speed 6.3 km/h Distance 4.46 km</desc>
<time>2010-10-23T17:25:42.20</time>
<name>2745</name>
</trkpt>
<trkpt lat="48.938020" lon="8.652635">
<ele>333.5</ele>
<speed>1.75</speed>
<course>116.9</course>
<desc>Speed 6.3 km/h Distance 4.46 km</desc>
<time>2010-10-23T17:25:43.20</time>
<name>2746</name>
</trkpt>
<trkpt lat="48.938013" lon="8.652655">
<ele>333.5</ele>
<speed>1.62</speed>
<course>120.4</course>
<desc>Speed 5.8 km/h Distance 4.46 km</desc>
<time>2010-10-23T17:25:44.20</time>
<name>2747</name>
</trkpt>
<trkpt lat="48.938005" lon="8.652677">
<ele>332.5</ele>
<speed>1.70</speed>
<course>103.2</course>
<desc>Speed 6.1 km/h Distance 4.46 km</desc>
<time>2010-10-23T17:25:45.20</time>
<name>2748</name>
</trkpt>
<trkpt lat="48.938002" lon="8.652698">
<ele>332.0</ele>
<speed>1.64</speed>
<course>115.1</course>
<desc>Speed 5.9 km/h Distance 4.46 km</desc>
<time>2010-10-23T17:25:46.20</time>
<name>2749</name>
</trkpt>
<trkpt lat="48.937995" lon="8.652720">
<ele>331.5</ele>
<speed>1.54</speed>
<course>96.7</course>
<desc>Speed 5.5 km/h Distance 4.46 km</desc>
<time>2010-10-23T17:25:47.20</time>
<name>2750</name>
</trkpt>
<trkpt lat="48.937993" lon="8.652742">
<ele>331.5</ele>
<speed>1.52</speed>
<course>97.2</course>
<desc>Speed 5.5 km/h Distance 4.47 km</desc>
<time>2010-10-23T17:25:48.20</time>
<name>2751</name>
</trkpt>
<trkpt lat="48.937992" lon="8.652762">
<ele>331.5</ele>
<speed>1.45</speed>
<course>97.2</course>
<desc>Speed 5.2 km/h Distance 4.47 km</desc>
<time>2010-10-23T17:25:49.20</time>
<name>2752</name>
</trkpt>
<trkpt lat="48.937990" lon="8.652782">
<ele>332.0</ele>
<speed>1.39</speed>
<course>110.8</course>
<desc>Speed 5.0 km/h Distance 4.47 km</desc>
<time>2010-10-23T17:25:50.20</time>
<name>2753</name>
</trkpt>
<trkpt lat="48.937985" lon="8.652802">
<ele>331.0</ele>
<speed>1.44</speed>
<course>90.0</course>
<desc>Speed 5.2 km/h Distance 4.47 km</desc>
<time>2010-10-23T17:25:51.20</time>
<name>2754</name>
</trkpt>
<trkpt lat="48.937985" lon="8.652818">
<ele>331.5</ele>
<speed>1.03</speed>
<course>79.2</course>
<desc>Speed 3.7 km/h Distance 4.47 km</desc>
<time>2010-10-23T17:25:52.20</time>
<name>2755</name>
</trkpt>
<trkpt lat="48.937987" lon="8.652832">
<ele>331.5</ele>
<speed>0.87</speed>
<course>17.6</course>
<desc>Speed 3.1 km/h Distance 4.47 km</desc>
<time>2010-10-23T17:25:53.20</time>
<name>2756</name>
</trkpt>
<trkpt lat="48.938032" lon="8.652853">
<ele>341.0</ele>
<speed>0.54</speed>
<course>82.1</course>
<desc>Speed 1.9 km/h Distance 4.48 km</desc>
<time>2010-10-23T17:25:59.20</time>
<name>2757</name>
</trkpt>
<trkpt lat="48.938033" lon="8.652872">
<ele>341.5</ele>
<speed>1.33</speed>
<course>70.6</course>
<desc>Speed 4.8 km/h Distance 4.48 km</desc>
<time>2010-10-23T17:26:00.20</time>
<name>2758</name>
</trkpt>
<trkpt lat="48.938038" lon="8.652893">
<ele>341.5</ele>
<speed>1.52</speed>
<course>82.8</course>
<desc>Speed 5.5 km/h Distance 4.48 km</desc>
<time>2010-10-23T17:26:01.20</time>
<name>2759</name>
</trkpt>
<trkpt lat="48.938040" lon="8.652913">
<ele>341.5</ele>
<speed>1.54</speed>
<course>90.0</course>
<desc>Speed 5.5 km/h Distance 4.48 km</desc>
<time>2010-10-23T17:26:02.20</time>
<name>2760</name>
</trkpt>
<trkpt lat="48.938040" lon="8.652937">
<ele>341.5</ele>
<speed>1.58</speed>
<course>83.8</course>
<desc>Speed 5.7 km/h Distance 4.48 km</desc>
<time>2010-10-23T17:26:03.20</time>
<name>2761</name>
</trkpt>
<trkpt lat="48.938042" lon="8.652960">
<ele>341.0</ele>
<speed>1.64</speed>
<course>90.0</course>
<desc>Speed 5.9 km/h Distance 4.49 km</desc>
<time>2010-10-23T17:26:04.20</time>
<name>2762</name>
</trkpt>
<trkpt lat="48.938042" lon="8.652983">
<ele>341.0</ele>
<speed>1.62</speed>
<course>90.0</course>
<desc>Speed 5.8 km/h Distance 4.49 km</desc>
<time>2010-10-23T17:26:05.20</time>
<name>2763</name>
</trkpt>
<trkpt lat="48.938042" lon="8.653003">
<ele>341.0</ele>
<speed>1.42</speed>
<course>90.0</course>
<desc>Speed 5.1 km/h Distance 4.49 km</desc>
<time>2010-10-23T17:26:06.20</time>
<name>2764</name>
</trkpt>
<trkpt lat="48.938042" lon="8.653025">
<ele>340.5</ele>
<speed>1.46</speed>
<course>109.3</course>
<desc>Speed 5.3 km/h Distance 4.49 km</desc>
<time>2010-10-23T17:26:07.20</time>
<name>2765</name>
</trkpt>
<trkpt lat="48.938037" lon="8.653047">
<ele>340.0</ele>
<speed>1.44</speed>
<course>95.8</course>
<desc>Speed 5.2 km/h Distance 4.49 km</desc>
<time>2010-10-23T17:26:08.20</time>
<name>2766</name>
</trkpt>
<trkpt lat="48.938035" lon="8.653072">
<ele>339.5</ele>
<speed>1.49</speed>
<course>90.0</course>
<desc>Speed 5.4 km/h Distance 4.49 km</desc>
<time>2010-10-23T17:26:09.20</time>
<name>2767</name>
</trkpt>
<trkpt lat="48.938035" lon="8.653093">
<ele>339.5</ele>
<speed>1.45</speed>
<course>96.7</course>
<desc>Speed 5.2 km/h Distance 4.50 km</desc>
<time>2010-10-23T17:26:10.20</time>
<name>2768</name>
</trkpt>
<trkpt lat="48.938033" lon="8.653115">
<ele>339.0</ele>
<speed>1.50</speed>
<course>90.0</course>
<desc>Speed 5.4 km/h Distance 4.50 km</desc>
<time>2010-10-23T17:26:11.20</time>
<name>2769</name>
</trkpt>
<trkpt lat="48.938033" lon="8.653138">
<ele>339.0</ele>
<speed>1.54</speed>
<course>96.2</course>
<desc>Speed 5.5 km/h Distance 4.50 km</desc>
<time>2010-10-23T17:26:12.20</time>
<name>2770</name>
</trkpt>
<trkpt lat="48.938032" lon="8.653162">
<ele>339.0</ele>
<speed>1.59</speed>
<course>90.0</course>
<desc>Speed 5.7 km/h Distance 4.50 km</desc>
<time>2010-10-23T17:26:13.20</time>
<name>2771</name>
</trkpt>
<trkpt lat="48.938032" lon="8.653187">
<ele>338.5</ele>
<speed>1.65</speed>
<course>84.2</course>
<desc>Speed 5.9 km/h Distance 4.50 km</desc>
<time>2010-10-23T17:26:14.20</time>
<name>2772</name>
</trkpt>
<trkpt lat="48.938033" lon="8.653212">
<ele>338.0</ele>
<speed>1.60</speed>
<course>90.0</course>
<desc>Speed 5.8 km/h Distance 4.51 km</desc>
<time>2010-10-23T17:26:15.20</time>
<name>2773</name>
</trkpt>
<trkpt lat="48.938033" lon="8.653237">
<ele>337.5</ele>
<speed>1.58</speed>
<course>90.0</course>
<desc>Speed 5.7 km/h Distance 4.51 km</desc>
<time>2010-10-23T17:26:16.20</time>
<name>2774</name>
</trkpt>
<trkpt lat="48.938033" lon="8.653263">
<ele>337.0</ele>
<speed>1.61</speed>
<course>85.2</course>
<desc>Speed 5.8 km/h Distance 4.51 km</desc>
<time>2010-10-23T17:26:17.20</time>
<name>2775</name>
</trkpt>
<trkpt lat="48.938035" lon="8.653293">
<ele>337.0</ele>
<speed>1.80</speed>
<course>84.6</course>
<desc>Speed 6.5 km/h Distance 4.51 km</desc>
<time>2010-10-23T17:26:18.20</time>
<name>2776</name>
</trkpt>
<trkpt lat="48.938037" lon="8.653320">
<ele>337.0</ele>
<speed>1.69</speed>
<course>84.9</course>
<desc>Speed 6.1 km/h Distance 4.51 km</desc>
<time>2010-10-23T17:26:19.20</time>
<name>2777</name>
</trkpt>
<trkpt lat="48.938038" lon="8.653348">
<ele>336.5</ele>
<speed>1.67</speed>
<course>84.9</course>
<desc>Speed 6.0 km/h Distance 4.52 km</desc>
<time>2010-10-23T17:26:20.20</time>
<name>2778</name>
</trkpt>
<trkpt lat="48.938040" lon="8.653377">
<ele>336.0</ele>
<speed>1.64</speed>
<course>79.8</course>
<desc>Speed 5.9 km/h Distance 4.52 km</desc>
<time>2010-10-23T17:26:21.20</time>
<name>2779</name>
</trkpt>
<trkpt lat="48.938043" lon="8.653405">
<ele>336.0</ele>
<speed>1.77</speed>
<course>79.2</course>
<desc>Speed 6.4 km/h Distance 4.52 km</desc>
<time>2010-10-23T17:26:22.20</time>
<name>2780</name>
</trkpt>
<trkpt lat="48.938047" lon="8.653432">
<ele>335.5</ele>
<speed>1.65</speed>
<course>78.5</course>
<desc>Speed 5.9 km/h Distance 4.52 km</desc>
<time>2010-10-23T17:26:23.20</time>
<name>2781</name>
</trkpt>
<trkpt lat="48.938050" lon="8.653457">
<ele>335.5</ele>
<speed>1.75</speed>
<course>84.6</course>
<desc>Speed 6.3 km/h Distance 4.52 km</desc>
<time>2010-10-23T17:26:24.20</time>
<name>2782</name>
</trkpt>
<trkpt lat="48.938052" lon="8.653483">
<ele>335.5</ele>
<speed>1.83</speed>
<course>84.6</course>
<desc>Speed 6.6 km/h Distance 4.53 km</desc>
<time>2010-10-23T17:26:25.20</time>
<name>2783</name>
</trkpt>
<trkpt lat="48.938053" lon="8.653510">
<ele>335.0</ele>
<speed>1.95</speed>
<course>90.0</course>
<desc>Speed 7.0 km/h Distance 4.53 km</desc>
<time>2010-10-23T17:26:26.20</time>
<name>2784</name>
</trkpt>
<trkpt lat="48.938053" lon="8.653538">
<ele>335.0</ele>
<speed>1.96</speed>
<course>96.2</course>
<desc>Speed 7.1 km/h Distance 4.53 km</desc>
<time>2010-10-23T17:26:27.20</time>
<name>2785</name>
</trkpt>
<trkpt lat="48.938052" lon="8.653562">
<ele>335.0</ele>
<speed>1.66</speed>
<course>84.2</course>
<desc>Speed 6.0 km/h Distance 4.53 km</desc>
<time>2010-10-23T17:26:28.20</time>
<name>2786</name>
</trkpt>
<trkpt lat="48.938053" lon="8.653587">
<ele>335.0</ele>
<speed>1.73</speed>
<course>77.7</course>
<desc>Speed 6.2 km/h Distance 4.53 km</desc>
<time>2010-10-23T17:26:29.20</time>
<name>2787</name>
</trkpt>
<trkpt lat="48.938057" lon="8.653610">
<ele>335.0</ele>
<speed>1.75</speed>
<course>79.2</course>
<desc>Speed 6.3 km/h Distance 4.53 km</desc>
<time>2010-10-23T17:26:30.20</time>
<name>2788</name>
</trkpt>
<trkpt lat="48.938060" lon="8.653637">
<ele>335.0</ele>
<speed>1.75</speed>
<course>83.8</course>
<desc>Speed 6.3 km/h Distance 4.54 km</desc>
<time>2010-10-23T17:26:31.20</time>
<name>2789</name>
</trkpt>
<trkpt lat="48.938062" lon="8.653660">
<ele>334.5</ele>
<speed>1.62</speed>
<course>79.2</course>
<desc>Speed 5.8 km/h Distance 4.54 km</desc>
<time>2010-10-23T17:26:32.20</time>
<name>2790</name>
</trkpt>
<trkpt lat="48.938065" lon="8.653687">
<ele>334.0</ele>
<speed>1.75</speed>
<course>77.7</course>
<desc>Speed 6.3 km/h Distance 4.54 km</desc>
<time>2010-10-23T17:26:33.20</time>
<name>2791</name>
</trkpt>
<trkpt lat="48.938068" lon="8.653710">
<ele>334.5</ele>
<speed>1.51</speed>
<course>78.5</course>
<desc>Speed 5.4 km/h Distance 4.54 km</desc>
<time>2010-10-23T17:26:34.20</time>
<name>2792</name>
</trkpt>
<trkpt lat="48.938072" lon="8.653735">
<ele>334.5</ele>
<speed>1.60</speed>
<course>90.0</course>
<desc>Speed 5.8 km/h Distance 4.54 km</desc>
<time>2010-10-23T17:26:35.20</time>
<name>2793</name>
</trkpt>
<trkpt lat="48.938072" lon="8.653757">
<ele>333.5</ele>
<speed>1.47</speed>
<course>96.2</course>
<desc>Speed 5.3 km/h Distance 4.55 km</desc>
<time>2010-10-23T17:26:36.20</time>
<name>2794</name>
</trkpt>
<trkpt lat="48.938070" lon="8.653780">
<ele>332.0</ele>
<speed>1.50</speed>
<course>103.2</course>
<desc>Speed 5.4 km/h Distance 4.55 km</desc>
<time>2010-10-23T17:26:37.20</time>
<name>2795</name>
</trkpt>
<trkpt lat="48.938067" lon="8.653802">
<ele>330.5</ele>
<speed>1.40</speed>
<course>96.7</course>
<desc>Speed 5.0 km/h Distance 4.55 km</desc>
<time>2010-10-23T17:26:38.20</time>
<name>2796</name>
</trkpt>
<trkpt lat="48.938065" lon="8.653823">
<ele>329.5</ele>
<speed>1.49</speed>
<course>102.3</course>
<desc>Speed 5.4 km/h Distance 4.55 km</desc>
<time>2010-10-23T17:26:39.20</time>
<name>2797</name>
</trkpt>
<trkpt lat="48.938062" lon="8.653847">
<ele>329.0</ele>
<speed>1.48</speed>
<course>90.0</course>
<desc>Speed 5.3 km/h Distance 4.55 km</desc>
<time>2010-10-23T17:26:40.20</time>
<name>2798</name>
</trkpt>
<trkpt lat="48.938062" lon="8.653868">
<ele>328.0</ele>
<speed>1.41</speed>
<course>90.0</course>
<desc>Speed 5.1 km/h Distance 4.55 km</desc>
<time>2010-10-23T17:26:41.20</time>
<name>2799</name>
</trkpt>
<trkpt lat="48.938062" lon="8.653893">
<ele>327.0</ele>
<speed>1.66</speed>
<course>84.2</course>
<desc>Speed 6.0 km/h Distance 4.56 km</desc>
<time>2010-10-23T17:26:42.20</time>
<name>2800</name>
</trkpt>
<trkpt lat="48.938063" lon="8.653918">
<ele>327.0</ele>
<speed>1.73</speed>
<course>95.8</course>
<desc>Speed 6.2 km/h Distance 4.56 km</desc>
<time>2010-10-23T17:26:43.20</time>
<name>2801</name>
</trkpt>
<trkpt lat="48.938062" lon="8.653943">
<ele>326.5</ele>
<speed>1.71</speed>
<course>90.0</course>
<desc>Speed 6.2 km/h Distance 4.56 km</desc>
<time>2010-10-23T17:26:44.20</time>
<name>2802</name>
</trkpt>
<trkpt lat="48.938062" lon="8.653970">
<ele>326.5</ele>
<speed>1.77</speed>
<course>84.2</course>
<desc>Speed 6.4 km/h Distance 4.56 km</desc>
<time>2010-10-23T17:26:45.20</time>
<name>2803</name>
</trkpt>
<trkpt lat="48.938063" lon="8.653995">
<ele>326.5</ele>
<speed>1.75</speed>
<course>90.0</course>
<desc>Speed 6.3 km/h Distance 4.56 km</desc>
<time>2010-10-23T17:26:46.20</time>
<name>2804</name>
</trkpt>
<trkpt lat="48.938063" lon="8.654018">
<ele>325.5</ele>
<speed>1.62</speed>
<course>90.0</course>
<desc>Speed 5.8 km/h Distance 4.56 km</desc>
<time>2010-10-23T17:26:47.20</time>
<name>2805</name>
</trkpt>
<trkpt lat="48.938063" lon="8.654040">
<ele>325.0</ele>
<speed>1.57</speed>
<course>83.8</course>
<desc>Speed 5.7 km/h Distance 4.57 km</desc>
<time>2010-10-23T17:26:48.20</time>
<name>2806</name>
</trkpt>
<trkpt lat="48.938065" lon="8.654063">
<ele>325.0</ele>
<speed>1.60</speed>
<course>76.8</course>
<desc>Speed 5.8 km/h Distance 4.57 km</desc>
<time>2010-10-23T17:26:49.20</time>
<name>2807</name>
</trkpt>
<trkpt lat="48.938068" lon="8.654085">
<ele>324.5</ele>
<speed>1.50</speed>
<course>84.2</course>
<desc>Speed 5.4 km/h Distance 4.57 km</desc>
<time>2010-10-23T17:26:50.20</time>
<name>2808</name>
</trkpt>
<trkpt lat="48.938070" lon="8.654110">
<ele>324.0</ele>
<speed>1.70</speed>
<course>84.2</course>
<desc>Speed 6.1 km/h Distance 4.57 km</desc>
<time>2010-10-23T17:26:51.20</time>
<name>2809</name>
</trkpt>
<trkpt lat="48.938072" lon="8.654135">
<ele>323.5</ele>
<speed>1.65</speed>
<course>90.0</course>
<desc>Speed 5.9 km/h Distance 4.57 km</desc>
<time>2010-10-23T17:26:52.20</time>
<name>2810</name>
</trkpt>
<trkpt lat="48.938072" lon="8.654157">
<ele>323.0</ele>
<speed>1.60</speed>
<course>78.5</course>
<desc>Speed 5.8 km/h Distance 4.57 km</desc>
<time>2010-10-23T17:26:53.20</time>
<name>2811</name>
</trkpt>
<trkpt lat="48.938075" lon="8.654182">
<ele>323.0</ele>
<speed>1.72</speed>
<course>84.6</course>
<desc>Speed 6.2 km/h Distance 4.58 km</desc>
<time>2010-10-23T17:26:54.20</time>
<name>2812</name>
</trkpt>
<trkpt lat="48.938077" lon="8.654208">
<ele>323.0</ele>
<speed>1.86</speed>
<course>78.5</course>
<desc>Speed 6.7 km/h Distance 4.58 km</desc>
<time>2010-10-23T17:26:55.20</time>
<name>2813</name>
</trkpt>
<trkpt lat="48.938080" lon="8.654233">
<ele>322.5</ele>
<speed>1.70</speed>
<course>90.0</course>
<desc>Speed 6.1 km/h Distance 4.58 km</desc>
<time>2010-10-23T17:26:56.20</time>
<name>2814</name>
</trkpt>
<trkpt lat="48.938080" lon="8.654255">
<ele>322.0</ele>
<speed>1.54</speed>
<course>84.2</course>
<desc>Speed 5.5 km/h Distance 4.58 km</desc>
<time>2010-10-23T17:26:57.20</time>
<name>2815</name>
</trkpt>
<trkpt lat="48.938082" lon="8.654280">
<ele>321.5</ele>
<speed>1.66</speed>
<course>95.8</course>
<desc>Speed 6.0 km/h Distance 4.58 km</desc>
<time>2010-10-23T17:26:58.20</time>
<name>2816</name>
</trkpt>
<trkpt lat="48.938080" lon="8.654305">
<ele>321.0</ele>
<speed>1.75</speed>
<course>79.8</course>
<desc>Speed 6.3 km/h Distance 4.59 km</desc>
<time>2010-10-23T17:26:59.20</time>
<name>2817</name>
</trkpt>
<trkpt lat="48.938083" lon="8.654333">
<ele>322.5</ele>
<speed>1.55</speed>
<course>96.2</course>
<desc>Speed 5.6 km/h Distance 4.59 km</desc>
<time>2010-10-23T17:27:00.20</time>
<name>2818</name>
</trkpt>
<trkpt lat="48.938082" lon="8.654357">
<ele>322.5</ele>
<speed>1.60</speed>
<course>109.4</course>
<desc>Speed 5.8 km/h Distance 4.59 km</desc>
<time>2010-10-23T17:27:01.20</time>
<name>2819</name>
</trkpt>
<trkpt lat="48.938077" lon="8.654378">
<ele>322.0</ele>
<speed>1.69</speed>
<course>115.1</course>
<desc>Speed 6.1 km/h Distance 4.59 km</desc>
<time>2010-10-23T17:27:02.20</time>
<name>2820</name>
</trkpt>
<trkpt lat="48.938070" lon="8.654400">
<ele>321.5</ele>
<speed>1.65</speed>
<course>76.8</course>
<desc>Speed 5.9 km/h Distance 4.59 km</desc>
<time>2010-10-23T17:27:03.20</time>
<name>2821</name>
</trkpt>
<trkpt lat="48.938073" lon="8.654422">
<ele>320.5</ele>
<speed>1.42</speed>
<course>96.2</course>
<desc>Speed 5.1 km/h Distance 4.59 km</desc>
<time>2010-10-23T17:27:04.20</time>
<name>2822</name>
</trkpt>
<trkpt lat="48.938072" lon="8.654445">
<ele>320.0</ele>
<speed>1.51</speed>
<course>101.5</course>
<desc>Speed 5.4 km/h Distance 4.60 km</desc>
<time>2010-10-23T17:27:05.20</time>
<name>2823</name>
</trkpt>
<trkpt lat="48.938068" lon="8.654470">
<ele>319.0</ele>
<speed>1.66</speed>
<course>79.2</course>
<desc>Speed 6.0 km/h Distance 4.60 km</desc>
<time>2010-10-23T17:27:06.20</time>
<name>2824</name>
</trkpt>
<trkpt lat="48.938072" lon="8.654497">
<ele>319.5</ele>
<speed>1.74</speed>
<course>83.8</course>
<desc>Speed 6.3 km/h Distance 4.60 km</desc>
<time>2010-10-23T17:27:07.20</time>
<name>2825</name>
</trkpt>
<trkpt lat="48.938073" lon="8.654520">
<ele>319.5</ele>
<speed>1.57</speed>
<course>90.0</course>
<desc>Speed 5.7 km/h Distance 4.60 km</desc>
<time>2010-10-23T17:27:08.20</time>
<name>2826</name>
</trkpt>
<trkpt lat="48.938073" lon="8.654542">
<ele>319.0</ele>
<speed>1.48</speed>
<course>84.2</course>
<desc>Speed 5.3 km/h Distance 4.60 km</desc>
<time>2010-10-23T17:27:09.20</time>
<name>2827</name>
</trkpt>
<trkpt lat="48.938075" lon="8.654567">
<ele>318.5</ele>
<speed>1.59</speed>
<course>90.0</course>
<desc>Speed 5.7 km/h Distance 4.61 km</desc>
<time>2010-10-23T17:27:10.20</time>
<name>2828</name>
</trkpt>
<trkpt lat="48.938075" lon="8.654588">
<ele>318.0</ele>
<speed>1.58</speed>
<course>73.1</course>
<desc>Speed 5.7 km/h Distance 4.61 km</desc>
<time>2010-10-23T17:27:11.20</time>
<name>2829</name>
</trkpt>
<trkpt lat="48.938080" lon="8.654613">
<ele>318.5</ele>
<speed>1.59</speed>
<course>63.1</course>
<desc>Speed 5.7 km/h Distance 4.61 km</desc>
<time>2010-10-23T17:27:12.20</time>
<name>2830</name>
</trkpt>
<trkpt lat="48.938087" lon="8.654633">
<ele>319.0</ele>
<speed>1.24</speed>
<course>72.0</course>
<desc>Speed 4.5 km/h Distance 4.61 km</desc>
<time>2010-10-23T17:27:13.20</time>
<name>2831</name>
</trkpt>
<trkpt lat="48.938092" lon="8.654657">
<ele>319.5</ele>
<speed>1.62</speed>
<course>84.6</course>
<desc>Speed 5.8 km/h Distance 4.61 km</desc>
<time>2010-10-23T17:27:14.20</time>
<name>2832</name>
</trkpt>
<trkpt lat="48.938093" lon="8.654683">
<ele>319.0</ele>
<speed>1.79</speed>
<course>96.2</course>
<desc>Speed 6.4 km/h Distance 4.61 km</desc>
<time>2010-10-23T17:27:15.20</time>
<name>2833</name>
</trkpt>
<trkpt lat="48.938092" lon="8.654707">
<ele>318.5</ele>
<speed>1.57</speed>
<course>84.2</course>
<desc>Speed 5.7 km/h Distance 4.62 km</desc>
<time>2010-10-23T17:27:16.20</time>
<name>2834</name>
</trkpt>
<trkpt lat="48.938093" lon="8.654732">
<ele>318.5</ele>
<speed>1.71</speed>
<course>109.3</course>
<desc>Speed 6.2 km/h Distance 4.62 km</desc>
<time>2010-10-23T17:27:17.20</time>
<name>2835</name>
</trkpt>
<trkpt lat="48.938088" lon="8.654753">
<ele>317.0</ele>
<speed>1.52</speed>
<course>90.0</course>
<desc>Speed 5.5 km/h Distance 4.62 km</desc>
<time>2010-10-23T17:27:18.20</time>
<name>2836</name>
</trkpt>
<trkpt lat="48.938088" lon="8.654780">
<ele>316.5</ele>
<speed>1.74</speed>
<course>84.2</course>
<desc>Speed 6.3 km/h Distance 4.62 km</desc>
<time>2010-10-23T17:27:19.20</time>
<name>2837</name>
</trkpt>
<trkpt lat="48.938090" lon="8.654805">
<ele>316.0</ele>
<speed>1.66</speed>
<course>84.2</course>
<desc>Speed 6.0 km/h Distance 4.62 km</desc>
<time>2010-10-23T17:27:20.20</time>
<name>2838</name>
</trkpt>
<trkpt lat="48.938092" lon="8.654830">
<ele>316.0</ele>
<speed>1.60</speed>
<course>78.5</course>
<desc>Speed 5.8 km/h Distance 4.62 km</desc>
<time>2010-10-23T17:27:21.20</time>
<name>2839</name>
</trkpt>
<trkpt lat="48.938095" lon="8.654855">
<ele>316.0</ele>
<speed>1.61</speed>
<course>90.0</course>
<desc>Speed 5.8 km/h Distance 4.63 km</desc>
<time>2010-10-23T17:27:22.20</time>
<name>2840</name>
</trkpt>
<trkpt lat="48.938095" lon="8.654877">
<ele>316.0</ele>
<speed>1.37</speed>
<course>83.3</course>
<desc>Speed 4.9 km/h Distance 4.63 km</desc>
<time>2010-10-23T17:27:23.20</time>
<name>2841</name>
</trkpt>
<trkpt lat="48.938097" lon="8.654898">
<ele>315.0</ele>
<speed>1.37</speed>
<course>108.7</course>
<desc>Speed 4.9 km/h Distance 4.63 km</desc>
<time>2010-10-23T17:27:24.20</time>
<name>2842</name>
</trkpt>
<trkpt lat="48.938093" lon="8.654913">
<ele>314.5</ele>
<speed>1.16</speed>
<course>83.3</course>
<desc>Speed 4.2 km/h Distance 4.63 km</desc>
<time>2010-10-23T17:27:25.20</time>
<name>2843</name>
</trkpt>
<trkpt lat="48.938095" lon="8.654935">
<ele>314.5</ele>
<speed>1.67</speed>
<course>100.7</course>
<desc>Speed 6.0 km/h Distance 4.63 km</desc>
<time>2010-10-23T17:27:26.20</time>
<name>2844</name>
</trkpt>
<trkpt lat="48.938093" lon="8.654948">
<ele>314.0</ele>
<speed>0.98</speed>
<course>350.9</course>
<desc>Speed 3.5 km/h Distance 4.63 km</desc>
<time>2010-10-23T17:27:27.20</time>
<name>2845</name>
</trkpt>
<trkpt lat="48.938148" lon="8.654935">
<ele>314.0</ele>
<speed>1.23</speed>
<course>117.4</course>
<desc>Speed 4.4 km/h Distance 4.64 km</desc>
<time>2010-10-23T17:27:31.20</time>
<name>2846</name>
</trkpt>
<trkpt lat="48.938147" lon="8.654940">
<ele>313.5</ele>
<speed>0.43</speed>
<course>90.0</course>
<desc>Speed 1.5 km/h Distance 4.64 km</desc>
<time>2010-10-23T17:27:35.20</time>
<name>2847</name>
</trkpt>
<trkpt lat="48.938147" lon="8.654948">
<ele>313.0</ele>
<speed>0.36</speed>
<course>40.2</course>
<desc>Speed 1.3 km/h Distance 4.64 km</desc>
<time>2010-10-23T17:27:40.20</time>
<name>2848</name>
</trkpt>
<trkpt lat="48.938158" lon="8.654963">
<ele>313.0</ele>
<speed>0.74</speed>
<course>90.0</course>
<desc>Speed 2.7 km/h Distance 4.64 km</desc>
<time>2010-10-23T17:27:44.20</time>
<name>2849</name>
</trkpt>
<trkpt lat="48.938158" lon="8.654987">
<ele>313.0</ele>
<speed>1.51</speed>
<course>109.4</course>
<desc>Speed 5.4 km/h Distance 4.64 km</desc>
<time>2010-10-23T17:27:45.20</time>
<name>2850</name>
</trkpt>
<trkpt lat="48.938153" lon="8.655008">
<ele>313.0</ele>
<speed>1.50</speed>
<course>83.3</course>
<desc>Speed 5.4 km/h Distance 4.65 km</desc>
<time>2010-10-23T17:27:46.20</time>
<name>2851</name>
</trkpt>
<trkpt lat="48.938155" lon="8.655030">
<ele>313.0</ele>
<speed>1.42</speed>
<course>84.6</course>
<desc>Speed 5.1 km/h Distance 4.65 km</desc>
<time>2010-10-23T17:27:47.20</time>
<name>2852</name>
</trkpt>
<trkpt lat="48.938157" lon="8.655057">
<ele>313.0</ele>
<speed>1.52</speed>
<course>90.0</course>
<desc>Speed 5.5 km/h Distance 4.65 km</desc>
<time>2010-10-23T17:27:48.20</time>
<name>2853</name>
</trkpt>
<trkpt lat="48.938157" lon="8.655083">
<ele>312.5</ele>
<speed>1.52</speed>
<course>90.0</course>
<desc>Speed 5.5 km/h Distance 4.65 km</desc>
<time>2010-10-23T17:27:49.20</time>
<name>2854</name>
</trkpt>
<trkpt lat="48.938157" lon="8.655108">
<ele>312.0</ele>
<speed>1.48</speed>
<course>90.0</course>
<desc>Speed 5.3 km/h Distance 4.65 km</desc>
<time>2010-10-23T17:27:50.20</time>
<name>2855</name>
</trkpt>
<trkpt lat="48.938157" lon="8.655138">
<ele>312.5</ele>
<speed>1.66</speed>
<course>83.8</course>
<desc>Speed 6.0 km/h Distance 4.66 km</desc>
<time>2010-10-23T17:27:51.20</time>
<name>2856</name>
</trkpt>
<trkpt lat="48.938158" lon="8.655162">
<ele>312.5</ele>
<speed>1.58</speed>
<course>84.2</course>
<desc>Speed 5.7 km/h Distance 4.66 km</desc>
<time>2010-10-23T17:27:52.20</time>
<name>2857</name>
</trkpt>
<trkpt lat="48.938160" lon="8.655187">
<ele>312.5</ele>
<speed>1.62</speed>
<course>73.1</course>
<desc>Speed 5.8 km/h Distance 4.66 km</desc>
<time>2010-10-23T17:27:53.20</time>
<name>2858</name>
</trkpt>
<trkpt lat="48.938165" lon="8.655212">
<ele>312.0</ele>
<speed>1.57</speed>
<course>61.4</course>
<desc>Speed 5.7 km/h Distance 4.66 km</desc>
<time>2010-10-23T17:27:54.20</time>
<name>2859</name>
</trkpt>
<trkpt lat="48.938173" lon="8.655235">
<ele>312.0</ele>
<speed>1.69</speed>
<course>66.5</course>
<desc>Speed 6.1 km/h Distance 4.66 km</desc>
<time>2010-10-23T17:27:55.20</time>
<name>2860</name>
</trkpt>
<trkpt lat="48.938180" lon="8.655258">
<ele>311.5</ele>
<speed>1.58</speed>
<course>66.5</course>
<desc>Speed 5.7 km/h Distance 4.66 km</desc>
<time>2010-10-23T17:27:56.20</time>
<name>2861</name>
</trkpt>
<trkpt lat="48.938187" lon="8.655282">
<ele>311.5</ele>
<speed>1.67</speed>
<course>69.2</course>
<desc>Speed 6.0 km/h Distance 4.67 km</desc>
<time>2010-10-23T17:27:57.20</time>
<name>2862</name>
</trkpt>
<trkpt lat="48.938192" lon="8.655302">
<ele>310.5</ele>
<speed>1.49</speed>
<course>44.7</course>
<desc>Speed 5.4 km/h Distance 4.67 km</desc>
<time>2010-10-23T17:27:58.21</time>
<name>2863</name>
</trkpt>
<trkpt lat="48.938205" lon="8.655322">
<ele>311.0</ele>
<speed>1.69</speed>
<course>38.8</course>
<desc>Speed 6.1 km/h Distance 4.67 km</desc>
<time>2010-10-23T17:27:59.19</time>
<name>2864</name>
</trkpt>
<trkpt lat="48.938220" lon="8.655340">
<ele>311.0</ele>
<speed>1.82</speed>
<course>45.9</course>
<desc>Speed 6.6 km/h Distance 4.67 km</desc>
<time>2010-10-23T17:28:00.19</time>
<name>2865</name>
</trkpt>
<trkpt lat="48.938232" lon="8.655358">
<ele>311.5</ele>
<speed>1.62</speed>
<course>30.3</course>
<desc>Speed 5.8 km/h Distance 4.67 km</desc>
<time>2010-10-23T17:28:01.19</time>
<name>2866</name>
</trkpt>
<trkpt lat="48.938247" lon="8.655372">
<ele>312.0</ele>
<speed>1.71</speed>
<course>36.9</course>
<desc>Speed 6.2 km/h Distance 4.68 km</desc>
<time>2010-10-23T17:28:02.19</time>
<name>2867</name>
</trkpt>
<trkpt lat="48.938258" lon="8.655385">
<ele>311.5</ele>
<speed>1.37</speed>
<course>47.6</course>
<desc>Speed 4.9 km/h Distance 4.68 km</desc>
<time>2010-10-23T17:28:03.19</time>
<name>2868</name>
</trkpt>
<trkpt lat="48.938268" lon="8.655402">
<ele>311.5</ele>
<speed>1.44</speed>
<course>63.1</course>
<desc>Speed 5.2 km/h Distance 4.68 km</desc>
<time>2010-10-23T17:28:04.19</time>
<name>2869</name>
</trkpt>
<trkpt lat="48.938273" lon="8.655417">
<ele>310.5</ele>
<speed>1.23</speed>
<course>52.7</course>
<desc>Speed 4.4 km/h Distance 4.68 km</desc>
<time>2010-10-23T17:28:05.19</time>
<name>2870</name>
</trkpt>
<trkpt lat="48.938280" lon="8.655430">
<ele>309.0</ele>
<speed>1.09</speed>
<course>39.4</course>
<desc>Speed 3.9 km/h Distance 4.68 km</desc>
<time>2010-10-23T17:28:06.19</time>
<name>2871</name>
</trkpt>
<trkpt lat="48.938293" lon="8.655447">
<ele>309.5</ele>
<speed>1.76</speed>
<course>43.3</course>
<desc>Speed 6.3 km/h Distance 4.68 km</desc>
<time>2010-10-23T17:28:07.19</time>
<name>2872</name>
</trkpt>
<trkpt lat="48.938305" lon="8.655463">
<ele>309.5</ele>
<speed>1.58</speed>
<course>36.6</course>
<desc>Speed 5.7 km/h Distance 4.69 km</desc>
<time>2010-10-23T17:28:08.19</time>
<name>2873</name>
</trkpt>
<trkpt lat="48.938318" lon="8.655478">
<ele>309.5</ele>
<speed>1.70</speed>
<course>44.5</course>
<desc>Speed 6.1 km/h Distance 4.69 km</desc>
<time>2010-10-23T17:28:09.19</time>
<name>2874</name>
</trkpt>
<trkpt lat="48.938328" lon="8.655493">
<ele>309.0</ele>
<speed>1.50</speed>
<course>81.3</course>
<desc>Speed 5.4 km/h Distance 4.69 km</desc>
<time>2010-10-23T17:28:10.19</time>
<name>2875</name>
</trkpt>
<trkpt lat="48.938330" lon="8.655510">
<ele>308.0</ele>
<speed>1.11</speed>
<course>42.3</course>
<desc>Speed 4.0 km/h Distance 4.69 km</desc>
<time>2010-10-23T17:28:11.19</time>
<name>2876</name>
</trkpt>
<trkpt lat="48.938338" lon="8.655522">
<ele>308.0</ele>
<speed>1.32</speed>
<course>52.7</course>
<desc>Speed 4.8 km/h Distance 4.69 km</desc>
<time>2010-10-23T17:28:12.19</time>
<name>2877</name>
</trkpt>
<trkpt lat="48.938345" lon="8.655535">
<ele>308.0</ele>
<speed>1.07</speed>
<course>60.3</course>
<desc>Speed 3.9 km/h Distance 4.69 km</desc>
<time>2010-10-23T17:28:13.19</time>
<name>2878</name>
</trkpt>
<trkpt lat="48.938350" lon="8.655548">
<ele>307.0</ele>
<speed>1.03</speed>
<course>63.1</course>
<desc>Speed 3.7 km/h Distance 4.69 km</desc>
<time>2010-10-23T17:28:14.19</time>
<name>2879</name>
</trkpt>
<trkpt lat="48.938355" lon="8.655563">
<ele>306.5</ele>
<speed>1.10</speed>
<course>45.9</course>
<desc>Speed 4.0 km/h Distance 4.70 km</desc>
<time>2010-10-23T17:28:15.19</time>
<name>2880</name>
</trkpt>
<trkpt lat="48.938367" lon="8.655582">
<ele>307.0</ele>
<speed>1.62</speed>
<course>42.6</course>
<desc>Speed 5.8 km/h Distance 4.70 km</desc>
<time>2010-10-23T17:28:16.19</time>
<name>2881</name>
</trkpt>
<trkpt lat="48.938375" lon="8.655593">
<ele>306.0</ele>
<speed>1.10</speed>
<course>60.3</course>
<desc>Speed 4.0 km/h Distance 4.70 km</desc>
<time>2010-10-23T17:28:17.19</time>
<name>2882</name>
</trkpt>
<trkpt lat="48.938380" lon="8.655607">
<ele>305.5</ele>
<speed>1.00</speed>
<course>63.1</course>
<desc>Speed 3.6 km/h Distance 4.70 km</desc>
<time>2010-10-23T17:28:18.19</time>
<name>2883</name>
</trkpt>
<trkpt lat="48.938385" lon="8.655622">
<ele>304.5</ele>
<speed>1.11</speed>
<course>39.4</course>
<desc>Speed 4.0 km/h Distance 4.70 km</desc>
<time>2010-10-23T17:28:19.19</time>
<name>2884</name>
</trkpt>
<trkpt lat="48.938398" lon="8.655638">
<ele>304.5</ele>
<speed>1.59</speed>
<course>52.7</course>
<desc>Speed 5.7 km/h Distance 4.70 km</desc>
<time>2010-10-23T17:28:20.19</time>
<name>2885</name>
</trkpt>
<trkpt lat="48.938407" lon="8.655655">
<ele>304.0</ele>
<speed>1.34</speed>
<course>50.3</course>
<desc>Speed 4.8 km/h Distance 4.70 km</desc>
<time>2010-10-23T17:28:21.19</time>
<name>2886</name>
</trkpt>
<trkpt lat="48.938417" lon="8.655673">
<ele>303.5</ele>
<speed>1.35</speed>
<course>44.6</course>
<desc>Speed 4.9 km/h Distance 4.71 km</desc>
<time>2010-10-23T17:28:22.19</time>
<name>2887</name>
</trkpt>
<trkpt lat="48.938427" lon="8.655688">
<ele>303.0</ele>
<speed>1.29</speed>
<course>30.6</course>
<desc>Speed 4.6 km/h Distance 4.71 km</desc>
<time>2010-10-23T17:28:23.19</time>
<name>2888</name>
</trkpt>
<trkpt lat="48.938443" lon="8.655703">
<ele>303.5</ele>
<speed>1.87</speed>
<course>44.5</course>
<desc>Speed 6.7 km/h Distance 4.71 km</desc>
<time>2010-10-23T17:28:24.19</time>
<name>2889</name>
</trkpt>
<trkpt lat="48.938457" lon="8.655723">
<ele>304.5</ele>
<speed>1.85</speed>
<course>73.1</course>
<desc>Speed 6.7 km/h Distance 4.71 km</desc>
<time>2010-10-23T17:28:25.19</time>
<name>2890</name>
</trkpt>
<trkpt lat="48.938460" lon="8.655740">
<ele>304.5</ele>
<speed>1.30</speed>
<course>119.7</course>
<desc>Speed 4.7 km/h Distance 4.71 km</desc>
<time>2010-10-23T17:28:26.19</time>
<name>2891</name>
</trkpt>
<trkpt lat="48.938455" lon="8.655753">
<ele>305.0</ele>
<speed>1.11</speed>
<course>112.5</course>
<desc>Speed 4.0 km/h Distance 4.71 km</desc>
<time>2010-10-23T17:28:27.19</time>
<name>2892</name>
</trkpt>
<trkpt lat="48.938450" lon="8.655772">
<ele>305.0</ele>
<speed>1.29</speed>
<course>81.3</course>
<desc>Speed 4.6 km/h Distance 4.72 km</desc>
<time>2010-10-23T17:28:28.19</time>
<name>2893</name>
</trkpt>
<trkpt lat="48.938452" lon="8.655788">
<ele>304.0</ele>
<speed>1.08</speed>
<course>66.5</course>
<desc>Speed 3.9 km/h Distance 4.72 km</desc>
<time>2010-10-23T17:28:29.19</time>
<name>2894</name>
</trkpt>
<trkpt lat="48.938455" lon="8.655800">
<ele>302.5</ele>
<speed>0.93</speed>
<course>58.7</course>
<desc>Speed 3.3 km/h Distance 4.72 km</desc>
<time>2010-10-23T17:28:30.19</time>
<name>2895</name>
</trkpt>
<trkpt lat="48.938462" lon="8.655817">
<ele>301.5</ele>
<speed>1.14</speed>
<course>50.6</course>
<desc>Speed 4.1 km/h Distance 4.72 km</desc>
<time>2010-10-23T17:28:31.19</time>
<name>2896</name>
</trkpt>
<trkpt lat="48.938473" lon="8.655838">
<ele>302.0</ele>
<speed>1.62</speed>
<course>63.1</course>
<desc>Speed 5.8 km/h Distance 4.72 km</desc>
<time>2010-10-23T17:28:32.19</time>
<name>2897</name>
</trkpt>
<trkpt lat="48.938480" lon="8.655858">
<ele>302.0</ele>
<speed>1.34</speed>
<course>61.5</course>
<desc>Speed 4.8 km/h Distance 4.72 km</desc>
<time>2010-10-23T17:28:33.19</time>
<name>2898</name>
</trkpt>
<trkpt lat="48.938488" lon="8.655882">
<ele>302.0</ele>
<speed>1.33</speed>
<course>50.3</course>
<desc>Speed 4.8 km/h Distance 4.72 km</desc>
<time>2010-10-23T17:28:34.19</time>
<name>2899</name>
</trkpt>
<trkpt lat="48.938498" lon="8.655900">
<ele>302.0</ele>
<speed>1.45</speed>
<course>50.7</course>
<desc>Speed 5.2 km/h Distance 4.73 km</desc>
<time>2010-10-23T17:28:35.19</time>
<name>2900</name>
</trkpt>
<trkpt lat="48.938510" lon="8.655922">
<ele>303.0</ele>
<speed>1.47</speed>
<course>45.7</course>
<desc>Speed 5.3 km/h Distance 4.73 km</desc>
<time>2010-10-23T17:28:36.19</time>
<name>2901</name>
</trkpt>
<trkpt lat="48.938525" lon="8.655945">
<ele>304.0</ele>
<speed>1.62</speed>
<course>45.9</course>
<desc>Speed 5.8 km/h Distance 4.73 km</desc>
<time>2010-10-23T17:28:37.19</time>
<name>2902</name>
</trkpt>
<trkpt lat="48.938537" lon="8.655963">
<ele>305.0</ele>
<speed>1.42</speed>
<course>50.4</course>
<desc>Speed 5.1 km/h Distance 4.73 km</desc>
<time>2010-10-23T17:28:38.19</time>
<name>2903</name>
</trkpt>
<trkpt lat="48.938547" lon="8.655982">
<ele>304.5</ele>
<speed>1.12</speed>
<course>33.3</course>
<desc>Speed 4.0 km/h Distance 4.73 km</desc>
<time>2010-10-23T17:28:39.19</time>
<name>2904</name>
</trkpt>
<trkpt lat="48.938562" lon="8.655997">
<ele>303.0</ele>
<speed>1.25</speed>
<course>30.9</course>
<desc>Speed 4.5 km/h Distance 4.74 km</desc>
<time>2010-10-23T17:28:40.19</time>
<name>2905</name>
</trkpt>
<trkpt lat="48.938580" lon="8.656013">
<ele>301.5</ele>
<speed>1.42</speed>
<course>27.7</course>
<desc>Speed 5.1 km/h Distance 4.74 km</desc>
<time>2010-10-23T17:28:41.19</time>
<name>2906</name>
</trkpt>
<trkpt lat="48.938597" lon="8.656027">
<ele>300.0</ele>
<speed>0.97</speed>
<course>48.4</course>
<desc>Speed 3.5 km/h Distance 4.74 km</desc>
<time>2010-10-23T17:28:42.19</time>
<name>2907</name>
</trkpt>
<trkpt lat="48.938608" lon="8.656047">
<ele>299.5</ele>
<speed>1.11</speed>
<course>55.9</course>
<desc>Speed 4.0 km/h Distance 4.74 km</desc>
<time>2010-10-23T17:28:43.19</time>
<name>2908</name>
</trkpt>
<trkpt lat="48.938615" lon="8.656062">
<ele>299.5</ele>
<speed>1.23</speed>
<course>52.8</course>
<desc>Speed 4.4 km/h Distance 4.74 km</desc>
<time>2010-10-23T17:28:44.19</time>
<name>2909</name>
</trkpt>
<trkpt lat="48.938623" lon="8.656078">
<ele>298.5</ele>
<speed>1.24</speed>
<course>63.1</course>
<desc>Speed 4.5 km/h Distance 4.75 km</desc>
<time>2010-10-23T17:28:45.19</time>
<name>2910</name>
</trkpt>
<trkpt lat="48.938628" lon="8.656093">
<ele>298.0</ele>
<speed>1.19</speed>
<course>45.9</course>
<desc>Speed 4.3 km/h Distance 4.75 km</desc>
<time>2010-10-23T17:28:46.19</time>
<name>2911</name>
</trkpt>
<trkpt lat="48.938640" lon="8.656112">
<ele>298.5</ele>
<speed>1.51</speed>
<course>50.3</course>
<desc>Speed 5.4 km/h Distance 4.75 km</desc>
<time>2010-10-23T17:28:47.19</time>
<name>2912</name>
</trkpt>
<trkpt lat="48.938650" lon="8.656130">
<ele>299.0</ele>
<speed>1.50</speed>
<course>69.2</course>
<desc>Speed 5.4 km/h Distance 4.75 km</desc>
<time>2010-10-23T17:28:48.19</time>
<name>2913</name>
</trkpt>
<trkpt lat="48.938655" lon="8.656150">
<ele>298.5</ele>
<speed>1.23</speed>
<course>66.5</course>
<desc>Speed 4.4 km/h Distance 4.75 km</desc>
<time>2010-10-23T17:28:49.19</time>
<name>2914</name>
</trkpt>
<trkpt lat="48.938658" lon="8.656162">
<ele>297.5</ele>
<speed>0.97</speed>
<course>29.4</course>
<desc>Speed 3.5 km/h Distance 4.75 km</desc>
<time>2010-10-23T17:28:50.19</time>
<name>2915</name>
</trkpt>
<trkpt lat="48.938670" lon="8.656172">
<ele>298.0</ele>
<speed>1.21</speed>
<course>33.2</course>
<desc>Speed 4.4 km/h Distance 4.75 km</desc>
<time>2010-10-23T17:28:51.19</time>
<name>2916</name>
</trkpt>
<trkpt lat="48.938680" lon="8.656182">
<ele>298.0</ele>
<speed>1.00</speed>
<course>46.5</course>
<desc>Speed 3.6 km/h Distance 4.76 km</desc>
<time>2010-10-23T17:28:52.19</time>
<name>2917</name>
</trkpt>
<trkpt lat="48.938688" lon="8.656195">
<ele>297.5</ele>
<speed>1.00</speed>
<course>35.8</course>
<desc>Speed 3.6 km/h Distance 4.76 km</desc>
<time>2010-10-23T17:28:53.19</time>
<name>2918</name>
</trkpt>
<trkpt lat="48.938705" lon="8.656213">
<ele>297.5</ele>
<speed>1.49</speed>
<course>52.7</course>
<desc>Speed 5.4 km/h Distance 4.76 km</desc>
<time>2010-10-23T17:28:54.19</time>
<name>2919</name>
</trkpt>
<trkpt lat="48.938715" lon="8.656233">
<ele>296.0</ele>
<speed>1.09</speed>
<course>42.0</course>
<desc>Speed 3.9 km/h Distance 4.76 km</desc>
<time>2010-10-23T17:28:55.19</time>
<name>2920</name>
</trkpt>
<trkpt lat="48.938728" lon="8.656252">
<ele>295.5</ele>
<speed>0.94</speed>
<course>57.6</course>
<desc>Speed 3.4 km/h Distance 4.76 km</desc>
<time>2010-10-23T17:28:56.19</time>
<name>2921</name>
</trkpt>
<trkpt lat="48.938737" lon="8.656272">
<ele>295.5</ele>
<speed>1.37</speed>
<course>55.3</course>
<desc>Speed 4.9 km/h Distance 4.77 km</desc>
<time>2010-10-23T17:28:57.19</time>
<name>2922</name>
</trkpt>
<trkpt lat="48.938745" lon="8.656290">
<ele>293.5</ele>
<speed>1.05</speed>
<course>30.9</course>
<desc>Speed 3.8 km/h Distance 4.77 km</desc>
<time>2010-10-23T17:28:58.19</time>
<name>2923</name>
</trkpt>
<trkpt lat="48.938763" lon="8.656307">
<ele>293.5</ele>
<speed>1.37</speed>
<course>43.5</course>
<desc>Speed 4.9 km/h Distance 4.77 km</desc>
<time>2010-10-23T17:28:59.19</time>
<name>2924</name>
</trkpt>
<trkpt lat="48.938778" lon="8.656328">
<ele>293.5</ele>
<speed>1.54</speed>
<course>58.7</course>
<desc>Speed 5.5 km/h Distance 4.77 km</desc>
<time>2010-10-23T17:29:00.19</time>
<name>2925</name>
</trkpt>
<trkpt lat="48.938785" lon="8.656345">
<ele>292.5</ele>
<speed>1.25</speed>
<course>63.1</course>
<desc>Speed 4.5 km/h Distance 4.77 km</desc>
<time>2010-10-23T17:29:01.19</time>
<name>2926</name>
</trkpt>
<trkpt lat="48.938792" lon="8.656365">
<ele>292.5</ele>
<speed>1.60</speed>
<course>45.9</course>
<desc>Speed 5.8 km/h Distance 4.77 km</desc>
<time>2010-10-23T17:29:02.19</time>
<name>2927</name>
</trkpt>
<trkpt lat="48.938803" lon="8.656383">
<ele>291.5</ele>
<speed>1.39</speed>
<course>42.1</course>
<desc>Speed 5.0 km/h Distance 4.78 km</desc>
<time>2010-10-23T17:29:03.19</time>
<name>2928</name>
</trkpt>
<trkpt lat="48.938817" lon="8.656402">
<ele>290.5</ele>
<speed>1.39</speed>
<course>33.3</course>
<desc>Speed 5.0 km/h Distance 4.78 km</desc>
<time>2010-10-23T17:29:04.19</time>
<name>2929</name>
</trkpt>
<trkpt lat="48.938832" lon="8.656417">
<ele>290.0</ele>
<speed>1.39</speed>
<course>37.3</course>
<desc>Speed 5.0 km/h Distance 4.78 km</desc>
<time>2010-10-23T17:29:05.19</time>
<name>2930</name>
</trkpt>
<trkpt lat="48.938842" lon="8.656428">
<ele>289.0</ele>
<speed>1.05</speed>
<course>30.2</course>
<desc>Speed 3.8 km/h Distance 4.78 km</desc>
<time>2010-10-23T17:29:06.19</time>
<name>2931</name>
</trkpt>
<trkpt lat="48.938885" lon="8.656467">
<ele>293.5</ele>
<speed>1.49</speed>
<course>43.5</course>
<desc>Speed 5.4 km/h Distance 4.79 km</desc>
<time>2010-10-23T17:29:08.19</time>
<name>2932</name>
</trkpt>
<trkpt lat="48.938900" lon="8.656488">
<ele>294.0</ele>
<speed>1.39</speed>
<course>52.7</course>
<desc>Speed 5.0 km/h Distance 4.79 km</desc>
<time>2010-10-23T17:29:09.19</time>
<name>2933</name>
</trkpt>
<trkpt lat="48.938910" lon="8.656508">
<ele>293.5</ele>
<speed>1.29</speed>
<course>52.7</course>
<desc>Speed 4.6 km/h Distance 4.79 km</desc>
<time>2010-10-23T17:29:10.19</time>
<name>2934</name>
</trkpt>
<trkpt lat="48.938920" lon="8.656528">
<ele>293.5</ele>
<speed>1.67</speed>
<course>54.9</course>
<desc>Speed 6.0 km/h Distance 4.79 km</desc>
<time>2010-10-23T17:29:11.19</time>
<name>2935</name>
</trkpt>
<trkpt lat="48.938930" lon="8.656550">
<ele>293.5</ele>
<speed>1.57</speed>
<course>64.9</course>
<desc>Speed 5.7 km/h Distance 4.80 km</desc>
<time>2010-10-23T17:29:12.18</time>
<name>2936</name>
</trkpt>
<trkpt lat="48.938937" lon="8.656572">
<ele>293.5</ele>
<speed>1.64</speed>
<course>55.3</course>
<desc>Speed 5.9 km/h Distance 4.80 km</desc>
<time>2010-10-23T17:29:13.18</time>
<name>2937</name>
</trkpt>
<trkpt lat="48.938945" lon="8.656590">
<ele>293.5</ele>
<speed>1.66</speed>
<course>49.7</course>
<desc>Speed 6.0 km/h Distance 4.80 km</desc>
<time>2010-10-23T17:29:14.18</time>
<name>2938</name>
</trkpt>
<trkpt lat="48.938953" lon="8.656605">
<ele>293.0</ele>
<speed>1.50</speed>
<course>49.0</course>
<desc>Speed 5.4 km/h Distance 4.80 km</desc>
<time>2010-10-23T17:29:15.18</time>
<name>2939</name>
</trkpt>
<trkpt lat="48.938967" lon="8.656628">
<ele>293.5</ele>
<speed>1.52</speed>
<course>60.3</course>
<desc>Speed 5.5 km/h Distance 4.80 km</desc>
<time>2010-10-23T17:29:16.18</time>
<name>2940</name>
</trkpt>
<trkpt lat="48.938977" lon="8.656655">
<ele>294.5</ele>
<speed>1.55</speed>
<course>60.3</course>
<desc>Speed 5.6 km/h Distance 4.80 km</desc>
<time>2010-10-23T17:29:17.18</time>
<name>2941</name>
</trkpt>
<trkpt lat="48.938987" lon="8.656682">
<ele>295.5</ele>
<speed>1.52</speed>
<course>50.3</course>
<desc>Speed 5.5 km/h Distance 4.81 km</desc>
<time>2010-10-23T17:29:18.18</time>
<name>2942</name>
</trkpt>
<trkpt lat="48.938997" lon="8.656700">
<ele>296.0</ele>
<speed>1.62</speed>
<course>49.8</course>
<desc>Speed 5.8 km/h Distance 4.81 km</desc>
<time>2010-10-23T17:29:19.18</time>
<name>2943</name>
</trkpt>
<trkpt lat="48.939013" lon="8.656730">
<ele>298.0</ele>
<speed>1.73</speed>
<course>49.4</course>
<desc>Speed 6.2 km/h Distance 4.81 km</desc>
<time>2010-10-23T17:29:20.18</time>
<name>2944</name>
</trkpt>
<trkpt lat="48.939028" lon="8.656757">
<ele>299.5</ele>
<speed>1.62</speed>
<course>52.8</course>
<desc>Speed 5.8 km/h Distance 4.81 km</desc>
<time>2010-10-23T17:29:21.18</time>
<name>2945</name>
</trkpt>
<trkpt lat="48.939042" lon="8.656783">
<ele>300.5</ele>
<speed>1.71</speed>
<course>52.8</course>
<desc>Speed 6.2 km/h Distance 4.82 km</desc>
<time>2010-10-23T17:29:22.18</time>
<name>2946</name>
</trkpt>
<trkpt lat="48.939055" lon="8.656810">
<ele>302.0</ele>
<speed>1.72</speed>
<course>52.7</course>
<desc>Speed 6.2 km/h Distance 4.82 km</desc>
<time>2010-10-23T17:29:23.18</time>
<name>2947</name>
</trkpt>
<trkpt lat="48.939065" lon="8.656830">
<ele>302.0</ele>
<speed>1.51</speed>
<course>57.6</course>
<desc>Speed 5.4 km/h Distance 4.82 km</desc>
<time>2010-10-23T17:29:24.18</time>
<name>2948</name>
</trkpt>
<trkpt lat="48.939073" lon="8.656850">
<ele>302.5</ele>
<speed>1.39</speed>
<course>45.9</course>
<desc>Speed 5.0 km/h Distance 4.82 km</desc>
<time>2010-10-23T17:29:25.18</time>
<name>2949</name>
</trkpt>
<trkpt lat="48.939085" lon="8.656868">
<ele>302.5</ele>
<speed>1.52</speed>
<course>55.3</course>
<desc>Speed 5.5 km/h Distance 4.82 km</desc>
<time>2010-10-23T17:29:26.18</time>
<name>2950</name>
</trkpt>
<trkpt lat="48.939093" lon="8.656887">
<ele>302.5</ele>
<speed>1.36</speed>
<course>40.2</course>
<desc>Speed 4.9 km/h Distance 4.83 km</desc>
<time>2010-10-23T17:29:27.18</time>
<name>2951</name>
</trkpt>
<trkpt lat="48.939105" lon="8.656902">
<ele>302.5</ele>
<speed>1.58</speed>
<course>47.6</course>
<desc>Speed 5.7 km/h Distance 4.83 km</desc>
<time>2010-10-23T17:29:28.18</time>
<name>2952</name>
</trkpt>
<trkpt lat="48.939115" lon="8.656918">
<ele>302.5</ele>
<speed>1.34</speed>
<course>39.4</course>
<desc>Speed 4.8 km/h Distance 4.83 km</desc>
<time>2010-10-23T17:29:29.18</time>
<name>2953</name>
</trkpt>
<trkpt lat="48.939128" lon="8.656935">
<ele>302.5</ele>
<speed>1.73</speed>
<course>43.1</course>
<desc>Speed 6.2 km/h Distance 4.83 km</desc>
<time>2010-10-23T17:29:30.18</time>
<name>2954</name>
</trkpt>
<trkpt lat="48.939140" lon="8.656952">
<ele>302.5</ele>
<speed>1.54</speed>
<course>44.5</course>
<desc>Speed 5.5 km/h Distance 4.83 km</desc>
<time>2010-10-23T17:29:31.18</time>
<name>2955</name>
</trkpt>
<trkpt lat="48.939150" lon="8.656967">
<ele>302.0</ele>
<speed>1.37</speed>
<course>36.5</course>
<desc>Speed 4.9 km/h Distance 4.83 km</desc>
<time>2010-10-23T17:29:32.18</time>
<name>2956</name>
</trkpt>
<trkpt lat="48.939163" lon="8.656982">
<ele>302.0</ele>
<speed>1.41</speed>
<course>43.3</course>
<desc>Speed 5.1 km/h Distance 4.84 km</desc>
<time>2010-10-23T17:29:33.18</time>
<name>2957</name>
</trkpt>
<trkpt lat="48.939175" lon="8.656998">
<ele>302.0</ele>
<speed>1.40</speed>
<course>58.7</course>
<desc>Speed 5.0 km/h Distance 4.84 km</desc>
<time>2010-10-23T17:29:34.18</time>
<name>2958</name>
</trkpt>
<trkpt lat="48.939182" lon="8.657015">
<ele>301.5</ele>
<speed>1.17</speed>
<course>33.3</course>
<desc>Speed 4.2 km/h Distance 4.84 km</desc>
<time>2010-10-23T17:29:35.18</time>
<name>2959</name>
</trkpt>
<trkpt lat="48.939193" lon="8.657027">
<ele>301.0</ele>
<speed>1.41</speed>
<course>33.1</course>
<desc>Speed 5.1 km/h Distance 4.84 km</desc>
<time>2010-10-23T17:29:36.18</time>
<name>2960</name>
</trkpt>
<trkpt lat="48.939205" lon="8.657038">
<ele>300.0</ele>
<speed>1.29</speed>
<course>33.4</course>
<desc>Speed 4.6 km/h Distance 4.84 km</desc>
<time>2010-10-23T17:29:37.18</time>
<name>2961</name>
</trkpt>
<trkpt lat="48.939218" lon="8.657052">
<ele>299.5</ele>
<speed>1.50</speed>
<course>36.6</course>
<desc>Speed 5.4 km/h Distance 4.84 km</desc>
<time>2010-10-23T17:29:38.18</time>
<name>2962</name>
</trkpt>
<trkpt lat="48.939232" lon="8.657067">
<ele>299.0</ele>
<speed>1.52</speed>
<course>44.5</course>
<desc>Speed 5.5 km/h Distance 4.85 km</desc>
<time>2010-10-23T17:29:39.18</time>
<name>2963</name>
</trkpt>
<trkpt lat="48.939242" lon="8.657082">
<ele>298.5</ele>
<speed>1.50</speed>
<course>39.4</course>
<desc>Speed 5.4 km/h Distance 4.85 km</desc>
<time>2010-10-23T17:29:40.18</time>
<name>2964</name>
</trkpt>
<trkpt lat="48.939255" lon="8.657098">
<ele>298.5</ele>
<speed>1.60</speed>
<course>38.8</course>
<desc>Speed 5.8 km/h Distance 4.85 km</desc>
<time>2010-10-23T17:29:41.18</time>
<name>2965</name>
</trkpt>
<trkpt lat="48.939270" lon="8.657117">
<ele>298.5</ele>
<speed>1.61</speed>
<course>36.0</course>
<desc>Speed 5.8 km/h Distance 4.85 km</desc>
<time>2010-10-23T17:29:42.18</time>
<name>2966</name>
</trkpt>
<trkpt lat="48.939285" lon="8.657133">
<ele>298.5</ele>
<speed>1.60</speed>
<course>36.1</course>
<desc>Speed 5.8 km/h Distance 4.85 km</desc>
<time>2010-10-23T17:29:43.18</time>
<name>2967</name>
</trkpt>
<trkpt lat="48.939300" lon="8.657150">
<ele>298.5</ele>
<speed>1.61</speed>
<course>39.4</course>
<desc>Speed 5.8 km/h Distance 4.86 km</desc>
<time>2010-10-23T17:29:44.18</time>
<name>2968</name>
</trkpt>
<trkpt lat="48.939313" lon="8.657167">
<ele>299.0</ele>
<speed>1.59</speed>
<course>39.4</course>
<desc>Speed 5.7 km/h Distance 4.86 km</desc>
<time>2010-10-23T17:29:45.18</time>
<name>2969</name>
</trkpt>
<trkpt lat="48.939327" lon="8.657183">
<ele>299.0</ele>
<speed>1.52</speed>
<course>50.3</course>
<desc>Speed 5.5 km/h Distance 4.86 km</desc>
<time>2010-10-23T17:29:46.18</time>
<name>2970</name>
</trkpt>
<trkpt lat="48.939337" lon="8.657202">
<ele>299.0</ele>
<speed>1.50</speed>
<course>44.6</course>
<desc>Speed 5.4 km/h Distance 4.86 km</desc>
<time>2010-10-23T17:29:47.18</time>
<name>2971</name>
</trkpt>
<trkpt lat="48.939350" lon="8.657222">
<ele>299.0</ele>
<speed>1.52</speed>
<course>43.5</course>
<desc>Speed 5.5 km/h Distance 4.86 km</desc>
<time>2010-10-23T17:29:48.18</time>
<name>2972</name>
</trkpt>
<trkpt lat="48.939365" lon="8.657243">
<ele>300.0</ele>
<speed>1.88</speed>
<course>329.4</course>
<desc>Speed 6.8 km/h Distance 4.87 km</desc>
<time>2010-10-23T17:29:49.52</time>
<name>2973</name>
</trkpt>
<trkpt lat="48.939382" lon="8.657228">
<ele>300.5</ele>
<speed>1.89</speed>
<course>107.1</course>
<desc>Speed 6.8 km/h Distance 4.87 km</desc>
<time>2010-10-23T17:29:50.19</time>
<name>2974</name>
</trkpt>
<trkpt lat="48.939380" lon="8.657237">
<ele>301.0</ele>
<speed>0.40</speed>
<course>355.6</course>
<desc>Speed 1.4 km/h Distance 4.87 km</desc>
<time>2010-10-23T17:29:51.19</time>
<name>2975</name>
</trkpt>
<trkpt lat="48.939390" lon="8.657235">
<ele>303.0</ele>
<speed>0.47</speed>
<course>50.7</course>
<desc>Speed 1.7 km/h Distance 4.87 km</desc>
<time>2010-10-23T17:29:53.20</time>
<name>2976</name>
</trkpt>
<trkpt lat="48.939402" lon="8.657257">
<ele>306.0</ele>
<speed>0.40</speed>
<course>270.0</course>
<desc>Speed 1.4 km/h Distance 4.87 km</desc>
<time>2010-10-23T17:30:02.21</time>
<name>2977</name>
</trkpt>
<trkpt lat="48.939402" lon="8.657247">
<ele>307.0</ele>
<speed>0.62</speed>
<course>138.0</course>
<desc>Speed 2.2 km/h Distance 4.87 km</desc>
<time>2010-10-23T17:30:04.24</time>
<name>2978</name>
</trkpt>
<trkpt lat="48.939388" lon="8.657265">
<ele>308.0</ele>
<speed>1.87</speed>
<course>205.6</course>
<desc>Speed 6.7 km/h Distance 4.87 km</desc>
<time>2010-10-23T17:30:05.24</time>
<name>2979</name>
</trkpt>
<trkpt lat="48.939382" lon="8.657260">
<ele>307.5</ele>
<speed>0.55</speed>
<course>146.8</course>
<desc>Speed 2.0 km/h Distance 4.88 km</desc>
<time>2010-10-23T17:30:07.24</time>
<name>2980</name>
</trkpt>
<trkpt lat="48.939377" lon="8.657265">
<ele>307.5</ele>
<speed>0.68</speed>
<course>146.3</course>
<desc>Speed 2.4 km/h Distance 4.88 km</desc>
<time>2010-10-23T17:30:08.24</time>
<name>2981</name>
</trkpt>
<trkpt lat="48.939373" lon="8.657268">
<ele>307.5</ele>
<speed>0.55</speed>
<course>242.6</course>
<desc>Speed 2.0 km/h Distance 4.88 km</desc>
<time>2010-10-23T17:30:09.31</time>
<name>2982</name>
</trkpt>
<trkpt lat="48.939372" lon="8.657263">
<ele>308.0</ele>
<speed>0.31</speed>
<course>317.4</course>
<desc>Speed 1.1 km/h Distance 4.88 km</desc>
<time>2010-10-23T17:30:10.26</time>
<name>2983</name>
</trkpt>
<trkpt lat="48.939380" lon="8.657252">
<ele>308.5</ele>
<speed>0.31</speed>
<course>79.2</course>
<desc>Speed 1.1 km/h Distance 4.88 km</desc>
<time>2010-10-23T17:30:14.26</time>
<name>2984</name>
</trkpt>
<trkpt lat="48.939382" lon="8.657265">
<ele>309.5</ele>
<speed>0.30</speed>
<course>180.0</course>
<desc>Speed 1.1 km/h Distance 4.88 km</desc>
<time>2010-10-23T17:30:23.27</time>
<name>2985</name>
</trkpt>
<trkpt lat="48.939367" lon="8.657265">
<ele>309.5</ele>
<speed>0.79</speed>
<course>164.9</course>
<desc>Speed 2.8 km/h Distance 4.88 km</desc>
<time>2010-10-23T17:30:27.30</time>
<name>2986</name>
</trkpt>
<trkpt lat="48.939338" lon="8.657277">
<ele>311.0</ele>
<speed>0.99</speed>
<course>187.4</course>
<desc>Speed 3.6 km/h Distance 4.88 km</desc>
<time>2010-10-23T17:30:30.30</time>
<name>2987</name>
</trkpt>
<trkpt lat="48.939332" lon="8.657275">
<ele>310.5</ele>
<speed>0.33</speed>
<course>257.2</course>
<desc>Speed 1.2 km/h Distance 4.89 km</desc>
<time>2010-10-23T17:30:33.30</time>
<name>2988</name>
</trkpt>
<trkpt lat="48.939263" lon="8.656817">
<ele>310.5</ele>
<speed>9.60</speed>
<course>58.7</course>
<desc>Speed 34.6 km/h Distance 4.92 km</desc>
<time>2010-10-23T17:30:40.85</time>
<name>2989</name>
</trkpt>
<trkpt lat="48.939270" lon="8.656833">
<ele>311.0</ele>
<speed>0.51</speed>
<course>91.5</course>
<desc>Speed 1.8 km/h Distance 4.92 km</desc>
<time>2010-10-23T17:30:46.56</time>
<name>2990</name>
</trkpt>
<trkpt lat="48.939267" lon="8.657028">
<ele>310.0</ele>
<speed>0.76</speed>
<course>90.0</course>
<desc>Speed 2.7 km/h Distance 4.94 km</desc>
<time>2010-10-23T17:30:53.55</time>
<name>2991</name>
</trkpt>
<trkpt lat="48.939267" lon="8.657047">
<ele>309.5</ele>
<speed>0.94</speed>
<course>39.4</course>
<desc>Speed 3.4 km/h Distance 4.94 km</desc>
<time>2010-10-23T17:30:54.55</time>
<name>2992</name>
</trkpt>
<trkpt lat="48.939287" lon="8.657072">
<ele>309.0</ele>
<speed>0.94</speed>
<course>12.6</course>
<desc>Speed 3.4 km/h Distance 4.94 km</desc>
<time>2010-10-23T17:30:58.53</time>
<name>2993</name>
</trkpt>
<trkpt lat="48.939290" lon="8.657073">
<ele>309.0</ele>
<speed>0.94</speed>
<course>12.6</course>
<desc>Speed 3.4 km/h Distance 4.94 km</desc>
<time>2010-10-23T17:30:59.52</time>
<name>2994</name>
</trkpt>
<trkpt lat="48.939290" lon="8.657073">
<ele>309.0</ele>
<speed>0.94</speed>
<course>12.6</course>
<desc>Speed 3.4 km/h Distance 4.94 km</desc>
<time>2010-10-23T17:31:00.52</time>
<name>2995</name>
</trkpt>
<trkpt lat="48.939290" lon="8.657073">
<ele>309.0</ele>
<speed>0.94</speed>
<course>12.6</course>
<desc>Speed 3.4 km/h Distance 4.94 km</desc>
<time>2010-10-23T17:31:01.51</time>
<name>2996</name>
</trkpt>
<trkpt lat="48.939290" lon="8.657073">
<ele>309.0</ele>
<speed>0.94</speed>
<course>99.5</course>
<desc>Speed 3.4 km/h Distance 4.94 km</desc>
<time>2010-10-23T17:31:02.74</time>
<name>2997</name>
</trkpt>
<trkpt lat="48.939250" lon="8.657437">
<ele>309.0</ele>
<speed>0.51</speed>
<course>135.5</course>
<desc>Speed 1.8 km/h Distance 4.97 km</desc>
<time>2010-10-23T17:31:19.53</time>
<name>2998</name>
</trkpt>
<trkpt lat="48.939237" lon="8.657457">
<ele>308.0</ele>
<speed>0.51</speed>
<course>172.6</course>
<desc>Speed 1.8 km/h Distance 4.97 km</desc>
<time>2010-10-23T17:31:20.52</time>
<name>2999</name>
</trkpt>
<trkpt lat="48.939230" lon="8.657458">
<ele>307.5</ele>
<speed>0.51</speed>
<course>217.2</course>
<desc>Speed 1.8 km/h Distance 4.97 km</desc>
<time>2010-10-23T17:31:21.52</time>
<name>3000</name>
</trkpt>
<trkpt lat="48.939228" lon="8.657457">
<ele>307.5</ele>
<speed>0.51</speed>
<course>99.6</course>
<desc>Speed 1.8 km/h Distance 4.97 km</desc>
<time>2010-10-23T17:31:22.51</time>
<name>3001</name>
</trkpt>
<trkpt lat="48.939222" lon="8.657517">
<ele>307.0</ele>
<speed>0.51</speed>
<course>135.5</course>
<desc>Speed 1.8 km/h Distance 4.97 km</desc>
<time>2010-10-23T17:31:24.50</time>
<name>3002</name>
</trkpt>
<trkpt lat="48.939218" lon="8.657522">
<ele>306.5</ele>
<speed>0.51</speed>
<course>142.8</course>
<desc>Speed 1.8 km/h Distance 4.97 km</desc>
<time>2010-10-23T17:31:25.67</time>
<name>3003</name>
</trkpt>
<trkpt lat="48.939217" lon="8.657523">
<ele>306.5</ele>
<speed>0.51</speed>
<course>252.9</course>
<desc>Speed 1.8 km/h Distance 4.97 km</desc>
<time>2010-10-23T17:31:26.50</time>
<name>3004</name>
</trkpt>
<trkpt lat="48.939215" lon="8.657515">
<ele>306.5</ele>
<speed>0.44</speed>
<course>30.2</course>
<desc>Speed 1.6 km/h Distance 4.98 km</desc>
<time>2010-10-23T17:31:27.69</time>
<name>3005</name>
</trkpt>
<trkpt lat="48.939273" lon="8.657567">
<ele>305.0</ele>
<speed>0.44</speed>
<course>21.5</course>
<desc>Speed 1.6 km/h Distance 4.98 km</desc>
<time>2010-10-23T17:31:30.79</time>
<name>3006</name>
</trkpt>
<trkpt lat="48.939298" lon="8.657582">
<ele>305.0</ele>
<speed>1.42</speed>
<course>61.5</course>
<desc>Speed 5.1 km/h Distance 4.99 km</desc>
<time>2010-10-23T17:31:32.96</time>
<name>3007</name>
</trkpt>
<trkpt lat="48.939307" lon="8.657605">
<ele>305.0</ele>
<speed>1.42</speed>
<course>38.4</course>
<desc>Speed 5.1 km/h Distance 4.99 km</desc>
<time>2010-10-23T17:31:33.58</time>
<name>3008</name>
</trkpt>
<trkpt lat="48.939315" lon="8.657615">
<ele>305.0</ele>
<speed>1.42</speed>
<course>270.0</course>
<desc>Speed 5.1 km/h Distance 4.99 km</desc>
<time>2010-10-23T17:31:34.58</time>
<name>3009</name>
</trkpt>
<trkpt lat="48.939315" lon="8.657612">
<ele>304.5</ele>
<speed>1.42</speed>
<course>96.2</course>
<desc>Speed 5.1 km/h Distance 4.99 km</desc>
<time>2010-10-23T17:31:35.58</time>
<name>3010</name>
</trkpt>
<trkpt lat="48.939313" lon="8.657635">
<ele>304.5</ele>
<speed>1.14</speed>
<course>47.6</course>
<desc>Speed 4.1 km/h Distance 4.99 km</desc>
<time>2010-10-23T17:31:36.58</time>
<name>3011</name>
</trkpt>
<trkpt lat="48.939358" lon="8.657710">
<ele>304.5</ele>
<speed>1.84</speed>
<course>44.6</course>
<desc>Speed 6.6 km/h Distance 5.00 km</desc>
<time>2010-10-23T17:31:38.58</time>
<name>3012</name>
</trkpt>
<trkpt lat="48.939375" lon="8.657735">
<ele>304.5</ele>
<speed>1.84</speed>
<course>21.0</course>
<desc>Speed 6.6 km/h Distance 5.00 km</desc>
<time>2010-10-23T17:31:39.58</time>
<name>3013</name>
</trkpt>
<trkpt lat="48.939395" lon="8.657747">
<ele>303.0</ele>
<speed>1.60</speed>
<course>20.4</course>
<desc>Speed 5.8 km/h Distance 5.00 km</desc>
<time>2010-10-23T17:31:40.57</time>
<name>3014</name>
</trkpt>
<trkpt lat="48.939422" lon="8.657762">
<ele>303.0</ele>
<speed>1.59</speed>
<course>28.8</course>
<desc>Speed 5.7 km/h Distance 5.01 km</desc>
<time>2010-10-23T17:31:41.57</time>
<name>3015</name>
</trkpt>
<trkpt lat="48.939442" lon="8.657778">
<ele>302.5</ele>
<speed>1.59</speed>
<course>22.3</course>
<desc>Speed 5.7 km/h Distance 5.01 km</desc>
<time>2010-10-23T17:31:42.57</time>
<name>3016</name>
</trkpt>
<trkpt lat="48.939468" lon="8.657795">
<ele>302.0</ele>
<speed>1.59</speed>
<course>335.2</course>
<desc>Speed 5.7 km/h Distance 5.01 km</desc>
<time>2010-10-23T17:31:43.57</time>
<name>3017</name>
</trkpt>
<trkpt lat="48.939513" lon="8.657763">
<ele>299.0</ele>
<speed>2.07</speed>
<course>74.5</course>
<desc>Speed 7.5 km/h Distance 5.02 km</desc>
<time>2010-10-23T17:31:45.57</time>
<name>3018</name>
</trkpt>
<trkpt lat="48.939517" lon="8.657782">
<ele>299.0</ele>
<speed>1.24</speed>
<course>356.1</course>
<desc>Speed 4.5 km/h Distance 5.02 km</desc>
<time>2010-10-23T17:31:46.57</time>
<name>3019</name>
</trkpt>
<trkpt lat="48.939598" lon="8.657773">
<ele>295.5</ele>
<speed>1.64</speed>
<course>350.3</course>
<desc>Speed 5.9 km/h Distance 5.03 km</desc>
<time>2010-10-23T17:31:48.57</time>
<name>3020</name>
</trkpt>
<trkpt lat="48.939630" lon="8.657765">
<ele>294.5</ele>
<speed>1.84</speed>
<course>101.5</course>
<desc>Speed 6.6 km/h Distance 5.03 km</desc>
<time>2010-10-23T17:31:49.57</time>
<name>3021</name>
</trkpt>
<trkpt lat="48.939627" lon="8.657790">
<ele>295.0</ele>
<speed>1.71</speed>
<course>4.7</course>
<desc>Speed 6.2 km/h Distance 5.03 km</desc>
<time>2010-10-23T17:31:50.57</time>
<name>3022</name>
</trkpt>
<trkpt lat="48.939638" lon="8.657792">
<ele>294.0</ele>
<speed>1.42</speed>
<course>12.2</course>
<desc>Speed 5.1 km/h Distance 5.04 km</desc>
<time>2010-10-23T17:31:51.57</time>
<name>3023</name>
</trkpt>
<trkpt lat="48.939653" lon="8.657797">
<ele>292.0</ele>
<speed>1.84</speed>
<course>340.7</course>
<desc>Speed 6.6 km/h Distance 5.04 km</desc>
<time>2010-10-23T17:31:52.57</time>
<name>3024</name>
</trkpt>
<trkpt lat="48.939678" lon="8.657783">
<ele>291.0</ele>
<speed>1.47</speed>
<course>337.5</course>
<desc>Speed 5.3 km/h Distance 5.04 km</desc>
<time>2010-10-23T17:31:53.63</time>
<name>3025</name>
</trkpt>
<trkpt lat="48.939697" lon="8.657772">
<ele>289.5</ele>
<speed>1.58</speed>
<course>18.2</course>
<desc>Speed 5.7 km/h Distance 5.04 km</desc>
<time>2010-10-23T17:31:54.60</time>
<name>3026</name>
</trkpt>
<trkpt lat="48.939707" lon="8.657777">
<ele>289.0</ele>
<speed>1.30</speed>
<course>50.3</course>
<desc>Speed 4.7 km/h Distance 5.04 km</desc>
<time>2010-10-23T17:31:55.60</time>
<name>3027</name>
</trkpt>
<trkpt lat="48.939717" lon="8.657795">
<ele>288.5</ele>
<speed>1.87</speed>
<course>16.6</course>
<desc>Speed 6.7 km/h Distance 5.05 km</desc>
<time>2010-10-23T17:31:56.60</time>
<name>3028</name>
</trkpt>
<trkpt lat="48.939732" lon="8.657802">
<ele>289.5</ele>
<speed>1.73</speed>
<course>28.9</course>
<desc>Speed 6.2 km/h Distance 5.05 km</desc>
<time>2010-10-23T17:31:57.60</time>
<name>3029</name>
</trkpt>
<trkpt lat="48.939742" lon="8.657810">
<ele>289.0</ele>
<speed>1.36</speed>
<course>26.4</course>
<desc>Speed 4.9 km/h Distance 5.05 km</desc>
<time>2010-10-23T17:31:58.60</time>
<name>3030</name>
</trkpt>
<trkpt lat="48.939748" lon="8.657815">
<ele>288.0</ele>
<speed>0.91</speed>
<course>20.6</course>
<desc>Speed 3.3 km/h Distance 5.05 km</desc>
<time>2010-10-23T17:31:59.60</time>
<name>3031</name>
</trkpt>
<trkpt lat="48.939760" lon="8.657822">
<ele>288.0</ele>
<speed>1.60</speed>
<course>0.0</course>
<desc>Speed 5.8 km/h Distance 5.05 km</desc>
<time>2010-10-23T17:32:00.60</time>
<name>3032</name>
</trkpt>
<trkpt lat="48.939770" lon="8.657822">
<ele>287.5</ele>
<speed>1.11</speed>
<course>9.5</course>
<desc>Speed 4.0 km/h Distance 5.05 km</desc>
<time>2010-10-23T17:32:01.60</time>
<name>3033</name>
</trkpt>
<trkpt lat="48.939782" lon="8.657825">
<ele>288.0</ele>
<speed>1.84</speed>
<course>42.6</course>
<desc>Speed 6.6 km/h Distance 5.05 km</desc>
<time>2010-10-23T17:32:02.59</time>
<name>3034</name>
</trkpt>
<trkpt lat="48.939790" lon="8.657837">
<ele>287.5</ele>
<speed>1.51</speed>
<course>18.2</course>
<desc>Speed 5.4 km/h Distance 5.05 km</desc>
<time>2010-10-23T17:32:03.59</time>
<name>3035</name>
</trkpt>
<trkpt lat="48.939800" lon="8.657842">
<ele>286.5</ele>
<speed>1.39</speed>
<course>33.7</course>
<desc>Speed 5.0 km/h Distance 5.06 km</desc>
<time>2010-10-23T17:32:04.59</time>
<name>3036</name>
</trkpt>
<trkpt lat="48.939807" lon="8.657848">
<ele>285.5</ele>
<speed>0.93</speed>
<course>24.9</course>
<desc>Speed 3.3 km/h Distance 5.06 km</desc>
<time>2010-10-23T17:32:05.59</time>
<name>3037</name>
</trkpt>
<trkpt lat="48.939818" lon="8.657857">
<ele>285.0</ele>
<speed>1.46</speed>
<course>36.9</course>
<desc>Speed 5.3 km/h Distance 5.06 km</desc>
<time>2010-10-23T17:32:06.59</time>
<name>3038</name>
</trkpt>
<trkpt lat="48.939830" lon="8.657870">
<ele>285.5</ele>
<speed>1.47</speed>
<course>33.2</course>
<desc>Speed 5.3 km/h Distance 5.06 km</desc>
<time>2010-10-23T17:32:07.59</time>
<name>3039</name>
</trkpt>
<trkpt lat="48.939838" lon="8.657878">
<ele>285.0</ele>
<speed>0.93</speed>
<course>35.4</course>
<desc>Speed 3.3 km/h Distance 5.06 km</desc>
<time>2010-10-23T17:32:08.59</time>
<name>3040</name>
</trkpt>
<trkpt lat="48.939858" lon="8.657900">
<ele>287.0</ele>
<speed>2.61</speed>
<course>29.4</course>
<desc>Speed 9.4 km/h Distance 5.06 km</desc>
<time>2010-10-23T17:32:09.59</time>
<name>3041</name>
</trkpt>
<trkpt lat="48.939870" lon="8.657910">
<ele>287.0</ele>
<speed>1.25</speed>
<course>33.4</course>
<desc>Speed 4.5 km/h Distance 5.06 km</desc>
<time>2010-10-23T17:32:10.58</time>
<name>3042</name>
</trkpt>
<trkpt lat="48.939883" lon="8.657923">
<ele>287.0</ele>
<speed>1.41</speed>
<course>27.2</course>
<desc>Speed 5.1 km/h Distance 5.07 km</desc>
<time>2010-10-23T17:32:11.58</time>
<name>3043</name>
</trkpt>
<trkpt lat="48.939898" lon="8.657935">
<ele>286.5</ele>
<speed>1.72</speed>
<course>33.4</course>
<desc>Speed 6.2 km/h Distance 5.07 km</desc>
<time>2010-10-23T17:32:12.57</time>
<name>3044</name>
</trkpt>
<trkpt lat="48.939910" lon="8.657947">
<ele>286.5</ele>
<speed>1.87</speed>
<course>46.4</course>
<desc>Speed 6.7 km/h Distance 5.07 km</desc>
<time>2010-10-23T17:32:13.56</time>
<name>3045</name>
</trkpt>
<trkpt lat="48.939918" lon="8.657960">
<ele>285.5</ele>
<speed>1.64</speed>
<course>30.3</course>
<desc>Speed 5.9 km/h Distance 5.07 km</desc>
<time>2010-10-23T17:32:14.56</time>
<name>3046</name>
</trkpt>
<trkpt lat="48.939933" lon="8.657973">
<ele>285.5</ele>
<speed>1.75</speed>
<course>52.7</course>
<desc>Speed 6.3 km/h Distance 5.07 km</desc>
<time>2010-10-23T17:32:15.56</time>
<name>3047</name>
</trkpt>
<trkpt lat="48.939942" lon="8.657990">
<ele>285.0</ele>
<speed>1.59</speed>
<course>41.3</course>
<desc>Speed 5.7 km/h Distance 5.07 km</desc>
<time>2010-10-23T17:32:16.56</time>
<name>3048</name>
</trkpt>
<trkpt lat="48.939952" lon="8.658003">
<ele>284.5</ele>
<speed>1.58</speed>
<course>27.8</course>
<desc>Speed 5.7 km/h Distance 5.08 km</desc>
<time>2010-10-23T17:32:17.56</time>
<name>3049</name>
</trkpt>
<trkpt lat="48.939968" lon="8.658017">
<ele>285.0</ele>
<speed>1.71</speed>
<course>30.3</course>
<desc>Speed 6.2 km/h Distance 5.08 km</desc>
<time>2010-10-23T17:32:18.56</time>
<name>3050</name>
</trkpt>
<trkpt lat="48.939983" lon="8.658030">
<ele>285.0</ele>
<speed>1.67</speed>
<course>33.4</course>
<desc>Speed 6.0 km/h Distance 5.08 km</desc>
<time>2010-10-23T17:32:19.56</time>
<name>3051</name>
</trkpt>
<trkpt lat="48.939997" lon="8.658043">
<ele>285.0</ele>
<speed>1.64</speed>
<course>36.2</course>
<desc>Speed 5.9 km/h Distance 5.08 km</desc>
<time>2010-10-23T17:32:20.56</time>
<name>3052</name>
</trkpt>
<trkpt lat="48.940012" lon="8.658060">
<ele>285.0</ele>
<speed>1.78</speed>
<course>30.7</course>
<desc>Speed 6.4 km/h Distance 5.08 km</desc>
<time>2010-10-23T17:32:21.56</time>
<name>3053</name>
</trkpt>
<trkpt lat="48.940028" lon="8.658075">
<ele>285.5</ele>
<speed>1.62</speed>
<course>30.3</course>
<desc>Speed 5.8 km/h Distance 5.09 km</desc>
<time>2010-10-23T17:32:22.56</time>
<name>3054</name>
</trkpt>
<trkpt lat="48.940043" lon="8.658088">
<ele>285.5</ele>
<speed>1.66</speed>
<course>28.2</course>
<desc>Speed 6.0 km/h Distance 5.09 km</desc>
<time>2010-10-23T17:32:23.56</time>
<name>3055</name>
</trkpt>
<trkpt lat="48.940062" lon="8.658103">
<ele>285.5</ele>
<speed>1.77</speed>
<course>33.3</course>
<desc>Speed 6.4 km/h Distance 5.09 km</desc>
<time>2010-10-23T17:32:24.56</time>
<name>3056</name>
</trkpt>
<trkpt lat="48.940077" lon="8.658118">
<ele>285.0</ele>
<speed>1.64</speed>
<course>33.2</course>
<desc>Speed 5.9 km/h Distance 5.09 km</desc>
<time>2010-10-23T17:32:25.56</time>
<name>3057</name>
</trkpt>
<trkpt lat="48.940090" lon="8.658132">
<ele>285.0</ele>
<speed>1.60</speed>
<course>36.4</course>
<desc>Speed 5.8 km/h Distance 5.09 km</desc>
<time>2010-10-23T17:32:26.56</time>
<name>3058</name>
</trkpt>
<trkpt lat="48.940103" lon="8.658147">
<ele>284.5</ele>
<speed>1.61</speed>
<course>40.2</course>
<desc>Speed 5.8 km/h Distance 5.10 km</desc>
<time>2010-10-23T17:32:27.56</time>
<name>3059</name>
</trkpt>
<trkpt lat="48.940115" lon="8.658162">
<ele>284.5</ele>
<speed>1.62</speed>
<course>36.4</course>
<desc>Speed 5.8 km/h Distance 5.10 km</desc>
<time>2010-10-23T17:32:28.56</time>
<name>3060</name>
</trkpt>
<trkpt lat="48.940128" lon="8.658177">
<ele>284.5</ele>
<speed>1.65</speed>
<course>33.2</course>
<desc>Speed 5.9 km/h Distance 5.10 km</desc>
<time>2010-10-23T17:32:29.56</time>
<name>3061</name>
</trkpt>
<trkpt lat="48.940142" lon="8.658190">
<ele>284.0</ele>
<speed>1.54</speed>
<course>33.3</course>
<desc>Speed 5.5 km/h Distance 5.10 km</desc>
<time>2010-10-23T17:32:30.56</time>
<name>3062</name>
</trkpt>
<trkpt lat="48.940155" lon="8.658203">
<ele>283.5</ele>
<speed>1.55</speed>
<course>36.6</course>
<desc>Speed 5.6 km/h Distance 5.10 km</desc>
<time>2010-10-23T17:32:31.56</time>
<name>3063</name>
</trkpt>
<trkpt lat="48.940168" lon="8.658218">
<ele>283.0</ele>
<speed>1.55</speed>
<course>33.4</course>
<desc>Speed 5.6 km/h Distance 5.10 km</desc>
<time>2010-10-23T17:32:32.56</time>
<name>3064</name>
</trkpt>
<trkpt lat="48.940182" lon="8.658232">
<ele>282.5</ele>
<speed>1.60</speed>
<course>44.5</course>
<desc>Speed 5.8 km/h Distance 5.11 km</desc>
<time>2010-10-23T17:32:33.56</time>
<name>3065</name>
</trkpt>
<trkpt lat="48.940192" lon="8.658247">
<ele>282.0</ele>
<speed>1.64</speed>
<course>43.2</course>
<desc>Speed 5.9 km/h Distance 5.11 km</desc>
<time>2010-10-23T17:32:34.56</time>
<name>3066</name>
</trkpt>
<trkpt lat="48.940203" lon="8.658263">
<ele>282.0</ele>
<speed>1.72</speed>
<course>33.3</course>
<desc>Speed 6.2 km/h Distance 5.11 km</desc>
<time>2010-10-23T17:32:35.56</time>
<name>3067</name>
</trkpt>
<trkpt lat="48.940217" lon="8.658277">
<ele>282.0</ele>
<speed>1.60</speed>
<course>41.3</course>
<desc>Speed 5.8 km/h Distance 5.11 km</desc>
<time>2010-10-23T17:32:36.56</time>
<name>3068</name>
</trkpt>
<trkpt lat="48.940227" lon="8.658290">
<ele>282.0</ele>
<speed>1.41</speed>
<course>30.0</course>
<desc>Speed 5.1 km/h Distance 5.11 km</desc>
<time>2010-10-23T17:32:37.56</time>
<name>3069</name>
</trkpt>
<trkpt lat="48.940240" lon="8.658302">
<ele>281.5</ele>
<speed>1.58</speed>
<course>33.4</course>
<desc>Speed 5.7 km/h Distance 5.11 km</desc>
<time>2010-10-23T17:32:38.56</time>
<name>3070</name>
</trkpt>
<trkpt lat="48.940252" lon="8.658313">
<ele>281.0</ele>
<speed>1.44</speed>
<course>44.5</course>
<desc>Speed 5.2 km/h Distance 5.12 km</desc>
<time>2010-10-23T17:32:39.56</time>
<name>3071</name>
</trkpt>
<trkpt lat="48.940262" lon="8.658328">
<ele>280.5</ele>
<speed>1.48</speed>
<course>49.8</course>
<desc>Speed 5.3 km/h Distance 5.12 km</desc>
<time>2010-10-23T17:32:40.56</time>
<name>3072</name>
</trkpt>
<trkpt lat="48.940270" lon="8.658343">
<ele>280.0</ele>
<speed>1.44</speed>
<course>44.6</course>
<desc>Speed 5.2 km/h Distance 5.12 km</desc>
<time>2010-10-23T17:32:41.56</time>
<name>3073</name>
</trkpt>
<trkpt lat="48.940280" lon="8.658358">
<ele>279.5</ele>
<speed>1.52</speed>
<course>55.9</course>
<desc>Speed 5.5 km/h Distance 5.12 km</desc>
<time>2010-10-23T17:32:42.56</time>
<name>3074</name>
</trkpt>
<trkpt lat="48.940287" lon="8.658373">
<ele>278.5</ele>
<speed>1.40</speed>
<course>41.2</course>
<desc>Speed 5.0 km/h Distance 5.12 km</desc>
<time>2010-10-23T17:32:43.56</time>
<name>3075</name>
</trkpt>
<trkpt lat="48.940297" lon="8.658387">
<ele>278.0</ele>
<speed>1.25</speed>
<course>44.5</course>
<desc>Speed 4.5 km/h Distance 5.12 km</desc>
<time>2010-10-23T17:32:44.56</time>
<name>3076</name>
</trkpt>
<trkpt lat="48.940307" lon="8.658402">
<ele>278.0</ele>
<speed>1.49</speed>
<course>44.5</course>
<desc>Speed 5.4 km/h Distance 5.13 km</desc>
<time>2010-10-23T17:32:45.56</time>
<name>3077</name>
</trkpt>
<trkpt lat="48.940317" lon="8.658417">
<ele>277.5</ele>
<speed>1.45</speed>
<course>36.9</course>
<desc>Speed 5.2 km/h Distance 5.13 km</desc>
<time>2010-10-23T17:32:46.56</time>
<name>3078</name>
</trkpt>
<trkpt lat="48.940328" lon="8.658430">
<ele>277.5</ele>
<speed>1.45</speed>
<course>43.2</course>
<desc>Speed 5.2 km/h Distance 5.13 km</desc>
<time>2010-10-23T17:32:47.56</time>
<name>3079</name>
</trkpt>
<trkpt lat="48.940340" lon="8.658447">
<ele>277.0</ele>
<speed>1.59</speed>
<course>44.6</course>
<desc>Speed 5.7 km/h Distance 5.13 km</desc>
<time>2010-10-23T17:32:48.56</time>
<name>3080</name>
</trkpt>
<trkpt lat="48.940350" lon="8.658462">
<ele>277.0</ele>
<speed>1.42</speed>
<course>40.3</course>
<desc>Speed 5.1 km/h Distance 5.13 km</desc>
<time>2010-10-23T17:32:49.56</time>
<name>3081</name>
</trkpt>
<trkpt lat="48.940362" lon="8.658477">
<ele>276.5</ele>
<speed>1.51</speed>
<course>36.9</course>
<desc>Speed 5.4 km/h Distance 5.13 km</desc>
<time>2010-10-23T17:32:50.56</time>
<name>3082</name>
</trkpt>
<trkpt lat="48.940373" lon="8.658490">
<ele>276.5</ele>
<speed>1.19</speed>
<course>40.2</course>
<desc>Speed 4.3 km/h Distance 5.14 km</desc>
<time>2010-10-23T17:32:51.56</time>
<name>3083</name>
</trkpt>
<trkpt lat="48.940385" lon="8.658505">
<ele>276.5</ele>
<speed>1.50</speed>
<course>33.4</course>
<desc>Speed 5.4 km/h Distance 5.14 km</desc>
<time>2010-10-23T17:32:52.56</time>
<name>3084</name>
</trkpt>
<trkpt lat="48.940398" lon="8.658518">
<ele>277.0</ele>
<speed>1.61</speed>
<course>33.3</course>
<desc>Speed 5.8 km/h Distance 5.14 km</desc>
<time>2010-10-23T17:32:53.56</time>
<name>3085</name>
</trkpt>
<trkpt lat="48.940413" lon="8.658533">
<ele>277.0</ele>
<speed>1.70</speed>
<course>36.9</course>
<desc>Speed 6.1 km/h Distance 5.14 km</desc>
<time>2010-10-23T17:32:54.56</time>
<name>3086</name>
</trkpt>
<trkpt lat="48.940425" lon="8.658547">
<ele>277.0</ele>
<speed>1.29</speed>
<course>30.8</course>
<desc>Speed 4.6 km/h Distance 5.14 km</desc>
<time>2010-10-23T17:32:55.56</time>
<name>3087</name>
</trkpt>
<trkpt lat="48.940442" lon="8.658562">
<ele>279.5</ele>
<speed>1.60</speed>
<course>27.2</course>
<desc>Speed 5.8 km/h Distance 5.14 km</desc>
<time>2010-10-23T17:32:56.56</time>
<name>3088</name>
</trkpt>
<trkpt lat="48.940457" lon="8.658573">
<ele>279.5</ele>
<speed>1.28</speed>
<course>41.2</course>
<desc>Speed 4.6 km/h Distance 5.15 km</desc>
<time>2010-10-23T17:32:57.56</time>
<name>3089</name>
</trkpt>
<trkpt lat="48.940467" lon="8.658587">
<ele>279.5</ele>
<speed>1.35</speed>
<course>33.4</course>
<desc>Speed 4.9 km/h Distance 5.15 km</desc>
<time>2010-10-23T17:32:58.56</time>
<name>3090</name>
</trkpt>
<trkpt lat="48.940480" lon="8.658600">
<ele>279.5</ele>
<speed>1.47</speed>
<course>41.3</course>
<desc>Speed 5.3 km/h Distance 5.15 km</desc>
<time>2010-10-23T17:32:59.56</time>
<name>3091</name>
</trkpt>
<trkpt lat="48.940490" lon="8.658613">
<ele>279.5</ele>
<speed>1.27</speed>
<course>49.1</course>
<desc>Speed 4.6 km/h Distance 5.15 km</desc>
<time>2010-10-23T17:33:00.56</time>
<name>3092</name>
</trkpt>
<trkpt lat="48.940497" lon="8.658625">
<ele>279.0</ele>
<speed>1.08</speed>
<course>42.6</course>
<desc>Speed 3.9 km/h Distance 5.15 km</desc>
<time>2010-10-23T17:33:01.57</time>
<name>3093</name>
</trkpt>
<trkpt lat="48.940505" lon="8.658637">
<ele>278.5</ele>
<speed>1.15</speed>
<course>42.6</course>
<desc>Speed 4.1 km/h Distance 5.15 km</desc>
<time>2010-10-23T17:33:02.57</time>
<name>3094</name>
</trkpt>
<trkpt lat="48.940513" lon="8.658648">
<ele>278.0</ele>
<speed>1.28</speed>
<course>27.2</course>
<desc>Speed 4.6 km/h Distance 5.15 km</desc>
<time>2010-10-23T17:33:03.57</time>
<name>3095</name>
</trkpt>
<trkpt lat="48.940528" lon="8.658660">
<ele>278.5</ele>
<speed>1.64</speed>
<course>44.7</course>
<desc>Speed 5.9 km/h Distance 5.16 km</desc>
<time>2010-10-23T17:33:04.57</time>
<name>3096</name>
</trkpt>
<trkpt lat="48.940538" lon="8.658675">
<ele>278.5</ele>
<speed>1.55</speed>
<course>44.6</course>
<desc>Speed 5.6 km/h Distance 5.16 km</desc>
<time>2010-10-23T17:33:05.56</time>
<name>3097</name>
</trkpt>
<trkpt lat="48.940548" lon="8.658690">
<ele>278.0</ele>
<speed>1.41</speed>
<course>33.3</course>
<desc>Speed 5.1 km/h Distance 5.16 km</desc>
<time>2010-10-23T17:33:06.56</time>
<name>3098</name>
</trkpt>
<trkpt lat="48.940562" lon="8.658703">
<ele>278.5</ele>
<speed>1.70</speed>
<course>36.5</course>
<desc>Speed 6.1 km/h Distance 5.16 km</desc>
<time>2010-10-23T17:33:07.56</time>
<name>3099</name>
</trkpt>
<trkpt lat="48.940575" lon="8.658718">
<ele>278.5</ele>
<speed>1.42</speed>
<course>27.0</course>
<desc>Speed 5.1 km/h Distance 5.16 km</desc>
<time>2010-10-23T17:33:08.56</time>
<name>3100</name>
</trkpt>
<trkpt lat="48.940590" lon="8.658730">
<ele>278.0</ele>
<speed>1.47</speed>
<course>2.8</course>
<desc>Speed 5.3 km/h Distance 5.17 km</desc>
<time>2010-10-23T17:33:09.56</time>
<name>3101</name>
</trkpt>
<trkpt lat="48.940607" lon="8.658732">
<ele>278.0</ele>
<speed>1.74</speed>
<course>38.8</course>
<desc>Speed 6.3 km/h Distance 5.17 km</desc>
<time>2010-10-23T17:33:10.56</time>
<name>3102</name>
</trkpt>
<trkpt lat="48.940622" lon="8.658750">
<ele>279.0</ele>
<speed>2.01</speed>
<course>29.8</course>
<desc>Speed 7.2 km/h Distance 5.17 km</desc>
<time>2010-10-23T17:33:11.56</time>
<name>3103</name>
</trkpt>
<trkpt lat="48.940635" lon="8.658762">
<ele>279.0</ele>
<speed>1.39</speed>
<course>36.5</course>
<desc>Speed 5.0 km/h Distance 5.17 km</desc>
<time>2010-10-23T17:33:12.59</time>
<name>3104</name>
</trkpt>
<trkpt lat="48.940648" lon="8.658777">
<ele>279.5</ele>
<speed>1.51</speed>
<course>52.6</course>
<desc>Speed 5.4 km/h Distance 5.17 km</desc>
<time>2010-10-23T17:33:13.58</time>
<name>3105</name>
</trkpt>
<trkpt lat="48.940653" lon="8.658787">
<ele>278.0</ele>
<speed>0.79</speed>
<course>38.1</course>
<desc>Speed 2.8 km/h Distance 5.17 km</desc>
<time>2010-10-23T17:33:14.58</time>
<name>3106</name>
</trkpt>
<trkpt lat="48.940662" lon="8.658797">
<ele>276.5</ele>
<speed>1.02</speed>
<course>39.4</course>
<desc>Speed 3.7 km/h Distance 5.17 km</desc>
<time>2010-10-23T17:33:15.58</time>
<name>3107</name>
</trkpt>
<trkpt lat="48.940675" lon="8.658813">
<ele>277.5</ele>
<speed>1.77</speed>
<course>50.3</course>
<desc>Speed 6.4 km/h Distance 5.18 km</desc>
<time>2010-10-23T17:33:16.58</time>
<name>3108</name>
</trkpt>
<trkpt lat="48.940685" lon="8.658832">
<ele>278.0</ele>
<speed>1.39</speed>
<course>52.7</course>
<desc>Speed 5.0 km/h Distance 5.18 km</desc>
<time>2010-10-23T17:33:17.58</time>
<name>3109</name>
</trkpt>
<trkpt lat="48.940693" lon="8.658848">
<ele>278.5</ele>
<speed>1.27</speed>
<course>49.7</course>
<desc>Speed 4.6 km/h Distance 5.18 km</desc>
<time>2010-10-23T17:33:18.58</time>
<name>3110</name>
</trkpt>
<trkpt lat="48.940702" lon="8.658863">
<ele>278.0</ele>
<speed>1.03</speed>
<course>36.9</course>
<desc>Speed 3.7 km/h Distance 5.18 km</desc>
<time>2010-10-23T17:33:19.58</time>
<name>3111</name>
</trkpt>
<trkpt lat="48.940713" lon="8.658877">
<ele>278.0</ele>
<speed>1.50</speed>
<course>41.4</course>
<desc>Speed 5.4 km/h Distance 5.18 km</desc>
<time>2010-10-23T17:33:20.58</time>
<name>3112</name>
</trkpt>
<trkpt lat="48.940723" lon="8.658890">
<ele>278.5</ele>
<speed>1.33</speed>
<course>39.4</course>
<desc>Speed 4.8 km/h Distance 5.18 km</desc>
<time>2010-10-23T17:33:21.58</time>
<name>3113</name>
</trkpt>
<trkpt lat="48.940737" lon="8.658907">
<ele>279.5</ele>
<speed>1.48</speed>
<course>29.4</course>
<desc>Speed 5.3 km/h Distance 5.19 km</desc>
<time>2010-10-23T17:33:22.58</time>
<name>3114</name>
</trkpt>
<trkpt lat="48.940748" lon="8.658917">
<ele>279.5</ele>
<speed>1.29</speed>
<course>29.8</course>
<desc>Speed 4.6 km/h Distance 5.19 km</desc>
<time>2010-10-23T17:33:23.58</time>
<name>3115</name>
</trkpt>
<trkpt lat="48.940762" lon="8.658928">
<ele>280.0</ele>
<speed>1.36</speed>
<course>33.1</course>
<desc>Speed 4.9 km/h Distance 5.19 km</desc>
<time>2010-10-23T17:33:24.58</time>
<name>3116</name>
</trkpt>
<trkpt lat="48.940773" lon="8.658940">
<ele>280.5</ele>
<speed>1.15</speed>
<course>42.6</course>
<desc>Speed 4.1 km/h Distance 5.19 km</desc>
<time>2010-10-23T17:33:25.58</time>
<name>3117</name>
</trkpt>
<trkpt lat="48.940782" lon="8.658952">
<ele>279.5</ele>
<speed>1.03</speed>
<course>55.9</course>
<desc>Speed 3.7 km/h Distance 5.19 km</desc>
<time>2010-10-23T17:33:26.58</time>
<name>3118</name>
</trkpt>
<trkpt lat="48.940788" lon="8.658967">
<ele>280.0</ele>
<speed>1.12</speed>
<course>25.2</course>
<desc>Speed 4.0 km/h Distance 5.19 km</desc>
<time>2010-10-23T17:33:27.58</time>
<name>3119</name>
</trkpt>
<trkpt lat="48.940800" lon="8.658975">
<ele>280.0</ele>
<speed>1.12</speed>
<course>38.4</course>
<desc>Speed 4.0 km/h Distance 5.20 km</desc>
<time>2010-10-23T17:33:28.58</time>
<name>3120</name>
</trkpt>
<trkpt lat="48.940808" lon="8.658985">
<ele>280.5</ele>
<speed>1.03</speed>
<course>13.6</course>
<desc>Speed 3.7 km/h Distance 5.20 km</desc>
<time>2010-10-23T17:33:29.58</time>
<name>3121</name>
</trkpt>
<trkpt lat="48.940827" lon="8.658992">
<ele>281.5</ele>
<speed>1.30</speed>
<course>20.1</course>
<desc>Speed 4.7 km/h Distance 5.20 km</desc>
<time>2010-10-23T17:33:30.58</time>
<name>3122</name>
</trkpt>
<trkpt lat="48.940842" lon="8.659000">
<ele>282.5</ele>
<speed>1.36</speed>
<course>16.6</course>
<desc>Speed 4.9 km/h Distance 5.20 km</desc>
<time>2010-10-23T17:33:31.58</time>
<name>3123</name>
</trkpt>
<trkpt lat="48.940857" lon="8.659007">
<ele>283.0</ele>
<speed>1.21</speed>
<course>12.3</course>
<desc>Speed 4.4 km/h Distance 5.20 km</desc>
<time>2010-10-23T17:33:32.58</time>
<name>3124</name>
</trkpt>
<trkpt lat="48.940877" lon="8.659013">
<ele>285.5</ele>
<speed>1.52</speed>
<course>23.8</course>
<desc>Speed 5.5 km/h Distance 5.20 km</desc>
<time>2010-10-23T17:33:33.58</time>
<name>3125</name>
</trkpt>
<trkpt lat="48.940887" lon="8.659020">
<ele>285.0</ele>
<speed>0.75</speed>
<course>16.6</course>
<desc>Speed 2.7 km/h Distance 5.21 km</desc>
<time>2010-10-23T17:33:34.58</time>
<name>3126</name>
</trkpt>
<trkpt lat="48.940902" lon="8.659027">
<ele>285.0</ele>
<speed>1.26</speed>
<course>18.2</course>
<desc>Speed 4.5 km/h Distance 5.21 km</desc>
<time>2010-10-23T17:33:35.58</time>
<name>3127</name>
</trkpt>
<trkpt lat="48.940912" lon="8.659032">
<ele>284.0</ele>
<speed>0.70</speed>
<course>12.6</course>
<desc>Speed 2.5 km/h Distance 5.21 km</desc>
<time>2010-10-23T17:33:36.57</time>
<name>3128</name>
</trkpt>
<trkpt lat="48.940922" lon="8.659035">
<ele>284.5</ele>
<speed>1.00</speed>
<course>7.7</course>
<desc>Speed 3.6 km/h Distance 5.21 km</desc>
<time>2010-10-23T17:33:37.57</time>
<name>3129</name>
</trkpt>
<trkpt lat="48.940938" lon="8.659038">
<ele>285.0</ele>
<speed>1.34</speed>
<course>10.3</course>
<desc>Speed 4.8 km/h Distance 5.21 km</desc>
<time>2010-10-23T17:33:38.57</time>
<name>3130</name>
</trkpt>
<trkpt lat="48.940945" lon="8.659040">
<ele>284.0</ele>
<speed>0.55</speed>
<course>18.8</course>
<desc>Speed 2.0 km/h Distance 5.21 km</desc>
<time>2010-10-23T17:33:39.57</time>
<name>3131</name>
</trkpt>
<trkpt lat="48.940955" lon="8.659045">
<ele>283.0</ele>
<speed>0.98</speed>
<course>20.1</course>
<desc>Speed 3.5 km/h Distance 5.21 km</desc>
<time>2010-10-23T17:33:40.57</time>
<name>3132</name>
</trkpt>
<trkpt lat="48.940970" lon="8.659053">
<ele>283.5</ele>
<speed>1.22</speed>
<course>63.1</course>
<desc>Speed 4.4 km/h Distance 5.22 km</desc>
<time>2010-10-23T17:33:41.57</time>
<name>3133</name>
</trkpt>
<trkpt lat="48.940975" lon="8.659068">
<ele>284.0</ele>
<speed>1.04</speed>
<course>56.9</course>
<desc>Speed 3.7 km/h Distance 5.22 km</desc>
<time>2010-10-23T17:33:42.57</time>
<name>3134</name>
</trkpt>
<trkpt lat="48.940980" lon="8.659080">
<ele>284.0</ele>
<speed>0.82</speed>
<course>41.4</course>
<desc>Speed 3.0 km/h Distance 5.22 km</desc>
<time>2010-10-23T17:33:43.57</time>
<name>3135</name>
</trkpt>
<trkpt lat="48.940985" lon="8.659087">
<ele>283.0</ele>
<speed>0.51</speed>
<course>96.7</course>
<desc>Speed 1.8 km/h Distance 5.22 km</desc>
<time>2010-10-23T17:33:44.57</time>
<name>3136</name>
</trkpt>
<trkpt lat="48.940983" lon="8.659108">
<ele>283.0</ele>
<speed>1.64</speed>
<course>73.1</course>
<desc>Speed 5.9 km/h Distance 5.22 km</desc>
<time>2010-10-23T17:33:45.57</time>
<name>3137</name>
</trkpt>
<trkpt lat="48.940987" lon="8.659125">
<ele>283.0</ele>
<speed>1.13</speed>
<course>69.1</course>
<desc>Speed 4.1 km/h Distance 5.22 km</desc>
<time>2010-10-23T17:33:46.57</time>
<name>3138</name>
</trkpt>
<trkpt lat="48.940988" lon="8.659132">
<ele>282.0</ele>
<speed>0.57</speed>
<course>127.4</course>
<desc>Speed 2.1 km/h Distance 5.22 km</desc>
<time>2010-10-23T17:33:47.57</time>
<name>3139</name>
</trkpt>
<trkpt lat="48.940983" lon="8.659142">
<ele>280.0</ele>
<speed>0.93</speed>
<course>90.0</course>
<desc>Speed 3.3 km/h Distance 5.22 km</desc>
<time>2010-10-23T17:33:48.57</time>
<name>3140</name>
</trkpt>
<trkpt lat="48.940983" lon="8.659182">
<ele>279.5</ele>
<speed>2.75</speed>
<course>63.1</course>
<desc>Speed 9.9 km/h Distance 5.23 km</desc>
<time>2010-10-23T17:33:49.57</time>
<name>3141</name>
</trkpt>
<trkpt lat="48.940988" lon="8.659197">
<ele>280.0</ele>
<speed>0.98</speed>
<course>46.4</course>
<desc>Speed 3.5 km/h Distance 5.23 km</desc>
<time>2010-10-23T17:33:50.57</time>
<name>3142</name>
</trkpt>
<trkpt lat="48.940997" lon="8.659210">
<ele>281.0</ele>
<speed>0.93</speed>
<course>52.7</course>
<desc>Speed 3.3 km/h Distance 5.23 km</desc>
<time>2010-10-23T17:33:51.57</time>
<name>3143</name>
</trkpt>
<trkpt lat="48.941003" lon="8.659223">
<ele>281.0</ele>
<speed>0.85</speed>
<course>37.5</course>
<desc>Speed 3.1 km/h Distance 5.23 km</desc>
<time>2010-10-23T17:33:52.57</time>
<name>3144</name>
</trkpt>
<trkpt lat="48.941013" lon="8.659235">
<ele>282.5</ele>
<speed>0.68</speed>
<course>38.1</course>
<desc>Speed 2.4 km/h Distance 5.23 km</desc>
<time>2010-10-23T17:33:53.57</time>
<name>3145</name>
</trkpt>
<trkpt lat="48.941022" lon="8.659245">
<ele>283.5</ele>
<speed>0.68</speed>
<course>67.9</course>
<desc>Speed 2.4 km/h Distance 5.23 km</desc>
<time>2010-10-23T17:33:54.57</time>
<name>3146</name>
</trkpt>
<trkpt lat="48.941028" lon="8.659270">
<ele>285.5</ele>
<speed>1.85</speed>
<course>27.0</course>
<desc>Speed 6.7 km/h Distance 5.23 km</desc>
<time>2010-10-23T17:33:55.57</time>
<name>3147</name>
</trkpt>
<trkpt lat="48.941043" lon="8.659282">
<ele>286.5</ele>
<speed>0.55</speed>
<course>33.3</course>
<desc>Speed 2.0 km/h Distance 5.24 km</desc>
<time>2010-10-23T17:33:57.57</time>
<name>3148</name>
</trkpt>
<trkpt lat="48.941057" lon="8.659295">
<ele>288.0</ele>
<speed>0.94</speed>
<course>40.2</course>
<desc>Speed 3.4 km/h Distance 5.24 km</desc>
<time>2010-10-23T17:33:58.57</time>
<name>3149</name>
</trkpt>
<trkpt lat="48.941068" lon="8.659310">
<ele>288.5</ele>
<speed>0.99</speed>
<course>49.7</course>
<desc>Speed 3.6 km/h Distance 5.24 km</desc>
<time>2010-10-23T17:33:59.57</time>
<name>3150</name>
</trkpt>
<trkpt lat="48.941077" lon="8.659325">
<ele>288.0</ele>
<speed>1.02</speed>
<course>52.4</course>
<desc>Speed 3.7 km/h Distance 5.24 km</desc>
<time>2010-10-23T17:34:00.57</time>
<name>3151</name>
</trkpt>
<trkpt lat="48.941082" lon="8.659335">
<ele>287.5</ele>
<speed>0.73</speed>
<course>55.9</course>
<desc>Speed 2.6 km/h Distance 5.24 km</desc>
<time>2010-10-23T17:34:01.57</time>
<name>3152</name>
</trkpt>
<trkpt lat="48.941088" lon="8.659350">
<ele>287.5</ele>
<speed>1.00</speed>
<course>69.1</course>
<desc>Speed 3.6 km/h Distance 5.24 km</desc>
<time>2010-10-23T17:34:02.57</time>
<name>3153</name>
</trkpt>
<trkpt lat="48.941090" lon="8.659357">
<ele>286.5</ele>
<speed>0.49</speed>
<course>63.1</course>
<desc>Speed 1.8 km/h Distance 5.24 km</desc>
<time>2010-10-23T17:34:03.57</time>
<name>3154</name>
</trkpt>
<trkpt lat="48.941095" lon="8.659372">
<ele>287.0</ele>
<speed>0.95</speed>
<course>123.9</course>
<desc>Speed 3.4 km/h Distance 5.24 km</desc>
<time>2010-10-23T17:34:04.57</time>
<name>3155</name>
</trkpt>
<trkpt lat="48.941088" lon="8.659387">
<ele>286.0</ele>
<speed>0.76</speed>
<course>104.2</course>
<desc>Speed 2.7 km/h Distance 5.25 km</desc>
<time>2010-10-23T17:34:05.66</time>
<name>3156</name>
</trkpt>
<trkpt lat="48.941085" lon="8.659407">
<ele>285.0</ele>
<speed>0.70</speed>
<course>123.3</course>
<desc>Speed 2.5 km/h Distance 5.25 km</desc>
<time>2010-10-23T17:34:06.61</time>
<name>3157</name>
</trkpt>
<trkpt lat="48.941080" lon="8.659418">
<ele>283.0</ele>
<speed>0.81</speed>
<course>100.7</course>
<desc>Speed 2.9 km/h Distance 5.25 km</desc>
<time>2010-10-23T17:34:07.61</time>
<name>3158</name>
</trkpt>
<trkpt lat="48.941078" lon="8.659432">
<ele>282.0</ele>
<speed>0.67</speed>
<course>113.5</course>
<desc>Speed 2.4 km/h Distance 5.25 km</desc>
<time>2010-10-23T17:34:08.61</time>
<name>3159</name>
</trkpt>
<trkpt lat="48.941075" lon="8.659443">
<ele>280.0</ele>
<speed>0.68</speed>
<course>52.7</course>
<desc>Speed 2.4 km/h Distance 5.25 km</desc>
<time>2010-10-23T17:34:09.61</time>
<name>3160</name>
</trkpt>
<trkpt lat="48.941082" lon="8.659457">
<ele>280.5</ele>
<speed>1.15</speed>
<course>63.1</course>
<desc>Speed 4.1 km/h Distance 5.25 km</desc>
<time>2010-10-23T17:34:10.61</time>
<name>3161</name>
</trkpt>
<trkpt lat="48.941087" lon="8.659472">
<ele>280.5</ele>
<speed>1.13</speed>
<course>56.9</course>
<desc>Speed 4.1 km/h Distance 5.25 km</desc>
<time>2010-10-23T17:34:11.61</time>
<name>3162</name>
</trkpt>
<trkpt lat="48.941097" lon="8.659495">
<ele>283.0</ele>
<speed>0.87</speed>
<course>81.3</course>
<desc>Speed 3.1 km/h Distance 5.25 km</desc>
<time>2010-10-23T17:34:12.61</time>
<name>3163</name>
</trkpt>
<trkpt lat="48.941098" lon="8.659512">
<ele>282.0</ele>
<speed>0.94</speed>
<course>107.1</course>
<desc>Speed 3.4 km/h Distance 5.26 km</desc>
<time>2010-10-23T17:34:13.61</time>
<name>3164</name>
</trkpt>
<trkpt lat="48.941097" lon="8.659520">
<ele>280.5</ele>
<speed>0.70</speed>
<course>41.2</course>
<desc>Speed 2.5 km/h Distance 5.26 km</desc>
<time>2010-10-23T17:34:14.61</time>
<name>3165</name>
</trkpt>
<trkpt lat="48.941107" lon="8.659533">
<ele>282.0</ele>
<speed>0.81</speed>
<course>33.2</course>
<desc>Speed 2.9 km/h Distance 5.26 km</desc>
<time>2010-10-23T17:34:15.61</time>
<name>3166</name>
</trkpt>
<trkpt lat="48.941113" lon="8.659540">
<ele>282.5</ele>
<speed>0.82</speed>
<course>4.7</course>
<desc>Speed 3.0 km/h Distance 5.26 km</desc>
<time>2010-10-23T17:34:16.61</time>
<name>3167</name>
</trkpt>
<trkpt lat="48.941125" lon="8.659542">
<ele>283.0</ele>
<speed>0.87</speed>
<course>23.4</course>
<desc>Speed 3.1 km/h Distance 5.26 km</desc>
<time>2010-10-23T17:34:17.61</time>
<name>3168</name>
</trkpt>
<trkpt lat="48.941135" lon="8.659548">
<ele>282.5</ele>
<speed>1.03</speed>
<course>42.0</course>
<desc>Speed 3.7 km/h Distance 5.26 km</desc>
<time>2010-10-23T17:34:18.61</time>
<name>3169</name>
</trkpt>
<trkpt lat="48.941148" lon="8.659567">
<ele>282.5</ele>
<speed>1.14</speed>
<course>90.0</course>
<desc>Speed 4.1 km/h Distance 5.26 km</desc>
<time>2010-10-23T17:34:19.61</time>
<name>3170</name>
</trkpt>
<trkpt lat="48.941148" lon="8.659572">
<ele>282.5</ele>
<speed>0.31</speed>
<course>49.7</course>
<desc>Speed 1.1 km/h Distance 5.26 km</desc>
<time>2010-10-23T17:34:20.61</time>
<name>3171</name>
</trkpt>
<trkpt lat="48.941157" lon="8.659587">
<ele>284.0</ele>
<speed>1.10</speed>
<course>110.9</course>
<desc>Speed 4.0 km/h Distance 5.27 km</desc>
<time>2010-10-23T17:34:21.61</time>
<name>3172</name>
</trkpt>
<trkpt lat="48.941153" lon="8.659600">
<ele>286.0</ele>
<speed>1.13</speed>
<course>102.3</course>
<desc>Speed 4.1 km/h Distance 5.27 km</desc>
<time>2010-10-23T17:34:22.61</time>
<name>3173</name>
</trkpt>
<trkpt lat="48.941152" lon="8.659612">
<ele>286.5</ele>
<speed>0.81</speed>
<course>28.6</course>
<desc>Speed 2.9 km/h Distance 5.27 km</desc>
<time>2010-10-23T17:34:23.61</time>
<name>3174</name>
</trkpt>
<trkpt lat="48.941162" lon="8.659620">
<ele>287.0</ele>
<speed>1.01</speed>
<course>8.1</course>
<desc>Speed 3.6 km/h Distance 5.27 km</desc>
<time>2010-10-23T17:34:24.61</time>
<name>3175</name>
</trkpt>
<trkpt lat="48.941172" lon="8.659622">
<ele>288.5</ele>
<speed>0.81</speed>
<course>49.1</course>
<desc>Speed 2.9 km/h Distance 5.27 km</desc>
<time>2010-10-23T17:34:25.61</time>
<name>3176</name>
</trkpt>
<trkpt lat="48.941178" lon="8.659633">
<ele>290.5</ele>
<speed>0.80</speed>
<course>12.2</course>
<desc>Speed 2.9 km/h Distance 5.27 km</desc>
<time>2010-10-23T17:34:26.61</time>
<name>3177</name>
</trkpt>
<trkpt lat="48.941193" lon="8.659638">
<ele>293.0</ele>
<speed>0.43</speed>
<course>10.7</course>
<desc>Speed 1.5 km/h Distance 5.27 km</desc>
<time>2010-10-23T17:34:27.61</time>
<name>3178</name>
</trkpt>
<trkpt lat="48.941228" lon="8.659648">
<ele>297.5</ele>
<speed>0.93</speed>
<course>33.2</course>
<desc>Speed 3.3 km/h Distance 5.28 km</desc>
<time>2010-10-23T17:34:29.61</time>
<name>3179</name>
</trkpt>
<trkpt lat="48.941235" lon="8.659655">
<ele>298.5</ele>
<speed>0.46</speed>
<course>29.2</course>
<desc>Speed 1.7 km/h Distance 5.28 km</desc>
<time>2010-10-23T17:34:30.61</time>
<name>3180</name>
</trkpt>
<trkpt lat="48.941247" lon="8.659665">
<ele>299.0</ele>
<speed>0.70</speed>
<course>13.5</course>
<desc>Speed 2.5 km/h Distance 5.28 km</desc>
<time>2010-10-23T17:34:31.61</time>
<name>3181</name>
</trkpt>
<trkpt lat="48.941260" lon="8.659670">
<ele>299.0</ele>
<speed>1.20</speed>
<course>106.9</course>
<desc>Speed 4.3 km/h Distance 5.28 km</desc>
<time>2010-10-23T17:34:32.61</time>
<name>3182</name>
</trkpt>
<trkpt lat="48.941258" lon="8.659678">
<ele>298.5</ele>
<speed>0.51</speed>
<course>42.6</course>
<desc>Speed 1.8 km/h Distance 5.28 km</desc>
<time>2010-10-23T17:34:33.61</time>
<name>3183</name>
</trkpt>
<trkpt lat="48.941267" lon="8.659690">
<ele>298.0</ele>
<speed>0.50</speed>
<course>37.5</course>
<desc>Speed 1.8 km/h Distance 5.28 km</desc>
<time>2010-10-23T17:34:34.61</time>
<name>3184</name>
</trkpt>
<trkpt lat="48.941277" lon="8.659702">
<ele>296.0</ele>
<speed>0.44</speed>
<course>29.1</course>
<desc>Speed 1.6 km/h Distance 5.28 km</desc>
<time>2010-10-23T17:34:35.61</time>
<name>3185</name>
</trkpt>
<trkpt lat="48.941298" lon="8.659720">
<ele>294.0</ele>
<speed>1.73</speed>
<course>27.9</course>
<desc>Speed 6.2 km/h Distance 5.29 km</desc>
<time>2010-10-23T17:34:37.61</time>
<name>3186</name>
</trkpt>
<trkpt lat="48.941307" lon="8.659727">
<ele>295.0</ele>
<speed>0.75</speed>
<course>18.8</course>
<desc>Speed 2.7 km/h Distance 5.29 km</desc>
<time>2010-10-23T17:34:38.61</time>
<name>3187</name>
</trkpt>
<trkpt lat="48.941313" lon="8.659730">
<ele>295.0</ele>
<speed>0.41</speed>
<course>15.5</course>
<desc>Speed 1.5 km/h Distance 5.29 km</desc>
<time>2010-10-23T17:34:39.61</time>
<name>3188</name>
</trkpt>
<trkpt lat="48.941325" lon="8.659735">
<ele>295.5</ele>
<speed>0.81</speed>
<course>22.1</course>
<desc>Speed 2.9 km/h Distance 5.29 km</desc>
<time>2010-10-23T17:34:40.61</time>
<name>3189</name>
</trkpt>
<trkpt lat="48.941338" lon="8.659743">
<ele>295.5</ele>
<speed>1.30</speed>
<course>40.9</course>
<desc>Speed 4.7 km/h Distance 5.29 km</desc>
<time>2010-10-23T17:34:41.61</time>
<name>3190</name>
</trkpt>
<trkpt lat="48.941343" lon="8.659750">
<ele>296.0</ele>
<speed>0.67</speed>
<course>47.8</course>
<desc>Speed 2.4 km/h Distance 5.29 km</desc>
<time>2010-10-23T17:34:42.61</time>
<name>3191</name>
</trkpt>
<trkpt lat="48.941348" lon="8.659758">
<ele>296.0</ele>
<speed>0.62</speed>
<course>43.5</course>
<desc>Speed 2.2 km/h Distance 5.29 km</desc>
<time>2010-10-23T17:34:43.61</time>
<name>3192</name>
</trkpt>
<trkpt lat="48.941352" lon="8.659763">
<ele>296.5</ele>
<speed>0.43</speed>
<course>14.9</course>
<desc>Speed 1.5 km/h Distance 5.29 km</desc>
<time>2010-10-23T17:34:44.61</time>
<name>3193</name>
</trkpt>
<trkpt lat="48.941360" lon="8.659767">
<ele>297.0</ele>
<speed>0.54</speed>
<course>33.5</course>
<desc>Speed 1.9 km/h Distance 5.29 km</desc>
<time>2010-10-23T17:34:45.62</time>
<name>3194</name>
</trkpt>
<trkpt lat="48.941368" lon="8.659775">
<ele>295.0</ele>
<speed>0.30</speed>
<course>23.8</course>
<desc>Speed 1.1 km/h Distance 5.30 km</desc>
<time>2010-10-23T17:34:47.62</time>
<name>3195</name>
</trkpt>
<trkpt lat="48.941378" lon="8.659782">
<ele>293.5</ele>
<speed>0.49</speed>
<course>33.4</course>
<desc>Speed 1.8 km/h Distance 5.30 km</desc>
<time>2010-10-23T17:34:48.62</time>
<name>3196</name>
</trkpt>
<trkpt lat="48.941392" lon="8.659795">
<ele>292.5</ele>
<speed>0.85</speed>
<course>16.0</course>
<desc>Speed 3.1 km/h Distance 5.30 km</desc>
<time>2010-10-23T17:34:49.62</time>
<name>3197</name>
</trkpt>
<trkpt lat="48.941403" lon="8.659800">
<ele>294.0</ele>
<speed>0.62</speed>
<course>33.4</course>
<desc>Speed 2.2 km/h Distance 5.30 km</desc>
<time>2010-10-23T17:34:50.62</time>
<name>3198</name>
</trkpt>
<trkpt lat="48.941413" lon="8.659810">
<ele>294.0</ele>
<speed>0.57</speed>
<course>349.6</course>
<desc>Speed 2.1 km/h Distance 5.30 km</desc>
<time>2010-10-23T17:34:51.62</time>
<name>3199</name>
</trkpt>
<trkpt lat="48.941425" lon="8.659807">
<ele>295.0</ele>
<speed>0.91</speed>
<course>4.7</course>
<desc>Speed 3.3 km/h Distance 5.30 km</desc>
<time>2010-10-23T17:34:52.62</time>
<name>3200</name>
</trkpt>
<trkpt lat="48.941437" lon="8.659808">
<ele>295.5</ele>
<speed>0.64</speed>
<course>0.0</course>
<desc>Speed 2.3 km/h Distance 5.30 km</desc>
<time>2010-10-23T17:34:53.62</time>
<name>3201</name>
</trkpt>
<trkpt lat="48.941447" lon="8.659808">
<ele>295.5</ele>
<speed>0.58</speed>
<course>0.0</course>
<desc>Speed 2.1 km/h Distance 5.30 km</desc>
<time>2010-10-23T17:34:54.62</time>
<name>3202</name>
</trkpt>
<trkpt lat="48.941457" lon="8.659808">
<ele>295.5</ele>
<speed>0.37</speed>
<course>354.2</course>
<desc>Speed 1.3 km/h Distance 5.31 km</desc>
<time>2010-10-23T17:34:55.62</time>
<name>3203</name>
</trkpt>
<trkpt lat="48.941500" lon="8.659802">
<ele>296.5</ele>
<speed>0.91</speed>
<course>356.9</course>
<desc>Speed 3.3 km/h Distance 5.31 km</desc>
<time>2010-10-23T17:34:57.62</time>
<name>3204</name>
</trkpt>
<trkpt lat="48.941525" lon="8.659800">
<ele>297.0</ele>
<speed>0.67</speed>
<course>290.9</course>
<desc>Speed 2.4 km/h Distance 5.31 km</desc>
<time>2010-10-23T17:34:58.62</time>
<name>3205</name>
</trkpt>
<trkpt lat="48.941527" lon="8.659793">
<ele>297.5</ele>
<speed>0.64</speed>
<course>7.8</course>
<desc>Speed 2.3 km/h Distance 5.31 km</desc>
<time>2010-10-23T17:34:59.62</time>
<name>3206</name>
</trkpt>
<trkpt lat="48.941567" lon="8.659802">
<ele>297.5</ele>
<speed>1.07</speed>
<course>12.6</course>
<desc>Speed 3.9 km/h Distance 5.32 km</desc>
<time>2010-10-23T17:35:01.62</time>
<name>3207</name>
</trkpt>
<trkpt lat="48.941577" lon="8.659805">
<ele>297.5</ele>
<speed>0.68</speed>
<course>12.6</course>
<desc>Speed 2.4 km/h Distance 5.32 km</desc>
<time>2010-10-23T17:35:02.62</time>
<name>3208</name>
</trkpt>
<trkpt lat="48.941582" lon="8.659807">
<ele>297.5</ele>
<speed>0.49</speed>
<course>351.2</course>
<desc>Speed 1.8 km/h Distance 5.32 km</desc>
<time>2010-10-23T17:35:03.62</time>
<name>3209</name>
</trkpt>
<trkpt lat="48.941602" lon="8.659802">
<ele>297.5</ele>
<speed>1.14</speed>
<course>346.4</course>
<desc>Speed 4.1 km/h Distance 5.32 km</desc>
<time>2010-10-23T17:35:04.62</time>
<name>3210</name>
</trkpt>
<trkpt lat="48.941620" lon="8.659795">
<ele>295.5</ele>
<speed>0.74</speed>
<course>1.2</course>
<desc>Speed 2.7 km/h Distance 5.32 km</desc>
<time>2010-10-23T17:35:05.62</time>
<name>3211</name>
</trkpt>
<trkpt lat="48.941633" lon="8.659795">
<ele>295.5</ele>
<speed>0.88</speed>
<course>2.6</course>
<desc>Speed 3.2 km/h Distance 5.33 km</desc>
<time>2010-10-23T17:35:06.62</time>
<name>3212</name>
</trkpt>
<trkpt lat="48.941680" lon="8.659798">
<ele>296.0</ele>
<speed>1.54</speed>
<course>18.8</course>
<desc>Speed 5.5 km/h Distance 5.33 km</desc>
<time>2010-10-23T17:35:08.62</time>
<name>3213</name>
</trkpt>
<trkpt lat="48.941687" lon="8.659802">
<ele>296.5</ele>
<speed>0.70</speed>
<course>44.5</course>
<desc>Speed 2.5 km/h Distance 5.33 km</desc>
<time>2010-10-23T17:35:09.62</time>
<name>3214</name>
</trkpt>
<trkpt lat="48.941690" lon="8.659807">
<ele>297.5</ele>
<speed>0.37</speed>
<course>7.9</course>
<desc>Speed 1.3 km/h Distance 5.33 km</desc>
<time>2010-10-23T17:35:10.62</time>
<name>3215</name>
</trkpt>
<trkpt lat="48.941745" lon="8.659818">
<ele>302.5</ele>
<speed>0.31</speed>
<course>0.0</course>
<desc>Speed 1.1 km/h Distance 5.34 km</desc>
<time>2010-10-23T17:35:14.62</time>
<name>3216</name>
</trkpt>
<trkpt lat="48.941760" lon="8.659818">
<ele>303.5</ele>
<speed>0.67</speed>
<course>8.1</course>
<desc>Speed 2.4 km/h Distance 5.34 km</desc>
<time>2010-10-23T17:35:15.62</time>
<name>3217</name>
</trkpt>
<trkpt lat="48.941775" lon="8.659822">
<ele>301.5</ele>
<speed>1.19</speed>
<course>2.2</course>
<desc>Speed 4.3 km/h Distance 5.34 km</desc>
<time>2010-10-23T17:35:16.62</time>
<name>3218</name>
</trkpt>
<trkpt lat="48.941787" lon="8.659822">
<ele>303.5</ele>
<speed>0.82</speed>
<course>353.4</course>
<desc>Speed 3.0 km/h Distance 5.34 km</desc>
<time>2010-10-23T17:35:17.62</time>
<name>3219</name>
</trkpt>
<trkpt lat="48.941797" lon="8.659820">
<ele>303.0</ele>
<speed>0.36</speed>
<course>5.3</course>
<desc>Speed 1.3 km/h Distance 5.34 km</desc>
<time>2010-10-23T17:35:19.62</time>
<name>3220</name>
</trkpt>
<trkpt lat="48.941810" lon="8.659822">
<ele>303.5</ele>
<speed>0.81</speed>
<course>33.7</course>
<desc>Speed 2.9 km/h Distance 5.35 km</desc>
<time>2010-10-23T17:35:20.62</time>
<name>3221</name>
</trkpt>
<trkpt lat="48.941813" lon="8.659825">
<ele>304.0</ele>
<speed>0.38</speed>
<course>352.3</course>
<desc>Speed 1.4 km/h Distance 5.35 km</desc>
<time>2010-10-23T17:35:21.62</time>
<name>3222</name>
</trkpt>
<trkpt lat="48.941830" lon="8.659822">
<ele>303.5</ele>
<speed>0.37</speed>
<course>356.2</course>
<desc>Speed 1.3 km/h Distance 5.35 km</desc>
<time>2010-10-23T17:35:22.62</time>
<name>3223</name>
</trkpt>
<trkpt lat="48.941865" lon="8.659818">
<ele>301.5</ele>
<speed>0.70</speed>
<course>1.2</course>
<desc>Speed 2.5 km/h Distance 5.35 km</desc>
<time>2010-10-23T17:35:24.62</time>
<name>3224</name>
</trkpt>
<trkpt lat="48.941878" lon="8.659818">
<ele>301.5</ele>
<speed>0.49</speed>
<course>355.6</course>
<desc>Speed 1.8 km/h Distance 5.35 km</desc>
<time>2010-10-23T17:35:25.62</time>
<name>3225</name>
</trkpt>
<trkpt lat="48.941888" lon="8.659817">
<ele>301.5</ele>
<speed>0.81</speed>
<course>356.8</course>
<desc>Speed 2.9 km/h Distance 5.35 km</desc>
<time>2010-10-23T17:35:26.62</time>
<name>3226</name>
</trkpt>
<trkpt lat="48.941910" lon="8.659815">
<ele>300.0</ele>
<speed>1.63</speed>
<course>355.3</course>
<desc>Speed 5.9 km/h Distance 5.36 km</desc>
<time>2010-10-23T17:35:27.62</time>
<name>3227</name>
</trkpt>
<trkpt lat="48.941922" lon="8.659813">
<ele>299.5</ele>
<speed>0.62</speed>
<course>58.6</course>
<desc>Speed 2.2 km/h Distance 5.36 km</desc>
<time>2010-10-23T17:35:28.62</time>
<name>3228</name>
</trkpt>
<trkpt lat="48.941925" lon="8.659822">
<ele>299.0</ele>
<speed>0.69</speed>
<course>2.5</course>
<desc>Speed 2.5 km/h Distance 5.36 km</desc>
<time>2010-10-23T17:35:29.62</time>
<name>3229</name>
</trkpt>
<trkpt lat="48.941943" lon="8.659822">
<ele>299.5</ele>
<speed>0.81</speed>
<course>349.8</course>
<desc>Speed 2.9 km/h Distance 5.36 km</desc>
<time>2010-10-23T17:35:31.62</time>
<name>3230</name>
</trkpt>
<trkpt lat="48.941962" lon="8.659817">
<ele>300.5</ele>
<speed>0.86</speed>
<course>352.3</course>
<desc>Speed 3.1 km/h Distance 5.36 km</desc>
<time>2010-10-23T17:35:32.62</time>
<name>3231</name>
</trkpt>
<trkpt lat="48.941970" lon="8.659815">
<ele>300.5</ele>
<speed>1.03</speed>
<course>5.0</course>
<desc>Speed 3.7 km/h Distance 5.36 km</desc>
<time>2010-10-23T17:35:33.62</time>
<name>3232</name>
</trkpt>
<trkpt lat="48.941978" lon="8.659817">
<ele>299.5</ele>
<speed>0.63</speed>
<course>1.2</course>
<desc>Speed 2.3 km/h Distance 5.37 km</desc>
<time>2010-10-23T17:35:34.62</time>
<name>3233</name>
</trkpt>
<trkpt lat="48.941992" lon="8.659818">
<ele>299.0</ele>
<speed>0.92</speed>
<course>0.0</course>
<desc>Speed 3.3 km/h Distance 5.37 km</desc>
<time>2010-10-23T17:35:35.62</time>
<name>3234</name>
</trkpt>
<trkpt lat="48.942013" lon="8.659818">
<ele>299.0</ele>
<speed>1.84</speed>
<course>6.3</course>
<desc>Speed 6.6 km/h Distance 5.37 km</desc>
<time>2010-10-23T17:35:36.62</time>
<name>3235</name>
</trkpt>
<trkpt lat="48.942025" lon="8.659820">
<ele>298.0</ele>
<speed>0.58</speed>
<course>167.4</course>
<desc>Speed 2.1 km/h Distance 5.37 km</desc>
<time>2010-10-23T17:35:37.62</time>
<name>3236</name>
</trkpt>
<trkpt lat="48.942022" lon="8.659820">
<ele>298.0</ele>
<speed>0.66</speed>
<course>348.8</course>
<desc>Speed 2.4 km/h Distance 5.37 km</desc>
<time>2010-10-23T17:35:38.62</time>
<name>3237</name>
</trkpt>
<trkpt lat="48.942055" lon="8.659810">
<ele>300.0</ele>
<speed>0.81</speed>
<course>4.7</course>
<desc>Speed 2.9 km/h Distance 5.37 km</desc>
<time>2010-10-23T17:35:41.62</time>
<name>3238</name>
</trkpt>
<trkpt lat="48.942067" lon="8.659812">
<ele>301.0</ele>
<speed>0.88</speed>
<course>90.0</course>
<desc>Speed 3.2 km/h Distance 5.38 km</desc>
<time>2010-10-23T17:35:42.62</time>
<name>3239</name>
</trkpt>
<trkpt lat="48.942067" lon="8.659815">
<ele>300.0</ele>
<speed>0.46</speed>
<course>355.3</course>
<desc>Speed 1.7 km/h Distance 5.38 km</desc>
<time>2010-10-23T17:35:43.62</time>
<name>3240</name>
</trkpt>
<trkpt lat="48.942078" lon="8.659813">
<ele>300.5</ele>
<speed>0.60</speed>
<course>357.5</course>
<desc>Speed 2.2 km/h Distance 5.38 km</desc>
<time>2010-10-23T17:35:44.62</time>
<name>3241</name>
</trkpt>
<trkpt lat="48.942097" lon="8.659812">
<ele>301.0</ele>
<speed>1.17</speed>
<course>357.8</course>
<desc>Speed 4.2 km/h Distance 5.38 km</desc>
<time>2010-10-23T17:35:45.62</time>
<name>3242</name>
</trkpt>
<trkpt lat="48.942108" lon="8.659810">
<ele>301.0</ele>
<speed>0.95</speed>
<course>3.9</course>
<desc>Speed 3.4 km/h Distance 5.38 km</desc>
<time>2010-10-23T17:35:46.62</time>
<name>3243</name>
</trkpt>
<trkpt lat="48.942122" lon="8.659812">
<ele>302.5</ele>
<speed>0.73</speed>
<course>167.4</course>
<desc>Speed 2.6 km/h Distance 5.38 km</desc>
<time>2010-10-23T17:35:48.62</time>
<name>3244</name>
</trkpt>
<trkpt lat="48.942118" lon="8.659812">
<ele>301.5</ele>
<speed>0.49</speed>
<course>154.6</course>
<desc>Speed 1.8 km/h Distance 5.38 km</desc>
<time>2010-10-23T17:35:49.62</time>
<name>3245</name>
</trkpt>
<trkpt lat="48.942113" lon="8.659815">
<ele>300.0</ele>
<speed>0.61</speed>
<course>12.6</course>
<desc>Speed 2.2 km/h Distance 5.38 km</desc>
<time>2010-10-23T17:35:50.62</time>
<name>3246</name>
</trkpt>
<trkpt lat="48.942118" lon="8.659817">
<ele>300.0</ele>
<speed>0.51</speed>
<course>0.0</course>
<desc>Speed 1.8 km/h Distance 5.38 km</desc>
<time>2010-10-23T17:35:51.62</time>
<name>3247</name>
</trkpt>
<trkpt lat="48.942123" lon="8.659817">
<ele>299.5</ele>
<speed>0.43</speed>
<course>23.0</course>
<desc>Speed 1.5 km/h Distance 5.38 km</desc>
<time>2010-10-23T17:35:52.62</time>
<name>3248</name>
</trkpt>
<trkpt lat="48.942152" lon="8.659835">
<ele>299.0</ele>
<speed>0.81</speed>
<course>47.4</course>
<desc>Speed 2.9 km/h Distance 5.39 km</desc>
<time>2010-10-23T17:35:54.62</time>
<name>3249</name>
</trkpt>
<trkpt lat="48.942157" lon="8.659843">
<ele>299.0</ele>
<speed>0.80</speed>
<course>58.6</course>
<desc>Speed 2.9 km/h Distance 5.39 km</desc>
<time>2010-10-23T17:35:55.62</time>
<name>3250</name>
</trkpt>
<trkpt lat="48.942160" lon="8.659852">
<ele>300.0</ele>
<speed>0.67</speed>
<course>27.5</course>
<desc>Speed 2.4 km/h Distance 5.39 km</desc>
<time>2010-10-23T17:35:56.62</time>
<name>3251</name>
</trkpt>
<trkpt lat="48.942168" lon="8.659858">
<ele>300.5</ele>
<speed>0.91</speed>
<course>56.9</course>
<desc>Speed 3.3 km/h Distance 5.39 km</desc>
<time>2010-10-23T17:35:57.62</time>
<name>3252</name>
</trkpt>
<trkpt lat="48.942173" lon="8.659870">
<ele>300.5</ele>
<speed>0.82</speed>
<course>52.8</course>
<desc>Speed 3.0 km/h Distance 5.39 km</desc>
<time>2010-10-23T17:35:58.62</time>
<name>3253</name>
</trkpt>
<trkpt lat="48.942178" lon="8.659880">
<ele>301.0</ele>
<speed>0.82</speed>
<course>33.7</course>
<desc>Speed 3.0 km/h Distance 5.39 km</desc>
<time>2010-10-23T17:35:59.62</time>
<name>3254</name>
</trkpt>
<trkpt lat="48.942185" lon="8.659887">
<ele>301.0</ele>
<speed>0.69</speed>
<course>44.5</course>
<desc>Speed 2.5 km/h Distance 5.39 km</desc>
<time>2010-10-23T17:36:00.62</time>
<name>3255</name>
</trkpt>
<trkpt lat="48.942192" lon="8.659897">
<ele>301.0</ele>
<speed>0.85</speed>
<course>33.2</course>
<desc>Speed 3.1 km/h Distance 5.39 km</desc>
<time>2010-10-23T17:36:01.62</time>
<name>3256</name>
</trkpt>
<trkpt lat="48.942198" lon="8.659903">
<ele>300.0</ele>
<speed>0.79</speed>
<course>40.9</course>
<desc>Speed 2.8 km/h Distance 5.40 km</desc>
<time>2010-10-23T17:36:02.62</time>
<name>3257</name>
</trkpt>
<trkpt lat="48.942203" lon="8.659910">
<ele>299.5</ele>
<speed>0.66</speed>
<course>47.4</course>
<desc>Speed 2.4 km/h Distance 5.40 km</desc>
<time>2010-10-23T17:36:03.62</time>
<name>3258</name>
</trkpt>
<trkpt lat="48.942208" lon="8.659918">
<ele>298.5</ele>
<speed>0.74</speed>
<course>90.0</course>
<desc>Speed 2.7 km/h Distance 5.40 km</desc>
<time>2010-10-23T17:36:04.62</time>
<name>3259</name>
</trkpt>
<trkpt lat="48.942208" lon="8.659927">
<ele>297.5</ele>
<speed>0.67</speed>
<course>44.7</course>
<desc>Speed 2.4 km/h Distance 5.40 km</desc>
<time>2010-10-23T17:36:05.62</time>
<name>3260</name>
</trkpt>
<trkpt lat="48.942218" lon="8.659942">
<ele>298.5</ele>
<speed>1.27</speed>
<course>63.0</course>
<desc>Speed 4.6 km/h Distance 5.40 km</desc>
<time>2010-10-23T17:36:06.62</time>
<name>3261</name>
</trkpt>
<trkpt lat="48.942222" lon="8.659952">
<ele>299.0</ele>
<speed>0.81</speed>
<course>52.6</course>
<desc>Speed 2.9 km/h Distance 5.40 km</desc>
<time>2010-10-23T17:36:07.62</time>
<name>3262</name>
</trkpt>
<trkpt lat="48.942227" lon="8.659962">
<ele>299.0</ele>
<speed>0.82</speed>
<course>69.1</course>
<desc>Speed 3.0 km/h Distance 5.40 km</desc>
<time>2010-10-23T17:36:08.62</time>
<name>3263</name>
</trkpt>
<trkpt lat="48.942228" lon="8.659968">
<ele>297.5</ele>
<speed>0.54</speed>
<course>60.3</course>
<desc>Speed 1.9 km/h Distance 5.40 km</desc>
<time>2010-10-23T17:36:09.62</time>
<name>3264</name>
</trkpt>
<trkpt lat="48.942233" lon="8.659982">
<ele>297.0</ele>
<speed>1.11</speed>
<course>42.6</course>
<desc>Speed 4.0 km/h Distance 5.40 km</desc>
<time>2010-10-23T17:36:10.62</time>
<name>3265</name>
</trkpt>
<trkpt lat="48.942242" lon="8.659993">
<ele>297.5</ele>
<speed>1.03</speed>
<course>33.2</course>
<desc>Speed 3.7 km/h Distance 5.40 km</desc>
<time>2010-10-23T17:36:11.62</time>
<name>3266</name>
</trkpt>
<trkpt lat="48.942250" lon="8.660002">
<ele>297.0</ele>
<speed>0.97</speed>
<course>2.2</course>
<desc>Speed 3.5 km/h Distance 5.40 km</desc>
<time>2010-10-23T17:36:12.62</time>
<name>3267</name>
</trkpt>
<trkpt lat="48.942272" lon="8.660003">
<ele>296.5</ele>
<speed>1.95</speed>
<course>20.2</course>
<desc>Speed 7.0 km/h Distance 5.41 km</desc>
<time>2010-10-23T17:36:13.62</time>
<name>3268</name>
</trkpt>
<trkpt lat="48.942283" lon="8.660010">
<ele>296.0</ele>
<speed>1.19</speed>
<course>33.1</course>
<desc>Speed 4.3 km/h Distance 5.41 km</desc>
<time>2010-10-23T17:36:14.62</time>
<name>3269</name>
</trkpt>
<trkpt lat="48.942295" lon="8.660022">
<ele>296.0</ele>
<speed>1.30</speed>
<course>26.4</course>
<desc>Speed 4.7 km/h Distance 5.41 km</desc>
<time>2010-10-23T17:36:15.62</time>
<name>3270</name>
</trkpt>
<trkpt lat="48.942302" lon="8.660027">
<ele>296.5</ele>
<speed>0.69</speed>
<course>12.6</course>
<desc>Speed 2.5 km/h Distance 5.41 km</desc>
<time>2010-10-23T17:36:16.62</time>
<name>3271</name>
</trkpt>
<trkpt lat="48.942317" lon="8.660032">
<ele>295.5</ele>
<speed>1.59</speed>
<course>23.7</course>
<desc>Speed 5.7 km/h Distance 5.41 km</desc>
<time>2010-10-23T17:36:17.62</time>
<name>3272</name>
</trkpt>
<trkpt lat="48.942332" lon="8.660042">
<ele>295.0</ele>
<speed>1.34</speed>
<course>69.2</course>
<desc>Speed 4.8 km/h Distance 5.41 km</desc>
<time>2010-10-23T17:36:18.62</time>
<name>3273</name>
</trkpt>
<trkpt lat="48.942335" lon="8.660055">
<ele>294.5</ele>
<speed>0.89</speed>
<course>102.3</course>
<desc>Speed 3.2 km/h Distance 5.42 km</desc>
<time>2010-10-23T17:36:19.62</time>
<name>3274</name>
</trkpt>
<trkpt lat="48.942333" lon="8.660067">
<ele>294.5</ele>
<speed>0.91</speed>
<course>102.3</course>
<desc>Speed 3.3 km/h Distance 5.42 km</desc>
<time>2010-10-23T17:36:20.62</time>
<name>3275</name>
</trkpt>
<trkpt lat="48.942332" lon="8.660078">
<ele>294.5</ele>
<speed>0.99</speed>
<course>47.1</course>
<desc>Speed 3.6 km/h Distance 5.42 km</desc>
<time>2010-10-23T17:36:21.62</time>
<name>3276</name>
</trkpt>
<trkpt lat="48.942337" lon="8.660087">
<ele>294.5</ele>
<speed>0.72</speed>
<course>52.6</course>
<desc>Speed 2.6 km/h Distance 5.42 km</desc>
<time>2010-10-23T17:36:22.62</time>
<name>3277</name>
</trkpt>
<trkpt lat="48.942342" lon="8.660097">
<ele>294.5</ele>
<speed>0.93</speed>
<course>39.4</course>
<desc>Speed 3.3 km/h Distance 5.42 km</desc>
<time>2010-10-23T17:36:23.62</time>
<name>3278</name>
</trkpt>
<trkpt lat="48.942348" lon="8.660105">
<ele>294.5</ele>
<speed>1.01</speed>
<course>33.2</course>
<desc>Speed 3.6 km/h Distance 5.42 km</desc>
<time>2010-10-23T17:36:24.62</time>
<name>3279</name>
</trkpt>
<trkpt lat="48.942355" lon="8.660112">
<ele>294.0</ele>
<speed>0.98</speed>
<course>90.0</course>
<desc>Speed 3.5 km/h Distance 5.42 km</desc>
<time>2010-10-23T17:36:25.62</time>
<name>3280</name>
</trkpt>
<trkpt lat="48.942355" lon="8.660120">
<ele>294.0</ele>
<speed>0.56</speed>
<course>7.7</course>
<desc>Speed 2.0 km/h Distance 5.42 km</desc>
<time>2010-10-23T17:36:26.62</time>
<name>3281</name>
</trkpt>
<trkpt lat="48.942363" lon="8.660122">
<ele>293.5</ele>
<speed>0.74</speed>
<course>192.6</course>
<desc>Speed 2.7 km/h Distance 5.42 km</desc>
<time>2010-10-23T17:36:27.62</time>
<name>3282</name>
</trkpt>
<trkpt lat="48.942357" lon="8.660120">
<ele>293.5</ele>
<speed>0.81</speed>
<course>49.1</course>
<desc>Speed 2.9 km/h Distance 5.42 km</desc>
<time>2010-10-23T17:36:28.62</time>
<name>3283</name>
</trkpt>
<trkpt lat="48.942363" lon="8.660132">
<ele>294.5</ele>
<speed>1.08</speed>
<course>23.7</course>
<desc>Speed 3.9 km/h Distance 5.42 km</desc>
<time>2010-10-23T17:36:29.62</time>
<name>3284</name>
</trkpt>
<trkpt lat="48.942388" lon="8.660148">
<ele>294.5</ele>
<speed>2.80</speed>
<course>23.1</course>
<desc>Speed 10.1 km/h Distance 5.43 km</desc>
<time>2010-10-23T17:36:30.62</time>
<name>3285</name>
</trkpt>
<trkpt lat="48.942427" lon="8.660173">
<ele>294.0</ele>
<speed>3.02</speed>
<course>159.1</course>
<desc>Speed 10.9 km/h Distance 5.43 km</desc>
<time>2010-10-23T17:36:32.62</time>
<name>3286</name>
</trkpt>
<trkpt lat="48.942415" lon="8.660180">
<ele>293.0</ele>
<speed>1.72</speed>
<course>58.6</course>
<desc>Speed 6.2 km/h Distance 5.43 km</desc>
<time>2010-10-23T17:36:33.62</time>
<name>3287</name>
</trkpt>
<trkpt lat="48.942418" lon="8.660188">
<ele>293.5</ele>
<speed>0.54</speed>
<course>47.8</course>
<desc>Speed 1.9 km/h Distance 5.43 km</desc>
<time>2010-10-23T17:36:34.62</time>
<name>3288</name>
</trkpt>
<trkpt lat="48.942423" lon="8.660197">
<ele>293.5</ele>
<speed>0.79</speed>
<course>33.2</course>
<desc>Speed 2.8 km/h Distance 5.43 km</desc>
<time>2010-10-23T17:36:35.62</time>
<name>3289</name>
</trkpt>
<trkpt lat="48.942432" lon="8.660205">
<ele>294.5</ele>
<speed>0.98</speed>
<course>18.2</course>
<desc>Speed 3.5 km/h Distance 5.44 km</desc>
<time>2010-10-23T17:36:36.62</time>
<name>3290</name>
</trkpt>
<trkpt lat="48.942442" lon="8.660210">
<ele>294.5</ele>
<speed>0.89</speed>
<course>26.4</course>
<desc>Speed 3.2 km/h Distance 5.44 km</desc>
<time>2010-10-23T17:36:37.62</time>
<name>3291</name>
</trkpt>
<trkpt lat="48.942448" lon="8.660215">
<ele>294.0</ele>
<speed>0.61</speed>
<course>38.1</course>
<desc>Speed 2.2 km/h Distance 5.44 km</desc>
<time>2010-10-23T17:36:38.62</time>
<name>3292</name>
</trkpt>
<trkpt lat="48.942457" lon="8.660225">
<ele>293.0</ele>
<speed>0.68</speed>
<course>32.3</course>
<desc>Speed 2.4 km/h Distance 5.44 km</desc>
<time>2010-10-23T17:36:39.62</time>
<name>3293</name>
</trkpt>
<trkpt lat="48.942462" lon="8.660230">
<ele>293.0</ele>
<speed>0.57</speed>
<course>39.7</course>
<desc>Speed 2.1 km/h Distance 5.44 km</desc>
<time>2010-10-23T17:36:40.62</time>
<name>3294</name>
</trkpt>
<trkpt lat="48.942468" lon="8.660238">
<ele>293.5</ele>
<speed>0.73</speed>
<course>20.3</course>
<desc>Speed 2.6 km/h Distance 5.44 km</desc>
<time>2010-10-23T17:36:41.62</time>
<name>3295</name>
</trkpt>
<trkpt lat="48.942483" lon="8.660247">
<ele>294.5</ele>
<speed>1.25</speed>
<course>39.4</course>
<desc>Speed 4.5 km/h Distance 5.44 km</desc>
<time>2010-10-23T17:36:42.62</time>
<name>3296</name>
</trkpt>
<trkpt lat="48.942490" lon="8.660255">
<ele>295.0</ele>
<speed>0.67</speed>
<course>33.2</course>
<desc>Speed 2.4 km/h Distance 5.44 km</desc>
<time>2010-10-23T17:36:43.62</time>
<name>3297</name>
</trkpt>
<trkpt lat="48.942498" lon="8.660263">
<ele>294.5</ele>
<speed>0.63</speed>
<course>33.7</course>
<desc>Speed 2.3 km/h Distance 5.44 km</desc>
<time>2010-10-23T17:36:44.62</time>
<name>3298</name>
</trkpt>
<trkpt lat="48.942505" lon="8.660270">
<ele>294.0</ele>
<speed>0.63</speed>
<course>55.9</course>
<desc>Speed 2.3 km/h Distance 5.45 km</desc>
<time>2010-10-23T17:36:45.62</time>
<name>3299</name>
</trkpt>
<trkpt lat="48.942512" lon="8.660285">
<ele>295.5</ele>
<speed>1.15</speed>
<course>20.2</course>
<desc>Speed 4.1 km/h Distance 5.45 km</desc>
<time>2010-10-23T17:36:46.62</time>
<name>3300</name>
</trkpt>
<trkpt lat="48.942523" lon="8.660292">
<ele>295.5</ele>
<speed>0.68</speed>
<course>60.2</course>
<desc>Speed 2.4 km/h Distance 5.45 km</desc>
<time>2010-10-23T17:36:47.62</time>
<name>3301</name>
</trkpt>
<trkpt lat="48.942528" lon="8.660305">
<ele>295.0</ele>
<speed>0.89</speed>
<course>49.7</course>
<desc>Speed 3.2 km/h Distance 5.45 km</desc>
<time>2010-10-23T17:36:48.62</time>
<name>3302</name>
</trkpt>
<trkpt lat="48.942537" lon="8.660320">
<ele>295.5</ele>
<speed>1.26</speed>
<course>52.6</course>
<desc>Speed 4.5 km/h Distance 5.45 km</desc>
<time>2010-10-23T17:36:49.62</time>
<name>3303</name>
</trkpt>
<trkpt lat="48.942542" lon="8.660330">
<ele>296.0</ele>
<speed>0.67</speed>
<course>14.9</course>
<desc>Speed 2.4 km/h Distance 5.45 km</desc>
<time>2010-10-23T17:36:50.62</time>
<name>3304</name>
</trkpt>
<trkpt lat="48.942553" lon="8.660335">
<ele>296.5</ele>
<speed>0.77</speed>
<course>42.6</course>
<desc>Speed 2.8 km/h Distance 5.45 km</desc>
<time>2010-10-23T17:36:51.62</time>
<name>3305</name>
</trkpt>
<trkpt lat="48.942562" lon="8.660347">
<ele>297.5</ele>
<speed>0.69</speed>
<course>49.1</course>
<desc>Speed 2.5 km/h Distance 5.45 km</desc>
<time>2010-10-23T17:36:52.62</time>
<name>3306</name>
</trkpt>
<trkpt lat="48.942568" lon="8.660358">
<ele>297.0</ele>
<speed>0.93</speed>
<course>52.7</course>
<desc>Speed 3.3 km/h Distance 5.46 km</desc>
<time>2010-10-23T17:36:53.62</time>
<name>3307</name>
</trkpt>
<trkpt lat="48.942575" lon="8.660372">
<ele>297.5</ele>
<speed>0.97</speed>
<course>69.1</course>
<desc>Speed 3.5 km/h Distance 5.46 km</desc>
<time>2010-10-23T17:36:54.62</time>
<name>3308</name>
</trkpt>
<trkpt lat="48.942578" lon="8.660385">
<ele>298.0</ele>
<speed>1.07</speed>
<course>17.4</course>
<desc>Speed 3.9 km/h Distance 5.46 km</desc>
<time>2010-10-23T17:36:55.62</time>
<name>3309</name>
</trkpt>
<trkpt lat="48.942613" lon="8.660402">
<ele>298.5</ele>
<speed>0.95</speed>
<course>58.6</course>
<desc>Speed 3.4 km/h Distance 5.46 km</desc>
<time>2010-10-23T17:36:57.62</time>
<name>3310</name>
</trkpt>
<trkpt lat="48.942617" lon="8.660410">
<ele>298.0</ele>
<speed>0.75</speed>
<course>44.5</course>
<desc>Speed 2.7 km/h Distance 5.46 km</desc>
<time>2010-10-23T17:36:58.62</time>
<name>3311</name>
</trkpt>
<trkpt lat="48.942623" lon="8.660420">
<ele>298.0</ele>
<speed>0.86</speed>
<course>58.9</course>
<desc>Speed 3.1 km/h Distance 5.46 km</desc>
<time>2010-10-23T17:36:59.62</time>
<name>3312</name>
</trkpt>
<trkpt lat="48.942627" lon="8.660428">
<ele>297.5</ele>
<speed>0.62</speed>
<course>41.4</course>
<desc>Speed 2.2 km/h Distance 5.46 km</desc>
<time>2010-10-23T17:37:00.62</time>
<name>3313</name>
</trkpt>
<trkpt lat="48.942632" lon="8.660435">
<ele>297.0</ele>
<speed>0.56</speed>
<course>39.7</course>
<desc>Speed 2.0 km/h Distance 5.47 km</desc>
<time>2010-10-23T17:37:01.62</time>
<name>3314</name>
</trkpt>
<trkpt lat="48.942638" lon="8.660443">
<ele>297.0</ele>
<speed>0.62</speed>
<course>33.2</course>
<desc>Speed 2.2 km/h Distance 5.47 km</desc>
<time>2010-10-23T17:37:02.62</time>
<name>3315</name>
</trkpt>
<trkpt lat="48.942648" lon="8.660453">
<ele>297.0</ele>
<speed>0.75</speed>
<course>16.6</course>
<desc>Speed 2.7 km/h Distance 5.47 km</desc>
<time>2010-10-23T17:37:03.62</time>
<name>3316</name>
</trkpt>
<trkpt lat="48.942667" lon="8.660462">
<ele>299.5</ele>
<speed>0.81</speed>
<course>60.3</course>
<desc>Speed 2.9 km/h Distance 5.47 km</desc>
<time>2010-10-23T17:37:04.62</time>
<name>3317</name>
</trkpt>
<trkpt lat="48.942672" lon="8.660475">
<ele>300.5</ele>
<speed>0.79</speed>
<course>41.3</course>
<desc>Speed 2.8 km/h Distance 5.47 km</desc>
<time>2010-10-23T17:37:05.62</time>
<name>3318</name>
</trkpt>
<trkpt lat="48.942682" lon="8.660488">
<ele>301.0</ele>
<speed>1.22</speed>
<course>52.7</course>
<desc>Speed 4.4 km/h Distance 5.47 km</desc>
<time>2010-10-23T17:37:06.62</time>
<name>3319</name>
</trkpt>
<trkpt lat="48.942688" lon="8.660502">
<ele>300.5</ele>
<speed>0.94</speed>
<course>90.0</course>
<desc>Speed 3.4 km/h Distance 5.47 km</desc>
<time>2010-10-23T17:37:07.62</time>
<name>3320</name>
</trkpt>
<trkpt lat="48.942688" lon="8.660515">
<ele>300.0</ele>
<speed>1.08</speed>
<course>2.6</course>
<desc>Speed 3.9 km/h Distance 5.47 km</desc>
<time>2010-10-23T17:37:08.62</time>
<name>3321</name>
</trkpt>
<trkpt lat="48.942808" lon="8.660523">
<ele>295.5</ele>
<speed>1.55</speed>
<course>18.9</course>
<desc>Speed 5.6 km/h Distance 5.49 km</desc>
<time>2010-10-23T17:37:14.62</time>
<name>3322</name>
</trkpt>
<trkpt lat="48.942850" lon="8.660545">
<ele>295.0</ele>
<speed>1.02</speed>
<course>14.8</course>
<desc>Speed 3.7 km/h Distance 5.49 km</desc>
<time>2010-10-23T17:37:16.62</time>
<name>3323</name>
</trkpt>
<trkpt lat="48.942883" lon="8.660558">
<ele>294.5</ele>
<speed>0.62</speed>
<course>24.7</course>
<desc>Speed 2.2 km/h Distance 5.50 km</desc>
<time>2010-10-23T17:37:18.62</time>
<name>3324</name>
</trkpt>
<trkpt lat="48.942900" lon="8.660570">
<ele>296.5</ele>
<speed>0.91</speed>
<course>28.8</course>
<desc>Speed 3.3 km/h Distance 5.50 km</desc>
<time>2010-10-23T17:37:19.62</time>
<name>3325</name>
</trkpt>
<trkpt lat="48.942920" lon="8.660587">
<ele>299.5</ele>
<speed>1.21</speed>
<course>69.1</course>
<desc>Speed 4.4 km/h Distance 5.50 km</desc>
<time>2010-10-23T17:37:20.62</time>
<name>3326</name>
</trkpt>
<trkpt lat="48.942923" lon="8.660600">
<ele>300.0</ele>
<speed>0.94</speed>
<course>66.5</course>
<desc>Speed 3.4 km/h Distance 5.50 km</desc>
<time>2010-10-23T17:37:21.62</time>
<name>3327</name>
</trkpt>
<trkpt lat="48.942927" lon="8.660612">
<ele>299.5</ele>
<speed>0.77</speed>
<course>47.6</course>
<desc>Speed 2.8 km/h Distance 5.50 km</desc>
<time>2010-10-23T17:37:22.62</time>
<name>3328</name>
</trkpt>
<trkpt lat="48.942937" lon="8.660628">
<ele>300.5</ele>
<speed>1.10</speed>
<course>10.0</course>
<desc>Speed 4.0 km/h Distance 5.50 km</desc>
<time>2010-10-23T17:37:23.62</time>
<name>3329</name>
</trkpt>
<trkpt lat="48.943005" lon="8.660647">
<ele>306.0</ele>
<speed>1.14</speed>
<course>18.3</course>
<desc>Speed 4.1 km/h Distance 5.51 km</desc>
<time>2010-10-23T17:37:25.62</time>
<name>3330</name>
</trkpt>
<trkpt lat="48.943032" lon="8.660660">
<ele>309.0</ele>
<speed>1.19</speed>
<course>40.5</course>
<desc>Speed 4.3 km/h Distance 5.52 km</desc>
<time>2010-10-23T17:37:26.62</time>
<name>3331</name>
</trkpt>
<trkpt lat="48.943048" lon="8.660682">
<ele>310.0</ele>
<speed>1.02</speed>
<course>40.2</course>
<desc>Speed 3.7 km/h Distance 5.52 km</desc>
<time>2010-10-23T17:37:27.62</time>
<name>3332</name>
</trkpt>
<trkpt lat="48.943060" lon="8.660697">
<ele>309.0</ele>
<speed>1.11</speed>
<course>20.6</course>
<desc>Speed 4.0 km/h Distance 5.52 km</desc>
<time>2010-10-23T17:37:28.62</time>
<name>3333</name>
</trkpt>
<trkpt lat="48.943083" lon="8.660710">
<ele>310.0</ele>
<speed>1.88</speed>
<course>46.9</course>
<desc>Speed 6.8 km/h Distance 5.52 km</desc>
<time>2010-10-23T17:37:29.62</time>
<name>3334</name>
</trkpt>
<trkpt lat="48.943097" lon="8.660732">
<ele>310.0</ele>
<speed>1.08</speed>
<course>44.5</course>
<desc>Speed 3.9 km/h Distance 5.52 km</desc>
<time>2010-10-23T17:37:30.62</time>
<name>3335</name>
</trkpt>
<trkpt lat="48.943113" lon="8.660757">
<ele>311.5</ele>
<speed>1.25</speed>
<course>41.2</course>
<desc>Speed 4.5 km/h Distance 5.53 km</desc>
<time>2010-10-23T17:37:31.62</time>
<name>3336</name>
</trkpt>
<trkpt lat="48.943128" lon="8.660777">
<ele>313.0</ele>
<speed>1.37</speed>
<course>30.3</course>
<desc>Speed 4.9 km/h Distance 5.53 km</desc>
<time>2010-10-23T17:37:32.62</time>
<name>3337</name>
</trkpt>
<trkpt lat="48.943143" lon="8.660790">
<ele>313.0</ele>
<speed>0.87</speed>
<course>55.9</course>
<desc>Speed 3.1 km/h Distance 5.53 km</desc>
<time>2010-10-23T17:37:33.62</time>
<name>3338</name>
</trkpt>
<trkpt lat="48.943150" lon="8.660805">
<ele>312.0</ele>
<speed>0.80</speed>
<course>90.0</course>
<desc>Speed 2.9 km/h Distance 5.53 km</desc>
<time>2010-10-23T17:37:34.62</time>
<name>3339</name>
</trkpt>
<trkpt lat="48.943150" lon="8.660822">
<ele>311.5</ele>
<speed>1.08</speed>
<course>46.4</course>
<desc>Speed 3.9 km/h Distance 5.53 km</desc>
<time>2010-10-23T17:37:35.62</time>
<name>3340</name>
</trkpt>
<trkpt lat="48.943158" lon="8.660835">
<ele>312.0</ele>
<speed>0.75</speed>
<course>80.4</course>
<desc>Speed 2.7 km/h Distance 5.54 km</desc>
<time>2010-10-23T17:37:36.62</time>
<name>3341</name>
</trkpt>
<trkpt lat="48.943160" lon="8.660850">
<ele>311.5</ele>
<speed>1.00</speed>
<course>16.1</course>
<desc>Speed 3.6 km/h Distance 5.54 km</desc>
<time>2010-10-23T17:37:37.62</time>
<name>3342</name>
</trkpt>
<trkpt lat="48.943202" lon="8.660868">
<ele>313.0</ele>
<speed>1.04</speed>
<course>21.0</course>
<desc>Speed 3.7 km/h Distance 5.54 km</desc>
<time>2010-10-23T17:37:39.62</time>
<name>3343</name>
</trkpt>
<trkpt lat="48.943222" lon="8.660880">
<ele>315.5</ele>
<speed>1.02</speed>
<course>42.6</course>
<desc>Speed 3.7 km/h Distance 5.54 km</desc>
<time>2010-10-23T17:37:40.62</time>
<name>3344</name>
</trkpt>
<trkpt lat="48.943230" lon="8.660892">
<ele>316.0</ele>
<speed>1.14</speed>
<course>22.7</course>
<desc>Speed 4.1 km/h Distance 5.54 km</desc>
<time>2010-10-23T17:37:41.62</time>
<name>3345</name>
</trkpt>
<trkpt lat="48.943248" lon="8.660903">
<ele>318.0</ele>
<speed>1.32</speed>
<course>38.1</course>
<desc>Speed 4.8 km/h Distance 5.55 km</desc>
<time>2010-10-23T17:37:42.62</time>
<name>3346</name>
</trkpt>
<trkpt lat="48.943257" lon="8.660913">
<ele>318.0</ele>
<speed>1.16</speed>
<course>79.2</course>
<desc>Speed 4.2 km/h Distance 5.55 km</desc>
<time>2010-10-23T17:37:43.62</time>
<name>3347</name>
</trkpt>
<trkpt lat="48.943258" lon="8.660927">
<ele>317.0</ele>
<speed>0.83</speed>
<course>80.4</course>
<desc>Speed 3.0 km/h Distance 5.55 km</desc>
<time>2010-10-23T17:37:44.62</time>
<name>3348</name>
</trkpt>
<trkpt lat="48.943260" lon="8.660942">
<ele>317.0</ele>
<speed>1.01</speed>
<course>49.8</course>
<desc>Speed 3.6 km/h Distance 5.55 km</desc>
<time>2010-10-23T17:37:45.62</time>
<name>3349</name>
</trkpt>
<trkpt lat="48.943268" lon="8.660957">
<ele>317.0</ele>
<speed>1.19</speed>
<course>71.4</course>
<desc>Speed 4.3 km/h Distance 5.55 km</desc>
<time>2010-10-23T17:37:46.62</time>
<name>3350</name>
</trkpt>
<trkpt lat="48.943272" lon="8.660972">
<ele>316.0</ele>
<speed>0.75</speed>
<course>66.5</course>
<desc>Speed 2.7 km/h Distance 5.55 km</desc>
<time>2010-10-23T17:37:47.62</time>
<name>3351</name>
</trkpt>
<trkpt lat="48.943275" lon="8.660983">
<ele>316.0</ele>
<speed>0.91</speed>
<course>66.5</course>
<desc>Speed 3.3 km/h Distance 5.55 km</desc>
<time>2010-10-23T17:37:48.62</time>
<name>3352</name>
</trkpt>
<trkpt lat="48.943278" lon="8.660995">
<ele>316.0</ele>
<speed>0.91</speed>
<course>66.5</course>
<desc>Speed 3.3 km/h Distance 5.55 km</desc>
<time>2010-10-23T17:37:49.62</time>
<name>3353</name>
</trkpt>
<trkpt lat="48.943282" lon="8.661007">
<ele>315.5</ele>
<speed>0.72</speed>
<course>12.9</course>
<desc>Speed 2.6 km/h Distance 5.56 km</desc>
<time>2010-10-23T17:37:50.62</time>
<name>3354</name>
</trkpt>
<trkpt lat="48.943320" lon="8.661020">
<ele>318.5</ele>
<speed>0.46</speed>
<course>20.7</course>
<desc>Speed 1.7 km/h Distance 5.56 km</desc>
<time>2010-10-23T17:37:52.62</time>
<name>3355</name>
</trkpt>
<trkpt lat="48.943343" lon="8.661033">
<ele>317.0</ele>
<speed>0.97</speed>
<course>19.4</course>
<desc>Speed 3.5 km/h Distance 5.56 km</desc>
<time>2010-10-23T17:37:54.62</time>
<name>3356</name>
</trkpt>
<trkpt lat="48.943365" lon="8.661045">
<ele>319.5</ele>
<speed>0.97</speed>
<course>22.9</course>
<desc>Speed 3.5 km/h Distance 5.57 km</desc>
<time>2010-10-23T17:37:55.62</time>
<name>3357</name>
</trkpt>
<trkpt lat="48.943388" lon="8.661060">
<ele>322.5</ele>
<speed>1.51</speed>
<course>28.7</course>
<desc>Speed 5.4 km/h Distance 5.57 km</desc>
<time>2010-10-23T17:37:56.62</time>
<name>3358</name>
</trkpt>
<trkpt lat="48.943408" lon="8.661077">
<ele>325.5</ele>
<speed>1.08</speed>
<course>34.5</course>
<desc>Speed 3.9 km/h Distance 5.57 km</desc>
<time>2010-10-23T17:37:57.62</time>
<name>3359</name>
</trkpt>
<trkpt lat="48.943445" lon="8.661115">
<ele>328.5</ele>
<speed>1.05</speed>
<course>35.7</course>
<desc>Speed 3.8 km/h Distance 5.58 km</desc>
<time>2010-10-23T17:37:59.62</time>
<name>3360</name>
</trkpt>
<trkpt lat="48.943463" lon="8.661135">
<ele>329.0</ele>
<speed>1.19</speed>
<course>47.8</course>
<desc>Speed 4.3 km/h Distance 5.58 km</desc>
<time>2010-10-23T17:38:00.62</time>
<name>3361</name>
</trkpt>
<trkpt lat="48.943468" lon="8.661143">
<ele>328.0</ele>
<speed>0.95</speed>
<course>90.0</course>
<desc>Speed 3.4 km/h Distance 5.58 km</desc>
<time>2010-10-23T17:38:01.62</time>
<name>3362</name>
</trkpt>
<trkpt lat="48.943468" lon="8.661153">
<ele>326.0</ele>
<speed>0.56</speed>
<course>63.1</course>
<desc>Speed 2.0 km/h Distance 5.58 km</desc>
<time>2010-10-23T17:38:02.62</time>
<name>3363</name>
</trkpt>
<trkpt lat="48.943473" lon="8.661168">
<ele>325.0</ele>
<speed>0.68</speed>
<course>26.0</course>
<desc>Speed 2.4 km/h Distance 5.58 km</desc>
<time>2010-10-23T17:38:03.62</time>
<name>3364</name>
</trkpt>
<trkpt lat="48.943487" lon="8.661178">
<ele>326.0</ele>
<speed>1.12</speed>
<course>33.2</course>
<desc>Speed 4.0 km/h Distance 5.58 km</desc>
<time>2010-10-23T17:38:04.62</time>
<name>3365</name>
</trkpt>
<trkpt lat="48.943500" lon="8.661192">
<ele>327.5</ele>
<speed>1.11</speed>
<course>33.1</course>
<desc>Speed 4.0 km/h Distance 5.58 km</desc>
<time>2010-10-23T17:38:05.62</time>
<name>3366</name>
</trkpt>
<trkpt lat="48.943512" lon="8.661203">
<ele>329.0</ele>
<speed>0.87</speed>
<course>33.2</course>
<desc>Speed 3.1 km/h Distance 5.59 km</desc>
<time>2010-10-23T17:38:06.62</time>
<name>3367</name>
</trkpt>
<trkpt lat="48.943520" lon="8.661212">
<ele>329.0</ele>
<speed>0.64</speed>
<course>100.7</course>
<desc>Speed 2.3 km/h Distance 5.59 km</desc>
<time>2010-10-23T17:38:07.62</time>
<name>3368</name>
</trkpt>
<trkpt lat="48.943518" lon="8.661225">
<ele>327.5</ele>
<speed>0.88</speed>
<course>90.0</course>
<desc>Speed 3.2 km/h Distance 5.59 km</desc>
<time>2010-10-23T17:38:08.62</time>
<name>3369</name>
</trkpt>
<trkpt lat="48.943518" lon="8.661238">
<ele>325.0</ele>
<speed>0.93</speed>
<course>33.4</course>
<desc>Speed 3.3 km/h Distance 5.59 km</desc>
<time>2010-10-23T17:38:09.62</time>
<name>3370</name>
</trkpt>
<trkpt lat="48.943532" lon="8.661252">
<ele>325.5</ele>
<speed>1.08</speed>
<course>49.1</course>
<desc>Speed 3.9 km/h Distance 5.59 km</desc>
<time>2010-10-23T17:38:10.62</time>
<name>3371</name>
</trkpt>
<trkpt lat="48.943538" lon="8.661263">
<ele>325.5</ele>
<speed>1.11</speed>
<course>77.7</course>
<desc>Speed 4.0 km/h Distance 5.59 km</desc>
<time>2010-10-23T17:38:11.62</time>
<name>3372</name>
</trkpt>
<trkpt lat="48.943540" lon="8.661275">
<ele>324.5</ele>
<speed>0.76</speed>
<course>90.0</course>
<desc>Speed 2.7 km/h Distance 5.59 km</desc>
<time>2010-10-23T17:38:12.62</time>
<name>3373</name>
</trkpt>
<trkpt lat="48.943540" lon="8.661283">
<ele>323.0</ele>
<speed>0.73</speed>
<course>90.0</course>
<desc>Speed 2.6 km/h Distance 5.59 km</desc>
<time>2010-10-23T17:38:13.62</time>
<name>3374</name>
</trkpt>
<trkpt lat="48.943540" lon="8.661290">
<ele>320.5</ele>
<speed>0.55</speed>
<course>99.6</course>
<desc>Speed 2.0 km/h Distance 5.59 km</desc>
<time>2010-10-23T17:38:14.62</time>
<name>3375</name>
</trkpt>
<trkpt lat="48.943538" lon="8.661305">
<ele>319.0</ele>
<speed>0.88</speed>
<course>80.4</course>
<desc>Speed 3.2 km/h Distance 5.59 km</desc>
<time>2010-10-23T17:38:15.62</time>
<name>3376</name>
</trkpt>
<trkpt lat="48.943540" lon="8.661320">
<ele>317.5</ele>
<speed>0.44</speed>
<course>75.8</course>
<desc>Speed 1.6 km/h Distance 5.60 km</desc>
<time>2010-10-23T17:38:16.62</time>
<name>3377</name>
</trkpt>
<trkpt lat="48.943543" lon="8.661340">
<ele>316.0</ele>
<speed>0.81</speed>
<course>49.7</course>
<desc>Speed 2.9 km/h Distance 5.60 km</desc>
<time>2010-10-23T17:38:17.62</time>
<name>3378</name>
</trkpt>
<trkpt lat="48.943552" lon="8.661355">
<ele>315.0</ele>
<speed>1.08</speed>
<course>46.4</course>
<desc>Speed 3.9 km/h Distance 5.60 km</desc>
<time>2010-10-23T17:38:18.62</time>
<name>3379</name>
</trkpt>
<trkpt lat="48.943560" lon="8.661368">
<ele>314.0</ele>
<speed>1.01</speed>
<course>33.3</course>
<desc>Speed 3.6 km/h Distance 5.60 km</desc>
<time>2010-10-23T17:38:19.62</time>
<name>3380</name>
</trkpt>
<trkpt lat="48.943575" lon="8.661383">
<ele>314.5</ele>
<speed>1.58</speed>
<course>28.8</course>
<desc>Speed 5.7 km/h Distance 5.60 km</desc>
<time>2010-10-23T17:38:20.62</time>
<name>3381</name>
</trkpt>
<trkpt lat="48.943595" lon="8.661400">
<ele>316.5</ele>
<speed>1.37</speed>
<course>44.6</course>
<desc>Speed 4.9 km/h Distance 5.60 km</desc>
<time>2010-10-23T17:38:21.62</time>
<name>3382</name>
</trkpt>
<trkpt lat="48.943605" lon="8.661415">
<ele>318.5</ele>
<speed>0.75</speed>
<course>52.8</course>
<desc>Speed 2.7 km/h Distance 5.61 km</desc>
<time>2010-10-23T17:38:22.62</time>
<name>3383</name>
</trkpt>
<trkpt lat="48.943610" lon="8.661425">
<ele>318.5</ele>
<speed>0.80</speed>
<course>63.0</course>
<desc>Speed 2.9 km/h Distance 5.61 km</desc>
<time>2010-10-23T17:38:23.62</time>
<name>3384</name>
</trkpt>
<trkpt lat="48.943613" lon="8.661435">
<ele>316.5</ele>
<speed>0.62</speed>
<course>49.1</course>
<desc>Speed 2.2 km/h Distance 5.61 km</desc>
<time>2010-10-23T17:38:24.62</time>
<name>3385</name>
</trkpt>
<trkpt lat="48.943620" lon="8.661447">
<ele>315.0</ele>
<speed>0.93</speed>
<course>83.8</course>
<desc>Speed 3.3 km/h Distance 5.61 km</desc>
<time>2010-10-23T17:38:25.62</time>
<name>3386</name>
</trkpt>
<trkpt lat="48.943622" lon="8.661470">
<ele>314.0</ele>
<speed>1.19</speed>
<course>90.0</course>
<desc>Speed 4.3 km/h Distance 5.61 km</desc>
<time>2010-10-23T17:38:26.62</time>
<name>3387</name>
</trkpt>
<trkpt lat="48.943622" lon="8.661480">
<ele>311.0</ele>
<speed>0.79</speed>
<course>18.1</course>
<desc>Speed 2.8 km/h Distance 5.61 km</desc>
<time>2010-10-23T17:38:27.62</time>
<name>3388</name>
</trkpt>
<trkpt lat="48.943655" lon="8.661497">
<ele>311.5</ele>
<speed>1.20</speed>
<course>38.1</course>
<desc>Speed 4.3 km/h Distance 5.62 km</desc>
<time>2010-10-23T17:38:29.62</time>
<name>3389</name>
</trkpt>
<trkpt lat="48.943663" lon="8.661507">
<ele>311.5</ele>
<speed>0.56</speed>
<course>66.5</course>
<desc>Speed 2.0 km/h Distance 5.62 km</desc>
<time>2010-10-23T17:38:30.62</time>
<name>3390</name>
</trkpt>
<trkpt lat="48.943667" lon="8.661518">
<ele>310.0</ele>
<speed>0.94</speed>
<course>90.0</course>
<desc>Speed 3.4 km/h Distance 5.62 km</desc>
<time>2010-10-23T17:38:31.62</time>
<name>3391</name>
</trkpt>
<trkpt lat="48.943667" lon="8.661532">
<ele>308.5</ele>
<speed>0.82</speed>
<course>105.4</course>
<desc>Speed 3.0 km/h Distance 5.62 km</desc>
<time>2010-10-23T17:38:32.62</time>
<name>3392</name>
</trkpt>
<trkpt lat="48.943663" lon="8.661550">
<ele>307.5</ele>
<speed>1.09</speed>
<course>96.2</course>
<desc>Speed 3.9 km/h Distance 5.62 km</desc>
<time>2010-10-23T17:38:33.62</time>
<name>3393</name>
</trkpt>
<trkpt lat="48.943662" lon="8.661573">
<ele>306.0</ele>
<speed>1.24</speed>
<course>55.3</course>
<desc>Speed 4.5 km/h Distance 5.62 km</desc>
<time>2010-10-23T17:38:34.62</time>
<name>3394</name>
</trkpt>
<trkpt lat="48.943670" lon="8.661592">
<ele>306.0</ele>
<speed>1.25</speed>
<course>63.1</course>
<desc>Speed 4.5 km/h Distance 5.62 km</desc>
<time>2010-10-23T17:38:35.62</time>
<name>3395</name>
</trkpt>
<trkpt lat="48.943677" lon="8.661612">
<ele>307.5</ele>
<speed>1.46</speed>
<course>105.5</course>
<desc>Speed 5.3 km/h Distance 5.63 km</desc>
<time>2010-10-23T17:38:36.62</time>
<name>3396</name>
</trkpt>
<trkpt lat="48.943673" lon="8.661630">
<ele>307.0</ele>
<speed>1.17</speed>
<course>110.8</course>
<desc>Speed 4.2 km/h Distance 5.63 km</desc>
<time>2010-10-23T17:38:37.62</time>
<name>3397</name>
</trkpt>
<trkpt lat="48.943668" lon="8.661650">
<ele>306.5</ele>
<speed>1.19</speed>
<course>60.3</course>
<desc>Speed 4.3 km/h Distance 5.63 km</desc>
<time>2010-10-23T17:38:38.62</time>
<name>3398</name>
</trkpt>
<trkpt lat="48.943673" lon="8.661663">
<ele>306.0</ele>
<speed>1.27</speed>
<course>19.4</course>
<desc>Speed 4.6 km/h Distance 5.63 km</desc>
<time>2010-10-23T17:38:39.62</time>
<name>3399</name>
</trkpt>
<trkpt lat="48.943698" lon="8.661677">
<ele>308.5</ele>
<speed>0.93</speed>
<course>104.4</course>
<desc>Speed 3.3 km/h Distance 5.63 km</desc>
<time>2010-10-23T17:38:40.62</time>
<name>3400</name>
</trkpt>
<trkpt lat="48.943697" lon="8.661687">
<ele>308.5</ele>
<speed>0.75</speed>
<course>42.6</course>
<desc>Speed 2.7 km/h Distance 5.63 km</desc>
<time>2010-10-23T17:38:41.62</time>
<name>3401</name>
</trkpt>
<trkpt lat="48.943705" lon="8.661698">
<ele>309.0</ele>
<speed>0.31</speed>
<course>80.4</course>
<desc>Speed 1.1 km/h Distance 5.63 km</desc>
<time>2010-10-23T17:38:43.62</time>
<name>3402</name>
</trkpt>
<trkpt lat="48.943707" lon="8.661713">
<ele>309.5</ele>
<speed>0.75</speed>
<course>104.4</course>
<desc>Speed 2.7 km/h Distance 5.64 km</desc>
<time>2010-10-23T17:38:44.62</time>
<name>3403</name>
</trkpt>
<trkpt lat="48.943705" lon="8.661723">
<ele>310.5</ele>
<speed>0.69</speed>
<course>75.6</course>
<desc>Speed 2.5 km/h Distance 5.64 km</desc>
<time>2010-10-23T17:38:45.62</time>
<name>3404</name>
</trkpt>
<trkpt lat="48.943707" lon="8.661733">
<ele>311.0</ele>
<speed>0.47</speed>
<course>69.2</course>
<desc>Speed 1.7 km/h Distance 5.64 km</desc>
<time>2010-10-23T17:38:46.62</time>
<name>3405</name>
</trkpt>
<trkpt lat="48.943710" lon="8.661747">
<ele>312.5</ele>
<speed>0.51</speed>
<course>38.8</course>
<desc>Speed 1.8 km/h Distance 5.64 km</desc>
<time>2010-10-23T17:38:47.62</time>
<name>3406</name>
</trkpt>
<trkpt lat="48.943725" lon="8.661765">
<ele>314.0</ele>
<speed>0.72</speed>
<course>106.9</course>
<desc>Speed 2.6 km/h Distance 5.64 km</desc>
<time>2010-10-23T17:38:49.62</time>
<name>3407</name>
</trkpt>
<trkpt lat="48.943723" lon="8.661773">
<ele>313.0</ele>
<speed>0.98</speed>
<course>110.9</course>
<desc>Speed 3.5 km/h Distance 5.64 km</desc>
<time>2010-10-23T17:38:50.62</time>
<name>3408</name>
</trkpt>
<trkpt lat="48.943722" lon="8.661780">
<ele>313.5</ele>
<speed>0.33</speed>
<course>100.8</course>
<desc>Speed 1.2 km/h Distance 5.64 km</desc>
<time>2010-10-23T17:38:51.62</time>
<name>3409</name>
</trkpt>
<trkpt lat="48.943720" lon="8.661793">
<ele>314.0</ele>
<speed>0.56</speed>
<course>48.4</course>
<desc>Speed 2.0 km/h Distance 5.64 km</desc>
<time>2010-10-23T17:38:52.62</time>
<name>3410</name>
</trkpt>
<trkpt lat="48.943732" lon="8.661813">
<ele>315.0</ele>
<speed>1.33</speed>
<course>90.0</course>
<desc>Speed 4.8 km/h Distance 5.64 km</desc>
<time>2010-10-23T17:38:53.62</time>
<name>3411</name>
</trkpt>
<trkpt lat="48.943732" lon="8.661828">
<ele>318.5</ele>
<speed>0.73</speed>
<course>76.8</course>
<desc>Speed 2.6 km/h Distance 5.65 km</desc>
<time>2010-10-23T17:38:54.62</time>
<name>3412</name>
</trkpt>
<trkpt lat="48.943735" lon="8.661850">
<ele>321.5</ele>
<speed>0.62</speed>
<course>139.8</course>
<desc>Speed 2.2 km/h Distance 5.65 km</desc>
<time>2010-10-23T17:38:55.62</time>
<name>3413</name>
</trkpt>
<trkpt lat="48.943723" lon="8.661865">
<ele>323.5</ele>
<speed>0.87</speed>
<course>138.7</course>
<desc>Speed 3.1 km/h Distance 5.65 km</desc>
<time>2010-10-23T17:38:56.62</time>
<name>3414</name>
</trkpt>
<trkpt lat="48.943713" lon="8.661878">
<ele>322.0</ele>
<speed>1.26</speed>
<course>154.8</course>
<desc>Speed 4.5 km/h Distance 5.65 km</desc>
<time>2010-10-23T17:38:57.62</time>
<name>3415</name>
</trkpt>
<trkpt lat="48.943702" lon="8.661887">
<ele>319.0</ele>
<speed>1.14</speed>
<course>90.0</course>
<desc>Speed 4.1 km/h Distance 5.65 km</desc>
<time>2010-10-23T17:38:58.62</time>
<name>3416</name>
</trkpt>
<trkpt lat="48.943702" lon="8.661895">
<ele>318.5</ele>
<speed>0.85</speed>
<course>106.9</course>
<desc>Speed 3.1 km/h Distance 5.65 km</desc>
<time>2010-10-23T17:38:59.62</time>
<name>3417</name>
</trkpt>
<trkpt lat="48.943700" lon="8.661903">
<ele>317.5</ele>
<speed>1.01</speed>
<course>69.1</course>
<desc>Speed 3.6 km/h Distance 5.65 km</desc>
<time>2010-10-23T17:39:00.62</time>
<name>3418</name>
</trkpt>
<trkpt lat="48.943702" lon="8.661910">
<ele>318.5</ele>
<speed>0.50</speed>
<course>121.4</course>
<desc>Speed 1.8 km/h Distance 5.65 km</desc>
<time>2010-10-23T17:39:01.62</time>
<name>3419</name>
</trkpt>
<trkpt lat="48.943698" lon="8.661918">
<ele>318.0</ele>
<speed>1.23</speed>
<course>90.0</course>
<desc>Speed 4.4 km/h Distance 5.65 km</desc>
<time>2010-10-23T17:39:02.62</time>
<name>3420</name>
</trkpt>
<trkpt lat="48.943698" lon="8.661927">
<ele>318.0</ele>
<speed>0.93</speed>
<course>63.0</course>
<desc>Speed 3.3 km/h Distance 5.65 km</desc>
<time>2010-10-23T17:39:03.62</time>
<name>3421</name>
</trkpt>
<trkpt lat="48.943702" lon="8.661937">
<ele>319.0</ele>
<speed>0.76</speed>
<course>157.8</course>
<desc>Speed 2.7 km/h Distance 5.66 km</desc>
<time>2010-10-23T17:39:04.62</time>
<name>3422</name>
</trkpt>
<trkpt lat="48.943697" lon="8.661940">
<ele>319.5</ele>
<speed>0.93</speed>
<course>165.1</course>
<desc>Speed 3.3 km/h Distance 5.66 km</desc>
<time>2010-10-23T17:39:05.62</time>
<name>3423</name>
</trkpt>
<trkpt lat="48.943688" lon="8.661943">
<ele>319.5</ele>
<speed>1.11</speed>
<course>146.8</course>
<desc>Speed 4.0 km/h Distance 5.66 km</desc>
<time>2010-10-23T17:39:06.62</time>
<name>3424</name>
</trkpt>
<trkpt lat="48.943680" lon="8.661952">
<ele>319.0</ele>
<speed>0.93</speed>
<course>141.9</course>
<desc>Speed 3.3 km/h Distance 5.66 km</desc>
<time>2010-10-23T17:39:07.62</time>
<name>3425</name>
</trkpt>
<trkpt lat="48.943672" lon="8.661962">
<ele>318.5</ele>
<speed>0.92</speed>
<course>167.4</course>
<desc>Speed 3.3 km/h Distance 5.66 km</desc>
<time>2010-10-23T17:39:08.62</time>
<name>3426</name>
</trkpt>
<trkpt lat="48.943665" lon="8.661963">
<ele>317.5</ele>
<speed>1.16</speed>
<course>161.8</course>
<desc>Speed 4.2 km/h Distance 5.66 km</desc>
<time>2010-10-23T17:39:09.62</time>
<name>3427</name>
</trkpt>
<trkpt lat="48.943655" lon="8.661968">
<ele>315.5</ele>
<speed>1.29</speed>
<course>141.9</course>
<desc>Speed 4.6 km/h Distance 5.66 km</desc>
<time>2010-10-23T17:39:10.62</time>
<name>3428</name>
</trkpt>
<trkpt lat="48.943647" lon="8.661978">
<ele>317.0</ele>
<speed>0.81</speed>
<course>159.1</course>
<desc>Speed 2.9 km/h Distance 5.66 km</desc>
<time>2010-10-23T17:39:11.62</time>
<name>3429</name>
</trkpt>
<trkpt lat="48.943635" lon="8.661985">
<ele>315.0</ele>
<speed>0.93</speed>
<course>140.6</course>
<desc>Speed 3.3 km/h Distance 5.66 km</desc>
<time>2010-10-23T17:39:12.62</time>
<name>3430</name>
</trkpt>
<trkpt lat="48.943628" lon="8.661993">
<ele>315.0</ele>
<speed>0.87</speed>
<course>134.1</course>
<desc>Speed 3.1 km/h Distance 5.66 km</desc>
<time>2010-10-23T17:39:13.62</time>
<name>3431</name>
</trkpt>
<trkpt lat="48.943617" lon="8.662012">
<ele>315.5</ele>
<speed>2.07</speed>
<course>104.1</course>
<desc>Speed 7.5 km/h Distance 5.67 km</desc>
<time>2010-10-23T17:39:14.62</time>
<name>3432</name>
</trkpt>
<trkpt lat="48.943615" lon="8.662022">
<ele>317.0</ele>
<speed>0.56</speed>
<course>127.2</course>
<desc>Speed 2.0 km/h Distance 5.67 km</desc>
<time>2010-10-23T17:39:15.62</time>
<name>3433</name>
</trkpt>
<trkpt lat="48.943610" lon="8.662032">
<ele>317.0</ele>
<speed>0.94</speed>
<course>140.6</course>
<desc>Speed 3.4 km/h Distance 5.67 km</desc>
<time>2010-10-23T17:39:16.62</time>
<name>3434</name>
</trkpt>
<trkpt lat="48.943603" lon="8.662040">
<ele>316.5</ele>
<speed>1.21</speed>
<course>167.4</course>
<desc>Speed 4.4 km/h Distance 5.67 km</desc>
<time>2010-10-23T17:39:17.62</time>
<name>3435</name>
</trkpt>
<trkpt lat="48.943593" lon="8.662043">
<ele>315.5</ele>
<speed>1.39</speed>
<course>110.8</course>
<desc>Speed 5.0 km/h Distance 5.67 km</desc>
<time>2010-10-23T17:39:18.62</time>
<name>3436</name>
</trkpt>
<trkpt lat="48.943590" lon="8.662057">
<ele>316.5</ele>
<speed>1.20</speed>
<course>170.4</course>
<desc>Speed 4.3 km/h Distance 5.67 km</desc>
<time>2010-10-23T17:39:19.62</time>
<name>3437</name>
</trkpt>
<trkpt lat="48.943582" lon="8.662058">
<ele>316.0</ele>
<speed>0.98</speed>
<course>175.6</course>
<desc>Speed 3.5 km/h Distance 5.67 km</desc>
<time>2010-10-23T17:39:20.62</time>
<name>3438</name>
</trkpt>
<trkpt lat="48.943572" lon="8.662058">
<ele>315.0</ele>
<speed>1.03</speed>
<course>161.2</course>
<desc>Speed 3.7 km/h Distance 5.67 km</desc>
<time>2010-10-23T17:39:21.62</time>
<name>3439</name>
</trkpt>
<trkpt lat="48.943565" lon="8.662062">
<ele>315.0</ele>
<speed>0.95</speed>
<course>133.5</course>
<desc>Speed 3.4 km/h Distance 5.67 km</desc>
<time>2010-10-23T17:39:22.62</time>
<name>3440</name>
</trkpt>
<trkpt lat="48.943557" lon="8.662075">
<ele>315.5</ele>
<speed>1.25</speed>
<course>270.0</course>
<desc>Speed 4.5 km/h Distance 5.68 km</desc>
<time>2010-10-23T17:39:23.62</time>
<name>3441</name>
</trkpt>
<trkpt lat="48.943557" lon="8.662068">
<ele>315.5</ele>
<speed>0.68</speed>
<course>180.0</course>
<desc>Speed 2.4 km/h Distance 5.68 km</desc>
<time>2010-10-23T17:39:24.62</time>
<name>3442</name>
</trkpt>
<trkpt lat="48.943553" lon="8.662068">
<ele>316.5</ele>
<speed>0.69</speed>
<course>159.2</course>
<desc>Speed 2.5 km/h Distance 5.68 km</desc>
<time>2010-10-23T17:39:25.62</time>
<name>3443</name>
</trkpt>
<trkpt lat="48.943545" lon="8.662073">
<ele>317.0</ele>
<speed>1.15</speed>
<course>138.6</course>
<desc>Speed 4.1 km/h Distance 5.68 km</desc>
<time>2010-10-23T17:39:26.62</time>
<name>3444</name>
</trkpt>
<trkpt lat="48.943540" lon="8.662080">
<ele>317.5</ele>
<speed>1.09</speed>
<course>156.2</course>
<desc>Speed 3.9 km/h Distance 5.68 km</desc>
<time>2010-10-23T17:39:27.62</time>
<name>3445</name>
</trkpt>
<trkpt lat="48.943530" lon="8.662087">
<ele>317.5</ele>
<speed>1.22</speed>
<course>147.7</course>
<desc>Speed 4.4 km/h Distance 5.68 km</desc>
<time>2010-10-23T17:39:28.62</time>
<name>3446</name>
</trkpt>
<trkpt lat="48.943525" lon="8.662092">
<ele>318.0</ele>
<speed>0.91</speed>
<course>161.2</course>
<desc>Speed 3.3 km/h Distance 5.68 km</desc>
<time>2010-10-23T17:39:29.62</time>
<name>3447</name>
</trkpt>
<trkpt lat="48.943518" lon="8.662095">
<ele>318.5</ele>
<speed>0.89</speed>
<course>145.9</course>
<desc>Speed 3.2 km/h Distance 5.68 km</desc>
<time>2010-10-23T17:39:30.62</time>
<name>3448</name>
</trkpt>
<trkpt lat="48.943513" lon="8.662100">
<ele>319.5</ele>
<speed>0.95</speed>
<course>164.0</course>
<desc>Speed 3.4 km/h Distance 5.68 km</desc>
<time>2010-10-23T17:39:31.62</time>
<name>3449</name>
</trkpt>
<trkpt lat="48.943502" lon="8.662105">
<ele>318.5</ele>
<speed>1.38</speed>
<course>140.6</course>
<desc>Speed 5.0 km/h Distance 5.68 km</desc>
<time>2010-10-23T17:39:32.62</time>
<name>3450</name>
</trkpt>
<trkpt lat="48.943495" lon="8.662113">
<ele>319.0</ele>
<speed>1.04</speed>
<course>167.4</course>
<desc>Speed 3.7 km/h Distance 5.68 km</desc>
<time>2010-10-23T17:39:33.62</time>
<name>3451</name>
</trkpt>
<trkpt lat="48.943485" lon="8.662117">
<ele>318.5</ele>
<speed>1.07</speed>
<course>131.7</course>
<desc>Speed 3.9 km/h Distance 5.68 km</desc>
<time>2010-10-23T17:39:34.62</time>
<name>3452</name>
</trkpt>
<trkpt lat="48.943457" lon="8.662165">
<ele>318.0</ele>
<speed>0.94</speed>
<course>138.8</course>
<desc>Speed 3.4 km/h Distance 5.69 km</desc>
<time>2010-10-23T17:39:36.62</time>
<name>3453</name>
</trkpt>
<trkpt lat="48.943447" lon="8.662178">
<ele>318.0</ele>
<speed>0.95</speed>
<course>146.8</course>
<desc>Speed 3.4 km/h Distance 5.69 km</desc>
<time>2010-10-23T17:39:37.62</time>
<name>3454</name>
</trkpt>
<trkpt lat="48.943437" lon="8.662188">
<ele>317.5</ele>
<speed>1.16</speed>
<course>147.7</course>
<desc>Speed 4.2 km/h Distance 5.69 km</desc>
<time>2010-10-23T17:39:38.62</time>
<name>3455</name>
</trkpt>
<trkpt lat="48.943432" lon="8.662193">
<ele>317.5</ele>
<speed>0.67</speed>
<course>104.4</course>
<desc>Speed 2.4 km/h Distance 5.69 km</desc>
<time>2010-10-23T17:39:39.62</time>
<name>3456</name>
</trkpt>
<trkpt lat="48.943430" lon="8.662203">
<ele>319.0</ele>
<speed>0.72</speed>
<course>139.1</course>
<desc>Speed 2.6 km/h Distance 5.69 km</desc>
<time>2010-10-23T17:39:40.62</time>
<name>3457</name>
</trkpt>
<trkpt lat="48.943425" lon="8.662210">
<ele>319.0</ele>
<speed>0.81</speed>
<course>139.1</course>
<desc>Speed 2.9 km/h Distance 5.69 km</desc>
<time>2010-10-23T17:39:41.62</time>
<name>3458</name>
</trkpt>
<trkpt lat="48.943420" lon="8.662217">
<ele>319.5</ele>
<speed>0.64</speed>
<course>140.0</course>
<desc>Speed 2.3 km/h Distance 5.70 km</desc>
<time>2010-10-23T17:39:42.62</time>
<name>3459</name>
</trkpt>
<trkpt lat="48.943390" lon="8.662255">
<ele>318.0</ele>
<speed>0.82</speed>
<course>159.9</course>
<desc>Speed 3.0 km/h Distance 5.70 km</desc>
<time>2010-10-23T17:39:44.62</time>
<name>3460</name>
</trkpt>
<trkpt lat="48.943375" lon="8.662263">
<ele>316.5</ele>
<speed>0.79</speed>
<course>147.7</course>
<desc>Speed 2.8 km/h Distance 5.70 km</desc>
<time>2010-10-23T17:39:45.62</time>
<name>3461</name>
</trkpt>
<trkpt lat="48.943370" lon="8.662268">
<ele>316.5</ele>
<speed>0.57</speed>
<course>167.4</course>
<desc>Speed 2.1 km/h Distance 5.70 km</desc>
<time>2010-10-23T17:39:46.62</time>
<name>3462</name>
</trkpt>
<trkpt lat="48.943355" lon="8.662273">
<ele>314.5</ele>
<speed>1.70</speed>
<course>152.1</course>
<desc>Speed 6.1 km/h Distance 5.70 km</desc>
<time>2010-10-23T17:39:47.62</time>
<name>3463</name>
</trkpt>
<trkpt lat="48.943347" lon="8.662280">
<ele>315.0</ele>
<speed>0.92</speed>
<course>198.8</course>
<desc>Speed 3.3 km/h Distance 5.70 km</desc>
<time>2010-10-23T17:39:48.62</time>
<name>3464</name>
</trkpt>
<trkpt lat="48.943343" lon="8.662278">
<ele>315.5</ele>
<speed>0.58</speed>
<course>138.1</course>
<desc>Speed 2.1 km/h Distance 5.71 km</desc>
<time>2010-10-23T17:39:49.62</time>
<name>3465</name>
</trkpt>
<trkpt lat="48.943338" lon="8.662285">
<ele>316.0</ele>
<speed>0.88</speed>
<course>127.4</course>
<desc>Speed 3.2 km/h Distance 5.71 km</desc>
<time>2010-10-23T17:39:50.62</time>
<name>3466</name>
</trkpt>
<trkpt lat="48.943333" lon="8.662295">
<ele>316.5</ele>
<speed>0.86</speed>
<course>119.7</course>
<desc>Speed 3.1 km/h Distance 5.71 km</desc>
<time>2010-10-23T17:39:51.62</time>
<name>3467</name>
</trkpt>
<trkpt lat="48.943328" lon="8.662308">
<ele>318.0</ele>
<speed>0.99</speed>
<course>121.4</course>
<desc>Speed 3.6 km/h Distance 5.71 km</desc>
<time>2010-10-23T17:39:52.62</time>
<name>3468</name>
</trkpt>
<trkpt lat="48.943325" lon="8.662317">
<ele>318.5</ele>
<speed>0.92</speed>
<course>100.8</course>
<desc>Speed 3.3 km/h Distance 5.71 km</desc>
<time>2010-10-23T17:39:53.62</time>
<name>3469</name>
</trkpt>
<trkpt lat="48.943323" lon="8.662330">
<ele>320.0</ele>
<speed>0.86</speed>
<course>116.9</course>
<desc>Speed 3.1 km/h Distance 5.71 km</desc>
<time>2010-10-23T17:39:54.62</time>
<name>3470</name>
</trkpt>
<trkpt lat="48.943307" lon="8.662380">
<ele>322.0</ele>
<speed>0.58</speed>
<course>116.3</course>
<desc>Speed 2.1 km/h Distance 5.71 km</desc>
<time>2010-10-23T17:39:56.62</time>
<name>3471</name>
</trkpt>
<trkpt lat="48.943287" lon="8.662442">
<ele>325.0</ele>
<speed>0.40</speed>
<course>117.0</course>
<desc>Speed 1.4 km/h Distance 5.72 km</desc>
<time>2010-10-23T17:39:58.62</time>
<name>3472</name>
</trkpt>
<trkpt lat="48.943283" lon="8.662452">
<ele>325.0</ele>
<speed>0.55</speed>
<course>130.3</course>
<desc>Speed 2.0 km/h Distance 5.72 km</desc>
<time>2010-10-23T17:39:59.62</time>
<name>3473</name>
</trkpt>
<trkpt lat="48.943275" lon="8.662467">
<ele>325.5</ele>
<speed>0.64</speed>
<course>116.3</course>
<desc>Speed 2.3 km/h Distance 5.72 km</desc>
<time>2010-10-23T17:40:00.62</time>
<name>3474</name>
</trkpt>
<trkpt lat="48.943255" lon="8.662528">
<ele>328.5</ele>
<speed>0.75</speed>
<course>113.7</course>
<desc>Speed 2.7 km/h Distance 5.73 km</desc>
<time>2010-10-23T17:40:02.62</time>
<name>3475</name>
</trkpt>
<trkpt lat="48.943230" lon="8.662615">
<ele>334.5</ele>
<speed>1.25</speed>
<course>63.1</course>
<desc>Speed 4.5 km/h Distance 5.73 km</desc>
<time>2010-10-23T17:40:04.62</time>
<name>3476</name>
</trkpt>
<trkpt lat="48.943235" lon="8.662630">
<ele>336.5</ele>
<speed>0.81</speed>
<course>130.6</course>
<desc>Speed 2.9 km/h Distance 5.73 km</desc>
<time>2010-10-23T17:40:05.62</time>
<name>3477</name>
</trkpt>
<trkpt lat="48.943220" lon="8.662657">
<ele>335.5</ele>
<speed>0.82</speed>
<course>90.0</course>
<desc>Speed 3.0 km/h Distance 5.74 km</desc>
<time>2010-10-23T17:40:06.62</time>
<name>3478</name>
</trkpt>
<trkpt lat="48.943220" lon="8.662668">
<ele>337.5</ele>
<speed>0.75</speed>
<course>144.8</course>
<desc>Speed 2.7 km/h Distance 5.74 km</desc>
<time>2010-10-23T17:40:07.62</time>
<name>3479</name>
</trkpt>
<trkpt lat="48.943175" lon="8.662717">
<ele>335.5</ele>
<speed>0.87</speed>
<course>75.6</course>
<desc>Speed 3.1 km/h Distance 5.74 km</desc>
<time>2010-10-23T17:40:09.62</time>
<name>3480</name>
</trkpt>
<trkpt lat="48.943177" lon="8.662727">
<ele>337.5</ele>
<speed>0.61</speed>
<course>120.4</course>
<desc>Speed 2.2 km/h Distance 5.74 km</desc>
<time>2010-10-23T17:40:10.62</time>
<name>3481</name>
</trkpt>
<trkpt lat="48.943168" lon="8.662748">
<ele>338.0</ele>
<speed>0.60</speed>
<course>120.6</course>
<desc>Speed 2.2 km/h Distance 5.75 km</desc>
<time>2010-10-23T17:40:11.62</time>
<name>3482</name>
</trkpt>
<trkpt lat="48.943157" lon="8.662778">
<ele>338.5</ele>
<speed>0.73</speed>
<course>122.5</course>
<desc>Speed 2.6 km/h Distance 5.75 km</desc>
<time>2010-10-23T17:40:12.62</time>
<name>3483</name>
</trkpt>
<trkpt lat="48.943127" lon="8.662850">
<ele>338.0</ele>
<speed>1.40</speed>
<course>121.4</course>
<desc>Speed 5.0 km/h Distance 5.76 km</desc>
<time>2010-10-23T17:40:14.62</time>
<name>3484</name>
</trkpt>
<trkpt lat="48.943117" lon="8.662875">
<ele>338.0</ele>
<speed>0.93</speed>
<course>80.4</course>
<desc>Speed 3.3 km/h Distance 5.76 km</desc>
<time>2010-10-23T17:40:15.62</time>
<name>3485</name>
</trkpt>
<trkpt lat="48.943118" lon="8.662890">
<ele>338.0</ele>
<speed>1.00</speed>
<course>90.0</course>
<desc>Speed 3.6 km/h Distance 5.76 km</desc>
<time>2010-10-23T17:40:16.62</time>
<name>3486</name>
</trkpt>
<trkpt lat="48.943118" lon="8.662903">
<ele>337.5</ele>
<speed>0.87</speed>
<course>79.3</course>
<desc>Speed 3.1 km/h Distance 5.76 km</desc>
<time>2010-10-23T17:40:17.62</time>
<name>3487</name>
</trkpt>
<trkpt lat="48.943120" lon="8.662917">
<ele>337.5</ele>
<speed>0.79</speed>
<course>90.0</course>
<desc>Speed 2.8 km/h Distance 5.76 km</desc>
<time>2010-10-23T17:40:18.62</time>
<name>3488</name>
</trkpt>
<trkpt lat="48.943120" lon="8.662933">
<ele>337.5</ele>
<speed>1.12</speed>
<course>63.1</course>
<desc>Speed 4.0 km/h Distance 5.76 km</desc>
<time>2010-10-23T17:40:19.62</time>
<name>3489</name>
</trkpt>
<trkpt lat="48.943127" lon="8.662953">
<ele>338.0</ele>
<speed>1.35</speed>
<course>74.5</course>
<desc>Speed 4.9 km/h Distance 5.76 km</desc>
<time>2010-10-23T17:40:20.62</time>
<name>3490</name>
</trkpt>
<trkpt lat="48.943130" lon="8.662972">
<ele>338.5</ele>
<speed>1.33</speed>
<course>69.1</course>
<desc>Speed 4.8 km/h Distance 5.76 km</desc>
<time>2010-10-23T17:40:21.62</time>
<name>3491</name>
</trkpt>
<trkpt lat="48.943133" lon="8.662985">
<ele>338.0</ele>
<speed>0.95</speed>
<course>84.7</course>
<desc>Speed 3.4 km/h Distance 5.77 km</desc>
<time>2010-10-23T17:40:22.62</time>
<name>3492</name>
</trkpt>
<trkpt lat="48.943137" lon="8.663040">
<ele>340.0</ele>
<speed>1.26</speed>
<course>58.6</course>
<desc>Speed 4.5 km/h Distance 5.77 km</desc>
<time>2010-10-23T17:40:24.62</time>
<name>3493</name>
</trkpt>
<trkpt lat="48.943143" lon="8.663057">
<ele>340.5</ele>
<speed>1.28</speed>
<course>52.7</course>
<desc>Speed 4.6 km/h Distance 5.77 km</desc>
<time>2010-10-23T17:40:25.62</time>
<name>3494</name>
</trkpt>
<trkpt lat="48.943152" lon="8.663073">
<ele>341.0</ele>
<speed>1.40</speed>
<course>39.4</course>
<desc>Speed 5.0 km/h Distance 5.77 km</desc>
<time>2010-10-23T17:40:26.62</time>
<name>3495</name>
</trkpt>
<trkpt lat="48.943158" lon="8.663082">
<ele>341.0</ele>
<speed>1.17</speed>
<course>90.0</course>
<desc>Speed 4.2 km/h Distance 5.77 km</desc>
<time>2010-10-23T17:40:27.62</time>
<name>3496</name>
</trkpt>
<trkpt lat="48.943158" lon="8.663097">
<ele>339.5</ele>
<speed>0.95</speed>
<course>33.7</course>
<desc>Speed 3.4 km/h Distance 5.77 km</desc>
<time>2010-10-23T17:40:28.62</time>
<name>3497</name>
</trkpt>
<trkpt lat="48.943162" lon="8.663100">
<ele>338.5</ele>
<speed>0.49</speed>
<course>75.6</course>
<desc>Speed 1.8 km/h Distance 5.78 km</desc>
<time>2010-10-23T17:40:29.62</time>
<name>3498</name>
</trkpt>
<trkpt lat="48.943163" lon="8.663110">
<ele>337.5</ele>
<speed>0.68</speed>
<course>73.1</course>
<desc>Speed 2.4 km/h Distance 5.78 km</desc>
<time>2010-10-23T17:40:30.62</time>
<name>3499</name>
</trkpt>
<trkpt lat="48.943165" lon="8.663118">
<ele>336.5</ele>
<speed>0.62</speed>
<course>90.0</course>
<desc>Speed 2.2 km/h Distance 5.78 km</desc>
<time>2010-10-23T17:40:31.62</time>
<name>3500</name>
</trkpt>
<trkpt lat="48.943165" lon="8.663130">
<ele>335.5</ele>
<speed>0.67</speed>
<course>90.0</course>
<desc>Speed 2.4 km/h Distance 5.78 km</desc>
<time>2010-10-23T17:40:32.62</time>
<name>3501</name>
</trkpt>
<trkpt lat="48.943165" lon="8.663147">
<ele>334.5</ele>
<speed>1.11</speed>
<course>105.5</course>
<desc>Speed 4.0 km/h Distance 5.78 km</desc>
<time>2010-10-23T17:40:33.62</time>
<name>3502</name>
</trkpt>
<trkpt lat="48.943162" lon="8.663165">
<ele>333.0</ele>
<speed>1.34</speed>
<course>90.0</course>
<desc>Speed 4.8 km/h Distance 5.78 km</desc>
<time>2010-10-23T17:40:34.62</time>
<name>3503</name>
</trkpt>
<trkpt lat="48.943162" lon="8.663178">
<ele>332.0</ele>
<speed>0.87</speed>
<course>63.1</course>
<desc>Speed 3.1 km/h Distance 5.78 km</desc>
<time>2010-10-23T17:40:35.62</time>
<name>3504</name>
</trkpt>
<trkpt lat="48.943167" lon="8.663193">
<ele>332.5</ele>
<speed>1.11</speed>
<course>77.7</course>
<desc>Speed 4.0 km/h Distance 5.78 km</desc>
<time>2010-10-23T17:40:36.62</time>
<name>3505</name>
</trkpt>
<trkpt lat="48.943168" lon="8.663205">
<ele>331.5</ele>
<speed>0.67</speed>
<course>101.5</course>
<desc>Speed 2.4 km/h Distance 5.78 km</desc>
<time>2010-10-23T17:40:37.62</time>
<name>3506</name>
</trkpt>
<trkpt lat="48.943158" lon="8.663280">
<ele>330.0</ele>
<speed>1.39</speed>
<course>65.5</course>
<desc>Speed 5.0 km/h Distance 5.79 km</desc>
<time>2010-10-23T17:40:39.62</time>
<name>3507</name>
</trkpt>
<trkpt lat="48.943163" lon="8.663297">
<ele>330.0</ele>
<speed>1.22</speed>
<course>69.2</course>
<desc>Speed 4.4 km/h Distance 5.79 km</desc>
<time>2010-10-23T17:40:40.62</time>
<name>3508</name>
</trkpt>
<trkpt lat="48.943168" lon="8.663317">
<ele>330.0</ele>
<speed>1.44</speed>
<course>63.1</course>
<desc>Speed 5.2 km/h Distance 5.79 km</desc>
<time>2010-10-23T17:40:41.62</time>
<name>3509</name>
</trkpt>
<trkpt lat="48.943175" lon="8.663337">
<ele>330.5</ele>
<speed>1.61</speed>
<course>67.5</course>
<desc>Speed 5.8 km/h Distance 5.79 km</desc>
<time>2010-10-23T17:40:42.62</time>
<name>3510</name>
</trkpt>
<trkpt lat="48.943180" lon="8.663355">
<ele>331.0</ele>
<speed>1.29</speed>
<course>57.6</course>
<desc>Speed 4.6 km/h Distance 5.79 km</desc>
<time>2010-10-23T17:40:43.62</time>
<name>3511</name>
</trkpt>
<trkpt lat="48.943188" lon="8.663375">
<ele>332.0</ele>
<speed>1.55</speed>
<course>55.3</course>
<desc>Speed 5.6 km/h Distance 5.80 km</desc>
<time>2010-10-23T17:40:44.62</time>
<name>3512</name>
</trkpt>
<trkpt lat="48.943197" lon="8.663393">
<ele>333.0</ele>
<speed>1.46</speed>
<course>74.5</course>
<desc>Speed 5.3 km/h Distance 5.80 km</desc>
<time>2010-10-23T17:40:45.62</time>
<name>3513</name>
</trkpt>
<trkpt lat="48.943200" lon="8.663412">
<ele>333.0</ele>
<speed>1.25</speed>
<course>73.0</course>
<desc>Speed 4.5 km/h Distance 5.80 km</desc>
<time>2010-10-23T17:40:46.62</time>
<name>3514</name>
</trkpt>
<trkpt lat="48.943203" lon="8.663428">
<ele>333.0</ele>
<speed>1.15</speed>
<course>63.1</course>
<desc>Speed 4.1 km/h Distance 5.80 km</desc>
<time>2010-10-23T17:40:47.62</time>
<name>3515</name>
</trkpt>
<trkpt lat="48.943208" lon="8.663443">
<ele>332.0</ele>
<speed>0.91</speed>
<course>73.1</course>
<desc>Speed 3.3 km/h Distance 5.80 km</desc>
<time>2010-10-23T17:40:48.62</time>
<name>3516</name>
</trkpt>
<trkpt lat="48.943212" lon="8.663460">
<ele>332.5</ele>
<speed>1.26</speed>
<course>73.1</course>
<desc>Speed 4.5 km/h Distance 5.80 km</desc>
<time>2010-10-23T17:40:49.62</time>
<name>3517</name>
</trkpt>
<trkpt lat="48.943215" lon="8.663477">
<ele>332.5</ele>
<speed>1.23</speed>
<course>61.0</course>
<desc>Speed 4.4 km/h Distance 5.80 km</desc>
<time>2010-10-23T17:40:50.62</time>
<name>3518</name>
</trkpt>
<trkpt lat="48.943222" lon="8.663495">
<ele>333.0</ele>
<speed>1.37</speed>
<course>106.9</course>
<desc>Speed 4.9 km/h Distance 5.81 km</desc>
<time>2010-10-23T17:40:51.62</time>
<name>3519</name>
</trkpt>
<trkpt lat="48.943213" lon="8.663537">
<ele>332.0</ele>
<speed>1.37</speed>
<course>75.8</course>
<desc>Speed 4.9 km/h Distance 5.81 km</desc>
<time>2010-10-23T17:40:52.62</time>
<name>3520</name>
</trkpt>
<trkpt lat="48.943217" lon="8.663557">
<ele>332.5</ele>
<speed>1.33</speed>
<course>67.4</course>
<desc>Speed 4.8 km/h Distance 5.81 km</desc>
<time>2010-10-23T17:40:53.62</time>
<name>3521</name>
</trkpt>
<trkpt lat="48.943222" lon="8.663575">
<ele>333.0</ele>
<speed>1.38</speed>
<course>90.0</course>
<desc>Speed 5.0 km/h Distance 5.81 km</desc>
<time>2010-10-23T17:40:54.62</time>
<name>3522</name>
</trkpt>
<trkpt lat="48.943222" lon="8.663608">
<ele>333.5</ele>
<speed>1.29</speed>
<course>55.3</course>
<desc>Speed 4.6 km/h Distance 5.81 km</desc>
<time>2010-10-23T17:40:55.62</time>
<name>3523</name>
</trkpt>
<trkpt lat="48.943230" lon="8.663627">
<ele>334.0</ele>
<speed>1.50</speed>
<course>50.3</course>
<desc>Speed 5.4 km/h Distance 5.82 km</desc>
<time>2010-10-23T17:40:56.62</time>
<name>3524</name>
</trkpt>
<trkpt lat="48.943240" lon="8.663645">
<ele>335.0</ele>
<speed>1.53</speed>
<course>33.2</course>
<desc>Speed 5.5 km/h Distance 5.82 km</desc>
<time>2010-10-23T17:40:57.62</time>
<name>3525</name>
</trkpt>
<trkpt lat="48.943253" lon="8.663658">
<ele>336.0</ele>
<speed>1.50</speed>
<course>58.7</course>
<desc>Speed 5.4 km/h Distance 5.82 km</desc>
<time>2010-10-23T17:40:58.62</time>
<name>3526</name>
</trkpt>
<trkpt lat="48.943260" lon="8.663675">
<ele>335.5</ele>
<speed>1.10</speed>
<course>65.5</course>
<desc>Speed 4.0 km/h Distance 5.82 km</desc>
<time>2010-10-23T17:40:59.62</time>
<name>3527</name>
</trkpt>
<trkpt lat="48.943265" lon="8.663692">
<ele>334.5</ele>
<speed>1.12</speed>
<course>67.5</course>
<desc>Speed 4.0 km/h Distance 5.82 km</desc>
<time>2010-10-23T17:41:00.62</time>
<name>3528</name>
</trkpt>
<trkpt lat="48.943270" lon="8.663710">
<ele>334.0</ele>
<speed>1.30</speed>
<course>80.4</course>
<desc>Speed 4.7 km/h Distance 5.82 km</desc>
<time>2010-10-23T17:41:01.62</time>
<name>3529</name>
</trkpt>
<trkpt lat="48.943272" lon="8.663725">
<ele>332.5</ele>
<speed>1.03</speed>
<course>97.2</course>
<desc>Speed 3.7 km/h Distance 5.83 km</desc>
<time>2010-10-23T17:41:02.62</time>
<name>3530</name>
</trkpt>
<trkpt lat="48.943262" lon="8.663845">
<ele>336.0</ele>
<speed>1.24</speed>
<course>104.8</course>
<desc>Speed 4.5 km/h Distance 5.83 km</desc>
<time>2010-10-23T17:41:04.62</time>
<name>3531</name>
</trkpt>
<trkpt lat="48.943255" lon="8.663883">
<ele>337.0</ele>
<speed>1.87</speed>
<course>96.2</course>
<desc>Speed 6.7 km/h Distance 5.84 km</desc>
<time>2010-10-23T17:41:05.62</time>
<name>3532</name>
</trkpt>
<trkpt lat="48.943253" lon="8.663907">
<ele>336.0</ele>
<speed>1.07</speed>
<course>63.1</course>
<desc>Speed 3.9 km/h Distance 5.84 km</desc>
<time>2010-10-23T17:41:06.62</time>
<name>3533</name>
</trkpt>
<trkpt lat="48.943258" lon="8.663922">
<ele>337.5</ele>
<speed>1.00</speed>
<course>49.7</course>
<desc>Speed 3.6 km/h Distance 5.84 km</desc>
<time>2010-10-23T17:41:07.62</time>
<name>3534</name>
</trkpt>
<trkpt lat="48.943267" lon="8.663937">
<ele>338.5</ele>
<speed>1.02</speed>
<course>74.5</course>
<desc>Speed 3.7 km/h Distance 5.84 km</desc>
<time>2010-10-23T17:41:08.62</time>
<name>3535</name>
</trkpt>
<trkpt lat="48.943270" lon="8.663955">
<ele>340.0</ele>
<speed>1.07</speed>
<course>110.9</course>
<desc>Speed 3.9 km/h Distance 5.84 km</desc>
<time>2010-10-23T17:41:09.62</time>
<name>3536</name>
</trkpt>
<trkpt lat="48.943268" lon="8.663962">
<ele>338.5</ele>
<speed>0.56</speed>
<course>77.7</course>
<desc>Speed 2.0 km/h Distance 5.84 km</desc>
<time>2010-10-23T17:41:10.62</time>
<name>3537</name>
</trkpt>
<trkpt lat="48.943270" lon="8.663973">
<ele>338.5</ele>
<speed>0.86</speed>
<course>99.6</course>
<desc>Speed 3.1 km/h Distance 5.84 km</desc>
<time>2010-10-23T17:41:11.62</time>
<name>3538</name>
</trkpt>
<trkpt lat="48.943267" lon="8.664003">
<ele>339.0</ele>
<speed>1.15</speed>
<course>67.5</course>
<desc>Speed 4.1 km/h Distance 5.85 km</desc>
<time>2010-10-23T17:41:12.62</time>
<name>3539</name>
</trkpt>
<trkpt lat="48.943272" lon="8.664022">
<ele>339.5</ele>
<speed>1.26</speed>
<course>63.1</course>
<desc>Speed 4.5 km/h Distance 5.85 km</desc>
<time>2010-10-23T17:41:13.62</time>
<name>3540</name>
</trkpt>
<trkpt lat="48.943277" lon="8.664037">
<ele>340.0</ele>
<speed>0.99</speed>
<course>83.3</course>
<desc>Speed 3.6 km/h Distance 5.85 km</desc>
<time>2010-10-23T17:41:14.62</time>
<name>3541</name>
</trkpt>
<trkpt lat="48.943278" lon="8.664058">
<ele>340.0</ele>
<speed>1.58</speed>
<course>58.9</course>
<desc>Speed 5.7 km/h Distance 5.85 km</desc>
<time>2010-10-23T17:41:15.62</time>
<name>3542</name>
</trkpt>
<trkpt lat="48.943282" lon="8.664067">
<ele>340.0</ele>
<speed>0.62</speed>
<course>49.1</course>
<desc>Speed 2.2 km/h Distance 5.85 km</desc>
<time>2010-10-23T17:41:16.62</time>
<name>3543</name>
</trkpt>
<trkpt lat="48.943288" lon="8.664078">
<ele>341.0</ele>
<speed>0.86</speed>
<course>70.6</course>
<desc>Speed 3.1 km/h Distance 5.85 km</desc>
<time>2010-10-23T17:41:17.62</time>
<name>3544</name>
</trkpt>
<trkpt lat="48.943293" lon="8.664100">
<ele>342.0</ele>
<speed>1.23</speed>
<course>60.2</course>
<desc>Speed 4.4 km/h Distance 5.85 km</desc>
<time>2010-10-23T17:41:18.62</time>
<name>3545</name>
</trkpt>
<trkpt lat="48.943298" lon="8.664113">
<ele>342.5</ele>
<speed>0.55</speed>
<course>127.3</course>
<desc>Speed 2.0 km/h Distance 5.86 km</desc>
<time>2010-10-23T17:41:19.62</time>
<name>3546</name>
</trkpt>
<trkpt lat="48.943287" lon="8.664137">
<ele>339.0</ele>
<speed>0.57</speed>
<course>93.8</course>
<desc>Speed 2.1 km/h Distance 5.86 km</desc>
<time>2010-10-23T17:41:20.62</time>
<name>3547</name>
</trkpt>
<trkpt lat="48.943283" lon="8.664213">
<ele>340.0</ele>
<speed>1.49</speed>
<course>80.7</course>
<desc>Speed 5.4 km/h Distance 5.86 km</desc>
<time>2010-10-23T17:41:22.62</time>
<name>3548</name>
</trkpt>
<trkpt lat="48.943288" lon="8.664260">
<ele>341.5</ele>
<speed>1.73</speed>
<course>58.7</course>
<desc>Speed 6.2 km/h Distance 5.87 km</desc>
<time>2010-10-23T17:41:23.62</time>
<name>3549</name>
</trkpt>
<trkpt lat="48.943295" lon="8.664277">
<ele>342.0</ele>
<speed>1.27</speed>
<course>76.5</course>
<desc>Speed 4.6 km/h Distance 5.87 km</desc>
<time>2010-10-23T17:41:24.62</time>
<name>3550</name>
</trkpt>
<trkpt lat="48.943305" lon="8.664340">
<ele>343.5</ele>
<speed>1.12</speed>
<course>105.5</course>
<desc>Speed 4.0 km/h Distance 5.87 km</desc>
<time>2010-10-23T17:41:26.62</time>
<name>3551</name>
</trkpt>
<trkpt lat="48.943302" lon="8.664358">
<ele>342.0</ele>
<speed>1.00</speed>
<course>49.8</course>
<desc>Speed 3.6 km/h Distance 5.87 km</desc>
<time>2010-10-23T17:41:27.62</time>
<name>3552</name>
</trkpt>
<trkpt lat="48.943310" lon="8.664373">
<ele>342.5</ele>
<speed>1.13</speed>
<course>73.1</course>
<desc>Speed 4.1 km/h Distance 5.88 km</desc>
<time>2010-10-23T17:41:28.62</time>
<name>3553</name>
</trkpt>
<trkpt lat="48.943313" lon="8.664390">
<ele>343.5</ele>
<speed>1.02</speed>
<course>81.3</course>
<desc>Speed 3.7 km/h Distance 5.88 km</desc>
<time>2010-10-23T17:41:29.62</time>
<name>3554</name>
</trkpt>
<trkpt lat="48.943315" lon="8.664407">
<ele>343.5</ele>
<speed>1.01</speed>
<course>3.9</course>
<desc>Speed 3.6 km/h Distance 5.88 km</desc>
<time>2010-10-23T17:41:30.62</time>
<name>3555</name>
</trkpt>
<trkpt lat="48.943328" lon="8.664408">
<ele>345.0</ele>
<speed>0.75</speed>
<course>46.4</course>
<desc>Speed 2.7 km/h Distance 5.88 km</desc>
<time>2010-10-23T17:41:31.62</time>
<name>3556</name>
</trkpt>
<trkpt lat="48.943337" lon="8.664422">
<ele>345.5</ele>
<speed>0.77</speed>
<course>90.0</course>
<desc>Speed 2.8 km/h Distance 5.88 km</desc>
<time>2010-10-23T17:41:32.62</time>
<name>3557</name>
</trkpt>
<trkpt lat="48.943337" lon="8.664450">
<ele>345.0</ele>
<speed>1.08</speed>
<course>83.3</course>
<desc>Speed 3.9 km/h Distance 5.88 km</desc>
<time>2010-10-23T17:41:33.62</time>
<name>3558</name>
</trkpt>
<trkpt lat="48.943338" lon="8.664472">
<ele>346.0</ele>
<speed>0.88</speed>
<course>5.0</course>
<desc>Speed 3.2 km/h Distance 5.88 km</desc>
<time>2010-10-23T17:41:34.62</time>
<name>3559</name>
</trkpt>
<trkpt lat="48.943363" lon="8.664475">
<ele>345.5</ele>
<speed>2.78</speed>
<course>116.9</course>
<desc>Speed 10.0 km/h Distance 5.89 km</desc>
<time>2010-10-23T17:41:35.62</time>
<name>3560</name>
</trkpt>
<trkpt lat="48.943358" lon="8.664490">
<ele>344.5</ele>
<speed>0.79</speed>
<course>96.7</course>
<desc>Speed 2.8 km/h Distance 5.89 km</desc>
<time>2010-10-23T17:41:36.62</time>
<name>3561</name>
</trkpt>
<trkpt lat="48.943357" lon="8.664512">
<ele>344.0</ele>
<speed>0.61</speed>
<course>75.8</course>
<desc>Speed 2.2 km/h Distance 5.89 km</desc>
<time>2010-10-23T17:41:37.62</time>
<name>3562</name>
</trkpt>
<trkpt lat="48.943360" lon="8.664532">
<ele>344.5</ele>
<speed>0.49</speed>
<course>104.2</course>
<desc>Speed 1.8 km/h Distance 5.89 km</desc>
<time>2010-10-23T17:41:38.62</time>
<name>3563</name>
</trkpt>
<trkpt lat="48.943357" lon="8.664552">
<ele>345.0</ele>
<speed>0.87</speed>
<course>110.9</course>
<desc>Speed 3.1 km/h Distance 5.89 km</desc>
<time>2010-10-23T17:41:39.62</time>
<name>3564</name>
</trkpt>
<trkpt lat="48.943353" lon="8.664565">
<ele>345.5</ele>
<speed>0.79</speed>
<course>12.6</course>
<desc>Speed 2.8 km/h Distance 5.89 km</desc>
<time>2010-10-23T17:41:40.62</time>
<name>3565</name>
</trkpt>
<trkpt lat="48.943357" lon="8.664567">
<ele>345.5</ele>
<speed>0.50</speed>
<course>51.9</course>
<desc>Speed 1.8 km/h Distance 5.89 km</desc>
<time>2010-10-23T17:41:41.62</time>
<name>3566</name>
</trkpt>
<trkpt lat="48.943358" lon="8.664570">
<ele>345.5</ele>
<speed>0.37</speed>
<course>44.5</course>
<desc>Speed 1.3 km/h Distance 5.89 km</desc>
<time>2010-10-23T17:41:42.62</time>
<name>3567</name>
</trkpt>
<trkpt lat="48.943362" lon="8.664575">
<ele>344.5</ele>
<speed>0.34</speed>
<course>90.0</course>
<desc>Speed 1.2 km/h Distance 5.90 km</desc>
<time>2010-10-23T17:41:43.62</time>
<name>3568</name>
</trkpt>
<trkpt lat="48.943362" lon="8.664592">
<ele>344.0</ele>
<speed>0.80</speed>
<course>17.6</course>
<desc>Speed 2.9 km/h Distance 5.90 km</desc>
<time>2010-10-23T17:41:44.62</time>
<name>3569</name>
</trkpt>
<trkpt lat="48.943372" lon="8.664597">
<ele>343.5</ele>
<speed>0.83</speed>
<course>39.4</course>
<desc>Speed 3.0 km/h Distance 5.90 km</desc>
<time>2010-10-23T17:41:45.62</time>
<name>3570</name>
</trkpt>
<trkpt lat="48.943378" lon="8.664605">
<ele>342.5</ele>
<speed>0.60</speed>
<course>80.4</course>
<desc>Speed 2.2 km/h Distance 5.90 km</desc>
<time>2010-10-23T17:41:46.62</time>
<name>3571</name>
</trkpt>
<trkpt lat="48.943380" lon="8.664620">
<ele>341.0</ele>
<speed>0.43</speed>
<course>80.4</course>
<desc>Speed 1.5 km/h Distance 5.90 km</desc>
<time>2010-10-23T17:41:47.62</time>
<name>3572</name>
</trkpt>
<trkpt lat="48.943382" lon="8.664635">
<ele>339.5</ele>
<speed>0.56</speed>
<course>63.0</course>
<desc>Speed 2.0 km/h Distance 5.90 km</desc>
<time>2010-10-23T17:41:48.62</time>
<name>3573</name>
</trkpt>
<trkpt lat="48.943385" lon="8.664645">
<ele>339.0</ele>
<speed>0.73</speed>
<course>76.8</course>
<desc>Speed 2.6 km/h Distance 5.90 km</desc>
<time>2010-10-23T17:41:49.62</time>
<name>3574</name>
</trkpt>
<trkpt lat="48.943388" lon="8.664667">
<ele>339.0</ele>
<speed>1.05</speed>
<course>13.5</course>
<desc>Speed 3.8 km/h Distance 5.90 km</desc>
<time>2010-10-23T17:41:50.62</time>
<name>3575</name>
</trkpt>
<trkpt lat="48.943402" lon="8.664672">
<ele>339.0</ele>
<speed>1.26</speed>
<course>42.6</course>
<desc>Speed 4.5 km/h Distance 5.90 km</desc>
<time>2010-10-23T17:41:51.62</time>
<name>3576</name>
</trkpt>
<trkpt lat="48.943410" lon="8.664683">
<ele>339.0</ele>
<speed>0.93</speed>
<course>61.0</course>
<desc>Speed 3.3 km/h Distance 5.91 km</desc>
<time>2010-10-23T17:41:52.62</time>
<name>3577</name>
</trkpt>
<trkpt lat="48.943417" lon="8.664702">
<ele>339.5</ele>
<speed>0.98</speed>
<course>30.6</course>
<desc>Speed 3.5 km/h Distance 5.91 km</desc>
<time>2010-10-23T17:41:53.62</time>
<name>3578</name>
</trkpt>
<trkpt lat="48.943433" lon="8.664717">
<ele>339.5</ele>
<speed>1.57</speed>
<course>56.3</course>
<desc>Speed 5.7 km/h Distance 5.91 km</desc>
<time>2010-10-23T17:41:54.62</time>
<name>3579</name>
</trkpt>
<trkpt lat="48.943445" lon="8.664743">
<ele>340.0</ele>
<speed>1.12</speed>
<course>55.4</course>
<desc>Speed 4.0 km/h Distance 5.91 km</desc>
<time>2010-10-23T17:41:55.61</time>
<name>3580</name>
</trkpt>
<trkpt lat="48.943453" lon="8.664762">
<ele>339.5</ele>
<speed>1.34</speed>
<course>73.7</course>
<desc>Speed 4.8 km/h Distance 5.91 km</desc>
<time>2010-10-23T17:41:56.61</time>
<name>3581</name>
</trkpt>
<trkpt lat="48.943462" lon="8.664805">
<ele>340.5</ele>
<speed>1.45</speed>
<course>77.3</course>
<desc>Speed 5.2 km/h Distance 5.92 km</desc>
<time>2010-10-23T17:41:57.61</time>
<name>3582</name>
</trkpt>
<trkpt lat="48.943468" lon="8.664850">
<ele>341.0</ele>
<speed>1.48</speed>
<course>35.5</course>
<desc>Speed 5.3 km/h Distance 5.92 km</desc>
<time>2010-10-23T17:41:58.61</time>
<name>3583</name>
</trkpt>
<trkpt lat="48.943507" lon="8.664892">
<ele>342.0</ele>
<speed>1.71</speed>
<course>82.5</course>
<desc>Speed 6.2 km/h Distance 5.93 km</desc>
<time>2010-10-23T17:42:00.61</time>
<name>3584</name>
</trkpt>
<trkpt lat="48.943510" lon="8.664930">
<ele>343.0</ele>
<speed>1.62</speed>
<course>90.0</course>
<desc>Speed 5.8 km/h Distance 5.93 km</desc>
<time>2010-10-23T17:42:01.61</time>
<name>3585</name>
</trkpt>
<trkpt lat="48.943510" lon="8.664953">
<ele>343.0</ele>
<speed>1.50</speed>
<course>100.2</course>
<desc>Speed 5.4 km/h Distance 5.93 km</desc>
<time>2010-10-23T17:42:02.61</time>
<name>3586</name>
</trkpt>
<trkpt lat="48.943507" lon="8.664982">
<ele>343.0</ele>
<speed>1.46</speed>
<course>84.6</course>
<desc>Speed 5.3 km/h Distance 5.93 km</desc>
<time>2010-10-23T17:42:03.61</time>
<name>3587</name>
</trkpt>
<trkpt lat="48.943508" lon="8.665008">
<ele>343.5</ele>
<speed>1.22</speed>
<course>76.8</course>
<desc>Speed 4.4 km/h Distance 5.93 km</desc>
<time>2010-10-23T17:42:04.61</time>
<name>3588</name>
</trkpt>
<trkpt lat="48.943512" lon="8.665030">
<ele>344.0</ele>
<speed>1.04</speed>
<course>49.1</course>
<desc>Speed 3.7 km/h Distance 5.94 km</desc>
<time>2010-10-23T17:42:05.61</time>
<name>3589</name>
</trkpt>
<trkpt lat="48.943518" lon="8.665042">
<ele>343.5</ele>
<speed>1.01</speed>
<course>79.3</course>
<desc>Speed 3.6 km/h Distance 5.94 km</desc>
<time>2010-10-23T17:42:06.61</time>
<name>3590</name>
</trkpt>
<trkpt lat="48.943520" lon="8.665055">
<ele>343.5</ele>
<speed>0.87</speed>
<course>102.3</course>
<desc>Speed 3.1 km/h Distance 5.94 km</desc>
<time>2010-10-23T17:42:07.61</time>
<name>3591</name>
</trkpt>
<trkpt lat="48.943518" lon="8.665067">
<ele>342.0</ele>
<speed>0.75</speed>
<course>90.0</course>
<desc>Speed 2.7 km/h Distance 5.94 km</desc>
<time>2010-10-23T17:42:08.61</time>
<name>3592</name>
</trkpt>
<trkpt lat="48.943518" lon="8.665078">
<ele>340.5</ele>
<speed>0.56</speed>
<course>29.4</course>
<desc>Speed 2.0 km/h Distance 5.94 km</desc>
<time>2010-10-23T17:42:09.61</time>
<name>3593</name>
</trkpt>
<trkpt lat="48.943530" lon="8.665088">
<ele>339.5</ele>
<speed>1.17</speed>
<course>23.3</course>
<desc>Speed 4.2 km/h Distance 5.94 km</desc>
<time>2010-10-23T17:42:10.61</time>
<name>3594</name>
</trkpt>
<trkpt lat="48.943545" lon="8.665098">
<ele>340.0</ele>
<speed>1.73</speed>
<course>44.5</course>
<desc>Speed 6.2 km/h Distance 5.94 km</desc>
<time>2010-10-23T17:42:11.61</time>
<name>3595</name>
</trkpt>
<trkpt lat="48.943552" lon="8.665108">
<ele>339.5</ele>
<speed>0.68</speed>
<course>33.3</course>
<desc>Speed 2.4 km/h Distance 5.94 km</desc>
<time>2010-10-23T17:42:12.61</time>
<name>3596</name>
</trkpt>
<trkpt lat="48.943567" lon="8.665123">
<ele>339.5</ele>
<speed>1.21</speed>
<course>36.6</course>
<desc>Speed 4.4 km/h Distance 5.95 km</desc>
<time>2010-10-23T17:42:13.61</time>
<name>3597</name>
</trkpt>
<trkpt lat="48.943580" lon="8.665138">
<ele>339.5</ele>
<speed>0.98</speed>
<course>20.9</course>
<desc>Speed 3.5 km/h Distance 5.95 km</desc>
<time>2010-10-23T17:42:14.61</time>
<name>3598</name>
</trkpt>
<trkpt lat="48.943592" lon="8.665145">
<ele>339.5</ele>
<speed>1.14</speed>
<course>29.4</course>
<desc>Speed 4.1 km/h Distance 5.95 km</desc>
<time>2010-10-23T17:42:15.61</time>
<name>3599</name>
</trkpt>
<trkpt lat="48.943603" lon="8.665155">
<ele>339.5</ele>
<speed>1.21</speed>
<course>18.1</course>
<desc>Speed 4.4 km/h Distance 5.95 km</desc>
<time>2010-10-23T17:42:16.61</time>
<name>3600</name>
</trkpt>
<trkpt lat="48.943617" lon="8.665162">
<ele>339.0</ele>
<speed>1.09</speed>
<course>27.9</course>
<desc>Speed 3.9 km/h Distance 5.95 km</desc>
<time>2010-10-23T17:42:17.61</time>
<name>3601</name>
</trkpt>
<trkpt lat="48.943625" lon="8.665168">
<ele>338.5</ele>
<speed>0.95</speed>
<course>124.0</course>
<desc>Speed 3.4 km/h Distance 5.95 km</desc>
<time>2010-10-23T17:42:18.61</time>
<name>3602</name>
</trkpt>
<trkpt lat="48.943618" lon="8.665183">
<ele>337.0</ele>
<speed>1.30</speed>
<course>10.8</course>
<desc>Speed 4.7 km/h Distance 5.95 km</desc>
<time>2010-10-23T17:42:19.61</time>
<name>3603</name>
</trkpt>
<trkpt lat="48.943642" lon="8.665190">
<ele>339.0</ele>
<speed>2.20</speed>
<course>18.1</course>
<desc>Speed 7.9 km/h Distance 5.96 km</desc>
<time>2010-10-23T17:42:20.61</time>
<name>3604</name>
</trkpt>
<trkpt lat="48.943655" lon="8.665197">
<ele>338.5</ele>
<speed>0.97</speed>
<course>2.5</course>
<desc>Speed 3.5 km/h Distance 5.96 km</desc>
<time>2010-10-23T17:42:21.61</time>
<name>3605</name>
</trkpt>
<trkpt lat="48.943673" lon="8.665198">
<ele>338.0</ele>
<speed>1.00</speed>
<course>44.5</course>
<desc>Speed 3.6 km/h Distance 5.96 km</desc>
<time>2010-10-23T17:42:22.61</time>
<name>3606</name>
</trkpt>
<trkpt lat="48.943680" lon="8.665208">
<ele>336.5</ele>
<speed>0.81</speed>
<course>63.1</course>
<desc>Speed 2.9 km/h Distance 5.96 km</desc>
<time>2010-10-23T17:42:23.61</time>
<name>3607</name>
</trkpt>
<trkpt lat="48.943685" lon="8.665223">
<ele>335.5</ele>
<speed>1.16</speed>
<course>124.3</course>
<desc>Speed 4.2 km/h Distance 5.96 km</desc>
<time>2010-10-23T17:42:24.61</time>
<name>3608</name>
</trkpt>
<trkpt lat="48.943683" lon="8.665227">
<ele>333.0</ele>
<speed>0.92</speed>
<course>90.0</course>
<desc>Speed 3.3 km/h Distance 5.96 km</desc>
<time>2010-10-23T17:42:25.61</time>
<name>3609</name>
</trkpt>
<trkpt lat="48.943683" lon="8.665242">
<ele>332.5</ele>
<speed>1.30</speed>
<course>127.0</course>
<desc>Speed 4.7 km/h Distance 5.96 km</desc>
<time>2010-10-23T17:42:26.61</time>
<name>3610</name>
</trkpt>
<trkpt lat="48.943680" lon="8.665248">
<ele>331.5</ele>
<speed>0.81</speed>
<course>90.0</course>
<desc>Speed 2.9 km/h Distance 5.97 km</desc>
<time>2010-10-23T17:42:27.61</time>
<name>3611</name>
</trkpt>
<trkpt lat="48.943680" lon="8.665257">
<ele>330.5</ele>
<speed>0.75</speed>
<course>90.0</course>
<desc>Speed 2.7 km/h Distance 5.97 km</desc>
<time>2010-10-23T17:42:28.61</time>
<name>3612</name>
</trkpt>
<trkpt lat="48.943680" lon="8.665262">
<ele>331.5</ele>
<speed>0.50</speed>
<course>117.4</course>
<desc>Speed 1.8 km/h Distance 5.97 km</desc>
<time>2010-10-23T17:42:29.61</time>
<name>3613</name>
</trkpt>
<trkpt lat="48.943678" lon="8.665267">
<ele>331.5</ele>
<speed>0.63</speed>
<course>146.3</course>
<desc>Speed 2.3 km/h Distance 5.97 km</desc>
<time>2010-10-23T17:42:30.61</time>
<name>3614</name>
</trkpt>
<trkpt lat="48.943672" lon="8.665273">
<ele>331.5</ele>
<speed>1.40</speed>
<course>133.5</course>
<desc>Speed 5.0 km/h Distance 5.97 km</desc>
<time>2010-10-23T17:42:31.61</time>
<name>3615</name>
</trkpt>
<trkpt lat="48.943663" lon="8.665287">
<ele>332.0</ele>
<speed>1.25</speed>
<course>127.2</course>
<desc>Speed 4.5 km/h Distance 5.97 km</desc>
<time>2010-10-23T17:42:32.61</time>
<name>3616</name>
</trkpt>
<trkpt lat="48.943657" lon="8.665300">
<ele>332.5</ele>
<speed>0.95</speed>
<course>161.2</course>
<desc>Speed 3.4 km/h Distance 5.97 km</desc>
<time>2010-10-23T17:42:33.61</time>
<name>3617</name>
</trkpt>
<trkpt lat="48.943653" lon="8.665302">
<ele>332.0</ele>
<speed>0.91</speed>
<course>167.4</course>
<desc>Speed 3.3 km/h Distance 5.97 km</desc>
<time>2010-10-23T17:42:34.61</time>
<name>3618</name>
</trkpt>
<trkpt lat="48.943650" lon="8.665303">
<ele>330.5</ele>
<speed>0.87</speed>
<course>146.8</course>
<desc>Speed 3.1 km/h Distance 5.97 km</desc>
<time>2010-10-23T17:42:35.61</time>
<name>3619</name>
</trkpt>
<trkpt lat="48.943643" lon="8.665310">
<ele>329.0</ele>
<speed>0.94</speed>
<course>90.0</course>
<desc>Speed 3.4 km/h Distance 5.97 km</desc>
<time>2010-10-23T17:42:36.61</time>
<name>3620</name>
</trkpt>
<trkpt lat="48.943643" lon="8.665318">
<ele>328.5</ele>
<speed>0.87</speed>
<course>53.0</course>
<desc>Speed 3.1 km/h Distance 5.97 km</desc>
<time>2010-10-23T17:42:37.61</time>
<name>3621</name>
</trkpt>
<trkpt lat="48.943647" lon="8.665325">
<ele>328.0</ele>
<speed>0.72</speed>
<course>98.7</course>
<desc>Speed 2.6 km/h Distance 5.97 km</desc>
<time>2010-10-23T17:42:38.61</time>
<name>3622</name>
</trkpt>
<trkpt lat="48.943645" lon="8.665342">
<ele>329.0</ele>
<speed>1.08</speed>
<course>80.4</course>
<desc>Speed 3.9 km/h Distance 5.97 km</desc>
<time>2010-10-23T17:42:39.61</time>
<name>3623</name>
</trkpt>
<trkpt lat="48.943647" lon="8.665357">
<ele>330.5</ele>
<speed>0.67</speed>
<course>140.6</course>
<desc>Speed 2.4 km/h Distance 5.98 km</desc>
<time>2010-10-23T17:42:40.61</time>
<name>3624</name>
</trkpt>
<trkpt lat="48.943640" lon="8.665365">
<ele>330.0</ele>
<speed>1.00</speed>
<course>169.6</course>
<desc>Speed 3.6 km/h Distance 5.98 km</desc>
<time>2010-10-23T17:42:41.61</time>
<name>3625</name>
</trkpt>
<trkpt lat="48.943610" lon="8.665373">
<ele>331.0</ele>
<speed>0.76</speed>
<course>122.9</course>
<desc>Speed 2.7 km/h Distance 5.98 km</desc>
<time>2010-10-23T17:42:43.61</time>
<name>3626</name>
</trkpt>
<trkpt lat="48.943605" lon="8.665385">
<ele>331.5</ele>
<speed>1.15</speed>
<course>62.6</course>
<desc>Speed 4.1 km/h Distance 5.98 km</desc>
<time>2010-10-23T17:42:44.61</time>
<name>3627</name>
</trkpt>
<trkpt lat="48.943607" lon="8.665390">
<ele>332.0</ele>
<speed>0.38</speed>
<course>90.0</course>
<desc>Speed 1.4 km/h Distance 5.98 km</desc>
<time>2010-10-23T17:42:45.61</time>
<name>3628</name>
</trkpt>
<trkpt lat="48.943607" lon="8.665405">
<ele>333.0</ele>
<speed>0.86</speed>
<course>105.5</course>
<desc>Speed 3.1 km/h Distance 5.98 km</desc>
<time>2010-10-23T17:42:46.61</time>
<name>3629</name>
</trkpt>
<trkpt lat="48.943603" lon="8.665423">
<ele>334.0</ele>
<speed>1.09</speed>
<course>108.1</course>
<desc>Speed 3.9 km/h Distance 5.98 km</desc>
<time>2010-10-23T17:42:47.61</time>
<name>3630</name>
</trkpt>
<trkpt lat="48.943598" lon="8.665447">
<ele>335.5</ele>
<speed>1.48</speed>
<course>110.8</course>
<desc>Speed 5.3 km/h Distance 5.99 km</desc>
<time>2010-10-23T17:42:48.61</time>
<name>3631</name>
</trkpt>
<trkpt lat="48.943592" lon="8.665473">
<ele>336.5</ele>
<speed>1.17</speed>
<course>127.2</course>
<desc>Speed 4.2 km/h Distance 5.99 km</desc>
<time>2010-10-23T17:42:49.61</time>
<name>3632</name>
</trkpt>
<trkpt lat="48.943583" lon="8.665490">
<ele>337.0</ele>
<speed>0.91</speed>
<course>102.3</course>
<desc>Speed 3.3 km/h Distance 5.99 km</desc>
<time>2010-10-23T17:42:50.61</time>
<name>3633</name>
</trkpt>
<trkpt lat="48.943580" lon="8.665513">
<ele>338.0</ele>
<speed>0.68</speed>
<course>123.3</course>
<desc>Speed 2.4 km/h Distance 5.99 km</desc>
<time>2010-10-23T17:42:51.61</time>
<name>3634</name>
</trkpt>
<trkpt lat="48.943575" lon="8.665525">
<ele>338.5</ele>
<speed>1.04</speed>
<course>108.6</course>
<desc>Speed 3.7 km/h Distance 5.99 km</desc>
<time>2010-10-23T17:42:52.61</time>
<name>3635</name>
</trkpt>
<trkpt lat="48.943572" lon="8.665540">
<ele>339.0</ele>
<speed>1.26</speed>
<course>114.5</course>
<desc>Speed 4.5 km/h Distance 5.99 km</desc>
<time>2010-10-23T17:42:53.61</time>
<name>3636</name>
</trkpt>
<trkpt lat="48.943567" lon="8.665557">
<ele>339.0</ele>
<speed>1.40</speed>
<course>133.6</course>
<desc>Speed 5.0 km/h Distance 5.99 km</desc>
<time>2010-10-23T17:42:54.61</time>
<name>3637</name>
</trkpt>
<trkpt lat="48.943558" lon="8.665570">
<ele>338.5</ele>
<speed>1.35</speed>
<course>132.6</course>
<desc>Speed 4.9 km/h Distance 6.00 km</desc>
<time>2010-10-23T17:42:55.61</time>
<name>3638</name>
</trkpt>
<trkpt lat="48.943553" lon="8.665578">
<ele>338.0</ele>
<speed>1.04</speed>
<course>115.2</course>
<desc>Speed 3.7 km/h Distance 6.00 km</desc>
<time>2010-10-23T17:42:56.61</time>
<name>3639</name>
</trkpt>
<trkpt lat="48.943532" lon="8.665648">
<ele>332.5</ele>
<speed>1.37</speed>
<course>65.4</course>
<desc>Speed 4.9 km/h Distance 6.00 km</desc>
<time>2010-10-23T17:42:58.61</time>
<name>3640</name>
</trkpt>
<trkpt lat="48.943537" lon="8.665665">
<ele>332.5</ele>
<speed>1.21</speed>
<course>65.5</course>
<desc>Speed 4.4 km/h Distance 6.00 km</desc>
<time>2010-10-23T17:42:59.61</time>
<name>3641</name>
</trkpt>
<trkpt lat="48.943542" lon="8.665682">
<ele>333.0</ele>
<speed>1.14</speed>
<course>75.8</course>
<desc>Speed 4.1 km/h Distance 6.00 km</desc>
<time>2010-10-23T17:43:00.61</time>
<name>3642</name>
</trkpt>
<trkpt lat="48.943545" lon="8.665702">
<ele>332.5</ele>
<speed>1.35</speed>
<course>71.9</course>
<desc>Speed 4.9 km/h Distance 6.01 km</desc>
<time>2010-10-23T17:43:01.61</time>
<name>3643</name>
</trkpt>
<trkpt lat="48.943550" lon="8.665725">
<ele>333.0</ele>
<speed>1.54</speed>
<course>79.2</course>
<desc>Speed 5.5 km/h Distance 6.01 km</desc>
<time>2010-10-23T17:43:02.61</time>
<name>3644</name>
</trkpt>
<trkpt lat="48.943553" lon="8.665752">
<ele>333.0</ele>
<speed>1.33</speed>
<course>94.6</course>
<desc>Speed 4.8 km/h Distance 6.01 km</desc>
<time>2010-10-23T17:43:03.61</time>
<name>3645</name>
</trkpt>
<trkpt lat="48.943552" lon="8.665783">
<ele>332.5</ele>
<speed>1.42</speed>
<course>56.9</course>
<desc>Speed 5.1 km/h Distance 6.01 km</desc>
<time>2010-10-23T17:43:05.60</time>
<name>3646</name>
</trkpt>
<trkpt lat="48.943562" lon="8.665807">
<ele>333.0</ele>
<speed>1.41</speed>
<course>98.7</course>
<desc>Speed 5.1 km/h Distance 6.01 km</desc>
<time>2010-10-23T17:43:06.60</time>
<name>3647</name>
</trkpt>
<trkpt lat="48.943558" lon="8.665840">
<ele>332.0</ele>
<speed>1.48</speed>
<course>94.4</course>
<desc>Speed 5.3 km/h Distance 6.02 km</desc>
<time>2010-10-23T17:43:07.60</time>
<name>3648</name>
</trkpt>
<trkpt lat="48.943557" lon="8.665873">
<ele>331.0</ele>
<speed>1.49</speed>
<course>94.6</course>
<desc>Speed 5.4 km/h Distance 6.02 km</desc>
<time>2010-10-23T17:43:08.60</time>
<name>3649</name>
</trkpt>
<trkpt lat="48.943555" lon="8.665905">
<ele>330.5</ele>
<speed>1.25</speed>
<course>64.9</course>
<desc>Speed 4.5 km/h Distance 6.02 km</desc>
<time>2010-10-23T17:43:09.60</time>
<name>3650</name>
</trkpt>
<trkpt lat="48.943562" lon="8.665927">
<ele>330.5</ele>
<speed>1.53</speed>
<course>66.5</course>
<desc>Speed 5.5 km/h Distance 6.02 km</desc>
<time>2010-10-23T17:43:10.60</time>
<name>3651</name>
</trkpt>
<trkpt lat="48.943568" lon="8.665950">
<ele>331.0</ele>
<speed>1.63</speed>
<course>64.9</course>
<desc>Speed 5.9 km/h Distance 6.03 km</desc>
<time>2010-10-23T17:43:11.60</time>
<name>3652</name>
</trkpt>
<trkpt lat="48.943575" lon="8.665972">
<ele>331.0</ele>
<speed>1.50</speed>
<course>63.1</course>
<desc>Speed 5.4 km/h Distance 6.03 km</desc>
<time>2010-10-23T17:43:12.60</time>
<name>3653</name>
</trkpt>
<trkpt lat="48.943583" lon="8.665997">
<ele>332.0</ele>
<speed>1.58</speed>
<course>58.7</course>
<desc>Speed 5.7 km/h Distance 6.03 km</desc>
<time>2010-10-23T17:43:13.60</time>
<name>3654</name>
</trkpt>
<trkpt lat="48.943590" lon="8.666013">
<ele>331.0</ele>
<speed>1.19</speed>
<course>67.5</course>
<desc>Speed 4.3 km/h Distance 6.03 km</desc>
<time>2010-10-23T17:43:14.60</time>
<name>3655</name>
</trkpt>
<trkpt lat="48.943595" lon="8.666032">
<ele>331.0</ele>
<speed>1.28</speed>
<course>77.7</course>
<desc>Speed 4.6 km/h Distance 6.03 km</desc>
<time>2010-10-23T17:43:15.60</time>
<name>3656</name>
</trkpt>
<trkpt lat="48.943598" lon="8.666055">
<ele>331.5</ele>
<speed>1.44</speed>
<course>85.4</course>
<desc>Speed 5.2 km/h Distance 6.03 km</desc>
<time>2010-10-23T17:43:16.60</time>
<name>3657</name>
</trkpt>
<trkpt lat="48.943600" lon="8.666087">
<ele>333.0</ele>
<speed>1.24</speed>
<course>350.4</course>
<desc>Speed 4.5 km/h Distance 6.04 km</desc>
<time>2010-10-23T17:43:17.60</time>
<name>3658</name>
</trkpt>
<trkpt lat="48.943608" lon="8.666085">
<ele>334.0</ele>
<speed>0.51</speed>
<course>103.5</course>
<desc>Speed 1.8 km/h Distance 6.04 km</desc>
<time>2010-10-23T17:43:18.60</time>
<name>3659</name>
</trkpt>
<trkpt lat="48.943603" lon="8.666117">
<ele>335.0</ele>
<speed>1.82</speed>
<course>90.0</course>
<desc>Speed 6.6 km/h Distance 6.04 km</desc>
<time>2010-10-23T17:43:19.60</time>
<name>3660</name>
</trkpt>
<trkpt lat="48.943603" lon="8.666145">
<ele>335.5</ele>
<speed>1.55</speed>
<course>102.3</course>
<desc>Speed 5.6 km/h Distance 6.04 km</desc>
<time>2010-10-23T17:43:20.60</time>
<name>3661</name>
</trkpt>
<trkpt lat="48.943600" lon="8.666168">
<ele>336.5</ele>
<speed>1.32</speed>
<course>122.3</course>
<desc>Speed 4.8 km/h Distance 6.04 km</desc>
<time>2010-10-23T17:43:21.60</time>
<name>3662</name>
</trkpt>
<trkpt lat="48.943592" lon="8.666188">
<ele>336.5</ele>
<speed>1.46</speed>
<course>138.6</course>
<desc>Speed 5.3 km/h Distance 6.05 km</desc>
<time>2010-10-23T17:43:22.60</time>
<name>3663</name>
</trkpt>
<trkpt lat="48.943582" lon="8.666202">
<ele>336.5</ele>
<speed>1.25</speed>
<course>138.8</course>
<desc>Speed 4.5 km/h Distance 6.05 km</desc>
<time>2010-10-23T17:43:23.60</time>
<name>3664</name>
</trkpt>
<trkpt lat="48.943567" lon="8.666222">
<ele>338.0</ele>
<speed>1.62</speed>
<course>137.9</course>
<desc>Speed 5.8 km/h Distance 6.05 km</desc>
<time>2010-10-23T17:43:24.59</time>
<name>3665</name>
</trkpt>
<trkpt lat="48.943553" lon="8.666240">
<ele>337.5</ele>
<speed>1.29</speed>
<course>140.2</course>
<desc>Speed 4.6 km/h Distance 6.05 km</desc>
<time>2010-10-23T17:43:25.59</time>
<name>3666</name>
</trkpt>
<trkpt lat="48.943535" lon="8.666263">
<ele>337.5</ele>
<speed>1.76</speed>
<course>123.7</course>
<desc>Speed 6.3 km/h Distance 6.05 km</desc>
<time>2010-10-23T17:43:26.59</time>
<name>3667</name>
</trkpt>
<trkpt lat="48.943523" lon="8.666290">
<ele>337.0</ele>
<speed>1.55</speed>
<course>96.2</course>
<desc>Speed 5.6 km/h Distance 6.06 km</desc>
<time>2010-10-23T17:43:27.59</time>
<name>3668</name>
</trkpt>
<trkpt lat="48.943522" lon="8.666313">
<ele>338.0</ele>
<speed>1.12</speed>
<course>168.6</course>
<desc>Speed 4.0 km/h Distance 6.06 km</desc>
<time>2010-10-23T17:43:28.58</time>
<name>3669</name>
</trkpt>
<trkpt lat="48.943500" lon="8.666320">
<ele>338.5</ele>
<speed>1.95</speed>
<course>105.5</course>
<desc>Speed 7.0 km/h Distance 6.06 km</desc>
<time>2010-10-23T17:43:29.66</time>
<name>3670</name>
</trkpt>
<trkpt lat="48.943497" lon="8.666338">
<ele>338.0</ele>
<speed>1.16</speed>
<course>119.0</course>
<desc>Speed 4.2 km/h Distance 6.06 km</desc>
<time>2010-10-23T17:43:30.58</time>
<name>3671</name>
</trkpt>
<trkpt lat="48.943490" lon="8.666357">
<ele>338.0</ele>
<speed>1.13</speed>
<course>116.9</course>
<desc>Speed 4.1 km/h Distance 6.06 km</desc>
<time>2010-10-23T17:43:31.57</time>
<name>3672</name>
</trkpt>
<trkpt lat="48.943483" lon="8.666377">
<ele>338.5</ele>
<speed>1.20</speed>
<course>83.3</course>
<desc>Speed 4.3 km/h Distance 6.06 km</desc>
<time>2010-10-23T17:43:32.57</time>
<name>3673</name>
</trkpt>
<trkpt lat="48.943485" lon="8.666398">
<ele>338.5</ele>
<speed>1.38</speed>
<course>83.3</course>
<desc>Speed 5.0 km/h Distance 6.07 km</desc>
<time>2010-10-23T17:43:33.57</time>
<name>3674</name>
</trkpt>
</trkseg>
</trk>
</gpx>
